<?xml version='1.0' encoding='UTF-8'?><gpx version="1.1" creator="JPX - https://github.com/jenetics/jpx" xmlns="http://www.topografix.com/GPX/1/1"><trk><trkseg><trkpt lat="42.3513501" lon="13.4116757"><ele>707.0</ele><time>2026-03-24T10:11:33.96Z</time></trkpt><trkpt lat="42.3512807" lon="13.4116092"><ele>707.0</ele><time>2026-03-24T10:11:34.961Z</time></trkpt><trkpt lat="42.3512284" lon="13.4115422"><ele>707.0</ele><time>2026-03-24T10:11:35.96Z</time></trkpt><trkpt lat="42.351149" lon="13.4114264"><ele>707.0</ele><time>2026-03-24T10:11:36.96Z</time></trkpt><trkpt lat="42.3510644" lon="13.4113113"><ele>707.0</ele><time>2026-03-24T10:11:37.96Z</time></trkpt><trkpt lat="42.3509746" lon="13.4111992"><ele>706.75</ele><time>2026-03-24T10:11:38.961Z</time></trkpt><trkpt lat="42.3508769" lon="13.4110946"><ele>706.5</ele><time>2026-03-24T10:11:39.961Z</time></trkpt><trkpt lat="42.3507726" lon="13.4110124"><ele>706.25</ele><time>2026-03-24T10:11:40.96Z</time></trkpt><trkpt lat="42.350669" lon="13.4109577"><ele>706.0</ele><time>2026-03-24T10:11:41.961Z</time></trkpt><trkpt lat="42.3505612" lon="13.4109286"><ele>704.5999999999999</ele><time>2026-03-24T10:11:42.96Z</time></trkpt><trkpt lat="42.350451" lon="13.4109059"><ele>703.2</ele><time>2026-03-24T10:11:43.96Z</time></trkpt><trkpt lat="42.3503474" lon="13.4109086"><ele>701.8</ele><time>2026-03-24T10:11:44.96Z</time></trkpt><trkpt lat="42.3502487" lon="13.4109285"><ele>700.4000000000001</ele><time>2026-03-24T10:11:45.96Z</time></trkpt><trkpt lat="42.3501575" lon="13.4109649"><ele>699.0</ele><time>2026-03-24T10:11:46.96Z</time></trkpt><trkpt lat="42.3500613" lon="13.4110166"><ele>699.0</ele><time>2026-03-24T10:11:47.96Z</time></trkpt><trkpt lat="42.3499596" lon="13.4110739"><ele>699.0</ele><time>2026-03-24T10:11:48.96Z</time></trkpt><trkpt lat="42.349849" lon="13.4111387"><ele>699.0</ele><time>2026-03-24T10:11:49.961Z</time></trkpt><trkpt lat="42.3497357" lon="13.4112027"><ele>699.0</ele><time>2026-03-24T10:11:50.96Z</time></trkpt><trkpt lat="42.3496106" lon="13.411269"><ele>697.0</ele><time>2026-03-24T10:11:51.96Z</time></trkpt><trkpt lat="42.3494831" lon="13.411342"><ele>695.0</ele><time>2026-03-24T10:11:52.96Z</time></trkpt><trkpt lat="42.349348" lon="13.4114072"><ele>693.0</ele><time>2026-03-24T10:11:53.96Z</time></trkpt><trkpt lat="42.3492073" lon="13.4114525"><ele>691.0</ele><time>2026-03-24T10:11:54.96Z</time></trkpt><trkpt lat="42.3490611" lon="13.4114636"><ele>691.0</ele><time>2026-03-24T10:11:55.96Z</time></trkpt><trkpt lat="42.3489179" lon="13.4114499"><ele>691.0</ele><time>2026-03-24T10:11:56.96Z</time></trkpt><trkpt lat="42.3487754" lon="13.4114294"><ele>691.0</ele><time>2026-03-24T10:11:57.961Z</time></trkpt><trkpt lat="42.3486348" lon="13.4114042"><ele>691.0</ele><time>2026-03-24T10:11:58.96Z</time></trkpt><trkpt lat="42.3484907" lon="13.4113731"><ele>690.25</ele><time>2026-03-24T10:11:59.96Z</time></trkpt><trkpt lat="42.3483512" lon="13.4113385"><ele>689.5</ele><time>2026-03-24T10:12:00.96Z</time></trkpt><trkpt lat="42.3482105" lon="13.4113071"><ele>688.75</ele><time>2026-03-24T10:12:01.96Z</time></trkpt><trkpt lat="42.348085" lon="13.4112784"><ele>688.0</ele><time>2026-03-24T10:12:02.96Z</time></trkpt><trkpt lat="42.3479731" lon="13.4112537"><ele>687.0</ele><time>2026-03-24T10:12:03.96Z</time></trkpt><trkpt lat="42.3478684" lon="13.4112299"><ele>686.0</ele><time>2026-03-24T10:12:04.961Z</time></trkpt><trkpt lat="42.3477665" lon="13.4112077"><ele>685.0</ele><time>2026-03-24T10:12:05.961Z</time></trkpt><trkpt lat="42.347667" lon="13.4111862"><ele>684.0</ele><time>2026-03-24T10:12:06.961Z</time></trkpt><trkpt lat="42.3475645" lon="13.4111634"><ele>683.0</ele><time>2026-03-24T10:12:07.96Z</time></trkpt><trkpt lat="42.3474639" lon="13.4111435"><ele>683.0</ele><time>2026-03-24T10:12:08.96Z</time></trkpt><trkpt lat="42.3473584" lon="13.4111304"><ele>683.0</ele><time>2026-03-24T10:12:09.96Z</time></trkpt><trkpt lat="42.3472522" lon="13.4111199"><ele>683.0</ele><time>2026-03-24T10:12:10.96Z</time></trkpt><trkpt lat="42.3471383" lon="13.4111116"><ele>683.0</ele><time>2026-03-24T10:12:11.96Z</time></trkpt><trkpt lat="42.3470281" lon="13.4110967"><ele>683.0</ele><time>2026-03-24T10:12:12.96Z</time></trkpt><trkpt lat="42.3469118" lon="13.4110734"><ele>682.25</ele><time>2026-03-24T10:12:13.961Z</time></trkpt><trkpt lat="42.3467968" lon="13.4110437"><ele>681.5</ele><time>2026-03-24T10:12:14.96Z</time></trkpt><trkpt lat="42.346681" lon="13.4110036"><ele>680.75</ele><time>2026-03-24T10:12:15.96Z</time></trkpt><trkpt lat="42.3465627" lon="13.4109564"><ele>680.0</ele><time>2026-03-24T10:12:16.961Z</time></trkpt><trkpt lat="42.3464525" lon="13.4109033"><ele>678.75</ele><time>2026-03-24T10:12:17.96Z</time></trkpt><trkpt lat="42.3463421" lon="13.4108487"><ele>677.5</ele><time>2026-03-24T10:12:18.96Z</time></trkpt><trkpt lat="42.3462356" lon="13.4107964"><ele>676.25</ele><time>2026-03-24T10:12:19.961Z</time></trkpt><trkpt lat="42.3461307" lon="13.4107361"><ele>675.0</ele><time>2026-03-24T10:12:20.96Z</time></trkpt><trkpt lat="42.3460209" lon="13.4106637"><ele>675.0</ele><time>2026-03-24T10:12:21.96Z</time></trkpt><trkpt lat="42.3459074" lon="13.4105783"><ele>675.0</ele><time>2026-03-24T10:12:22.961Z</time></trkpt><trkpt lat="42.3457913" lon="13.4104886"><ele>675.0</ele><time>2026-03-24T10:12:23.96Z</time></trkpt><trkpt lat="42.3456786" lon="13.4103979"><ele>675.0</ele><time>2026-03-24T10:12:24.961Z</time></trkpt><trkpt lat="42.3455755" lon="13.410304"><ele>674.25</ele><time>2026-03-24T10:12:25.96Z</time></trkpt><trkpt lat="42.3454778" lon="13.4102085"><ele>673.5</ele><time>2026-03-24T10:12:26.961Z</time></trkpt><trkpt lat="42.3453893" lon="13.4101092"><ele>672.75</ele><time>2026-03-24T10:12:27.96Z</time></trkpt><trkpt lat="42.3452977" lon="13.4100153"><ele>672.0</ele><time>2026-03-24T10:12:28.961Z</time></trkpt><trkpt lat="42.3452134" lon="13.4099226"><ele>672.0</ele><time>2026-03-24T10:12:29.96Z</time></trkpt><trkpt lat="42.3451272" lon="13.4098217"><ele>672.0</ele><time>2026-03-24T10:12:30.96Z</time></trkpt><trkpt lat="42.345042" lon="13.4097199"><ele>672.0</ele><time>2026-03-24T10:12:31.96Z</time></trkpt><trkpt lat="42.3449501" lon="13.4096129"><ele>672.0</ele><time>2026-03-24T10:12:32.96Z</time></trkpt><trkpt lat="42.3448625" lon="13.4095031"><ele>672.0</ele><time>2026-03-24T10:12:33.961Z</time></trkpt><trkpt lat="42.344773" lon="13.4093943"><ele>672.0</ele><time>2026-03-24T10:12:34.96Z</time></trkpt><trkpt lat="42.3446848" lon="13.409285"><ele>672.0</ele><time>2026-03-24T10:12:35.96Z</time></trkpt><trkpt lat="42.3446051" lon="13.409185"><ele>672.0</ele><time>2026-03-24T10:12:36.96Z</time></trkpt><trkpt lat="42.3445281" lon="13.4090982"><ele>672.0</ele><time>2026-03-24T10:12:37.96Z</time></trkpt><trkpt lat="42.3444627" lon="13.4090073"><ele>672.0</ele><time>2026-03-24T10:12:38.961Z</time></trkpt><trkpt lat="42.3443966" lon="13.4089225"><ele>672.0</ele><time>2026-03-24T10:12:39.96Z</time></trkpt><trkpt lat="42.3443308" lon="13.4088494"><ele>672.0</ele><time>2026-03-24T10:12:40.96Z</time></trkpt><trkpt lat="42.3442586" lon="13.4087844"><ele>672.0</ele><time>2026-03-24T10:12:41.961Z</time></trkpt><trkpt lat="42.3441875" lon="13.4087316"><ele>672.0</ele><time>2026-03-24T10:12:42.96Z</time></trkpt><trkpt lat="42.3441099" lon="13.4086838"><ele>672.0</ele><time>2026-03-24T10:12:43.96Z</time></trkpt><trkpt lat="42.3440415" lon="13.4086247"><ele>671.2</ele><time>2026-03-24T10:12:44.961Z</time></trkpt><trkpt lat="42.3439765" lon="13.4085442"><ele>670.4000000000001</ele><time>2026-03-24T10:12:45.961Z</time></trkpt><trkpt lat="42.3439145" lon="13.4084479"><ele>669.5999999999999</ele><time>2026-03-24T10:12:46.96Z</time></trkpt><trkpt lat="42.3438509" lon="13.4083297"><ele>668.8</ele><time>2026-03-24T10:12:47.961Z</time></trkpt><trkpt lat="42.3437868" lon="13.4082056"><ele>668.0</ele><time>2026-03-24T10:12:48.961Z</time></trkpt><trkpt lat="42.3437115" lon="13.4080779"><ele>665.5</ele><time>2026-03-24T10:12:49.961Z</time></trkpt><trkpt lat="42.3436369" lon="13.4079603"><ele>663.0</ele><time>2026-03-24T10:12:50.96Z</time></trkpt><trkpt lat="42.343555" lon="13.4078541"><ele>660.5</ele><time>2026-03-24T10:12:51.96Z</time></trkpt><trkpt lat="42.3434632" lon="13.4077507"><ele>658.0</ele><time>2026-03-24T10:12:52.96Z</time></trkpt><trkpt lat="42.3433558" lon="13.4076592"><ele>658.0</ele><time>2026-03-24T10:12:53.96Z</time></trkpt><trkpt lat="42.3432342" lon="13.4075762"><ele>658.0</ele><time>2026-03-24T10:12:54.96Z</time></trkpt><trkpt lat="42.3431047" lon="13.4075056"><ele>658.0</ele><time>2026-03-24T10:12:55.961Z</time></trkpt><trkpt lat="42.3429742" lon="13.4074346"><ele>658.0</ele><time>2026-03-24T10:12:56.96Z</time></trkpt><trkpt lat="42.3428455" lon="13.4073667"><ele>657.25</ele><time>2026-03-24T10:12:57.961Z</time></trkpt><trkpt lat="42.3427202" lon="13.4073005"><ele>656.5</ele><time>2026-03-24T10:12:58.961Z</time></trkpt><trkpt lat="42.3425964" lon="13.4072347"><ele>655.75</ele><time>2026-03-24T10:12:59.961Z</time></trkpt><trkpt lat="42.3424708" lon="13.4071619"><ele>655.0</ele><time>2026-03-24T10:13:00.961Z</time></trkpt><trkpt lat="42.3423396" lon="13.4070881"><ele>650.3333333333334</ele><time>2026-03-24T10:13:01.961Z</time></trkpt><trkpt lat="42.3422001" lon="13.4070078"><ele>645.6666666666666</ele><time>2026-03-24T10:13:02.96Z</time></trkpt><trkpt lat="42.3420589" lon="13.4069284"><ele>641.0</ele><time>2026-03-24T10:13:03.96Z</time></trkpt><trkpt lat="42.3419112" lon="13.4068456"><ele>641.0</ele><time>2026-03-24T10:13:04.96Z</time></trkpt><trkpt lat="42.3417641" lon="13.4067636"><ele>641.0</ele><time>2026-03-24T10:13:05.96Z</time></trkpt><trkpt lat="42.341615" lon="13.4066858"><ele>641.0</ele><time>2026-03-24T10:13:06.96Z</time></trkpt><trkpt lat="42.3414668" lon="13.4066019"><ele>639.25</ele><time>2026-03-24T10:13:07.96Z</time></trkpt><trkpt lat="42.341329" lon="13.4065206"><ele>637.5</ele><time>2026-03-24T10:13:08.961Z</time></trkpt><trkpt lat="42.3411905" lon="13.406443"><ele>635.75</ele><time>2026-03-24T10:13:09.96Z</time></trkpt><trkpt lat="42.3410552" lon="13.4063714"><ele>634.0</ele><time>2026-03-24T10:13:10.96Z</time></trkpt><trkpt lat="42.3409176" lon="13.4063081"><ele>631.25</ele><time>2026-03-24T10:13:11.96Z</time></trkpt><trkpt lat="42.3407879" lon="13.4062584"><ele>628.5</ele><time>2026-03-24T10:13:12.96Z</time></trkpt><trkpt lat="42.3406601" lon="13.4062296"><ele>625.75</ele><time>2026-03-24T10:13:13.96Z</time></trkpt><trkpt lat="42.3405283" lon="13.406228"><ele>623.0</ele><time>2026-03-24T10:13:14.96Z</time></trkpt><trkpt lat="42.3404021" lon="13.4062528"><ele>621.75</ele><time>2026-03-24T10:13:15.961Z</time></trkpt><trkpt lat="42.3402791" lon="13.4063015"><ele>620.5</ele><time>2026-03-24T10:13:16.961Z</time></trkpt><trkpt lat="42.3401644" lon="13.406372"><ele>619.25</ele><time>2026-03-24T10:13:17.96Z</time></trkpt><trkpt lat="42.3400607" lon="13.4064645"><ele>618.0</ele><time>2026-03-24T10:13:18.96Z</time></trkpt><trkpt lat="42.339966" lon="13.4065739"><ele>618.0</ele><time>2026-03-24T10:13:19.961Z</time></trkpt><trkpt lat="42.3398847" lon="13.4066967"><ele>618.0</ele><time>2026-03-24T10:13:20.96Z</time></trkpt><trkpt lat="42.3398191" lon="13.4068313"><ele>618.0</ele><time>2026-03-24T10:13:21.96Z</time></trkpt><trkpt lat="42.3397627" lon="13.4069775"><ele>618.0</ele><time>2026-03-24T10:13:22.961Z</time></trkpt><trkpt lat="42.339722" lon="13.4071289"><ele>615.1999999999999</ele><time>2026-03-24T10:13:23.96Z</time></trkpt><trkpt lat="42.3396872" lon="13.4072621"><ele>612.4</ele><time>2026-03-24T10:13:24.96Z</time></trkpt><trkpt lat="42.339664" lon="13.4073624"><ele>609.5999999999999</ele><time>2026-03-24T10:13:25.96Z</time></trkpt><trkpt lat="42.33962" lon="13.4075085"><ele>606.8</ele><time>2026-03-24T10:13:27.961Z</time></trkpt><trkpt lat="42.3395831" lon="13.407633"><ele>604.0</ele><time>2026-03-24T10:13:29.961Z</time></trkpt><trkpt lat="42.3395527" lon="13.4077209"><ele>604.0</ele><time>2026-03-24T10:13:31.96Z</time></trkpt><trkpt lat="42.3395281" lon="13.4078084"><ele>604.0</ele><time>2026-03-24T10:13:33.96Z</time></trkpt><trkpt lat="42.3394892" lon="13.4078898"><ele>604.0</ele><time>2026-03-24T10:13:37.96Z</time></trkpt><trkpt lat="42.3394141" lon="13.4079894"><ele>604.0</ele><time>2026-03-24T10:13:40.961Z</time></trkpt><trkpt lat="42.3393629" lon="13.4081296"><ele>604.0</ele><time>2026-03-24T10:13:42.961Z</time></trkpt><trkpt lat="42.3393554" lon="13.4082228"><ele>604.0</ele><time>2026-03-24T10:13:43.96Z</time></trkpt><trkpt lat="42.3393436" lon="13.4083499"><ele>604.0</ele><time>2026-03-24T10:13:44.96Z</time></trkpt><trkpt lat="42.3393143" lon="13.4085044"><ele>604.0</ele><time>2026-03-24T10:13:45.961Z</time></trkpt><trkpt lat="42.3392907" lon="13.4086642"><ele>604.0</ele><time>2026-03-24T10:13:46.96Z</time></trkpt><trkpt lat="42.3392642" lon="13.4088209"><ele>604.0</ele><time>2026-03-24T10:13:47.961Z</time></trkpt><trkpt lat="42.3392337" lon="13.4089646"><ele>604.0</ele><time>2026-03-24T10:13:48.961Z</time></trkpt><trkpt lat="42.3391946" lon="13.4090914"><ele>604.0</ele><time>2026-03-24T10:13:49.961Z</time></trkpt><trkpt lat="42.3391582" lon="13.4091987"><ele>604.0</ele><time>2026-03-24T10:13:50.961Z</time></trkpt><trkpt lat="42.3391299" lon="13.4092759"><ele>604.0</ele><time>2026-03-24T10:13:51.961Z</time></trkpt><trkpt lat="42.3391134" lon="13.4093654"><ele>604.0</ele><time>2026-03-24T10:13:53.96Z</time></trkpt><trkpt lat="42.3391098" lon="13.409489"><ele>604.0</ele><time>2026-03-24T10:15:12.96Z</time></trkpt><trkpt lat="42.3391143" lon="13.4096496"><ele>604.6</ele><time>2026-03-24T10:15:14.961Z</time></trkpt><trkpt lat="42.3391238" lon="13.4097745"><ele>605.2</ele><time>2026-03-24T10:15:15.96Z</time></trkpt><trkpt lat="42.3391196" lon="13.4099027"><ele>605.8000000000001</ele><time>2026-03-24T10:15:16.961Z</time></trkpt><trkpt lat="42.3391014" lon="13.4100414"><ele>606.4</ele><time>2026-03-24T10:15:17.961Z</time></trkpt><trkpt lat="42.3390697" lon="13.4101861"><ele>607.0</ele><time>2026-03-24T10:15:18.96Z</time></trkpt><trkpt lat="42.3390172" lon="13.4103063"><ele>607.0</ele><time>2026-03-24T10:15:19.96Z</time></trkpt><trkpt lat="42.3389403" lon="13.4103996"><ele>607.0</ele><time>2026-03-24T10:15:20.96Z</time></trkpt><trkpt lat="42.3388598" lon="13.4104455"><ele>607.0</ele><time>2026-03-24T10:15:21.961Z</time></trkpt><trkpt lat="42.3387784" lon="13.4104431"><ele>607.0</ele><time>2026-03-24T10:15:22.961Z</time></trkpt><trkpt lat="42.3386988" lon="13.4104201"><ele>607.0</ele><time>2026-03-24T10:15:23.96Z</time></trkpt><trkpt lat="42.3386176" lon="13.4103783"><ele>607.0</ele><time>2026-03-24T10:15:24.961Z</time></trkpt><trkpt lat="42.3385429" lon="13.410333"><ele>605.8333333333334</ele><time>2026-03-24T10:15:25.961Z</time></trkpt><trkpt lat="42.3384622" lon="13.4102855"><ele>604.6666666666667</ele><time>2026-03-24T10:15:26.96Z</time></trkpt><trkpt lat="42.3383846" lon="13.4102293"><ele>603.5</ele><time>2026-03-24T10:15:27.96Z</time></trkpt><trkpt lat="42.3383044" lon="13.4101686"><ele>602.3333333333334</ele><time>2026-03-24T10:15:28.96Z</time></trkpt><trkpt lat="42.3382298" lon="13.4101129"><ele>601.1666666666666</ele><time>2026-03-24T10:15:29.961Z</time></trkpt><trkpt lat="42.3381542" lon="13.4100559"><ele>600.0</ele><time>2026-03-24T10:15:30.961Z</time></trkpt><trkpt lat="42.3380804" lon="13.4100058"><ele>600.3333333333334</ele><time>2026-03-24T10:15:31.961Z</time></trkpt><trkpt lat="42.3380014" lon="13.4099647"><ele>600.6666666666666</ele><time>2026-03-24T10:15:32.961Z</time></trkpt><trkpt lat="42.3379192" lon="13.4099336"><ele>601.0</ele><time>2026-03-24T10:15:33.96Z</time></trkpt><trkpt lat="42.3378287" lon="13.4099261"><ele>601.3333333333333</ele><time>2026-03-24T10:15:34.96Z</time></trkpt><trkpt lat="42.3377393" lon="13.4099373"><ele>601.6666666666666</ele><time>2026-03-24T10:15:35.96Z</time></trkpt><trkpt lat="42.3376533" lon="13.4099712"><ele>602.0</ele><time>2026-03-24T10:15:36.961Z</time></trkpt><trkpt lat="42.337573" lon="13.4100257"><ele>602.0</ele><time>2026-03-24T10:15:37.96Z</time></trkpt><trkpt lat="42.3375013" lon="13.4100999"><ele>602.0</ele><time>2026-03-24T10:15:38.96Z</time></trkpt><trkpt lat="42.337438" lon="13.4101832"><ele>602.0</ele><time>2026-03-24T10:15:39.961Z</time></trkpt><trkpt lat="42.3373753" lon="13.4102934"><ele>602.0</ele><time>2026-03-24T10:15:40.96Z</time></trkpt><trkpt lat="42.337318" lon="13.41042"><ele>602.0</ele><time>2026-03-24T10:15:41.961Z</time></trkpt><trkpt lat="42.3372613" lon="13.4105748"><ele>604.6666666666666</ele><time>2026-03-24T10:15:42.96Z</time></trkpt><trkpt lat="42.337193" lon="13.4107657"><ele>607.3333333333334</ele><time>2026-03-24T10:15:43.961Z</time></trkpt><trkpt lat="42.3370936" lon="13.4109777"><ele>610.0</ele><time>2026-03-24T10:15:44.96Z</time></trkpt><trkpt lat="42.3369844" lon="13.4112033"><ele>608.3333333333334</ele><time>2026-03-24T10:15:45.961Z</time></trkpt><trkpt lat="42.3368851" lon="13.4114425"><ele>606.6666666666666</ele><time>2026-03-24T10:15:46.96Z</time></trkpt><trkpt lat="42.3367865" lon="13.4116879"><ele>605.0</ele><time>2026-03-24T10:15:47.961Z</time></trkpt><trkpt lat="42.3366918" lon="13.411939"><ele>604.0</ele><time>2026-03-24T10:15:48.96Z</time></trkpt><trkpt lat="42.3365928" lon="13.4121839"><ele>603.0</ele><time>2026-03-24T10:15:49.961Z</time></trkpt><trkpt lat="42.3365032" lon="13.412415"><ele>602.0</ele><time>2026-03-24T10:15:50.96Z</time></trkpt><trkpt lat="42.3364146" lon="13.4126397"><ele>603.0</ele><time>2026-03-24T10:15:51.96Z</time></trkpt><trkpt lat="42.3363251" lon="13.4128488"><ele>604.0</ele><time>2026-03-24T10:15:52.961Z</time></trkpt><trkpt lat="42.3362412" lon="13.4130514"><ele>605.0</ele><time>2026-03-24T10:15:53.96Z</time></trkpt><trkpt lat="42.3361628" lon="13.4132398"><ele>605.0</ele><time>2026-03-24T10:15:54.961Z</time></trkpt><trkpt lat="42.3360846" lon="13.4134237"><ele>605.0</ele><time>2026-03-24T10:15:55.961Z</time></trkpt><trkpt lat="42.3360136" lon="13.4135939"><ele>605.0</ele><time>2026-03-24T10:15:56.96Z</time></trkpt><trkpt lat="42.3359444" lon="13.413762"><ele>605.0</ele><time>2026-03-24T10:15:57.961Z</time></trkpt><trkpt lat="42.3358635" lon="13.4139292"><ele>605.5</ele><time>2026-03-24T10:15:58.96Z</time></trkpt><trkpt lat="42.3357709" lon="13.4140826"><ele>606.0</ele><time>2026-03-24T10:15:59.96Z</time></trkpt><trkpt lat="42.3356639" lon="13.4142228"><ele>606.5</ele><time>2026-03-24T10:16:00.961Z</time></trkpt><trkpt lat="42.3355405" lon="13.4143382"><ele>607.0</ele><time>2026-03-24T10:16:01.96Z</time></trkpt><trkpt lat="42.3354048" lon="13.4144347"><ele>607.0</ele><time>2026-03-24T10:16:02.96Z</time></trkpt><trkpt lat="42.3352651" lon="13.4145275"><ele>607.0</ele><time>2026-03-24T10:16:03.961Z</time></trkpt><trkpt lat="42.3351235" lon="13.4146242"><ele>607.0</ele><time>2026-03-24T10:16:04.961Z</time></trkpt><trkpt lat="42.3349753" lon="13.414718"><ele>605.3333333333334</ele><time>2026-03-24T10:16:05.96Z</time></trkpt><trkpt lat="42.3348276" lon="13.41481"><ele>603.6666666666666</ele><time>2026-03-24T10:16:06.961Z</time></trkpt><trkpt lat="42.3346801" lon="13.4149037"><ele>602.0</ele><time>2026-03-24T10:16:07.96Z</time></trkpt><trkpt lat="42.3345365" lon="13.4149997"><ele>601.5</ele><time>2026-03-24T10:16:08.96Z</time></trkpt><trkpt lat="42.3344019" lon="13.4150887"><ele>601.0</ele><time>2026-03-24T10:16:09.96Z</time></trkpt><trkpt lat="42.3342742" lon="13.4151788"><ele>600.5</ele><time>2026-03-24T10:16:10.961Z</time></trkpt><trkpt lat="42.3341418" lon="13.4152705"><ele>600.0</ele><time>2026-03-24T10:16:11.96Z</time></trkpt><trkpt lat="42.3340056" lon="13.4153588"><ele>599.3333333333334</ele><time>2026-03-24T10:16:12.961Z</time></trkpt><trkpt lat="42.33387" lon="13.4154477"><ele>598.6666666666667</ele><time>2026-03-24T10:16:13.96Z</time></trkpt><trkpt lat="42.3337326" lon="13.415545"><ele>598.0</ele><time>2026-03-24T10:16:14.96Z</time></trkpt><trkpt lat="42.3335924" lon="13.4156535"><ele>597.6666666666667</ele><time>2026-03-24T10:16:15.96Z</time></trkpt><trkpt lat="42.3334565" lon="13.4157679"><ele>597.3333333333334</ele><time>2026-03-24T10:16:16.96Z</time></trkpt><trkpt lat="42.3333224" lon="13.4158856"><ele>597.0</ele><time>2026-03-24T10:16:17.96Z</time></trkpt><trkpt lat="42.3331967" lon="13.4159949"><ele>597.0</ele><time>2026-03-24T10:16:18.96Z</time></trkpt><trkpt lat="42.3330768" lon="13.4161105"><ele>597.0</ele><time>2026-03-24T10:16:19.961Z</time></trkpt><trkpt lat="42.332959" lon="13.4162187"><ele>597.0</ele><time>2026-03-24T10:16:20.96Z</time></trkpt><trkpt lat="42.3328473" lon="13.4163126"><ele>597.0</ele><time>2026-03-24T10:16:21.96Z</time></trkpt><trkpt lat="42.3327362" lon="13.4164032"><ele>597.0</ele><time>2026-03-24T10:16:22.961Z</time></trkpt><trkpt lat="42.3326423" lon="13.416478"><ele>597.0</ele><time>2026-03-24T10:16:23.96Z</time></trkpt><trkpt lat="42.3325506" lon="13.4165496"><ele>597.0</ele><time>2026-03-24T10:16:24.961Z</time></trkpt><trkpt lat="42.3324474" lon="13.4166394"><ele>597.0</ele><time>2026-03-24T10:16:25.96Z</time></trkpt><trkpt lat="42.3323321" lon="13.4167525"><ele>597.0</ele><time>2026-03-24T10:16:26.96Z</time></trkpt><trkpt lat="42.332195" lon="13.4168765"><ele>597.0</ele><time>2026-03-24T10:16:27.961Z</time></trkpt><trkpt lat="42.332039" lon="13.417014"><ele>597.0</ele><time>2026-03-24T10:16:28.96Z</time></trkpt><trkpt lat="42.3318666" lon="13.4171628"><ele>596.6666666666666</ele><time>2026-03-24T10:16:29.96Z</time></trkpt><trkpt lat="42.331684" lon="13.4173197"><ele>596.3333333333333</ele><time>2026-03-24T10:16:30.96Z</time></trkpt><trkpt lat="42.3315043" lon="13.4174827"><ele>596.0</ele><time>2026-03-24T10:16:31.961Z</time></trkpt><trkpt lat="42.3313088" lon="13.4176583"><ele>596.0</ele><time>2026-03-24T10:16:32.96Z</time></trkpt><trkpt lat="42.3311144" lon="13.4178322"><ele>596.0</ele><time>2026-03-24T10:16:33.961Z</time></trkpt><trkpt lat="42.3309181" lon="13.4180094"><ele>596.0</ele><time>2026-03-24T10:16:34.96Z</time></trkpt><trkpt lat="42.3307216" lon="13.4181821"><ele>596.0</ele><time>2026-03-24T10:16:35.96Z</time></trkpt><trkpt lat="42.3305212" lon="13.4183564"><ele>596.5</ele><time>2026-03-24T10:16:36.961Z</time></trkpt><trkpt lat="42.3303266" lon="13.418527"><ele>597.0</ele><time>2026-03-24T10:16:37.961Z</time></trkpt><trkpt lat="42.3301308" lon="13.4186975"><ele>596.6666666666666</ele><time>2026-03-24T10:16:38.961Z</time></trkpt><trkpt lat="42.329942" lon="13.4188639"><ele>596.3333333333333</ele><time>2026-03-24T10:16:39.961Z</time></trkpt><trkpt lat="42.3297567" lon="13.4190294"><ele>596.0</ele><time>2026-03-24T10:16:40.96Z</time></trkpt><trkpt lat="42.3295732" lon="13.419188"><ele>595.0</ele><time>2026-03-24T10:16:41.961Z</time></trkpt><trkpt lat="42.3293895" lon="13.4193445"><ele>594.0</ele><time>2026-03-24T10:16:42.96Z</time></trkpt><trkpt lat="42.3292148" lon="13.4195014"><ele>593.0</ele><time>2026-03-24T10:16:43.96Z</time></trkpt><trkpt lat="42.3290451" lon="13.4196559"><ele>593.6666666666666</ele><time>2026-03-24T10:16:44.96Z</time></trkpt><trkpt lat="42.3288837" lon="13.4197987"><ele>594.3333333333334</ele><time>2026-03-24T10:16:45.96Z</time></trkpt><trkpt lat="42.3287211" lon="13.4199396"><ele>595.0</ele><time>2026-03-24T10:16:46.961Z</time></trkpt><trkpt lat="42.3285736" lon="13.4200722"><ele>595.0</ele><time>2026-03-24T10:16:47.96Z</time></trkpt><trkpt lat="42.3284421" lon="13.4201785"><ele>595.0</ele><time>2026-03-24T10:16:48.96Z</time></trkpt><trkpt lat="42.3283064" lon="13.4202939"><ele>595.0</ele><time>2026-03-24T10:16:49.96Z</time></trkpt><trkpt lat="42.3281648" lon="13.4204233"><ele>594.3333333333334</ele><time>2026-03-24T10:16:50.961Z</time></trkpt><trkpt lat="42.3280122" lon="13.4205576"><ele>593.6666666666666</ele><time>2026-03-24T10:16:51.96Z</time></trkpt><trkpt lat="42.3278494" lon="13.420699"><ele>593.0</ele><time>2026-03-24T10:16:52.96Z</time></trkpt><trkpt lat="42.3276851" lon="13.4208472"><ele>593.0</ele><time>2026-03-24T10:16:53.961Z</time></trkpt><trkpt lat="42.3275172" lon="13.4209999"><ele>593.0</ele><time>2026-03-24T10:16:54.961Z</time></trkpt><trkpt lat="42.3273421" lon="13.4211513"><ele>593.0</ele><time>2026-03-24T10:16:55.96Z</time></trkpt><trkpt lat="42.3271597" lon="13.4213087"><ele>593.5</ele><time>2026-03-24T10:16:56.961Z</time></trkpt><trkpt lat="42.3269708" lon="13.4214719"><ele>594.0</ele><time>2026-03-24T10:16:57.96Z</time></trkpt><trkpt lat="42.3267821" lon="13.4216407"><ele>594.0</ele><time>2026-03-24T10:16:58.96Z</time></trkpt><trkpt lat="42.3265986" lon="13.4218074"><ele>594.0</ele><time>2026-03-24T10:16:59.96Z</time></trkpt><trkpt lat="42.3264046" lon="13.4219746"><ele>594.0</ele><time>2026-03-24T10:17:00.961Z</time></trkpt><trkpt lat="42.3262131" lon="13.4221404"><ele>594.0</ele><time>2026-03-24T10:17:01.96Z</time></trkpt><trkpt lat="42.3260138" lon="13.4223089"><ele>593.0</ele><time>2026-03-24T10:17:02.961Z</time></trkpt><trkpt lat="42.3258155" lon="13.4224864"><ele>592.0</ele><time>2026-03-24T10:17:03.96Z</time></trkpt><trkpt lat="42.3256163" lon="13.422662"><ele>592.0</ele><time>2026-03-24T10:17:04.96Z</time></trkpt><trkpt lat="42.3254145" lon="13.422838"><ele>592.0</ele><time>2026-03-24T10:17:05.96Z</time></trkpt><trkpt lat="42.3252093" lon="13.4230201"><ele>592.0</ele><time>2026-03-24T10:17:06.96Z</time></trkpt><trkpt lat="42.3250028" lon="13.4232031"><ele>592.0</ele><time>2026-03-24T10:17:07.961Z</time></trkpt><trkpt lat="42.324797" lon="13.4233824"><ele>591.5</ele><time>2026-03-24T10:17:08.961Z</time></trkpt><trkpt lat="42.324592" lon="13.4235657"><ele>591.0</ele><time>2026-03-24T10:17:09.961Z</time></trkpt><trkpt lat="42.324385" lon="13.4237478"><ele>590.5</ele><time>2026-03-24T10:17:10.961Z</time></trkpt><trkpt lat="42.32418" lon="13.42393"><ele>590.0</ele><time>2026-03-24T10:17:11.96Z</time></trkpt><trkpt lat="42.3239778" lon="13.4241068"><ele>589.5</ele><time>2026-03-24T10:17:12.96Z</time></trkpt><trkpt lat="42.3237753" lon="13.4242871"><ele>589.0</ele><time>2026-03-24T10:17:13.961Z</time></trkpt><trkpt lat="42.3235765" lon="13.4244621"><ele>589.0</ele><time>2026-03-24T10:17:14.961Z</time></trkpt><trkpt lat="42.3233891" lon="13.4246253"><ele>589.0</ele><time>2026-03-24T10:17:15.96Z</time></trkpt><trkpt lat="42.3232121" lon="13.4247813"><ele>589.0</ele><time>2026-03-24T10:17:16.96Z</time></trkpt><trkpt lat="42.3230464" lon="13.4249271"><ele>588.6666666666667</ele><time>2026-03-24T10:17:17.96Z</time></trkpt><trkpt lat="42.3228877" lon="13.4250662"><ele>588.3333333333334</ele><time>2026-03-24T10:17:18.961Z</time></trkpt><trkpt lat="42.322731" lon="13.425205"><ele>588.0</ele><time>2026-03-24T10:17:19.961Z</time></trkpt><trkpt lat="42.3225719" lon="13.4253478"><ele>588.0</ele><time>2026-03-24T10:17:20.961Z</time></trkpt><trkpt lat="42.322407" lon="13.4254903"><ele>588.0</ele><time>2026-03-24T10:17:21.961Z</time></trkpt><trkpt lat="42.3222392" lon="13.4256383"><ele>588.0</ele><time>2026-03-24T10:17:22.96Z</time></trkpt><trkpt lat="42.3220674" lon="13.4257855"><ele>588.3333333333334</ele><time>2026-03-24T10:17:23.96Z</time></trkpt><trkpt lat="42.3218924" lon="13.4259392"><ele>588.6666666666667</ele><time>2026-03-24T10:17:24.96Z</time></trkpt><trkpt lat="42.321722" lon="13.426097"><ele>589.0</ele><time>2026-03-24T10:17:25.961Z</time></trkpt><trkpt lat="42.3215396" lon="13.4262561"><ele>589.3333333333334</ele><time>2026-03-24T10:17:26.961Z</time></trkpt><trkpt lat="42.321359" lon="13.4264122"><ele>589.6666666666666</ele><time>2026-03-24T10:17:27.96Z</time></trkpt><trkpt lat="42.3211758" lon="13.426567"><ele>590.0</ele><time>2026-03-24T10:17:28.961Z</time></trkpt><trkpt lat="42.3209909" lon="13.4267219"><ele>590.0</ele><time>2026-03-24T10:17:29.96Z</time></trkpt><trkpt lat="42.3208047" lon="13.4268789"><ele>590.0</ele><time>2026-03-24T10:17:30.96Z</time></trkpt><trkpt lat="42.3206204" lon="13.427038"><ele>590.0</ele><time>2026-03-24T10:17:31.96Z</time></trkpt><trkpt lat="42.3204362" lon="13.427197"><ele>589.6666666666666</ele><time>2026-03-24T10:17:32.96Z</time></trkpt><trkpt lat="42.3202534" lon="13.4273527"><ele>589.3333333333334</ele><time>2026-03-24T10:17:33.96Z</time></trkpt><trkpt lat="42.3200755" lon="13.4275131"><ele>589.0</ele><time>2026-03-24T10:17:34.961Z</time></trkpt><trkpt lat="42.3199014" lon="13.4276712"><ele>588.6666666666667</ele><time>2026-03-24T10:17:35.961Z</time></trkpt><trkpt lat="42.3197311" lon="13.4278165"><ele>588.3333333333334</ele><time>2026-03-24T10:17:36.96Z</time></trkpt><trkpt lat="42.3195723" lon="13.4279544"><ele>588.0</ele><time>2026-03-24T10:17:37.96Z</time></trkpt><trkpt lat="42.3194305" lon="13.4280812"><ele>588.5</ele><time>2026-03-24T10:17:38.96Z</time></trkpt><trkpt lat="42.3193045" lon="13.4281883"><ele>589.0</ele><time>2026-03-24T10:17:39.96Z</time></trkpt><trkpt lat="42.3192005" lon="13.4282777"><ele>589.5</ele><time>2026-03-24T10:17:40.96Z</time></trkpt><trkpt lat="42.3191156" lon="13.4283459"><ele>590.0</ele><time>2026-03-24T10:17:41.96Z</time></trkpt><trkpt lat="42.319031" lon="13.428391"><ele>590.0</ele><time>2026-03-24T10:17:42.96Z</time></trkpt><trkpt lat="42.3189339" lon="13.4284313"><ele>590.0</ele><time>2026-03-24T10:17:43.96Z</time></trkpt><trkpt lat="42.3188317" lon="13.4284785"><ele>590.0</ele><time>2026-03-24T10:17:44.961Z</time></trkpt><trkpt lat="42.3187377" lon="13.4285604"><ele>590.0</ele><time>2026-03-24T10:17:45.96Z</time></trkpt><trkpt lat="42.3186488" lon="13.42867"><ele>590.0</ele><time>2026-03-24T10:17:46.96Z</time></trkpt><trkpt lat="42.3185596" lon="13.428795"><ele>590.6666666666666</ele><time>2026-03-24T10:17:47.96Z</time></trkpt><trkpt lat="42.318461" lon="13.4289118"><ele>591.3333333333334</ele><time>2026-03-24T10:17:48.961Z</time></trkpt><trkpt lat="42.3183217" lon="13.4290324"><ele>592.0</ele><time>2026-03-24T10:17:49.96Z</time></trkpt><trkpt lat="42.3181853" lon="13.4291578"><ele>592.6666666666667</ele><time>2026-03-24T10:17:50.96Z</time></trkpt><trkpt lat="42.3180342" lon="13.4292867"><ele>593.3333333333334</ele><time>2026-03-24T10:17:51.961Z</time></trkpt><trkpt lat="42.3178648" lon="13.4294285"><ele>594.0</ele><time>2026-03-24T10:17:52.96Z</time></trkpt><trkpt lat="42.3176781" lon="13.4295941"><ele>594.0</ele><time>2026-03-24T10:17:53.961Z</time></trkpt><trkpt lat="42.3174894" lon="13.4297636"><ele>594.0</ele><time>2026-03-24T10:17:54.96Z</time></trkpt><trkpt lat="42.3172872" lon="13.4299381"><ele>595.0</ele><time>2026-03-24T10:17:55.96Z</time></trkpt><trkpt lat="42.3170927" lon="13.4301063"><ele>596.0</ele><time>2026-03-24T10:17:56.961Z</time></trkpt><trkpt lat="42.3169011" lon="13.4302725"><ele>596.0</ele><time>2026-03-24T10:17:57.96Z</time></trkpt><trkpt lat="42.3167128" lon="13.4304329"><ele>596.0</ele><time>2026-03-24T10:17:58.961Z</time></trkpt><trkpt lat="42.3165324" lon="13.4305859"><ele>596.0</ele><time>2026-03-24T10:17:59.961Z</time></trkpt><trkpt lat="42.3163669" lon="13.4307312"><ele>597.3333333333333</ele><time>2026-03-24T10:18:00.96Z</time></trkpt><trkpt lat="42.3162174" lon="13.430866"><ele>598.6666666666666</ele><time>2026-03-24T10:18:01.96Z</time></trkpt><trkpt lat="42.3160757" lon="13.4309886"><ele>600.0</ele><time>2026-03-24T10:18:02.96Z</time></trkpt><trkpt lat="42.315943" lon="13.4311069"><ele>600.0</ele><time>2026-03-24T10:18:03.961Z</time></trkpt><trkpt lat="42.3158182" lon="13.4312166"><ele>600.0</ele><time>2026-03-24T10:18:04.96Z</time></trkpt><trkpt lat="42.3156961" lon="13.4313206"><ele>600.0</ele><time>2026-03-24T10:18:05.96Z</time></trkpt><trkpt lat="42.3155827" lon="13.4314302"><ele>600.0</ele><time>2026-03-24T10:18:06.961Z</time></trkpt><trkpt lat="42.3154845" lon="13.4315484"><ele>602.0</ele><time>2026-03-24T10:18:07.96Z</time></trkpt><trkpt lat="42.3153976" lon="13.4316826"><ele>604.0</ele><time>2026-03-24T10:18:08.96Z</time></trkpt><trkpt lat="42.3153188" lon="13.4318238"><ele>606.0</ele><time>2026-03-24T10:18:09.96Z</time></trkpt><trkpt lat="42.3152468" lon="13.4319545"><ele>608.0</ele><time>2026-03-24T10:18:10.961Z</time></trkpt><trkpt lat="42.3151738" lon="13.432082"><ele>607.75</ele><time>2026-03-24T10:18:11.96Z</time></trkpt><trkpt lat="42.3151015" lon="13.4322093"><ele>607.5</ele><time>2026-03-24T10:18:12.96Z</time></trkpt><trkpt lat="42.3150231" lon="13.4323474"><ele>607.25</ele><time>2026-03-24T10:18:13.961Z</time></trkpt><trkpt lat="42.3149536" lon="13.4324825"><ele>607.0</ele><time>2026-03-24T10:18:14.961Z</time></trkpt><trkpt lat="42.3148822" lon="13.4326215"><ele>607.0</ele><time>2026-03-24T10:18:15.96Z</time></trkpt><trkpt lat="42.3148114" lon="13.4327748"><ele>607.0</ele><time>2026-03-24T10:18:16.96Z</time></trkpt><trkpt lat="42.3147282" lon="13.4329343"><ele>607.0</ele><time>2026-03-24T10:18:17.96Z</time></trkpt><trkpt lat="42.3146463" lon="13.4330754"><ele>607.0</ele><time>2026-03-24T10:18:18.96Z</time></trkpt><trkpt lat="42.3145707" lon="13.4332061"><ele>608.3333333333334</ele><time>2026-03-24T10:18:19.96Z</time></trkpt><trkpt lat="42.3144876" lon="13.4333565"><ele>609.6666666666666</ele><time>2026-03-24T10:18:20.961Z</time></trkpt><trkpt lat="42.3143928" lon="13.4335258"><ele>611.0</ele><time>2026-03-24T10:18:21.96Z</time></trkpt><trkpt lat="42.3142916" lon="13.4337112"><ele>609.3333333333333</ele><time>2026-03-24T10:18:22.96Z</time></trkpt><trkpt lat="42.3141837" lon="13.433899"><ele>607.6666666666666</ele><time>2026-03-24T10:18:23.96Z</time></trkpt><trkpt lat="42.3140733" lon="13.4341027"><ele>606.0</ele><time>2026-03-24T10:18:24.96Z</time></trkpt><trkpt lat="42.3139557" lon="13.4343147"><ele>607.6666666666666</ele><time>2026-03-24T10:18:25.961Z</time></trkpt><trkpt lat="42.3138415" lon="13.4345291"><ele>609.3333333333333</ele><time>2026-03-24T10:18:26.961Z</time></trkpt><trkpt lat="42.3137295" lon="13.4347476"><ele>611.0</ele><time>2026-03-24T10:18:27.96Z</time></trkpt><trkpt lat="42.3136096" lon="13.4349669"><ele>611.0</ele><time>2026-03-24T10:18:28.961Z</time></trkpt><trkpt lat="42.3134894" lon="13.4351859"><ele>611.0</ele><time>2026-03-24T10:18:29.96Z</time></trkpt><trkpt lat="42.3133664" lon="13.4354099"><ele>611.0</ele><time>2026-03-24T10:18:30.96Z</time></trkpt><trkpt lat="42.3132478" lon="13.4356346"><ele>610.0</ele><time>2026-03-24T10:18:31.961Z</time></trkpt><trkpt lat="42.3131249" lon="13.4358597"><ele>609.0</ele><time>2026-03-24T10:18:32.96Z</time></trkpt><trkpt lat="42.3129995" lon="13.4360832"><ele>608.0</ele><time>2026-03-24T10:18:33.96Z</time></trkpt><trkpt lat="42.3128765" lon="13.4363069"><ele>610.6666666666666</ele><time>2026-03-24T10:18:34.96Z</time></trkpt><trkpt lat="42.3127555" lon="13.4365315"><ele>613.3333333333334</ele><time>2026-03-24T10:18:35.96Z</time></trkpt><trkpt lat="42.3126323" lon="13.4367615"><ele>616.0</ele><time>2026-03-24T10:18:36.96Z</time></trkpt><trkpt lat="42.3125058" lon="13.4369847"><ele>617.3333333333334</ele><time>2026-03-24T10:18:37.96Z</time></trkpt><trkpt lat="42.3123805" lon="13.4372114"><ele>618.6666666666666</ele><time>2026-03-24T10:18:38.961Z</time></trkpt><trkpt lat="42.31226" lon="13.4374351"><ele>620.0</ele><time>2026-03-24T10:18:39.96Z</time></trkpt><trkpt lat="42.3121384" lon="13.4376648"><ele>620.0</ele><time>2026-03-24T10:18:40.961Z</time></trkpt><trkpt lat="42.3120122" lon="13.4378876"><ele>620.0</ele><time>2026-03-24T10:18:41.961Z</time></trkpt><trkpt lat="42.3118858" lon="13.4381116"><ele>620.0</ele><time>2026-03-24T10:18:42.96Z</time></trkpt><trkpt lat="42.311758" lon="13.4383349"><ele>619.3333333333333</ele><time>2026-03-24T10:18:43.96Z</time></trkpt><trkpt lat="42.3116325" lon="13.4385583"><ele>618.6666666666666</ele><time>2026-03-24T10:18:44.96Z</time></trkpt><trkpt lat="42.311512" lon="13.438778"><ele>618.0</ele><time>2026-03-24T10:18:45.96Z</time></trkpt><trkpt lat="42.3113935" lon="13.4389879"><ele>619.3333333333334</ele><time>2026-03-24T10:18:46.96Z</time></trkpt><trkpt lat="42.3112819" lon="13.4391855"><ele>620.6666666666667</ele><time>2026-03-24T10:18:47.96Z</time></trkpt><trkpt lat="42.3111717" lon="13.4393897"><ele>622.0</ele><time>2026-03-24T10:18:48.96Z</time></trkpt><trkpt lat="42.3110621" lon="13.4395968"><ele>621.3333333333334</ele><time>2026-03-24T10:18:49.961Z</time></trkpt><trkpt lat="42.310951" lon="13.4398026"><ele>620.6666666666666</ele><time>2026-03-24T10:18:50.961Z</time></trkpt><trkpt lat="42.3108429" lon="13.4400099"><ele>620.0</ele><time>2026-03-24T10:18:51.96Z</time></trkpt><trkpt lat="42.3107263" lon="13.4402125"><ele>620.0</ele><time>2026-03-24T10:18:52.96Z</time></trkpt><trkpt lat="42.3106055" lon="13.4404196"><ele>620.0</ele><time>2026-03-24T10:18:53.96Z</time></trkpt><trkpt lat="42.3104819" lon="13.4406309"><ele>620.0</ele><time>2026-03-24T10:18:54.96Z</time></trkpt><trkpt lat="42.3103547" lon="13.440847"><ele>620.3333333333333</ele><time>2026-03-24T10:18:55.96Z</time></trkpt><trkpt lat="42.3102322" lon="13.4410693"><ele>620.6666666666666</ele><time>2026-03-24T10:18:56.961Z</time></trkpt><trkpt lat="42.3101063" lon="13.4412939"><ele>621.0</ele><time>2026-03-24T10:18:57.96Z</time></trkpt><trkpt lat="42.3099845" lon="13.4415198"><ele>621.0</ele><time>2026-03-24T10:18:58.96Z</time></trkpt><trkpt lat="42.3098575" lon="13.4417411"><ele>621.0</ele><time>2026-03-24T10:18:59.96Z</time></trkpt><trkpt lat="42.3097381" lon="13.4419537"><ele>621.0</ele><time>2026-03-24T10:19:00.96Z</time></trkpt><trkpt lat="42.3096305" lon="13.4421551"><ele>624.0</ele><time>2026-03-24T10:19:01.961Z</time></trkpt><trkpt lat="42.3095296" lon="13.4423517"><ele>627.0</ele><time>2026-03-24T10:19:02.961Z</time></trkpt><trkpt lat="42.3094423" lon="13.4425588"><ele>630.0</ele><time>2026-03-24T10:19:03.96Z</time></trkpt><trkpt lat="42.3093619" lon="13.4427655"><ele>630.0</ele><time>2026-03-24T10:19:04.961Z</time></trkpt><trkpt lat="42.3093008" lon="13.4429705"><ele>630.0</ele><time>2026-03-24T10:19:05.961Z</time></trkpt><trkpt lat="42.3092501" lon="13.4431663"><ele>630.0</ele><time>2026-03-24T10:19:06.96Z</time></trkpt><trkpt lat="42.3092138" lon="13.4433567"><ele>630.0</ele><time>2026-03-24T10:19:07.96Z</time></trkpt><trkpt lat="42.309185" lon="13.4435396"><ele>630.0</ele><time>2026-03-24T10:19:08.961Z</time></trkpt><trkpt lat="42.3091626" lon="13.4437285"><ele>630.0</ele><time>2026-03-24T10:19:09.96Z</time></trkpt><trkpt lat="42.309145" lon="13.4439194"><ele>630.0</ele><time>2026-03-24T10:19:10.961Z</time></trkpt><trkpt lat="42.309126" lon="13.4441213"><ele>630.25</ele><time>2026-03-24T10:19:11.96Z</time></trkpt><trkpt lat="42.3091044" lon="13.4443227"><ele>630.5</ele><time>2026-03-24T10:19:12.96Z</time></trkpt><trkpt lat="42.3090782" lon="13.4445265"><ele>630.75</ele><time>2026-03-24T10:19:13.961Z</time></trkpt><trkpt lat="42.3090343" lon="13.4447105"><ele>631.0</ele><time>2026-03-24T10:19:14.96Z</time></trkpt><trkpt lat="42.308985" lon="13.4448882"><ele>631.0</ele><time>2026-03-24T10:19:15.96Z</time></trkpt><trkpt lat="42.308919" lon="13.4450168"><ele>631.0</ele><time>2026-03-24T10:19:16.96Z</time></trkpt><trkpt lat="42.3088499" lon="13.4451343"><ele>631.0</ele><time>2026-03-24T10:19:17.96Z</time></trkpt><trkpt lat="42.3087799" lon="13.445244"><ele>631.0</ele><time>2026-03-24T10:19:18.961Z</time></trkpt><trkpt lat="42.3086988" lon="13.4453585"><ele>632.75</ele><time>2026-03-24T10:19:19.96Z</time></trkpt><trkpt lat="42.3086168" lon="13.4454713"><ele>634.5</ele><time>2026-03-24T10:19:20.96Z</time></trkpt><trkpt lat="42.3085374" lon="13.445592"><ele>636.25</ele><time>2026-03-24T10:19:21.96Z</time></trkpt><trkpt lat="42.308452" lon="13.4457105"><ele>638.0</ele><time>2026-03-24T10:19:22.961Z</time></trkpt><trkpt lat="42.3083625" lon="13.4458311"><ele>638.0</ele><time>2026-03-24T10:19:23.961Z</time></trkpt><trkpt lat="42.3082742" lon="13.4459661"><ele>638.0</ele><time>2026-03-24T10:19:24.96Z</time></trkpt><trkpt lat="42.308187" lon="13.4461116"><ele>638.0</ele><time>2026-03-24T10:19:25.96Z</time></trkpt><trkpt lat="42.3081054" lon="13.4462677"><ele>638.0</ele><time>2026-03-24T10:19:26.96Z</time></trkpt><trkpt lat="42.3080296" lon="13.4464384"><ele>639.5</ele><time>2026-03-24T10:19:27.96Z</time></trkpt><trkpt lat="42.3079617" lon="13.4466073"><ele>641.0</ele><time>2026-03-24T10:19:28.96Z</time></trkpt><trkpt lat="42.3079053" lon="13.446765"><ele>642.5</ele><time>2026-03-24T10:19:29.96Z</time></trkpt><trkpt lat="42.3078515" lon="13.4469151"><ele>644.0</ele><time>2026-03-24T10:19:30.96Z</time></trkpt><trkpt lat="42.3078013" lon="13.4470683"><ele>643.75</ele><time>2026-03-24T10:19:31.961Z</time></trkpt><trkpt lat="42.3077432" lon="13.447217"><ele>643.5</ele><time>2026-03-24T10:19:32.96Z</time></trkpt><trkpt lat="42.3076796" lon="13.4473633"><ele>643.25</ele><time>2026-03-24T10:19:33.961Z</time></trkpt><trkpt lat="42.307611" lon="13.4475018"><ele>643.0</ele><time>2026-03-24T10:19:34.96Z</time></trkpt><trkpt lat="42.3075333" lon="13.4476281"><ele>643.0</ele><time>2026-03-24T10:19:35.961Z</time></trkpt><trkpt lat="42.3074444" lon="13.4477338"><ele>643.0</ele><time>2026-03-24T10:19:36.961Z</time></trkpt><trkpt lat="42.3073532" lon="13.4478404"><ele>643.0</ele><time>2026-03-24T10:19:37.961Z</time></trkpt><trkpt lat="42.3072573" lon="13.4479494"><ele>643.0</ele><time>2026-03-24T10:19:38.96Z</time></trkpt><trkpt lat="42.3071646" lon="13.4480659"><ele>645.25</ele><time>2026-03-24T10:19:39.96Z</time></trkpt><trkpt lat="42.3070886" lon="13.4481908"><ele>647.5</ele><time>2026-03-24T10:19:40.961Z</time></trkpt><trkpt lat="42.3070473" lon="13.4483326"><ele>649.75</ele><time>2026-03-24T10:19:41.96Z</time></trkpt><trkpt lat="42.3070154" lon="13.4484796"><ele>652.0</ele><time>2026-03-24T10:19:42.96Z</time></trkpt><trkpt lat="42.307066" lon="13.4486156"><ele>652.0</ele><time>2026-03-24T10:19:43.96Z</time></trkpt><trkpt lat="42.3071135" lon="13.4487528"><ele>652.0</ele><time>2026-03-24T10:19:44.961Z</time></trkpt><trkpt lat="42.3071814" lon="13.448882"><ele>652.0</ele><time>2026-03-24T10:19:45.961Z</time></trkpt><trkpt lat="42.3072555" lon="13.4490162"><ele>652.0</ele><time>2026-03-24T10:19:46.961Z</time></trkpt><trkpt lat="42.3073652" lon="13.4491438"><ele>650.3333333333334</ele><time>2026-03-24T10:19:47.961Z</time></trkpt><trkpt lat="42.3074726" lon="13.4492629"><ele>648.6666666666666</ele><time>2026-03-24T10:19:48.961Z</time></trkpt><trkpt lat="42.3076105" lon="13.4493743"><ele>647.0</ele><time>2026-03-24T10:19:49.96Z</time></trkpt><trkpt lat="42.307788" lon="13.4494904"><ele>647.0</ele><time>2026-03-24T10:19:50.96Z</time></trkpt><trkpt lat="42.3079664" lon="13.4495791"><ele>647.0</ele><time>2026-03-24T10:19:51.96Z</time></trkpt><trkpt lat="42.3081335" lon="13.4496453"><ele>647.0</ele><time>2026-03-24T10:19:52.96Z</time></trkpt><trkpt lat="42.3082849" lon="13.4497203"><ele>648.25</ele><time>2026-03-24T10:19:53.96Z</time></trkpt><trkpt lat="42.3084085" lon="13.4498207"><ele>649.5</ele><time>2026-03-24T10:19:54.961Z</time></trkpt><trkpt lat="42.3085046" lon="13.449966"><ele>650.75</ele><time>2026-03-24T10:19:55.961Z</time></trkpt><trkpt lat="42.308566" lon="13.4501367"><ele>652.0</ele><time>2026-03-24T10:19:56.96Z</time></trkpt><trkpt lat="42.3086132" lon="13.4503522"><ele>654.6666666666667</ele><time>2026-03-24T10:19:57.961Z</time></trkpt><trkpt lat="42.3086566" lon="13.450598"><ele>657.3333333333334</ele><time>2026-03-24T10:19:58.96Z</time></trkpt><trkpt lat="42.308701" lon="13.4508554"><ele>660.0</ele><time>2026-03-24T10:19:59.961Z</time></trkpt><trkpt lat="42.3087442" lon="13.4511263"><ele>661.3333333333334</ele><time>2026-03-24T10:20:00.961Z</time></trkpt><trkpt lat="42.3087896" lon="13.4514062"><ele>662.6666666666667</ele><time>2026-03-24T10:20:01.96Z</time></trkpt><trkpt lat="42.3088371" lon="13.4516764"><ele>664.0</ele><time>2026-03-24T10:20:02.96Z</time></trkpt><trkpt lat="42.3088785" lon="13.4519192"><ele>667.6666666666667</ele><time>2026-03-24T10:20:03.96Z</time></trkpt><trkpt lat="42.3089025" lon="13.4521363"><ele>671.3333333333334</ele><time>2026-03-24T10:20:04.96Z</time></trkpt><trkpt lat="42.3088902" lon="13.4523423"><ele>675.0</ele><time>2026-03-24T10:20:05.961Z</time></trkpt><trkpt lat="42.3088418" lon="13.4525612"><ele>675.0</ele><time>2026-03-24T10:20:06.96Z</time></trkpt><trkpt lat="42.3087634" lon="13.4527812"><ele>675.0</ele><time>2026-03-24T10:20:07.961Z</time></trkpt><trkpt lat="42.308675" lon="13.4530125"><ele>675.0</ele><time>2026-03-24T10:20:08.961Z</time></trkpt><trkpt lat="42.3085899" lon="13.4532512"><ele>675.0</ele><time>2026-03-24T10:20:09.96Z</time></trkpt><trkpt lat="42.3085268" lon="13.453496"><ele>675.0</ele><time>2026-03-24T10:20:10.96Z</time></trkpt><trkpt lat="42.3084935" lon="13.4537326"><ele>675.0</ele><time>2026-03-24T10:20:11.96Z</time></trkpt><trkpt lat="42.3084759" lon="13.4539504"><ele>674.6666666666666</ele><time>2026-03-24T10:20:12.961Z</time></trkpt><trkpt lat="42.3084453" lon="13.4541551"><ele>674.3333333333333</ele><time>2026-03-24T10:20:13.961Z</time></trkpt><trkpt lat="42.308389" lon="13.4543452"><ele>674.0</ele><time>2026-03-24T10:20:14.961Z</time></trkpt><trkpt lat="42.3083238" lon="13.4545202"><ele>673.75</ele><time>2026-03-24T10:20:15.96Z</time></trkpt><trkpt lat="42.3081812" lon="13.4546579"><ele>673.5</ele><time>2026-03-24T10:20:16.961Z</time></trkpt><trkpt lat="42.3080758" lon="13.454792"><ele>673.25</ele><time>2026-03-24T10:20:17.96Z</time></trkpt><trkpt lat="42.3079798" lon="13.4549067"><ele>673.0</ele><time>2026-03-24T10:20:18.96Z</time></trkpt><trkpt lat="42.3078964" lon="13.4549944"><ele>673.0</ele><time>2026-03-24T10:20:19.96Z</time></trkpt><trkpt lat="42.3078034" lon="13.4550231"><ele>673.0</ele><time>2026-03-24T10:20:20.96Z</time></trkpt><trkpt lat="42.3077226" lon="13.4549776"><ele>673.0</ele><time>2026-03-24T10:20:21.96Z</time></trkpt><trkpt lat="42.3076821" lon="13.4548769"><ele>673.0</ele><time>2026-03-24T10:20:22.96Z</time></trkpt><trkpt lat="42.3077071" lon="13.4547682"><ele>673.0</ele><time>2026-03-24T10:20:23.96Z</time></trkpt><trkpt lat="42.3077862" lon="13.4546625"><ele>678.3333333333334</ele><time>2026-03-24T10:20:24.961Z</time></trkpt><trkpt lat="42.3078914" lon="13.4545284"><ele>683.6666666666666</ele><time>2026-03-24T10:20:25.96Z</time></trkpt><trkpt lat="42.3079803" lon="13.4543533"><ele>689.0</ele><time>2026-03-24T10:20:26.96Z</time></trkpt><trkpt lat="42.3080574" lon="13.4541348"><ele>684.3333333333333</ele><time>2026-03-24T10:20:27.961Z</time></trkpt><trkpt lat="42.3080973" lon="13.453873"><ele>679.6666666666666</ele><time>2026-03-24T10:20:28.96Z</time></trkpt><trkpt lat="42.3081315" lon="13.4535882"><ele>675.0</ele><time>2026-03-24T10:20:29.96Z</time></trkpt><trkpt lat="42.3081485" lon="13.4533082"><ele>675.0</ele><time>2026-03-24T10:20:30.96Z</time></trkpt><trkpt lat="42.3081759" lon="13.4530585"><ele>675.0</ele><time>2026-03-24T10:20:31.96Z</time></trkpt><trkpt lat="42.3081949" lon="13.4528551"><ele>675.0</ele><time>2026-03-24T10:20:32.961Z</time></trkpt><trkpt lat="42.3082022" lon="13.4526924"><ele>675.0</ele><time>2026-03-24T10:20:33.961Z</time></trkpt><trkpt lat="42.3081763" lon="13.4525585"><ele>675.0</ele><time>2026-03-24T10:20:34.96Z</time></trkpt><trkpt lat="42.308112" lon="13.4524798"><ele>675.0</ele><time>2026-03-24T10:20:35.96Z</time></trkpt><trkpt lat="42.3080671" lon="13.4524171"><ele>675.0</ele><time>2026-03-24T10:20:36.961Z</time></trkpt><trkpt lat="42.307994" lon="13.4524006"><ele>675.0</ele><time>2026-03-24T10:20:37.961Z</time></trkpt><trkpt lat="42.3079007" lon="13.4524855"><ele>675.0</ele><time>2026-03-24T10:20:38.96Z</time></trkpt><trkpt lat="42.3077711" lon="13.4526949"><ele>681.6666666666666</ele><time>2026-03-24T10:20:39.96Z</time></trkpt><trkpt lat="42.3077655" lon="13.4529146"><ele>688.3333333333333</ele><time>2026-03-24T10:20:40.96Z</time></trkpt><trkpt lat="42.307829" lon="13.4532411"><ele>695.0</ele><time>2026-03-24T10:20:41.96Z</time></trkpt><trkpt lat="42.3077871" lon="13.4534676"><ele>696.6666666666666</ele><time>2026-03-24T10:20:42.96Z</time></trkpt><trkpt lat="42.3077291" lon="13.4536769"><ele>698.3333333333334</ele><time>2026-03-24T10:20:43.96Z</time></trkpt><trkpt lat="42.3076606" lon="13.4538814"><ele>700.0</ele><time>2026-03-24T10:20:44.96Z</time></trkpt><trkpt lat="42.3075541" lon="13.4540554"><ele>697.6666666666667</ele><time>2026-03-24T10:20:45.961Z</time></trkpt><trkpt lat="42.3074009" lon="13.4541072"><ele>695.3333333333334</ele><time>2026-03-24T10:20:46.96Z</time></trkpt><trkpt lat="42.3072417" lon="13.4541353"><ele>693.0</ele><time>2026-03-24T10:20:47.96Z</time></trkpt><trkpt lat="42.3070566" lon="13.4541043"><ele>693.0</ele><time>2026-03-24T10:20:48.961Z</time></trkpt><trkpt lat="42.3068512" lon="13.4540325"><ele>693.0</ele><time>2026-03-24T10:20:49.96Z</time></trkpt><trkpt lat="42.3066555" lon="13.4540106"><ele>693.0</ele><time>2026-03-24T10:20:50.961Z</time></trkpt><trkpt lat="42.3064432" lon="13.4539797"><ele>693.6666666666666</ele><time>2026-03-24T10:20:51.961Z</time></trkpt><trkpt lat="42.3062449" lon="13.4539469"><ele>694.3333333333333</ele><time>2026-03-24T10:20:52.96Z</time></trkpt><trkpt lat="42.3060386" lon="13.4539088"><ele>695.0</ele><time>2026-03-24T10:20:53.961Z</time></trkpt><trkpt lat="42.3058343" lon="13.4538843"><ele>695.0</ele><time>2026-03-24T10:20:54.96Z</time></trkpt><trkpt lat="42.3056311" lon="13.4538528"><ele>695.0</ele><time>2026-03-24T10:20:55.96Z</time></trkpt><trkpt lat="42.3054308" lon="13.4538166"><ele>695.0</ele><time>2026-03-24T10:20:56.961Z</time></trkpt><trkpt lat="42.3052257" lon="13.4537861"><ele>701.6666666666666</ele><time>2026-03-24T10:20:57.96Z</time></trkpt><trkpt lat="42.3050271" lon="13.4537643"><ele>708.3333333333334</ele><time>2026-03-24T10:20:58.96Z</time></trkpt><trkpt lat="42.3048412" lon="13.4537588"><ele>715.0</ele><time>2026-03-24T10:20:59.96Z</time></trkpt><trkpt lat="42.304674" lon="13.4537638"><ele>717.0</ele><time>2026-03-24T10:21:00.96Z</time></trkpt><trkpt lat="42.3045148" lon="13.4537824"><ele>719.0</ele><time>2026-03-24T10:21:01.96Z</time></trkpt><trkpt lat="42.304373" lon="13.4538152"><ele>721.0</ele><time>2026-03-24T10:21:02.96Z</time></trkpt><trkpt lat="42.3042383" lon="13.4538424"><ele>723.0</ele><time>2026-03-24T10:21:03.961Z</time></trkpt><trkpt lat="42.3041025" lon="13.4538668"><ele>719.25</ele><time>2026-03-24T10:21:04.96Z</time></trkpt><trkpt lat="42.3039713" lon="13.4538859"><ele>715.5</ele><time>2026-03-24T10:21:05.96Z</time></trkpt><trkpt lat="42.3038435" lon="13.4539035"><ele>711.75</ele><time>2026-03-24T10:21:06.96Z</time></trkpt><trkpt lat="42.3037143" lon="13.4539264"><ele>708.0</ele><time>2026-03-24T10:21:07.961Z</time></trkpt><trkpt lat="42.3035861" lon="13.453947"><ele>708.0</ele><time>2026-03-24T10:21:08.96Z</time></trkpt><trkpt lat="42.3034635" lon="13.4539674"><ele>708.0</ele><time>2026-03-24T10:21:09.96Z</time></trkpt><trkpt lat="42.3033435" lon="13.4539592"><ele>708.0</ele><time>2026-03-24T10:21:10.96Z</time></trkpt><trkpt lat="42.3032291" lon="13.4539182"><ele>708.0</ele><time>2026-03-24T10:21:11.96Z</time></trkpt><trkpt lat="42.3031247" lon="13.4538358"><ele>711.25</ele><time>2026-03-24T10:21:12.96Z</time></trkpt><trkpt lat="42.3030404" lon="13.4537299"><ele>714.5</ele><time>2026-03-24T10:21:13.961Z</time></trkpt><trkpt lat="42.3029604" lon="13.4536078"><ele>717.75</ele><time>2026-03-24T10:21:14.96Z</time></trkpt><trkpt lat="42.3028912" lon="13.4534739"><ele>721.0</ele><time>2026-03-24T10:21:15.96Z</time></trkpt><trkpt lat="42.3028187" lon="13.4533391"><ele>721.0</ele><time>2026-03-24T10:21:16.961Z</time></trkpt><trkpt lat="42.3027393" lon="13.4532183"><ele>721.0</ele><time>2026-03-24T10:21:17.96Z</time></trkpt><trkpt lat="42.3026431" lon="13.4531179"><ele>721.0</ele><time>2026-03-24T10:21:18.961Z</time></trkpt><trkpt lat="42.3025347" lon="13.4530588"><ele>721.0</ele><time>2026-03-24T10:21:19.96Z</time></trkpt><trkpt lat="42.302416" lon="13.4530448"><ele>721.0</ele><time>2026-03-24T10:21:20.96Z</time></trkpt><trkpt lat="42.3022976" lon="13.4530727"><ele>721.0</ele><time>2026-03-24T10:21:21.96Z</time></trkpt><trkpt lat="42.3021775" lon="13.4531297"><ele>721.0</ele><time>2026-03-24T10:21:22.96Z</time></trkpt><trkpt lat="42.3020756" lon="13.4532053"><ele>721.0</ele><time>2026-03-24T10:21:23.96Z</time></trkpt><trkpt lat="42.3019716" lon="13.4532967"><ele>723.75</ele><time>2026-03-24T10:21:24.96Z</time></trkpt><trkpt lat="42.3018754" lon="13.4533949"><ele>726.5</ele><time>2026-03-24T10:21:25.96Z</time></trkpt><trkpt lat="42.3017787" lon="13.4534925"><ele>729.25</ele><time>2026-03-24T10:21:26.961Z</time></trkpt><trkpt lat="42.3016868" lon="13.4535961"><ele>732.0</ele><time>2026-03-24T10:21:27.96Z</time></trkpt><trkpt lat="42.3015977" lon="13.4536989"><ele>730.4000000000001</ele><time>2026-03-24T10:21:28.96Z</time></trkpt><trkpt lat="42.3015035" lon="13.4537962"><ele>728.8000000000001</ele><time>2026-03-24T10:21:29.961Z</time></trkpt><trkpt lat="42.301421" lon="13.4538825"><ele>727.2</ele><time>2026-03-24T10:21:30.96Z</time></trkpt><trkpt lat="42.3013448" lon="13.4539563"><ele>725.6</ele><time>2026-03-24T10:21:31.961Z</time></trkpt><trkpt lat="42.3012649" lon="13.4540086"><ele>724.0</ele><time>2026-03-24T10:21:32.96Z</time></trkpt><trkpt lat="42.3011819" lon="13.4540226"><ele>724.0</ele><time>2026-03-24T10:21:33.96Z</time></trkpt><trkpt lat="42.3010983" lon="13.4540061"><ele>724.0</ele><time>2026-03-24T10:21:34.96Z</time></trkpt><trkpt lat="42.3010179" lon="13.453956"><ele>724.0</ele><time>2026-03-24T10:21:35.96Z</time></trkpt><trkpt lat="42.3009435" lon="13.4538853"><ele>724.0</ele><time>2026-03-24T10:21:36.96Z</time></trkpt><trkpt lat="42.3008732" lon="13.4537992"><ele>724.0</ele><time>2026-03-24T10:21:37.961Z</time></trkpt><trkpt lat="42.3008033" lon="13.4537013"><ele>726.0</ele><time>2026-03-24T10:21:38.96Z</time></trkpt><trkpt lat="42.3007238" lon="13.4535987"><ele>728.0</ele><time>2026-03-24T10:21:39.961Z</time></trkpt><trkpt lat="42.3006388" lon="13.4534963"><ele>730.0</ele><time>2026-03-24T10:21:40.96Z</time></trkpt><trkpt lat="42.3005534" lon="13.4533919"><ele>732.0</ele><time>2026-03-24T10:21:41.96Z</time></trkpt><trkpt lat="42.3004614" lon="13.4532912"><ele>732.0</ele><time>2026-03-24T10:21:42.961Z</time></trkpt><trkpt lat="42.3003651" lon="13.4531983"><ele>732.0</ele><time>2026-03-24T10:21:43.96Z</time></trkpt><trkpt lat="42.3002663" lon="13.453113"><ele>732.0</ele><time>2026-03-24T10:21:44.96Z</time></trkpt><trkpt lat="42.300177" lon="13.4530209"><ele>732.0</ele><time>2026-03-24T10:21:45.96Z</time></trkpt><trkpt lat="42.3000893" lon="13.4529343"><ele>734.2</ele><time>2026-03-24T10:21:46.961Z</time></trkpt><trkpt lat="42.300007" lon="13.452858"><ele>736.4000000000001</ele><time>2026-03-24T10:21:47.961Z</time></trkpt><trkpt lat="42.2999318" lon="13.4527974"><ele>738.5999999999999</ele><time>2026-03-24T10:21:48.96Z</time></trkpt><trkpt lat="42.2998471" lon="13.4527516"><ele>740.8</ele><time>2026-03-24T10:21:49.961Z</time></trkpt><trkpt lat="42.2997528" lon="13.4527244"><ele>743.0</ele><time>2026-03-24T10:21:50.961Z</time></trkpt><trkpt lat="42.2996555" lon="13.4527212"><ele>743.0</ele><time>2026-03-24T10:21:51.961Z</time></trkpt><trkpt lat="42.2995531" lon="13.4527487"><ele>743.0</ele><time>2026-03-24T10:21:52.961Z</time></trkpt><trkpt lat="42.299448" lon="13.452796"><ele>743.0</ele><time>2026-03-24T10:21:53.96Z</time></trkpt><trkpt lat="42.2993498" lon="13.452851"><ele>743.0</ele><time>2026-03-24T10:21:54.96Z</time></trkpt><trkpt lat="42.2992509" lon="13.4529227"><ele>743.0</ele><time>2026-03-24T10:21:55.96Z</time></trkpt><trkpt lat="42.2991645" lon="13.4530064"><ele>742.0</ele><time>2026-03-24T10:21:56.96Z</time></trkpt><trkpt lat="42.2990843" lon="13.4531007"><ele>741.0</ele><time>2026-03-24T10:21:57.96Z</time></trkpt><trkpt lat="42.2990119" lon="13.4531935"><ele>740.0</ele><time>2026-03-24T10:21:58.961Z</time></trkpt><trkpt lat="42.2989424" lon="13.4532808"><ele>739.0</ele><time>2026-03-24T10:21:59.961Z</time></trkpt><trkpt lat="42.2988766" lon="13.4533642"><ele>738.0</ele><time>2026-03-24T10:22:00.96Z</time></trkpt><trkpt lat="42.2988125" lon="13.4534419"><ele>739.0</ele><time>2026-03-24T10:22:01.96Z</time></trkpt><trkpt lat="42.2987432" lon="13.4535208"><ele>740.0</ele><time>2026-03-24T10:22:02.96Z</time></trkpt><trkpt lat="42.2986798" lon="13.453598"><ele>741.0</ele><time>2026-03-24T10:22:03.96Z</time></trkpt><trkpt lat="42.2986188" lon="13.4536772"><ele>742.0</ele><time>2026-03-24T10:22:04.96Z</time></trkpt><trkpt lat="42.2985512" lon="13.4537618"><ele>743.0</ele><time>2026-03-24T10:22:05.961Z</time></trkpt><trkpt lat="42.298477" lon="13.4538468"><ele>743.0</ele><time>2026-03-24T10:22:06.961Z</time></trkpt><trkpt lat="42.2983854" lon="13.4539156"><ele>743.0</ele><time>2026-03-24T10:22:07.96Z</time></trkpt><trkpt lat="42.2982752" lon="13.453951"><ele>743.0</ele><time>2026-03-24T10:22:08.96Z</time></trkpt><trkpt lat="42.2981646" lon="13.45395"><ele>743.0</ele><time>2026-03-24T10:22:09.96Z</time></trkpt><trkpt lat="42.2980549" lon="13.4539022"><ele>743.0</ele><time>2026-03-24T10:22:10.96Z</time></trkpt><trkpt lat="42.2979508" lon="13.4538304"><ele>744.8</ele><time>2026-03-24T10:22:11.96Z</time></trkpt><trkpt lat="42.2978517" lon="13.4537582"><ele>746.5999999999999</ele><time>2026-03-24T10:22:12.96Z</time></trkpt><trkpt lat="42.2977633" lon="13.4536927"><ele>748.4000000000001</ele><time>2026-03-24T10:22:13.961Z</time></trkpt><trkpt lat="42.297681" lon="13.4536316"><ele>750.2</ele><time>2026-03-24T10:22:14.96Z</time></trkpt><trkpt lat="42.2976022" lon="13.4535735"><ele>752.0</ele><time>2026-03-24T10:22:15.961Z</time></trkpt><trkpt lat="42.2975212" lon="13.4535177"><ele>752.0</ele><time>2026-03-24T10:22:16.961Z</time></trkpt><trkpt lat="42.2974417" lon="13.4534554"><ele>752.0</ele><time>2026-03-24T10:22:17.961Z</time></trkpt><trkpt lat="42.2973608" lon="13.4533902"><ele>752.0</ele><time>2026-03-24T10:22:18.961Z</time></trkpt><trkpt lat="42.2972789" lon="13.4533216"><ele>752.0</ele><time>2026-03-24T10:22:19.96Z</time></trkpt><trkpt lat="42.2971984" lon="13.4532558"><ele>752.0</ele><time>2026-03-24T10:22:20.961Z</time></trkpt><trkpt lat="42.2971246" lon="13.4531989"><ele>752.8333333333333</ele><time>2026-03-24T10:22:21.961Z</time></trkpt><trkpt lat="42.2970499" lon="13.4531524"><ele>753.6666666666666</ele><time>2026-03-24T10:22:22.96Z</time></trkpt><trkpt lat="42.2969732" lon="13.4531083"><ele>754.5</ele><time>2026-03-24T10:22:23.961Z</time></trkpt><trkpt lat="42.2968976" lon="13.4530696"><ele>755.3333333333334</ele><time>2026-03-24T10:22:24.961Z</time></trkpt><trkpt lat="42.2968182" lon="13.453048"><ele>756.1666666666667</ele><time>2026-03-24T10:22:25.96Z</time></trkpt><trkpt lat="42.2967305" lon="13.4530429"><ele>757.0</ele><time>2026-03-24T10:22:26.96Z</time></trkpt><trkpt lat="42.2966442" lon="13.4530633"><ele>757.0</ele><time>2026-03-24T10:22:27.96Z</time></trkpt><trkpt lat="42.2965722" lon="13.4530951"><ele>757.0</ele><time>2026-03-24T10:22:28.961Z</time></trkpt><trkpt lat="42.296508" lon="13.4531316"><ele>757.0</ele><time>2026-03-24T10:22:29.96Z</time></trkpt><trkpt lat="42.2964459" lon="13.4531693"><ele>757.0</ele><time>2026-03-24T10:22:30.961Z</time></trkpt><trkpt lat="42.2963779" lon="13.4532083"><ele>757.0</ele><time>2026-03-24T10:22:31.96Z</time></trkpt><trkpt lat="42.2963086" lon="13.4532547"><ele>757.0</ele><time>2026-03-24T10:22:32.96Z</time></trkpt><trkpt lat="42.2962414" lon="13.4532945"><ele>757.0</ele><time>2026-03-24T10:22:33.961Z</time></trkpt><trkpt lat="42.2961778" lon="13.4533375"><ele>758.1428571428572</ele><time>2026-03-24T10:22:34.961Z</time></trkpt><trkpt lat="42.2961144" lon="13.4533728"><ele>759.2857142857142</ele><time>2026-03-24T10:22:35.96Z</time></trkpt><trkpt lat="42.2960426" lon="13.4534041"><ele>760.4285714285714</ele><time>2026-03-24T10:22:36.961Z</time></trkpt><trkpt lat="42.2959688" lon="13.4534394"><ele>761.5714285714287</ele><time>2026-03-24T10:22:37.961Z</time></trkpt><trkpt lat="42.2958878" lon="13.4534535"><ele>762.7142857142858</ele><time>2026-03-24T10:22:38.96Z</time></trkpt><trkpt lat="42.2958168" lon="13.4534247"><ele>763.8571428571429</ele><time>2026-03-24T10:22:39.961Z</time></trkpt><trkpt lat="42.2957809" lon="13.4533414"><ele>765.0</ele><time>2026-03-24T10:22:40.96Z</time></trkpt><trkpt lat="42.2957769" lon="13.453238"><ele>765.0</ele><time>2026-03-24T10:22:41.961Z</time></trkpt><trkpt lat="42.2958088" lon="13.4531226"><ele>765.0</ele><time>2026-03-24T10:22:42.961Z</time></trkpt><trkpt lat="42.2958571" lon="13.4529905"><ele>765.0</ele><time>2026-03-24T10:22:43.96Z</time></trkpt><trkpt lat="42.2959118" lon="13.4528403"><ele>765.0</ele><time>2026-03-24T10:22:44.96Z</time></trkpt><trkpt lat="42.2959701" lon="13.4526819"><ele>766.5</ele><time>2026-03-24T10:22:45.96Z</time></trkpt><trkpt lat="42.2960394" lon="13.4525256"><ele>768.0</ele><time>2026-03-24T10:22:46.96Z</time></trkpt><trkpt lat="42.2961128" lon="13.4523718"><ele>769.5</ele><time>2026-03-24T10:22:47.96Z</time></trkpt><trkpt lat="42.2961939" lon="13.4522329"><ele>771.0</ele><time>2026-03-24T10:22:48.961Z</time></trkpt><trkpt lat="42.2962791" lon="13.4521239"><ele>770.5999999999999</ele><time>2026-03-24T10:22:49.96Z</time></trkpt><trkpt lat="42.2963606" lon="13.4520241"><ele>770.2</ele><time>2026-03-24T10:22:50.961Z</time></trkpt><trkpt lat="42.2964392" lon="13.4519437"><ele>769.8</ele><time>2026-03-24T10:22:51.96Z</time></trkpt><trkpt lat="42.2965093" lon="13.4518662"><ele>769.4000000000001</ele><time>2026-03-24T10:22:52.961Z</time></trkpt><trkpt lat="42.2965813" lon="13.4517897"><ele>769.0</ele><time>2026-03-24T10:22:53.961Z</time></trkpt><trkpt lat="42.2966492" lon="13.4517121"><ele>769.0</ele><time>2026-03-24T10:22:54.96Z</time></trkpt><trkpt lat="42.2967132" lon="13.4516215"><ele>769.0</ele><time>2026-03-24T10:22:55.96Z</time></trkpt><trkpt lat="42.2967662" lon="13.451515"><ele>769.0</ele><time>2026-03-24T10:22:56.961Z</time></trkpt><trkpt lat="42.2968004" lon="13.451404"><ele>769.0</ele><time>2026-03-24T10:22:57.96Z</time></trkpt><trkpt lat="42.2968035" lon="13.4512832"><ele>769.0</ele><time>2026-03-24T10:22:58.96Z</time></trkpt><trkpt lat="42.2967799" lon="13.4511688"><ele>770.4999999999999</ele><time>2026-03-24T10:22:59.96Z</time></trkpt><trkpt lat="42.2967332" lon="13.45107"><ele>772.0</ele><time>2026-03-24T10:23:00.96Z</time></trkpt><trkpt lat="42.296666" lon="13.4510015"><ele>773.5</ele><time>2026-03-24T10:23:01.96Z</time></trkpt><trkpt lat="42.296584" lon="13.450963"><ele>775.0</ele><time>2026-03-24T10:23:02.961Z</time></trkpt><trkpt lat="42.2964972" lon="13.4509553"><ele>776.4999999999999</ele><time>2026-03-24T10:23:03.961Z</time></trkpt><trkpt lat="42.2964111" lon="13.4509781"><ele>778.0</ele><time>2026-03-24T10:23:04.96Z</time></trkpt><trkpt lat="42.2963312" lon="13.4510193"><ele>779.4</ele><time>2026-03-24T10:23:05.961Z</time></trkpt><trkpt lat="42.296252" lon="13.4510685"><ele>780.8</ele><time>2026-03-24T10:23:06.961Z</time></trkpt><trkpt lat="42.2961693" lon="13.4511239"><ele>782.2</ele><time>2026-03-24T10:23:07.96Z</time></trkpt><trkpt lat="42.2960792" lon="13.4511784"><ele>783.6</ele><time>2026-03-24T10:23:08.96Z</time></trkpt><trkpt lat="42.2959907" lon="13.4512302"><ele>785.0</ele><time>2026-03-24T10:23:09.96Z</time></trkpt><trkpt lat="42.2959028" lon="13.451284"><ele>785.3333333333334</ele><time>2026-03-24T10:23:10.96Z</time></trkpt><trkpt lat="42.2958227" lon="13.4513354"><ele>785.6666666666667</ele><time>2026-03-24T10:23:11.961Z</time></trkpt><trkpt lat="42.2957463" lon="13.451382"><ele>786.0</ele><time>2026-03-24T10:23:12.96Z</time></trkpt><trkpt lat="42.2956708" lon="13.4514377"><ele>786.3333333333333</ele><time>2026-03-24T10:23:13.961Z</time></trkpt><trkpt lat="42.2955931" lon="13.4514885"><ele>786.6666666666666</ele><time>2026-03-24T10:23:14.961Z</time></trkpt><trkpt lat="42.2955175" lon="13.4515324"><ele>787.0</ele><time>2026-03-24T10:23:15.96Z</time></trkpt><trkpt lat="42.2954454" lon="13.4515774"><ele>786.9999999999999</ele><time>2026-03-24T10:23:16.96Z</time></trkpt><trkpt lat="42.295377" lon="13.4516121"><ele>787.0</ele><time>2026-03-24T10:23:17.961Z</time></trkpt><trkpt lat="42.295315" lon="13.4516383"><ele>787.0</ele><time>2026-03-24T10:23:18.96Z</time></trkpt><trkpt lat="42.2951999" lon="13.4516776"><ele>787.0</ele><time>2026-03-24T10:23:20.96Z</time></trkpt><trkpt lat="42.2951336" lon="13.4516959"><ele>786.9999999999999</ele><time>2026-03-24T10:23:21.961Z</time></trkpt><trkpt lat="42.2950666" lon="13.4517038"><ele>787.0</ele><time>2026-03-24T10:23:22.96Z</time></trkpt><trkpt lat="42.2950024" lon="13.4516856"><ele>786.9999999999999</ele><time>2026-03-24T10:23:23.96Z</time></trkpt><trkpt lat="42.2949441" lon="13.4516521"><ele>787.0</ele><time>2026-03-24T10:23:24.961Z</time></trkpt><trkpt lat="42.2949381" lon="13.4514836"><ele>787.0</ele><time>2026-03-24T10:23:26.96Z</time></trkpt><trkpt lat="42.2949611" lon="13.4513903"><ele>787.0</ele><time>2026-03-24T10:23:27.96Z</time></trkpt><trkpt lat="42.2950073" lon="13.451295"><ele>786.9999999999999</ele><time>2026-03-24T10:23:28.961Z</time></trkpt><trkpt lat="42.2950671" lon="13.4511907"><ele>787.0</ele><time>2026-03-24T10:23:29.96Z</time></trkpt><trkpt lat="42.2951434" lon="13.451082"><ele>789.2</ele><time>2026-03-24T10:23:30.96Z</time></trkpt><trkpt lat="42.2952223" lon="13.4509758"><ele>791.4000000000001</ele><time>2026-03-24T10:23:31.96Z</time></trkpt><trkpt lat="42.2953006" lon="13.4508595"><ele>793.5999999999999</ele><time>2026-03-24T10:23:32.961Z</time></trkpt><trkpt lat="42.2953751" lon="13.4507452"><ele>795.8</ele><time>2026-03-24T10:23:33.961Z</time></trkpt><trkpt lat="42.295446" lon="13.4506356"><ele>798.0</ele><time>2026-03-24T10:23:34.96Z</time></trkpt><trkpt lat="42.295517" lon="13.4505285"><ele>797.0</ele><time>2026-03-24T10:23:35.961Z</time></trkpt><trkpt lat="42.2955765" lon="13.4504167"><ele>796.0</ele><time>2026-03-24T10:23:36.96Z</time></trkpt><trkpt lat="42.2956222" lon="13.4502951"><ele>795.0</ele><time>2026-03-24T10:23:37.961Z</time></trkpt><trkpt lat="42.2956608" lon="13.450167"><ele>794.0</ele><time>2026-03-24T10:23:38.96Z</time></trkpt><trkpt lat="42.2956954" lon="13.4500421"><ele>793.0</ele><time>2026-03-24T10:23:39.96Z</time></trkpt><trkpt lat="42.2957237" lon="13.4499262"><ele>793.0</ele><time>2026-03-24T10:23:40.961Z</time></trkpt><trkpt lat="42.2957486" lon="13.4498143"><ele>793.0</ele><time>2026-03-24T10:23:41.96Z</time></trkpt><trkpt lat="42.2957711" lon="13.4496987"><ele>793.0</ele><time>2026-03-24T10:23:42.961Z</time></trkpt><trkpt lat="42.2957915" lon="13.4495786"><ele>793.0</ele><time>2026-03-24T10:23:43.96Z</time></trkpt><trkpt lat="42.2958078" lon="13.4494469"><ele>793.0</ele><time>2026-03-24T10:23:44.96Z</time></trkpt><trkpt lat="42.2958202" lon="13.449312"><ele>795.0</ele><time>2026-03-24T10:23:45.961Z</time></trkpt><trkpt lat="42.2958261" lon="13.449173"><ele>797.0</ele><time>2026-03-24T10:23:46.961Z</time></trkpt><trkpt lat="42.2958237" lon="13.4490517"><ele>799.0</ele><time>2026-03-24T10:23:47.96Z</time></trkpt><trkpt lat="42.295813" lon="13.4489363"><ele>801.0</ele><time>2026-03-24T10:23:48.96Z</time></trkpt><trkpt lat="42.2958056" lon="13.4488147"><ele>803.0</ele><time>2026-03-24T10:23:49.96Z</time></trkpt><trkpt lat="42.2957952" lon="13.4486888"><ele>803.8333333333334</ele><time>2026-03-24T10:23:50.96Z</time></trkpt><trkpt lat="42.295787" lon="13.4485717"><ele>804.6666666666667</ele><time>2026-03-24T10:23:51.96Z</time></trkpt><trkpt lat="42.2957823" lon="13.4484571"><ele>805.5</ele><time>2026-03-24T10:23:52.961Z</time></trkpt><trkpt lat="42.2957758" lon="13.4483401"><ele>806.3333333333333</ele><time>2026-03-24T10:23:53.96Z</time></trkpt><trkpt lat="42.2957852" lon="13.4482272"><ele>807.1666666666666</ele><time>2026-03-24T10:23:54.96Z</time></trkpt><trkpt lat="42.2958042" lon="13.4481123"><ele>808.0</ele><time>2026-03-24T10:23:55.96Z</time></trkpt><trkpt lat="42.2958493" lon="13.4480094"><ele>808.9999999999999</ele><time>2026-03-24T10:23:56.96Z</time></trkpt><trkpt lat="42.2958949" lon="13.4479259"><ele>810.0</ele><time>2026-03-24T10:23:57.96Z</time></trkpt><trkpt lat="42.2959595" lon="13.4478583"><ele>811.0</ele><time>2026-03-24T10:23:58.96Z</time></trkpt><trkpt lat="42.2960229" lon="13.4477923"><ele>812.0</ele><time>2026-03-24T10:23:59.96Z</time></trkpt><trkpt lat="42.2960777" lon="13.4477342"><ele>812.9999999999999</ele><time>2026-03-24T10:24:00.96Z</time></trkpt><trkpt lat="42.2961711" lon="13.4476233"><ele>814.0</ele><time>2026-03-24T10:24:02.961Z</time></trkpt><trkpt lat="42.2962086" lon="13.4475547"><ele>813.9999999999999</ele><time>2026-03-24T10:24:03.96Z</time></trkpt><trkpt lat="42.2962511" lon="13.4473989"><ele>814.0</ele><time>2026-03-24T10:24:05.96Z</time></trkpt><trkpt lat="42.2961832" lon="13.447283"><ele>814.0</ele><time>2026-03-24T10:24:07.96Z</time></trkpt><trkpt lat="42.2961181" lon="13.4472676"><ele>814.0</ele><time>2026-03-24T10:24:08.96Z</time></trkpt><trkpt lat="42.2960455" lon="13.4472789"><ele>813.9999999999999</ele><time>2026-03-24T10:24:09.961Z</time></trkpt><trkpt lat="42.2959772" lon="13.4473037"><ele>814.0</ele><time>2026-03-24T10:24:10.961Z</time></trkpt><trkpt lat="42.2958999" lon="13.4473389"><ele>814.0</ele><time>2026-03-24T10:24:11.96Z</time></trkpt><trkpt lat="42.2958168" lon="13.447375"><ele>814.0</ele><time>2026-03-24T10:24:12.96Z</time></trkpt><trkpt lat="42.2957343" lon="13.447428"><ele>814.0</ele><time>2026-03-24T10:24:13.96Z</time></trkpt><trkpt lat="42.2956576" lon="13.4474919"><ele>814.0</ele><time>2026-03-24T10:24:14.96Z</time></trkpt><trkpt lat="42.2955769" lon="13.4475716"><ele>814.0</ele><time>2026-03-24T10:24:15.96Z</time></trkpt><trkpt lat="42.2955" lon="13.4476628"><ele>818.0</ele><time>2026-03-24T10:24:16.961Z</time></trkpt><trkpt lat="42.2954376" lon="13.4477605"><ele>822.0</ele><time>2026-03-24T10:24:17.96Z</time></trkpt><trkpt lat="42.2953824" lon="13.447863"><ele>826.0</ele><time>2026-03-24T10:24:18.961Z</time></trkpt><trkpt lat="42.2953412" lon="13.4479662"><ele>830.0</ele><time>2026-03-24T10:24:19.961Z</time></trkpt><trkpt lat="42.2953134" lon="13.4480829"><ele>834.0</ele><time>2026-03-24T10:24:20.96Z</time></trkpt><trkpt lat="42.295302" lon="13.4482041"><ele>834.0</ele><time>2026-03-24T10:24:21.96Z</time></trkpt><trkpt lat="42.2953043" lon="13.4483302"><ele>834.0</ele><time>2026-03-24T10:24:22.961Z</time></trkpt><trkpt lat="42.2953134" lon="13.44845"><ele>834.0</ele><time>2026-03-24T10:24:23.96Z</time></trkpt><trkpt lat="42.29533" lon="13.4485715"><ele>834.0</ele><time>2026-03-24T10:24:24.961Z</time></trkpt><trkpt lat="42.2953345" lon="13.4486978"><ele>834.0</ele><time>2026-03-24T10:24:25.961Z</time></trkpt><trkpt lat="42.2953249" lon="13.4488176"><ele>832.4000000000001</ele><time>2026-03-24T10:24:26.961Z</time></trkpt><trkpt lat="42.2952582" lon="13.4489195"><ele>830.8</ele><time>2026-03-24T10:24:27.961Z</time></trkpt><trkpt lat="42.2952003" lon="13.4490225"><ele>829.2</ele><time>2026-03-24T10:24:28.96Z</time></trkpt><trkpt lat="42.2951231" lon="13.449096"><ele>827.5999999999999</ele><time>2026-03-24T10:24:29.96Z</time></trkpt><trkpt lat="42.2950283" lon="13.4491458"><ele>826.0</ele><time>2026-03-24T10:24:30.96Z</time></trkpt><trkpt lat="42.2949303" lon="13.4491902"><ele>826.0</ele><time>2026-03-24T10:24:31.96Z</time></trkpt><trkpt lat="42.2948266" lon="13.4492184"><ele>826.0</ele><time>2026-03-24T10:24:32.961Z</time></trkpt><trkpt lat="42.2947069" lon="13.4492337"><ele>826.0</ele><time>2026-03-24T10:24:33.96Z</time></trkpt><trkpt lat="42.2945934" lon="13.4492506"><ele>826.0</ele><time>2026-03-24T10:24:34.96Z</time></trkpt><trkpt lat="42.2944761" lon="13.4492679"><ele>828.0</ele><time>2026-03-24T10:24:35.961Z</time></trkpt><trkpt lat="42.2943544" lon="13.4492926"><ele>830.0</ele><time>2026-03-24T10:24:36.96Z</time></trkpt><trkpt lat="42.2942362" lon="13.4493111"><ele>832.0</ele><time>2026-03-24T10:24:37.96Z</time></trkpt><trkpt lat="42.2941162" lon="13.4493299"><ele>834.0</ele><time>2026-03-24T10:24:38.961Z</time></trkpt><trkpt lat="42.2940005" lon="13.4493513"><ele>835.6</ele><time>2026-03-24T10:24:39.96Z</time></trkpt><trkpt lat="42.2938871" lon="13.4493754"><ele>837.2</ele><time>2026-03-24T10:24:40.96Z</time></trkpt><trkpt lat="42.2937721" lon="13.4493955"><ele>838.8000000000001</ele><time>2026-03-24T10:24:41.96Z</time></trkpt><trkpt lat="42.2936659" lon="13.4494179"><ele>840.4000000000001</ele><time>2026-03-24T10:24:42.96Z</time></trkpt><trkpt lat="42.2935629" lon="13.4494452"><ele>842.0</ele><time>2026-03-24T10:24:43.96Z</time></trkpt><trkpt lat="42.2934577" lon="13.4494716"><ele>842.0</ele><time>2026-03-24T10:24:44.96Z</time></trkpt><trkpt lat="42.293352" lon="13.4494982"><ele>842.0</ele><time>2026-03-24T10:24:45.961Z</time></trkpt><trkpt lat="42.2932445" lon="13.4495257"><ele>842.0</ele><time>2026-03-24T10:24:46.96Z</time></trkpt><trkpt lat="42.2931413" lon="13.4495523"><ele>842.0</ele><time>2026-03-24T10:24:47.96Z</time></trkpt><trkpt lat="42.2930332" lon="13.4496068"><ele>842.0</ele><time>2026-03-24T10:24:48.961Z</time></trkpt><trkpt lat="42.2929313" lon="13.4496846"><ele>841.8</ele><time>2026-03-24T10:24:49.961Z</time></trkpt><trkpt lat="42.2928387" lon="13.449773"><ele>841.6</ele><time>2026-03-24T10:24:50.96Z</time></trkpt><trkpt lat="42.2927561" lon="13.449865"><ele>841.4</ele><time>2026-03-24T10:24:51.961Z</time></trkpt><trkpt lat="42.29267" lon="13.4499416"><ele>841.1999999999999</ele><time>2026-03-24T10:24:52.96Z</time></trkpt><trkpt lat="42.2925798" lon="13.4499884"><ele>841.0</ele><time>2026-03-24T10:24:53.961Z</time></trkpt><trkpt lat="42.2924803" lon="13.450012"><ele>841.0</ele><time>2026-03-24T10:24:54.961Z</time></trkpt><trkpt lat="42.2923719" lon="13.4500064"><ele>841.0</ele><time>2026-03-24T10:24:55.961Z</time></trkpt><trkpt lat="42.2922648" lon="13.4499786"><ele>841.0</ele><time>2026-03-24T10:24:56.96Z</time></trkpt><trkpt lat="42.2921496" lon="13.449952"><ele>841.0</ele><time>2026-03-24T10:24:57.961Z</time></trkpt><trkpt lat="42.2920376" lon="13.4499208"><ele>841.0</ele><time>2026-03-24T10:24:58.96Z</time></trkpt><trkpt lat="42.291932" lon="13.4498881"><ele>841.8</ele><time>2026-03-24T10:24:59.961Z</time></trkpt><trkpt lat="42.2918303" lon="13.4498449"><ele>842.5999999999999</ele><time>2026-03-24T10:25:00.961Z</time></trkpt><trkpt lat="42.2917325" lon="13.4497932"><ele>843.4</ele><time>2026-03-24T10:25:01.96Z</time></trkpt><trkpt lat="42.2916438" lon="13.4497213"><ele>844.2</ele><time>2026-03-24T10:25:02.96Z</time></trkpt><trkpt lat="42.2915533" lon="13.4496366"><ele>845.0</ele><time>2026-03-24T10:25:03.96Z</time></trkpt><trkpt lat="42.291475" lon="13.4495485"><ele>847.0000000000001</ele><time>2026-03-24T10:25:04.96Z</time></trkpt><trkpt lat="42.2914067" lon="13.4494724"><ele>849.0</ele><time>2026-03-24T10:25:05.96Z</time></trkpt><trkpt lat="42.2913439" lon="13.449405"><ele>851.0</ele><time>2026-03-24T10:25:06.961Z</time></trkpt><trkpt lat="42.2912789" lon="13.449349"><ele>853.0</ele><time>2026-03-24T10:25:07.961Z</time></trkpt><trkpt lat="42.2912084" lon="13.4492886"><ele>855.0000000000001</ele><time>2026-03-24T10:25:08.96Z</time></trkpt><trkpt lat="42.2911332" lon="13.4492368"><ele>857.0</ele><time>2026-03-24T10:25:09.96Z</time></trkpt><trkpt lat="42.2910404" lon="13.449215"><ele>857.0</ele><time>2026-03-24T10:25:10.961Z</time></trkpt><trkpt lat="42.2909476" lon="13.4492056"><ele>857.0</ele><time>2026-03-24T10:25:11.961Z</time></trkpt><trkpt lat="42.2908493" lon="13.4492165"><ele>857.0</ele><time>2026-03-24T10:25:12.96Z</time></trkpt><trkpt lat="42.2907519" lon="13.4492491"><ele>857.0</ele><time>2026-03-24T10:25:13.96Z</time></trkpt><trkpt lat="42.2906464" lon="13.449314"><ele>857.0</ele><time>2026-03-24T10:25:14.961Z</time></trkpt><trkpt lat="42.2905601" lon="13.4493978"><ele>856.8</ele><time>2026-03-24T10:25:15.96Z</time></trkpt><trkpt lat="42.2904742" lon="13.449499"><ele>856.6</ele><time>2026-03-24T10:25:16.96Z</time></trkpt><trkpt lat="42.2903948" lon="13.4496038"><ele>856.3999999999999</ele><time>2026-03-24T10:25:17.961Z</time></trkpt><trkpt lat="42.2903198" lon="13.4497083"><ele>856.1999999999999</ele><time>2026-03-24T10:25:18.961Z</time></trkpt><trkpt lat="42.2902473" lon="13.44982"><ele>856.0</ele><time>2026-03-24T10:25:19.961Z</time></trkpt><trkpt lat="42.2901787" lon="13.4499368"><ele>856.0</ele><time>2026-03-24T10:25:20.96Z</time></trkpt><trkpt lat="42.2901161" lon="13.4500458"><ele>855.9999999999999</ele><time>2026-03-24T10:25:21.96Z</time></trkpt><trkpt lat="42.2900432" lon="13.4501499"><ele>855.9999999999999</ele><time>2026-03-24T10:25:22.96Z</time></trkpt><trkpt lat="42.2899612" lon="13.4502454"><ele>856.0</ele><time>2026-03-24T10:25:23.961Z</time></trkpt><trkpt lat="42.2898618" lon="13.4503244"><ele>856.0</ele><time>2026-03-24T10:25:24.96Z</time></trkpt><trkpt lat="42.2897526" lon="13.4503897"><ele>858.0</ele><time>2026-03-24T10:25:25.96Z</time></trkpt><trkpt lat="42.2896437" lon="13.4504579"><ele>860.0</ele><time>2026-03-24T10:25:26.96Z</time></trkpt><trkpt lat="42.2895409" lon="13.4505246"><ele>862.0</ele><time>2026-03-24T10:25:27.96Z</time></trkpt><trkpt lat="42.2894478" lon="13.4506015"><ele>864.0</ele><time>2026-03-24T10:25:28.961Z</time></trkpt><trkpt lat="42.2893629" lon="13.4506948"><ele>864.0</ele><time>2026-03-24T10:25:29.96Z</time></trkpt><trkpt lat="42.2892752" lon="13.4507895"><ele>864.0000000000001</ele><time>2026-03-24T10:25:30.96Z</time></trkpt><trkpt lat="42.2892068" lon="13.4509007"><ele>864.0000000000001</ele><time>2026-03-24T10:25:31.96Z</time></trkpt><trkpt lat="42.2891325" lon="13.4510029"><ele>864.0</ele><time>2026-03-24T10:25:32.961Z</time></trkpt><trkpt lat="42.28906" lon="13.4510888"><ele>864.0</ele><time>2026-03-24T10:25:33.96Z</time></trkpt><trkpt lat="42.2889837" lon="13.4511668"><ele>864.8000000000001</ele><time>2026-03-24T10:25:34.96Z</time></trkpt><trkpt lat="42.2889019" lon="13.451237"><ele>865.6000000000001</ele><time>2026-03-24T10:25:35.96Z</time></trkpt><trkpt lat="42.2888055" lon="13.451289"><ele>866.4</ele><time>2026-03-24T10:25:36.96Z</time></trkpt><trkpt lat="42.2887017" lon="13.4513214"><ele>867.2</ele><time>2026-03-24T10:25:37.96Z</time></trkpt><trkpt lat="42.2886061" lon="13.4513386"><ele>868.0</ele><time>2026-03-24T10:25:38.96Z</time></trkpt><trkpt lat="42.2885086" lon="13.4513611"><ele>868.0</ele><time>2026-03-24T10:25:39.96Z</time></trkpt><trkpt lat="42.2884165" lon="13.4513834"><ele>868.0</ele><time>2026-03-24T10:25:40.961Z</time></trkpt><trkpt lat="42.2883439" lon="13.451425"><ele>868.0</ele><time>2026-03-24T10:25:41.96Z</time></trkpt><trkpt lat="42.2882656" lon="13.4514902"><ele>868.0</ele><time>2026-03-24T10:25:42.96Z</time></trkpt><trkpt lat="42.288195" lon="13.4515761"><ele>868.0</ele><time>2026-03-24T10:25:43.96Z</time></trkpt><trkpt lat="42.2881295" lon="13.4516678"><ele>870.2</ele><time>2026-03-24T10:25:44.96Z</time></trkpt><trkpt lat="42.2880597" lon="13.4517724"><ele>872.4</ele><time>2026-03-24T10:25:45.96Z</time></trkpt><trkpt lat="42.2879928" lon="13.4518826"><ele>874.6000000000001</ele><time>2026-03-24T10:25:46.961Z</time></trkpt><trkpt lat="42.2879202" lon="13.4520001"><ele>876.8000000000001</ele><time>2026-03-24T10:25:47.96Z</time></trkpt><trkpt lat="42.2878435" lon="13.4521161"><ele>879.0</ele><time>2026-03-24T10:25:48.96Z</time></trkpt><trkpt lat="42.2877686" lon="13.452224"><ele>879.0</ele><time>2026-03-24T10:25:49.96Z</time></trkpt><trkpt lat="42.2877038" lon="13.4523196"><ele>879.0000000000001</ele><time>2026-03-24T10:25:50.96Z</time></trkpt><trkpt lat="42.2876436" lon="13.4524232"><ele>879.0000000000001</ele><time>2026-03-24T10:25:51.961Z</time></trkpt><trkpt lat="42.2875836" lon="13.4525305"><ele>879.0</ele><time>2026-03-24T10:25:52.961Z</time></trkpt><trkpt lat="42.287531" lon="13.4526449"><ele>879.0</ele><time>2026-03-24T10:25:53.96Z</time></trkpt><trkpt lat="42.2874839" lon="13.4527644"><ele>879.0</ele><time>2026-03-24T10:25:54.96Z</time></trkpt><trkpt lat="42.2874411" lon="13.4528817"><ele>879.0000000000001</ele><time>2026-03-24T10:25:55.96Z</time></trkpt><trkpt lat="42.28741" lon="13.4530059"><ele>879.0000000000001</ele><time>2026-03-24T10:25:56.96Z</time></trkpt><trkpt lat="42.2873903" lon="13.4531293"><ele>879.0</ele><time>2026-03-24T10:25:57.96Z</time></trkpt><trkpt lat="42.2873721" lon="13.4532515"><ele>879.0</ele><time>2026-03-24T10:25:58.96Z</time></trkpt><trkpt lat="42.287365" lon="13.4533827"><ele>878.4000000000001</ele><time>2026-03-24T10:25:59.96Z</time></trkpt><trkpt lat="42.2873537" lon="13.4535201"><ele>877.8000000000001</ele><time>2026-03-24T10:26:00.961Z</time></trkpt><trkpt lat="42.2873463" lon="13.4536629"><ele>877.1999999999999</ele><time>2026-03-24T10:26:01.96Z</time></trkpt><trkpt lat="42.2873376" lon="13.4538099"><ele>876.5999999999999</ele><time>2026-03-24T10:26:02.961Z</time></trkpt><trkpt lat="42.2873125" lon="13.4539577"><ele>876.0</ele><time>2026-03-24T10:26:03.96Z</time></trkpt><trkpt lat="42.2872731" lon="13.4540877"><ele>879.5999999999999</ele><time>2026-03-24T10:26:04.961Z</time></trkpt><trkpt lat="42.287208" lon="13.4542034"><ele>883.1999999999999</ele><time>2026-03-24T10:26:05.96Z</time></trkpt><trkpt lat="42.2871265" lon="13.4543066"><ele>886.8000000000001</ele><time>2026-03-24T10:26:06.96Z</time></trkpt><trkpt lat="42.287043" lon="13.4544003"><ele>890.4000000000001</ele><time>2026-03-24T10:26:07.96Z</time></trkpt><trkpt lat="42.286945" lon="13.4544932"><ele>894.0</ele><time>2026-03-24T10:26:08.96Z</time></trkpt><trkpt lat="42.2868438" lon="13.4545803"><ele>894.5</ele><time>2026-03-24T10:26:09.96Z</time></trkpt><trkpt lat="42.2867356" lon="13.4546685"><ele>895.0</ele><time>2026-03-24T10:26:10.961Z</time></trkpt><trkpt lat="42.2866191" lon="13.4547734"><ele>895.5</ele><time>2026-03-24T10:26:11.96Z</time></trkpt><trkpt lat="42.2864899" lon="13.4548864"><ele>896.0</ele><time>2026-03-24T10:26:12.961Z</time></trkpt><trkpt lat="42.2863554" lon="13.4549998"><ele>896.0</ele><time>2026-03-24T10:26:13.96Z</time></trkpt><trkpt lat="42.2862186" lon="13.4551143"><ele>896.0</ele><time>2026-03-24T10:26:14.96Z</time></trkpt><trkpt lat="42.2860741" lon="13.4552387"><ele>896.0</ele><time>2026-03-24T10:26:15.96Z</time></trkpt><trkpt lat="42.285925" lon="13.4553643"><ele>897.3333333333334</ele><time>2026-03-24T10:26:16.961Z</time></trkpt><trkpt lat="42.2857804" lon="13.4554895"><ele>898.6666666666667</ele><time>2026-03-24T10:26:17.96Z</time></trkpt><trkpt lat="42.2856377" lon="13.4556048"><ele>900.0</ele><time>2026-03-24T10:26:18.961Z</time></trkpt><trkpt lat="42.2855094" lon="13.4557102"><ele>900.0</ele><time>2026-03-24T10:26:19.96Z</time></trkpt><trkpt lat="42.2853834" lon="13.4558028"><ele>900.0</ele><time>2026-03-24T10:26:20.961Z</time></trkpt><trkpt lat="42.2852673" lon="13.4558738"><ele>900.0</ele><time>2026-03-24T10:26:21.96Z</time></trkpt><trkpt lat="42.2851642" lon="13.4559375"><ele>900.0</ele><time>2026-03-24T10:26:22.96Z</time></trkpt><trkpt lat="42.2850599" lon="13.4559762"><ele>900.0000000000001</ele><time>2026-03-24T10:26:23.961Z</time></trkpt><trkpt lat="42.2849739" lon="13.4559939"><ele>900.0</ele><time>2026-03-24T10:26:24.96Z</time></trkpt><trkpt lat="42.2849003" lon="13.4559865"><ele>900.0000000000001</ele><time>2026-03-24T10:26:25.96Z</time></trkpt><trkpt lat="42.2848409" lon="13.4559407"><ele>900.0000000000001</ele><time>2026-03-24T10:26:26.96Z</time></trkpt><trkpt lat="42.2848073" lon="13.4558637"><ele>900.0</ele><time>2026-03-24T10:26:27.96Z</time></trkpt><trkpt lat="42.2848105" lon="13.4557736"><ele>900.0000000000001</ele><time>2026-03-24T10:26:28.961Z</time></trkpt><trkpt lat="42.2848571" lon="13.4556939"><ele>900.0000000000001</ele><time>2026-03-24T10:26:29.96Z</time></trkpt><trkpt lat="42.2849403" lon="13.4556314"><ele>900.0</ele><time>2026-03-24T10:26:30.96Z</time></trkpt><trkpt lat="42.2850393" lon="13.4555675"><ele>900.0</ele><time>2026-03-24T10:26:31.961Z</time></trkpt><trkpt lat="42.2851442" lon="13.4554846"><ele>900.0</ele><time>2026-03-24T10:26:32.961Z</time></trkpt><trkpt lat="42.2852402" lon="13.4553908"><ele>900.0</ele><time>2026-03-24T10:26:33.96Z</time></trkpt><trkpt lat="42.2853299" lon="13.4552875"><ele>899.0</ele><time>2026-03-24T10:26:34.961Z</time></trkpt><trkpt lat="42.2854057" lon="13.4551625"><ele>898.0</ele><time>2026-03-24T10:26:35.961Z</time></trkpt><trkpt lat="42.2854706" lon="13.4550153"><ele>897.0</ele><time>2026-03-24T10:26:36.96Z</time></trkpt><trkpt lat="42.2855404" lon="13.4548545"><ele>896.0</ele><time>2026-03-24T10:26:37.96Z</time></trkpt><trkpt lat="42.2856148" lon="13.4546939"><ele>898.75</ele><time>2026-03-24T10:26:38.96Z</time></trkpt><trkpt lat="42.2856814" lon="13.4545296"><ele>901.5</ele><time>2026-03-24T10:26:39.96Z</time></trkpt><trkpt lat="42.2857466" lon="13.4543621"><ele>904.25</ele><time>2026-03-24T10:26:40.961Z</time></trkpt><trkpt lat="42.2858106" lon="13.4541915"><ele>907.0</ele><time>2026-03-24T10:26:41.96Z</time></trkpt><trkpt lat="42.2858718" lon="13.4540255"><ele>907.0</ele><time>2026-03-24T10:26:42.96Z</time></trkpt><trkpt lat="42.2859297" lon="13.4538734"><ele>907.0</ele><time>2026-03-24T10:26:43.96Z</time></trkpt><trkpt lat="42.2859867" lon="13.4537292"><ele>907.0</ele><time>2026-03-24T10:26:44.961Z</time></trkpt><trkpt lat="42.2860349" lon="13.4535904"><ele>907.0</ele><time>2026-03-24T10:26:45.961Z</time></trkpt><trkpt lat="42.2860832" lon="13.4534638"><ele>908.6666666666666</ele><time>2026-03-24T10:26:46.961Z</time></trkpt><trkpt lat="42.2861146" lon="13.4533565"><ele>910.3333333333333</ele><time>2026-03-24T10:26:47.961Z</time></trkpt><trkpt lat="42.286137" lon="13.4532511"><ele>912.0</ele><time>2026-03-24T10:26:48.961Z</time></trkpt><trkpt lat="42.2861316" lon="13.4531492"><ele>913.6666666666667</ele><time>2026-03-24T10:26:49.961Z</time></trkpt><trkpt lat="42.286095" lon="13.4530606"><ele>915.3333333333334</ele><time>2026-03-24T10:26:50.961Z</time></trkpt><trkpt lat="42.286031" lon="13.453007"><ele>917.0</ele><time>2026-03-24T10:26:51.961Z</time></trkpt><trkpt lat="42.285948" lon="13.4529941"><ele>917.0</ele><time>2026-03-24T10:26:52.96Z</time></trkpt><trkpt lat="42.2858743" lon="13.4530346"><ele>917.0</ele><time>2026-03-24T10:26:53.96Z</time></trkpt><trkpt lat="42.2858179" lon="13.4531182"><ele>917.0</ele><time>2026-03-24T10:26:54.961Z</time></trkpt><trkpt lat="42.2857725" lon="13.4532227"><ele>917.0</ele><time>2026-03-24T10:26:55.96Z</time></trkpt><trkpt lat="42.2857276" lon="13.4533392"><ele>917.0</ele><time>2026-03-24T10:26:56.961Z</time></trkpt><trkpt lat="42.2856756" lon="13.4534656"><ele>917.0</ele><time>2026-03-24T10:26:57.961Z</time></trkpt><trkpt lat="42.2856151" lon="13.4536023"><ele>917.0</ele><time>2026-03-24T10:26:58.96Z</time></trkpt><trkpt lat="42.2855274" lon="13.4537364"><ele>917.0</ele><time>2026-03-24T10:26:59.961Z</time></trkpt><trkpt lat="42.2854263" lon="13.4538601"><ele>917.0</ele><time>2026-03-24T10:27:00.961Z</time></trkpt><trkpt lat="42.2853097" lon="13.4539792"><ele>918.25</ele><time>2026-03-24T10:27:01.96Z</time></trkpt><trkpt lat="42.2851904" lon="13.4540896"><ele>919.5</ele><time>2026-03-24T10:27:02.96Z</time></trkpt><trkpt lat="42.2850693" lon="13.4541972"><ele>920.75</ele><time>2026-03-24T10:27:03.96Z</time></trkpt><trkpt lat="42.2849462" lon="13.4542887"><ele>922.0</ele><time>2026-03-24T10:27:04.96Z</time></trkpt><trkpt lat="42.2848196" lon="13.4543483"><ele>926.0</ele><time>2026-03-24T10:27:05.96Z</time></trkpt><trkpt lat="42.2846894" lon="13.4543942"><ele>930.0</ele><time>2026-03-24T10:27:06.96Z</time></trkpt><trkpt lat="42.2845555" lon="13.4544402"><ele>934.0</ele><time>2026-03-24T10:27:07.961Z</time></trkpt><trkpt lat="42.2844279" lon="13.4544889"><ele>938.0</ele><time>2026-03-24T10:27:08.96Z</time></trkpt><trkpt lat="42.284301" lon="13.454551"><ele>938.0</ele><time>2026-03-24T10:27:09.96Z</time></trkpt><trkpt lat="42.2841812" lon="13.4546311"><ele>938.0</ele><time>2026-03-24T10:27:10.96Z</time></trkpt><trkpt lat="42.2840594" lon="13.4547349"><ele>938.0</ele><time>2026-03-24T10:27:11.961Z</time></trkpt><trkpt lat="42.2839431" lon="13.4548484"><ele>938.0</ele><time>2026-03-24T10:27:12.961Z</time></trkpt><trkpt lat="42.2838152" lon="13.4549549"><ele>938.0</ele><time>2026-03-24T10:27:13.96Z</time></trkpt><trkpt lat="42.2836822" lon="13.4550478"><ele>938.0</ele><time>2026-03-24T10:27:14.961Z</time></trkpt><trkpt lat="42.2835485" lon="13.455148"><ele>938.0</ele><time>2026-03-24T10:27:15.96Z</time></trkpt><trkpt lat="42.283407" lon="13.4552384"><ele>938.0</ele><time>2026-03-24T10:27:16.96Z</time></trkpt><trkpt lat="42.2832705" lon="13.4553274"><ele>938.0</ele><time>2026-03-24T10:27:17.96Z</time></trkpt><trkpt lat="42.2831358" lon="13.455429"><ele>938.0</ele><time>2026-03-24T10:27:18.961Z</time></trkpt><trkpt lat="42.2830057" lon="13.4555408"><ele>940.6666666666667</ele><time>2026-03-24T10:27:19.961Z</time></trkpt><trkpt lat="42.2828791" lon="13.4556638"><ele>943.3333333333333</ele><time>2026-03-24T10:27:20.96Z</time></trkpt><trkpt lat="42.2827577" lon="13.4557915"><ele>946.0</ele><time>2026-03-24T10:27:21.96Z</time></trkpt><trkpt lat="42.2826345" lon="13.4559253"><ele>946.0</ele><time>2026-03-24T10:27:22.961Z</time></trkpt><trkpt lat="42.282515" lon="13.4560621"><ele>946.0</ele><time>2026-03-24T10:27:23.96Z</time></trkpt><trkpt lat="42.2824056" lon="13.4562049"><ele>946.0</ele><time>2026-03-24T10:27:24.96Z</time></trkpt><trkpt lat="42.2823119" lon="13.4563702"><ele>949.0</ele><time>2026-03-24T10:27:25.961Z</time></trkpt><trkpt lat="42.2822496" lon="13.4565439"><ele>952.0</ele><time>2026-03-24T10:27:26.96Z</time></trkpt><trkpt lat="42.2821934" lon="13.4567087"><ele>955.0</ele><time>2026-03-24T10:27:27.96Z</time></trkpt><trkpt lat="42.2821269" lon="13.4568744"><ele>958.0</ele><time>2026-03-24T10:27:28.96Z</time></trkpt><trkpt lat="42.2820409" lon="13.4570267"><ele>953.6666666666666</ele><time>2026-03-24T10:27:29.961Z</time></trkpt><trkpt lat="42.2819445" lon="13.4571814"><ele>949.3333333333333</ele><time>2026-03-24T10:27:30.96Z</time></trkpt><trkpt lat="42.2818288" lon="13.4573117"><ele>945.0</ele><time>2026-03-24T10:27:31.96Z</time></trkpt><trkpt lat="42.2816989" lon="13.4574121"><ele>945.0</ele><time>2026-03-24T10:27:32.961Z</time></trkpt><trkpt lat="42.2815813" lon="13.457528"><ele>945.0</ele><time>2026-03-24T10:27:33.961Z</time></trkpt><trkpt lat="42.281485" lon="13.4576685"><ele>945.0</ele><time>2026-03-24T10:27:34.961Z</time></trkpt><trkpt lat="42.2814141" lon="13.4578287"><ele>945.0</ele><time>2026-03-24T10:27:35.961Z</time></trkpt><trkpt lat="42.2813624" lon="13.4580001"><ele>952.3333333333333</ele><time>2026-03-24T10:27:36.96Z</time></trkpt><trkpt lat="42.2813058" lon="13.4581823"><ele>959.6666666666666</ele><time>2026-03-24T10:27:37.96Z</time></trkpt><trkpt lat="42.2812445" lon="13.4583711"><ele>967.0</ele><time>2026-03-24T10:27:38.96Z</time></trkpt><trkpt lat="42.2811814" lon="13.4585625"><ele>967.0</ele><time>2026-03-24T10:27:39.96Z</time></trkpt><trkpt lat="42.2811115" lon="13.4587469"><ele>967.0</ele><time>2026-03-24T10:27:40.96Z</time></trkpt><trkpt lat="42.2810254" lon="13.4589256"><ele>967.0</ele><time>2026-03-24T10:27:41.961Z</time></trkpt><trkpt lat="42.2809333" lon="13.4590996"><ele>967.25</ele><time>2026-03-24T10:27:42.961Z</time></trkpt><trkpt lat="42.2808308" lon="13.4592537"><ele>967.5</ele><time>2026-03-24T10:27:43.96Z</time></trkpt><trkpt lat="42.2807071" lon="13.4593721"><ele>967.75</ele><time>2026-03-24T10:27:44.961Z</time></trkpt><trkpt lat="42.2805731" lon="13.4594454"><ele>968.0</ele><time>2026-03-24T10:27:45.96Z</time></trkpt><trkpt lat="42.2804356" lon="13.4594742"><ele>968.0</ele><time>2026-03-24T10:27:46.96Z</time></trkpt><trkpt lat="42.2802964" lon="13.4594753"><ele>968.0</ele><time>2026-03-24T10:27:47.96Z</time></trkpt><trkpt lat="42.280145" lon="13.4594691"><ele>968.0</ele><time>2026-03-24T10:27:48.96Z</time></trkpt><trkpt lat="42.2799997" lon="13.4594638"><ele>968.0</ele><time>2026-03-24T10:27:49.96Z</time></trkpt><trkpt lat="42.2798556" lon="13.4594778"><ele>970.0</ele><time>2026-03-24T10:27:50.96Z</time></trkpt><trkpt lat="42.2797084" lon="13.4595091"><ele>972.0</ele><time>2026-03-24T10:27:51.96Z</time></trkpt><trkpt lat="42.2795705" lon="13.4595725"><ele>974.0</ele><time>2026-03-24T10:27:52.96Z</time></trkpt><trkpt lat="42.2794322" lon="13.4596521"><ele>976.0</ele><time>2026-03-24T10:27:53.961Z</time></trkpt><trkpt lat="42.2792957" lon="13.4597454"><ele>975.0</ele><time>2026-03-24T10:27:54.961Z</time></trkpt><trkpt lat="42.2791525" lon="13.4598508"><ele>974.0</ele><time>2026-03-24T10:27:55.961Z</time></trkpt><trkpt lat="42.2790258" lon="13.4599603"><ele>973.0</ele><time>2026-03-24T10:27:56.961Z</time></trkpt><trkpt lat="42.2788966" lon="13.4600818"><ele>973.0</ele><time>2026-03-24T10:27:57.96Z</time></trkpt><trkpt lat="42.2787721" lon="13.4601983"><ele>973.0</ele><time>2026-03-24T10:27:58.96Z</time></trkpt><trkpt lat="42.278648" lon="13.4603275"><ele>973.0</ele><time>2026-03-24T10:27:59.96Z</time></trkpt><trkpt lat="42.2785389" lon="13.4604659"><ele>971.3333333333333</ele><time>2026-03-24T10:28:00.96Z</time></trkpt><trkpt lat="42.2784425" lon="13.4606315"><ele>969.6666666666667</ele><time>2026-03-24T10:28:01.96Z</time></trkpt><trkpt lat="42.2783657" lon="13.4608115"><ele>968.0</ele><time>2026-03-24T10:28:02.96Z</time></trkpt><trkpt lat="42.2783003" lon="13.4610066"><ele>968.0</ele><time>2026-03-24T10:28:03.96Z</time></trkpt><trkpt lat="42.2782341" lon="13.4612029"><ele>968.0</ele><time>2026-03-24T10:28:04.96Z</time></trkpt><trkpt lat="42.2781649" lon="13.4614031"><ele>968.0</ele><time>2026-03-24T10:28:05.96Z</time></trkpt><trkpt lat="42.2781016" lon="13.4615811"><ele>970.5</ele><time>2026-03-24T10:28:06.96Z</time></trkpt><trkpt lat="42.2780414" lon="13.4617473"><ele>973.0</ele><time>2026-03-24T10:28:07.961Z</time></trkpt><trkpt lat="42.2779832" lon="13.4618977"><ele>975.5</ele><time>2026-03-24T10:28:08.96Z</time></trkpt><trkpt lat="42.2779308" lon="13.462026"><ele>978.0</ele><time>2026-03-24T10:28:09.96Z</time></trkpt><trkpt lat="42.2778793" lon="13.4621484"><ele>978.0</ele><time>2026-03-24T10:28:10.961Z</time></trkpt><trkpt lat="42.2778508" lon="13.4622779"><ele>978.0</ele><time>2026-03-24T10:28:11.96Z</time></trkpt><trkpt lat="42.2778586" lon="13.4624151"><ele>978.0</ele><time>2026-03-24T10:28:12.96Z</time></trkpt><trkpt lat="42.2778853" lon="13.4625535"><ele>978.0</ele><time>2026-03-24T10:28:13.96Z</time></trkpt><trkpt lat="42.2779282" lon="13.4626988"><ele>978.0</ele><time>2026-03-24T10:28:14.961Z</time></trkpt><trkpt lat="42.2779673" lon="13.4628631"><ele>979.25</ele><time>2026-03-24T10:28:15.96Z</time></trkpt><trkpt lat="42.2780024" lon="13.4630426"><ele>980.5</ele><time>2026-03-24T10:28:16.96Z</time></trkpt><trkpt lat="42.2780356" lon="13.4632334"><ele>981.75</ele><time>2026-03-24T10:28:17.96Z</time></trkpt><trkpt lat="42.2780735" lon="13.4634369"><ele>983.0</ele><time>2026-03-24T10:28:18.96Z</time></trkpt><trkpt lat="42.2781127" lon="13.4636368"><ele>981.3333333333334</ele><time>2026-03-24T10:28:19.961Z</time></trkpt><trkpt lat="42.2781434" lon="13.4638404"><ele>979.6666666666667</ele><time>2026-03-24T10:28:20.96Z</time></trkpt><trkpt lat="42.2781653" lon="13.4640499"><ele>978.0</ele><time>2026-03-24T10:28:21.961Z</time></trkpt><trkpt lat="42.27817" lon="13.4642555"><ele>978.0</ele><time>2026-03-24T10:28:22.96Z</time></trkpt><trkpt lat="42.2781656" lon="13.4644496"><ele>978.0</ele><time>2026-03-24T10:28:23.961Z</time></trkpt><trkpt lat="42.2781317" lon="13.4646331"><ele>978.0</ele><time>2026-03-24T10:28:24.96Z</time></trkpt><trkpt lat="42.2780997" lon="13.4648199"><ele>978.0</ele><time>2026-03-24T10:28:25.96Z</time></trkpt><trkpt lat="42.2780635" lon="13.4650148"><ele>991.3333333333333</ele><time>2026-03-24T10:28:26.96Z</time></trkpt><trkpt lat="42.2780319" lon="13.4652287"><ele>1004.6666666666666</ele><time>2026-03-24T10:28:27.96Z</time></trkpt><trkpt lat="42.2779993" lon="13.465451"><ele>1018.0</ele><time>2026-03-24T10:28:28.96Z</time></trkpt><trkpt lat="42.2779677" lon="13.4656783"><ele>1020.3333333333333</ele><time>2026-03-24T10:28:29.96Z</time></trkpt><trkpt lat="42.2779455" lon="13.4659078"><ele>1022.6666666666667</ele><time>2026-03-24T10:28:30.96Z</time></trkpt><trkpt lat="42.2779133" lon="13.4661194"><ele>1025.0</ele><time>2026-03-24T10:28:31.96Z</time></trkpt><trkpt lat="42.2778922" lon="13.4663313"><ele>1026.6666666666667</ele><time>2026-03-24T10:28:32.961Z</time></trkpt><trkpt lat="42.2778695" lon="13.466533"><ele>1028.3333333333333</ele><time>2026-03-24T10:28:33.961Z</time></trkpt><trkpt lat="42.2778521" lon="13.466735"><ele>1030.0</ele><time>2026-03-24T10:28:34.96Z</time></trkpt><trkpt lat="42.2778294" lon="13.4669364"><ele>1030.3333333333333</ele><time>2026-03-24T10:28:35.961Z</time></trkpt><trkpt lat="42.2778029" lon="13.4671398"><ele>1030.6666666666667</ele><time>2026-03-24T10:28:36.961Z</time></trkpt><trkpt lat="42.27778" lon="13.4673474"><ele>1031.0</ele><time>2026-03-24T10:28:37.961Z</time></trkpt><trkpt lat="42.2777555" lon="13.4675618"><ele>1031.0</ele><time>2026-03-24T10:28:38.961Z</time></trkpt><trkpt lat="42.2777403" lon="13.467781"><ele>1031.0</ele><time>2026-03-24T10:28:39.96Z</time></trkpt><trkpt lat="42.2777222" lon="13.4680065"><ele>1031.0</ele><time>2026-03-24T10:28:40.96Z</time></trkpt><trkpt lat="42.277702" lon="13.4682234"><ele>1030.3333333333335</ele><time>2026-03-24T10:28:41.96Z</time></trkpt><trkpt lat="42.2776872" lon="13.4684502"><ele>1029.6666666666667</ele><time>2026-03-24T10:28:42.96Z</time></trkpt><trkpt lat="42.2776687" lon="13.468666"><ele>1029.0</ele><time>2026-03-24T10:28:43.961Z</time></trkpt><trkpt lat="42.2776597" lon="13.4688664"><ele>1029.75</ele><time>2026-03-24T10:28:44.96Z</time></trkpt><trkpt lat="42.2776458" lon="13.4690651"><ele>1030.5</ele><time>2026-03-24T10:28:45.96Z</time></trkpt><trkpt lat="42.2776346" lon="13.4692665"><ele>1031.25</ele><time>2026-03-24T10:28:46.96Z</time></trkpt><trkpt lat="42.2776266" lon="13.4694685"><ele>1032.0</ele><time>2026-03-24T10:28:47.96Z</time></trkpt><trkpt lat="42.2776122" lon="13.4696765"><ele>1032.0</ele><time>2026-03-24T10:28:48.96Z</time></trkpt><trkpt lat="42.2775878" lon="13.4698854"><ele>1032.0</ele><time>2026-03-24T10:28:49.96Z</time></trkpt><trkpt lat="42.2775524" lon="13.4700918"><ele>1032.0</ele><time>2026-03-24T10:28:50.96Z</time></trkpt><trkpt lat="42.2775116" lon="13.4703059"><ele>1028.6666666666667</ele><time>2026-03-24T10:28:51.961Z</time></trkpt><trkpt lat="42.2774696" lon="13.4705221"><ele>1025.3333333333335</ele><time>2026-03-24T10:28:52.96Z</time></trkpt><trkpt lat="42.2774269" lon="13.4707421"><ele>1022.0</ele><time>2026-03-24T10:28:53.96Z</time></trkpt><trkpt lat="42.2773859" lon="13.4709676"><ele>1022.0</ele><time>2026-03-24T10:28:54.96Z</time></trkpt><trkpt lat="42.2773411" lon="13.4711953"><ele>1022.0</ele><time>2026-03-24T10:28:55.961Z</time></trkpt><trkpt lat="42.2772992" lon="13.4714156"><ele>1022.0</ele><time>2026-03-24T10:28:56.96Z</time></trkpt><trkpt lat="42.2772547" lon="13.4716367"><ele>1040.6666666666667</ele><time>2026-03-24T10:28:57.96Z</time></trkpt><trkpt lat="42.277213" lon="13.471849"><ele>1059.3333333333333</ele><time>2026-03-24T10:28:58.96Z</time></trkpt><trkpt lat="42.277177" lon="13.4720528"><ele>1078.0</ele><time>2026-03-24T10:28:59.96Z</time></trkpt><trkpt lat="42.2771412" lon="13.4722491"><ele>1078.0</ele><time>2026-03-24T10:29:00.961Z</time></trkpt><trkpt lat="42.2771017" lon="13.4724515"><ele>1078.0</ele><time>2026-03-24T10:29:01.961Z</time></trkpt><trkpt lat="42.2770674" lon="13.4726446"><ele>1078.0</ele><time>2026-03-24T10:29:02.961Z</time></trkpt><trkpt lat="42.2770318" lon="13.4728432"><ele>1075.3333333333333</ele><time>2026-03-24T10:29:03.96Z</time></trkpt><trkpt lat="42.2769996" lon="13.4730475"><ele>1072.6666666666667</ele><time>2026-03-24T10:29:04.96Z</time></trkpt><trkpt lat="42.2769673" lon="13.4732626"><ele>1070.0</ele><time>2026-03-24T10:29:05.96Z</time></trkpt><trkpt lat="42.2769547" lon="13.4734982"><ele>1070.0</ele><time>2026-03-24T10:29:06.961Z</time></trkpt><trkpt lat="42.2769431" lon="13.4737285"><ele>1070.0</ele><time>2026-03-24T10:29:07.96Z</time></trkpt><trkpt lat="42.276935" lon="13.4739582"><ele>1070.0</ele><time>2026-03-24T10:29:08.961Z</time></trkpt><trkpt lat="42.2769291" lon="13.4741834"><ele>1069.6666666666667</ele><time>2026-03-24T10:29:09.961Z</time></trkpt><trkpt lat="42.2769085" lon="13.474407"><ele>1069.3333333333333</ele><time>2026-03-24T10:29:10.96Z</time></trkpt><trkpt lat="42.2768836" lon="13.4746182"><ele>1069.0</ele><time>2026-03-24T10:29:11.96Z</time></trkpt><trkpt lat="42.276851" lon="13.47482"><ele>1067.3333333333333</ele><time>2026-03-24T10:29:12.96Z</time></trkpt><trkpt lat="42.2768245" lon="13.4750308"><ele>1065.6666666666667</ele><time>2026-03-24T10:29:13.96Z</time></trkpt><trkpt lat="42.276794" lon="13.4752451"><ele>1064.0</ele><time>2026-03-24T10:29:14.96Z</time></trkpt><trkpt lat="42.276764" lon="13.4754611"><ele>1063.0</ele><time>2026-03-24T10:29:15.96Z</time></trkpt><trkpt lat="42.2767269" lon="13.475679"><ele>1062.0</ele><time>2026-03-24T10:29:16.961Z</time></trkpt><trkpt lat="42.2766952" lon="13.4758935"><ele>1061.0</ele><time>2026-03-24T10:29:17.96Z</time></trkpt><trkpt lat="42.2766556" lon="13.4761154"><ele>1057.6666666666667</ele><time>2026-03-24T10:29:18.96Z</time></trkpt><trkpt lat="42.2766168" lon="13.4763294"><ele>1054.3333333333333</ele><time>2026-03-24T10:29:19.96Z</time></trkpt><trkpt lat="42.2765728" lon="13.4765454"><ele>1051.0</ele><time>2026-03-24T10:29:20.961Z</time></trkpt><trkpt lat="42.2765267" lon="13.4767675"><ele>1051.0</ele><time>2026-03-24T10:29:21.96Z</time></trkpt><trkpt lat="42.2764802" lon="13.47699"><ele>1051.0</ele><time>2026-03-24T10:29:22.96Z</time></trkpt><trkpt lat="42.2764353" lon="13.4772051"><ele>1051.0</ele><time>2026-03-24T10:29:23.96Z</time></trkpt><trkpt lat="42.276384" lon="13.4774307"><ele>1063.0</ele><time>2026-03-24T10:29:24.96Z</time></trkpt><trkpt lat="42.2763317" lon="13.4776531"><ele>1075.0</ele><time>2026-03-24T10:29:25.96Z</time></trkpt><trkpt lat="42.276279" lon="13.4778771"><ele>1087.0</ele><time>2026-03-24T10:29:26.96Z</time></trkpt><trkpt lat="42.2762277" lon="13.4781073"><ele>1087.0</ele><time>2026-03-24T10:29:27.96Z</time></trkpt><trkpt lat="42.2761756" lon="13.4783416"><ele>1087.0</ele><time>2026-03-24T10:29:28.961Z</time></trkpt><trkpt lat="42.2761192" lon="13.4785778"><ele>1087.0</ele><time>2026-03-24T10:29:29.96Z</time></trkpt><trkpt lat="42.2760567" lon="13.478807"><ele>1084.0</ele><time>2026-03-24T10:29:30.96Z</time></trkpt><trkpt lat="42.2760037" lon="13.4790498"><ele>1081.0</ele><time>2026-03-24T10:29:31.96Z</time></trkpt><trkpt lat="42.2759365" lon="13.4792842"><ele>1078.0</ele><time>2026-03-24T10:29:32.961Z</time></trkpt><trkpt lat="42.2758629" lon="13.4795105"><ele>1073.6666666666665</ele><time>2026-03-24T10:29:33.96Z</time></trkpt><trkpt lat="42.2757825" lon="13.4797345"><ele>1069.3333333333333</ele><time>2026-03-24T10:29:34.96Z</time></trkpt><trkpt lat="42.2757037" lon="13.4799568"><ele>1065.0</ele><time>2026-03-24T10:29:35.961Z</time></trkpt><trkpt lat="42.2756335" lon="13.4801867"><ele>1074.6666666666667</ele><time>2026-03-24T10:29:36.96Z</time></trkpt><trkpt lat="42.2755713" lon="13.4804175"><ele>1084.3333333333335</ele><time>2026-03-24T10:29:37.961Z</time></trkpt><trkpt lat="42.2755049" lon="13.4806328"><ele>1094.0</ele><time>2026-03-24T10:29:38.961Z</time></trkpt><trkpt lat="42.2754415" lon="13.4808215"><ele>1094.0</ele><time>2026-03-24T10:29:39.96Z</time></trkpt><trkpt lat="42.2753891" lon="13.4809967"><ele>1094.0</ele><time>2026-03-24T10:29:40.96Z</time></trkpt><trkpt lat="42.2753409" lon="13.4811527"><ele>1094.0</ele><time>2026-03-24T10:29:41.96Z</time></trkpt><trkpt lat="42.2752959" lon="13.4812843"><ele>1094.0</ele><time>2026-03-24T10:29:42.961Z</time></trkpt><trkpt lat="42.2752413" lon="13.4813904"><ele>1094.0</ele><time>2026-03-24T10:29:43.96Z</time></trkpt><trkpt lat="42.275178" lon="13.4814604"><ele>1094.0</ele><time>2026-03-24T10:29:44.961Z</time></trkpt><trkpt lat="42.2751089" lon="13.4814509"><ele>1094.0</ele><time>2026-03-24T10:29:45.96Z</time></trkpt><trkpt lat="42.2750454" lon="13.4814301"><ele>1094.0</ele><time>2026-03-24T10:29:46.961Z</time></trkpt><trkpt lat="42.2749882" lon="13.4813743"><ele>1094.0</ele><time>2026-03-24T10:29:47.96Z</time></trkpt><trkpt lat="42.2749568" lon="13.4812879"><ele>1094.0</ele><time>2026-03-24T10:29:48.96Z</time></trkpt><trkpt lat="42.2749429" lon="13.4811774"><ele>1094.0</ele><time>2026-03-24T10:29:49.96Z</time></trkpt><trkpt lat="42.2749596" lon="13.4810396"><ele>1094.0</ele><time>2026-03-24T10:29:50.961Z</time></trkpt><trkpt lat="42.2749946" lon="13.4808913"><ele>1094.0</ele><time>2026-03-24T10:29:51.961Z</time></trkpt><trkpt lat="42.2750408" lon="13.4807252"><ele>1094.0</ele><time>2026-03-24T10:29:52.961Z</time></trkpt><trkpt lat="42.2750831" lon="13.480557"><ele>1094.0</ele><time>2026-03-24T10:29:53.96Z</time></trkpt><trkpt lat="42.2751222" lon="13.4803922"><ele>1094.25</ele><time>2026-03-24T10:29:54.961Z</time></trkpt><trkpt lat="42.2751596" lon="13.4802162"><ele>1094.5</ele><time>2026-03-24T10:29:55.961Z</time></trkpt><trkpt lat="42.275201" lon="13.4800371"><ele>1094.75</ele><time>2026-03-24T10:29:56.961Z</time></trkpt><trkpt lat="42.2752422" lon="13.4798518"><ele>1095.0</ele><time>2026-03-24T10:29:57.96Z</time></trkpt><trkpt lat="42.2752844" lon="13.4796628"><ele>1095.0</ele><time>2026-03-24T10:29:58.96Z</time></trkpt><trkpt lat="42.2753272" lon="13.4794699"><ele>1095.0</ele><time>2026-03-24T10:29:59.961Z</time></trkpt><trkpt lat="42.275368" lon="13.4792714"><ele>1095.0</ele><time>2026-03-24T10:30:00.961Z</time></trkpt><trkpt lat="42.275411" lon="13.47907"><ele>1095.0</ele><time>2026-03-24T10:30:01.961Z</time></trkpt><trkpt lat="42.2754618" lon="13.4788559"><ele>1095.0</ele><time>2026-03-24T10:30:02.961Z</time></trkpt><trkpt lat="42.2755107" lon="13.4786349"><ele>1095.0</ele><time>2026-03-24T10:30:03.96Z</time></trkpt><trkpt lat="42.2755558" lon="13.4784155"><ele>1095.0</ele><time>2026-03-24T10:30:04.96Z</time></trkpt><trkpt lat="42.2755945" lon="13.4782012"><ele>1095.0</ele><time>2026-03-24T10:30:05.961Z</time></trkpt><trkpt lat="42.2756358" lon="13.4780023"><ele>1095.0</ele><time>2026-03-24T10:30:06.96Z</time></trkpt><trkpt lat="42.2756644" lon="13.4778204"><ele>1093.25</ele><time>2026-03-24T10:30:07.96Z</time></trkpt><trkpt lat="42.2756898" lon="13.4776508"><ele>1091.5</ele><time>2026-03-24T10:30:08.96Z</time></trkpt><trkpt lat="42.2756975" lon="13.4774859"><ele>1089.75</ele><time>2026-03-24T10:30:09.96Z</time></trkpt><trkpt lat="42.2756762" lon="13.4773306"><ele>1088.0</ele><time>2026-03-24T10:30:10.961Z</time></trkpt><trkpt lat="42.2756246" lon="13.4771881"><ele>1091.0</ele><time>2026-03-24T10:30:11.96Z</time></trkpt><trkpt lat="42.2755586" lon="13.4770616"><ele>1094.0</ele><time>2026-03-24T10:30:12.96Z</time></trkpt><trkpt lat="42.2754698" lon="13.4769599"><ele>1097.0</ele><time>2026-03-24T10:30:13.96Z</time></trkpt><trkpt lat="42.2753643" lon="13.4768791"><ele>1100.0</ele><time>2026-03-24T10:30:14.961Z</time></trkpt><trkpt lat="42.2752486" lon="13.4768188"><ele>1100.0</ele><time>2026-03-24T10:30:15.96Z</time></trkpt><trkpt lat="42.2751225" lon="13.4767925"><ele>1100.0</ele><time>2026-03-24T10:30:16.961Z</time></trkpt><trkpt lat="42.2749937" lon="13.4768177"><ele>1100.0</ele><time>2026-03-24T10:30:17.96Z</time></trkpt><trkpt lat="42.2748696" lon="13.4768861"><ele>1100.0</ele><time>2026-03-24T10:30:18.96Z</time></trkpt><trkpt lat="42.2747568" lon="13.4769911"><ele>1103.75</ele><time>2026-03-24T10:30:19.96Z</time></trkpt><trkpt lat="42.2746684" lon="13.4771261"><ele>1107.5</ele><time>2026-03-24T10:30:20.96Z</time></trkpt><trkpt lat="42.2746062" lon="13.4772775"><ele>1111.25</ele><time>2026-03-24T10:30:21.96Z</time></trkpt><trkpt lat="42.2745575" lon="13.4774357"><ele>1115.0</ele><time>2026-03-24T10:30:22.96Z</time></trkpt><trkpt lat="42.2745151" lon="13.4775956"><ele>1115.0</ele><time>2026-03-24T10:30:23.96Z</time></trkpt><trkpt lat="42.2744699" lon="13.4777535"><ele>1115.0</ele><time>2026-03-24T10:30:24.96Z</time></trkpt><trkpt lat="42.2744268" lon="13.4779244"><ele>1115.0</ele><time>2026-03-24T10:30:25.96Z</time></trkpt><trkpt lat="42.2743929" lon="13.4781094"><ele>1115.0</ele><time>2026-03-24T10:30:26.96Z</time></trkpt><trkpt lat="42.2743758" lon="13.4783035"><ele>1116.0</ele><time>2026-03-24T10:30:27.961Z</time></trkpt><trkpt lat="42.2743829" lon="13.4785054"><ele>1117.0</ele><time>2026-03-24T10:30:28.96Z</time></trkpt><trkpt lat="42.2744023" lon="13.4787102"><ele>1118.0</ele><time>2026-03-24T10:30:29.96Z</time></trkpt><trkpt lat="42.2744208" lon="13.4789099"><ele>1118.0</ele><time>2026-03-24T10:30:30.96Z</time></trkpt><trkpt lat="42.2744373" lon="13.4791017"><ele>1118.0</ele><time>2026-03-24T10:30:31.96Z</time></trkpt><trkpt lat="42.2744503" lon="13.479295"><ele>1118.0</ele><time>2026-03-24T10:30:32.961Z</time></trkpt><trkpt lat="42.2744651" lon="13.4794896"><ele>1118.0</ele><time>2026-03-24T10:30:33.96Z</time></trkpt><trkpt lat="42.2744795" lon="13.4796874"><ele>1119.3333333333335</ele><time>2026-03-24T10:30:34.96Z</time></trkpt><trkpt lat="42.2745006" lon="13.479887"><ele>1120.6666666666667</ele><time>2026-03-24T10:30:35.961Z</time></trkpt><trkpt lat="42.2745182" lon="13.4800998"><ele>1122.0</ele><time>2026-03-24T10:30:36.96Z</time></trkpt><trkpt lat="42.2745353" lon="13.4803123"><ele>1122.3333333333333</ele><time>2026-03-24T10:30:37.961Z</time></trkpt><trkpt lat="42.2745393" lon="13.4805289"><ele>1122.6666666666665</ele><time>2026-03-24T10:30:38.961Z</time></trkpt><trkpt lat="42.2745329" lon="13.4807388"><ele>1123.0</ele><time>2026-03-24T10:30:39.96Z</time></trkpt><trkpt lat="42.2745103" lon="13.4809654"><ele>1123.0</ele><time>2026-03-24T10:30:40.961Z</time></trkpt><trkpt lat="42.2744823" lon="13.4811956"><ele>1123.0</ele><time>2026-03-24T10:30:41.96Z</time></trkpt><trkpt lat="42.2744497" lon="13.481427"><ele>1123.0</ele><time>2026-03-24T10:30:42.961Z</time></trkpt><trkpt lat="42.274416" lon="13.4816564"><ele>1123.0</ele><time>2026-03-24T10:30:43.96Z</time></trkpt><trkpt lat="42.2743717" lon="13.4818852"><ele>1123.0</ele><time>2026-03-24T10:30:44.96Z</time></trkpt><trkpt lat="42.2743208" lon="13.482102"><ele>1123.0</ele><time>2026-03-24T10:30:45.96Z</time></trkpt><trkpt lat="42.2742625" lon="13.482314"><ele>1121.6666666666665</ele><time>2026-03-24T10:30:46.961Z</time></trkpt><trkpt lat="42.2741942" lon="13.4825144"><ele>1120.3333333333333</ele><time>2026-03-24T10:30:47.96Z</time></trkpt><trkpt lat="42.2741353" lon="13.4827174"><ele>1119.0</ele><time>2026-03-24T10:30:48.96Z</time></trkpt><trkpt lat="42.2740879" lon="13.4829235"><ele>1117.3333333333333</ele><time>2026-03-24T10:30:49.961Z</time></trkpt><trkpt lat="42.2740535" lon="13.483135"><ele>1115.6666666666665</ele><time>2026-03-24T10:30:50.96Z</time></trkpt><trkpt lat="42.2740312" lon="13.483347"><ele>1114.0</ele><time>2026-03-24T10:30:51.961Z</time></trkpt><trkpt lat="42.2740112" lon="13.4835644"><ele>1114.0</ele><time>2026-03-24T10:30:52.96Z</time></trkpt><trkpt lat="42.273988" lon="13.4837787"><ele>1114.0</ele><time>2026-03-24T10:30:53.96Z</time></trkpt><trkpt lat="42.2739621" lon="13.4839946"><ele>1114.0</ele><time>2026-03-24T10:30:54.96Z</time></trkpt><trkpt lat="42.2739308" lon="13.4842078"><ele>1116.75</ele><time>2026-03-24T10:30:55.96Z</time></trkpt><trkpt lat="42.273898" lon="13.4844192"><ele>1119.5</ele><time>2026-03-24T10:30:56.96Z</time></trkpt><trkpt lat="42.2738636" lon="13.4846147"><ele>1122.25</ele><time>2026-03-24T10:30:57.96Z</time></trkpt><trkpt lat="42.2738289" lon="13.4847956"><ele>1125.0</ele><time>2026-03-24T10:30:58.96Z</time></trkpt><trkpt lat="42.2737951" lon="13.4849657"><ele>1127.0</ele><time>2026-03-24T10:30:59.96Z</time></trkpt><trkpt lat="42.273752" lon="13.4851198"><ele>1129.0</ele><time>2026-03-24T10:31:00.96Z</time></trkpt><trkpt lat="42.2736871" lon="13.4852457"><ele>1131.0</ele><time>2026-03-24T10:31:01.961Z</time></trkpt><trkpt lat="42.2735979" lon="13.4853359"><ele>1133.0</ele><time>2026-03-24T10:31:02.961Z</time></trkpt><trkpt lat="42.2734963" lon="13.4853687"><ele>1133.0</ele><time>2026-03-24T10:31:03.96Z</time></trkpt><trkpt lat="42.2733865" lon="13.4853558"><ele>1133.0</ele><time>2026-03-24T10:31:04.96Z</time></trkpt><trkpt lat="42.2732709" lon="13.485322"><ele>1133.0</ele><time>2026-03-24T10:31:05.96Z</time></trkpt><trkpt lat="42.2731519" lon="13.4852797"><ele>1133.0</ele><time>2026-03-24T10:31:06.96Z</time></trkpt><trkpt lat="42.2730362" lon="13.485232"><ele>1134.5</ele><time>2026-03-24T10:31:07.961Z</time></trkpt><trkpt lat="42.2729174" lon="13.4851826"><ele>1136.0</ele><time>2026-03-24T10:31:08.96Z</time></trkpt><trkpt lat="42.2728036" lon="13.4851331"><ele>1137.5</ele><time>2026-03-24T10:31:09.961Z</time></trkpt><trkpt lat="42.2726905" lon="13.4850855"><ele>1139.0</ele><time>2026-03-24T10:31:10.961Z</time></trkpt><trkpt lat="42.2725816" lon="13.4850429"><ele>1139.0</ele><time>2026-03-24T10:31:11.961Z</time></trkpt><trkpt lat="42.2724789" lon="13.485009"><ele>1139.0</ele><time>2026-03-24T10:31:12.961Z</time></trkpt><trkpt lat="42.2723861" lon="13.4849978"><ele>1139.0</ele><time>2026-03-24T10:31:13.961Z</time></trkpt><trkpt lat="42.2723021" lon="13.4850192"><ele>1139.0</ele><time>2026-03-24T10:31:14.96Z</time></trkpt><trkpt lat="42.2722269" lon="13.4850744"><ele>1139.0</ele><time>2026-03-24T10:31:15.961Z</time></trkpt><trkpt lat="42.2721716" lon="13.4851628"><ele>1143.6000000000001</ele><time>2026-03-24T10:31:16.96Z</time></trkpt><trkpt lat="42.2721321" lon="13.4852807"><ele>1148.2</ele><time>2026-03-24T10:31:17.961Z</time></trkpt><trkpt lat="42.2721188" lon="13.4854188"><ele>1152.8000000000002</ele><time>2026-03-24T10:31:18.96Z</time></trkpt><trkpt lat="42.272134" lon="13.485567"><ele>1157.4</ele><time>2026-03-24T10:31:19.961Z</time></trkpt><trkpt lat="42.2721785" lon="13.4857183"><ele>1162.0</ele><time>2026-03-24T10:31:20.96Z</time></trkpt><trkpt lat="42.2722408" lon="13.4858626"><ele>1160.3333333333333</ele><time>2026-03-24T10:31:21.96Z</time></trkpt><trkpt lat="42.2723212" lon="13.486012"><ele>1158.6666666666667</ele><time>2026-03-24T10:31:22.96Z</time></trkpt><trkpt lat="42.2724107" lon="13.4861886"><ele>1157.0</ele><time>2026-03-24T10:31:23.961Z</time></trkpt><trkpt lat="42.2725007" lon="13.4863675"><ele>1157.0</ele><time>2026-03-24T10:31:24.96Z</time></trkpt><trkpt lat="42.2725875" lon="13.4865372"><ele>1157.0</ele><time>2026-03-24T10:31:25.96Z</time></trkpt><trkpt lat="42.2726712" lon="13.4867098"><ele>1157.0</ele><time>2026-03-24T10:31:26.96Z</time></trkpt><trkpt lat="42.2727466" lon="13.4868778"><ele>1157.0</ele><time>2026-03-24T10:31:27.96Z</time></trkpt><trkpt lat="42.2728048" lon="13.4870367"><ele>1157.0</ele><time>2026-03-24T10:31:28.96Z</time></trkpt><trkpt lat="42.2728409" lon="13.4871835"><ele>1157.0</ele><time>2026-03-24T10:31:29.96Z</time></trkpt><trkpt lat="42.2728462" lon="13.487344"><ele>1157.0</ele><time>2026-03-24T10:31:30.961Z</time></trkpt><trkpt lat="42.2728298" lon="13.4875084"><ele>1158.75</ele><time>2026-03-24T10:31:31.961Z</time></trkpt><trkpt lat="42.2728095" lon="13.4876744"><ele>1160.5</ele><time>2026-03-24T10:31:32.96Z</time></trkpt><trkpt lat="42.2727864" lon="13.4878504"><ele>1162.25</ele><time>2026-03-24T10:31:33.961Z</time></trkpt><trkpt lat="42.2727662" lon="13.4880297"><ele>1164.0</ele><time>2026-03-24T10:31:34.96Z</time></trkpt><trkpt lat="42.2727454" lon="13.4882104"><ele>1164.25</ele><time>2026-03-24T10:31:35.96Z</time></trkpt><trkpt lat="42.2727188" lon="13.4883954"><ele>1164.5</ele><time>2026-03-24T10:31:36.96Z</time></trkpt><trkpt lat="42.2726934" lon="13.4885853"><ele>1164.75</ele><time>2026-03-24T10:31:37.96Z</time></trkpt><trkpt lat="42.27267" lon="13.488779"><ele>1165.0</ele><time>2026-03-24T10:31:38.96Z</time></trkpt><trkpt lat="42.2726439" lon="13.4889729"><ele>1165.0</ele><time>2026-03-24T10:31:39.96Z</time></trkpt><trkpt lat="42.2726073" lon="13.4891605"><ele>1165.0</ele><time>2026-03-24T10:31:40.96Z</time></trkpt><trkpt lat="42.2725566" lon="13.4893356"><ele>1165.0</ele><time>2026-03-24T10:31:41.961Z</time></trkpt><trkpt lat="42.2724874" lon="13.489488"><ele>1165.0</ele><time>2026-03-24T10:31:42.96Z</time></trkpt><trkpt lat="42.2723915" lon="13.489615"><ele>1165.25</ele><time>2026-03-24T10:31:43.96Z</time></trkpt><trkpt lat="42.2722808" lon="13.4897216"><ele>1165.5</ele><time>2026-03-24T10:31:44.96Z</time></trkpt><trkpt lat="42.2721637" lon="13.4898231"><ele>1165.75</ele><time>2026-03-24T10:31:45.961Z</time></trkpt><trkpt lat="42.2720477" lon="13.4899291"><ele>1166.0</ele><time>2026-03-24T10:31:46.96Z</time></trkpt><trkpt lat="42.2719282" lon="13.4900335"><ele>1167.0</ele><time>2026-03-24T10:31:47.96Z</time></trkpt><trkpt lat="42.2718083" lon="13.4901427"><ele>1168.0</ele><time>2026-03-24T10:31:48.961Z</time></trkpt><trkpt lat="42.2716951" lon="13.4902544"><ele>1169.0</ele><time>2026-03-24T10:31:49.96Z</time></trkpt><trkpt lat="42.2715952" lon="13.4903667"><ele>1170.0</ele><time>2026-03-24T10:31:50.96Z</time></trkpt><trkpt lat="42.2715178" lon="13.4904942"><ele>1170.0</ele><time>2026-03-24T10:31:51.961Z</time></trkpt><trkpt lat="42.2714617" lon="13.4906412"><ele>1170.0</ele><time>2026-03-24T10:31:52.96Z</time></trkpt><trkpt lat="42.2714285" lon="13.4908"><ele>1170.0</ele><time>2026-03-24T10:31:53.96Z</time></trkpt><trkpt lat="42.2714215" lon="13.4909809"><ele>1170.0</ele><time>2026-03-24T10:31:54.961Z</time></trkpt><trkpt lat="42.2714329" lon="13.4911767"><ele>1170.6666666666667</ele><time>2026-03-24T10:31:55.961Z</time></trkpt><trkpt lat="42.2714515" lon="13.491385"><ele>1171.3333333333335</ele><time>2026-03-24T10:31:56.96Z</time></trkpt><trkpt lat="42.2714755" lon="13.4916075"><ele>1172.0</ele><time>2026-03-24T10:31:57.961Z</time></trkpt><trkpt lat="42.2714968" lon="13.4918347"><ele>1172.0</ele><time>2026-03-24T10:31:58.961Z</time></trkpt><trkpt lat="42.2715184" lon="13.4920639"><ele>1172.0</ele><time>2026-03-24T10:31:59.96Z</time></trkpt><trkpt lat="42.2715404" lon="13.4922945"><ele>1172.0</ele><time>2026-03-24T10:32:00.96Z</time></trkpt><trkpt lat="42.2715644" lon="13.4925154"><ele>1171.6666666666667</ele><time>2026-03-24T10:32:01.96Z</time></trkpt><trkpt lat="42.2715858" lon="13.4927403"><ele>1171.3333333333333</ele><time>2026-03-24T10:32:02.961Z</time></trkpt><trkpt lat="42.2716028" lon="13.4929622"><ele>1171.0</ele><time>2026-03-24T10:32:03.96Z</time></trkpt><trkpt lat="42.2716177" lon="13.4931814"><ele>1171.0</ele><time>2026-03-24T10:32:04.96Z</time></trkpt><trkpt lat="42.2716302" lon="13.4933909"><ele>1171.0</ele><time>2026-03-24T10:32:05.961Z</time></trkpt><trkpt lat="42.2716401" lon="13.493607"><ele>1171.0</ele><time>2026-03-24T10:32:06.96Z</time></trkpt><trkpt lat="42.271638" lon="13.4938226"><ele>1170.6666666666665</ele><time>2026-03-24T10:32:07.96Z</time></trkpt><trkpt lat="42.2716272" lon="13.4940418"><ele>1170.3333333333333</ele><time>2026-03-24T10:32:08.96Z</time></trkpt><trkpt lat="42.2716078" lon="13.494265"><ele>1170.0</ele><time>2026-03-24T10:32:09.96Z</time></trkpt><trkpt lat="42.2715777" lon="13.4944898"><ele>1171.0</ele><time>2026-03-24T10:32:10.96Z</time></trkpt><trkpt lat="42.2715441" lon="13.4947219"><ele>1172.0</ele><time>2026-03-24T10:32:11.96Z</time></trkpt><trkpt lat="42.2715082" lon="13.494962"><ele>1173.0</ele><time>2026-03-24T10:32:12.96Z</time></trkpt><trkpt lat="42.2714724" lon="13.495208"><ele>1171.6666666666667</ele><time>2026-03-24T10:32:13.961Z</time></trkpt><trkpt lat="42.2714348" lon="13.4954568"><ele>1170.3333333333335</ele><time>2026-03-24T10:32:14.961Z</time></trkpt><trkpt lat="42.2714012" lon="13.4957044"><ele>1169.0</ele><time>2026-03-24T10:32:15.96Z</time></trkpt><trkpt lat="42.2713709" lon="13.4959317"><ele>1169.0</ele><time>2026-03-24T10:32:16.96Z</time></trkpt><trkpt lat="42.2713377" lon="13.4961609"><ele>1169.0</ele><time>2026-03-24T10:32:17.96Z</time></trkpt><trkpt lat="42.2713046" lon="13.4963493"><ele>1169.0</ele><time>2026-03-24T10:32:18.96Z</time></trkpt><trkpt lat="42.2712616" lon="13.4965269"><ele>1169.5</ele><time>2026-03-24T10:32:19.96Z</time></trkpt><trkpt lat="42.2711945" lon="13.4966814"><ele>1170.0</ele><time>2026-03-24T10:32:20.96Z</time></trkpt><trkpt lat="42.2710985" lon="13.496786"><ele>1170.5</ele><time>2026-03-24T10:32:21.961Z</time></trkpt><trkpt lat="42.2709936" lon="13.4968567"><ele>1171.0</ele><time>2026-03-24T10:32:22.961Z</time></trkpt><trkpt lat="42.2708818" lon="13.4969001"><ele>1171.0</ele><time>2026-03-24T10:32:23.96Z</time></trkpt><trkpt lat="42.2707684" lon="13.4969396"><ele>1171.0</ele><time>2026-03-24T10:32:24.96Z</time></trkpt><trkpt lat="42.270648" lon="13.496981"><ele>1171.0</ele><time>2026-03-24T10:32:25.961Z</time></trkpt><trkpt lat="42.2705262" lon="13.4970243"><ele>1171.0</ele><time>2026-03-24T10:32:26.96Z</time></trkpt><trkpt lat="42.270398" lon="13.4970617"><ele>1171.0</ele><time>2026-03-24T10:32:27.96Z</time></trkpt><trkpt lat="42.2702723" lon="13.4970979"><ele>1171.0</ele><time>2026-03-24T10:32:28.96Z</time></trkpt><trkpt lat="42.27015" lon="13.4971319"><ele>1171.0</ele><time>2026-03-24T10:32:29.961Z</time></trkpt><trkpt lat="42.2700304" lon="13.4971561"><ele>1171.0</ele><time>2026-03-24T10:32:30.961Z</time></trkpt><trkpt lat="42.2699179" lon="13.4971543"><ele>1171.0</ele><time>2026-03-24T10:32:31.96Z</time></trkpt><trkpt lat="42.2698075" lon="13.4971229"><ele>1171.0</ele><time>2026-03-24T10:32:32.96Z</time></trkpt><trkpt lat="42.2697039" lon="13.4970601"><ele>1171.0</ele><time>2026-03-24T10:32:33.961Z</time></trkpt><trkpt lat="42.2696032" lon="13.4969857"><ele>1171.0</ele><time>2026-03-24T10:32:34.96Z</time></trkpt><trkpt lat="42.2694948" lon="13.4969059"><ele>1174.25</ele><time>2026-03-24T10:32:35.961Z</time></trkpt><trkpt lat="42.2693853" lon="13.496822"><ele>1177.5</ele><time>2026-03-24T10:32:36.961Z</time></trkpt><trkpt lat="42.2692752" lon="13.4967437"><ele>1180.75</ele><time>2026-03-24T10:32:37.96Z</time></trkpt><trkpt lat="42.2691704" lon="13.4966822"><ele>1184.0</ele><time>2026-03-24T10:32:38.961Z</time></trkpt><trkpt lat="42.2690704" lon="13.4966492"><ele>1184.0</ele><time>2026-03-24T10:32:39.961Z</time></trkpt><trkpt lat="42.2689729" lon="13.4966506"><ele>1184.0</ele><time>2026-03-24T10:32:40.96Z</time></trkpt><trkpt lat="42.2688811" lon="13.4966911"><ele>1184.0</ele><time>2026-03-24T10:32:41.961Z</time></trkpt><trkpt lat="42.2687889" lon="13.4967568"><ele>1184.0</ele><time>2026-03-24T10:32:42.96Z</time></trkpt><trkpt lat="42.2687086" lon="13.4968491"><ele>1184.0</ele><time>2026-03-24T10:32:43.961Z</time></trkpt><trkpt lat="42.2686364" lon="13.4969628"><ele>1187.75</ele><time>2026-03-24T10:32:44.96Z</time></trkpt><trkpt lat="42.2685726" lon="13.4970987"><ele>1191.5</ele><time>2026-03-24T10:32:45.96Z</time></trkpt><trkpt lat="42.2684961" lon="13.4972419"><ele>1195.25</ele><time>2026-03-24T10:32:46.96Z</time></trkpt><trkpt lat="42.2684201" lon="13.4973865"><ele>1199.0</ele><time>2026-03-24T10:32:47.96Z</time></trkpt><trkpt lat="42.2683407" lon="13.4975358"><ele>1199.0</ele><time>2026-03-24T10:32:48.961Z</time></trkpt><trkpt lat="42.2682611" lon="13.4977053"><ele>1199.0</ele><time>2026-03-24T10:32:49.96Z</time></trkpt><trkpt lat="42.2681964" lon="13.4978971"><ele>1199.0</ele><time>2026-03-24T10:32:50.96Z</time></trkpt><trkpt lat="42.2681466" lon="13.4981014"><ele>1200.6666666666667</ele><time>2026-03-24T10:32:51.96Z</time></trkpt><trkpt lat="42.2681009" lon="13.4983142"><ele>1202.3333333333333</ele><time>2026-03-24T10:32:52.96Z</time></trkpt><trkpt lat="42.2680648" lon="13.4985313"><ele>1204.0</ele><time>2026-03-24T10:32:53.961Z</time></trkpt><trkpt lat="42.2680366" lon="13.4987521"><ele>1207.6666666666665</ele><time>2026-03-24T10:32:54.96Z</time></trkpt><trkpt lat="42.2680302" lon="13.498978"><ele>1211.3333333333333</ele><time>2026-03-24T10:32:55.961Z</time></trkpt><trkpt lat="42.268045" lon="13.4992089"><ele>1215.0</ele><time>2026-03-24T10:32:56.96Z</time></trkpt><trkpt lat="42.2680938" lon="13.4994319"><ele>1207.6666666666667</ele><time>2026-03-24T10:32:57.961Z</time></trkpt><trkpt lat="42.2681575" lon="13.4996533"><ele>1200.3333333333335</ele><time>2026-03-24T10:32:58.96Z</time></trkpt><trkpt lat="42.2682292" lon="13.4998809"><ele>1193.0</ele><time>2026-03-24T10:32:59.96Z</time></trkpt><trkpt lat="42.2682988" lon="13.5001007"><ele>1193.0</ele><time>2026-03-24T10:33:00.961Z</time></trkpt><trkpt lat="42.2683636" lon="13.5003133"><ele>1193.0</ele><time>2026-03-24T10:33:01.96Z</time></trkpt><trkpt lat="42.2684187" lon="13.5005205"><ele>1193.0</ele><time>2026-03-24T10:33:02.961Z</time></trkpt><trkpt lat="42.2684478" lon="13.500728"><ele>1194.0</ele><time>2026-03-24T10:33:03.96Z</time></trkpt><trkpt lat="42.2684578" lon="13.5009432"><ele>1195.0</ele><time>2026-03-24T10:33:04.961Z</time></trkpt><trkpt lat="42.268449" lon="13.5011554"><ele>1196.0</ele><time>2026-03-24T10:33:05.96Z</time></trkpt><trkpt lat="42.2684364" lon="13.5013634"><ele>1196.0</ele><time>2026-03-24T10:33:06.96Z</time></trkpt><trkpt lat="42.268415" lon="13.5015742"><ele>1196.0</ele><time>2026-03-24T10:33:07.96Z</time></trkpt><trkpt lat="42.2683733" lon="13.5017738"><ele>1196.0</ele><time>2026-03-24T10:33:08.961Z</time></trkpt><trkpt lat="42.2683099" lon="13.5019746"><ele>1192.6666666666667</ele><time>2026-03-24T10:33:09.96Z</time></trkpt><trkpt lat="42.2682369" lon="13.5021737"><ele>1189.3333333333333</ele><time>2026-03-24T10:33:10.961Z</time></trkpt><trkpt lat="42.2681604" lon="13.5023821"><ele>1186.0</ele><time>2026-03-24T10:33:11.961Z</time></trkpt><trkpt lat="42.2680804" lon="13.502603"><ele>1193.6666666666665</ele><time>2026-03-24T10:33:12.96Z</time></trkpt><trkpt lat="42.2679942" lon="13.5028267"><ele>1201.3333333333333</ele><time>2026-03-24T10:33:13.961Z</time></trkpt><trkpt lat="42.2678984" lon="13.5030457"><ele>1209.0</ele><time>2026-03-24T10:33:14.961Z</time></trkpt><trkpt lat="42.2678007" lon="13.5032688"><ele>1209.0</ele><time>2026-03-24T10:33:15.96Z</time></trkpt><trkpt lat="42.2676943" lon="13.503491"><ele>1209.0</ele><time>2026-03-24T10:33:16.961Z</time></trkpt><trkpt lat="42.2675829" lon="13.5037061"><ele>1209.0</ele><time>2026-03-24T10:33:17.961Z</time></trkpt><trkpt lat="42.2674816" lon="13.5039246"><ele>1210.6666666666667</ele><time>2026-03-24T10:33:18.96Z</time></trkpt><trkpt lat="42.2673826" lon="13.5041264"><ele>1212.3333333333335</ele><time>2026-03-24T10:33:19.96Z</time></trkpt><trkpt lat="42.267291" lon="13.5043237"><ele>1214.0</ele><time>2026-03-24T10:33:20.96Z</time></trkpt><trkpt lat="42.2671936" lon="13.5045103"><ele>1209.3333333333335</ele><time>2026-03-24T10:33:21.96Z</time></trkpt><trkpt lat="42.2670927" lon="13.5046795"><ele>1204.6666666666667</ele><time>2026-03-24T10:33:22.96Z</time></trkpt><trkpt lat="42.2669799" lon="13.5048189"><ele>1200.0</ele><time>2026-03-24T10:33:23.96Z</time></trkpt><trkpt lat="42.2668524" lon="13.5049294"><ele>1200.0</ele><time>2026-03-24T10:33:24.96Z</time></trkpt><trkpt lat="42.2667189" lon="13.5050231"><ele>1200.0</ele><time>2026-03-24T10:33:25.961Z</time></trkpt><trkpt lat="42.2665858" lon="13.5051125"><ele>1200.0</ele><time>2026-03-24T10:33:26.96Z</time></trkpt><trkpt lat="42.2664489" lon="13.5051971"><ele>1199.5</ele><time>2026-03-24T10:33:27.961Z</time></trkpt><trkpt lat="42.2663153" lon="13.5052793"><ele>1199.0</ele><time>2026-03-24T10:33:28.961Z</time></trkpt><trkpt lat="42.2661858" lon="13.5053621"><ele>1198.5</ele><time>2026-03-24T10:33:29.96Z</time></trkpt><trkpt lat="42.2660576" lon="13.5054391"><ele>1198.0</ele><time>2026-03-24T10:33:30.961Z</time></trkpt><trkpt lat="42.2659338" lon="13.5055164"><ele>1198.0</ele><time>2026-03-24T10:33:31.96Z</time></trkpt><trkpt lat="42.2658206" lon="13.5055807"><ele>1198.0</ele><time>2026-03-24T10:33:32.96Z</time></trkpt><trkpt lat="42.2657037" lon="13.5056126"><ele>1198.0</ele><time>2026-03-24T10:33:33.961Z</time></trkpt><trkpt lat="42.2655963" lon="13.5056006"><ele>1198.0</ele><time>2026-03-24T10:33:34.961Z</time></trkpt><trkpt lat="42.2654972" lon="13.5055518"><ele>1198.5</ele><time>2026-03-24T10:33:35.96Z</time></trkpt><trkpt lat="42.2654024" lon="13.5054778"><ele>1199.0</ele><time>2026-03-24T10:33:36.96Z</time></trkpt><trkpt lat="42.2653111" lon="13.5053916"><ele>1199.5</ele><time>2026-03-24T10:33:37.96Z</time></trkpt><trkpt lat="42.2652152" lon="13.5053031"><ele>1200.0</ele><time>2026-03-24T10:33:38.96Z</time></trkpt><trkpt lat="42.2651152" lon="13.5052127"><ele>1202.4</ele><time>2026-03-24T10:33:39.961Z</time></trkpt><trkpt lat="42.2650142" lon="13.5051283"><ele>1204.8</ele><time>2026-03-24T10:33:40.961Z</time></trkpt><trkpt lat="42.2649119" lon="13.5050714"><ele>1207.2</ele><time>2026-03-24T10:33:41.96Z</time></trkpt><trkpt lat="42.264808" lon="13.5050469"><ele>1209.6</ele><time>2026-03-24T10:33:42.961Z</time></trkpt><trkpt lat="42.264706" lon="13.5050526"><ele>1212.0</ele><time>2026-03-24T10:33:43.96Z</time></trkpt><trkpt lat="42.2646193" lon="13.5051091"><ele>1215.25</ele><time>2026-03-24T10:33:44.961Z</time></trkpt><trkpt lat="42.2645421" lon="13.505203"><ele>1218.5</ele><time>2026-03-24T10:33:45.96Z</time></trkpt><trkpt lat="42.2644776" lon="13.5053309"><ele>1221.75</ele><time>2026-03-24T10:33:46.96Z</time></trkpt><trkpt lat="42.2644215" lon="13.5054809"><ele>1225.0</ele><time>2026-03-24T10:33:47.96Z</time></trkpt><trkpt lat="42.2643734" lon="13.5056514"><ele>1225.0</ele><time>2026-03-24T10:33:48.96Z</time></trkpt><trkpt lat="42.2643217" lon="13.5058299"><ele>1225.0</ele><time>2026-03-24T10:33:49.961Z</time></trkpt><trkpt lat="42.2642641" lon="13.5060156"><ele>1225.0</ele><time>2026-03-24T10:33:50.96Z</time></trkpt><trkpt lat="42.2642044" lon="13.5062016"><ele>1225.0</ele><time>2026-03-24T10:33:51.96Z</time></trkpt><trkpt lat="42.264144" lon="13.5063919"><ele>1221.6666666666665</ele><time>2026-03-24T10:33:52.961Z</time></trkpt><trkpt lat="42.264087" lon="13.5065832"><ele>1218.3333333333333</ele><time>2026-03-24T10:33:53.96Z</time></trkpt><trkpt lat="42.2640307" lon="13.5067779"><ele>1215.0</ele><time>2026-03-24T10:33:54.96Z</time></trkpt><trkpt lat="42.2639745" lon="13.5069753"><ele>1220.6666666666667</ele><time>2026-03-24T10:33:55.96Z</time></trkpt><trkpt lat="42.2639214" lon="13.5071659"><ele>1226.3333333333335</ele><time>2026-03-24T10:33:56.96Z</time></trkpt><trkpt lat="42.2638666" lon="13.5073602"><ele>1232.0</ele><time>2026-03-24T10:33:57.96Z</time></trkpt><trkpt lat="42.2638212" lon="13.50756"><ele>1232.0</ele><time>2026-03-24T10:33:58.96Z</time></trkpt><trkpt lat="42.2637966" lon="13.5077595"><ele>1232.0</ele><time>2026-03-24T10:33:59.961Z</time></trkpt><trkpt lat="42.2637703" lon="13.5079508"><ele>1232.0</ele><time>2026-03-24T10:34:00.96Z</time></trkpt><trkpt lat="42.2637225" lon="13.5081373"><ele>1232.0</ele><time>2026-03-24T10:34:01.961Z</time></trkpt><trkpt lat="42.2636572" lon="13.5083176"><ele>1229.6666666666667</ele><time>2026-03-24T10:34:02.961Z</time></trkpt><trkpt lat="42.2635582" lon="13.5084785"><ele>1227.3333333333333</ele><time>2026-03-24T10:34:03.96Z</time></trkpt><trkpt lat="42.2634517" lon="13.5086241"><ele>1225.0</ele><time>2026-03-24T10:34:04.961Z</time></trkpt><trkpt lat="42.2633391" lon="13.5087579"><ele>1225.0</ele><time>2026-03-24T10:34:05.96Z</time></trkpt><trkpt lat="42.2632153" lon="13.5088737"><ele>1225.0</ele><time>2026-03-24T10:34:06.961Z</time></trkpt><trkpt lat="42.2630885" lon="13.5089849"><ele>1225.0</ele><time>2026-03-24T10:34:07.961Z</time></trkpt><trkpt lat="42.2629606" lon="13.5090875"><ele>1224.3333333333333</ele><time>2026-03-24T10:34:08.96Z</time></trkpt><trkpt lat="42.2628193" lon="13.509173"><ele>1223.6666666666667</ele><time>2026-03-24T10:34:09.96Z</time></trkpt><trkpt lat="42.2626646" lon="13.5092534"><ele>1223.0</ele><time>2026-03-24T10:34:10.96Z</time></trkpt><trkpt lat="42.2625103" lon="13.5093376"><ele>1223.0</ele><time>2026-03-24T10:34:11.96Z</time></trkpt><trkpt lat="42.2623471" lon="13.5094259"><ele>1223.0</ele><time>2026-03-24T10:34:12.96Z</time></trkpt><trkpt lat="42.2621782" lon="13.509513"><ele>1223.0</ele><time>2026-03-24T10:34:13.96Z</time></trkpt><trkpt lat="42.2620091" lon="13.5096079"><ele>1223.3333333333335</ele><time>2026-03-24T10:34:14.961Z</time></trkpt><trkpt lat="42.2618332" lon="13.5097053"><ele>1223.6666666666667</ele><time>2026-03-24T10:34:15.96Z</time></trkpt><trkpt lat="42.2616629" lon="13.5098013"><ele>1224.0</ele><time>2026-03-24T10:34:16.961Z</time></trkpt><trkpt lat="42.2615009" lon="13.509891"><ele>1222.6666666666667</ele><time>2026-03-24T10:34:17.96Z</time></trkpt><trkpt lat="42.2613459" lon="13.5099764"><ele>1221.3333333333335</ele><time>2026-03-24T10:34:18.96Z</time></trkpt><trkpt lat="42.2612018" lon="13.5100557"><ele>1220.0</ele><time>2026-03-24T10:34:19.96Z</time></trkpt><trkpt lat="42.2610609" lon="13.510128"><ele>1220.0</ele><time>2026-03-24T10:34:20.96Z</time></trkpt><trkpt lat="42.2609129" lon="13.5101983"><ele>1220.0</ele><time>2026-03-24T10:34:21.961Z</time></trkpt><trkpt lat="42.2607575" lon="13.5102461"><ele>1220.0</ele><time>2026-03-24T10:34:22.961Z</time></trkpt><trkpt lat="42.2605918" lon="13.5102741"><ele>1221.6666666666667</ele><time>2026-03-24T10:34:23.96Z</time></trkpt><trkpt lat="42.2604224" lon="13.5102775"><ele>1223.3333333333333</ele><time>2026-03-24T10:34:24.961Z</time></trkpt><trkpt lat="42.2602483" lon="13.5102552"><ele>1225.0</ele><time>2026-03-24T10:34:25.96Z</time></trkpt><trkpt lat="42.2600666" lon="13.5102088"><ele>1225.0</ele><time>2026-03-24T10:34:26.961Z</time></trkpt><trkpt lat="42.2598761" lon="13.5101527"><ele>1225.0</ele><time>2026-03-24T10:34:27.961Z</time></trkpt><trkpt lat="42.2596819" lon="13.5100893"><ele>1225.0</ele><time>2026-03-24T10:34:28.96Z</time></trkpt><trkpt lat="42.2594824" lon="13.5100233"><ele>1225.0</ele><time>2026-03-24T10:34:29.961Z</time></trkpt><trkpt lat="42.259283" lon="13.5099576"><ele>1225.0</ele><time>2026-03-24T10:34:30.96Z</time></trkpt><trkpt lat="42.259092" lon="13.5098946"><ele>1225.0</ele><time>2026-03-24T10:34:31.96Z</time></trkpt><trkpt lat="42.2589126" lon="13.5098332"><ele>1225.3333333333333</ele><time>2026-03-24T10:34:32.96Z</time></trkpt><trkpt lat="42.2587322" lon="13.5097728"><ele>1225.6666666666667</ele><time>2026-03-24T10:34:33.96Z</time></trkpt><trkpt lat="42.2585535" lon="13.5097148"><ele>1226.0</ele><time>2026-03-24T10:34:34.96Z</time></trkpt><trkpt lat="42.2583783" lon="13.5096539"><ele>1226.0</ele><time>2026-03-24T10:34:35.96Z</time></trkpt><trkpt lat="42.2582009" lon="13.5095932"><ele>1226.0</ele><time>2026-03-24T10:34:36.96Z</time></trkpt><trkpt lat="42.2580267" lon="13.5095369"><ele>1226.0</ele><time>2026-03-24T10:34:37.96Z</time></trkpt><trkpt lat="42.257865" lon="13.5094705"><ele>1225.6666666666667</ele><time>2026-03-24T10:34:38.961Z</time></trkpt><trkpt lat="42.257709" lon="13.5093952"><ele>1225.3333333333333</ele><time>2026-03-24T10:34:39.96Z</time></trkpt><trkpt lat="42.2575663" lon="13.509311"><ele>1225.0</ele><time>2026-03-24T10:34:40.96Z</time></trkpt><trkpt lat="42.2574319" lon="13.5092113"><ele>1225.0</ele><time>2026-03-24T10:34:41.96Z</time></trkpt><trkpt lat="42.2573054" lon="13.5090985"><ele>1225.0</ele><time>2026-03-24T10:34:42.96Z</time></trkpt><trkpt lat="42.257181" lon="13.5089878"><ele>1225.0</ele><time>2026-03-24T10:34:43.96Z</time></trkpt><trkpt lat="42.2570529" lon="13.5088747"><ele>1226.3333333333333</ele><time>2026-03-24T10:34:44.96Z</time></trkpt><trkpt lat="42.2569224" lon="13.5087635"><ele>1227.6666666666667</ele><time>2026-03-24T10:34:45.96Z</time></trkpt><trkpt lat="42.2567898" lon="13.508649"><ele>1229.0</ele><time>2026-03-24T10:34:46.96Z</time></trkpt><trkpt lat="42.2566546" lon="13.5085378"><ele>1229.0</ele><time>2026-03-24T10:34:47.961Z</time></trkpt><trkpt lat="42.256512" lon="13.5084266"><ele>1229.0</ele><time>2026-03-24T10:34:48.96Z</time></trkpt><trkpt lat="42.2563672" lon="13.5083195"><ele>1229.0</ele><time>2026-03-24T10:34:49.96Z</time></trkpt><trkpt lat="42.2562141" lon="13.5082137"><ele>1230.0</ele><time>2026-03-24T10:34:50.96Z</time></trkpt><trkpt lat="42.2560553" lon="13.5081173"><ele>1231.0</ele><time>2026-03-24T10:34:51.961Z</time></trkpt><trkpt lat="42.255897" lon="13.5080346"><ele>1232.0</ele><time>2026-03-24T10:34:52.96Z</time></trkpt><trkpt lat="42.2557321" lon="13.5079544"><ele>1232.6666666666667</ele><time>2026-03-24T10:34:53.96Z</time></trkpt><trkpt lat="42.2555701" lon="13.5078845"><ele>1233.3333333333333</ele><time>2026-03-24T10:34:54.961Z</time></trkpt><trkpt lat="42.2554093" lon="13.5078135"><ele>1234.0</ele><time>2026-03-24T10:34:55.961Z</time></trkpt><trkpt lat="42.2552563" lon="13.5077506"><ele>1234.0</ele><time>2026-03-24T10:34:56.961Z</time></trkpt><trkpt lat="42.2551012" lon="13.5076948"><ele>1234.0</ele><time>2026-03-24T10:34:57.96Z</time></trkpt><trkpt lat="42.2549454" lon="13.5076491"><ele>1234.0</ele><time>2026-03-24T10:34:58.961Z</time></trkpt><trkpt lat="42.2547904" lon="13.5076217"><ele>1239.6666666666665</ele><time>2026-03-24T10:34:59.961Z</time></trkpt><trkpt lat="42.2546321" lon="13.5076225"><ele>1245.3333333333333</ele><time>2026-03-24T10:35:00.96Z</time></trkpt><trkpt lat="42.2544772" lon="13.5076646"><ele>1251.0</ele><time>2026-03-24T10:35:01.96Z</time></trkpt><trkpt lat="42.2543282" lon="13.5077444"><ele>1251.0</ele><time>2026-03-24T10:35:02.96Z</time></trkpt><trkpt lat="42.2541826" lon="13.5078444"><ele>1251.0</ele><time>2026-03-24T10:35:03.961Z</time></trkpt><trkpt lat="42.2540443" lon="13.5079594"><ele>1251.0</ele><time>2026-03-24T10:35:04.96Z</time></trkpt><trkpt lat="42.2539078" lon="13.5080864"><ele>1253.3333333333333</ele><time>2026-03-24T10:35:05.96Z</time></trkpt><trkpt lat="42.2537732" lon="13.508229"><ele>1255.6666666666665</ele><time>2026-03-24T10:35:06.96Z</time></trkpt><trkpt lat="42.2536378" lon="13.5083768"><ele>1258.0</ele><time>2026-03-24T10:35:07.961Z</time></trkpt><trkpt lat="42.2535025" lon="13.5085176"><ele>1258.0</ele><time>2026-03-24T10:35:08.96Z</time></trkpt><trkpt lat="42.2533678" lon="13.5086555"><ele>1258.0</ele><time>2026-03-24T10:35:09.961Z</time></trkpt><trkpt lat="42.2532362" lon="13.5087926"><ele>1258.0</ele><time>2026-03-24T10:35:10.961Z</time></trkpt><trkpt lat="42.2531138" lon="13.5089411"><ele>1267.3333333333333</ele><time>2026-03-24T10:35:11.96Z</time></trkpt><trkpt lat="42.2529995" lon="13.5090998"><ele>1276.6666666666667</ele><time>2026-03-24T10:35:12.961Z</time></trkpt><trkpt lat="42.2529026" lon="13.5092701"><ele>1286.0</ele><time>2026-03-24T10:35:13.961Z</time></trkpt><trkpt lat="42.2528123" lon="13.5094528"><ele>1280.6666666666667</ele><time>2026-03-24T10:35:14.961Z</time></trkpt><trkpt lat="42.2527243" lon="13.5096352"><ele>1275.3333333333333</ele><time>2026-03-24T10:35:15.96Z</time></trkpt><trkpt lat="42.2526408" lon="13.5098133"><ele>1270.0</ele><time>2026-03-24T10:35:16.961Z</time></trkpt><trkpt lat="42.2525614" lon="13.5099783"><ele>1270.0</ele><time>2026-03-24T10:35:17.96Z</time></trkpt><trkpt lat="42.2524846" lon="13.5101401"><ele>1270.0</ele><time>2026-03-24T10:35:18.961Z</time></trkpt><trkpt lat="42.2524156" lon="13.5103189"><ele>1270.0</ele><time>2026-03-24T10:35:19.961Z</time></trkpt><trkpt lat="42.252361" lon="13.5105084"><ele>1270.0</ele><time>2026-03-24T10:35:20.96Z</time></trkpt><trkpt lat="42.2523212" lon="13.5107033"><ele>1266.0</ele><time>2026-03-24T10:35:21.96Z</time></trkpt><trkpt lat="42.2522933" lon="13.5109124"><ele>1262.0</ele><time>2026-03-24T10:35:22.96Z</time></trkpt><trkpt lat="42.2522718" lon="13.5111208"><ele>1258.0</ele><time>2026-03-24T10:35:23.96Z</time></trkpt><trkpt lat="42.2522449" lon="13.5113354"><ele>1272.6666666666665</ele><time>2026-03-24T10:35:24.961Z</time></trkpt><trkpt lat="42.2522102" lon="13.5115532"><ele>1287.3333333333333</ele><time>2026-03-24T10:35:25.961Z</time></trkpt><trkpt lat="42.2521692" lon="13.511776"><ele>1302.0</ele><time>2026-03-24T10:35:26.96Z</time></trkpt><trkpt lat="42.2521282" lon="13.5119939"><ele>1298.3333333333333</ele><time>2026-03-24T10:35:27.961Z</time></trkpt><trkpt lat="42.2520818" lon="13.5122122"><ele>1294.6666666666665</ele><time>2026-03-24T10:35:28.961Z</time></trkpt><trkpt lat="42.2520299" lon="13.512435"><ele>1291.0</ele><time>2026-03-24T10:35:29.961Z</time></trkpt><trkpt lat="42.2519681" lon="13.5126523"><ele>1291.0</ele><time>2026-03-24T10:35:30.96Z</time></trkpt><trkpt lat="42.251893" lon="13.5128552"><ele>1291.0</ele><time>2026-03-24T10:35:31.96Z</time></trkpt><trkpt lat="42.2518054" lon="13.5130508"><ele>1291.0</ele><time>2026-03-24T10:35:32.96Z</time></trkpt><trkpt lat="42.2517091" lon="13.5132427"><ele>1290.6666666666665</ele><time>2026-03-24T10:35:33.96Z</time></trkpt><trkpt lat="42.2516067" lon="13.5134235"><ele>1290.3333333333333</ele><time>2026-03-24T10:35:34.96Z</time></trkpt><trkpt lat="42.2514941" lon="13.5135969"><ele>1290.0</ele><time>2026-03-24T10:35:35.961Z</time></trkpt><trkpt lat="42.2513768" lon="13.5137718"><ele>1290.0</ele><time>2026-03-24T10:35:36.96Z</time></trkpt><trkpt lat="42.2512442" lon="13.5139375"><ele>1290.0</ele><time>2026-03-24T10:35:37.96Z</time></trkpt><trkpt lat="42.251109" lon="13.5140994"><ele>1290.0</ele><time>2026-03-24T10:35:38.961Z</time></trkpt><trkpt lat="42.2509749" lon="13.5142681"><ele>1290.0</ele><time>2026-03-24T10:35:39.96Z</time></trkpt><trkpt lat="42.2508452" lon="13.5144406"><ele>1290.0</ele><time>2026-03-24T10:35:40.96Z</time></trkpt><trkpt lat="42.2507136" lon="13.51461"><ele>1290.0</ele><time>2026-03-24T10:35:41.961Z</time></trkpt><trkpt lat="42.2505949" lon="13.5147746"><ele>1291.6666666666667</ele><time>2026-03-24T10:35:42.96Z</time></trkpt><trkpt lat="42.2504872" lon="13.5149297"><ele>1293.3333333333335</ele><time>2026-03-24T10:35:43.961Z</time></trkpt><trkpt lat="42.2503901" lon="13.5150972"><ele>1295.0</ele><time>2026-03-24T10:35:44.961Z</time></trkpt><trkpt lat="42.2503122" lon="13.5152703"><ele>1294.75</ele><time>2026-03-24T10:35:45.96Z</time></trkpt><trkpt lat="42.2502659" lon="13.5154558"><ele>1294.5</ele><time>2026-03-24T10:35:46.96Z</time></trkpt><trkpt lat="42.2502443" lon="13.5156521"><ele>1294.25</ele><time>2026-03-24T10:35:47.961Z</time></trkpt><trkpt lat="42.2502365" lon="13.5158536"><ele>1294.0</ele><time>2026-03-24T10:35:48.96Z</time></trkpt><trkpt lat="42.2502205" lon="13.5160634"><ele>1295.0</ele><time>2026-03-24T10:35:49.96Z</time></trkpt><trkpt lat="42.2501982" lon="13.5162775"><ele>1296.0</ele><time>2026-03-24T10:35:50.961Z</time></trkpt><trkpt lat="42.2501659" lon="13.5164928"><ele>1297.0</ele><time>2026-03-24T10:35:51.96Z</time></trkpt><trkpt lat="42.2501221" lon="13.5167062"><ele>1297.0</ele><time>2026-03-24T10:35:52.96Z</time></trkpt><trkpt lat="42.2500608" lon="13.5169103"><ele>1297.0</ele><time>2026-03-24T10:35:53.96Z</time></trkpt><trkpt lat="42.2499866" lon="13.5171086"><ele>1297.0</ele><time>2026-03-24T10:35:54.961Z</time></trkpt><trkpt lat="42.2498997" lon="13.5173002"><ele>1299.6666666666665</ele><time>2026-03-24T10:35:55.961Z</time></trkpt><trkpt lat="42.2498076" lon="13.517496"><ele>1302.3333333333333</ele><time>2026-03-24T10:35:56.961Z</time></trkpt><trkpt lat="42.2497131" lon="13.5176995"><ele>1305.0</ele><time>2026-03-24T10:35:57.961Z</time></trkpt><trkpt lat="42.2496169" lon="13.5179144"><ele>1305.0</ele><time>2026-03-24T10:35:58.96Z</time></trkpt><trkpt lat="42.2495202" lon="13.5181328"><ele>1305.0</ele><time>2026-03-24T10:35:59.96Z</time></trkpt><trkpt lat="42.2494202" lon="13.5183587"><ele>1305.0</ele><time>2026-03-24T10:36:00.96Z</time></trkpt><trkpt lat="42.2493207" lon="13.5185925"><ele>1301.0</ele><time>2026-03-24T10:36:01.961Z</time></trkpt><trkpt lat="42.2492158" lon="13.5188307"><ele>1297.0</ele><time>2026-03-24T10:36:02.96Z</time></trkpt><trkpt lat="42.2491146" lon="13.5190676"><ele>1293.0</ele><time>2026-03-24T10:36:03.961Z</time></trkpt><trkpt lat="42.2490236" lon="13.5192951"><ele>1293.3333333333333</ele><time>2026-03-24T10:36:04.96Z</time></trkpt><trkpt lat="42.2489333" lon="13.5195016"><ele>1293.6666666666665</ele><time>2026-03-24T10:36:05.961Z</time></trkpt><trkpt lat="42.2488412" lon="13.5196914"><ele>1294.0</ele><time>2026-03-24T10:36:06.96Z</time></trkpt><trkpt lat="42.2487376" lon="13.5198532"><ele>1294.0</ele><time>2026-03-24T10:36:07.96Z</time></trkpt><trkpt lat="42.2486143" lon="13.5199835"><ele>1294.0</ele><time>2026-03-24T10:36:08.96Z</time></trkpt><trkpt lat="42.2484791" lon="13.5200907"><ele>1294.0</ele><time>2026-03-24T10:36:09.96Z</time></trkpt><trkpt lat="42.2483233" lon="13.5201799"><ele>1294.0</ele><time>2026-03-24T10:36:10.96Z</time></trkpt><trkpt lat="42.2481595" lon="13.5202515"><ele>1294.0</ele><time>2026-03-24T10:36:11.96Z</time></trkpt><trkpt lat="42.2479826" lon="13.5203133"><ele>1294.0</ele><time>2026-03-24T10:36:12.96Z</time></trkpt><trkpt lat="42.2478033" lon="13.5203744"><ele>1294.6666666666665</ele><time>2026-03-24T10:36:13.961Z</time></trkpt><trkpt lat="42.2476187" lon="13.5204392"><ele>1295.3333333333333</ele><time>2026-03-24T10:36:14.96Z</time></trkpt><trkpt lat="42.2474341" lon="13.5205003"><ele>1296.0</ele><time>2026-03-24T10:36:15.96Z</time></trkpt><trkpt lat="42.2472489" lon="13.5205652"><ele>1296.0</ele><time>2026-03-24T10:36:16.961Z</time></trkpt><trkpt lat="42.2470657" lon="13.5206165"><ele>1296.0</ele><time>2026-03-24T10:36:17.96Z</time></trkpt><trkpt lat="42.2468953" lon="13.520669"><ele>1296.0</ele><time>2026-03-24T10:36:18.96Z</time></trkpt><trkpt lat="42.2467259" lon="13.5207187"><ele>1296.0</ele><time>2026-03-24T10:36:19.96Z</time></trkpt><trkpt lat="42.2465582" lon="13.5207682"><ele>1296.0</ele><time>2026-03-24T10:36:20.96Z</time></trkpt><trkpt lat="42.2463871" lon="13.5208219"><ele>1296.0</ele><time>2026-03-24T10:36:21.96Z</time></trkpt><trkpt lat="42.2462102" lon="13.5208742"><ele>1297.6666666666667</ele><time>2026-03-24T10:36:22.96Z</time></trkpt><trkpt lat="42.2460382" lon="13.5209373"><ele>1299.3333333333335</ele><time>2026-03-24T10:36:23.961Z</time></trkpt><trkpt lat="42.2458662" lon="13.521021"><ele>1301.0</ele><time>2026-03-24T10:36:24.961Z</time></trkpt><trkpt lat="42.2456907" lon="13.521121"><ele>1297.6666666666667</ele><time>2026-03-24T10:36:25.96Z</time></trkpt><trkpt lat="42.2455147" lon="13.521234"><ele>1294.3333333333333</ele><time>2026-03-24T10:36:26.96Z</time></trkpt><trkpt lat="42.2453395" lon="13.5213524"><ele>1291.0</ele><time>2026-03-24T10:36:27.96Z</time></trkpt><trkpt lat="42.245164" lon="13.5214744"><ele>1291.0</ele><time>2026-03-24T10:36:28.96Z</time></trkpt><trkpt lat="42.2449886" lon="13.5215942"><ele>1291.0</ele><time>2026-03-24T10:36:29.961Z</time></trkpt><trkpt lat="42.2448182" lon="13.5217072"><ele>1291.0</ele><time>2026-03-24T10:36:30.96Z</time></trkpt><trkpt lat="42.2446499" lon="13.5218274"><ele>1291.3333333333333</ele><time>2026-03-24T10:36:31.961Z</time></trkpt><trkpt lat="42.2444918" lon="13.521948"><ele>1291.6666666666667</ele><time>2026-03-24T10:36:32.96Z</time></trkpt><trkpt lat="42.2443388" lon="13.5220797"><ele>1292.0</ele><time>2026-03-24T10:36:33.96Z</time></trkpt><trkpt lat="42.2441972" lon="13.5222201"><ele>1292.0</ele><time>2026-03-24T10:36:34.96Z</time></trkpt><trkpt lat="42.2440578" lon="13.5223727"><ele>1292.0</ele><time>2026-03-24T10:36:35.961Z</time></trkpt><trkpt lat="42.2439229" lon="13.5225331"><ele>1292.0</ele><time>2026-03-24T10:36:36.96Z</time></trkpt><trkpt lat="42.243791" lon="13.5227009"><ele>1291.6666666666667</ele><time>2026-03-24T10:36:37.96Z</time></trkpt><trkpt lat="42.2436664" lon="13.5228727"><ele>1291.3333333333333</ele><time>2026-03-24T10:36:38.96Z</time></trkpt><trkpt lat="42.2435444" lon="13.5230478"><ele>1291.0</ele><time>2026-03-24T10:36:39.96Z</time></trkpt><trkpt lat="42.2434213" lon="13.5232246"><ele>1291.0</ele><time>2026-03-24T10:36:40.96Z</time></trkpt><trkpt lat="42.2433052" lon="13.5234027"><ele>1291.0</ele><time>2026-03-24T10:36:41.96Z</time></trkpt><trkpt lat="42.243198" lon="13.5235831"><ele>1291.0</ele><time>2026-03-24T10:36:42.96Z</time></trkpt><trkpt lat="42.243095" lon="13.5237573"><ele>1293.3333333333333</ele><time>2026-03-24T10:36:43.961Z</time></trkpt><trkpt lat="42.2429926" lon="13.523923"><ele>1295.6666666666667</ele><time>2026-03-24T10:36:44.96Z</time></trkpt><trkpt lat="42.2428933" lon="13.5240892"><ele>1298.0</ele><time>2026-03-24T10:36:45.96Z</time></trkpt><trkpt lat="42.2428063" lon="13.5242402"><ele>1298.0</ele><time>2026-03-24T10:36:46.961Z</time></trkpt><trkpt lat="42.2427138" lon="13.5243738"><ele>1298.0</ele><time>2026-03-24T10:36:47.96Z</time></trkpt><trkpt lat="42.2426052" lon="13.5244924"><ele>1298.0</ele><time>2026-03-24T10:36:48.961Z</time></trkpt><trkpt lat="42.2424788" lon="13.5245895"><ele>1298.0</ele><time>2026-03-24T10:36:49.961Z</time></trkpt><trkpt lat="42.2423396" lon="13.5246433"><ele>1297.6666666666667</ele><time>2026-03-24T10:36:50.961Z</time></trkpt><trkpt lat="42.242186" lon="13.5246598"><ele>1297.3333333333333</ele><time>2026-03-24T10:36:51.96Z</time></trkpt><trkpt lat="42.2420231" lon="13.5246781"><ele>1297.0</ele><time>2026-03-24T10:36:52.96Z</time></trkpt><trkpt lat="42.2418567" lon="13.524693"><ele>1297.0</ele><time>2026-03-24T10:36:53.961Z</time></trkpt><trkpt lat="42.241683" lon="13.5247148"><ele>1297.0</ele><time>2026-03-24T10:36:54.96Z</time></trkpt><trkpt lat="42.2415007" lon="13.5247335"><ele>1297.0</ele><time>2026-03-24T10:36:55.961Z</time></trkpt><trkpt lat="42.241322" lon="13.5247461"><ele>1296.6666666666665</ele><time>2026-03-24T10:36:56.961Z</time></trkpt><trkpt lat="42.2411442" lon="13.5247552"><ele>1296.3333333333333</ele><time>2026-03-24T10:36:57.96Z</time></trkpt><trkpt lat="42.2409803" lon="13.5247738"><ele>1296.0</ele><time>2026-03-24T10:36:58.961Z</time></trkpt><trkpt lat="42.2408167" lon="13.5248032"><ele>1296.0</ele><time>2026-03-24T10:36:59.961Z</time></trkpt><trkpt lat="42.2406559" lon="13.524864"><ele>1296.0</ele><time>2026-03-24T10:37:00.961Z</time></trkpt><trkpt lat="42.2405101" lon="13.5249601"><ele>1296.0</ele><time>2026-03-24T10:37:01.961Z</time></trkpt><trkpt lat="42.2403851" lon="13.525093"><ele>1296.3333333333333</ele><time>2026-03-24T10:37:02.96Z</time></trkpt><trkpt lat="42.2402846" lon="13.5252595"><ele>1296.6666666666665</ele><time>2026-03-24T10:37:03.96Z</time></trkpt><trkpt lat="42.2402025" lon="13.5254435"><ele>1297.0</ele><time>2026-03-24T10:37:04.96Z</time></trkpt><trkpt lat="42.2401283" lon="13.5256334"><ele>1297.0</ele><time>2026-03-24T10:37:05.96Z</time></trkpt><trkpt lat="42.2400468" lon="13.5258202"><ele>1297.0</ele><time>2026-03-24T10:37:06.96Z</time></trkpt><trkpt lat="42.2399598" lon="13.5260074"><ele>1297.0</ele><time>2026-03-24T10:37:07.96Z</time></trkpt><trkpt lat="42.2398643" lon="13.5261945"><ele>1298.3333333333333</ele><time>2026-03-24T10:37:08.96Z</time></trkpt><trkpt lat="42.2397596" lon="13.5263777"><ele>1299.6666666666667</ele><time>2026-03-24T10:37:09.96Z</time></trkpt><trkpt lat="42.2396376" lon="13.5265551"><ele>1301.0</ele><time>2026-03-24T10:37:10.96Z</time></trkpt><trkpt lat="42.2395094" lon="13.5267325"><ele>1301.0</ele><time>2026-03-24T10:37:11.96Z</time></trkpt><trkpt lat="42.2393674" lon="13.5269015"><ele>1301.0</ele><time>2026-03-24T10:37:12.96Z</time></trkpt><trkpt lat="42.2392242" lon="13.5270669"><ele>1301.0</ele><time>2026-03-24T10:37:13.96Z</time></trkpt><trkpt lat="42.2390746" lon="13.5272191"><ele>1299.0</ele><time>2026-03-24T10:37:14.96Z</time></trkpt><trkpt lat="42.2389251" lon="13.5273627"><ele>1297.0</ele><time>2026-03-24T10:37:15.96Z</time></trkpt><trkpt lat="42.2387791" lon="13.5275079"><ele>1295.0</ele><time>2026-03-24T10:37:16.96Z</time></trkpt><trkpt lat="42.238629" lon="13.5276516"><ele>1295.0</ele><time>2026-03-24T10:37:17.961Z</time></trkpt><trkpt lat="42.2384828" lon="13.5277911"><ele>1295.0</ele><time>2026-03-24T10:37:18.96Z</time></trkpt><trkpt lat="42.2383394" lon="13.5279349"><ele>1295.0</ele><time>2026-03-24T10:37:19.961Z</time></trkpt><trkpt lat="42.2381991" lon="13.5280871"><ele>1291.3333333333335</ele><time>2026-03-24T10:37:20.96Z</time></trkpt><trkpt lat="42.2380655" lon="13.5282486"><ele>1287.6666666666667</ele><time>2026-03-24T10:37:21.961Z</time></trkpt><trkpt lat="42.2379328" lon="13.5284226"><ele>1284.0</ele><time>2026-03-24T10:37:22.96Z</time></trkpt><trkpt lat="42.2378051" lon="13.5286044"><ele>1285.6666666666667</ele><time>2026-03-24T10:37:23.96Z</time></trkpt><trkpt lat="42.2376818" lon="13.5287904"><ele>1287.3333333333335</ele><time>2026-03-24T10:37:24.961Z</time></trkpt><trkpt lat="42.2375605" lon="13.5289668"><ele>1289.0</ele><time>2026-03-24T10:37:25.96Z</time></trkpt><trkpt lat="42.2374451" lon="13.5291351"><ele>1289.0</ele><time>2026-03-24T10:37:26.96Z</time></trkpt><trkpt lat="42.2373301" lon="13.529298"><ele>1289.0</ele><time>2026-03-24T10:37:27.961Z</time></trkpt><trkpt lat="42.2372141" lon="13.5294612"><ele>1289.0</ele><time>2026-03-24T10:37:28.96Z</time></trkpt><trkpt lat="42.2370962" lon="13.5296278"><ele>1287.0</ele><time>2026-03-24T10:37:29.96Z</time></trkpt><trkpt lat="42.2369788" lon="13.5297918"><ele>1285.0</ele><time>2026-03-24T10:37:30.96Z</time></trkpt><trkpt lat="42.2368643" lon="13.5299595"><ele>1283.0</ele><time>2026-03-24T10:37:31.961Z</time></trkpt><trkpt lat="42.2367446" lon="13.5301271"><ele>1283.0</ele><time>2026-03-24T10:37:32.96Z</time></trkpt><trkpt lat="42.2366303" lon="13.5302955"><ele>1283.0</ele><time>2026-03-24T10:37:33.96Z</time></trkpt><trkpt lat="42.2365197" lon="13.530466"><ele>1283.0</ele><time>2026-03-24T10:37:34.96Z</time></trkpt><trkpt lat="42.2364155" lon="13.5306411"><ele>1280.3333333333335</ele><time>2026-03-24T10:37:35.96Z</time></trkpt><trkpt lat="42.2363171" lon="13.5308231"><ele>1277.6666666666667</ele><time>2026-03-24T10:37:36.961Z</time></trkpt><trkpt lat="42.2362211" lon="13.531001"><ele>1275.0</ele><time>2026-03-24T10:37:37.961Z</time></trkpt><trkpt lat="42.236134" lon="13.5311667"><ele>1276.25</ele><time>2026-03-24T10:37:38.961Z</time></trkpt><trkpt lat="42.2360505" lon="13.531317"><ele>1277.5</ele><time>2026-03-24T10:37:39.96Z</time></trkpt><trkpt lat="42.2359743" lon="13.5314546"><ele>1278.75</ele><time>2026-03-24T10:37:40.961Z</time></trkpt><trkpt lat="42.2359029" lon="13.5315821"><ele>1280.0</ele><time>2026-03-24T10:37:41.96Z</time></trkpt><trkpt lat="42.2358384" lon="13.5317024"><ele>1280.0</ele><time>2026-03-24T10:37:42.96Z</time></trkpt><trkpt lat="42.2357768" lon="13.5318175"><ele>1280.0</ele><time>2026-03-24T10:37:43.96Z</time></trkpt><trkpt lat="42.2357189" lon="13.5319305"><ele>1280.0</ele><time>2026-03-24T10:37:44.96Z</time></trkpt><trkpt lat="42.2356612" lon="13.5320417"><ele>1280.0</ele><time>2026-03-24T10:37:45.96Z</time></trkpt><trkpt lat="42.2356075" lon="13.5321494"><ele>1280.0</ele><time>2026-03-24T10:37:46.961Z</time></trkpt><trkpt lat="42.2355546" lon="13.5322644"><ele>1279.0</ele><time>2026-03-24T10:37:47.96Z</time></trkpt><trkpt lat="42.2355044" lon="13.5323872"><ele>1278.0</ele><time>2026-03-24T10:37:48.961Z</time></trkpt><trkpt lat="42.2354517" lon="13.5325169"><ele>1277.0</ele><time>2026-03-24T10:37:49.96Z</time></trkpt><trkpt lat="42.2354018" lon="13.5326568"><ele>1276.0</ele><time>2026-03-24T10:37:50.96Z</time></trkpt><trkpt lat="42.2353515" lon="13.5328007"><ele>1275.0</ele><time>2026-03-24T10:37:51.96Z</time></trkpt><trkpt lat="42.2352993" lon="13.5329438"><ele>1275.0</ele><time>2026-03-24T10:37:52.961Z</time></trkpt><trkpt lat="42.235252" lon="13.5330817"><ele>1275.0</ele><time>2026-03-24T10:37:53.961Z</time></trkpt><trkpt lat="42.2352139" lon="13.5332198"><ele>1275.0</ele><time>2026-03-24T10:37:54.96Z</time></trkpt><trkpt lat="42.2351718" lon="13.533349"><ele>1275.0</ele><time>2026-03-24T10:37:55.961Z</time></trkpt><trkpt lat="42.2351272" lon="13.5334692"><ele>1275.0</ele><time>2026-03-24T10:37:56.96Z</time></trkpt><trkpt lat="42.2350925" lon="13.5335821"><ele>1275.0</ele><time>2026-03-24T10:37:57.96Z</time></trkpt><trkpt lat="42.2350617" lon="13.5336972"><ele>1275.0</ele><time>2026-03-24T10:37:58.96Z</time></trkpt><trkpt lat="42.2350326" lon="13.5338063"><ele>1275.0</ele><time>2026-03-24T10:37:59.961Z</time></trkpt><trkpt lat="42.2350091" lon="13.5338898"><ele>1275.0</ele><time>2026-03-24T10:38:00.96Z</time></trkpt><trkpt lat="42.2349648" lon="13.5340361"><ele>1275.0</ele><time>2026-03-24T10:38:02.96Z</time></trkpt><trkpt lat="42.2349151" lon="13.5341783"><ele>1275.5</ele><time>2026-03-24T10:38:04.96Z</time></trkpt><trkpt lat="42.2348613" lon="13.5343355"><ele>1276.0</ele><time>2026-03-24T10:38:06.961Z</time></trkpt><trkpt lat="42.2348341" lon="13.5344258"><ele>1276.5</ele><time>2026-03-24T10:38:07.961Z</time></trkpt><trkpt lat="42.234797" lon="13.5345074"><ele>1277.0</ele><time>2026-03-24T10:38:08.961Z</time></trkpt><trkpt lat="42.2347493" lon="13.5345735"><ele>1277.5</ele><time>2026-03-24T10:38:09.96Z</time></trkpt><trkpt lat="42.2346837" lon="13.5346195"><ele>1278.0</ele><time>2026-03-24T10:38:10.961Z</time></trkpt><trkpt lat="42.2346128" lon="13.5346533"><ele>1276.8</ele><time>2026-03-24T10:38:11.96Z</time></trkpt><trkpt lat="42.2345372" lon="13.5346778"><ele>1275.6</ele><time>2026-03-24T10:38:12.96Z</time></trkpt><trkpt lat="42.2344466" lon="13.5347077"><ele>1274.4</ele><time>2026-03-24T10:38:13.96Z</time></trkpt><trkpt lat="42.2343501" lon="13.5347501"><ele>1273.2</ele><time>2026-03-24T10:38:14.96Z</time></trkpt><trkpt lat="42.2342431" lon="13.5347975"><ele>1272.0</ele><time>2026-03-24T10:38:15.961Z</time></trkpt><trkpt lat="42.2341293" lon="13.5348422"><ele>1272.0</ele><time>2026-03-24T10:38:16.96Z</time></trkpt><trkpt lat="42.2340151" lon="13.5348712"><ele>1272.0</ele><time>2026-03-24T10:38:17.96Z</time></trkpt><trkpt lat="42.2339018" lon="13.534898"><ele>1272.0</ele><time>2026-03-24T10:38:18.96Z</time></trkpt><trkpt lat="42.2337802" lon="13.5349059"><ele>1272.0</ele><time>2026-03-24T10:38:19.96Z</time></trkpt><trkpt lat="42.2336549" lon="13.5348971"><ele>1272.25</ele><time>2026-03-24T10:38:20.961Z</time></trkpt><trkpt lat="42.2335294" lon="13.5348831"><ele>1272.5</ele><time>2026-03-24T10:38:21.96Z</time></trkpt><trkpt lat="42.2333954" lon="13.5348533"><ele>1272.75</ele><time>2026-03-24T10:38:22.96Z</time></trkpt><trkpt lat="42.2332733" lon="13.534813"><ele>1273.0</ele><time>2026-03-24T10:38:23.96Z</time></trkpt><trkpt lat="42.2331678" lon="13.5347665"><ele>1273.3333333333333</ele><time>2026-03-24T10:38:24.961Z</time></trkpt><trkpt lat="42.2330797" lon="13.5347164"><ele>1273.6666666666665</ele><time>2026-03-24T10:38:25.96Z</time></trkpt><trkpt lat="42.2330068" lon="13.5346695"><ele>1274.0</ele><time>2026-03-24T10:38:26.961Z</time></trkpt><trkpt lat="42.2329448" lon="13.534625"><ele>1274.3333333333333</ele><time>2026-03-24T10:38:27.96Z</time></trkpt><trkpt lat="42.2328813" lon="13.53458"><ele>1274.6666666666667</ele><time>2026-03-24T10:38:28.96Z</time></trkpt><trkpt lat="42.2328132" lon="13.5345346"><ele>1275.0</ele><time>2026-03-24T10:38:29.96Z</time></trkpt><trkpt lat="42.2327307" lon="13.5344855"><ele>1275.0</ele><time>2026-03-24T10:38:30.96Z</time></trkpt><trkpt lat="42.2326318" lon="13.534432"><ele>1275.0</ele><time>2026-03-24T10:38:31.961Z</time></trkpt><trkpt lat="42.2325227" lon="13.5343832"><ele>1275.0</ele><time>2026-03-24T10:38:32.96Z</time></trkpt><trkpt lat="42.2324036" lon="13.5343438"><ele>1275.0</ele><time>2026-03-24T10:38:33.96Z</time></trkpt><trkpt lat="42.2322811" lon="13.5343075"><ele>1274.5</ele><time>2026-03-24T10:38:34.96Z</time></trkpt><trkpt lat="42.2321649" lon="13.5342796"><ele>1274.0</ele><time>2026-03-24T10:38:35.96Z</time></trkpt><trkpt lat="42.2320521" lon="13.5342517"><ele>1273.5</ele><time>2026-03-24T10:38:36.961Z</time></trkpt><trkpt lat="42.2319382" lon="13.5342259"><ele>1273.0</ele><time>2026-03-24T10:38:37.96Z</time></trkpt><trkpt lat="42.2318199" lon="13.5341975"><ele>1273.0</ele><time>2026-03-24T10:38:38.961Z</time></trkpt><trkpt lat="42.2316934" lon="13.5341667"><ele>1273.0</ele><time>2026-03-24T10:38:39.96Z</time></trkpt><trkpt lat="42.2315659" lon="13.5341351"><ele>1273.0</ele><time>2026-03-24T10:38:40.96Z</time></trkpt><trkpt lat="42.2314312" lon="13.534101"><ele>1273.0</ele><time>2026-03-24T10:38:41.96Z</time></trkpt><trkpt lat="42.2312822" lon="13.5340602"><ele>1272.3333333333333</ele><time>2026-03-24T10:38:42.961Z</time></trkpt><trkpt lat="42.2311216" lon="13.5340202"><ele>1271.6666666666667</ele><time>2026-03-24T10:38:43.961Z</time></trkpt><trkpt lat="42.2309598" lon="13.5339792"><ele>1271.0</ele><time>2026-03-24T10:38:44.96Z</time></trkpt><trkpt lat="42.2307945" lon="13.5339411"><ele>1269.3333333333335</ele><time>2026-03-24T10:38:45.96Z</time></trkpt><trkpt lat="42.2306212" lon="13.5338939"><ele>1267.6666666666667</ele><time>2026-03-24T10:38:46.961Z</time></trkpt><trkpt lat="42.2304419" lon="13.533853"><ele>1266.0</ele><time>2026-03-24T10:38:47.96Z</time></trkpt><trkpt lat="42.2302632" lon="13.5338032"><ele>1266.0</ele><time>2026-03-24T10:38:48.96Z</time></trkpt><trkpt lat="42.2300799" lon="13.5337558"><ele>1266.0</ele><time>2026-03-24T10:38:49.96Z</time></trkpt><trkpt lat="42.2298951" lon="13.5337053"><ele>1266.0</ele><time>2026-03-24T10:38:50.961Z</time></trkpt><trkpt lat="42.2297076" lon="13.533653"><ele>1263.6666666666667</ele><time>2026-03-24T10:38:51.96Z</time></trkpt><trkpt lat="42.229516" lon="13.5335848"><ele>1261.3333333333335</ele><time>2026-03-24T10:38:52.96Z</time></trkpt><trkpt lat="42.2293281" lon="13.5334988"><ele>1259.0</ele><time>2026-03-24T10:38:53.96Z</time></trkpt><trkpt lat="42.2291328" lon="13.5333998"><ele>1258.3333333333335</ele><time>2026-03-24T10:38:54.96Z</time></trkpt><trkpt lat="42.2289434" lon="13.5332913"><ele>1257.6666666666667</ele><time>2026-03-24T10:38:55.96Z</time></trkpt><trkpt lat="42.2287537" lon="13.5331821"><ele>1257.0</ele><time>2026-03-24T10:38:56.96Z</time></trkpt><trkpt lat="42.2285629" lon="13.533081"><ele>1257.0</ele><time>2026-03-24T10:38:57.96Z</time></trkpt><trkpt lat="42.228371" lon="13.5329746"><ele>1257.0</ele><time>2026-03-24T10:38:58.96Z</time></trkpt><trkpt lat="42.2281776" lon="13.5328654"><ele>1257.0</ele><time>2026-03-24T10:38:59.96Z</time></trkpt><trkpt lat="42.2279849" lon="13.5327534"><ele>1257.6666666666667</ele><time>2026-03-24T10:39:00.96Z</time></trkpt><trkpt lat="42.2277965" lon="13.5326413"><ele>1258.3333333333335</ele><time>2026-03-24T10:39:01.961Z</time></trkpt><trkpt lat="42.2276065" lon="13.5325357"><ele>1259.0</ele><time>2026-03-24T10:39:02.96Z</time></trkpt><trkpt lat="42.2274176" lon="13.5324389"><ele>1260.0</ele><time>2026-03-24T10:39:03.96Z</time></trkpt><trkpt lat="42.2272241" lon="13.5323719"><ele>1261.0</ele><time>2026-03-24T10:39:04.96Z</time></trkpt><trkpt lat="42.2270187" lon="13.5323449"><ele>1262.0</ele><time>2026-03-24T10:39:05.96Z</time></trkpt><trkpt lat="42.22682" lon="13.532356"><ele>1262.0</ele><time>2026-03-24T10:39:06.96Z</time></trkpt><trkpt lat="42.2266149" lon="13.5323901"><ele>1262.0</ele><time>2026-03-24T10:39:07.96Z</time></trkpt><trkpt lat="42.2264105" lon="13.5324295"><ele>1262.0</ele><time>2026-03-24T10:39:08.961Z</time></trkpt><trkpt lat="42.2262043" lon="13.53247"><ele>1262.3333333333335</ele><time>2026-03-24T10:39:09.96Z</time></trkpt><trkpt lat="42.2259914" lon="13.5325106"><ele>1262.6666666666667</ele><time>2026-03-24T10:39:10.961Z</time></trkpt><trkpt lat="42.2257829" lon="13.5325551"><ele>1263.0</ele><time>2026-03-24T10:39:11.96Z</time></trkpt><trkpt lat="42.2255766" lon="13.5325993"><ele>1261.6666666666667</ele><time>2026-03-24T10:39:12.96Z</time></trkpt><trkpt lat="42.2253676" lon="13.5326428"><ele>1260.3333333333335</ele><time>2026-03-24T10:39:13.96Z</time></trkpt><trkpt lat="42.2251589" lon="13.5326835"><ele>1259.0</ele><time>2026-03-24T10:39:14.961Z</time></trkpt><trkpt lat="42.2249572" lon="13.5327254"><ele>1259.6666666666667</ele><time>2026-03-24T10:39:15.96Z</time></trkpt><trkpt lat="42.2247646" lon="13.532768"><ele>1260.3333333333333</ele><time>2026-03-24T10:39:16.961Z</time></trkpt><trkpt lat="42.2245754" lon="13.5328107"><ele>1261.0</ele><time>2026-03-24T10:39:17.961Z</time></trkpt><trkpt lat="42.2243912" lon="13.5328524"><ele>1261.3333333333333</ele><time>2026-03-24T10:39:18.96Z</time></trkpt><trkpt lat="42.2242098" lon="13.532893"><ele>1261.6666666666667</ele><time>2026-03-24T10:39:19.96Z</time></trkpt><trkpt lat="42.2240386" lon="13.5329298"><ele>1262.0</ele><time>2026-03-24T10:39:20.961Z</time></trkpt><trkpt lat="42.223874" lon="13.5329643"><ele>1262.0</ele><time>2026-03-24T10:39:21.96Z</time></trkpt><trkpt lat="42.2237132" lon="13.5330035"><ele>1262.0</ele><time>2026-03-24T10:39:22.96Z</time></trkpt><trkpt lat="42.2235529" lon="13.533039"><ele>1262.0</ele><time>2026-03-24T10:39:23.96Z</time></trkpt><trkpt lat="42.2233956" lon="13.5330846"><ele>1262.0</ele><time>2026-03-24T10:39:24.96Z</time></trkpt><trkpt lat="42.223239" lon="13.5331461"><ele>1262.0</ele><time>2026-03-24T10:39:25.961Z</time></trkpt><trkpt lat="42.2230824" lon="13.533219"><ele>1262.0</ele><time>2026-03-24T10:39:26.96Z</time></trkpt><trkpt lat="42.2229293" lon="13.5333091"><ele>1262.3333333333335</ele><time>2026-03-24T10:39:27.96Z</time></trkpt><trkpt lat="42.2227741" lon="13.5334087"><ele>1262.6666666666667</ele><time>2026-03-24T10:39:28.961Z</time></trkpt><trkpt lat="42.2226135" lon="13.5334913"><ele>1263.0</ele><time>2026-03-24T10:39:29.96Z</time></trkpt><trkpt lat="42.222451" lon="13.5335456"><ele>1263.6666666666667</ele><time>2026-03-24T10:39:30.96Z</time></trkpt><trkpt lat="42.2222928" lon="13.533556"><ele>1264.3333333333335</ele><time>2026-03-24T10:39:31.96Z</time></trkpt><trkpt lat="42.2221482" lon="13.5335227"><ele>1265.0</ele><time>2026-03-24T10:39:32.96Z</time></trkpt><trkpt lat="42.2220073" lon="13.5334562"><ele>1265.0</ele><time>2026-03-24T10:39:33.96Z</time></trkpt><trkpt lat="42.2218684" lon="13.5333673"><ele>1265.0</ele><time>2026-03-24T10:39:34.961Z</time></trkpt><trkpt lat="42.2217294" lon="13.5332591"><ele>1265.0</ele><time>2026-03-24T10:39:35.96Z</time></trkpt><trkpt lat="42.2215932" lon="13.5331309"><ele>1264.3333333333335</ele><time>2026-03-24T10:39:36.961Z</time></trkpt><trkpt lat="42.2214528" lon="13.5329923"><ele>1263.6666666666667</ele><time>2026-03-24T10:39:37.961Z</time></trkpt><trkpt lat="42.2213082" lon="13.5328536"><ele>1263.0</ele><time>2026-03-24T10:39:38.96Z</time></trkpt><trkpt lat="42.2211611" lon="13.5327113"><ele>1263.0</ele><time>2026-03-24T10:39:39.96Z</time></trkpt><trkpt lat="42.2210035" lon="13.5325721"><ele>1263.0</ele><time>2026-03-24T10:39:40.96Z</time></trkpt><trkpt lat="42.2208368" lon="13.5324479"><ele>1263.0</ele><time>2026-03-24T10:39:41.96Z</time></trkpt><trkpt lat="42.2206616" lon="13.5323328"><ele>1262.3333333333333</ele><time>2026-03-24T10:39:42.961Z</time></trkpt><trkpt lat="42.2204704" lon="13.5322308"><ele>1261.6666666666665</ele><time>2026-03-24T10:39:43.96Z</time></trkpt><trkpt lat="42.2202709" lon="13.5321333"><ele>1261.0</ele><time>2026-03-24T10:39:44.96Z</time></trkpt><trkpt lat="42.2200734" lon="13.5320362"><ele>1261.0</ele><time>2026-03-24T10:39:45.96Z</time></trkpt><trkpt lat="42.2198832" lon="13.5319451"><ele>1261.0</ele><time>2026-03-24T10:39:46.961Z</time></trkpt><trkpt lat="42.2197009" lon="13.5318559"><ele>1261.0</ele><time>2026-03-24T10:39:47.961Z</time></trkpt><trkpt lat="42.2195217" lon="13.5317683"><ele>1261.0</ele><time>2026-03-24T10:39:48.961Z</time></trkpt><trkpt lat="42.219343" lon="13.5316828"><ele>1261.0</ele><time>2026-03-24T10:39:49.96Z</time></trkpt><trkpt lat="42.2191605" lon="13.5315933"><ele>1261.0</ele><time>2026-03-24T10:39:50.961Z</time></trkpt><trkpt lat="42.2189897" lon="13.5315075"><ele>1260.6666666666665</ele><time>2026-03-24T10:39:51.96Z</time></trkpt><trkpt lat="42.2188124" lon="13.5314139"><ele>1260.3333333333333</ele><time>2026-03-24T10:39:52.96Z</time></trkpt><trkpt lat="42.2186331" lon="13.5313189"><ele>1260.0</ele><time>2026-03-24T10:39:53.96Z</time></trkpt><trkpt lat="42.2184506" lon="13.5312263"><ele>1261.0</ele><time>2026-03-24T10:39:54.96Z</time></trkpt><trkpt lat="42.2182662" lon="13.5311359"><ele>1262.0</ele><time>2026-03-24T10:39:55.96Z</time></trkpt><trkpt lat="42.2180798" lon="13.5310468"><ele>1263.0</ele><time>2026-03-24T10:39:56.96Z</time></trkpt><trkpt lat="42.217894" lon="13.5309563"><ele>1263.3333333333333</ele><time>2026-03-24T10:39:57.96Z</time></trkpt><trkpt lat="42.2177098" lon="13.5308594"><ele>1263.6666666666665</ele><time>2026-03-24T10:39:58.96Z</time></trkpt><trkpt lat="42.2175261" lon="13.5307606"><ele>1264.0</ele><time>2026-03-24T10:39:59.961Z</time></trkpt><trkpt lat="42.2173383" lon="13.5306577"><ele>1263.6666666666665</ele><time>2026-03-24T10:40:00.961Z</time></trkpt><trkpt lat="42.2171535" lon="13.5305492"><ele>1263.3333333333333</ele><time>2026-03-24T10:40:01.96Z</time></trkpt><trkpt lat="42.2169751" lon="13.5304297"><ele>1263.0</ele><time>2026-03-24T10:40:02.96Z</time></trkpt><trkpt lat="42.2167987" lon="13.5303047"><ele>1263.0</ele><time>2026-03-24T10:40:03.96Z</time></trkpt><trkpt lat="42.2166211" lon="13.5301754"><ele>1263.0</ele><time>2026-03-24T10:40:04.961Z</time></trkpt><trkpt lat="42.2164394" lon="13.5300509"><ele>1263.0</ele><time>2026-03-24T10:40:05.96Z</time></trkpt><trkpt lat="42.2162538" lon="13.5299287"><ele>1263.6666666666667</ele><time>2026-03-24T10:40:06.961Z</time></trkpt><trkpt lat="42.2160649" lon="13.5298089"><ele>1264.3333333333335</ele><time>2026-03-24T10:40:07.96Z</time></trkpt><trkpt lat="42.2158764" lon="13.529681"><ele>1265.0</ele><time>2026-03-24T10:40:08.96Z</time></trkpt><trkpt lat="42.215691" lon="13.5295552"><ele>1265.6666666666667</ele><time>2026-03-24T10:40:09.96Z</time></trkpt><trkpt lat="42.215511" lon="13.5294192"><ele>1266.3333333333333</ele><time>2026-03-24T10:40:10.96Z</time></trkpt><trkpt lat="42.2153342" lon="13.529271"><ele>1267.0</ele><time>2026-03-24T10:40:11.96Z</time></trkpt><trkpt lat="42.215161" lon="13.5291156"><ele>1267.0</ele><time>2026-03-24T10:40:12.961Z</time></trkpt><trkpt lat="42.2149966" lon="13.5289541"><ele>1267.0</ele><time>2026-03-24T10:40:13.96Z</time></trkpt><trkpt lat="42.2148393" lon="13.5287874"><ele>1267.0</ele><time>2026-03-24T10:40:14.96Z</time></trkpt><trkpt lat="42.2146828" lon="13.528626"><ele>1267.3333333333333</ele><time>2026-03-24T10:40:15.961Z</time></trkpt><trkpt lat="42.2145331" lon="13.5284745"><ele>1267.6666666666667</ele><time>2026-03-24T10:40:16.96Z</time></trkpt><trkpt lat="42.2143917" lon="13.5283263"><ele>1268.0</ele><time>2026-03-24T10:40:17.96Z</time></trkpt><trkpt lat="42.2142573" lon="13.5281925"><ele>1268.0</ele><time>2026-03-24T10:40:18.96Z</time></trkpt><trkpt lat="42.2141352" lon="13.5280579"><ele>1268.0</ele><time>2026-03-24T10:40:19.96Z</time></trkpt><trkpt lat="42.2140269" lon="13.5279062"><ele>1268.0</ele><time>2026-03-24T10:40:20.96Z</time></trkpt><trkpt lat="42.2139437" lon="13.5277442"><ele>1267.75</ele><time>2026-03-24T10:40:21.961Z</time></trkpt><trkpt lat="42.2138905" lon="13.5275719"><ele>1267.5</ele><time>2026-03-24T10:40:22.961Z</time></trkpt><trkpt lat="42.2138569" lon="13.5273802"><ele>1267.25</ele><time>2026-03-24T10:40:23.96Z</time></trkpt><trkpt lat="42.2138281" lon="13.5271833"><ele>1267.0</ele><time>2026-03-24T10:40:24.96Z</time></trkpt><trkpt lat="42.2138009" lon="13.5269716"><ele>1268.0</ele><time>2026-03-24T10:40:25.961Z</time></trkpt><trkpt lat="42.2137729" lon="13.5267584"><ele>1269.0</ele><time>2026-03-24T10:40:26.96Z</time></trkpt><trkpt lat="42.2137431" lon="13.5265368"><ele>1270.0</ele><time>2026-03-24T10:40:27.961Z</time></trkpt><trkpt lat="42.2137082" lon="13.5263095"><ele>1271.0</ele><time>2026-03-24T10:40:28.96Z</time></trkpt><trkpt lat="42.2136624" lon="13.5260828"><ele>1272.0</ele><time>2026-03-24T10:40:29.96Z</time></trkpt><trkpt lat="42.2135987" lon="13.5258611"><ele>1273.0</ele><time>2026-03-24T10:40:30.961Z</time></trkpt><trkpt lat="42.2135252" lon="13.5256452"><ele>1273.0</ele><time>2026-03-24T10:40:31.961Z</time></trkpt><trkpt lat="42.2134362" lon="13.5254358"><ele>1273.0</ele><time>2026-03-24T10:40:32.961Z</time></trkpt><trkpt lat="42.2133402" lon="13.5252329"><ele>1273.0</ele><time>2026-03-24T10:40:33.96Z</time></trkpt><trkpt lat="42.2132356" lon="13.5250363"><ele>1273.0</ele><time>2026-03-24T10:40:34.961Z</time></trkpt><trkpt lat="42.2131224" lon="13.5248448"><ele>1273.0</ele><time>2026-03-24T10:40:35.96Z</time></trkpt><trkpt lat="42.2130079" lon="13.5246492"><ele>1273.0</ele><time>2026-03-24T10:40:36.96Z</time></trkpt><trkpt lat="42.2128841" lon="13.5244517"><ele>1273.0</ele><time>2026-03-24T10:40:37.961Z</time></trkpt><trkpt lat="42.2127619" lon="13.5242545"><ele>1273.0</ele><time>2026-03-24T10:40:38.96Z</time></trkpt><trkpt lat="42.212639" lon="13.5240533"><ele>1273.0</ele><time>2026-03-24T10:40:39.96Z</time></trkpt><trkpt lat="42.212525" lon="13.523861"><ele>1273.0</ele><time>2026-03-24T10:40:40.96Z</time></trkpt><trkpt lat="42.2124188" lon="13.5236759"><ele>1273.0</ele><time>2026-03-24T10:40:41.96Z</time></trkpt><trkpt lat="42.2123125" lon="13.5234968"><ele>1273.0</ele><time>2026-03-24T10:40:42.961Z</time></trkpt><trkpt lat="42.212207" lon="13.5233209"><ele>1273.0</ele><time>2026-03-24T10:40:43.96Z</time></trkpt><trkpt lat="42.2121051" lon="13.5231429"><ele>1273.0</ele><time>2026-03-24T10:40:44.96Z</time></trkpt><trkpt lat="42.2120074" lon="13.5229567"><ele>1273.0</ele><time>2026-03-24T10:40:45.961Z</time></trkpt><trkpt lat="42.2119302" lon="13.5227613"><ele>1273.0</ele><time>2026-03-24T10:40:46.961Z</time></trkpt><trkpt lat="42.2118556" lon="13.522556"><ele>1273.0</ele><time>2026-03-24T10:40:47.96Z</time></trkpt><trkpt lat="42.2117927" lon="13.5223326"><ele>1273.0</ele><time>2026-03-24T10:40:48.961Z</time></trkpt><trkpt lat="42.2117343" lon="13.5221044"><ele>1271.6666666666665</ele><time>2026-03-24T10:40:49.961Z</time></trkpt><trkpt lat="42.2116781" lon="13.5218659"><ele>1270.3333333333333</ele><time>2026-03-24T10:40:50.96Z</time></trkpt><trkpt lat="42.2116199" lon="13.5216165"><ele>1269.0</ele><time>2026-03-24T10:40:51.961Z</time></trkpt><trkpt lat="42.2115626" lon="13.5213631"><ele>1268.6666666666667</ele><time>2026-03-24T10:40:52.96Z</time></trkpt><trkpt lat="42.2115052" lon="13.5211118"><ele>1268.3333333333335</ele><time>2026-03-24T10:40:53.96Z</time></trkpt><trkpt lat="42.2114533" lon="13.5208591"><ele>1268.0</ele><time>2026-03-24T10:40:54.96Z</time></trkpt><trkpt lat="42.2114018" lon="13.5206128"><ele>1269.0</ele><time>2026-03-24T10:40:55.961Z</time></trkpt><trkpt lat="42.2113508" lon="13.5203748"><ele>1270.0</ele><time>2026-03-24T10:40:56.96Z</time></trkpt><trkpt lat="42.2112993" lon="13.5201435"><ele>1271.0</ele><time>2026-03-24T10:40:57.96Z</time></trkpt><trkpt lat="42.211246" lon="13.5199174"><ele>1271.0</ele><time>2026-03-24T10:40:58.961Z</time></trkpt><trkpt lat="42.2111949" lon="13.5196959"><ele>1271.0</ele><time>2026-03-24T10:40:59.961Z</time></trkpt><trkpt lat="42.2111468" lon="13.5194813"><ele>1271.0</ele><time>2026-03-24T10:41:00.96Z</time></trkpt><trkpt lat="42.2110934" lon="13.5192734"><ele>1272.0</ele><time>2026-03-24T10:41:01.961Z</time></trkpt><trkpt lat="42.211028" lon="13.5190774"><ele>1273.0</ele><time>2026-03-24T10:41:02.96Z</time></trkpt><trkpt lat="42.2109471" lon="13.5189021"><ele>1274.0</ele><time>2026-03-24T10:41:03.961Z</time></trkpt><trkpt lat="42.2108529" lon="13.5187408"><ele>1275.0</ele><time>2026-03-24T10:41:04.96Z</time></trkpt><trkpt lat="42.2107508" lon="13.5185989"><ele>1276.0</ele><time>2026-03-24T10:41:05.961Z</time></trkpt><trkpt lat="42.2106503" lon="13.5184627"><ele>1277.0</ele><time>2026-03-24T10:41:06.961Z</time></trkpt><trkpt lat="42.2105395" lon="13.5183465"><ele>1278.0</ele><time>2026-03-24T10:41:07.961Z</time></trkpt><trkpt lat="42.2104385" lon="13.5182487"><ele>1278.2</ele><time>2026-03-24T10:41:08.961Z</time></trkpt><trkpt lat="42.2103454" lon="13.5181746"><ele>1278.4</ele><time>2026-03-24T10:41:09.96Z</time></trkpt><trkpt lat="42.2102683" lon="13.5181044"><ele>1278.6000000000001</ele><time>2026-03-24T10:41:10.96Z</time></trkpt><trkpt lat="42.2102036" lon="13.5180472"><ele>1278.8</ele><time>2026-03-24T10:41:11.96Z</time></trkpt><trkpt lat="42.2101165" lon="13.5179594"><ele>1279.0</ele><time>2026-03-24T10:41:13.96Z</time></trkpt><trkpt lat="42.2100565" lon="13.5178613"><ele>1279.0</ele><time>2026-03-24T10:41:15.96Z</time></trkpt><trkpt lat="42.2100184" lon="13.5177499"><ele>1279.0</ele><time>2026-03-24T10:41:17.961Z</time></trkpt><trkpt lat="42.2099416" lon="13.5176926"><ele>1279.0</ele><time>2026-03-24T10:41:19.96Z</time></trkpt><trkpt lat="42.2098414" lon="13.5177236"><ele>1279.0</ele><time>2026-03-24T10:41:21.961Z</time></trkpt><trkpt lat="42.2097795" lon="13.5177418"><ele>1279.0</ele><time>2026-03-24T10:41:22.96Z</time></trkpt><trkpt lat="42.2097044" lon="13.5177436"><ele>1279.0</ele><time>2026-03-24T10:41:23.961Z</time></trkpt><trkpt lat="42.2096188" lon="13.5177357"><ele>1279.6</ele><time>2026-03-24T10:41:24.96Z</time></trkpt><trkpt lat="42.2095196" lon="13.5177427"><ele>1280.2</ele><time>2026-03-24T10:41:25.96Z</time></trkpt><trkpt lat="42.2094105" lon="13.5177683"><ele>1280.8</ele><time>2026-03-24T10:41:26.96Z</time></trkpt><trkpt lat="42.209298" lon="13.5177941"><ele>1281.3999999999999</ele><time>2026-03-24T10:41:27.96Z</time></trkpt><trkpt lat="42.2091854" lon="13.5178216"><ele>1282.0</ele><time>2026-03-24T10:41:28.96Z</time></trkpt><trkpt lat="42.2090633" lon="13.5178483"><ele>1281.75</ele><time>2026-03-24T10:41:29.96Z</time></trkpt><trkpt lat="42.208941" lon="13.5178769"><ele>1281.5</ele><time>2026-03-24T10:41:30.96Z</time></trkpt><trkpt lat="42.208808" lon="13.5179039"><ele>1281.25</ele><time>2026-03-24T10:41:31.96Z</time></trkpt><trkpt lat="42.2086679" lon="13.5179289"><ele>1281.0</ele><time>2026-03-24T10:41:32.96Z</time></trkpt><trkpt lat="42.2085283" lon="13.5179579"><ele>1280.3333333333333</ele><time>2026-03-24T10:41:33.96Z</time></trkpt><trkpt lat="42.2083826" lon="13.5179957"><ele>1279.6666666666665</ele><time>2026-03-24T10:41:34.96Z</time></trkpt><trkpt lat="42.2082364" lon="13.5180289"><ele>1279.0</ele><time>2026-03-24T10:41:35.961Z</time></trkpt><trkpt lat="42.2080845" lon="13.5180658"><ele>1279.0</ele><time>2026-03-24T10:41:36.96Z</time></trkpt><trkpt lat="42.2079282" lon="13.5180917"><ele>1279.0</ele><time>2026-03-24T10:41:37.96Z</time></trkpt><trkpt lat="42.2077658" lon="13.5181298"><ele>1279.0</ele><time>2026-03-24T10:41:38.961Z</time></trkpt><trkpt lat="42.2076039" lon="13.5181689"><ele>1279.0</ele><time>2026-03-24T10:41:39.96Z</time></trkpt><trkpt lat="42.2074411" lon="13.5182044"><ele>1279.0</ele><time>2026-03-24T10:41:40.96Z</time></trkpt><trkpt lat="42.2072827" lon="13.5182395"><ele>1279.0</ele><time>2026-03-24T10:41:41.96Z</time></trkpt><trkpt lat="42.2071297" lon="13.5182737"><ele>1279.5</ele><time>2026-03-24T10:41:42.961Z</time></trkpt><trkpt lat="42.2069865" lon="13.5183078"><ele>1280.0</ele><time>2026-03-24T10:41:43.961Z</time></trkpt><trkpt lat="42.2068461" lon="13.5183386"><ele>1280.5</ele><time>2026-03-24T10:41:44.961Z</time></trkpt><trkpt lat="42.2067189" lon="13.5183624"><ele>1281.0</ele><time>2026-03-24T10:41:45.96Z</time></trkpt><trkpt lat="42.2065987" lon="13.5183851"><ele>1281.25</ele><time>2026-03-24T10:41:46.961Z</time></trkpt><trkpt lat="42.2064833" lon="13.5184069"><ele>1281.5</ele><time>2026-03-24T10:41:47.96Z</time></trkpt><trkpt lat="42.2063636" lon="13.5184345"><ele>1281.75</ele><time>2026-03-24T10:41:48.96Z</time></trkpt><trkpt lat="42.2062443" lon="13.5184587"><ele>1282.0</ele><time>2026-03-24T10:41:49.961Z</time></trkpt><trkpt lat="42.2061215" lon="13.518483"><ele>1282.0</ele><time>2026-03-24T10:41:50.961Z</time></trkpt><trkpt lat="42.2060028" lon="13.5185097"><ele>1282.0</ele><time>2026-03-24T10:41:51.96Z</time></trkpt><trkpt lat="42.2058885" lon="13.5185372"><ele>1282.0</ele><time>2026-03-24T10:41:52.961Z</time></trkpt><trkpt lat="42.2057745" lon="13.5185691"><ele>1282.0</ele><time>2026-03-24T10:41:53.96Z</time></trkpt><trkpt lat="42.2056614" lon="13.5185874"><ele>1282.1999999999998</ele><time>2026-03-24T10:41:54.96Z</time></trkpt><trkpt lat="42.2055492" lon="13.5186083"><ele>1282.4</ele><time>2026-03-24T10:41:55.96Z</time></trkpt><trkpt lat="42.2054354" lon="13.5186354"><ele>1282.6</ele><time>2026-03-24T10:41:56.96Z</time></trkpt><trkpt lat="42.2053288" lon="13.5186624"><ele>1282.8000000000002</ele><time>2026-03-24T10:41:57.961Z</time></trkpt><trkpt lat="42.2052205" lon="13.5186878"><ele>1283.0</ele><time>2026-03-24T10:41:58.96Z</time></trkpt><trkpt lat="42.2051084" lon="13.518718"><ele>1282.75</ele><time>2026-03-24T10:41:59.96Z</time></trkpt><trkpt lat="42.2049933" lon="13.5187394"><ele>1282.5</ele><time>2026-03-24T10:42:00.961Z</time></trkpt><trkpt lat="42.2048702" lon="13.5187664"><ele>1282.25</ele><time>2026-03-24T10:42:01.96Z</time></trkpt><trkpt lat="42.2047422" lon="13.5187875"><ele>1282.0</ele><time>2026-03-24T10:42:02.96Z</time></trkpt><trkpt lat="42.2046148" lon="13.5188142"><ele>1282.5</ele><time>2026-03-24T10:42:03.961Z</time></trkpt><trkpt lat="42.2044783" lon="13.51884"><ele>1283.0</ele><time>2026-03-24T10:42:04.96Z</time></trkpt><trkpt lat="42.2043391" lon="13.518873"><ele>1283.5</ele><time>2026-03-24T10:42:05.96Z</time></trkpt><trkpt lat="42.2041944" lon="13.5189013"><ele>1284.0</ele><time>2026-03-24T10:42:06.961Z</time></trkpt><trkpt lat="42.2040454" lon="13.5189335"><ele>1283.5</ele><time>2026-03-24T10:42:07.96Z</time></trkpt><trkpt lat="42.203899" lon="13.5189618"><ele>1283.0</ele><time>2026-03-24T10:42:08.961Z</time></trkpt><trkpt lat="42.2037515" lon="13.5189909"><ele>1282.5</ele><time>2026-03-24T10:42:09.961Z</time></trkpt><trkpt lat="42.2036075" lon="13.5190229"><ele>1282.0</ele><time>2026-03-24T10:42:10.96Z</time></trkpt><trkpt lat="42.2034652" lon="13.5190539"><ele>1282.0</ele><time>2026-03-24T10:42:11.96Z</time></trkpt><trkpt lat="42.2033218" lon="13.5190908"><ele>1282.0</ele><time>2026-03-24T10:42:12.96Z</time></trkpt><trkpt lat="42.2031759" lon="13.5191231"><ele>1282.0</ele><time>2026-03-24T10:42:13.96Z</time></trkpt><trkpt lat="42.2030288" lon="13.5191586"><ele>1282.0</ele><time>2026-03-24T10:42:14.96Z</time></trkpt><trkpt lat="42.2028795" lon="13.5191944"><ele>1281.6666666666665</ele><time>2026-03-24T10:42:15.96Z</time></trkpt><trkpt lat="42.2027331" lon="13.5192275"><ele>1281.3333333333333</ele><time>2026-03-24T10:42:16.96Z</time></trkpt><trkpt lat="42.2025806" lon="13.5192554"><ele>1281.0</ele><time>2026-03-24T10:42:17.96Z</time></trkpt><trkpt lat="42.2024354" lon="13.5192887"><ele>1281.25</ele><time>2026-03-24T10:42:18.96Z</time></trkpt><trkpt lat="42.2022874" lon="13.5193178"><ele>1281.5</ele><time>2026-03-24T10:42:19.961Z</time></trkpt><trkpt lat="42.202145" lon="13.5193468"><ele>1281.75</ele><time>2026-03-24T10:42:20.961Z</time></trkpt><trkpt lat="42.2020031" lon="13.5193809"><ele>1282.0</ele><time>2026-03-24T10:42:21.96Z</time></trkpt><trkpt lat="42.2018649" lon="13.5194138"><ele>1282.0</ele><time>2026-03-24T10:42:22.96Z</time></trkpt><trkpt lat="42.201734" lon="13.5194407"><ele>1282.0</ele><time>2026-03-24T10:42:23.96Z</time></trkpt><trkpt lat="42.2016068" lon="13.5194715"><ele>1282.0</ele><time>2026-03-24T10:42:24.96Z</time></trkpt><trkpt lat="42.2014873" lon="13.5194997"><ele>1282.0</ele><time>2026-03-24T10:42:25.96Z</time></trkpt><trkpt lat="42.2013777" lon="13.5195234"><ele>1282.1666666666665</ele><time>2026-03-24T10:42:26.96Z</time></trkpt><trkpt lat="42.2012801" lon="13.519547"><ele>1282.3333333333333</ele><time>2026-03-24T10:42:27.961Z</time></trkpt><trkpt lat="42.2011939" lon="13.5195657"><ele>1282.5</ele><time>2026-03-24T10:42:28.96Z</time></trkpt><trkpt lat="42.2011197" lon="13.5195811"><ele>1282.6666666666667</ele><time>2026-03-24T10:42:29.96Z</time></trkpt><trkpt lat="42.201051" lon="13.5195885"><ele>1282.8333333333335</ele><time>2026-03-24T10:42:30.961Z</time></trkpt><trkpt lat="42.2009747" lon="13.5195901"><ele>1283.0</ele><time>2026-03-24T10:42:31.96Z</time></trkpt><trkpt lat="42.2008936" lon="13.5196041"><ele>1283.0</ele><time>2026-03-24T10:42:32.961Z</time></trkpt><trkpt lat="42.200809" lon="13.5196305"><ele>1283.0</ele><time>2026-03-24T10:42:33.961Z</time></trkpt><trkpt lat="42.2007115" lon="13.5196663"><ele>1283.0</ele><time>2026-03-24T10:42:34.961Z</time></trkpt><trkpt lat="42.2005956" lon="13.5196989"><ele>1283.0</ele><time>2026-03-24T10:42:35.961Z</time></trkpt><trkpt lat="42.2004585" lon="13.5197243"><ele>1283.0</ele><time>2026-03-24T10:42:36.961Z</time></trkpt><trkpt lat="42.2003154" lon="13.519758"><ele>1283.3333333333335</ele><time>2026-03-24T10:42:37.96Z</time></trkpt><trkpt lat="42.2001677" lon="13.5197859"><ele>1283.6666666666667</ele><time>2026-03-24T10:42:38.96Z</time></trkpt><trkpt lat="42.2000156" lon="13.5198144"><ele>1284.0</ele><time>2026-03-24T10:42:39.961Z</time></trkpt><trkpt lat="42.1998593" lon="13.5198439"><ele>1283.3333333333333</ele><time>2026-03-24T10:42:40.961Z</time></trkpt><trkpt lat="42.1997005" lon="13.519877"><ele>1282.6666666666665</ele><time>2026-03-24T10:42:41.96Z</time></trkpt><trkpt lat="42.1995354" lon="13.519914"><ele>1282.0</ele><time>2026-03-24T10:42:42.96Z</time></trkpt><trkpt lat="42.1993701" lon="13.5199528"><ele>1282.0</ele><time>2026-03-24T10:42:43.96Z</time></trkpt><trkpt lat="42.1991973" lon="13.5199927"><ele>1282.0</ele><time>2026-03-24T10:42:44.961Z</time></trkpt><trkpt lat="42.1990235" lon="13.5200313"><ele>1282.0</ele><time>2026-03-24T10:42:45.96Z</time></trkpt><trkpt lat="42.1988466" lon="13.5200686"><ele>1281.6666666666665</ele><time>2026-03-24T10:42:46.96Z</time></trkpt><trkpt lat="42.1986678" lon="13.5201126"><ele>1281.3333333333333</ele><time>2026-03-24T10:42:47.96Z</time></trkpt><trkpt lat="42.1984888" lon="13.5201522"><ele>1281.0</ele><time>2026-03-24T10:42:48.961Z</time></trkpt><trkpt lat="42.1983065" lon="13.5201876"><ele>1281.6666666666667</ele><time>2026-03-24T10:42:49.961Z</time></trkpt><trkpt lat="42.1981263" lon="13.5202302"><ele>1282.3333333333335</ele><time>2026-03-24T10:42:50.961Z</time></trkpt><trkpt lat="42.1979425" lon="13.5202682"><ele>1283.0</ele><time>2026-03-24T10:42:51.961Z</time></trkpt><trkpt lat="42.1977579" lon="13.5203052"><ele>1283.0</ele><time>2026-03-24T10:42:52.96Z</time></trkpt><trkpt lat="42.197573" lon="13.5203464"><ele>1283.0</ele><time>2026-03-24T10:42:53.96Z</time></trkpt><trkpt lat="42.1973899" lon="13.5203872"><ele>1283.0</ele><time>2026-03-24T10:42:54.96Z</time></trkpt><trkpt lat="42.1971987" lon="13.5204322"><ele>1283.6666666666667</ele><time>2026-03-24T10:42:55.96Z</time></trkpt><trkpt lat="42.1970079" lon="13.5204726"><ele>1284.3333333333333</ele><time>2026-03-24T10:42:56.961Z</time></trkpt><trkpt lat="42.1968173" lon="13.5205161"><ele>1285.0</ele><time>2026-03-24T10:42:57.961Z</time></trkpt><trkpt lat="42.1966242" lon="13.5205615"><ele>1285.6666666666665</ele><time>2026-03-24T10:42:58.96Z</time></trkpt><trkpt lat="42.1964327" lon="13.5206034"><ele>1286.3333333333333</ele><time>2026-03-24T10:42:59.96Z</time></trkpt><trkpt lat="42.1962393" lon="13.5206467"><ele>1287.0</ele><time>2026-03-24T10:43:00.961Z</time></trkpt><trkpt lat="42.1960498" lon="13.5206885"><ele>1287.0</ele><time>2026-03-24T10:43:01.961Z</time></trkpt><trkpt lat="42.1958623" lon="13.5207283"><ele>1287.0</ele><time>2026-03-24T10:43:02.961Z</time></trkpt><trkpt lat="42.1956727" lon="13.5207686"><ele>1287.0</ele><time>2026-03-24T10:43:03.96Z</time></trkpt><trkpt lat="42.195479" lon="13.5208087"><ele>1288.3333333333333</ele><time>2026-03-24T10:43:04.961Z</time></trkpt><trkpt lat="42.1952895" lon="13.5208449"><ele>1289.6666666666665</ele><time>2026-03-24T10:43:05.96Z</time></trkpt><trkpt lat="42.1950983" lon="13.520888"><ele>1291.0</ele><time>2026-03-24T10:43:06.96Z</time></trkpt><trkpt lat="42.1949053" lon="13.5209319"><ele>1291.6666666666665</ele><time>2026-03-24T10:43:07.96Z</time></trkpt><trkpt lat="42.1947088" lon="13.5209751"><ele>1292.3333333333333</ele><time>2026-03-24T10:43:08.96Z</time></trkpt><trkpt lat="42.1945124" lon="13.5210201"><ele>1293.0</ele><time>2026-03-24T10:43:09.96Z</time></trkpt><trkpt lat="42.1943161" lon="13.5210653"><ele>1293.0</ele><time>2026-03-24T10:43:10.961Z</time></trkpt><trkpt lat="42.1941148" lon="13.5211087"><ele>1293.0</ele><time>2026-03-24T10:43:11.961Z</time></trkpt><trkpt lat="42.1939148" lon="13.5211546"><ele>1293.0</ele><time>2026-03-24T10:43:12.961Z</time></trkpt><trkpt lat="42.1937119" lon="13.5212012"><ele>1294.0</ele><time>2026-03-24T10:43:13.961Z</time></trkpt><trkpt lat="42.193512" lon="13.5212473"><ele>1295.0</ele><time>2026-03-24T10:43:14.961Z</time></trkpt><trkpt lat="42.1933136" lon="13.5212877"><ele>1296.0</ele><time>2026-03-24T10:43:15.96Z</time></trkpt><trkpt lat="42.1931171" lon="13.5213271"><ele>1297.6666666666667</ele><time>2026-03-24T10:43:16.96Z</time></trkpt><trkpt lat="42.192921" lon="13.5213698"><ele>1299.3333333333335</ele><time>2026-03-24T10:43:17.961Z</time></trkpt><trkpt lat="42.1927271" lon="13.5214135"><ele>1301.0</ele><time>2026-03-24T10:43:18.96Z</time></trkpt><trkpt lat="42.1925372" lon="13.5214531"><ele>1301.0</ele><time>2026-03-24T10:43:19.961Z</time></trkpt><trkpt lat="42.192342" lon="13.5214867"><ele>1301.0</ele><time>2026-03-24T10:43:20.96Z</time></trkpt><trkpt lat="42.1921507" lon="13.521501"><ele>1301.0</ele><time>2026-03-24T10:43:21.96Z</time></trkpt><trkpt lat="42.1919573" lon="13.5214967"><ele>1302.0</ele><time>2026-03-24T10:43:22.961Z</time></trkpt><trkpt lat="42.1917638" lon="13.5214732"><ele>1303.0</ele><time>2026-03-24T10:43:23.96Z</time></trkpt><trkpt lat="42.1915738" lon="13.5214351"><ele>1304.0</ele><time>2026-03-24T10:43:24.96Z</time></trkpt><trkpt lat="42.1913837" lon="13.5213807"><ele>1304.0</ele><time>2026-03-24T10:43:25.96Z</time></trkpt><trkpt lat="42.1911965" lon="13.5213137"><ele>1304.0</ele><time>2026-03-24T10:43:26.96Z</time></trkpt><trkpt lat="42.1910134" lon="13.5212283"><ele>1304.0</ele><time>2026-03-24T10:43:27.96Z</time></trkpt><trkpt lat="42.1908358" lon="13.5211279"><ele>1303.6666666666667</ele><time>2026-03-24T10:43:28.96Z</time></trkpt><trkpt lat="42.190663" lon="13.5210128"><ele>1303.3333333333333</ele><time>2026-03-24T10:43:29.961Z</time></trkpt><trkpt lat="42.1904936" lon="13.5208819"><ele>1303.0</ele><time>2026-03-24T10:43:30.961Z</time></trkpt><trkpt lat="42.190335" lon="13.5207379"><ele>1303.0</ele><time>2026-03-24T10:43:31.961Z</time></trkpt><trkpt lat="42.1901807" lon="13.5205735"><ele>1303.0</ele><time>2026-03-24T10:43:32.961Z</time></trkpt><trkpt lat="42.1900471" lon="13.5203846"><ele>1303.0</ele><time>2026-03-24T10:43:33.96Z</time></trkpt><trkpt lat="42.1899257" lon="13.5201727"><ele>1304.0</ele><time>2026-03-24T10:43:34.96Z</time></trkpt><trkpt lat="42.1898098" lon="13.5199481"><ele>1305.0</ele><time>2026-03-24T10:43:35.96Z</time></trkpt><trkpt lat="42.1896961" lon="13.519719"><ele>1306.0</ele><time>2026-03-24T10:43:36.961Z</time></trkpt><trkpt lat="42.1895819" lon="13.5194825"><ele>1307.3333333333333</ele><time>2026-03-24T10:43:37.96Z</time></trkpt><trkpt lat="42.1894636" lon="13.5192485"><ele>1308.6666666666667</ele><time>2026-03-24T10:43:38.96Z</time></trkpt><trkpt lat="42.1893464" lon="13.5190111"><ele>1310.0</ele><time>2026-03-24T10:43:39.96Z</time></trkpt><trkpt lat="42.189228" lon="13.5187685"><ele>1310.0</ele><time>2026-03-24T10:43:40.96Z</time></trkpt><trkpt lat="42.1891065" lon="13.5185261"><ele>1310.0</ele><time>2026-03-24T10:43:41.96Z</time></trkpt><trkpt lat="42.1889877" lon="13.5182859"><ele>1310.0</ele><time>2026-03-24T10:43:42.96Z</time></trkpt><trkpt lat="42.1888723" lon="13.5180471"><ele>1310.0</ele><time>2026-03-24T10:43:43.96Z</time></trkpt><trkpt lat="42.1887602" lon="13.5178127"><ele>1310.0</ele><time>2026-03-24T10:43:44.961Z</time></trkpt><trkpt lat="42.1886412" lon="13.517583"><ele>1310.0</ele><time>2026-03-24T10:43:45.96Z</time></trkpt><trkpt lat="42.1885258" lon="13.5173499"><ele>1310.0</ele><time>2026-03-24T10:43:46.96Z</time></trkpt><trkpt lat="42.1884111" lon="13.51712"><ele>1310.0</ele><time>2026-03-24T10:43:47.961Z</time></trkpt><trkpt lat="42.1882978" lon="13.5168937"><ele>1310.0</ele><time>2026-03-24T10:43:48.96Z</time></trkpt><trkpt lat="42.1881905" lon="13.516674"><ele>1311.0</ele><time>2026-03-24T10:43:49.96Z</time></trkpt><trkpt lat="42.1880849" lon="13.5164617"><ele>1312.0</ele><time>2026-03-24T10:43:50.961Z</time></trkpt><trkpt lat="42.1879799" lon="13.5162536"><ele>1313.0</ele><time>2026-03-24T10:43:51.961Z</time></trkpt><trkpt lat="42.1878799" lon="13.5160472"><ele>1313.0</ele><time>2026-03-24T10:43:52.96Z</time></trkpt><trkpt lat="42.1877775" lon="13.5158456"><ele>1313.0</ele><time>2026-03-24T10:43:53.96Z</time></trkpt><trkpt lat="42.1876807" lon="13.5156566"><ele>1313.0</ele><time>2026-03-24T10:43:54.96Z</time></trkpt><trkpt lat="42.1875847" lon="13.51547"><ele>1313.6666666666667</ele><time>2026-03-24T10:43:55.96Z</time></trkpt><trkpt lat="42.1874941" lon="13.5152937"><ele>1314.3333333333333</ele><time>2026-03-24T10:43:56.96Z</time></trkpt><trkpt lat="42.1873935" lon="13.515137"><ele>1315.0</ele><time>2026-03-24T10:43:57.96Z</time></trkpt><trkpt lat="42.1872716" lon="13.5150172"><ele>1315.5</ele><time>2026-03-24T10:43:58.961Z</time></trkpt><trkpt lat="42.1871414" lon="13.5149462"><ele>1316.0</ele><time>2026-03-24T10:43:59.96Z</time></trkpt><trkpt lat="42.1870034" lon="13.514911"><ele>1316.5</ele><time>2026-03-24T10:44:00.96Z</time></trkpt><trkpt lat="42.1868563" lon="13.5148968"><ele>1317.0</ele><time>2026-03-24T10:44:01.961Z</time></trkpt><trkpt lat="42.1867045" lon="13.5148823"><ele>1317.0</ele><time>2026-03-24T10:44:02.96Z</time></trkpt><trkpt lat="42.1865458" lon="13.5148667"><ele>1317.0</ele><time>2026-03-24T10:44:03.961Z</time></trkpt><trkpt lat="42.186383" lon="13.5148423"><ele>1317.0</ele><time>2026-03-24T10:44:04.96Z</time></trkpt><trkpt lat="42.1862204" lon="13.5148222"><ele>1318.0</ele><time>2026-03-24T10:44:05.961Z</time></trkpt><trkpt lat="42.1860635" lon="13.5147975"><ele>1319.0</ele><time>2026-03-24T10:44:06.96Z</time></trkpt><trkpt lat="42.1859022" lon="13.5147725"><ele>1320.0</ele><time>2026-03-24T10:44:07.961Z</time></trkpt><trkpt lat="42.1857468" lon="13.514743"><ele>1319.3333333333333</ele><time>2026-03-24T10:44:08.96Z</time></trkpt><trkpt lat="42.1855934" lon="13.5147079"><ele>1318.6666666666665</ele><time>2026-03-24T10:44:09.96Z</time></trkpt><trkpt lat="42.1854394" lon="13.5146754"><ele>1318.0</ele><time>2026-03-24T10:44:10.96Z</time></trkpt><trkpt lat="42.1852824" lon="13.5146452"><ele>1318.0</ele><time>2026-03-24T10:44:11.961Z</time></trkpt><trkpt lat="42.1851222" lon="13.5146105"><ele>1318.0</ele><time>2026-03-24T10:44:12.96Z</time></trkpt><trkpt lat="42.1849614" lon="13.5145786"><ele>1318.0</ele><time>2026-03-24T10:44:13.961Z</time></trkpt><trkpt lat="42.184798" lon="13.5145465"><ele>1319.3333333333333</ele><time>2026-03-24T10:44:14.96Z</time></trkpt><trkpt lat="42.1846328" lon="13.5145143"><ele>1320.6666666666667</ele><time>2026-03-24T10:44:15.961Z</time></trkpt><trkpt lat="42.1844653" lon="13.5144824"><ele>1322.0</ele><time>2026-03-24T10:44:16.96Z</time></trkpt><trkpt lat="42.1842966" lon="13.5144483"><ele>1322.0</ele><time>2026-03-24T10:44:17.96Z</time></trkpt><trkpt lat="42.1841257" lon="13.5144112"><ele>1322.0</ele><time>2026-03-24T10:44:18.96Z</time></trkpt><trkpt lat="42.1839501" lon="13.5143756"><ele>1322.0</ele><time>2026-03-24T10:44:19.961Z</time></trkpt><trkpt lat="42.1837787" lon="13.5143439"><ele>1323.3333333333335</ele><time>2026-03-24T10:44:20.96Z</time></trkpt><trkpt lat="42.1836034" lon="13.5143085"><ele>1324.6666666666667</ele><time>2026-03-24T10:44:21.96Z</time></trkpt><trkpt lat="42.1834278" lon="13.5142686"><ele>1326.0</ele><time>2026-03-24T10:44:22.961Z</time></trkpt><trkpt lat="42.1832506" lon="13.514232"><ele>1326.6666666666667</ele><time>2026-03-24T10:44:23.96Z</time></trkpt><trkpt lat="42.1830724" lon="13.5142035"><ele>1327.3333333333335</ele><time>2026-03-24T10:44:24.961Z</time></trkpt><trkpt lat="42.182893" lon="13.514187"><ele>1328.0</ele><time>2026-03-24T10:44:25.961Z</time></trkpt><trkpt lat="42.1827118" lon="13.5141946"><ele>1328.0</ele><time>2026-03-24T10:44:26.96Z</time></trkpt><trkpt lat="42.1825318" lon="13.5142249"><ele>1328.0</ele><time>2026-03-24T10:44:27.96Z</time></trkpt><trkpt lat="42.1823526" lon="13.5142808"><ele>1328.0</ele><time>2026-03-24T10:44:28.96Z</time></trkpt><trkpt lat="42.1821778" lon="13.5143587"><ele>1328.0</ele><time>2026-03-24T10:44:29.96Z</time></trkpt><trkpt lat="42.1820111" lon="13.5144535"><ele>1328.0</ele><time>2026-03-24T10:44:30.96Z</time></trkpt><trkpt lat="42.1818558" lon="13.514569"><ele>1328.0</ele><time>2026-03-24T10:44:31.96Z</time></trkpt><trkpt lat="42.1817135" lon="13.514707"><ele>1328.0</ele><time>2026-03-24T10:44:32.961Z</time></trkpt><trkpt lat="42.1815915" lon="13.5148454"><ele>1328.0</ele><time>2026-03-24T10:44:33.961Z</time></trkpt><trkpt lat="42.1814809" lon="13.514977"><ele>1328.0</ele><time>2026-03-24T10:44:34.96Z</time></trkpt><trkpt lat="42.1813726" lon="13.5150972"><ele>1328.0</ele><time>2026-03-24T10:44:35.96Z</time></trkpt><trkpt lat="42.181264" lon="13.5151971"><ele>1330.0</ele><time>2026-03-24T10:44:36.96Z</time></trkpt><trkpt lat="42.1811475" lon="13.5152633"><ele>1332.0</ele><time>2026-03-24T10:44:37.96Z</time></trkpt><trkpt lat="42.1810218" lon="13.5152807"><ele>1334.0</ele><time>2026-03-24T10:44:38.96Z</time></trkpt><trkpt lat="42.1808878" lon="13.5152569"><ele>1336.0</ele><time>2026-03-24T10:44:39.961Z</time></trkpt><trkpt lat="42.1807502" lon="13.5152004"><ele>1337.0</ele><time>2026-03-24T10:44:40.961Z</time></trkpt><trkpt lat="42.1806143" lon="13.5151246"><ele>1338.0</ele><time>2026-03-24T10:44:41.96Z</time></trkpt><trkpt lat="42.1804811" lon="13.5150425"><ele>1339.0</ele><time>2026-03-24T10:44:42.96Z</time></trkpt><trkpt lat="42.1803464" lon="13.5149597"><ele>1340.0</ele><time>2026-03-24T10:44:43.96Z</time></trkpt><trkpt lat="42.1802125" lon="13.5148747"><ele>1340.0</ele><time>2026-03-24T10:44:44.96Z</time></trkpt><trkpt lat="42.1800787" lon="13.5147973"><ele>1340.0</ele><time>2026-03-24T10:44:45.96Z</time></trkpt><trkpt lat="42.1799542" lon="13.5147199"><ele>1340.0</ele><time>2026-03-24T10:44:46.96Z</time></trkpt><trkpt lat="42.179837" lon="13.5146663"><ele>1340.0</ele><time>2026-03-24T10:44:47.96Z</time></trkpt><trkpt lat="42.1797242" lon="13.514635"><ele>1343.25</ele><time>2026-03-24T10:44:48.961Z</time></trkpt><trkpt lat="42.1796126" lon="13.514683"><ele>1346.5</ele><time>2026-03-24T10:44:49.961Z</time></trkpt><trkpt lat="42.179522" lon="13.5147652"><ele>1349.75</ele><time>2026-03-24T10:44:50.96Z</time></trkpt><trkpt lat="42.1794577" lon="13.514888"><ele>1353.0</ele><time>2026-03-24T10:44:51.96Z</time></trkpt><trkpt lat="42.1794189" lon="13.5150418"><ele>1353.0</ele><time>2026-03-24T10:44:52.96Z</time></trkpt><trkpt lat="42.1793886" lon="13.5152057"><ele>1353.0</ele><time>2026-03-24T10:44:53.96Z</time></trkpt><trkpt lat="42.1793495" lon="13.5153798"><ele>1353.0</ele><time>2026-03-24T10:44:54.96Z</time></trkpt><trkpt lat="42.1793118" lon="13.5155552"><ele>1353.0</ele><time>2026-03-24T10:44:55.96Z</time></trkpt><trkpt lat="42.1792656" lon="13.5157401"><ele>1353.25</ele><time>2026-03-24T10:44:56.96Z</time></trkpt><trkpt lat="42.1792184" lon="13.5159265"><ele>1353.5</ele><time>2026-03-24T10:44:57.96Z</time></trkpt><trkpt lat="42.1791786" lon="13.5161025"><ele>1353.75</ele><time>2026-03-24T10:44:58.96Z</time></trkpt><trkpt lat="42.1791412" lon="13.5162643"><ele>1354.0</ele><time>2026-03-24T10:44:59.961Z</time></trkpt><trkpt lat="42.1790944" lon="13.516408"><ele>1354.4</ele><time>2026-03-24T10:45:00.961Z</time></trkpt><trkpt lat="42.179026" lon="13.516523"><ele>1354.8000000000002</ele><time>2026-03-24T10:45:01.96Z</time></trkpt><trkpt lat="42.1789401" lon="13.5165995"><ele>1355.1999999999998</ele><time>2026-03-24T10:45:02.96Z</time></trkpt><trkpt lat="42.178838" lon="13.5166402"><ele>1355.6</ele><time>2026-03-24T10:45:03.961Z</time></trkpt><trkpt lat="42.1787218" lon="13.51665"><ele>1356.0</ele><time>2026-03-24T10:45:04.961Z</time></trkpt><trkpt lat="42.1786006" lon="13.5166424"><ele>1356.0</ele><time>2026-03-24T10:45:05.96Z</time></trkpt><trkpt lat="42.1784694" lon="13.5166182"><ele>1356.0</ele><time>2026-03-24T10:45:06.961Z</time></trkpt><trkpt lat="42.1783381" lon="13.516573"><ele>1356.0</ele><time>2026-03-24T10:45:07.96Z</time></trkpt><trkpt lat="42.1782015" lon="13.5165083"><ele>1356.0</ele><time>2026-03-24T10:45:08.961Z</time></trkpt><trkpt lat="42.1780696" lon="13.5164253"><ele>1357.75</ele><time>2026-03-24T10:45:09.96Z</time></trkpt><trkpt lat="42.1779419" lon="13.5163238"><ele>1359.5</ele><time>2026-03-24T10:45:10.961Z</time></trkpt><trkpt lat="42.1778204" lon="13.5162098"><ele>1361.25</ele><time>2026-03-24T10:45:11.96Z</time></trkpt><trkpt lat="42.1776962" lon="13.5161055"><ele>1363.0</ele><time>2026-03-24T10:45:12.961Z</time></trkpt><trkpt lat="42.1775831" lon="13.5160085"><ele>1363.0</ele><time>2026-03-24T10:45:13.96Z</time></trkpt><trkpt lat="42.177475" lon="13.5159174"><ele>1363.0</ele><time>2026-03-24T10:45:14.961Z</time></trkpt><trkpt lat="42.1773684" lon="13.5158347"><ele>1363.0</ele><time>2026-03-24T10:45:15.961Z</time></trkpt><trkpt lat="42.1772602" lon="13.5157479"><ele>1363.0</ele><time>2026-03-24T10:45:16.961Z</time></trkpt><trkpt lat="42.1771285" lon="13.5156767"><ele>1362.75</ele><time>2026-03-24T10:45:17.96Z</time></trkpt><trkpt lat="42.176994" lon="13.5156152"><ele>1362.5</ele><time>2026-03-24T10:45:18.96Z</time></trkpt><trkpt lat="42.1768461" lon="13.5155974"><ele>1362.25</ele><time>2026-03-24T10:45:19.961Z</time></trkpt><trkpt lat="42.1766948" lon="13.5156011"><ele>1362.0</ele><time>2026-03-24T10:45:20.96Z</time></trkpt><trkpt lat="42.1765376" lon="13.5156264"><ele>1360.3333333333333</ele><time>2026-03-24T10:45:21.961Z</time></trkpt><trkpt lat="42.1763789" lon="13.5156594"><ele>1358.6666666666665</ele><time>2026-03-24T10:45:22.96Z</time></trkpt><trkpt lat="42.1762097" lon="13.5156997"><ele>1357.0</ele><time>2026-03-24T10:45:23.96Z</time></trkpt><trkpt lat="42.1760463" lon="13.5157358"><ele>1357.0</ele><time>2026-03-24T10:45:24.96Z</time></trkpt><trkpt lat="42.1758814" lon="13.5157749"><ele>1357.0</ele><time>2026-03-24T10:45:25.96Z</time></trkpt><trkpt lat="42.1757246" lon="13.5158082"><ele>1357.0</ele><time>2026-03-24T10:45:26.961Z</time></trkpt><trkpt lat="42.1755711" lon="13.515844"><ele>1356.3333333333333</ele><time>2026-03-24T10:45:27.96Z</time></trkpt><trkpt lat="42.1754114" lon="13.5158761"><ele>1355.6666666666667</ele><time>2026-03-24T10:45:28.96Z</time></trkpt><trkpt lat="42.1752582" lon="13.5159042"><ele>1355.0</ele><time>2026-03-24T10:45:29.96Z</time></trkpt><trkpt lat="42.1751104" lon="13.5159391"><ele>1355.0</ele><time>2026-03-24T10:45:30.96Z</time></trkpt><trkpt lat="42.174976" lon="13.5159751"><ele>1355.0</ele><time>2026-03-24T10:45:31.96Z</time></trkpt><trkpt lat="42.1748503" lon="13.5160079"><ele>1355.0</ele><time>2026-03-24T10:45:32.96Z</time></trkpt><trkpt lat="42.1747308" lon="13.5160416"><ele>1355.0</ele><time>2026-03-24T10:45:33.96Z</time></trkpt><trkpt lat="42.1746118" lon="13.5160696"><ele>1354.8333333333335</ele><time>2026-03-24T10:45:34.96Z</time></trkpt><trkpt lat="42.1745107" lon="13.5160948"><ele>1354.6666666666667</ele><time>2026-03-24T10:45:35.96Z</time></trkpt><trkpt lat="42.1744179" lon="13.5161119"><ele>1354.5</ele><time>2026-03-24T10:45:36.961Z</time></trkpt><trkpt lat="42.1743343" lon="13.5161135"><ele>1354.3333333333333</ele><time>2026-03-24T10:45:37.96Z</time></trkpt><trkpt lat="42.1742591" lon="13.516093"><ele>1354.1666666666665</ele><time>2026-03-24T10:45:38.96Z</time></trkpt><trkpt lat="42.1741904" lon="13.5160924"><ele>1354.0</ele><time>2026-03-24T10:45:39.96Z</time></trkpt><trkpt lat="42.174122" lon="13.5161186"><ele>1354.0</ele><time>2026-03-24T10:45:40.96Z</time></trkpt><trkpt lat="42.1740448" lon="13.5161762"><ele>1354.0</ele><time>2026-03-24T10:45:41.961Z</time></trkpt><trkpt lat="42.1739503" lon="13.5162213"><ele>1354.0</ele><time>2026-03-24T10:45:42.96Z</time></trkpt><trkpt lat="42.173836" lon="13.5162573"><ele>1354.0</ele><time>2026-03-24T10:45:43.961Z</time></trkpt><trkpt lat="42.1737226" lon="13.5162841"><ele>1354.0</ele><time>2026-03-24T10:45:44.961Z</time></trkpt><trkpt lat="42.1735999" lon="13.5163125"><ele>1353.5</ele><time>2026-03-24T10:45:45.96Z</time></trkpt><trkpt lat="42.1734665" lon="13.516344"><ele>1353.0</ele><time>2026-03-24T10:45:46.961Z</time></trkpt><trkpt lat="42.1733296" lon="13.5163761"><ele>1352.5</ele><time>2026-03-24T10:45:47.96Z</time></trkpt><trkpt lat="42.173194" lon="13.5164062"><ele>1352.0</ele><time>2026-03-24T10:45:48.96Z</time></trkpt><trkpt lat="42.1730495" lon="13.5164382"><ele>1351.0</ele><time>2026-03-24T10:45:49.96Z</time></trkpt><trkpt lat="42.1729019" lon="13.5164747"><ele>1350.0</ele><time>2026-03-24T10:45:50.961Z</time></trkpt><trkpt lat="42.1727481" lon="13.5165158"><ele>1349.0</ele><time>2026-03-24T10:45:51.96Z</time></trkpt><trkpt lat="42.1725838" lon="13.5165586"><ele>1349.0</ele><time>2026-03-24T10:45:52.96Z</time></trkpt><trkpt lat="42.1724099" lon="13.5165974"><ele>1349.0</ele><time>2026-03-24T10:45:53.961Z</time></trkpt><trkpt lat="42.1722284" lon="13.5166405"><ele>1349.0</ele><time>2026-03-24T10:45:54.96Z</time></trkpt><trkpt lat="42.1720419" lon="13.5166807"><ele>1349.0</ele><time>2026-03-24T10:45:55.96Z</time></trkpt><trkpt lat="42.1718445" lon="13.516728"><ele>1349.0</ele><time>2026-03-24T10:45:56.96Z</time></trkpt><trkpt lat="42.1716337" lon="13.5167787"><ele>1349.0</ele><time>2026-03-24T10:45:57.96Z</time></trkpt><trkpt lat="42.1714079" lon="13.5168307"><ele>1348.0</ele><time>2026-03-24T10:45:58.96Z</time></trkpt><trkpt lat="42.1711721" lon="13.5168865"><ele>1347.0</ele><time>2026-03-24T10:45:59.96Z</time></trkpt><trkpt lat="42.1709396" lon="13.5169388"><ele>1347.0</ele><time>2026-03-24T10:46:00.96Z</time></trkpt><trkpt lat="42.1707233" lon="13.5169929"><ele>1347.0</ele><time>2026-03-24T10:46:01.961Z</time></trkpt><trkpt lat="42.1705179" lon="13.5170403"><ele>1347.0</ele><time>2026-03-24T10:46:02.961Z</time></trkpt><trkpt lat="42.1703095" lon="13.5170891"><ele>1348.0</ele><time>2026-03-24T10:46:03.96Z</time></trkpt><trkpt lat="42.1701064" lon="13.5171361"><ele>1349.0</ele><time>2026-03-24T10:46:04.961Z</time></trkpt><trkpt lat="42.1698992" lon="13.5171833"><ele>1350.0</ele><time>2026-03-24T10:46:05.96Z</time></trkpt><trkpt lat="42.1696913" lon="13.5172344"><ele>1350.3333333333333</ele><time>2026-03-24T10:46:06.96Z</time></trkpt><trkpt lat="42.1694834" lon="13.5172821"><ele>1350.6666666666665</ele><time>2026-03-24T10:46:07.96Z</time></trkpt><trkpt lat="42.169275" lon="13.5173322"><ele>1351.0</ele><time>2026-03-24T10:46:08.96Z</time></trkpt><trkpt lat="42.1690641" lon="13.5173816"><ele>1349.6666666666665</ele><time>2026-03-24T10:46:09.96Z</time></trkpt><trkpt lat="42.1688556" lon="13.5174268"><ele>1348.3333333333333</ele><time>2026-03-24T10:46:10.96Z</time></trkpt><trkpt lat="42.168648" lon="13.5174744"><ele>1347.0</ele><time>2026-03-24T10:46:11.96Z</time></trkpt><trkpt lat="42.1684491" lon="13.5175219"><ele>1347.0</ele><time>2026-03-24T10:46:12.96Z</time></trkpt><trkpt lat="42.1682498" lon="13.517575"><ele>1347.0</ele><time>2026-03-24T10:46:13.96Z</time></trkpt><trkpt lat="42.1680498" lon="13.5176186"><ele>1347.0</ele><time>2026-03-24T10:46:14.961Z</time></trkpt><trkpt lat="42.1678512" lon="13.5176651"><ele>1348.3333333333333</ele><time>2026-03-24T10:46:15.96Z</time></trkpt><trkpt lat="42.1676493" lon="13.5177102"><ele>1349.6666666666665</ele><time>2026-03-24T10:46:16.961Z</time></trkpt><trkpt lat="42.1674479" lon="13.5177593"><ele>1351.0</ele><time>2026-03-24T10:46:17.961Z</time></trkpt><trkpt lat="42.1672466" lon="13.517806"><ele>1351.6666666666665</ele><time>2026-03-24T10:46:18.961Z</time></trkpt><trkpt lat="42.1670444" lon="13.517855"><ele>1352.3333333333333</ele><time>2026-03-24T10:46:19.96Z</time></trkpt><trkpt lat="42.1668459" lon="13.5179023"><ele>1353.0</ele><time>2026-03-24T10:46:20.961Z</time></trkpt><trkpt lat="42.1666489" lon="13.5179503"><ele>1353.3333333333333</ele><time>2026-03-24T10:46:21.96Z</time></trkpt><trkpt lat="42.1664527" lon="13.5179986"><ele>1353.6666666666665</ele><time>2026-03-24T10:46:22.96Z</time></trkpt><trkpt lat="42.1662589" lon="13.5180458"><ele>1354.0</ele><time>2026-03-24T10:46:23.96Z</time></trkpt><trkpt lat="42.1660656" lon="13.5180908"><ele>1354.0</ele><time>2026-03-24T10:46:24.96Z</time></trkpt><trkpt lat="42.1658736" lon="13.5181365"><ele>1354.0</ele><time>2026-03-24T10:46:25.961Z</time></trkpt><trkpt lat="42.1656917" lon="13.518178"><ele>1354.0</ele><time>2026-03-24T10:46:26.961Z</time></trkpt><trkpt lat="42.1655201" lon="13.5182161"><ele>1354.6666666666665</ele><time>2026-03-24T10:46:27.96Z</time></trkpt><trkpt lat="42.1653461" lon="13.5182488"><ele>1355.3333333333333</ele><time>2026-03-24T10:46:28.96Z</time></trkpt><trkpt lat="42.1651701" lon="13.518277"><ele>1356.0</ele><time>2026-03-24T10:46:29.961Z</time></trkpt><trkpt lat="42.1649866" lon="13.5182933"><ele>1356.0</ele><time>2026-03-24T10:46:30.961Z</time></trkpt><trkpt lat="42.1647919" lon="13.518293"><ele>1356.0</ele><time>2026-03-24T10:46:31.96Z</time></trkpt><trkpt lat="42.1645922" lon="13.5182765"><ele>1356.0</ele><time>2026-03-24T10:46:32.961Z</time></trkpt><trkpt lat="42.1643829" lon="13.5182556"><ele>1356.0</ele><time>2026-03-24T10:46:33.96Z</time></trkpt><trkpt lat="42.1641662" lon="13.5182389"><ele>1356.0</ele><time>2026-03-24T10:46:34.961Z</time></trkpt><trkpt lat="42.1639465" lon="13.5182222"><ele>1356.0</ele><time>2026-03-24T10:46:35.96Z</time></trkpt><trkpt lat="42.163727" lon="13.5182048"><ele>1356.0</ele><time>2026-03-24T10:46:36.96Z</time></trkpt><trkpt lat="42.1635157" lon="13.5181925"><ele>1356.0</ele><time>2026-03-24T10:46:37.961Z</time></trkpt><trkpt lat="42.1633085" lon="13.5181805"><ele>1356.0</ele><time>2026-03-24T10:46:38.96Z</time></trkpt><trkpt lat="42.1630999" lon="13.5181692"><ele>1355.3333333333333</ele><time>2026-03-24T10:46:39.96Z</time></trkpt><trkpt lat="42.1628958" lon="13.5181529"><ele>1354.6666666666665</ele><time>2026-03-24T10:46:40.96Z</time></trkpt><trkpt lat="42.1626942" lon="13.5181382"><ele>1354.0</ele><time>2026-03-24T10:46:41.961Z</time></trkpt><trkpt lat="42.1624888" lon="13.5181241"><ele>1354.0</ele><time>2026-03-24T10:46:42.961Z</time></trkpt><trkpt lat="42.1622864" lon="13.5181067"><ele>1354.0</ele><time>2026-03-24T10:46:43.961Z</time></trkpt><trkpt lat="42.1620834" lon="13.5180888"><ele>1354.0</ele><time>2026-03-24T10:46:44.96Z</time></trkpt><trkpt lat="42.1618772" lon="13.5180698"><ele>1354.0</ele><time>2026-03-24T10:46:45.96Z</time></trkpt><trkpt lat="42.1616723" lon="13.5180496"><ele>1354.0</ele><time>2026-03-24T10:46:46.96Z</time></trkpt><trkpt lat="42.1614674" lon="13.5180337"><ele>1354.0</ele><time>2026-03-24T10:46:47.96Z</time></trkpt><trkpt lat="42.1612662" lon="13.5180163"><ele>1355.0</ele><time>2026-03-24T10:46:48.96Z</time></trkpt><trkpt lat="42.1610646" lon="13.5180007"><ele>1356.0</ele><time>2026-03-24T10:46:49.96Z</time></trkpt><trkpt lat="42.160866" lon="13.5179852"><ele>1357.0</ele><time>2026-03-24T10:46:50.96Z</time></trkpt><trkpt lat="42.1606676" lon="13.5179688"><ele>1357.3333333333333</ele><time>2026-03-24T10:46:51.961Z</time></trkpt><trkpt lat="42.160469" lon="13.51795"><ele>1357.6666666666667</ele><time>2026-03-24T10:46:52.961Z</time></trkpt><trkpt lat="42.1602745" lon="13.5179341"><ele>1358.0</ele><time>2026-03-24T10:46:53.961Z</time></trkpt><trkpt lat="42.1600772" lon="13.5179202"><ele>1358.0</ele><time>2026-03-24T10:46:54.96Z</time></trkpt><trkpt lat="42.1598786" lon="13.5179058"><ele>1358.0</ele><time>2026-03-24T10:46:55.96Z</time></trkpt><trkpt lat="42.1596853" lon="13.5178918"><ele>1358.0</ele><time>2026-03-24T10:46:56.96Z</time></trkpt><trkpt lat="42.1594948" lon="13.5178769"><ele>1358.3333333333335</ele><time>2026-03-24T10:46:57.96Z</time></trkpt><trkpt lat="42.1593043" lon="13.5178633"><ele>1358.6666666666667</ele><time>2026-03-24T10:46:58.961Z</time></trkpt><trkpt lat="42.1591058" lon="13.5178498"><ele>1359.0</ele><time>2026-03-24T10:46:59.961Z</time></trkpt><trkpt lat="42.1589044" lon="13.5178325"><ele>1359.6666666666667</ele><time>2026-03-24T10:47:00.961Z</time></trkpt><trkpt lat="42.1586938" lon="13.5178178"><ele>1360.3333333333335</ele><time>2026-03-24T10:47:01.961Z</time></trkpt><trkpt lat="42.158479" lon="13.5178003"><ele>1361.0</ele><time>2026-03-24T10:47:02.961Z</time></trkpt><trkpt lat="42.1582591" lon="13.5177854"><ele>1360.6666666666667</ele><time>2026-03-24T10:47:03.96Z</time></trkpt><trkpt lat="42.1580416" lon="13.5177631"><ele>1360.3333333333333</ele><time>2026-03-24T10:47:04.96Z</time></trkpt><trkpt lat="42.1578318" lon="13.5177428"><ele>1360.0</ele><time>2026-03-24T10:47:05.96Z</time></trkpt><trkpt lat="42.1576291" lon="13.5177244"><ele>1360.0</ele><time>2026-03-24T10:47:06.961Z</time></trkpt><trkpt lat="42.1574296" lon="13.5177128"><ele>1360.0</ele><time>2026-03-24T10:47:07.96Z</time></trkpt><trkpt lat="42.1572338" lon="13.5176996"><ele>1360.0</ele><time>2026-03-24T10:47:08.96Z</time></trkpt><trkpt lat="42.1570364" lon="13.5176848"><ele>1360.3333333333333</ele><time>2026-03-24T10:47:09.961Z</time></trkpt><trkpt lat="42.1568348" lon="13.5176709"><ele>1360.6666666666667</ele><time>2026-03-24T10:47:10.96Z</time></trkpt><trkpt lat="42.1566303" lon="13.5176599"><ele>1361.0</ele><time>2026-03-24T10:47:11.961Z</time></trkpt><trkpt lat="42.1564277" lon="13.5176563"><ele>1362.0</ele><time>2026-03-24T10:47:12.96Z</time></trkpt><trkpt lat="42.1562255" lon="13.5176571"><ele>1363.0</ele><time>2026-03-24T10:47:13.96Z</time></trkpt><trkpt lat="42.1560202" lon="13.5176608"><ele>1364.0</ele><time>2026-03-24T10:47:14.96Z</time></trkpt><trkpt lat="42.1558146" lon="13.5176709"><ele>1363.6666666666667</ele><time>2026-03-24T10:47:15.96Z</time></trkpt><trkpt lat="42.1556054" lon="13.5176866"><ele>1363.3333333333333</ele><time>2026-03-24T10:47:16.961Z</time></trkpt><trkpt lat="42.1553973" lon="13.5177097"><ele>1363.0</ele><time>2026-03-24T10:47:17.961Z</time></trkpt><trkpt lat="42.15519" lon="13.5177305"><ele>1363.0</ele><time>2026-03-24T10:47:18.96Z</time></trkpt><trkpt lat="42.1549791" lon="13.5177478"><ele>1363.0</ele><time>2026-03-24T10:47:19.96Z</time></trkpt><trkpt lat="42.1547687" lon="13.5177678"><ele>1363.0</ele><time>2026-03-24T10:47:20.961Z</time></trkpt><trkpt lat="42.1545543" lon="13.5177876"><ele>1362.6666666666665</ele><time>2026-03-24T10:47:21.96Z</time></trkpt><trkpt lat="42.1543392" lon="13.517814"><ele>1362.3333333333333</ele><time>2026-03-24T10:47:22.96Z</time></trkpt><trkpt lat="42.1541249" lon="13.5178415"><ele>1362.0</ele><time>2026-03-24T10:47:23.96Z</time></trkpt><trkpt lat="42.153916" lon="13.5178994"><ele>1361.6666666666667</ele><time>2026-03-24T10:47:24.961Z</time></trkpt><trkpt lat="42.1537073" lon="13.5179972"><ele>1361.3333333333335</ele><time>2026-03-24T10:47:25.96Z</time></trkpt><trkpt lat="42.1535029" lon="13.5180899"><ele>1361.0</ele><time>2026-03-24T10:47:26.96Z</time></trkpt><trkpt lat="42.1532939" lon="13.5181824"><ele>1360.3333333333335</ele><time>2026-03-24T10:47:27.96Z</time></trkpt><trkpt lat="42.153086" lon="13.518276"><ele>1359.6666666666667</ele><time>2026-03-24T10:47:28.96Z</time></trkpt><trkpt lat="42.1528786" lon="13.5183687"><ele>1359.0</ele><time>2026-03-24T10:47:29.96Z</time></trkpt><trkpt lat="42.1526751" lon="13.5184663"><ele>1359.0</ele><time>2026-03-24T10:47:30.96Z</time></trkpt><trkpt lat="42.1524668" lon="13.5185619"><ele>1359.0</ele><time>2026-03-24T10:47:31.96Z</time></trkpt><trkpt lat="42.1522581" lon="13.518659"><ele>1359.0</ele><time>2026-03-24T10:47:32.96Z</time></trkpt><trkpt lat="42.1520495" lon="13.518754"><ele>1359.0</ele><time>2026-03-24T10:47:33.96Z</time></trkpt><trkpt lat="42.151842" lon="13.5188529"><ele>1359.0</ele><time>2026-03-24T10:47:34.961Z</time></trkpt><trkpt lat="42.1516343" lon="13.5189525"><ele>1359.0</ele><time>2026-03-24T10:47:35.961Z</time></trkpt><trkpt lat="42.1514235" lon="13.5190539"><ele>1358.0</ele><time>2026-03-24T10:47:36.961Z</time></trkpt><trkpt lat="42.1512163" lon="13.5191517"><ele>1357.0</ele><time>2026-03-24T10:47:37.96Z</time></trkpt><trkpt lat="42.1510209" lon="13.5192384"><ele>1356.0</ele><time>2026-03-24T10:47:38.96Z</time></trkpt><trkpt lat="42.1508257" lon="13.5193275"><ele>1356.0</ele><time>2026-03-24T10:47:39.96Z</time></trkpt><trkpt lat="42.1506312" lon="13.5194106"><ele>1356.0</ele><time>2026-03-24T10:47:40.96Z</time></trkpt><trkpt lat="42.1504285" lon="13.5194849"><ele>1356.0</ele><time>2026-03-24T10:47:41.96Z</time></trkpt><trkpt lat="42.1502173" lon="13.5195398"><ele>1355.6666666666667</ele><time>2026-03-24T10:47:42.96Z</time></trkpt><trkpt lat="42.1499961" lon="13.5195764"><ele>1355.3333333333335</ele><time>2026-03-24T10:47:43.961Z</time></trkpt><trkpt lat="42.1497722" lon="13.5196037"><ele>1355.0</ele><time>2026-03-24T10:47:44.961Z</time></trkpt><trkpt lat="42.149542" lon="13.5196304"><ele>1354.5</ele><time>2026-03-24T10:47:45.96Z</time></trkpt><trkpt lat="42.1493106" lon="13.5196555"><ele>1354.0</ele><time>2026-03-24T10:47:46.96Z</time></trkpt><trkpt lat="42.1490766" lon="13.5196825"><ele>1354.0</ele><time>2026-03-24T10:47:47.96Z</time></trkpt><trkpt lat="42.1488414" lon="13.5197071"><ele>1354.0</ele><time>2026-03-24T10:47:48.96Z</time></trkpt><trkpt lat="42.1486007" lon="13.5197344"><ele>1354.0</ele><time>2026-03-24T10:47:49.96Z</time></trkpt><trkpt lat="42.1483665" lon="13.5197595"><ele>1354.0</ele><time>2026-03-24T10:47:50.96Z</time></trkpt><trkpt lat="42.1481305" lon="13.5197837"><ele>1352.5</ele><time>2026-03-24T10:47:51.961Z</time></trkpt><trkpt lat="42.1478961" lon="13.5198114"><ele>1351.0</ele><time>2026-03-24T10:47:52.96Z</time></trkpt><trkpt lat="42.1476745" lon="13.5198411"><ele>1351.0</ele><time>2026-03-24T10:47:53.96Z</time></trkpt><trkpt lat="42.1474664" lon="13.5198666"><ele>1351.0</ele><time>2026-03-24T10:47:54.961Z</time></trkpt><trkpt lat="42.1472676" lon="13.5198905"><ele>1351.0</ele><time>2026-03-24T10:47:55.961Z</time></trkpt><trkpt lat="42.1470759" lon="13.5199117"><ele>1353.0</ele><time>2026-03-24T10:47:56.96Z</time></trkpt><trkpt lat="42.1468907" lon="13.5199306"><ele>1355.0</ele><time>2026-03-24T10:47:57.961Z</time></trkpt><trkpt lat="42.1467103" lon="13.5199461"><ele>1357.0</ele><time>2026-03-24T10:47:58.961Z</time></trkpt><trkpt lat="42.1465299" lon="13.5199631"><ele>1357.6666666666665</ele><time>2026-03-24T10:47:59.96Z</time></trkpt><trkpt lat="42.146351" lon="13.5199834"><ele>1358.3333333333333</ele><time>2026-03-24T10:48:00.96Z</time></trkpt><trkpt lat="42.1461676" lon="13.5199987"><ele>1359.0</ele><time>2026-03-24T10:48:01.96Z</time></trkpt><trkpt lat="42.1459791" lon="13.5200048"><ele>1359.0</ele><time>2026-03-24T10:48:02.96Z</time></trkpt><trkpt lat="42.1457878" lon="13.519998"><ele>1359.0</ele><time>2026-03-24T10:48:03.96Z</time></trkpt><trkpt lat="42.1455906" lon="13.5199823"><ele>1359.0</ele><time>2026-03-24T10:48:04.961Z</time></trkpt><trkpt lat="42.1453934" lon="13.5199642"><ele>1358.6666666666667</ele><time>2026-03-24T10:48:05.96Z</time></trkpt><trkpt lat="42.1452056" lon="13.5199455"><ele>1358.3333333333335</ele><time>2026-03-24T10:48:06.96Z</time></trkpt><trkpt lat="42.1450172" lon="13.5199269"><ele>1358.0</ele><time>2026-03-24T10:48:07.961Z</time></trkpt><trkpt lat="42.1448351" lon="13.5199053"><ele>1358.0</ele><time>2026-03-24T10:48:08.961Z</time></trkpt><trkpt lat="42.1446559" lon="13.519881"><ele>1358.0</ele><time>2026-03-24T10:48:09.961Z</time></trkpt><trkpt lat="42.1444749" lon="13.5198618"><ele>1358.0</ele><time>2026-03-24T10:48:10.96Z</time></trkpt><trkpt lat="42.1442973" lon="13.5198407"><ele>1358.0</ele><time>2026-03-24T10:48:11.96Z</time></trkpt><trkpt lat="42.144116" lon="13.5197997"><ele>1358.0</ele><time>2026-03-24T10:48:12.961Z</time></trkpt><trkpt lat="42.1439495" lon="13.5197302"><ele>1358.0</ele><time>2026-03-24T10:48:13.96Z</time></trkpt><trkpt lat="42.1437801" lon="13.5196283"><ele>1357.3333333333335</ele><time>2026-03-24T10:48:14.96Z</time></trkpt><trkpt lat="42.1436104" lon="13.5195176"><ele>1356.6666666666667</ele><time>2026-03-24T10:48:15.96Z</time></trkpt><trkpt lat="42.1434389" lon="13.5194052"><ele>1356.0</ele><time>2026-03-24T10:48:16.961Z</time></trkpt><trkpt lat="42.1432654" lon="13.5192862"><ele>1353.6666666666667</ele><time>2026-03-24T10:48:17.961Z</time></trkpt><trkpt lat="42.1430889" lon="13.5191669"><ele>1351.3333333333335</ele><time>2026-03-24T10:48:18.961Z</time></trkpt><trkpt lat="42.1429062" lon="13.5190461"><ele>1349.0</ele><time>2026-03-24T10:48:19.96Z</time></trkpt><trkpt lat="42.1427187" lon="13.5189232"><ele>1349.0</ele><time>2026-03-24T10:48:20.961Z</time></trkpt><trkpt lat="42.1425366" lon="13.5188002"><ele>1349.0</ele><time>2026-03-24T10:48:21.96Z</time></trkpt><trkpt lat="42.1423656" lon="13.518681"><ele>1349.0</ele><time>2026-03-24T10:48:22.961Z</time></trkpt><trkpt lat="42.1422077" lon="13.5185747"><ele>1349.0</ele><time>2026-03-24T10:48:23.96Z</time></trkpt><trkpt lat="42.1420682" lon="13.5184827"><ele>1349.0</ele><time>2026-03-24T10:48:24.96Z</time></trkpt><trkpt lat="42.1419317" lon="13.5184043"><ele>1349.0</ele><time>2026-03-24T10:48:25.961Z</time></trkpt><trkpt lat="42.141806" lon="13.5183482"><ele>1349.0</ele><time>2026-03-24T10:48:26.96Z</time></trkpt><trkpt lat="42.1417041" lon="13.5183055"><ele>1349.0</ele><time>2026-03-24T10:48:27.96Z</time></trkpt><trkpt lat="42.1416157" lon="13.5182748"><ele>1349.0</ele><time>2026-03-24T10:48:28.961Z</time></trkpt><trkpt lat="42.141532" lon="13.5182397"><ele>1349.0</ele><time>2026-03-24T10:48:29.961Z</time></trkpt><trkpt lat="42.1414551" lon="13.5181947"><ele>1349.0</ele><time>2026-03-24T10:48:30.96Z</time></trkpt><trkpt lat="42.1413902" lon="13.5181313"><ele>1349.0</ele><time>2026-03-24T10:48:31.961Z</time></trkpt><trkpt lat="42.1413339" lon="13.5180546"><ele>1349.0</ele><time>2026-03-24T10:48:32.96Z</time></trkpt><trkpt lat="42.1412793" lon="13.5179585"><ele>1349.8000000000002</ele><time>2026-03-24T10:48:33.961Z</time></trkpt><trkpt lat="42.1412443" lon="13.5178516"><ele>1350.6000000000001</ele><time>2026-03-24T10:48:34.96Z</time></trkpt><trkpt lat="42.1412298" lon="13.5177278"><ele>1351.4</ele><time>2026-03-24T10:48:35.96Z</time></trkpt><trkpt lat="42.1412426" lon="13.5175858"><ele>1352.2</ele><time>2026-03-24T10:48:36.961Z</time></trkpt><trkpt lat="42.1412707" lon="13.5174283"><ele>1353.0</ele><time>2026-03-24T10:48:37.96Z</time></trkpt><trkpt lat="42.1413103" lon="13.5172559"><ele>1354.0</ele><time>2026-03-24T10:48:38.96Z</time></trkpt><trkpt lat="42.1413535" lon="13.5170686"><ele>1355.0</ele><time>2026-03-24T10:48:39.96Z</time></trkpt><trkpt lat="42.141399" lon="13.5168737"><ele>1356.0</ele><time>2026-03-24T10:48:40.96Z</time></trkpt><trkpt lat="42.141444" lon="13.5166907"><ele>1357.0</ele><time>2026-03-24T10:48:41.96Z</time></trkpt><trkpt lat="42.1414903" lon="13.5165025"><ele>1357.0</ele><time>2026-03-24T10:48:42.96Z</time></trkpt><trkpt lat="42.1415359" lon="13.5163212"><ele>1357.0</ele><time>2026-03-24T10:48:43.96Z</time></trkpt><trkpt lat="42.1415824" lon="13.5161445"><ele>1357.0</ele><time>2026-03-24T10:48:44.961Z</time></trkpt><trkpt lat="42.1416268" lon="13.5159709"><ele>1357.0</ele><time>2026-03-24T10:48:45.96Z</time></trkpt><trkpt lat="42.1416704" lon="13.5158007"><ele>1356.0</ele><time>2026-03-24T10:48:46.961Z</time></trkpt><trkpt lat="42.1417096" lon="13.5156292"><ele>1355.0</ele><time>2026-03-24T10:48:47.96Z</time></trkpt><trkpt lat="42.1417491" lon="13.5154584"><ele>1354.0</ele><time>2026-03-24T10:48:48.961Z</time></trkpt><trkpt lat="42.1417849" lon="13.5153"><ele>1353.0</ele><time>2026-03-24T10:48:49.96Z</time></trkpt><trkpt lat="42.1418094" lon="13.5151517"><ele>1353.0</ele><time>2026-03-24T10:48:50.96Z</time></trkpt><trkpt lat="42.1418015" lon="13.5150111"><ele>1353.0</ele><time>2026-03-24T10:48:51.96Z</time></trkpt><trkpt lat="42.1417708" lon="13.5148887"><ele>1353.0</ele><time>2026-03-24T10:48:52.96Z</time></trkpt><trkpt lat="42.1417084" lon="13.5147801"><ele>1353.0</ele><time>2026-03-24T10:48:53.961Z</time></trkpt><trkpt lat="42.1416217" lon="13.5146849"><ele>1353.0</ele><time>2026-03-24T10:48:54.96Z</time></trkpt><trkpt lat="42.1415268" lon="13.5145869"><ele>1354.75</ele><time>2026-03-24T10:48:55.961Z</time></trkpt><trkpt lat="42.1414221" lon="13.5144803"><ele>1356.5</ele><time>2026-03-24T10:48:56.96Z</time></trkpt><trkpt lat="42.1413176" lon="13.5143665"><ele>1358.25</ele><time>2026-03-24T10:48:57.96Z</time></trkpt><trkpt lat="42.14121" lon="13.5142555"><ele>1360.0</ele><time>2026-03-24T10:48:58.961Z</time></trkpt><trkpt lat="42.1411167" lon="13.5141575"><ele>1360.0</ele><time>2026-03-24T10:48:59.96Z</time></trkpt><trkpt lat="42.1410323" lon="13.5140517"><ele>1360.0</ele><time>2026-03-24T10:49:00.96Z</time></trkpt><trkpt lat="42.1409418" lon="13.513953"><ele>1360.0</ele><time>2026-03-24T10:49:01.96Z</time></trkpt><trkpt lat="42.1408523" lon="13.5138529"><ele>1360.0</ele><time>2026-03-24T10:49:02.96Z</time></trkpt><trkpt lat="42.1407675" lon="13.5137599"><ele>1360.8333333333333</ele><time>2026-03-24T10:49:03.96Z</time></trkpt><trkpt lat="42.1406863" lon="13.5136727"><ele>1361.6666666666665</ele><time>2026-03-24T10:49:04.961Z</time></trkpt><trkpt lat="42.1406191" lon="13.5136031"><ele>1362.5</ele><time>2026-03-24T10:49:05.96Z</time></trkpt><trkpt lat="42.1405635" lon="13.513552"><ele>1363.3333333333333</ele><time>2026-03-24T10:49:06.96Z</time></trkpt><trkpt lat="42.1404811" lon="13.5134621"><ele>1364.1666666666667</ele><time>2026-03-24T10:49:08.961Z</time></trkpt><trkpt lat="42.1404316" lon="13.5133859"><ele>1365.0</ele><time>2026-03-24T10:49:10.96Z</time></trkpt><trkpt lat="42.1404256" lon="13.5132935"><ele>1365.0</ele><time>2026-03-24T10:49:12.96Z</time></trkpt><trkpt lat="42.140485" lon="13.513202"><ele>1365.0</ele><time>2026-03-24T10:49:14.96Z</time></trkpt><trkpt lat="42.1405816" lon="13.5131085"><ele>1365.0</ele><time>2026-03-24T10:49:16.961Z</time></trkpt><trkpt lat="42.140616" lon="13.5129673"><ele>1365.0</ele><time>2026-03-24T10:49:18.96Z</time></trkpt><trkpt lat="42.1405806" lon="13.5128187"><ele>1365.0</ele><time>2026-03-24T10:49:20.96Z</time></trkpt><trkpt lat="42.1405541" lon="13.5127122"><ele>1363.2</ele><time>2026-03-24T10:49:21.96Z</time></trkpt><trkpt lat="42.1405478" lon="13.5125996"><ele>1361.4</ele><time>2026-03-24T10:49:22.961Z</time></trkpt><trkpt lat="42.1405457" lon="13.5124647"><ele>1359.6</ele><time>2026-03-24T10:49:23.96Z</time></trkpt><trkpt lat="42.1405447" lon="13.5123093"><ele>1357.8</ele><time>2026-03-24T10:49:24.961Z</time></trkpt><trkpt lat="42.140535" lon="13.5121206"><ele>1356.0</ele><time>2026-03-24T10:49:25.96Z</time></trkpt><trkpt lat="42.140529" lon="13.5119318"><ele>1351.3333333333333</ele><time>2026-03-24T10:49:26.961Z</time></trkpt><trkpt lat="42.140528" lon="13.5117301"><ele>1346.6666666666665</ele><time>2026-03-24T10:49:27.961Z</time></trkpt><trkpt lat="42.1405291" lon="13.5115213"><ele>1342.0</ele><time>2026-03-24T10:49:28.961Z</time></trkpt><trkpt lat="42.14053" lon="13.5113196"><ele>1341.0</ele><time>2026-03-24T10:49:29.961Z</time></trkpt><trkpt lat="42.1405281" lon="13.5111262"><ele>1340.0</ele><time>2026-03-24T10:49:30.96Z</time></trkpt><trkpt lat="42.1405279" lon="13.5109602"><ele>1339.0</ele><time>2026-03-24T10:49:31.961Z</time></trkpt><trkpt lat="42.1405276" lon="13.5108095"><ele>1338.0</ele><time>2026-03-24T10:49:32.96Z</time></trkpt><trkpt lat="42.1405327" lon="13.510663"><ele>1338.0</ele><time>2026-03-24T10:49:33.96Z</time></trkpt><trkpt lat="42.1405479" lon="13.5105216"><ele>1338.0</ele><time>2026-03-24T10:49:34.96Z</time></trkpt><trkpt lat="42.140603" lon="13.5104211"><ele>1338.0</ele><time>2026-03-24T10:49:35.96Z</time></trkpt><trkpt lat="42.140671" lon="13.5103417"><ele>1338.0</ele><time>2026-03-24T10:49:36.96Z</time></trkpt><trkpt lat="42.1407507" lon="13.5102714"><ele>1338.0</ele><time>2026-03-24T10:49:37.961Z</time></trkpt><trkpt lat="42.1408354" lon="13.5101951"><ele>1340.4</ele><time>2026-03-24T10:49:38.96Z</time></trkpt><trkpt lat="42.1409201" lon="13.510103"><ele>1342.8000000000002</ele><time>2026-03-24T10:49:39.96Z</time></trkpt><trkpt lat="42.1409852" lon="13.5099885"><ele>1345.2</ele><time>2026-03-24T10:49:40.961Z</time></trkpt><trkpt lat="42.1410307" lon="13.5098566"><ele>1347.6</ele><time>2026-03-24T10:49:41.96Z</time></trkpt><trkpt lat="42.1410515" lon="13.5097092"><ele>1350.0</ele><time>2026-03-24T10:49:42.961Z</time></trkpt><trkpt lat="42.1410376" lon="13.5095634"><ele>1350.25</ele><time>2026-03-24T10:49:43.961Z</time></trkpt><trkpt lat="42.1409996" lon="13.5094249"><ele>1350.5</ele><time>2026-03-24T10:49:44.96Z</time></trkpt><trkpt lat="42.1409406" lon="13.5092955"><ele>1350.75</ele><time>2026-03-24T10:49:45.96Z</time></trkpt><trkpt lat="42.1408601" lon="13.5091828"><ele>1351.0</ele><time>2026-03-24T10:49:46.96Z</time></trkpt><trkpt lat="42.1407631" lon="13.5090919"><ele>1349.0</ele><time>2026-03-24T10:49:47.96Z</time></trkpt><trkpt lat="42.140651" lon="13.5090264"><ele>1347.0</ele><time>2026-03-24T10:49:48.96Z</time></trkpt><trkpt lat="42.1405309" lon="13.5089999"><ele>1345.0</ele><time>2026-03-24T10:49:49.96Z</time></trkpt><trkpt lat="42.1404088" lon="13.5090176"><ele>1343.0</ele><time>2026-03-24T10:49:50.961Z</time></trkpt><trkpt lat="42.1402916" lon="13.5090652"><ele>1343.0</ele><time>2026-03-24T10:49:51.96Z</time></trkpt><trkpt lat="42.1401853" lon="13.5091503"><ele>1343.0</ele><time>2026-03-24T10:49:52.961Z</time></trkpt><trkpt lat="42.1400992" lon="13.5092587"><ele>1343.0</ele><time>2026-03-24T10:49:53.96Z</time></trkpt><trkpt lat="42.140022" lon="13.5093967"><ele>1343.0</ele><time>2026-03-24T10:49:54.961Z</time></trkpt><trkpt lat="42.1399708" lon="13.5095591"><ele>1341.0</ele><time>2026-03-24T10:49:55.96Z</time></trkpt><trkpt lat="42.1399377" lon="13.5097364"><ele>1339.0</ele><time>2026-03-24T10:49:56.96Z</time></trkpt><trkpt lat="42.1399075" lon="13.5099233"><ele>1337.0</ele><time>2026-03-24T10:49:57.961Z</time></trkpt><trkpt lat="42.1398861" lon="13.5101098"><ele>1335.0</ele><time>2026-03-24T10:49:58.961Z</time></trkpt><trkpt lat="42.1398559" lon="13.5102954"><ele>1332.75</ele><time>2026-03-24T10:49:59.961Z</time></trkpt><trkpt lat="42.1398201" lon="13.5104819"><ele>1330.5</ele><time>2026-03-24T10:50:00.961Z</time></trkpt><trkpt lat="42.1397797" lon="13.510665"><ele>1328.25</ele><time>2026-03-24T10:50:01.96Z</time></trkpt><trkpt lat="42.1397448" lon="13.5108384"><ele>1326.0</ele><time>2026-03-24T10:50:02.96Z</time></trkpt><trkpt lat="42.1397045" lon="13.5109778"><ele>1326.0</ele><time>2026-03-24T10:50:03.96Z</time></trkpt><trkpt lat="42.1396461" lon="13.5111089"><ele>1326.0</ele><time>2026-03-24T10:50:04.961Z</time></trkpt><trkpt lat="42.1395755" lon="13.5112158"><ele>1326.0</ele><time>2026-03-24T10:50:05.96Z</time></trkpt><trkpt lat="42.1394837" lon="13.5112823"><ele>1326.0</ele><time>2026-03-24T10:50:06.96Z</time></trkpt><trkpt lat="42.1393831" lon="13.5113135"><ele>1326.0</ele><time>2026-03-24T10:50:07.96Z</time></trkpt><trkpt lat="42.1392815" lon="13.5113115"><ele>1326.0</ele><time>2026-03-24T10:50:08.96Z</time></trkpt><trkpt lat="42.1391788" lon="13.5112766"><ele>1326.0</ele><time>2026-03-24T10:50:09.96Z</time></trkpt><trkpt lat="42.1390807" lon="13.5112273"><ele>1326.0</ele><time>2026-03-24T10:50:10.96Z</time></trkpt><trkpt lat="42.1389926" lon="13.511158"><ele>1326.0</ele><time>2026-03-24T10:50:11.96Z</time></trkpt><trkpt lat="42.1389206" lon="13.5110719"><ele>1326.0</ele><time>2026-03-24T10:50:12.96Z</time></trkpt><trkpt lat="42.1388737" lon="13.5109588"><ele>1325.25</ele><time>2026-03-24T10:50:13.96Z</time></trkpt><trkpt lat="42.1388358" lon="13.5108291"><ele>1324.5</ele><time>2026-03-24T10:50:14.961Z</time></trkpt><trkpt lat="42.1388149" lon="13.5106781"><ele>1323.75</ele><time>2026-03-24T10:50:15.96Z</time></trkpt><trkpt lat="42.1387972" lon="13.510521"><ele>1323.0</ele><time>2026-03-24T10:50:16.96Z</time></trkpt><trkpt lat="42.138782" lon="13.5103649"><ele>1323.0</ele><time>2026-03-24T10:50:17.96Z</time></trkpt><trkpt lat="42.1387607" lon="13.5102157"><ele>1323.0</ele><time>2026-03-24T10:50:18.961Z</time></trkpt><trkpt lat="42.1387424" lon="13.510067"><ele>1323.0</ele><time>2026-03-24T10:50:19.961Z</time></trkpt><trkpt lat="42.1387266" lon="13.5099291"><ele>1323.0</ele><time>2026-03-24T10:50:20.961Z</time></trkpt><trkpt lat="42.1387145" lon="13.5098006"><ele>1323.0</ele><time>2026-03-24T10:50:21.96Z</time></trkpt><trkpt lat="42.1387048" lon="13.5096825"><ele>1319.5</ele><time>2026-03-24T10:50:22.96Z</time></trkpt><trkpt lat="42.1386975" lon="13.5095715"><ele>1316.0</ele><time>2026-03-24T10:50:23.96Z</time></trkpt><trkpt lat="42.1386934" lon="13.5094741"><ele>1312.5</ele><time>2026-03-24T10:50:24.96Z</time></trkpt><trkpt lat="42.1386939" lon="13.5093782"><ele>1309.0</ele><time>2026-03-24T10:50:25.961Z</time></trkpt><trkpt lat="42.1387037" lon="13.5092831"><ele>1305.5</ele><time>2026-03-24T10:50:26.96Z</time></trkpt><trkpt lat="42.1387219" lon="13.5091819"><ele>1302.0</ele><time>2026-03-24T10:50:27.96Z</time></trkpt><trkpt lat="42.1387593" lon="13.5090694"><ele>1302.0</ele><time>2026-03-24T10:50:28.96Z</time></trkpt><trkpt lat="42.1388131" lon="13.5089418"><ele>1302.0</ele><time>2026-03-24T10:50:29.96Z</time></trkpt><trkpt lat="42.1388755" lon="13.5087935"><ele>1302.0</ele><time>2026-03-24T10:50:30.96Z</time></trkpt><trkpt lat="42.1389301" lon="13.5086531"><ele>1302.0</ele><time>2026-03-24T10:50:31.96Z</time></trkpt><trkpt lat="42.1389825" lon="13.5085231"><ele>1299.1999999999998</ele><time>2026-03-24T10:50:32.961Z</time></trkpt><trkpt lat="42.1390281" lon="13.5083898"><ele>1296.4</ele><time>2026-03-24T10:50:33.96Z</time></trkpt><trkpt lat="42.1390693" lon="13.5082746"><ele>1293.6</ele><time>2026-03-24T10:50:34.96Z</time></trkpt><trkpt lat="42.139123" lon="13.508166"><ele>1290.8000000000002</ele><time>2026-03-24T10:50:35.96Z</time></trkpt><trkpt lat="42.1391769" lon="13.5080655"><ele>1288.0</ele><time>2026-03-24T10:50:36.961Z</time></trkpt><trkpt lat="42.1392393" lon="13.5079685"><ele>1290.3333333333333</ele><time>2026-03-24T10:50:37.96Z</time></trkpt><trkpt lat="42.139298" lon="13.5078785"><ele>1292.6666666666665</ele><time>2026-03-24T10:50:38.961Z</time></trkpt><trkpt lat="42.1393501" lon="13.5077893"><ele>1295.0</ele><time>2026-03-24T10:50:39.96Z</time></trkpt><trkpt lat="42.1393768" lon="13.5076856"><ele>1297.3333333333333</ele><time>2026-03-24T10:50:40.96Z</time></trkpt><trkpt lat="42.1393664" lon="13.5075824"><ele>1299.6666666666667</ele><time>2026-03-24T10:50:41.96Z</time></trkpt><trkpt lat="42.1393228" lon="13.5075077"><ele>1302.0</ele><time>2026-03-24T10:50:42.96Z</time></trkpt><trkpt lat="42.1391997" lon="13.5074673"><ele>1302.0</ele><time>2026-03-24T10:50:44.96Z</time></trkpt><trkpt lat="42.1391331" lon="13.5074964"><ele>1302.0</ele><time>2026-03-24T10:50:45.96Z</time></trkpt><trkpt lat="42.1390861" lon="13.5075726"><ele>1302.0</ele><time>2026-03-24T10:50:46.96Z</time></trkpt><trkpt lat="42.139053" lon="13.507684"><ele>1302.0</ele><time>2026-03-24T10:50:47.961Z</time></trkpt><trkpt lat="42.1390156" lon="13.5078099"><ele>1302.0</ele><time>2026-03-24T10:50:48.96Z</time></trkpt><trkpt lat="42.1389667" lon="13.5079482"><ele>1302.0</ele><time>2026-03-24T10:50:49.96Z</time></trkpt><trkpt lat="42.1388995" lon="13.5080985"><ele>1298.5</ele><time>2026-03-24T10:50:50.96Z</time></trkpt><trkpt lat="42.1388273" lon="13.5082536"><ele>1295.0</ele><time>2026-03-24T10:50:51.961Z</time></trkpt><trkpt lat="42.1387441" lon="13.5084126"><ele>1291.5</ele><time>2026-03-24T10:50:52.961Z</time></trkpt><trkpt lat="42.1386539" lon="13.5085755"><ele>1288.0</ele><time>2026-03-24T10:50:53.96Z</time></trkpt><trkpt lat="42.1385671" lon="13.5087275"><ele>1288.25</ele><time>2026-03-24T10:50:54.96Z</time></trkpt><trkpt lat="42.1384781" lon="13.5088713"><ele>1288.5</ele><time>2026-03-24T10:50:55.96Z</time></trkpt><trkpt lat="42.1383814" lon="13.5089972"><ele>1288.75</ele><time>2026-03-24T10:50:56.96Z</time></trkpt><trkpt lat="42.138265" lon="13.5090918"><ele>1289.0</ele><time>2026-03-24T10:50:57.961Z</time></trkpt><trkpt lat="42.1381312" lon="13.5091533"><ele>1289.0</ele><time>2026-03-24T10:50:58.961Z</time></trkpt><trkpt lat="42.1379825" lon="13.5091898"><ele>1289.0</ele><time>2026-03-24T10:50:59.96Z</time></trkpt><trkpt lat="42.1378324" lon="13.5092136"><ele>1289.0</ele><time>2026-03-24T10:51:00.96Z</time></trkpt><trkpt lat="42.1376775" lon="13.5092431"><ele>1289.0</ele><time>2026-03-24T10:51:01.96Z</time></trkpt><trkpt lat="42.1375117" lon="13.5093061"><ele>1289.0</ele><time>2026-03-24T10:51:02.96Z</time></trkpt><trkpt lat="42.1373443" lon="13.5093718"><ele>1289.0</ele><time>2026-03-24T10:51:03.96Z</time></trkpt><trkpt lat="42.1371712" lon="13.5094531"><ele>1292.6666666666667</ele><time>2026-03-24T10:51:04.96Z</time></trkpt><trkpt lat="42.1370074" lon="13.5095562"><ele>1296.3333333333333</ele><time>2026-03-24T10:51:05.961Z</time></trkpt><trkpt lat="42.1368457" lon="13.5096572"><ele>1300.0</ele><time>2026-03-24T10:51:06.96Z</time></trkpt><trkpt lat="42.1366838" lon="13.5097587"><ele>1293.0</ele><time>2026-03-24T10:51:07.96Z</time></trkpt><trkpt lat="42.1365168" lon="13.5098592"><ele>1286.0</ele><time>2026-03-24T10:51:08.96Z</time></trkpt><trkpt lat="42.1363479" lon="13.5099656"><ele>1279.0</ele><time>2026-03-24T10:51:09.96Z</time></trkpt><trkpt lat="42.1361722" lon="13.51006"><ele>1279.0</ele><time>2026-03-24T10:51:10.96Z</time></trkpt><trkpt lat="42.1359911" lon="13.510157"><ele>1279.0</ele><time>2026-03-24T10:51:11.961Z</time></trkpt><trkpt lat="42.1358157" lon="13.5102498"><ele>1279.0</ele><time>2026-03-24T10:51:12.961Z</time></trkpt><trkpt lat="42.135648" lon="13.5103536"><ele>1278.6666666666665</ele><time>2026-03-24T10:51:13.961Z</time></trkpt><trkpt lat="42.1354954" lon="13.5104718"><ele>1278.3333333333333</ele><time>2026-03-24T10:51:14.96Z</time></trkpt><trkpt lat="42.1353515" lon="13.5106002"><ele>1278.0</ele><time>2026-03-24T10:51:15.96Z</time></trkpt><trkpt lat="42.1352102" lon="13.5107285"><ele>1278.0</ele><time>2026-03-24T10:51:16.961Z</time></trkpt><trkpt lat="42.1350711" lon="13.5108596"><ele>1278.0</ele><time>2026-03-24T10:51:17.96Z</time></trkpt><trkpt lat="42.1349372" lon="13.5109799"><ele>1278.0</ele><time>2026-03-24T10:51:18.961Z</time></trkpt><trkpt lat="42.1348058" lon="13.5111019"><ele>1275.6666666666667</ele><time>2026-03-24T10:51:19.961Z</time></trkpt><trkpt lat="42.1346732" lon="13.5112255"><ele>1273.3333333333335</ele><time>2026-03-24T10:51:20.961Z</time></trkpt><trkpt lat="42.1345413" lon="13.511351"><ele>1271.0</ele><time>2026-03-24T10:51:21.96Z</time></trkpt><trkpt lat="42.134408" lon="13.5114769"><ele>1271.0</ele><time>2026-03-24T10:51:22.961Z</time></trkpt><trkpt lat="42.1342768" lon="13.5116071"><ele>1271.0</ele><time>2026-03-24T10:51:23.96Z</time></trkpt><trkpt lat="42.1341446" lon="13.5117351"><ele>1271.0</ele><time>2026-03-24T10:51:24.961Z</time></trkpt><trkpt lat="42.1340097" lon="13.5118608"><ele>1270.3333333333335</ele><time>2026-03-24T10:51:25.96Z</time></trkpt><trkpt lat="42.1338709" lon="13.5119831"><ele>1269.6666666666667</ele><time>2026-03-24T10:51:26.96Z</time></trkpt><trkpt lat="42.1337278" lon="13.5121003"><ele>1269.0</ele><time>2026-03-24T10:51:27.961Z</time></trkpt><trkpt lat="42.1335823" lon="13.512211"><ele>1269.0</ele><time>2026-03-24T10:51:28.96Z</time></trkpt><trkpt lat="42.1334395" lon="13.5123326"><ele>1269.0</ele><time>2026-03-24T10:51:29.96Z</time></trkpt><trkpt lat="42.1333026" lon="13.5124639"><ele>1269.0</ele><time>2026-03-24T10:51:30.961Z</time></trkpt><trkpt lat="42.133174" lon="13.5126066"><ele>1271.3333333333333</ele><time>2026-03-24T10:51:31.96Z</time></trkpt><trkpt lat="42.1330461" lon="13.5127397"><ele>1273.6666666666665</ele><time>2026-03-24T10:51:32.96Z</time></trkpt><trkpt lat="42.1329182" lon="13.5128599"><ele>1276.0</ele><time>2026-03-24T10:51:33.96Z</time></trkpt><trkpt lat="42.1327681" lon="13.5129343"><ele>1276.0</ele><time>2026-03-24T10:51:34.96Z</time></trkpt><trkpt lat="42.1326077" lon="13.5129962"><ele>1276.0</ele><time>2026-03-24T10:51:35.96Z</time></trkpt><trkpt lat="42.1324443" lon="13.5130556"><ele>1276.0</ele><time>2026-03-24T10:51:36.96Z</time></trkpt><trkpt lat="42.1322754" lon="13.5131172"><ele>1270.3333333333333</ele><time>2026-03-24T10:51:37.961Z</time></trkpt><trkpt lat="42.1320965" lon="13.5131778"><ele>1264.6666666666667</ele><time>2026-03-24T10:51:38.961Z</time></trkpt><trkpt lat="42.1319162" lon="13.5132377"><ele>1259.0</ele><time>2026-03-24T10:51:39.96Z</time></trkpt><trkpt lat="42.131737" lon="13.5132925"><ele>1259.0</ele><time>2026-03-24T10:51:40.96Z</time></trkpt><trkpt lat="42.1315632" lon="13.5133436"><ele>1259.0</ele><time>2026-03-24T10:51:41.961Z</time></trkpt><trkpt lat="42.1313885" lon="13.5133734"><ele>1259.0</ele><time>2026-03-24T10:51:42.96Z</time></trkpt><trkpt lat="42.1312245" lon="13.5134129"><ele>1255.6666666666667</ele><time>2026-03-24T10:51:43.96Z</time></trkpt><trkpt lat="42.1310642" lon="13.5134537"><ele>1252.3333333333333</ele><time>2026-03-24T10:51:44.961Z</time></trkpt><trkpt lat="42.1309016" lon="13.5134871"><ele>1249.0</ele><time>2026-03-24T10:51:45.961Z</time></trkpt><trkpt lat="42.1307448" lon="13.5135212"><ele>1242.0</ele><time>2026-03-24T10:51:46.961Z</time></trkpt><trkpt lat="42.1305861" lon="13.513555"><ele>1235.0</ele><time>2026-03-24T10:51:47.96Z</time></trkpt><trkpt lat="42.1304291" lon="13.5135808"><ele>1228.0</ele><time>2026-03-24T10:51:48.96Z</time></trkpt><trkpt lat="42.1302702" lon="13.5136188"><ele>1228.0</ele><time>2026-03-24T10:51:49.96Z</time></trkpt><trkpt lat="42.1301152" lon="13.5136531"><ele>1228.0</ele><time>2026-03-24T10:51:50.96Z</time></trkpt><trkpt lat="42.129965" lon="13.5136863"><ele>1228.0</ele><time>2026-03-24T10:51:51.961Z</time></trkpt><trkpt lat="42.1298175" lon="13.5137191"><ele>1235.0</ele><time>2026-03-24T10:51:52.96Z</time></trkpt><trkpt lat="42.1296732" lon="13.5137587"><ele>1242.0</ele><time>2026-03-24T10:51:53.961Z</time></trkpt><trkpt lat="42.1295294" lon="13.513793"><ele>1249.0</ele><time>2026-03-24T10:51:54.96Z</time></trkpt><trkpt lat="42.1293919" lon="13.5138265"><ele>1256.0</ele><time>2026-03-24T10:51:55.96Z</time></trkpt><trkpt lat="42.1292587" lon="13.5138612"><ele>1256.0</ele><time>2026-03-24T10:51:56.961Z</time></trkpt><trkpt lat="42.1291276" lon="13.5139001"><ele>1256.0</ele><time>2026-03-24T10:51:57.96Z</time></trkpt><trkpt lat="42.129002" lon="13.5139336"><ele>1256.0</ele><time>2026-03-24T10:51:58.96Z</time></trkpt><trkpt lat="42.1288916" lon="13.5139776"><ele>1256.0</ele><time>2026-03-24T10:51:59.961Z</time></trkpt><trkpt lat="42.1287949" lon="13.5140285"><ele>1252.2</ele><time>2026-03-24T10:52:00.961Z</time></trkpt><trkpt lat="42.1287164" lon="13.5140808"><ele>1248.3999999999999</ele><time>2026-03-24T10:52:01.961Z</time></trkpt><trkpt lat="42.1286497" lon="13.514118"><ele>1244.6</ele><time>2026-03-24T10:52:02.96Z</time></trkpt><trkpt lat="42.1285288" lon="13.5141362"><ele>1240.8</ele><time>2026-03-24T10:52:04.96Z</time></trkpt><trkpt lat="42.128436" lon="13.5140535"><ele>1237.0</ele><time>2026-03-24T10:52:06.96Z</time></trkpt><trkpt lat="42.1284453" lon="13.5138945"><ele>1237.0</ele><time>2026-03-24T10:52:08.96Z</time></trkpt><trkpt lat="42.1285515" lon="13.5138104"><ele>1237.0</ele><time>2026-03-24T10:52:10.961Z</time></trkpt><trkpt lat="42.1286257" lon="13.513806"><ele>1237.0</ele><time>2026-03-24T10:52:11.96Z</time></trkpt><trkpt lat="42.1287048" lon="13.5137993"><ele>1237.0</ele><time>2026-03-24T10:52:12.96Z</time></trkpt><trkpt lat="42.1288103" lon="13.5137807"><ele>1237.0</ele><time>2026-03-24T10:52:13.96Z</time></trkpt><trkpt lat="42.1289169" lon="13.5137659"><ele>1233.25</ele><time>2026-03-24T10:52:14.96Z</time></trkpt><trkpt lat="42.1290399" lon="13.5137338"><ele>1229.5</ele><time>2026-03-24T10:52:15.961Z</time></trkpt><trkpt lat="42.1291661" lon="13.5136948"><ele>1225.75</ele><time>2026-03-24T10:52:16.961Z</time></trkpt><trkpt lat="42.1292989" lon="13.5136442"><ele>1222.0</ele><time>2026-03-24T10:52:17.96Z</time></trkpt><trkpt lat="42.1294326" lon="13.5135764"><ele>1222.0</ele><time>2026-03-24T10:52:18.96Z</time></trkpt><trkpt lat="42.1295726" lon="13.5135196"><ele>1222.0</ele><time>2026-03-24T10:52:19.96Z</time></trkpt><trkpt lat="42.1297231" lon="13.5134384"><ele>1222.0</ele><time>2026-03-24T10:52:20.96Z</time></trkpt><trkpt lat="42.1298727" lon="13.5133603"><ele>1224.0</ele><time>2026-03-24T10:52:21.96Z</time></trkpt><trkpt lat="42.1300289" lon="13.5132888"><ele>1226.0</ele><time>2026-03-24T10:52:22.96Z</time></trkpt><trkpt lat="42.1301843" lon="13.5132179"><ele>1228.0</ele><time>2026-03-24T10:52:23.96Z</time></trkpt><trkpt lat="42.1303285" lon="13.5131502"><ele>1228.0</ele><time>2026-03-24T10:52:24.96Z</time></trkpt><trkpt lat="42.1304689" lon="13.5130788"><ele>1228.0</ele><time>2026-03-24T10:52:25.96Z</time></trkpt><trkpt lat="42.1306005" lon="13.5130101"><ele>1228.0</ele><time>2026-03-24T10:52:26.96Z</time></trkpt><trkpt lat="42.1307395" lon="13.5129445"><ele>1228.0</ele><time>2026-03-24T10:52:27.961Z</time></trkpt><trkpt lat="42.1308745" lon="13.5128803"><ele>1223.5</ele><time>2026-03-24T10:52:28.96Z</time></trkpt><trkpt lat="42.1310145" lon="13.5128201"><ele>1219.0</ele><time>2026-03-24T10:52:29.96Z</time></trkpt><trkpt lat="42.1311557" lon="13.512754"><ele>1214.5</ele><time>2026-03-24T10:52:30.96Z</time></trkpt><trkpt lat="42.1312958" lon="13.5126952"><ele>1210.0</ele><time>2026-03-24T10:52:31.96Z</time></trkpt><trkpt lat="42.1314289" lon="13.5126448"><ele>1210.0</ele><time>2026-03-24T10:52:32.96Z</time></trkpt><trkpt lat="42.1315528" lon="13.5126016"><ele>1210.0</ele><time>2026-03-24T10:52:33.961Z</time></trkpt><trkpt lat="42.1316657" lon="13.5125748"><ele>1210.0</ele><time>2026-03-24T10:52:34.96Z</time></trkpt><trkpt lat="42.1317673" lon="13.512558"><ele>1210.0</ele><time>2026-03-24T10:52:35.96Z</time></trkpt><trkpt lat="42.1318595" lon="13.5125542"><ele>1210.0</ele><time>2026-03-24T10:52:36.961Z</time></trkpt><trkpt lat="42.1319466" lon="13.512544"><ele>1211.5714285714284</ele><time>2026-03-24T10:52:37.96Z</time></trkpt><trkpt lat="42.1320188" lon="13.512511"><ele>1213.142857142857</ele><time>2026-03-24T10:52:38.96Z</time></trkpt><trkpt lat="42.1320772" lon="13.5124502"><ele>1214.7142857142858</ele><time>2026-03-24T10:52:39.961Z</time></trkpt><trkpt lat="42.1320957" lon="13.5123508"><ele>1216.2857142857142</ele><time>2026-03-24T10:52:40.96Z</time></trkpt><trkpt lat="42.1320764" lon="13.5122552"><ele>1217.857142857143</ele><time>2026-03-24T10:52:41.96Z</time></trkpt><trkpt lat="42.132032" lon="13.5121813"><ele>1219.4285714285713</ele><time>2026-03-24T10:52:42.96Z</time></trkpt><trkpt lat="42.1319606" lon="13.5121429"><ele>1221.0</ele><time>2026-03-24T10:52:43.961Z</time></trkpt><trkpt lat="42.1318749" lon="13.5121536"><ele>1221.0</ele><time>2026-03-24T10:52:44.961Z</time></trkpt><trkpt lat="42.1317811" lon="13.5122008"><ele>1221.0</ele><time>2026-03-24T10:52:45.961Z</time></trkpt><trkpt lat="42.1316746" lon="13.5122543"><ele>1221.0</ele><time>2026-03-24T10:52:46.96Z</time></trkpt><trkpt lat="42.1315495" lon="13.5123048"><ele>1221.0</ele><time>2026-03-24T10:52:47.96Z</time></trkpt><trkpt lat="42.1314204" lon="13.5123446"><ele>1218.25</ele><time>2026-03-24T10:52:48.961Z</time></trkpt><trkpt lat="42.1312824" lon="13.5123791"><ele>1215.5</ele><time>2026-03-24T10:52:49.961Z</time></trkpt><trkpt lat="42.1311365" lon="13.5124106"><ele>1212.75</ele><time>2026-03-24T10:52:50.961Z</time></trkpt><trkpt lat="42.1309821" lon="13.512442"><ele>1210.0</ele><time>2026-03-24T10:52:51.96Z</time></trkpt><trkpt lat="42.1308254" lon="13.5124762"><ele>1206.3333333333333</ele><time>2026-03-24T10:52:52.96Z</time></trkpt><trkpt lat="42.1306596" lon="13.5125116"><ele>1202.6666666666667</ele><time>2026-03-24T10:52:53.96Z</time></trkpt><trkpt lat="42.13049" lon="13.5125449"><ele>1199.0</ele><time>2026-03-24T10:52:54.96Z</time></trkpt><trkpt lat="42.1303161" lon="13.5125762"><ele>1199.0</ele><time>2026-03-24T10:52:55.96Z</time></trkpt><trkpt lat="42.1301448" lon="13.5126051"><ele>1199.0</ele><time>2026-03-24T10:52:56.96Z</time></trkpt><trkpt lat="42.1299688" lon="13.5126314"><ele>1199.0</ele><time>2026-03-24T10:52:57.96Z</time></trkpt><trkpt lat="42.1297882" lon="13.5126666"><ele>1194.3333333333335</ele><time>2026-03-24T10:52:58.96Z</time></trkpt><trkpt lat="42.1296031" lon="13.5126975"><ele>1189.6666666666667</ele><time>2026-03-24T10:52:59.961Z</time></trkpt><trkpt lat="42.1294187" lon="13.5127372"><ele>1185.0</ele><time>2026-03-24T10:53:00.961Z</time></trkpt><trkpt lat="42.1292434" lon="13.5127711"><ele>1185.0</ele><time>2026-03-24T10:53:01.961Z</time></trkpt><trkpt lat="42.1290731" lon="13.5127959"><ele>1185.0</ele><time>2026-03-24T10:53:02.961Z</time></trkpt><trkpt lat="42.1289009" lon="13.512809"><ele>1185.0</ele><time>2026-03-24T10:53:03.961Z</time></trkpt><trkpt lat="42.1287327" lon="13.5128067"><ele>1183.0</ele><time>2026-03-24T10:53:04.96Z</time></trkpt><trkpt lat="42.1285696" lon="13.5127919"><ele>1181.0</ele><time>2026-03-24T10:53:05.96Z</time></trkpt><trkpt lat="42.1284061" lon="13.5127757"><ele>1179.0</ele><time>2026-03-24T10:53:06.96Z</time></trkpt><trkpt lat="42.128245" lon="13.5127678"><ele>1175.6666666666667</ele><time>2026-03-24T10:53:07.96Z</time></trkpt><trkpt lat="42.1280835" lon="13.5127853"><ele>1172.3333333333335</ele><time>2026-03-24T10:53:08.96Z</time></trkpt><trkpt lat="42.1279188" lon="13.5128284"><ele>1169.0</ele><time>2026-03-24T10:53:09.96Z</time></trkpt><trkpt lat="42.1277565" lon="13.5128955"><ele>1171.3333333333335</ele><time>2026-03-24T10:53:10.96Z</time></trkpt><trkpt lat="42.1275866" lon="13.5129703"><ele>1173.6666666666667</ele><time>2026-03-24T10:53:11.96Z</time></trkpt><trkpt lat="42.1274134" lon="13.5130426"><ele>1176.0</ele><time>2026-03-24T10:53:12.96Z</time></trkpt><trkpt lat="42.1272498" lon="13.5131186"><ele>1176.0</ele><time>2026-03-24T10:53:13.96Z</time></trkpt><trkpt lat="42.127095" lon="13.5132244"><ele>1176.0</ele><time>2026-03-24T10:53:14.96Z</time></trkpt><trkpt lat="42.1269456" lon="13.5133332"><ele>1176.0</ele><time>2026-03-24T10:53:15.96Z</time></trkpt><trkpt lat="42.1268032" lon="13.5134345"><ele>1176.0</ele><time>2026-03-24T10:53:16.96Z</time></trkpt><trkpt lat="42.1266673" lon="13.5135383"><ele>1176.0</ele><time>2026-03-24T10:53:17.96Z</time></trkpt><trkpt lat="42.1265292" lon="13.5136356"><ele>1176.0</ele><time>2026-03-24T10:53:18.96Z</time></trkpt><trkpt lat="42.1263836" lon="13.5137152"><ele>1176.5</ele><time>2026-03-24T10:53:19.961Z</time></trkpt><trkpt lat="42.1262353" lon="13.5137624"><ele>1177.0</ele><time>2026-03-24T10:53:20.96Z</time></trkpt><trkpt lat="42.1260937" lon="13.5138119"><ele>1177.5</ele><time>2026-03-24T10:53:21.961Z</time></trkpt><trkpt lat="42.1259754" lon="13.5139057"><ele>1178.0</ele><time>2026-03-24T10:53:22.96Z</time></trkpt><trkpt lat="42.1258628" lon="13.5140115"><ele>1178.0</ele><time>2026-03-24T10:53:23.96Z</time></trkpt><trkpt lat="42.1257662" lon="13.5141385"><ele>1178.0</ele><time>2026-03-24T10:53:24.96Z</time></trkpt><trkpt lat="42.1256712" lon="13.514263"><ele>1178.0</ele><time>2026-03-24T10:53:25.96Z</time></trkpt><trkpt lat="42.1255812" lon="13.514372"><ele>1178.0</ele><time>2026-03-24T10:53:26.961Z</time></trkpt><trkpt lat="42.1254895" lon="13.5144571"><ele>1174.0</ele><time>2026-03-24T10:53:27.96Z</time></trkpt><trkpt lat="42.1254015" lon="13.5145084"><ele>1170.0</ele><time>2026-03-24T10:53:28.96Z</time></trkpt><trkpt lat="42.1253054" lon="13.5145306"><ele>1166.0</ele><time>2026-03-24T10:53:29.96Z</time></trkpt><trkpt lat="42.1252159" lon="13.5145179"><ele>1162.0</ele><time>2026-03-24T10:53:30.96Z</time></trkpt><trkpt lat="42.1251288" lon="13.5144847"><ele>1158.0</ele><time>2026-03-24T10:53:31.961Z</time></trkpt><trkpt lat="42.1250392" lon="13.5144431"><ele>1157.9999999999998</ele><time>2026-03-24T10:53:32.961Z</time></trkpt><trkpt lat="42.1249521" lon="13.5144527"><ele>1158.0</ele><time>2026-03-24T10:53:33.96Z</time></trkpt><trkpt lat="42.1248847" lon="13.5144963"><ele>1158.0</ele><time>2026-03-24T10:53:34.96Z</time></trkpt><trkpt lat="42.1248339" lon="13.514561"><ele>1158.0</ele><time>2026-03-24T10:53:35.961Z</time></trkpt><trkpt lat="42.124794" lon="13.514638"><ele>1158.0</ele><time>2026-03-24T10:53:36.96Z</time></trkpt><trkpt lat="42.1247504" lon="13.5147116"><ele>1157.9999999999998</ele><time>2026-03-24T10:53:37.96Z</time></trkpt><trkpt lat="42.1247014" lon="13.5147697"><ele>1158.0</ele><time>2026-03-24T10:53:38.96Z</time></trkpt><trkpt lat="42.1245895" lon="13.5147601"><ele>1155.8</ele><time>2026-03-24T10:53:40.96Z</time></trkpt><trkpt lat="42.1245351" lon="13.5146421"><ele>1153.6</ele><time>2026-03-24T10:53:42.96Z</time></trkpt><trkpt lat="42.1245862" lon="13.514513"><ele>1151.4</ele><time>2026-03-24T10:53:44.96Z</time></trkpt><trkpt lat="42.124639" lon="13.5144485"><ele>1149.2</ele><time>2026-03-24T10:53:45.961Z</time></trkpt><trkpt lat="42.1247021" lon="13.5143719"><ele>1147.0</ele><time>2026-03-24T10:53:46.96Z</time></trkpt><trkpt lat="42.1247843" lon="13.5142915"><ele>1147.0</ele><time>2026-03-24T10:53:47.96Z</time></trkpt><trkpt lat="42.1248856" lon="13.5142328"><ele>1147.0</ele><time>2026-03-24T10:53:48.96Z</time></trkpt><trkpt lat="42.124994" lon="13.514222"><ele>1147.0</ele><time>2026-03-24T10:53:49.961Z</time></trkpt><trkpt lat="42.1251097" lon="13.5142185"><ele>1147.0</ele><time>2026-03-24T10:53:50.96Z</time></trkpt><trkpt lat="42.1252122" lon="13.5141825"><ele>1147.0</ele><time>2026-03-24T10:53:51.96Z</time></trkpt><trkpt lat="42.1252903" lon="13.5140989"><ele>1149.75</ele><time>2026-03-24T10:53:52.96Z</time></trkpt><trkpt lat="42.1253605" lon="13.5139789"><ele>1152.5</ele><time>2026-03-24T10:53:53.961Z</time></trkpt><trkpt lat="42.1254325" lon="13.5138582"><ele>1155.25</ele><time>2026-03-24T10:53:54.961Z</time></trkpt><trkpt lat="42.1254992" lon="13.5137264"><ele>1158.0</ele><time>2026-03-24T10:53:55.96Z</time></trkpt><trkpt lat="42.1255715" lon="13.5135975"><ele>1156.5</ele><time>2026-03-24T10:53:56.961Z</time></trkpt><trkpt lat="42.1256675" lon="13.5134755"><ele>1155.0</ele><time>2026-03-24T10:53:57.96Z</time></trkpt><trkpt lat="42.1257714" lon="13.5133522"><ele>1153.5</ele><time>2026-03-24T10:53:58.961Z</time></trkpt><trkpt lat="42.125881" lon="13.5132288"><ele>1152.0</ele><time>2026-03-24T10:53:59.96Z</time></trkpt><trkpt lat="42.1259947" lon="13.5130947"><ele>1152.0</ele><time>2026-03-24T10:54:00.96Z</time></trkpt><trkpt lat="42.1261043" lon="13.5129498"><ele>1152.0</ele><time>2026-03-24T10:54:01.96Z</time></trkpt><trkpt lat="42.1262058" lon="13.5128024"><ele>1152.0</ele><time>2026-03-24T10:54:02.96Z</time></trkpt><trkpt lat="42.1262835" lon="13.5126406"><ele>1152.0</ele><time>2026-03-24T10:54:03.96Z</time></trkpt><trkpt lat="42.1263516" lon="13.5124748"><ele>1154.0</ele><time>2026-03-24T10:54:04.96Z</time></trkpt><trkpt lat="42.1264262" lon="13.5123261"><ele>1156.0</ele><time>2026-03-24T10:54:05.96Z</time></trkpt><trkpt lat="42.1265169" lon="13.512195"><ele>1158.0</ele><time>2026-03-24T10:54:06.96Z</time></trkpt><trkpt lat="42.1266135" lon="13.5120841"><ele>1160.0</ele><time>2026-03-24T10:54:07.96Z</time></trkpt><trkpt lat="42.1267158" lon="13.5119929"><ele>1157.3333333333335</ele><time>2026-03-24T10:54:08.96Z</time></trkpt><trkpt lat="42.1268181" lon="13.5119316"><ele>1154.6666666666667</ele><time>2026-03-24T10:54:09.961Z</time></trkpt><trkpt lat="42.1269124" lon="13.5119022"><ele>1152.0</ele><time>2026-03-24T10:54:10.961Z</time></trkpt><trkpt lat="42.1269921" lon="13.5118658"><ele>1149.3333333333333</ele><time>2026-03-24T10:54:11.96Z</time></trkpt><trkpt lat="42.1270545" lon="13.5118133"><ele>1146.6666666666665</ele><time>2026-03-24T10:54:12.96Z</time></trkpt><trkpt lat="42.1270959" lon="13.5117414"><ele>1144.0</ele><time>2026-03-24T10:54:13.96Z</time></trkpt><trkpt lat="42.1270735" lon="13.51159"><ele>1144.0</ele><time>2026-03-24T10:54:15.961Z</time></trkpt><trkpt lat="42.1269639" lon="13.5115285"><ele>1144.0</ele><time>2026-03-24T10:54:17.96Z</time></trkpt><trkpt lat="42.12688" lon="13.5115719"><ele>1144.0</ele><time>2026-03-24T10:54:18.96Z</time></trkpt><trkpt lat="42.1267909" lon="13.5116282"><ele>1144.0</ele><time>2026-03-24T10:54:19.96Z</time></trkpt><trkpt lat="42.1266921" lon="13.5117085"><ele>1144.0</ele><time>2026-03-24T10:54:20.96Z</time></trkpt><trkpt lat="42.1265789" lon="13.5118047"><ele>1142.0</ele><time>2026-03-24T10:54:21.96Z</time></trkpt><trkpt lat="42.126457" lon="13.5119102"><ele>1140.0</ele><time>2026-03-24T10:54:22.96Z</time></trkpt><trkpt lat="42.1263293" lon="13.5120212"><ele>1138.0</ele><time>2026-03-24T10:54:23.96Z</time></trkpt><trkpt lat="42.1262007" lon="13.5121328"><ele>1136.3333333333333</ele><time>2026-03-24T10:54:24.96Z</time></trkpt><trkpt lat="42.1260733" lon="13.512244"><ele>1134.6666666666667</ele><time>2026-03-24T10:54:25.96Z</time></trkpt><trkpt lat="42.1259409" lon="13.5123629"><ele>1133.0</ele><time>2026-03-24T10:54:26.96Z</time></trkpt><trkpt lat="42.1258052" lon="13.5124816"><ele>1128.3333333333335</ele><time>2026-03-24T10:54:27.96Z</time></trkpt><trkpt lat="42.1256664" lon="13.5126033"><ele>1123.6666666666667</ele><time>2026-03-24T10:54:28.96Z</time></trkpt><trkpt lat="42.1255314" lon="13.5127207"><ele>1119.0</ele><time>2026-03-24T10:54:29.961Z</time></trkpt><trkpt lat="42.1253971" lon="13.5128333"><ele>1122.6666666666667</ele><time>2026-03-24T10:54:30.961Z</time></trkpt><trkpt lat="42.1252621" lon="13.5129521"><ele>1126.3333333333335</ele><time>2026-03-24T10:54:31.961Z</time></trkpt><trkpt lat="42.1251284" lon="13.5130652"><ele>1130.0</ele><time>2026-03-24T10:54:32.96Z</time></trkpt><trkpt lat="42.1249919" lon="13.5131675"><ele>1125.0</ele><time>2026-03-24T10:54:33.961Z</time></trkpt><trkpt lat="42.1248553" lon="13.5132532"><ele>1120.0</ele><time>2026-03-24T10:54:34.96Z</time></trkpt><trkpt lat="42.1247068" lon="13.5133213"><ele>1115.0</ele><time>2026-03-24T10:54:35.961Z</time></trkpt><trkpt lat="42.124556" lon="13.5133626"><ele>1115.0</ele><time>2026-03-24T10:54:36.96Z</time></trkpt><trkpt lat="42.1244106" lon="13.5133906"><ele>1115.0</ele><time>2026-03-24T10:54:37.96Z</time></trkpt><trkpt lat="42.1242596" lon="13.5134149"><ele>1115.0</ele><time>2026-03-24T10:54:38.96Z</time></trkpt><trkpt lat="42.1241244" lon="13.5134283"><ele>1115.0</ele><time>2026-03-24T10:54:39.961Z</time></trkpt><trkpt lat="42.1239946" lon="13.5134375"><ele>1113.2</ele><time>2026-03-24T10:54:40.96Z</time></trkpt><trkpt lat="42.1238738" lon="13.5134393"><ele>1111.4</ele><time>2026-03-24T10:54:41.961Z</time></trkpt><trkpt lat="42.1237665" lon="13.5134061"><ele>1109.6</ele><time>2026-03-24T10:54:42.96Z</time></trkpt><trkpt lat="42.1236711" lon="13.5133567"><ele>1107.8</ele><time>2026-03-24T10:54:43.961Z</time></trkpt><trkpt lat="42.1235855" lon="13.5133096"><ele>1106.0</ele><time>2026-03-24T10:54:44.96Z</time></trkpt><trkpt lat="42.1234977" lon="13.5132962"><ele>1106.0</ele><time>2026-03-24T10:54:45.96Z</time></trkpt><trkpt lat="42.1234096" lon="13.5133103"><ele>1106.0</ele><time>2026-03-24T10:54:46.96Z</time></trkpt><trkpt lat="42.1233293" lon="13.5133662"><ele>1106.0</ele><time>2026-03-24T10:54:47.96Z</time></trkpt><trkpt lat="42.1232734" lon="13.5134556"><ele>1106.0</ele><time>2026-03-24T10:54:48.961Z</time></trkpt><trkpt lat="42.1232214" lon="13.5135627"><ele>1106.0</ele><time>2026-03-24T10:54:49.96Z</time></trkpt><trkpt lat="42.1231719" lon="13.5136813"><ele>1103.5</ele><time>2026-03-24T10:54:50.96Z</time></trkpt><trkpt lat="42.1231111" lon="13.5138131"><ele>1101.0</ele><time>2026-03-24T10:54:51.96Z</time></trkpt><trkpt lat="42.1230292" lon="13.5139426"><ele>1098.5</ele><time>2026-03-24T10:54:52.96Z</time></trkpt><trkpt lat="42.1229333" lon="13.5140583"><ele>1096.0</ele><time>2026-03-24T10:54:53.96Z</time></trkpt><trkpt lat="42.1228413" lon="13.514175"><ele>1096.0</ele><time>2026-03-24T10:54:54.961Z</time></trkpt><trkpt lat="42.1227479" lon="13.5142915"><ele>1096.0</ele><time>2026-03-24T10:54:55.961Z</time></trkpt><trkpt lat="42.122661" lon="13.5143977"><ele>1096.0</ele><time>2026-03-24T10:54:56.96Z</time></trkpt><trkpt lat="42.1225733" lon="13.5144876"><ele>1096.0</ele><time>2026-03-24T10:54:57.96Z</time></trkpt><trkpt lat="42.1224778" lon="13.5145491"><ele>1097.75</ele><time>2026-03-24T10:54:58.961Z</time></trkpt><trkpt lat="42.122367" lon="13.5145652"><ele>1099.5</ele><time>2026-03-24T10:54:59.961Z</time></trkpt><trkpt lat="42.1222601" lon="13.5145747"><ele>1101.25</ele><time>2026-03-24T10:55:00.96Z</time></trkpt><trkpt lat="42.1221478" lon="13.5145994"><ele>1103.0</ele><time>2026-03-24T10:55:01.96Z</time></trkpt><trkpt lat="42.1220313" lon="13.5146305"><ele>1103.0</ele><time>2026-03-24T10:55:02.961Z</time></trkpt><trkpt lat="42.12192" lon="13.5146694"><ele>1103.0</ele><time>2026-03-24T10:55:03.96Z</time></trkpt><trkpt lat="42.1218015" lon="13.5147159"><ele>1103.0</ele><time>2026-03-24T10:55:04.96Z</time></trkpt><trkpt lat="42.1216845" lon="13.5147629"><ele>1103.0</ele><time>2026-03-24T10:55:05.96Z</time></trkpt><trkpt lat="42.1215683" lon="13.5148226"><ele>1098.5</ele><time>2026-03-24T10:55:06.961Z</time></trkpt><trkpt lat="42.121456" lon="13.5148913"><ele>1094.0</ele><time>2026-03-24T10:55:07.96Z</time></trkpt><trkpt lat="42.1213397" lon="13.5149747"><ele>1089.5</ele><time>2026-03-24T10:55:08.96Z</time></trkpt><trkpt lat="42.1212324" lon="13.515064"><ele>1085.0</ele><time>2026-03-24T10:55:09.961Z</time></trkpt><trkpt lat="42.1211342" lon="13.5151671"><ele>1085.0</ele><time>2026-03-24T10:55:10.961Z</time></trkpt><trkpt lat="42.1210372" lon="13.5152568"><ele>1085.0</ele><time>2026-03-24T10:55:11.96Z</time></trkpt><trkpt lat="42.1209341" lon="13.5153406"><ele>1085.0</ele><time>2026-03-24T10:55:12.961Z</time></trkpt><trkpt lat="42.1208223" lon="13.5154236"><ele>1085.0</ele><time>2026-03-24T10:55:13.96Z</time></trkpt><trkpt lat="42.1207091" lon="13.5155064"><ele>1084.25</ele><time>2026-03-24T10:55:14.96Z</time></trkpt><trkpt lat="42.1205966" lon="13.5155892"><ele>1083.5</ele><time>2026-03-24T10:55:15.96Z</time></trkpt><trkpt lat="42.1204827" lon="13.5156661"><ele>1082.75</ele><time>2026-03-24T10:55:16.961Z</time></trkpt><trkpt lat="42.1203745" lon="13.5157499"><ele>1082.0</ele><time>2026-03-24T10:55:17.96Z</time></trkpt><trkpt lat="42.1202647" lon="13.5158497"><ele>1082.0</ele><time>2026-03-24T10:55:18.96Z</time></trkpt><trkpt lat="42.1201484" lon="13.515948"><ele>1082.0</ele><time>2026-03-24T10:55:19.96Z</time></trkpt><trkpt lat="42.1200576" lon="13.5160708"><ele>1082.0</ele><time>2026-03-24T10:55:20.961Z</time></trkpt><trkpt lat="42.1199594" lon="13.5161851"><ele>1082.0</ele><time>2026-03-24T10:55:21.961Z</time></trkpt><trkpt lat="42.1198591" lon="13.5162988"><ele>1078.75</ele><time>2026-03-24T10:55:22.961Z</time></trkpt><trkpt lat="42.1197569" lon="13.5164231"><ele>1075.5</ele><time>2026-03-24T10:55:23.961Z</time></trkpt><trkpt lat="42.1196579" lon="13.5165408"><ele>1072.25</ele><time>2026-03-24T10:55:24.96Z</time></trkpt><trkpt lat="42.1195695" lon="13.5166504"><ele>1069.0</ele><time>2026-03-24T10:55:25.96Z</time></trkpt><trkpt lat="42.1194924" lon="13.5167486"><ele>1069.0</ele><time>2026-03-24T10:55:26.96Z</time></trkpt><trkpt lat="42.1194383" lon="13.5168463"><ele>1069.0</ele><time>2026-03-24T10:55:27.96Z</time></trkpt><trkpt lat="42.1194158" lon="13.5169612"><ele>1069.0</ele><time>2026-03-24T10:55:28.96Z</time></trkpt><trkpt lat="42.1194158" lon="13.5170828"><ele>1069.0</ele><time>2026-03-24T10:55:29.96Z</time></trkpt><trkpt lat="42.1194228" lon="13.5172092"><ele>1069.0</ele><time>2026-03-24T10:55:30.96Z</time></trkpt><trkpt lat="42.1194323" lon="13.5173426"><ele>1071.0</ele><time>2026-03-24T10:55:31.961Z</time></trkpt><trkpt lat="42.1194416" lon="13.5174793"><ele>1073.0</ele><time>2026-03-24T10:55:32.961Z</time></trkpt><trkpt lat="42.1194569" lon="13.5176177"><ele>1075.0</ele><time>2026-03-24T10:55:33.96Z</time></trkpt><trkpt lat="42.1194827" lon="13.517744"><ele>1077.0</ele><time>2026-03-24T10:55:34.961Z</time></trkpt><trkpt lat="42.119509" lon="13.5178555"><ele>1079.0</ele><time>2026-03-24T10:55:35.961Z</time></trkpt><trkpt lat="42.1195376" lon="13.5179457"><ele>1083.2</ele><time>2026-03-24T10:55:36.96Z</time></trkpt><trkpt lat="42.1195568" lon="13.5180298"><ele>1087.4</ele><time>2026-03-24T10:55:37.96Z</time></trkpt><trkpt lat="42.1195664" lon="13.5181799"><ele>1091.6</ele><time>2026-03-24T10:55:39.96Z</time></trkpt><trkpt lat="42.1194934" lon="13.5182711"><ele>1095.8</ele><time>2026-03-24T10:55:41.96Z</time></trkpt><trkpt lat="42.1193884" lon="13.5182256"><ele>1100.0</ele><time>2026-03-24T10:55:43.96Z</time></trkpt><trkpt lat="42.1192888" lon="13.5180945"><ele>1100.0</ele><time>2026-03-24T10:55:45.96Z</time></trkpt><trkpt lat="42.1192287" lon="13.5180113"><ele>1100.0</ele><time>2026-03-24T10:55:46.961Z</time></trkpt><trkpt lat="42.119164" lon="13.5179134"><ele>1100.0</ele><time>2026-03-24T10:55:47.96Z</time></trkpt><trkpt lat="42.1190999" lon="13.517798"><ele>1100.0</ele><time>2026-03-24T10:55:48.96Z</time></trkpt><trkpt lat="42.1190312" lon="13.5176932"><ele>1100.0</ele><time>2026-03-24T10:55:49.96Z</time></trkpt><trkpt lat="42.1189519" lon="13.5176016"><ele>1092.75</ele><time>2026-03-24T10:55:50.961Z</time></trkpt><trkpt lat="42.1188559" lon="13.517537"><ele>1085.5</ele><time>2026-03-24T10:55:51.961Z</time></trkpt><trkpt lat="42.1187466" lon="13.5175111"><ele>1078.25</ele><time>2026-03-24T10:55:52.961Z</time></trkpt><trkpt lat="42.1186297" lon="13.5175211"><ele>1071.0</ele><time>2026-03-24T10:55:53.96Z</time></trkpt><trkpt lat="42.1185095" lon="13.51755"><ele>1071.0</ele><time>2026-03-24T10:55:54.961Z</time></trkpt><trkpt lat="42.118387" lon="13.5175882"><ele>1071.0</ele><time>2026-03-24T10:55:55.96Z</time></trkpt><trkpt lat="42.1182519" lon="13.5176232"><ele>1071.0</ele><time>2026-03-24T10:55:56.96Z</time></trkpt><trkpt lat="42.1181178" lon="13.5176597"><ele>1071.0</ele><time>2026-03-24T10:55:57.96Z</time></trkpt><trkpt lat="42.1179789" lon="13.517693"><ele>1066.3333333333333</ele><time>2026-03-24T10:55:58.96Z</time></trkpt><trkpt lat="42.1178319" lon="13.5177264"><ele>1061.6666666666665</ele><time>2026-03-24T10:55:59.961Z</time></trkpt><trkpt lat="42.1176803" lon="13.5177708"><ele>1057.0</ele><time>2026-03-24T10:56:00.96Z</time></trkpt><trkpt lat="42.1175263" lon="13.5178269"><ele>1053.6666666666665</ele><time>2026-03-24T10:56:01.961Z</time></trkpt><trkpt lat="42.1173711" lon="13.5178905"><ele>1050.3333333333333</ele><time>2026-03-24T10:56:02.96Z</time></trkpt><trkpt lat="42.1172159" lon="13.5179572"><ele>1047.0</ele><time>2026-03-24T10:56:03.96Z</time></trkpt><trkpt lat="42.1170616" lon="13.5180271"><ele>1054.0</ele><time>2026-03-24T10:56:04.961Z</time></trkpt><trkpt lat="42.1169047" lon="13.5180764"><ele>1061.0</ele><time>2026-03-24T10:56:05.96Z</time></trkpt><trkpt lat="42.1167517" lon="13.5181198"><ele>1068.0</ele><time>2026-03-24T10:56:06.96Z</time></trkpt><trkpt lat="42.1165951" lon="13.5181594"><ele>1065.6666666666667</ele><time>2026-03-24T10:56:07.96Z</time></trkpt><trkpt lat="42.1164398" lon="13.5182057"><ele>1063.3333333333335</ele><time>2026-03-24T10:56:08.961Z</time></trkpt><trkpt lat="42.1162837" lon="13.5182526"><ele>1061.0</ele><time>2026-03-24T10:56:09.961Z</time></trkpt><trkpt lat="42.1161231" lon="13.5183004"><ele>1061.0</ele><time>2026-03-24T10:56:10.96Z</time></trkpt><trkpt lat="42.1159629" lon="13.5183584"><ele>1061.0</ele><time>2026-03-24T10:56:11.961Z</time></trkpt><trkpt lat="42.1158069" lon="13.5184141"><ele>1061.0</ele><time>2026-03-24T10:56:12.96Z</time></trkpt><trkpt lat="42.1156455" lon="13.5184876"><ele>1062.0</ele><time>2026-03-24T10:56:13.961Z</time></trkpt><trkpt lat="42.11549" lon="13.5185729"><ele>1063.0</ele><time>2026-03-24T10:56:14.961Z</time></trkpt><trkpt lat="42.1153354" lon="13.5186633"><ele>1064.0</ele><time>2026-03-24T10:56:15.96Z</time></trkpt><trkpt lat="42.1151805" lon="13.5187535"><ele>1064.0</ele><time>2026-03-24T10:56:16.96Z</time></trkpt><trkpt lat="42.1150241" lon="13.5188444"><ele>1064.0</ele><time>2026-03-24T10:56:17.96Z</time></trkpt><trkpt lat="42.114871" lon="13.5189377"><ele>1064.0</ele><time>2026-03-24T10:56:18.96Z</time></trkpt><trkpt lat="42.1147183" lon="13.5190276"><ele>1058.6666666666667</ele><time>2026-03-24T10:56:19.96Z</time></trkpt><trkpt lat="42.1145592" lon="13.5191203"><ele>1053.3333333333333</ele><time>2026-03-24T10:56:20.96Z</time></trkpt><trkpt lat="42.1143983" lon="13.519222"><ele>1048.0</ele><time>2026-03-24T10:56:21.961Z</time></trkpt><trkpt lat="42.1142381" lon="13.5193139"><ele>1048.0</ele><time>2026-03-24T10:56:22.96Z</time></trkpt><trkpt lat="42.1140778" lon="13.5194141"><ele>1048.0</ele><time>2026-03-24T10:56:23.961Z</time></trkpt><trkpt lat="42.11392" lon="13.5195235"><ele>1048.0</ele><time>2026-03-24T10:56:24.96Z</time></trkpt><trkpt lat="42.1137697" lon="13.5196463"><ele>1047.3333333333333</ele><time>2026-03-24T10:56:25.96Z</time></trkpt><trkpt lat="42.1136256" lon="13.5197734"><ele>1046.6666666666667</ele><time>2026-03-24T10:56:26.96Z</time></trkpt><trkpt lat="42.1134858" lon="13.5198975"><ele>1046.0</ele><time>2026-03-24T10:56:27.961Z</time></trkpt><trkpt lat="42.1133452" lon="13.5200137"><ele>1042.3333333333335</ele><time>2026-03-24T10:56:28.96Z</time></trkpt><trkpt lat="42.1132092" lon="13.5201205"><ele>1038.6666666666667</ele><time>2026-03-24T10:56:29.96Z</time></trkpt><trkpt lat="42.1130715" lon="13.5202165"><ele>1035.0</ele><time>2026-03-24T10:56:30.96Z</time></trkpt><trkpt lat="42.112934" lon="13.5203001"><ele>1035.0</ele><time>2026-03-24T10:56:31.96Z</time></trkpt><trkpt lat="42.1127914" lon="13.5203712"><ele>1035.0</ele><time>2026-03-24T10:56:32.96Z</time></trkpt><trkpt lat="42.1126437" lon="13.5204227"><ele>1035.0</ele><time>2026-03-24T10:56:33.96Z</time></trkpt><trkpt lat="42.1124873" lon="13.5204497"><ele>1038.3333333333333</ele><time>2026-03-24T10:56:34.961Z</time></trkpt><trkpt lat="42.112328" lon="13.5204616"><ele>1041.6666666666665</ele><time>2026-03-24T10:56:35.96Z</time></trkpt><trkpt lat="42.1121655" lon="13.5204597"><ele>1045.0</ele><time>2026-03-24T10:56:36.96Z</time></trkpt><trkpt lat="42.1120105" lon="13.5204511"><ele>1045.0</ele><time>2026-03-24T10:56:37.96Z</time></trkpt><trkpt lat="42.1118569" lon="13.5204417"><ele>1045.0</ele><time>2026-03-24T10:56:38.961Z</time></trkpt><trkpt lat="42.1117104" lon="13.5204365"><ele>1045.0</ele><time>2026-03-24T10:56:39.96Z</time></trkpt><trkpt lat="42.1115659" lon="13.5204389"><ele>1045.0</ele><time>2026-03-24T10:56:40.96Z</time></trkpt><trkpt lat="42.111423" lon="13.5204501"><ele>1040.6666666666665</ele><time>2026-03-24T10:56:41.96Z</time></trkpt><trkpt lat="42.1112763" lon="13.5204895"><ele>1036.3333333333333</ele><time>2026-03-24T10:56:42.96Z</time></trkpt><trkpt lat="42.1111267" lon="13.5205639"><ele>1032.0</ele><time>2026-03-24T10:56:43.96Z</time></trkpt><trkpt lat="42.1109798" lon="13.5206702"><ele>1032.0</ele><time>2026-03-24T10:56:44.961Z</time></trkpt><trkpt lat="42.1108335" lon="13.5207875"><ele>1032.0</ele><time>2026-03-24T10:56:45.96Z</time></trkpt><trkpt lat="42.1106821" lon="13.5209086"><ele>1032.0</ele><time>2026-03-24T10:56:46.959Z</time></trkpt><trkpt lat="42.1105288" lon="13.5210179"><ele>1031.6666666666667</ele><time>2026-03-24T10:56:47.96Z</time></trkpt><trkpt lat="42.110373" lon="13.521126"><ele>1031.3333333333335</ele><time>2026-03-24T10:56:48.961Z</time></trkpt><trkpt lat="42.1102171" lon="13.5212334"><ele>1031.0</ele><time>2026-03-24T10:56:49.961Z</time></trkpt><trkpt lat="42.1100667" lon="13.5213248"><ele>1031.0</ele><time>2026-03-24T10:56:50.96Z</time></trkpt><trkpt lat="42.1099129" lon="13.5213897"><ele>1031.0</ele><time>2026-03-24T10:56:51.961Z</time></trkpt><trkpt lat="42.1097585" lon="13.5214252"><ele>1031.0</ele><time>2026-03-24T10:56:52.961Z</time></trkpt><trkpt lat="42.1096053" lon="13.5214588"><ele>1029.0</ele><time>2026-03-24T10:56:53.96Z</time></trkpt><trkpt lat="42.1094467" lon="13.5214852"><ele>1027.0</ele><time>2026-03-24T10:56:54.96Z</time></trkpt><trkpt lat="42.1092849" lon="13.5215153"><ele>1025.0</ele><time>2026-03-24T10:56:55.96Z</time></trkpt><trkpt lat="42.1091294" lon="13.5215544"><ele>1021.6666666666667</ele><time>2026-03-24T10:56:56.96Z</time></trkpt><trkpt lat="42.1089781" lon="13.5216082"><ele>1018.3333333333333</ele><time>2026-03-24T10:56:57.961Z</time></trkpt><trkpt lat="42.1088344" lon="13.5216885"><ele>1015.0</ele><time>2026-03-24T10:56:58.96Z</time></trkpt><trkpt lat="42.1086944" lon="13.5217874"><ele>1015.0</ele><time>2026-03-24T10:56:59.96Z</time></trkpt><trkpt lat="42.108552" lon="13.5218997"><ele>1015.0</ele><time>2026-03-24T10:57:00.96Z</time></trkpt><trkpt lat="42.1084094" lon="13.5220094"><ele>1015.0</ele><time>2026-03-24T10:57:01.96Z</time></trkpt><trkpt lat="42.1082771" lon="13.5221103"><ele>1014.6</ele><time>2026-03-24T10:57:02.96Z</time></trkpt><trkpt lat="42.1081641" lon="13.5222039"><ele>1014.2</ele><time>2026-03-24T10:57:03.961Z</time></trkpt><trkpt lat="42.1080758" lon="13.5222765"><ele>1013.8</ele><time>2026-03-24T10:57:04.961Z</time></trkpt><trkpt lat="42.1080112" lon="13.5223306"><ele>1013.4</ele><time>2026-03-24T10:57:05.961Z</time></trkpt><trkpt lat="42.1079406" lon="13.5223226"><ele>1013.0</ele><time>2026-03-24T10:57:07.96Z</time></trkpt><trkpt lat="42.10793" lon="13.5221919"><ele>1013.0</ele><time>2026-03-24T10:57:09.961Z</time></trkpt><trkpt lat="42.1079793" lon="13.5220926"><ele>1013.0</ele><time>2026-03-24T10:57:10.96Z</time></trkpt><trkpt lat="42.108036" lon="13.5219578"><ele>1013.0</ele><time>2026-03-24T10:57:11.96Z</time></trkpt><trkpt lat="42.1081069" lon="13.5217668"><ele>1013.0</ele><time>2026-03-24T10:57:12.96Z</time></trkpt><trkpt lat="42.1081829" lon="13.521558"><ele>1013.6666666666667</ele><time>2026-03-24T10:57:13.96Z</time></trkpt><trkpt lat="42.1082688" lon="13.5213183"><ele>1014.3333333333333</ele><time>2026-03-24T10:57:14.96Z</time></trkpt><trkpt lat="42.1083567" lon="13.5210658"><ele>1015.0</ele><time>2026-03-24T10:57:15.96Z</time></trkpt><trkpt lat="42.1084429" lon="13.5208102"><ele>1012.0</ele><time>2026-03-24T10:57:16.96Z</time></trkpt><trkpt lat="42.1085278" lon="13.5205651"><ele>1009.0</ele><time>2026-03-24T10:57:17.96Z</time></trkpt><trkpt lat="42.1086058" lon="13.5203276"><ele>1006.0</ele><time>2026-03-24T10:57:18.961Z</time></trkpt><trkpt lat="42.1086859" lon="13.520096"><ele>1003.3333333333333</ele><time>2026-03-24T10:57:19.961Z</time></trkpt><trkpt lat="42.1087634" lon="13.5198736"><ele>1000.6666666666667</ele><time>2026-03-24T10:57:20.96Z</time></trkpt><trkpt lat="42.1088485" lon="13.5196626"><ele>998.0</ele><time>2026-03-24T10:57:21.961Z</time></trkpt><trkpt lat="42.1089409" lon="13.5194717"><ele>998.5</ele><time>2026-03-24T10:57:22.961Z</time></trkpt><trkpt lat="42.109032" lon="13.5193076"><ele>999.0</ele><time>2026-03-24T10:57:23.961Z</time></trkpt><trkpt lat="42.1091251" lon="13.5191645"><ele>999.5</ele><time>2026-03-24T10:57:24.961Z</time></trkpt><trkpt lat="42.109209" lon="13.519017"><ele>1000.0</ele><time>2026-03-24T10:57:25.961Z</time></trkpt><trkpt lat="42.1092617" lon="13.5188591"><ele>999.0</ele><time>2026-03-24T10:57:26.96Z</time></trkpt><trkpt lat="42.1092925" lon="13.5186989"><ele>998.0</ele><time>2026-03-24T10:57:27.961Z</time></trkpt><trkpt lat="42.1092637" lon="13.5185281"><ele>997.0</ele><time>2026-03-24T10:57:28.96Z</time></trkpt><trkpt lat="42.109216" lon="13.5183488"><ele>996.0</ele><time>2026-03-24T10:57:29.96Z</time></trkpt><trkpt lat="42.109141" lon="13.5181612"><ele>996.0</ele><time>2026-03-24T10:57:30.96Z</time></trkpt><trkpt lat="42.1090569" lon="13.5179627"><ele>996.0</ele><time>2026-03-24T10:57:31.96Z</time></trkpt><trkpt lat="42.1089777" lon="13.5177744"><ele>996.0</ele><time>2026-03-24T10:57:32.961Z</time></trkpt><trkpt lat="42.1089051" lon="13.517607"><ele>996.0</ele><time>2026-03-24T10:57:33.961Z</time></trkpt><trkpt lat="42.1088361" lon="13.5174766"><ele>995.9999999999999</ele><time>2026-03-24T10:57:34.96Z</time></trkpt><trkpt lat="42.1087568" lon="13.5173736"><ele>995.9999999999999</ele><time>2026-03-24T10:57:35.96Z</time></trkpt><trkpt lat="42.1086704" lon="13.5173059"><ele>996.0</ele><time>2026-03-24T10:57:36.96Z</time></trkpt><trkpt lat="42.1085761" lon="13.5172722"><ele>996.0</ele><time>2026-03-24T10:57:37.96Z</time></trkpt><trkpt lat="42.1084693" lon="13.5172761"><ele>996.0</ele><time>2026-03-24T10:57:38.961Z</time></trkpt><trkpt lat="42.1083628" lon="13.5173333"><ele>996.0</ele><time>2026-03-24T10:57:39.96Z</time></trkpt><trkpt lat="42.1082545" lon="13.5174158"><ele>996.0</ele><time>2026-03-24T10:57:40.96Z</time></trkpt><trkpt lat="42.1081345" lon="13.5175217"><ele>996.0</ele><time>2026-03-24T10:57:41.961Z</time></trkpt><trkpt lat="42.1080103" lon="13.5176257"><ele>996.5</ele><time>2026-03-24T10:57:42.96Z</time></trkpt><trkpt lat="42.1078969" lon="13.5177211"><ele>997.0</ele><time>2026-03-24T10:57:43.96Z</time></trkpt><trkpt lat="42.1077973" lon="13.5178148"><ele>997.5</ele><time>2026-03-24T10:57:44.961Z</time></trkpt><trkpt lat="42.1077092" lon="13.5179216"><ele>998.0</ele><time>2026-03-24T10:57:45.961Z</time></trkpt><trkpt lat="42.1076404" lon="13.5180512"><ele>998.0</ele><time>2026-03-24T10:57:46.961Z</time></trkpt><trkpt lat="42.1075926" lon="13.5182074"><ele>998.0</ele><time>2026-03-24T10:57:47.96Z</time></trkpt><trkpt lat="42.1075621" lon="13.5183805"><ele>998.0</ele><time>2026-03-24T10:57:48.96Z</time></trkpt><trkpt lat="42.1075285" lon="13.5185735"><ele>998.0</ele><time>2026-03-24T10:57:49.96Z</time></trkpt><trkpt lat="42.1074798" lon="13.5187679"><ele>1001.6666666666667</ele><time>2026-03-24T10:57:50.96Z</time></trkpt><trkpt lat="42.1074044" lon="13.5189725"><ele>1005.3333333333333</ele><time>2026-03-24T10:57:51.96Z</time></trkpt><trkpt lat="42.1073115" lon="13.5191856"><ele>1009.0</ele><time>2026-03-24T10:57:52.961Z</time></trkpt><trkpt lat="42.1072041" lon="13.5194076"><ele>1007.6666666666666</ele><time>2026-03-24T10:57:53.961Z</time></trkpt><trkpt lat="42.1071055" lon="13.519638"><ele>1006.3333333333333</ele><time>2026-03-24T10:57:54.96Z</time></trkpt><trkpt lat="42.1070057" lon="13.5198506"><ele>1005.0</ele><time>2026-03-24T10:57:55.96Z</time></trkpt><trkpt lat="42.106904" lon="13.520019"><ele>1005.0</ele><time>2026-03-24T10:57:56.96Z</time></trkpt><trkpt lat="42.1067843" lon="13.5201398"><ele>1005.0</ele><time>2026-03-24T10:57:57.96Z</time></trkpt><trkpt lat="42.106654" lon="13.5202135"><ele>1005.0</ele><time>2026-03-24T10:57:58.961Z</time></trkpt><trkpt lat="42.1065092" lon="13.520281"><ele>1005.0</ele><time>2026-03-24T10:57:59.96Z</time></trkpt><trkpt lat="42.1063565" lon="13.5203587"><ele>1004.3333333333333</ele><time>2026-03-24T10:58:00.96Z</time></trkpt><trkpt lat="42.1062294" lon="13.5204821"><ele>1003.6666666666666</ele><time>2026-03-24T10:58:01.96Z</time></trkpt><trkpt lat="42.1060974" lon="13.5206204"><ele>1003.0</ele><time>2026-03-24T10:58:02.96Z</time></trkpt><trkpt lat="42.1059728" lon="13.5207531"><ele>1003.0</ele><time>2026-03-24T10:58:03.961Z</time></trkpt><trkpt lat="42.1058351" lon="13.520868"><ele>1003.0</ele><time>2026-03-24T10:58:04.961Z</time></trkpt><trkpt lat="42.1057095" lon="13.5209613"><ele>1003.0</ele><time>2026-03-24T10:58:05.96Z</time></trkpt><trkpt lat="42.1055965" lon="13.5210158"><ele>1003.0</ele><time>2026-03-24T10:58:06.961Z</time></trkpt><trkpt lat="42.1054835" lon="13.5210205"><ele>1003.5</ele><time>2026-03-24T10:58:07.96Z</time></trkpt><trkpt lat="42.1053702" lon="13.5209662"><ele>1004.0</ele><time>2026-03-24T10:58:08.96Z</time></trkpt><trkpt lat="42.1052639" lon="13.520867"><ele>1004.5</ele><time>2026-03-24T10:58:09.961Z</time></trkpt><trkpt lat="42.1051491" lon="13.5207215"><ele>1005.0</ele><time>2026-03-24T10:58:10.96Z</time></trkpt><trkpt lat="42.1050214" lon="13.5205656"><ele>1003.0</ele><time>2026-03-24T10:58:11.96Z</time></trkpt><trkpt lat="42.1048937" lon="13.5204083"><ele>1001.0</ele><time>2026-03-24T10:58:12.96Z</time></trkpt><trkpt lat="42.1047716" lon="13.5202546"><ele>999.0</ele><time>2026-03-24T10:58:13.961Z</time></trkpt><trkpt lat="42.1046666" lon="13.5201033"><ele>998.6666666666667</ele><time>2026-03-24T10:58:14.961Z</time></trkpt><trkpt lat="42.1045825" lon="13.5199427"><ele>998.3333333333334</ele><time>2026-03-24T10:58:15.96Z</time></trkpt><trkpt lat="42.1045184" lon="13.5197591"><ele>998.0</ele><time>2026-03-24T10:58:16.96Z</time></trkpt><trkpt lat="42.1044596" lon="13.5195502"><ele>999.0</ele><time>2026-03-24T10:58:17.961Z</time></trkpt><trkpt lat="42.1043893" lon="13.519335"><ele>1000.0</ele><time>2026-03-24T10:58:18.96Z</time></trkpt><trkpt lat="42.1043" lon="13.5191383"><ele>1001.0</ele><time>2026-03-24T10:58:19.96Z</time></trkpt><trkpt lat="42.1041954" lon="13.518966"><ele>999.0</ele><time>2026-03-24T10:58:20.96Z</time></trkpt><trkpt lat="42.1040648" lon="13.5188141"><ele>997.0</ele><time>2026-03-24T10:58:21.961Z</time></trkpt><trkpt lat="42.1039069" lon="13.5186886"><ele>995.0</ele><time>2026-03-24T10:58:22.961Z</time></trkpt><trkpt lat="42.1037308" lon="13.5185762"><ele>995.0</ele><time>2026-03-24T10:58:23.961Z</time></trkpt><trkpt lat="42.1035468" lon="13.5184749"><ele>995.0</ele><time>2026-03-24T10:58:24.961Z</time></trkpt><trkpt lat="42.1033764" lon="13.5183855"><ele>995.0</ele><time>2026-03-24T10:58:25.96Z</time></trkpt><trkpt lat="42.1032208" lon="13.5183257"><ele>992.6666666666667</ele><time>2026-03-24T10:58:26.961Z</time></trkpt><trkpt lat="42.1030659" lon="13.5183277"><ele>990.3333333333333</ele><time>2026-03-24T10:58:27.961Z</time></trkpt><trkpt lat="42.1029044" lon="13.5183562"><ele>988.0</ele><time>2026-03-24T10:58:28.961Z</time></trkpt><trkpt lat="42.1027558" lon="13.5183758"><ele>988.0</ele><time>2026-03-24T10:58:29.96Z</time></trkpt><trkpt lat="42.1026254" lon="13.5183768"><ele>988.0</ele><time>2026-03-24T10:58:30.96Z</time></trkpt><trkpt lat="42.10251" lon="13.5183373"><ele>988.0</ele><time>2026-03-24T10:58:31.96Z</time></trkpt><trkpt lat="42.102412" lon="13.5182557"><ele>988.0</ele><time>2026-03-24T10:58:32.96Z</time></trkpt><trkpt lat="42.102336" lon="13.5181504"><ele>982.25</ele><time>2026-03-24T10:58:33.96Z</time></trkpt><trkpt lat="42.1022847" lon="13.5179889"><ele>976.5</ele><time>2026-03-24T10:58:34.961Z</time></trkpt><trkpt lat="42.1022611" lon="13.5178178"><ele>970.75</ele><time>2026-03-24T10:58:35.961Z</time></trkpt><trkpt lat="42.102259" lon="13.5176367"><ele>965.0</ele><time>2026-03-24T10:58:36.96Z</time></trkpt><trkpt lat="42.1022733" lon="13.5174545"><ele>965.0</ele><time>2026-03-24T10:58:37.96Z</time></trkpt><trkpt lat="42.1022927" lon="13.5172564"><ele>965.0</ele><time>2026-03-24T10:58:38.96Z</time></trkpt><trkpt lat="42.1022917" lon="13.5170557"><ele>965.0</ele><time>2026-03-24T10:58:39.961Z</time></trkpt><trkpt lat="42.1022694" lon="13.5168539"><ele>965.0</ele><time>2026-03-24T10:58:40.961Z</time></trkpt><trkpt lat="42.1022309" lon="13.5166485"><ele>965.0</ele><time>2026-03-24T10:58:41.96Z</time></trkpt><trkpt lat="42.1021875" lon="13.5164476"><ele>965.0</ele><time>2026-03-24T10:58:42.96Z</time></trkpt><trkpt lat="42.1021539" lon="13.5162474"><ele>965.0</ele><time>2026-03-24T10:58:43.961Z</time></trkpt><trkpt lat="42.1021325" lon="13.5160363"><ele>965.0</ele><time>2026-03-24T10:58:44.961Z</time></trkpt><trkpt lat="42.1021224" lon="13.5158122"><ele>965.0</ele><time>2026-03-24T10:58:45.96Z</time></trkpt><trkpt lat="42.1021153" lon="13.5155701"><ele>965.0</ele><time>2026-03-24T10:58:46.96Z</time></trkpt><trkpt lat="42.1021095" lon="13.515312"><ele>964.0</ele><time>2026-03-24T10:58:47.96Z</time></trkpt><trkpt lat="42.1021051" lon="13.5150369"><ele>963.0</ele><time>2026-03-24T10:58:48.961Z</time></trkpt><trkpt lat="42.1021021" lon="13.5147566"><ele>962.0</ele><time>2026-03-24T10:58:49.96Z</time></trkpt><trkpt lat="42.1020971" lon="13.5144704"><ele>960.6666666666667</ele><time>2026-03-24T10:58:50.96Z</time></trkpt><trkpt lat="42.1020995" lon="13.5141799"><ele>959.3333333333333</ele><time>2026-03-24T10:58:51.96Z</time></trkpt><trkpt lat="42.1021152" lon="13.5138877"><ele>958.0</ele><time>2026-03-24T10:58:52.96Z</time></trkpt><trkpt lat="42.1021492" lon="13.5135964"><ele>957.3333333333333</ele><time>2026-03-24T10:58:53.96Z</time></trkpt><trkpt lat="42.1021793" lon="13.5133076"><ele>956.6666666666667</ele><time>2026-03-24T10:58:54.96Z</time></trkpt><trkpt lat="42.1022088" lon="13.5130335"><ele>956.0</ele><time>2026-03-24T10:58:55.961Z</time></trkpt><trkpt lat="42.1022382" lon="13.512769"><ele>956.0</ele><time>2026-03-24T10:58:56.96Z</time></trkpt><trkpt lat="42.1022504" lon="13.5125463"><ele>956.0</ele><time>2026-03-24T10:58:57.96Z</time></trkpt><trkpt lat="42.1022493" lon="13.5123256"><ele>956.0</ele><time>2026-03-24T10:58:58.96Z</time></trkpt><trkpt lat="42.1022309" lon="13.512115"><ele>957.6666666666667</ele><time>2026-03-24T10:58:59.96Z</time></trkpt><trkpt lat="42.1021948" lon="13.5119049"><ele>959.3333333333333</ele><time>2026-03-24T10:59:00.96Z</time></trkpt><trkpt lat="42.1021431" lon="13.5117093"><ele>961.0</ele><time>2026-03-24T10:59:01.96Z</time></trkpt><trkpt lat="42.1020602" lon="13.5115235"><ele>961.0</ele><time>2026-03-24T10:59:02.96Z</time></trkpt><trkpt lat="42.101959" lon="13.5113483"><ele>961.0</ele><time>2026-03-24T10:59:03.96Z</time></trkpt><trkpt lat="42.1018394" lon="13.511178"><ele>961.0</ele><time>2026-03-24T10:59:04.961Z</time></trkpt><trkpt lat="42.1017103" lon="13.5110047"><ele>963.0</ele><time>2026-03-24T10:59:05.96Z</time></trkpt><trkpt lat="42.1015837" lon="13.5108279"><ele>965.0</ele><time>2026-03-24T10:59:06.961Z</time></trkpt><trkpt lat="42.1014607" lon="13.5106476"><ele>967.0</ele><time>2026-03-24T10:59:07.96Z</time></trkpt><trkpt lat="42.1013387" lon="13.5104706"><ele>963.6666666666666</ele><time>2026-03-24T10:59:08.96Z</time></trkpt><trkpt lat="42.1012211" lon="13.5103004"><ele>960.3333333333333</ele><time>2026-03-24T10:59:09.96Z</time></trkpt><trkpt lat="42.1011118" lon="13.5101505"><ele>957.0</ele><time>2026-03-24T10:59:10.96Z</time></trkpt><trkpt lat="42.1010075" lon="13.5100185"><ele>957.0</ele><time>2026-03-24T10:59:11.96Z</time></trkpt><trkpt lat="42.1009227" lon="13.5099034"><ele>957.0</ele><time>2026-03-24T10:59:12.96Z</time></trkpt><trkpt lat="42.1008561" lon="13.5098042"><ele>957.0</ele><time>2026-03-24T10:59:13.96Z</time></trkpt><trkpt lat="42.1008255" lon="13.5097162"><ele>957.0</ele><time>2026-03-24T10:59:14.961Z</time></trkpt><trkpt lat="42.1008237" lon="13.5096287"><ele>957.0</ele><time>2026-03-24T10:59:15.961Z</time></trkpt><trkpt lat="42.1008547" lon="13.5095408"><ele>957.0</ele><time>2026-03-24T10:59:16.961Z</time></trkpt><trkpt lat="42.100912" lon="13.5094376"><ele>956.75</ele><time>2026-03-24T10:59:17.96Z</time></trkpt><trkpt lat="42.1009899" lon="13.5093119"><ele>956.5</ele><time>2026-03-24T10:59:18.96Z</time></trkpt><trkpt lat="42.1010825" lon="13.5091673"><ele>956.25</ele><time>2026-03-24T10:59:19.961Z</time></trkpt><trkpt lat="42.1011816" lon="13.5090144"><ele>956.0</ele><time>2026-03-24T10:59:20.96Z</time></trkpt><trkpt lat="42.1013024" lon="13.5088611"><ele>955.0</ele><time>2026-03-24T10:59:21.96Z</time></trkpt><trkpt lat="42.1014337" lon="13.5087011"><ele>954.0</ele><time>2026-03-24T10:59:22.96Z</time></trkpt><trkpt lat="42.1015706" lon="13.5085431"><ele>953.0</ele><time>2026-03-24T10:59:23.96Z</time></trkpt><trkpt lat="42.1017025" lon="13.5083769"><ele>953.0</ele><time>2026-03-24T10:59:24.96Z</time></trkpt><trkpt lat="42.1018347" lon="13.5082062"><ele>953.0</ele><time>2026-03-24T10:59:25.96Z</time></trkpt><trkpt lat="42.101964" lon="13.5080342"><ele>953.0</ele><time>2026-03-24T10:59:26.96Z</time></trkpt><trkpt lat="42.1020872" lon="13.5078558"><ele>951.0</ele><time>2026-03-24T10:59:27.96Z</time></trkpt><trkpt lat="42.1022035" lon="13.5076646"><ele>949.0</ele><time>2026-03-24T10:59:28.96Z</time></trkpt><trkpt lat="42.1023105" lon="13.5074659"><ele>947.0</ele><time>2026-03-24T10:59:29.961Z</time></trkpt><trkpt lat="42.1024091" lon="13.5072587"><ele>951.0</ele><time>2026-03-24T10:59:30.96Z</time></trkpt><trkpt lat="42.1024979" lon="13.5070491"><ele>955.0</ele><time>2026-03-24T10:59:31.96Z</time></trkpt><trkpt lat="42.1025833" lon="13.506827"><ele>959.0</ele><time>2026-03-24T10:59:32.96Z</time></trkpt><trkpt lat="42.102664" lon="13.5065986"><ele>959.0</ele><time>2026-03-24T10:59:33.96Z</time></trkpt><trkpt lat="42.1027419" lon="13.5063611"><ele>959.0</ele><time>2026-03-24T10:59:34.96Z</time></trkpt><trkpt lat="42.1028139" lon="13.5061099"><ele>959.0</ele><time>2026-03-24T10:59:35.96Z</time></trkpt><trkpt lat="42.1028843" lon="13.5058515"><ele>956.3333333333334</ele><time>2026-03-24T10:59:36.96Z</time></trkpt><trkpt lat="42.1029596" lon="13.5056003"><ele>953.6666666666667</ele><time>2026-03-24T10:59:37.96Z</time></trkpt><trkpt lat="42.1030288" lon="13.5053921"><ele>951.0</ele><time>2026-03-24T10:59:38.96Z</time></trkpt><trkpt lat="42.1031065" lon="13.5052082"><ele>949.3333333333333</ele><time>2026-03-24T10:59:39.96Z</time></trkpt><trkpt lat="42.1032056" lon="13.5050552"><ele>947.6666666666666</ele><time>2026-03-24T10:59:40.961Z</time></trkpt><trkpt lat="42.1033281" lon="13.5049318"><ele>946.0</ele><time>2026-03-24T10:59:41.96Z</time></trkpt><trkpt lat="42.1034765" lon="13.5048315"><ele>949.3333333333333</ele><time>2026-03-24T10:59:42.96Z</time></trkpt><trkpt lat="42.103634" lon="13.5047355"><ele>952.6666666666667</ele><time>2026-03-24T10:59:43.961Z</time></trkpt><trkpt lat="42.103799" lon="13.5046283"><ele>956.0</ele><time>2026-03-24T10:59:44.96Z</time></trkpt><trkpt lat="42.1039576" lon="13.5045029"><ele>961.0</ele><time>2026-03-24T10:59:45.96Z</time></trkpt><trkpt lat="42.1041079" lon="13.5043579"><ele>966.0</ele><time>2026-03-24T10:59:46.96Z</time></trkpt><trkpt lat="42.1042494" lon="13.5041841"><ele>971.0</ele><time>2026-03-24T10:59:47.96Z</time></trkpt><trkpt lat="42.1043693" lon="13.5039939"><ele>971.0</ele><time>2026-03-24T10:59:48.961Z</time></trkpt><trkpt lat="42.1044794" lon="13.5037969"><ele>971.0</ele><time>2026-03-24T10:59:49.96Z</time></trkpt><trkpt lat="42.1045772" lon="13.5035883"><ele>971.0</ele><time>2026-03-24T10:59:50.96Z</time></trkpt><trkpt lat="42.104672" lon="13.5033748"><ele>970.0</ele><time>2026-03-24T10:59:51.96Z</time></trkpt><trkpt lat="42.1047653" lon="13.503167"><ele>969.0</ele><time>2026-03-24T10:59:52.961Z</time></trkpt><trkpt lat="42.1048527" lon="13.5029498"><ele>968.0</ele><time>2026-03-24T10:59:53.96Z</time></trkpt><trkpt lat="42.1049243" lon="13.5027275"><ele>973.6666666666667</ele><time>2026-03-24T10:59:54.961Z</time></trkpt><trkpt lat="42.1049919" lon="13.5024943"><ele>979.3333333333333</ele><time>2026-03-24T10:59:55.96Z</time></trkpt><trkpt lat="42.1050535" lon="13.5022554"><ele>985.0</ele><time>2026-03-24T10:59:56.96Z</time></trkpt><trkpt lat="42.1051194" lon="13.5020105"><ele>985.0</ele><time>2026-03-24T10:59:57.961Z</time></trkpt><trkpt lat="42.1051842" lon="13.5017659"><ele>985.0</ele><time>2026-03-24T10:59:58.96Z</time></trkpt><trkpt lat="42.1052438" lon="13.501529"><ele>985.0</ele><time>2026-03-24T10:59:59.96Z</time></trkpt><trkpt lat="42.1052983" lon="13.5012924"><ele>984.6666666666666</ele><time>2026-03-24T11:00:00.96Z</time></trkpt><trkpt lat="42.1053461" lon="13.5010662"><ele>984.3333333333333</ele><time>2026-03-24T11:00:01.96Z</time></trkpt><trkpt lat="42.1053843" lon="13.500839"><ele>984.0</ele><time>2026-03-24T11:00:02.961Z</time></trkpt><trkpt lat="42.1054105" lon="13.5006176"><ele>986.0</ele><time>2026-03-24T11:00:03.96Z</time></trkpt><trkpt lat="42.1054311" lon="13.5004108"><ele>988.0</ele><time>2026-03-24T11:00:04.961Z</time></trkpt><trkpt lat="42.1054402" lon="13.5002243"><ele>990.0</ele><time>2026-03-24T11:00:05.961Z</time></trkpt><trkpt lat="42.1054232" lon="13.500036"><ele>992.0</ele><time>2026-03-24T11:00:06.96Z</time></trkpt><trkpt lat="42.1053771" lon="13.499856"><ele>992.0</ele><time>2026-03-24T11:00:07.96Z</time></trkpt><trkpt lat="42.1053019" lon="13.4996825"><ele>992.0</ele><time>2026-03-24T11:00:08.96Z</time></trkpt><trkpt lat="42.105198" lon="13.499524"><ele>992.0</ele><time>2026-03-24T11:00:09.96Z</time></trkpt><trkpt lat="42.1050781" lon="13.4993763"><ele>992.0</ele><time>2026-03-24T11:00:10.961Z</time></trkpt><trkpt lat="42.1049561" lon="13.4992289"><ele>992.0</ele><time>2026-03-24T11:00:11.96Z</time></trkpt><trkpt lat="42.10484" lon="13.4990858"><ele>992.0</ele><time>2026-03-24T11:00:12.961Z</time></trkpt><trkpt lat="42.1047426" lon="13.498945"><ele>992.0</ele><time>2026-03-24T11:00:13.961Z</time></trkpt><trkpt lat="42.1046578" lon="13.4987991"><ele>992.0</ele><time>2026-03-24T11:00:14.961Z</time></trkpt><trkpt lat="42.1045996" lon="13.4986314"><ele>992.0</ele><time>2026-03-24T11:00:15.96Z</time></trkpt><trkpt lat="42.1045642" lon="13.4984619"><ele>992.0</ele><time>2026-03-24T11:00:16.961Z</time></trkpt><trkpt lat="42.1045524" lon="13.4982816"><ele>992.5</ele><time>2026-03-24T11:00:17.96Z</time></trkpt><trkpt lat="42.1045687" lon="13.4981118"><ele>993.0</ele><time>2026-03-24T11:00:18.96Z</time></trkpt><trkpt lat="42.1046194" lon="13.4979563"><ele>993.5</ele><time>2026-03-24T11:00:19.96Z</time></trkpt><trkpt lat="42.1046974" lon="13.4978248"><ele>994.0</ele><time>2026-03-24T11:00:20.96Z</time></trkpt><trkpt lat="42.1047929" lon="13.4977086"><ele>994.0</ele><time>2026-03-24T11:00:21.96Z</time></trkpt><trkpt lat="42.1049061" lon="13.4975952"><ele>994.0</ele><time>2026-03-24T11:00:22.96Z</time></trkpt><trkpt lat="42.105025" lon="13.4974838"><ele>994.0</ele><time>2026-03-24T11:00:23.96Z</time></trkpt><trkpt lat="42.1051569" lon="13.4973728"><ele>994.0</ele><time>2026-03-24T11:00:24.96Z</time></trkpt><trkpt lat="42.1052898" lon="13.4972626"><ele>996.3333333333333</ele><time>2026-03-24T11:00:25.961Z</time></trkpt><trkpt lat="42.1054282" lon="13.4971463"><ele>998.6666666666667</ele><time>2026-03-24T11:00:26.96Z</time></trkpt><trkpt lat="42.1055685" lon="13.4970301"><ele>1001.0</ele><time>2026-03-24T11:00:27.96Z</time></trkpt><trkpt lat="42.1057102" lon="13.4969109"><ele>1004.0</ele><time>2026-03-24T11:00:28.96Z</time></trkpt><trkpt lat="42.1058542" lon="13.4967891"><ele>1007.0</ele><time>2026-03-24T11:00:29.961Z</time></trkpt><trkpt lat="42.1060015" lon="13.4966679"><ele>1010.0</ele><time>2026-03-24T11:00:30.96Z</time></trkpt><trkpt lat="42.106149" lon="13.4965469"><ele>1010.0</ele><time>2026-03-24T11:00:31.96Z</time></trkpt><trkpt lat="42.106283" lon="13.496414"><ele>1010.0</ele><time>2026-03-24T11:00:32.961Z</time></trkpt><trkpt lat="42.1064012" lon="13.4962601"><ele>1010.0</ele><time>2026-03-24T11:00:33.96Z</time></trkpt><trkpt lat="42.1065028" lon="13.4960857"><ele>1013.3333333333334</ele><time>2026-03-24T11:00:34.96Z</time></trkpt><trkpt lat="42.1065863" lon="13.4958945"><ele>1016.6666666666667</ele><time>2026-03-24T11:00:35.96Z</time></trkpt><trkpt lat="42.1066504" lon="13.4956864"><ele>1020.0</ele><time>2026-03-24T11:00:36.96Z</time></trkpt><trkpt lat="42.1066969" lon="13.4954616"><ele>1019.3333333333333</ele><time>2026-03-24T11:00:37.961Z</time></trkpt><trkpt lat="42.1067421" lon="13.4952196"><ele>1018.6666666666666</ele><time>2026-03-24T11:00:38.961Z</time></trkpt><trkpt lat="42.1067912" lon="13.4949785"><ele>1018.0</ele><time>2026-03-24T11:00:39.96Z</time></trkpt><trkpt lat="42.1068396" lon="13.4947488"><ele>1017.3333333333333</ele><time>2026-03-24T11:00:40.96Z</time></trkpt><trkpt lat="42.1068887" lon="13.4945413"><ele>1016.6666666666667</ele><time>2026-03-24T11:00:41.961Z</time></trkpt><trkpt lat="42.1069569" lon="13.4943558"><ele>1016.0</ele><time>2026-03-24T11:00:42.96Z</time></trkpt><trkpt lat="42.1070461" lon="13.4941861"><ele>1016.0</ele><time>2026-03-24T11:00:43.961Z</time></trkpt><trkpt lat="42.1071508" lon="13.4940261"><ele>1016.0</ele><time>2026-03-24T11:00:44.96Z</time></trkpt><trkpt lat="42.107265" lon="13.4938663"><ele>1016.0</ele><time>2026-03-24T11:00:45.96Z</time></trkpt><trkpt lat="42.1073819" lon="13.4936981"><ele>1019.5</ele><time>2026-03-24T11:00:46.96Z</time></trkpt><trkpt lat="42.1074916" lon="13.4935486"><ele>1023.0</ele><time>2026-03-24T11:00:47.96Z</time></trkpt><trkpt lat="42.1075883" lon="13.4934045"><ele>1026.5</ele><time>2026-03-24T11:00:48.96Z</time></trkpt><trkpt lat="42.1076545" lon="13.4932415"><ele>1030.0</ele><time>2026-03-24T11:00:49.96Z</time></trkpt><trkpt lat="42.1076828" lon="13.493059"><ele>1032.0</ele><time>2026-03-24T11:00:50.96Z</time></trkpt><trkpt lat="42.1076736" lon="13.4928617"><ele>1034.0</ele><time>2026-03-24T11:00:51.96Z</time></trkpt><trkpt lat="42.1076399" lon="13.4926434"><ele>1036.0</ele><time>2026-03-24T11:00:52.96Z</time></trkpt><trkpt lat="42.1075914" lon="13.4924142"><ele>1036.0</ele><time>2026-03-24T11:00:53.961Z</time></trkpt><trkpt lat="42.1075406" lon="13.4921843"><ele>1036.0</ele><time>2026-03-24T11:00:54.961Z</time></trkpt><trkpt lat="42.107481" lon="13.4919618"><ele>1036.0</ele><time>2026-03-24T11:00:55.961Z</time></trkpt><trkpt lat="42.1074002" lon="13.4917565"><ele>1033.6666666666665</ele><time>2026-03-24T11:00:56.961Z</time></trkpt><trkpt lat="42.1072962" lon="13.4915868"><ele>1031.3333333333333</ele><time>2026-03-24T11:00:57.96Z</time></trkpt><trkpt lat="42.1071994" lon="13.4914222"><ele>1029.0</ele><time>2026-03-24T11:00:58.96Z</time></trkpt><trkpt lat="42.1071325" lon="13.4912459"><ele>1029.0</ele><time>2026-03-24T11:00:59.961Z</time></trkpt><trkpt lat="42.1071081" lon="13.4910562"><ele>1029.0</ele><time>2026-03-24T11:01:00.961Z</time></trkpt><trkpt lat="42.1070945" lon="13.4908603"><ele>1029.0</ele><time>2026-03-24T11:01:01.96Z</time></trkpt><trkpt lat="42.1071192" lon="13.4906533"><ele>1029.0</ele><time>2026-03-24T11:01:02.961Z</time></trkpt><trkpt lat="42.1071547" lon="13.4904378"><ele>1030.3333333333333</ele><time>2026-03-24T11:01:03.961Z</time></trkpt><trkpt lat="42.1071966" lon="13.4902122"><ele>1031.6666666666665</ele><time>2026-03-24T11:01:04.96Z</time></trkpt><trkpt lat="42.107244" lon="13.4899841"><ele>1033.0</ele><time>2026-03-24T11:01:05.961Z</time></trkpt><trkpt lat="42.1072846" lon="13.4897531"><ele>1035.0</ele><time>2026-03-24T11:01:06.96Z</time></trkpt><trkpt lat="42.1073252" lon="13.489522"><ele>1037.0</ele><time>2026-03-24T11:01:07.96Z</time></trkpt><trkpt lat="42.1073766" lon="13.489302"><ele>1039.0</ele><time>2026-03-24T11:01:08.96Z</time></trkpt><trkpt lat="42.1074247" lon="13.4891005"><ele>1041.0</ele><time>2026-03-24T11:01:09.961Z</time></trkpt><trkpt lat="42.1074874" lon="13.4889195"><ele>1043.0</ele><time>2026-03-24T11:01:10.96Z</time></trkpt><trkpt lat="42.1075696" lon="13.48877"><ele>1045.0</ele><time>2026-03-24T11:01:11.96Z</time></trkpt><trkpt lat="42.1076771" lon="13.4886547"><ele>1047.0</ele><time>2026-03-24T11:01:12.96Z</time></trkpt><trkpt lat="42.1078093" lon="13.4885649"><ele>1047.0</ele><time>2026-03-24T11:01:13.961Z</time></trkpt><trkpt lat="42.1079672" lon="13.4884918"><ele>1047.0</ele><time>2026-03-24T11:01:14.961Z</time></trkpt><trkpt lat="42.1081331" lon="13.48843"><ele>1047.0</ele><time>2026-03-24T11:01:15.961Z</time></trkpt><trkpt lat="42.1082965" lon="13.4883605"><ele>1052.6666666666667</ele><time>2026-03-24T11:01:16.96Z</time></trkpt><trkpt lat="42.1084503" lon="13.4882722"><ele>1058.3333333333335</ele><time>2026-03-24T11:01:17.96Z</time></trkpt><trkpt lat="42.1085879" lon="13.4881555"><ele>1064.0</ele><time>2026-03-24T11:01:18.96Z</time></trkpt><trkpt lat="42.1087155" lon="13.4880168"><ele>1061.6666666666667</ele><time>2026-03-24T11:01:19.96Z</time></trkpt><trkpt lat="42.1088331" lon="13.4878624"><ele>1059.3333333333333</ele><time>2026-03-24T11:01:20.961Z</time></trkpt><trkpt lat="42.1089446" lon="13.4876988"><ele>1057.0</ele><time>2026-03-24T11:01:21.961Z</time></trkpt><trkpt lat="42.1090493" lon="13.4875203"><ele>1061.0</ele><time>2026-03-24T11:01:22.96Z</time></trkpt><trkpt lat="42.1091504" lon="13.4873283"><ele>1065.0</ele><time>2026-03-24T11:01:23.961Z</time></trkpt><trkpt lat="42.1092518" lon="13.4871268"><ele>1069.0</ele><time>2026-03-24T11:01:24.96Z</time></trkpt><trkpt lat="42.1093483" lon="13.4869236"><ele>1069.0</ele><time>2026-03-24T11:01:25.961Z</time></trkpt><trkpt lat="42.1094408" lon="13.4867206"><ele>1069.0</ele><time>2026-03-24T11:01:26.96Z</time></trkpt><trkpt lat="42.1095362" lon="13.4865234"><ele>1069.0</ele><time>2026-03-24T11:01:27.961Z</time></trkpt><trkpt lat="42.1096294" lon="13.486332"><ele>1067.3333333333333</ele><time>2026-03-24T11:01:28.961Z</time></trkpt><trkpt lat="42.1097182" lon="13.4861518"><ele>1065.6666666666667</ele><time>2026-03-24T11:01:29.96Z</time></trkpt><trkpt lat="42.1098026" lon="13.4859749"><ele>1064.0</ele><time>2026-03-24T11:01:30.961Z</time></trkpt><trkpt lat="42.1098836" lon="13.4857998"><ele>1069.6666666666667</ele><time>2026-03-24T11:01:31.961Z</time></trkpt><trkpt lat="42.109959" lon="13.4856197"><ele>1075.3333333333333</ele><time>2026-03-24T11:01:32.96Z</time></trkpt><trkpt lat="42.1100141" lon="13.4854254"><ele>1081.0</ele><time>2026-03-24T11:01:33.96Z</time></trkpt><trkpt lat="42.1100347" lon="13.4852087"><ele>1081.6666666666665</ele><time>2026-03-24T11:01:34.96Z</time></trkpt><trkpt lat="42.1100288" lon="13.4849827"><ele>1082.3333333333333</ele><time>2026-03-24T11:01:35.961Z</time></trkpt><trkpt lat="42.1100109" lon="13.4847385"><ele>1083.0</ele><time>2026-03-24T11:01:36.96Z</time></trkpt><trkpt lat="42.1099891" lon="13.4844999"><ele>1085.0</ele><time>2026-03-24T11:01:37.96Z</time></trkpt><trkpt lat="42.1099693" lon="13.4842585"><ele>1087.0</ele><time>2026-03-24T11:01:38.96Z</time></trkpt><trkpt lat="42.1099599" lon="13.4840219"><ele>1089.0</ele><time>2026-03-24T11:01:39.961Z</time></trkpt><trkpt lat="42.1099724" lon="13.4837945"><ele>1088.6666666666667</ele><time>2026-03-24T11:01:40.961Z</time></trkpt><trkpt lat="42.1100221" lon="13.4835718"><ele>1088.3333333333335</ele><time>2026-03-24T11:01:41.96Z</time></trkpt><trkpt lat="42.1100886" lon="13.4833662"><ele>1088.0</ele><time>2026-03-24T11:01:42.96Z</time></trkpt><trkpt lat="42.1101719" lon="13.4831672"><ele>1088.0</ele><time>2026-03-24T11:01:43.961Z</time></trkpt><trkpt lat="42.110277" lon="13.4829751"><ele>1088.0</ele><time>2026-03-24T11:01:44.96Z</time></trkpt><trkpt lat="42.1104014" lon="13.4828033"><ele>1088.0</ele><time>2026-03-24T11:01:45.96Z</time></trkpt><trkpt lat="42.1105392" lon="13.4826383"><ele>1085.6666666666667</ele><time>2026-03-24T11:01:46.961Z</time></trkpt><trkpt lat="42.1106817" lon="13.4824768"><ele>1083.3333333333333</ele><time>2026-03-24T11:01:47.961Z</time></trkpt><trkpt lat="42.110819" lon="13.4823037"><ele>1081.0</ele><time>2026-03-24T11:01:48.96Z</time></trkpt><trkpt lat="42.110938" lon="13.4821159"><ele>1086.0</ele><time>2026-03-24T11:01:49.96Z</time></trkpt><trkpt lat="42.1110298" lon="13.4819087"><ele>1091.0</ele><time>2026-03-24T11:01:50.961Z</time></trkpt><trkpt lat="42.1111031" lon="13.4816691"><ele>1096.0</ele><time>2026-03-24T11:01:51.96Z</time></trkpt><trkpt lat="42.1111594" lon="13.4814088"><ele>1096.3333333333333</ele><time>2026-03-24T11:01:52.96Z</time></trkpt><trkpt lat="42.1112085" lon="13.481129"><ele>1096.6666666666667</ele><time>2026-03-24T11:01:53.96Z</time></trkpt><trkpt lat="42.1112543" lon="13.4808537"><ele>1097.0</ele><time>2026-03-24T11:01:54.961Z</time></trkpt><trkpt lat="42.1112995" lon="13.4805845"><ele>1097.6666666666667</ele><time>2026-03-24T11:01:55.961Z</time></trkpt><trkpt lat="42.1113266" lon="13.4803261"><ele>1098.3333333333333</ele><time>2026-03-24T11:01:56.96Z</time></trkpt><trkpt lat="42.1113382" lon="13.4800595"><ele>1099.0</ele><time>2026-03-24T11:01:57.96Z</time></trkpt><trkpt lat="42.1113181" lon="13.4797923"><ele>1102.0</ele><time>2026-03-24T11:01:58.96Z</time></trkpt><trkpt lat="42.1112795" lon="13.479533"><ele>1105.0</ele><time>2026-03-24T11:01:59.96Z</time></trkpt><trkpt lat="42.1112188" lon="13.4792814"><ele>1108.0</ele><time>2026-03-24T11:02:00.961Z</time></trkpt><trkpt lat="42.1111507" lon="13.4790348"><ele>1108.0</ele><time>2026-03-24T11:02:01.96Z</time></trkpt><trkpt lat="42.1110876" lon="13.4787929"><ele>1108.0</ele><time>2026-03-24T11:02:02.96Z</time></trkpt><trkpt lat="42.1110328" lon="13.4785459"><ele>1108.0</ele><time>2026-03-24T11:02:03.96Z</time></trkpt><trkpt lat="42.1109954" lon="13.4782975"><ele>1108.6666666666665</ele><time>2026-03-24T11:02:04.96Z</time></trkpt><trkpt lat="42.1109809" lon="13.478049"><ele>1109.3333333333333</ele><time>2026-03-24T11:02:05.961Z</time></trkpt><trkpt lat="42.1109685" lon="13.4778065"><ele>1110.0</ele><time>2026-03-24T11:02:06.96Z</time></trkpt><trkpt lat="42.1109386" lon="13.4775646"><ele>1110.0</ele><time>2026-03-24T11:02:07.96Z</time></trkpt><trkpt lat="42.1108868" lon="13.4773261"><ele>1110.0</ele><time>2026-03-24T11:02:08.96Z</time></trkpt><trkpt lat="42.1108081" lon="13.4771008"><ele>1110.0</ele><time>2026-03-24T11:02:09.961Z</time></trkpt><trkpt lat="42.1107078" lon="13.4768914"><ele>1105.6666666666667</ele><time>2026-03-24T11:02:10.961Z</time></trkpt><trkpt lat="42.1105994" lon="13.4767004"><ele>1101.3333333333335</ele><time>2026-03-24T11:02:11.961Z</time></trkpt><trkpt lat="42.1104942" lon="13.4765118"><ele>1097.0</ele><time>2026-03-24T11:02:12.96Z</time></trkpt><trkpt lat="42.1103967" lon="13.4763232"><ele>1098.6666666666667</ele><time>2026-03-24T11:02:13.961Z</time></trkpt><trkpt lat="42.1103176" lon="13.4761166"><ele>1100.3333333333333</ele><time>2026-03-24T11:02:14.96Z</time></trkpt><trkpt lat="42.1102544" lon="13.4758966"><ele>1102.0</ele><time>2026-03-24T11:02:15.961Z</time></trkpt><trkpt lat="42.1102056" lon="13.4756595"><ele>1101.6666666666665</ele><time>2026-03-24T11:02:16.961Z</time></trkpt><trkpt lat="42.1101664" lon="13.4754087"><ele>1101.3333333333333</ele><time>2026-03-24T11:02:17.961Z</time></trkpt><trkpt lat="42.1101266" lon="13.4751557"><ele>1101.0</ele><time>2026-03-24T11:02:18.96Z</time></trkpt><trkpt lat="42.1100692" lon="13.4748971"><ele>1101.0</ele><time>2026-03-24T11:02:19.961Z</time></trkpt><trkpt lat="42.1099806" lon="13.4746441"><ele>1101.0</ele><time>2026-03-24T11:02:20.961Z</time></trkpt><trkpt lat="42.1098703" lon="13.4743877"><ele>1101.0</ele><time>2026-03-24T11:02:21.96Z</time></trkpt><trkpt lat="42.1097567" lon="13.4741171"><ele>1097.5</ele><time>2026-03-24T11:02:22.96Z</time></trkpt><trkpt lat="42.1096426" lon="13.4738456"><ele>1094.0</ele><time>2026-03-24T11:02:23.96Z</time></trkpt><trkpt lat="42.1095266" lon="13.4735807"><ele>1094.0</ele><time>2026-03-24T11:02:24.96Z</time></trkpt><trkpt lat="42.1094154" lon="13.4733165"><ele>1094.0</ele><time>2026-03-24T11:02:25.961Z</time></trkpt><trkpt lat="42.1093079" lon="13.4730459"><ele>1095.5</ele><time>2026-03-24T11:02:26.961Z</time></trkpt><trkpt lat="42.1092122" lon="13.4727692"><ele>1097.0</ele><time>2026-03-24T11:02:27.96Z</time></trkpt><trkpt lat="42.1091294" lon="13.4724829"><ele>1094.6666666666667</ele><time>2026-03-24T11:02:28.96Z</time></trkpt><trkpt lat="42.1090519" lon="13.4722023"><ele>1092.3333333333333</ele><time>2026-03-24T11:02:29.961Z</time></trkpt><trkpt lat="42.1089843" lon="13.4719167"><ele>1090.0</ele><time>2026-03-24T11:02:30.961Z</time></trkpt><trkpt lat="42.1089179" lon="13.4716463"><ele>1090.0</ele><time>2026-03-24T11:02:31.96Z</time></trkpt><trkpt lat="42.1088637" lon="13.4713873"><ele>1090.0</ele><time>2026-03-24T11:02:32.961Z</time></trkpt><trkpt lat="42.108836" lon="13.4711292"><ele>1090.0</ele><time>2026-03-24T11:02:33.961Z</time></trkpt><trkpt lat="42.1088291" lon="13.4708686"><ele>1090.3333333333333</ele><time>2026-03-24T11:02:34.96Z</time></trkpt><trkpt lat="42.1088374" lon="13.4706044"><ele>1090.6666666666667</ele><time>2026-03-24T11:02:35.96Z</time></trkpt><trkpt lat="42.1088406" lon="13.4703263"><ele>1091.0</ele><time>2026-03-24T11:02:36.961Z</time></trkpt><trkpt lat="42.1088222" lon="13.4700405"><ele>1089.0</ele><time>2026-03-24T11:02:37.96Z</time></trkpt><trkpt lat="42.1087672" lon="13.4697469"><ele>1087.0</ele><time>2026-03-24T11:02:38.961Z</time></trkpt><trkpt lat="42.1086787" lon="13.4694506"><ele>1086.5</ele><time>2026-03-24T11:02:39.96Z</time></trkpt><trkpt lat="42.1085814" lon="13.46916"><ele>1086.0</ele><time>2026-03-24T11:02:40.96Z</time></trkpt><trkpt lat="42.1084775" lon="13.46887"><ele>1088.5</ele><time>2026-03-24T11:02:41.96Z</time></trkpt><trkpt lat="42.1083763" lon="13.4685837"><ele>1091.0</ele><time>2026-03-24T11:02:42.96Z</time></trkpt><trkpt lat="42.1082734" lon="13.4683014"><ele>1089.5</ele><time>2026-03-24T11:02:43.96Z</time></trkpt><trkpt lat="42.1081712" lon="13.4680177"><ele>1088.0</ele><time>2026-03-24T11:02:44.961Z</time></trkpt><trkpt lat="42.1080678" lon="13.4677291"><ele>1088.0</ele><time>2026-03-24T11:02:45.96Z</time></trkpt><trkpt lat="42.1079669" lon="13.4674426"><ele>1088.0</ele><time>2026-03-24T11:02:46.96Z</time></trkpt><trkpt lat="42.1078644" lon="13.4671596"><ele>1090.5</ele><time>2026-03-24T11:02:47.961Z</time></trkpt><trkpt lat="42.10776" lon="13.4668804"><ele>1093.0</ele><time>2026-03-24T11:02:48.96Z</time></trkpt><trkpt lat="42.1076666" lon="13.4666147"><ele>1093.0</ele><time>2026-03-24T11:02:49.96Z</time></trkpt><trkpt lat="42.1075821" lon="13.4663661"><ele>1093.0</ele><time>2026-03-24T11:02:50.96Z</time></trkpt><trkpt lat="42.1075036" lon="13.4661264"><ele>1093.0</ele><time>2026-03-24T11:02:51.96Z</time></trkpt><trkpt lat="42.1074407" lon="13.4658808"><ele>1094.0</ele><time>2026-03-24T11:02:52.961Z</time></trkpt><trkpt lat="42.1074036" lon="13.4656408"><ele>1095.0</ele><time>2026-03-24T11:02:53.96Z</time></trkpt><trkpt lat="42.10738" lon="13.4654001"><ele>1096.0</ele><time>2026-03-24T11:02:54.96Z</time></trkpt><trkpt lat="42.1074084" lon="13.4651703"><ele>1097.0</ele><time>2026-03-24T11:02:55.96Z</time></trkpt><trkpt lat="42.1074525" lon="13.4649536"><ele>1098.0</ele><time>2026-03-24T11:02:56.96Z</time></trkpt><trkpt lat="42.1075288" lon="13.4647437"><ele>1099.0</ele><time>2026-03-24T11:02:57.961Z</time></trkpt><trkpt lat="42.1076252" lon="13.4645462"><ele>1099.0</ele><time>2026-03-24T11:02:58.961Z</time></trkpt><trkpt lat="42.1077349" lon="13.4643532"><ele>1099.0</ele><time>2026-03-24T11:02:59.961Z</time></trkpt><trkpt lat="42.1078457" lon="13.4641495"><ele>1099.0</ele><time>2026-03-24T11:03:00.96Z</time></trkpt><trkpt lat="42.1079605" lon="13.4639368"><ele>1099.0</ele><time>2026-03-24T11:03:01.961Z</time></trkpt><trkpt lat="42.1080813" lon="13.4637188"><ele>1099.0</ele><time>2026-03-24T11:03:02.96Z</time></trkpt><trkpt lat="42.1082016" lon="13.4634908"><ele>1099.0</ele><time>2026-03-24T11:03:03.96Z</time></trkpt><trkpt lat="42.1083182" lon="13.4632554"><ele>1101.6666666666665</ele><time>2026-03-24T11:03:04.96Z</time></trkpt><trkpt lat="42.1084222" lon="13.4630219"><ele>1104.3333333333333</ele><time>2026-03-24T11:03:05.96Z</time></trkpt><trkpt lat="42.1085035" lon="13.4628017"><ele>1107.0</ele><time>2026-03-24T11:03:06.96Z</time></trkpt><trkpt lat="42.1085716" lon="13.4625905"><ele>1108.0</ele><time>2026-03-24T11:03:07.96Z</time></trkpt><trkpt lat="42.1086281" lon="13.4623901"><ele>1109.0</ele><time>2026-03-24T11:03:08.96Z</time></trkpt><trkpt lat="42.1086791" lon="13.4622006"><ele>1110.0</ele><time>2026-03-24T11:03:09.96Z</time></trkpt><trkpt lat="42.1087252" lon="13.4620216"><ele>1111.0</ele><time>2026-03-24T11:03:10.96Z</time></trkpt><trkpt lat="42.1087664" lon="13.4618587"><ele>1111.2</ele><time>2026-03-24T11:03:11.96Z</time></trkpt><trkpt lat="42.108802" lon="13.4617088"><ele>1111.3999999999999</ele><time>2026-03-24T11:03:12.96Z</time></trkpt><trkpt lat="42.1088384" lon="13.461569"><ele>1111.6</ele><time>2026-03-24T11:03:13.961Z</time></trkpt><trkpt lat="42.1088737" lon="13.4614367"><ele>1111.8</ele><time>2026-03-24T11:03:14.961Z</time></trkpt><trkpt lat="42.1089056" lon="13.4613091"><ele>1112.0</ele><time>2026-03-24T11:03:15.961Z</time></trkpt><trkpt lat="42.1089383" lon="13.4611877"><ele>1111.6</ele><time>2026-03-24T11:03:16.961Z</time></trkpt><trkpt lat="42.1089767" lon="13.4610714"><ele>1111.2</ele><time>2026-03-24T11:03:17.96Z</time></trkpt><trkpt lat="42.1090238" lon="13.460964"><ele>1110.8</ele><time>2026-03-24T11:03:18.961Z</time></trkpt><trkpt lat="42.1090821" lon="13.4608638"><ele>1110.4</ele><time>2026-03-24T11:03:19.96Z</time></trkpt><trkpt lat="42.1091449" lon="13.4607748"><ele>1110.0</ele><time>2026-03-24T11:03:20.96Z</time></trkpt><trkpt lat="42.1092075" lon="13.4606833"><ele>1110.0</ele><time>2026-03-24T11:03:21.96Z</time></trkpt><trkpt lat="42.1092697" lon="13.4605935"><ele>1110.0</ele><time>2026-03-24T11:03:22.96Z</time></trkpt><trkpt lat="42.1093385" lon="13.4605048"><ele>1110.0</ele><time>2026-03-24T11:03:23.961Z</time></trkpt><trkpt lat="42.1094055" lon="13.4604147"><ele>1110.0</ele><time>2026-03-24T11:03:24.961Z</time></trkpt><trkpt lat="42.1094752" lon="13.4603256"><ele>1110.0</ele><time>2026-03-24T11:03:25.96Z</time></trkpt><trkpt lat="42.109544" lon="13.4602418"><ele>1108.0</ele><time>2026-03-24T11:03:26.96Z</time></trkpt><trkpt lat="42.1096163" lon="13.4601627"><ele>1106.0</ele><time>2026-03-24T11:03:27.96Z</time></trkpt><trkpt lat="42.1096717" lon="13.460097"><ele>1104.0</ele><time>2026-03-24T11:03:28.96Z</time></trkpt><trkpt lat="42.109737" lon="13.4600318"><ele>1102.0</ele><time>2026-03-24T11:03:30.961Z</time></trkpt><trkpt lat="42.109621" lon="13.4600834"><ele>1100.0</ele><time>2026-03-24T11:03:39.961Z</time></trkpt><trkpt lat="42.1095437" lon="13.4601683"><ele>1100.0</ele><time>2026-03-24T11:03:40.961Z</time></trkpt><trkpt lat="42.1094477" lon="13.4602885"><ele>1100.0</ele><time>2026-03-24T11:03:41.96Z</time></trkpt><trkpt lat="42.1093419" lon="13.4604281"><ele>1100.0</ele><time>2026-03-24T11:03:42.96Z</time></trkpt><trkpt lat="42.109226" lon="13.4605863"><ele>1100.0</ele><time>2026-03-24T11:03:43.961Z</time></trkpt><trkpt lat="42.1091101" lon="13.4607611"><ele>1101.25</ele><time>2026-03-24T11:03:44.96Z</time></trkpt><trkpt lat="42.1090145" lon="13.460924"><ele>1102.5</ele><time>2026-03-24T11:03:45.96Z</time></trkpt><trkpt lat="42.1089422" lon="13.4610752"><ele>1103.75</ele><time>2026-03-24T11:03:46.96Z</time></trkpt><trkpt lat="42.1088935" lon="13.4612145"><ele>1105.0</ele><time>2026-03-24T11:03:47.961Z</time></trkpt><trkpt lat="42.1088646" lon="13.4613369"><ele>1106.1666666666665</ele><time>2026-03-24T11:03:48.961Z</time></trkpt><trkpt lat="42.1088419" lon="13.4614384"><ele>1107.3333333333333</ele><time>2026-03-24T11:03:49.961Z</time></trkpt><trkpt lat="42.1087993" lon="13.4615762"><ele>1108.5</ele><time>2026-03-24T11:03:51.96Z</time></trkpt><trkpt lat="42.1087387" lon="13.4616046"><ele>1109.6666666666667</ele><time>2026-03-24T11:03:54.96Z</time></trkpt><trkpt lat="42.1087101" lon="13.4615004"><ele>1110.8333333333335</ele><time>2026-03-24T11:03:57.961Z</time></trkpt><trkpt lat="42.1087112" lon="13.4614147"><ele>1112.0</ele><time>2026-03-24T11:03:59.961Z</time></trkpt><trkpt lat="42.1086763" lon="13.4613106"><ele>1112.0</ele><time>2026-03-24T11:04:20.96Z</time></trkpt><trkpt lat="42.1086167" lon="13.4612812"><ele>1112.0</ele><time>2026-03-24T11:04:23.96Z</time></trkpt><trkpt lat="42.1085457" lon="13.4612057"><ele>1112.0</ele><time>2026-03-24T11:04:26.961Z</time></trkpt><trkpt lat="42.1084981" lon="13.461143"><ele>1112.0</ele><time>2026-03-24T11:04:29.96Z</time></trkpt><trkpt lat="42.1084745" lon="13.4612228"><ele>1112.0</ele><time>2026-03-24T11:04:33.96Z</time></trkpt><trkpt lat="42.1085333" lon="13.4612585"><ele>1112.0</ele><time>2026-03-24T11:07:53.96Z</time></trkpt><trkpt lat="42.108604" lon="13.4613076"><ele>1112.0</ele><time>2026-03-24T11:07:55.96Z</time></trkpt><trkpt lat="42.1086744" lon="13.4613633"><ele>1110.6</ele><time>2026-03-24T11:07:57.96Z</time></trkpt><trkpt lat="42.1086801" lon="13.4612638"><ele>1109.2</ele><time>2026-03-24T11:08:01.96Z</time></trkpt><trkpt lat="42.108648" lon="13.461139"><ele>1107.8</ele><time>2026-03-24T11:08:03.96Z</time></trkpt><trkpt lat="42.1086182" lon="13.460996"><ele>1106.4</ele><time>2026-03-24T11:08:05.96Z</time></trkpt><trkpt lat="42.1085982" lon="13.4608689"><ele>1105.0</ele><time>2026-03-24T11:08:07.96Z</time></trkpt><trkpt lat="42.1085809" lon="13.4607398"><ele>1105.0</ele><time>2026-03-24T11:08:09.96Z</time></trkpt><trkpt lat="42.1085636" lon="13.4606107"><ele>1105.0</ele><time>2026-03-24T11:08:11.961Z</time></trkpt><trkpt lat="42.1085364" lon="13.4604795"><ele>1105.0</ele><time>2026-03-24T11:08:13.96Z</time></trkpt><trkpt lat="42.1084982" lon="13.460358"><ele>1105.0</ele><time>2026-03-24T11:08:15.96Z</time></trkpt><trkpt lat="42.1084613" lon="13.460265"><ele>1105.0</ele><time>2026-03-24T11:08:17.96Z</time></trkpt><trkpt lat="42.1084376" lon="13.4601746"><ele>1105.0</ele><time>2026-03-24T11:08:19.96Z</time></trkpt><trkpt lat="42.1084678" lon="13.4600563"><ele>1103.0</ele><time>2026-03-24T11:08:22.96Z</time></trkpt><trkpt lat="42.1085203" lon="13.4599802"><ele>1101.0</ele><time>2026-03-24T11:08:25.961Z</time></trkpt><trkpt lat="42.1085517" lon="13.4599042"><ele>1099.0</ele><time>2026-03-24T11:08:28.961Z</time></trkpt><trkpt lat="42.10859" lon="13.4597978"><ele>1097.0</ele><time>2026-03-24T11:08:31.96Z</time></trkpt><trkpt lat="42.1085709" lon="13.4596935"><ele>1095.0</ele><time>2026-03-24T11:08:33.96Z</time></trkpt><trkpt lat="42.1085447" lon="13.4595697"><ele>1093.0</ele><time>2026-03-24T11:08:35.961Z</time></trkpt><trkpt lat="42.1085335" lon="13.4594275"><ele>1090.25</ele><time>2026-03-24T11:08:37.961Z</time></trkpt><trkpt lat="42.1085235" lon="13.4592715"><ele>1087.5</ele><time>2026-03-24T11:08:39.961Z</time></trkpt><trkpt lat="42.1085087" lon="13.4591054"><ele>1084.75</ele><time>2026-03-24T11:08:41.96Z</time></trkpt><trkpt lat="42.1085054" lon="13.4589404"><ele>1082.0</ele><time>2026-03-24T11:08:43.96Z</time></trkpt><trkpt lat="42.1085169" lon="13.4587967"><ele>1080.5</ele><time>2026-03-24T11:08:45.96Z</time></trkpt><trkpt lat="42.1085391" lon="13.458702"><ele>1079.0</ele><time>2026-03-24T11:08:47.961Z</time></trkpt><trkpt lat="42.1085479" lon="13.4585947"><ele>1077.5</ele><time>2026-03-24T11:08:49.961Z</time></trkpt><trkpt lat="42.1085508" lon="13.4584735"><ele>1076.0</ele><time>2026-03-24T11:08:51.961Z</time></trkpt><trkpt lat="42.1085558" lon="13.4583463"><ele>1074.5</ele><time>2026-03-24T11:08:53.961Z</time></trkpt><trkpt lat="42.1085617" lon="13.4582046"><ele>1073.0</ele><time>2026-03-24T11:08:55.96Z</time></trkpt><trkpt lat="42.1085719" lon="13.4580333"><ele>1071.2</ele><time>2026-03-24T11:08:57.96Z</time></trkpt><trkpt lat="42.1085807" lon="13.4579449"><ele>1069.4</ele><time>2026-03-24T11:08:58.96Z</time></trkpt><trkpt lat="42.1086267" lon="13.4577909"><ele>1067.6000000000001</ele><time>2026-03-24T11:09:00.96Z</time></trkpt><trkpt lat="42.1086662" lon="13.4576483"><ele>1065.8</ele><time>2026-03-24T11:09:02.961Z</time></trkpt><trkpt lat="42.1086751" lon="13.457508"><ele>1064.0</ele><time>2026-03-24T11:09:04.96Z</time></trkpt><trkpt lat="42.1086663" lon="13.4573755"><ele>1064.0</ele><time>2026-03-24T11:09:06.96Z</time></trkpt><trkpt lat="42.1086538" lon="13.4572577"><ele>1064.0</ele><time>2026-03-24T11:09:08.961Z</time></trkpt><trkpt lat="42.1086482" lon="13.4571477"><ele>1064.0</ele><time>2026-03-24T11:09:10.961Z</time></trkpt><trkpt lat="42.10865" lon="13.4570396"><ele>1064.0</ele><time>2026-03-24T11:09:12.96Z</time></trkpt><trkpt lat="42.1086544" lon="13.4569295"><ele>1064.0</ele><time>2026-03-24T11:09:14.96Z</time></trkpt><trkpt lat="42.1086635" lon="13.4567994"><ele>1064.0</ele><time>2026-03-24T11:09:16.96Z</time></trkpt><trkpt lat="42.108672" lon="13.456661"><ele>1062.0</ele><time>2026-03-24T11:09:18.96Z</time></trkpt><trkpt lat="42.1086615" lon="13.4565287"><ele>1060.0</ele><time>2026-03-24T11:09:20.96Z</time></trkpt><trkpt lat="42.1086584" lon="13.4564415"><ele>1058.0</ele><time>2026-03-24T11:09:21.961Z</time></trkpt><trkpt lat="42.1086485" lon="13.4563402"><ele>1056.0</ele><time>2026-03-24T11:09:22.96Z</time></trkpt><trkpt lat="42.1086305" lon="13.4561917"><ele>1054.0</ele><time>2026-03-24T11:09:24.96Z</time></trkpt><trkpt lat="42.1086016" lon="13.4560461"><ele>1052.6000000000001</ele><time>2026-03-24T11:09:26.96Z</time></trkpt><trkpt lat="42.1085706" lon="13.4559536"><ele>1051.2</ele><time>2026-03-24T11:09:27.96Z</time></trkpt><trkpt lat="42.1085235" lon="13.4558391"><ele>1049.8000000000002</ele><time>2026-03-24T11:09:29.96Z</time></trkpt><trkpt lat="42.1084979" lon="13.4557158"><ele>1048.4</ele><time>2026-03-24T11:09:31.96Z</time></trkpt><trkpt lat="42.1084843" lon="13.4555852"><ele>1047.0</ele><time>2026-03-24T11:09:33.96Z</time></trkpt><trkpt lat="42.1084698" lon="13.4554438"><ele>1046.0</ele><time>2026-03-24T11:09:35.961Z</time></trkpt><trkpt lat="42.108446" lon="13.455302"><ele>1045.0</ele><time>2026-03-24T11:09:37.96Z</time></trkpt><trkpt lat="42.1084252" lon="13.4551607"><ele>1044.0</ele><time>2026-03-24T11:09:39.96Z</time></trkpt><trkpt lat="42.1084062" lon="13.4550619"><ele>1043.0</ele><time>2026-03-24T11:09:40.96Z</time></trkpt><trkpt lat="42.1083901" lon="13.4549633"><ele>1042.0</ele><time>2026-03-24T11:09:41.96Z</time></trkpt><trkpt lat="42.1083654" lon="13.454873"><ele>1041.0</ele><time>2026-03-24T11:09:42.961Z</time></trkpt><trkpt lat="42.1083467" lon="13.4547827"><ele>1041.0</ele><time>2026-03-24T11:09:43.96Z</time></trkpt><trkpt lat="42.1083361" lon="13.4546927"><ele>1041.0</ele><time>2026-03-24T11:09:44.96Z</time></trkpt><trkpt lat="42.1083223" lon="13.4546043"><ele>1041.0</ele><time>2026-03-24T11:09:45.96Z</time></trkpt><trkpt lat="42.1083122" lon="13.4545158"><ele>1041.0</ele><time>2026-03-24T11:09:46.961Z</time></trkpt><trkpt lat="42.1082985" lon="13.4544236"><ele>1041.0</ele><time>2026-03-24T11:09:47.96Z</time></trkpt><trkpt lat="42.1082817" lon="13.454317"><ele>1041.0</ele><time>2026-03-24T11:09:48.961Z</time></trkpt><trkpt lat="42.1082659" lon="13.454209"><ele>1041.0</ele><time>2026-03-24T11:09:49.96Z</time></trkpt><trkpt lat="42.1082618" lon="13.4541066"><ele>1040.2857142857142</ele><time>2026-03-24T11:09:50.96Z</time></trkpt><trkpt lat="42.108251" lon="13.4540101"><ele>1039.5714285714287</ele><time>2026-03-24T11:09:51.96Z</time></trkpt><trkpt lat="42.1082493" lon="13.4539209"><ele>1038.857142857143</ele><time>2026-03-24T11:09:52.96Z</time></trkpt><trkpt lat="42.1082453" lon="13.4538293"><ele>1038.142857142857</ele><time>2026-03-24T11:09:53.961Z</time></trkpt><trkpt lat="42.1082368" lon="13.4537287"><ele>1037.4285714285716</ele><time>2026-03-24T11:09:54.961Z</time></trkpt><trkpt lat="42.1082252" lon="13.4536336"><ele>1036.7142857142858</ele><time>2026-03-24T11:09:55.96Z</time></trkpt><trkpt lat="42.1082237" lon="13.4535459"><ele>1036.0</ele><time>2026-03-24T11:09:56.961Z</time></trkpt><trkpt lat="42.1081897" lon="13.4533813"><ele>1033.3333333333333</ele><time>2026-03-24T11:09:58.96Z</time></trkpt><trkpt lat="42.108159" lon="13.4532845"><ele>1030.6666666666665</ele><time>2026-03-24T11:09:59.96Z</time></trkpt><trkpt lat="42.1081243" lon="13.453178"><ele>1028.0</ele><time>2026-03-24T11:10:00.96Z</time></trkpt><trkpt lat="42.108092" lon="13.4530794"><ele>1025.3333333333333</ele><time>2026-03-24T11:10:01.96Z</time></trkpt><trkpt lat="42.1080695" lon="13.4529825"><ele>1022.6666666666666</ele><time>2026-03-24T11:10:02.961Z</time></trkpt><trkpt lat="42.1080542" lon="13.4528825"><ele>1020.0</ele><time>2026-03-24T11:10:03.961Z</time></trkpt><trkpt lat="42.1080465" lon="13.4527651"><ele>1018.8</ele><time>2026-03-24T11:10:04.96Z</time></trkpt><trkpt lat="42.108044" lon="13.4526292"><ele>1017.6</ele><time>2026-03-24T11:10:05.96Z</time></trkpt><trkpt lat="42.1080437" lon="13.4524889"><ele>1016.4000000000001</ele><time>2026-03-24T11:10:06.961Z</time></trkpt><trkpt lat="42.1080436" lon="13.4523637"><ele>1015.2</ele><time>2026-03-24T11:10:07.96Z</time></trkpt><trkpt lat="42.1080446" lon="13.4522456"><ele>1014.0</ele><time>2026-03-24T11:10:08.96Z</time></trkpt><trkpt lat="42.1080443" lon="13.4521465"><ele>1014.0</ele><time>2026-03-24T11:10:09.96Z</time></trkpt><trkpt lat="42.10803" lon="13.4520024"><ele>1014.0000000000001</ele><time>2026-03-24T11:10:11.96Z</time></trkpt><trkpt lat="42.1079851" lon="13.4518362"><ele>1014.0000000000001</ele><time>2026-03-24T11:10:13.96Z</time></trkpt><trkpt lat="42.1079629" lon="13.4517504"><ele>1014.0</ele><time>2026-03-24T11:10:14.96Z</time></trkpt><trkpt lat="42.1079445" lon="13.451599"><ele>1014.0</ele><time>2026-03-24T11:10:16.96Z</time></trkpt><trkpt lat="42.1079387" lon="13.4514819"><ele>1014.0</ele><time>2026-03-24T11:10:18.96Z</time></trkpt><trkpt lat="42.1079131" lon="13.4513981"><ele>1014.0</ele><time>2026-03-24T11:10:20.96Z</time></trkpt><trkpt lat="42.1078645" lon="13.4512885"><ele>1014.0</ele><time>2026-03-24T11:10:22.96Z</time></trkpt><trkpt lat="42.1078099" lon="13.4511376"><ele>1014.0</ele><time>2026-03-24T11:10:24.96Z</time></trkpt><trkpt lat="42.1077786" lon="13.4510432"><ele>1014.0</ele><time>2026-03-24T11:10:25.96Z</time></trkpt><trkpt lat="42.1077419" lon="13.4509432"><ele>1014.0</ele><time>2026-03-24T11:10:26.96Z</time></trkpt><trkpt lat="42.1076995" lon="13.4508391"><ele>1013.8333333333334</ele><time>2026-03-24T11:10:27.96Z</time></trkpt><trkpt lat="42.1076602" lon="13.4507418"><ele>1013.6666666666667</ele><time>2026-03-24T11:10:28.96Z</time></trkpt><trkpt lat="42.1076178" lon="13.4506402"><ele>1013.5</ele><time>2026-03-24T11:10:29.96Z</time></trkpt><trkpt lat="42.1075795" lon="13.4505481"><ele>1013.3333333333334</ele><time>2026-03-24T11:10:30.96Z</time></trkpt><trkpt lat="42.1075457" lon="13.4504552"><ele>1013.1666666666667</ele><time>2026-03-24T11:10:31.96Z</time></trkpt><trkpt lat="42.1075183" lon="13.450376"><ele>1013.0</ele><time>2026-03-24T11:10:32.96Z</time></trkpt><trkpt lat="42.107461" lon="13.4502591"><ele>1011.4</ele><time>2026-03-24T11:10:34.96Z</time></trkpt><trkpt lat="42.1074036" lon="13.4501318"><ele>1009.8</ele><time>2026-03-24T11:10:36.96Z</time></trkpt><trkpt lat="42.1073486" lon="13.4499996"><ele>1008.2</ele><time>2026-03-24T11:10:38.96Z</time></trkpt><trkpt lat="42.107286" lon="13.4498844"><ele>1006.6</ele><time>2026-03-24T11:10:40.961Z</time></trkpt><trkpt lat="42.1072468" lon="13.4498166"><ele>1005.0</ele><time>2026-03-24T11:10:41.96Z</time></trkpt><trkpt lat="42.1071801" lon="13.4496928"><ele>1004.4</ele><time>2026-03-24T11:10:43.961Z</time></trkpt><trkpt lat="42.1071188" lon="13.4495693"><ele>1003.8</ele><time>2026-03-24T11:10:45.961Z</time></trkpt><trkpt lat="42.107051" lon="13.4494412"><ele>1003.2</ele><time>2026-03-24T11:10:47.961Z</time></trkpt><trkpt lat="42.1070146" lon="13.4493709"><ele>1002.6</ele><time>2026-03-24T11:10:48.961Z</time></trkpt><trkpt lat="42.1069516" lon="13.4492205"><ele>1002.0</ele><time>2026-03-24T11:10:50.96Z</time></trkpt><trkpt lat="42.1069204" lon="13.4491384"><ele>1002.0</ele><time>2026-03-24T11:10:51.961Z</time></trkpt><trkpt lat="42.1068859" lon="13.4490575"><ele>1002.0</ele><time>2026-03-24T11:10:52.96Z</time></trkpt><trkpt lat="42.1068429" lon="13.4489559"><ele>1002.0</ele><time>2026-03-24T11:10:53.961Z</time></trkpt><trkpt lat="42.1067944" lon="13.4488422"><ele>1002.0</ele><time>2026-03-24T11:10:54.96Z</time></trkpt><trkpt lat="42.1067512" lon="13.4487191"><ele>1002.0</ele><time>2026-03-24T11:10:55.96Z</time></trkpt><trkpt lat="42.1067085" lon="13.4486082"><ele>1002.0</ele><time>2026-03-24T11:10:56.961Z</time></trkpt><trkpt lat="42.1066751" lon="13.4485136"><ele>1001.6</ele><time>2026-03-24T11:10:57.96Z</time></trkpt><trkpt lat="42.1066379" lon="13.4484264"><ele>1001.2</ele><time>2026-03-24T11:10:58.96Z</time></trkpt><trkpt lat="42.1066071" lon="13.4483489"><ele>1000.8</ele><time>2026-03-24T11:10:59.961Z</time></trkpt><trkpt lat="42.1065576" lon="13.4482219"><ele>1000.4</ele><time>2026-03-24T11:11:01.96Z</time></trkpt><trkpt lat="42.1064938" lon="13.4481281"><ele>1000.0</ele><time>2026-03-24T11:11:03.96Z</time></trkpt><trkpt lat="42.1063932" lon="13.4480671"><ele>998.9999999999999</ele><time>2026-03-24T11:11:05.96Z</time></trkpt><trkpt lat="42.1063076" lon="13.448045"><ele>998.0</ele><time>2026-03-24T11:11:06.96Z</time></trkpt><trkpt lat="42.1062278" lon="13.4480205"><ele>997.0</ele><time>2026-03-24T11:11:07.96Z</time></trkpt><trkpt lat="42.1061555" lon="13.4480004"><ele>996.0</ele><time>2026-03-24T11:11:08.96Z</time></trkpt><trkpt lat="42.1060879" lon="13.4479753"><ele>994.9999999999999</ele><time>2026-03-24T11:11:09.961Z</time></trkpt><trkpt lat="42.1059883" lon="13.4478974"><ele>994.0</ele><time>2026-03-24T11:11:11.96Z</time></trkpt><trkpt lat="42.1059199" lon="13.4477784"><ele>993.6666666666666</ele><time>2026-03-24T11:11:13.961Z</time></trkpt><trkpt lat="42.1058885" lon="13.4477001"><ele>993.3333333333333</ele><time>2026-03-24T11:11:14.96Z</time></trkpt><trkpt lat="42.1058567" lon="13.4476035"><ele>993.0</ele><time>2026-03-24T11:11:15.96Z</time></trkpt><trkpt lat="42.1058232" lon="13.4474986"><ele>992.6666666666667</ele><time>2026-03-24T11:11:16.96Z</time></trkpt><trkpt lat="42.105793" lon="13.4473838"><ele>992.3333333333334</ele><time>2026-03-24T11:11:17.96Z</time></trkpt><trkpt lat="42.1057678" lon="13.4472651"><ele>992.0</ele><time>2026-03-24T11:11:18.96Z</time></trkpt><trkpt lat="42.1057465" lon="13.4471603"><ele>991.0000000000001</ele><time>2026-03-24T11:11:19.96Z</time></trkpt><trkpt lat="42.1057353" lon="13.447063"><ele>990.0</ele><time>2026-03-24T11:11:20.96Z</time></trkpt><trkpt lat="42.1057365" lon="13.4469602"><ele>989.0</ele><time>2026-03-24T11:11:21.96Z</time></trkpt><trkpt lat="42.1057519" lon="13.4468471"><ele>988.0</ele><time>2026-03-24T11:11:22.961Z</time></trkpt><trkpt lat="42.1057763" lon="13.4467434"><ele>987.0000000000001</ele><time>2026-03-24T11:11:23.961Z</time></trkpt><trkpt lat="42.1058072" lon="13.4466524"><ele>986.0</ele><time>2026-03-24T11:11:24.96Z</time></trkpt><trkpt lat="42.1058272" lon="13.4465658"><ele>986.0</ele><time>2026-03-24T11:11:25.961Z</time></trkpt><trkpt lat="42.1058246" lon="13.4464127"><ele>985.9999999999999</ele><time>2026-03-24T11:11:27.96Z</time></trkpt><trkpt lat="42.1057876" lon="13.4462856"><ele>985.9999999999999</ele><time>2026-03-24T11:11:29.96Z</time></trkpt><trkpt lat="42.1057279" lon="13.4461825"><ele>986.0</ele><time>2026-03-24T11:11:31.96Z</time></trkpt><trkpt lat="42.1056902" lon="13.4460729"><ele>986.0</ele><time>2026-03-24T11:11:33.961Z</time></trkpt><trkpt lat="42.1056464" lon="13.4459532"><ele>984.5000000000001</ele><time>2026-03-24T11:11:35.96Z</time></trkpt><trkpt lat="42.1055873" lon="13.4458069"><ele>983.0</ele><time>2026-03-24T11:11:37.96Z</time></trkpt><trkpt lat="42.1055526" lon="13.4457215"><ele>981.5</ele><time>2026-03-24T11:11:38.96Z</time></trkpt><trkpt lat="42.1055161" lon="13.4456383"><ele>980.0</ele><time>2026-03-24T11:11:39.961Z</time></trkpt><trkpt lat="42.1054763" lon="13.445552"><ele>978.5000000000001</ele><time>2026-03-24T11:11:40.96Z</time></trkpt><trkpt lat="42.1054368" lon="13.4454579"><ele>977.0</ele><time>2026-03-24T11:11:41.961Z</time></trkpt><trkpt lat="42.105403" lon="13.4453715"><ele>977.0</ele><time>2026-03-24T11:11:42.96Z</time></trkpt><trkpt lat="42.1053586" lon="13.4452368"><ele>977.0</ele><time>2026-03-24T11:11:44.961Z</time></trkpt><trkpt lat="42.1053125" lon="13.4451143"><ele>977.0</ele><time>2026-03-24T11:11:46.961Z</time></trkpt><trkpt lat="42.1052753" lon="13.444999"><ele>977.0</ele><time>2026-03-24T11:11:48.961Z</time></trkpt><trkpt lat="42.1052267" lon="13.4448815"><ele>977.0</ele><time>2026-03-24T11:11:50.96Z</time></trkpt><trkpt lat="42.1051923" lon="13.444792"><ele>977.0</ele><time>2026-03-24T11:11:51.96Z</time></trkpt><trkpt lat="42.1051496" lon="13.4446788"><ele>977.0</ele><time>2026-03-24T11:11:52.961Z</time></trkpt><trkpt lat="42.1051021" lon="13.4445362"><ele>977.0</ele><time>2026-03-24T11:11:53.96Z</time></trkpt><trkpt lat="42.1050408" lon="13.4443702"><ele>977.0</ele><time>2026-03-24T11:11:54.96Z</time></trkpt><trkpt lat="42.1049828" lon="13.4442148"><ele>976.5</ele><time>2026-03-24T11:11:55.96Z</time></trkpt><trkpt lat="42.1049274" lon="13.444077"><ele>976.0</ele><time>2026-03-24T11:11:56.961Z</time></trkpt><trkpt lat="42.1048619" lon="13.4439408"><ele>975.5</ele><time>2026-03-24T11:11:57.96Z</time></trkpt><trkpt lat="42.1047831" lon="13.4438045"><ele>975.0</ele><time>2026-03-24T11:11:58.96Z</time></trkpt><trkpt lat="42.1047148" lon="13.4436958"><ele>974.6</ele><time>2026-03-24T11:11:59.961Z</time></trkpt><trkpt lat="42.1046673" lon="13.4435962"><ele>974.2</ele><time>2026-03-24T11:12:00.96Z</time></trkpt><trkpt lat="42.1046238" lon="13.4434848"><ele>973.8</ele><time>2026-03-24T11:12:01.961Z</time></trkpt><trkpt lat="42.1045868" lon="13.4433643"><ele>973.4</ele><time>2026-03-24T11:12:02.961Z</time></trkpt><trkpt lat="42.1045488" lon="13.4432586"><ele>973.0</ele><time>2026-03-24T11:12:03.961Z</time></trkpt><trkpt lat="42.1044997" lon="13.4431641"><ele>972.9999999999999</ele><time>2026-03-24T11:12:04.96Z</time></trkpt><trkpt lat="42.104449" lon="13.4430758"><ele>973.0</ele><time>2026-03-24T11:12:05.961Z</time></trkpt><trkpt lat="42.1044031" lon="13.443002"><ele>973.0</ele><time>2026-03-24T11:12:06.96Z</time></trkpt><trkpt lat="42.10436" lon="13.4429359"><ele>973.0</ele><time>2026-03-24T11:12:07.96Z</time></trkpt><trkpt lat="42.1043161" lon="13.4428706"><ele>972.9999999999999</ele><time>2026-03-24T11:12:08.961Z</time></trkpt><trkpt lat="42.1042632" lon="13.4427778"><ele>973.0</ele><time>2026-03-24T11:12:09.96Z</time></trkpt><trkpt lat="42.1041986" lon="13.4426678"><ele>973.0</ele><time>2026-03-24T11:12:10.96Z</time></trkpt><trkpt lat="42.1041352" lon="13.4425439"><ele>973.0</ele><time>2026-03-24T11:12:11.961Z</time></trkpt><trkpt lat="42.1040759" lon="13.4423996"><ele>973.0</ele><time>2026-03-24T11:12:12.96Z</time></trkpt><trkpt lat="42.1040147" lon="13.4422325"><ele>973.0</ele><time>2026-03-24T11:12:13.961Z</time></trkpt><trkpt lat="42.1039395" lon="13.4420421"><ele>972.25</ele><time>2026-03-24T11:12:14.961Z</time></trkpt><trkpt lat="42.1038727" lon="13.4418732"><ele>971.5</ele><time>2026-03-24T11:12:15.961Z</time></trkpt><trkpt lat="42.1038124" lon="13.4417168"><ele>970.75</ele><time>2026-03-24T11:12:16.961Z</time></trkpt><trkpt lat="42.1037498" lon="13.4415816"><ele>970.0</ele><time>2026-03-24T11:12:17.961Z</time></trkpt><trkpt lat="42.1036674" lon="13.441457"><ele>970.0</ele><time>2026-03-24T11:12:18.96Z</time></trkpt><trkpt lat="42.1035754" lon="13.4413186"><ele>970.0</ele><time>2026-03-24T11:12:19.96Z</time></trkpt><trkpt lat="42.1034967" lon="13.4412007"><ele>970.0</ele><time>2026-03-24T11:12:20.96Z</time></trkpt><trkpt lat="42.1034275" lon="13.4410945"><ele>970.0</ele><time>2026-03-24T11:12:21.961Z</time></trkpt><trkpt lat="42.1033727" lon="13.4410062"><ele>970.0</ele><time>2026-03-24T11:12:22.961Z</time></trkpt><trkpt lat="42.1033325" lon="13.4409243"><ele>970.4</ele><time>2026-03-24T11:12:23.96Z</time></trkpt><trkpt lat="42.1032886" lon="13.4408138"><ele>970.8</ele><time>2026-03-24T11:12:25.961Z</time></trkpt><trkpt lat="42.1032575" lon="13.4407197"><ele>971.2</ele><time>2026-03-24T11:12:27.961Z</time></trkpt><trkpt lat="42.1031905" lon="13.4405898"><ele>971.6</ele><time>2026-03-24T11:12:29.96Z</time></trkpt><trkpt lat="42.1031379" lon="13.4405029"><ele>972.0</ele><time>2026-03-24T11:12:30.961Z</time></trkpt><trkpt lat="42.1030644" lon="13.4404"><ele>972.0</ele><time>2026-03-24T11:12:31.961Z</time></trkpt><trkpt lat="42.102971" lon="13.4402914"><ele>972.0</ele><time>2026-03-24T11:12:32.96Z</time></trkpt><trkpt lat="42.1028727" lon="13.4402"><ele>972.0</ele><time>2026-03-24T11:12:33.96Z</time></trkpt><trkpt lat="42.1027607" lon="13.4401215"><ele>972.0</ele><time>2026-03-24T11:12:34.961Z</time></trkpt><trkpt lat="42.1026355" lon="13.4400667"><ele>972.0</ele><time>2026-03-24T11:12:35.96Z</time></trkpt><trkpt lat="42.102529" lon="13.4400189"><ele>972.0</ele><time>2026-03-24T11:12:36.96Z</time></trkpt><trkpt lat="42.1024461" lon="13.4399588"><ele>972.0</ele><time>2026-03-24T11:12:37.96Z</time></trkpt><trkpt lat="42.1023623" lon="13.4398765"><ele>972.0</ele><time>2026-03-24T11:12:38.96Z</time></trkpt><trkpt lat="42.102276" lon="13.4397735"><ele>972.0</ele><time>2026-03-24T11:12:39.961Z</time></trkpt><trkpt lat="42.1021799" lon="13.4396394"><ele>973.0</ele><time>2026-03-24T11:12:40.96Z</time></trkpt><trkpt lat="42.1020852" lon="13.4395088"><ele>974.0</ele><time>2026-03-24T11:12:41.96Z</time></trkpt><trkpt lat="42.1020127" lon="13.4393826"><ele>975.0</ele><time>2026-03-24T11:12:42.96Z</time></trkpt><trkpt lat="42.1019403" lon="13.4392664"><ele>976.0</ele><time>2026-03-24T11:12:43.96Z</time></trkpt><trkpt lat="42.1018603" lon="13.4391673"><ele>976.0</ele><time>2026-03-24T11:12:44.96Z</time></trkpt><trkpt lat="42.1017779" lon="13.4390669"><ele>976.0</ele><time>2026-03-24T11:12:45.961Z</time></trkpt><trkpt lat="42.1016988" lon="13.438962"><ele>976.0</ele><time>2026-03-24T11:12:46.96Z</time></trkpt><trkpt lat="42.1016202" lon="13.4388519"><ele>976.0</ele><time>2026-03-24T11:12:47.96Z</time></trkpt><trkpt lat="42.1015394" lon="13.4387295"><ele>975.75</ele><time>2026-03-24T11:12:48.96Z</time></trkpt><trkpt lat="42.1014629" lon="13.4386047"><ele>975.5</ele><time>2026-03-24T11:12:49.96Z</time></trkpt><trkpt lat="42.1013851" lon="13.4384738"><ele>975.25</ele><time>2026-03-24T11:12:50.961Z</time></trkpt><trkpt lat="42.1013134" lon="13.4383352"><ele>975.0</ele><time>2026-03-24T11:12:51.96Z</time></trkpt><trkpt lat="42.1012319" lon="13.4381866"><ele>975.0</ele><time>2026-03-24T11:12:52.961Z</time></trkpt><trkpt lat="42.1011377" lon="13.4380428"><ele>975.0</ele><time>2026-03-24T11:12:53.96Z</time></trkpt><trkpt lat="42.1010517" lon="13.4379031"><ele>975.0</ele><time>2026-03-24T11:12:54.96Z</time></trkpt><trkpt lat="42.1009783" lon="13.4377768"><ele>975.0</ele><time>2026-03-24T11:12:55.96Z</time></trkpt><trkpt lat="42.1009198" lon="13.4376703"><ele>975.0</ele><time>2026-03-24T11:12:56.96Z</time></trkpt><trkpt lat="42.1008714" lon="13.4375712"><ele>975.0</ele><time>2026-03-24T11:12:57.96Z</time></trkpt><trkpt lat="42.1008274" lon="13.4374966"><ele>975.0</ele><time>2026-03-24T11:12:58.96Z</time></trkpt><trkpt lat="42.1007566" lon="13.4373775"><ele>975.0</ele><time>2026-03-24T11:13:00.96Z</time></trkpt><trkpt lat="42.1007072" lon="13.4372969"><ele>975.0</ele><time>2026-03-24T11:13:02.96Z</time></trkpt><trkpt lat="42.1006558" lon="13.4372107"><ele>975.0</ele><time>2026-03-24T11:13:04.961Z</time></trkpt><trkpt lat="42.1005826" lon="13.4370779"><ele>974.4</ele><time>2026-03-24T11:13:06.96Z</time></trkpt><trkpt lat="42.1005351" lon="13.4369891"><ele>973.8</ele><time>2026-03-24T11:13:07.961Z</time></trkpt><trkpt lat="42.1004853" lon="13.4368876"><ele>973.2</ele><time>2026-03-24T11:13:08.96Z</time></trkpt><trkpt lat="42.1004306" lon="13.4367757"><ele>972.6</ele><time>2026-03-24T11:13:09.96Z</time></trkpt><trkpt lat="42.1003723" lon="13.4366569"><ele>972.0</ele><time>2026-03-24T11:13:10.96Z</time></trkpt><trkpt lat="42.1003084" lon="13.4365304"><ele>972.0</ele><time>2026-03-24T11:13:11.961Z</time></trkpt><trkpt lat="42.1002447" lon="13.4364055"><ele>972.0</ele><time>2026-03-24T11:13:12.961Z</time></trkpt><trkpt lat="42.100191" lon="13.43629"><ele>972.0</ele><time>2026-03-24T11:13:13.961Z</time></trkpt><trkpt lat="42.100148" lon="13.4361862"><ele>972.0</ele><time>2026-03-24T11:13:14.961Z</time></trkpt><trkpt lat="42.1001124" lon="13.4360993"><ele>972.0</ele><time>2026-03-24T11:13:15.96Z</time></trkpt><trkpt lat="42.1000797" lon="13.4360036"><ele>972.0</ele><time>2026-03-24T11:13:16.961Z</time></trkpt><trkpt lat="42.1000446" lon="13.4359072"><ele>972.0</ele><time>2026-03-24T11:13:17.961Z</time></trkpt><trkpt lat="42.1000055" lon="13.4358114"><ele>972.0</ele><time>2026-03-24T11:13:18.961Z</time></trkpt><trkpt lat="42.0999729" lon="13.4357205"><ele>972.0</ele><time>2026-03-24T11:13:19.96Z</time></trkpt><trkpt lat="42.0999419" lon="13.4356463"><ele>972.0</ele><time>2026-03-24T11:13:20.961Z</time></trkpt><trkpt lat="42.0998911" lon="13.4355125"><ele>972.0</ele><time>2026-03-24T11:13:22.961Z</time></trkpt><trkpt lat="42.0998604" lon="13.4354352"><ele>972.3333333333334</ele><time>2026-03-24T11:13:23.961Z</time></trkpt><trkpt lat="42.0998329" lon="13.4353567"><ele>972.6666666666667</ele><time>2026-03-24T11:13:24.96Z</time></trkpt><trkpt lat="42.0998051" lon="13.4352796"><ele>973.0</ele><time>2026-03-24T11:13:25.96Z</time></trkpt><trkpt lat="42.0997743" lon="13.435187"><ele>973.3333333333334</ele><time>2026-03-24T11:13:26.96Z</time></trkpt><trkpt lat="42.0997434" lon="13.435092"><ele>973.6666666666667</ele><time>2026-03-24T11:13:27.96Z</time></trkpt><trkpt lat="42.0997053" lon="13.4349895"><ele>974.0</ele><time>2026-03-24T11:13:28.96Z</time></trkpt><trkpt lat="42.0996645" lon="13.4348854"><ele>974.0000000000001</ele><time>2026-03-24T11:13:29.961Z</time></trkpt><trkpt lat="42.0996243" lon="13.4347769"><ele>974.0</ele><time>2026-03-24T11:13:30.96Z</time></trkpt><trkpt lat="42.0995772" lon="13.4346663"><ele>974.0</ele><time>2026-03-24T11:13:31.961Z</time></trkpt><trkpt lat="42.0995327" lon="13.4345656"><ele>974.0</ele><time>2026-03-24T11:13:32.961Z</time></trkpt><trkpt lat="42.0994924" lon="13.4344625"><ele>974.0000000000001</ele><time>2026-03-24T11:13:33.96Z</time></trkpt><trkpt lat="42.0994626" lon="13.4343678"><ele>974.0</ele><time>2026-03-24T11:13:34.96Z</time></trkpt><trkpt lat="42.0994307" lon="13.4342718"><ele>974.1666666666667</ele><time>2026-03-24T11:13:35.961Z</time></trkpt><trkpt lat="42.0994042" lon="13.4341843"><ele>974.3333333333334</ele><time>2026-03-24T11:13:36.961Z</time></trkpt><trkpt lat="42.0993783" lon="13.4340558"><ele>974.5</ele><time>2026-03-24T11:13:38.961Z</time></trkpt><trkpt lat="42.0993574" lon="13.4339683"><ele>974.6666666666667</ele><time>2026-03-24T11:13:42.96Z</time></trkpt><trkpt lat="42.0993033" lon="13.4338553"><ele>974.8333333333334</ele><time>2026-03-24T11:13:44.961Z</time></trkpt><trkpt lat="42.0992428" lon="13.433787"><ele>975.0</ele><time>2026-03-24T11:13:45.96Z</time></trkpt><trkpt lat="42.0991536" lon="13.4336954"><ele>974.0</ele><time>2026-03-24T11:13:46.961Z</time></trkpt><trkpt lat="42.0990372" lon="13.4335793"><ele>973.0</ele><time>2026-03-24T11:13:47.961Z</time></trkpt><trkpt lat="42.0989052" lon="13.433446"><ele>972.0</ele><time>2026-03-24T11:13:48.96Z</time></trkpt><trkpt lat="42.0987595" lon="13.4333034"><ele>972.0</ele><time>2026-03-24T11:13:49.96Z</time></trkpt><trkpt lat="42.0986046" lon="13.4331527"><ele>972.0</ele><time>2026-03-24T11:13:50.96Z</time></trkpt><trkpt lat="42.0984336" lon="13.4329777"><ele>972.0</ele><time>2026-03-24T11:13:51.96Z</time></trkpt><trkpt lat="42.0982513" lon="13.4327918"><ele>971.0</ele><time>2026-03-24T11:13:52.961Z</time></trkpt><trkpt lat="42.0980759" lon="13.4326123"><ele>970.0</ele><time>2026-03-24T11:13:53.96Z</time></trkpt><trkpt lat="42.0979358" lon="13.4324635"><ele>969.0</ele><time>2026-03-24T11:13:54.961Z</time></trkpt><trkpt lat="42.0978252" lon="13.432326"><ele>969.0</ele><time>2026-03-24T11:13:55.96Z</time></trkpt><trkpt lat="42.097716" lon="13.4321692"><ele>969.0</ele><time>2026-03-24T11:13:56.961Z</time></trkpt><trkpt lat="42.0976053" lon="13.4319989"><ele>969.0</ele><time>2026-03-24T11:13:57.96Z</time></trkpt><trkpt lat="42.0975162" lon="13.4318593"><ele>968.0</ele><time>2026-03-24T11:13:58.961Z</time></trkpt><trkpt lat="42.0974437" lon="13.4317449"><ele>967.0</ele><time>2026-03-24T11:13:59.961Z</time></trkpt><trkpt lat="42.09739" lon="13.4316574"><ele>966.0</ele><time>2026-03-24T11:14:00.961Z</time></trkpt><trkpt lat="42.0973341" lon="13.4315444"><ele>965.0</ele><time>2026-03-24T11:14:02.96Z</time></trkpt><trkpt lat="42.0972957" lon="13.4314591"><ele>964.0</ele><time>2026-03-24T11:14:05.961Z</time></trkpt><trkpt lat="42.0972318" lon="13.4314526"><ele>963.0</ele><time>2026-03-24T11:14:10.96Z</time></trkpt><trkpt lat="42.0973008" lon="13.431573"><ele>963.0</ele><time>2026-03-24T11:14:14.96Z</time></trkpt><trkpt lat="42.0973468" lon="13.4316318"><ele>963.0</ele><time>2026-03-24T11:14:15.96Z</time></trkpt><trkpt lat="42.0974054" lon="13.4317033"><ele>963.0</ele><time>2026-03-24T11:14:16.96Z</time></trkpt><trkpt lat="42.0974638" lon="13.431779"><ele>963.0</ele><time>2026-03-24T11:14:17.96Z</time></trkpt><trkpt lat="42.0975135" lon="13.4318526"><ele>963.0</ele><time>2026-03-24T11:14:18.96Z</time></trkpt><trkpt lat="42.097568" lon="13.4319344"><ele>963.0</ele><time>2026-03-24T11:14:19.96Z</time></trkpt><trkpt lat="42.0976233" lon="13.4320083"><ele>962.6666666666666</ele><time>2026-03-24T11:14:20.961Z</time></trkpt><trkpt lat="42.0976756" lon="13.4320885"><ele>962.3333333333333</ele><time>2026-03-24T11:14:21.96Z</time></trkpt><trkpt lat="42.0977315" lon="13.4321649"><ele>962.0</ele><time>2026-03-24T11:14:22.961Z</time></trkpt><trkpt lat="42.0977835" lon="13.4322349"><ele>961.6666666666666</ele><time>2026-03-24T11:14:23.96Z</time></trkpt><trkpt lat="42.097838" lon="13.4323037"><ele>961.3333333333333</ele><time>2026-03-24T11:14:24.96Z</time></trkpt><trkpt lat="42.0978981" lon="13.4323795"><ele>961.0</ele><time>2026-03-24T11:14:25.961Z</time></trkpt><trkpt lat="42.0979609" lon="13.4324589"><ele>961.4</ele><time>2026-03-24T11:14:26.96Z</time></trkpt><trkpt lat="42.0980144" lon="13.4325431"><ele>961.8</ele><time>2026-03-24T11:14:27.96Z</time></trkpt><trkpt lat="42.0980778" lon="13.4326312"><ele>962.1999999999999</ele><time>2026-03-24T11:14:28.96Z</time></trkpt><trkpt lat="42.0981596" lon="13.4327353"><ele>962.5999999999999</ele><time>2026-03-24T11:14:29.96Z</time></trkpt><trkpt lat="42.0982662" lon="13.4328633"><ele>963.0</ele><time>2026-03-24T11:14:30.961Z</time></trkpt><trkpt lat="42.0983959" lon="13.4330053"><ele>966.0</ele><time>2026-03-24T11:14:31.96Z</time></trkpt><trkpt lat="42.098546" lon="13.4331545"><ele>969.0</ele><time>2026-03-24T11:14:32.96Z</time></trkpt><trkpt lat="42.098707" lon="13.433316"><ele>972.0</ele><time>2026-03-24T11:14:33.96Z</time></trkpt><trkpt lat="42.0988804" lon="13.4334934"><ele>972.0</ele><time>2026-03-24T11:14:34.961Z</time></trkpt><trkpt lat="42.0990643" lon="13.4336781"><ele>972.0</ele><time>2026-03-24T11:14:35.96Z</time></trkpt><trkpt lat="42.0992527" lon="13.4338671"><ele>973.0</ele><time>2026-03-24T11:14:36.96Z</time></trkpt><trkpt lat="42.0994165" lon="13.4340263"><ele>974.0</ele><time>2026-03-24T11:14:37.96Z</time></trkpt><trkpt lat="42.0995462" lon="13.4341577"><ele>975.0</ele><time>2026-03-24T11:14:38.961Z</time></trkpt><trkpt lat="42.099637" lon="13.4342587"><ele>975.0</ele><time>2026-03-24T11:14:39.961Z</time></trkpt><trkpt lat="42.0997034" lon="13.4343303"><ele>975.0</ele><time>2026-03-24T11:14:40.96Z</time></trkpt><trkpt lat="42.0997778" lon="13.4344205"><ele>975.0</ele><time>2026-03-24T11:14:42.961Z</time></trkpt><trkpt lat="42.0997725" lon="13.4343297"><ele>975.0</ele><time>2026-03-24T11:14:47.96Z</time></trkpt><trkpt lat="42.0997223" lon="13.4342779"><ele>975.0</ele><time>2026-03-24T11:14:48.961Z</time></trkpt><trkpt lat="42.0996494" lon="13.4342091"><ele>975.0</ele><time>2026-03-24T11:14:49.96Z</time></trkpt><trkpt lat="42.0995554" lon="13.4341165"><ele>975.0</ele><time>2026-03-24T11:14:50.96Z</time></trkpt><trkpt lat="42.0994357" lon="13.433996"><ele>975.0</ele><time>2026-03-24T11:14:51.96Z</time></trkpt><trkpt lat="42.0992935" lon="13.43385"><ele>975.0</ele><time>2026-03-24T11:14:52.961Z</time></trkpt><trkpt lat="42.0991343" lon="13.4336876"><ele>973.5</ele><time>2026-03-24T11:14:53.96Z</time></trkpt><trkpt lat="42.0989543" lon="13.4335097"><ele>972.0</ele><time>2026-03-24T11:14:54.96Z</time></trkpt><trkpt lat="42.0987583" lon="13.4333066"><ele>972.0</ele><time>2026-03-24T11:14:55.96Z</time></trkpt><trkpt lat="42.0985539" lon="13.4330991"><ele>972.0</ele><time>2026-03-24T11:14:56.96Z</time></trkpt><trkpt lat="42.0983518" lon="13.4328998"><ele>970.5</ele><time>2026-03-24T11:14:57.961Z</time></trkpt><trkpt lat="42.0981577" lon="13.4327039"><ele>969.0</ele><time>2026-03-24T11:14:58.961Z</time></trkpt><trkpt lat="42.0979885" lon="13.4324874"><ele>969.0</ele><time>2026-03-24T11:14:59.96Z</time></trkpt><trkpt lat="42.097818" lon="13.4322546"><ele>969.0</ele><time>2026-03-24T11:15:00.96Z</time></trkpt><trkpt lat="42.0976684" lon="13.4320479"><ele>967.0</ele><time>2026-03-24T11:15:01.961Z</time></trkpt><trkpt lat="42.0975432" lon="13.4318726"><ele>965.0</ele><time>2026-03-24T11:15:02.961Z</time></trkpt><trkpt lat="42.0974391" lon="13.431712"><ele>963.0</ele><time>2026-03-24T11:15:03.96Z</time></trkpt><trkpt lat="42.0973507" lon="13.4315564"><ele>963.0</ele><time>2026-03-24T11:15:04.96Z</time></trkpt><trkpt lat="42.097295" lon="13.4313932"><ele>963.0</ele><time>2026-03-24T11:15:05.96Z</time></trkpt><trkpt lat="42.0972326" lon="13.4312123"><ele>963.0</ele><time>2026-03-24T11:15:06.961Z</time></trkpt><trkpt lat="42.097175" lon="13.431013"><ele>963.0</ele><time>2026-03-24T11:15:07.961Z</time></trkpt><trkpt lat="42.097111" lon="13.4308107"><ele>963.0</ele><time>2026-03-24T11:15:08.96Z</time></trkpt><trkpt lat="42.0970353" lon="13.4305988"><ele>963.0</ele><time>2026-03-24T11:15:09.96Z</time></trkpt><trkpt lat="42.0969788" lon="13.4303731"><ele>963.0</ele><time>2026-03-24T11:15:10.96Z</time></trkpt><trkpt lat="42.0969165" lon="13.4301394"><ele>962.0</ele><time>2026-03-24T11:15:11.96Z</time></trkpt><trkpt lat="42.0968477" lon="13.4298837"><ele>961.0</ele><time>2026-03-24T11:15:12.961Z</time></trkpt><trkpt lat="42.0967948" lon="13.4296501"><ele>960.0</ele><time>2026-03-24T11:15:13.96Z</time></trkpt><trkpt lat="42.0967491" lon="13.4294447"><ele>958.25</ele><time>2026-03-24T11:15:14.96Z</time></trkpt><trkpt lat="42.0967182" lon="13.4292572"><ele>956.5</ele><time>2026-03-24T11:15:15.96Z</time></trkpt><trkpt lat="42.0966876" lon="13.4290736"><ele>954.75</ele><time>2026-03-24T11:15:16.96Z</time></trkpt><trkpt lat="42.0966389" lon="13.4288673"><ele>953.0</ele><time>2026-03-24T11:15:17.961Z</time></trkpt><trkpt lat="42.0965665" lon="13.4286444"><ele>953.0</ele><time>2026-03-24T11:15:18.96Z</time></trkpt><trkpt lat="42.0964872" lon="13.4283858"><ele>953.0</ele><time>2026-03-24T11:15:19.96Z</time></trkpt><trkpt lat="42.0964111" lon="13.4281202"><ele>953.0</ele><time>2026-03-24T11:15:20.96Z</time></trkpt><trkpt lat="42.0963389" lon="13.4278683"><ele>952.3333333333334</ele><time>2026-03-24T11:15:21.96Z</time></trkpt><trkpt lat="42.0962699" lon="13.4276261"><ele>951.6666666666667</ele><time>2026-03-24T11:15:22.961Z</time></trkpt><trkpt lat="42.0962016" lon="13.4273952"><ele>951.0</ele><time>2026-03-24T11:15:23.961Z</time></trkpt><trkpt lat="42.0961411" lon="13.4271766"><ele>950.5</ele><time>2026-03-24T11:15:24.96Z</time></trkpt><trkpt lat="42.0960849" lon="13.4269732"><ele>950.0</ele><time>2026-03-24T11:15:25.961Z</time></trkpt><trkpt lat="42.0960259" lon="13.4267962"><ele>949.5</ele><time>2026-03-24T11:15:26.96Z</time></trkpt><trkpt lat="42.0959629" lon="13.4266355"><ele>949.0</ele><time>2026-03-24T11:15:27.96Z</time></trkpt><trkpt lat="42.0958978" lon="13.4264728"><ele>949.0</ele><time>2026-03-24T11:15:28.96Z</time></trkpt><trkpt lat="42.0958325" lon="13.4263227"><ele>949.0</ele><time>2026-03-24T11:15:29.96Z</time></trkpt><trkpt lat="42.0957912" lon="13.4260998"><ele>949.0</ele><time>2026-03-24T11:15:30.96Z</time></trkpt><trkpt lat="42.0957456" lon="13.4258813"><ele>948.0</ele><time>2026-03-24T11:15:31.961Z</time></trkpt><trkpt lat="42.0956973" lon="13.4256513"><ele>947.0</ele><time>2026-03-24T11:15:32.96Z</time></trkpt><trkpt lat="42.0956518" lon="13.4254453"><ele>946.0</ele><time>2026-03-24T11:15:33.96Z</time></trkpt><trkpt lat="42.0956066" lon="13.425257"><ele>945.75</ele><time>2026-03-24T11:15:34.96Z</time></trkpt><trkpt lat="42.0955568" lon="13.4250762"><ele>945.5</ele><time>2026-03-24T11:15:35.96Z</time></trkpt><trkpt lat="42.0955043" lon="13.4248894"><ele>945.25</ele><time>2026-03-24T11:15:36.961Z</time></trkpt><trkpt lat="42.0954454" lon="13.4247078"><ele>945.0</ele><time>2026-03-24T11:15:37.96Z</time></trkpt><trkpt lat="42.0953822" lon="13.424517"><ele>944.0</ele><time>2026-03-24T11:15:38.961Z</time></trkpt><trkpt lat="42.0953127" lon="13.424329"><ele>943.0</ele><time>2026-03-24T11:15:39.96Z</time></trkpt><trkpt lat="42.0952476" lon="13.4241599"><ele>942.0</ele><time>2026-03-24T11:15:40.96Z</time></trkpt><trkpt lat="42.0951882" lon="13.4239998"><ele>941.0</ele><time>2026-03-24T11:15:41.96Z</time></trkpt><trkpt lat="42.0951348" lon="13.4238453"><ele>939.25</ele><time>2026-03-24T11:15:42.96Z</time></trkpt><trkpt lat="42.0950807" lon="13.4236949"><ele>937.5</ele><time>2026-03-24T11:15:43.96Z</time></trkpt><trkpt lat="42.0950334" lon="13.4235448"><ele>935.75</ele><time>2026-03-24T11:15:44.96Z</time></trkpt><trkpt lat="42.0949917" lon="13.4233829"><ele>934.0</ele><time>2026-03-24T11:15:45.961Z</time></trkpt><trkpt lat="42.0949513" lon="13.4232076"><ele>934.0</ele><time>2026-03-24T11:15:46.96Z</time></trkpt><trkpt lat="42.094905" lon="13.4230313"><ele>934.0</ele><time>2026-03-24T11:15:47.96Z</time></trkpt><trkpt lat="42.0948574" lon="13.422852"><ele>934.0</ele><time>2026-03-24T11:15:48.961Z</time></trkpt><trkpt lat="42.0948167" lon="13.4226525"><ele>934.0</ele><time>2026-03-24T11:15:49.961Z</time></trkpt><trkpt lat="42.0947864" lon="13.4224492"><ele>934.0</ele><time>2026-03-24T11:15:50.96Z</time></trkpt><trkpt lat="42.0947687" lon="13.4222412"><ele>934.0</ele><time>2026-03-24T11:15:51.96Z</time></trkpt><trkpt lat="42.0947631" lon="13.4220267"><ele>934.0</ele><time>2026-03-24T11:15:52.96Z</time></trkpt><trkpt lat="42.0947556" lon="13.4217974"><ele>933.0</ele><time>2026-03-24T11:15:53.96Z</time></trkpt><trkpt lat="42.0947479" lon="13.4215514"><ele>932.0</ele><time>2026-03-24T11:15:54.96Z</time></trkpt><trkpt lat="42.0947377" lon="13.4213179"><ele>931.0</ele><time>2026-03-24T11:15:55.96Z</time></trkpt><trkpt lat="42.0947255" lon="13.4210976"><ele>930.0</ele><time>2026-03-24T11:15:56.96Z</time></trkpt><trkpt lat="42.0947188" lon="13.4208794"><ele>929.0</ele><time>2026-03-24T11:15:57.96Z</time></trkpt><trkpt lat="42.0947082" lon="13.42067"><ele>928.0</ele><time>2026-03-24T11:15:58.96Z</time></trkpt><trkpt lat="42.0946949" lon="13.4204675"><ele>927.0</ele><time>2026-03-24T11:15:59.96Z</time></trkpt><trkpt lat="42.0946748" lon="13.4202526"><ele>926.0</ele><time>2026-03-24T11:16:00.96Z</time></trkpt><trkpt lat="42.094645" lon="13.4200268"><ele>925.0</ele><time>2026-03-24T11:16:01.961Z</time></trkpt><trkpt lat="42.0946089" lon="13.4197882"><ele>924.3333333333333</ele><time>2026-03-24T11:16:02.961Z</time></trkpt><trkpt lat="42.0945744" lon="13.4195685"><ele>923.6666666666667</ele><time>2026-03-24T11:16:03.96Z</time></trkpt><trkpt lat="42.0945362" lon="13.4193592"><ele>923.0</ele><time>2026-03-24T11:16:04.96Z</time></trkpt><trkpt lat="42.0944994" lon="13.4191672"><ele>923.0</ele><time>2026-03-24T11:16:05.96Z</time></trkpt><trkpt lat="42.0944631" lon="13.4189967"><ele>923.0</ele><time>2026-03-24T11:16:06.96Z</time></trkpt><trkpt lat="42.0944197" lon="13.4188319"><ele>923.0</ele><time>2026-03-24T11:16:07.961Z</time></trkpt><trkpt lat="42.0943731" lon="13.41867"><ele>923.0</ele><time>2026-03-24T11:16:08.96Z</time></trkpt><trkpt lat="42.0943213" lon="13.4185111"><ele>922.2</ele><time>2026-03-24T11:16:09.96Z</time></trkpt><trkpt lat="42.0942658" lon="13.4183601"><ele>921.4</ele><time>2026-03-24T11:16:10.961Z</time></trkpt><trkpt lat="42.0942295" lon="13.4182198"><ele>920.6000000000001</ele><time>2026-03-24T11:16:11.961Z</time></trkpt><trkpt lat="42.094212" lon="13.4180964"><ele>919.8000000000001</ele><time>2026-03-24T11:16:12.961Z</time></trkpt><trkpt lat="42.0942078" lon="13.4179781"><ele>919.0</ele><time>2026-03-24T11:16:13.96Z</time></trkpt><trkpt lat="42.0941965" lon="13.4178654"><ele>917.8000000000001</ele><time>2026-03-24T11:16:14.96Z</time></trkpt><trkpt lat="42.0941804" lon="13.4177582"><ele>916.6000000000001</ele><time>2026-03-24T11:16:15.96Z</time></trkpt><trkpt lat="42.0941673" lon="13.4176435"><ele>915.4</ele><time>2026-03-24T11:16:16.96Z</time></trkpt><trkpt lat="42.0941566" lon="13.4175071"><ele>914.2</ele><time>2026-03-24T11:16:17.961Z</time></trkpt><trkpt lat="42.0941506" lon="13.4173427"><ele>913.0</ele><time>2026-03-24T11:16:18.961Z</time></trkpt><trkpt lat="42.094151" lon="13.4171808"><ele>911.75</ele><time>2026-03-24T11:16:19.961Z</time></trkpt><trkpt lat="42.0941546" lon="13.4170074"><ele>910.5</ele><time>2026-03-24T11:16:20.961Z</time></trkpt><trkpt lat="42.0941657" lon="13.4168292"><ele>909.25</ele><time>2026-03-24T11:16:21.961Z</time></trkpt><trkpt lat="42.0941805" lon="13.4166248"><ele>908.0</ele><time>2026-03-24T11:16:22.96Z</time></trkpt><trkpt lat="42.0941946" lon="13.4164157"><ele>907.3333333333334</ele><time>2026-03-24T11:16:23.961Z</time></trkpt><trkpt lat="42.0942036" lon="13.4161986"><ele>906.6666666666667</ele><time>2026-03-24T11:16:24.961Z</time></trkpt><trkpt lat="42.0942031" lon="13.4159776"><ele>906.0</ele><time>2026-03-24T11:16:25.96Z</time></trkpt><trkpt lat="42.0941876" lon="13.4157478"><ele>906.0</ele><time>2026-03-24T11:16:26.96Z</time></trkpt><trkpt lat="42.0941742" lon="13.4155207"><ele>906.0</ele><time>2026-03-24T11:16:27.96Z</time></trkpt><trkpt lat="42.0941641" lon="13.4152992"><ele>906.0</ele><time>2026-03-24T11:16:28.96Z</time></trkpt><trkpt lat="42.0941575" lon="13.4150764"><ele>904.6666666666667</ele><time>2026-03-24T11:16:29.96Z</time></trkpt><trkpt lat="42.0941489" lon="13.4148454"><ele>903.3333333333334</ele><time>2026-03-24T11:16:30.96Z</time></trkpt><trkpt lat="42.0941434" lon="13.4146291"><ele>902.0</ele><time>2026-03-24T11:16:31.96Z</time></trkpt><trkpt lat="42.0941354" lon="13.4144252"><ele>901.4000000000001</ele><time>2026-03-24T11:16:32.96Z</time></trkpt><trkpt lat="42.0941255" lon="13.4142492"><ele>900.8000000000001</ele><time>2026-03-24T11:16:33.96Z</time></trkpt><trkpt lat="42.0941147" lon="13.4141007"><ele>900.2</ele><time>2026-03-24T11:16:34.961Z</time></trkpt><trkpt lat="42.0941122" lon="13.4139831"><ele>899.6</ele><time>2026-03-24T11:16:35.96Z</time></trkpt><trkpt lat="42.0941212" lon="13.4138461"><ele>899.0</ele><time>2026-03-24T11:16:37.961Z</time></trkpt><trkpt lat="42.0941407" lon="13.4137343"><ele>899.0000000000001</ele><time>2026-03-24T11:16:39.961Z</time></trkpt><trkpt lat="42.0941683" lon="13.413568"><ele>899.0</ele><time>2026-03-24T11:16:41.96Z</time></trkpt><trkpt lat="42.0941844" lon="13.4134549"><ele>899.0</ele><time>2026-03-24T11:16:43.96Z</time></trkpt><trkpt lat="42.0941649" lon="13.4133677"><ele>899.0</ele><time>2026-03-24T11:16:46.96Z</time></trkpt><trkpt lat="42.0940728" lon="13.4133447"><ele>899.0000000000001</ele><time>2026-03-24T11:16:54.961Z</time></trkpt><trkpt lat="42.0940072" lon="13.4133152"><ele>899.0</ele><time>2026-03-24T11:16:56.96Z</time></trkpt><trkpt lat="42.0939725" lon="13.4131941"><ele>899.0</ele><time>2026-03-24T11:16:58.96Z</time></trkpt><trkpt lat="42.0939584" lon="13.4131008"><ele>899.0000000000001</ele><time>2026-03-24T11:16:59.961Z</time></trkpt><trkpt lat="42.093948" lon="13.4129812"><ele>899.0000000000001</ele><time>2026-03-24T11:17:00.96Z</time></trkpt><trkpt lat="42.0939371" lon="13.4128389"><ele>899.0</ele><time>2026-03-24T11:17:01.961Z</time></trkpt><trkpt lat="42.0939237" lon="13.4126752"><ele>899.0</ele><time>2026-03-24T11:17:02.96Z</time></trkpt><trkpt lat="42.0939016" lon="13.4124937"><ele>899.0</ele><time>2026-03-24T11:17:03.96Z</time></trkpt><trkpt lat="42.0938811" lon="13.4122941"><ele>899.0</ele><time>2026-03-24T11:17:04.961Z</time></trkpt><trkpt lat="42.0938531" lon="13.4120783"><ele>899.0</ele><time>2026-03-24T11:17:05.96Z</time></trkpt><trkpt lat="42.0938319" lon="13.4118662"><ele>897.75</ele><time>2026-03-24T11:17:06.96Z</time></trkpt><trkpt lat="42.0938127" lon="13.4116638"><ele>896.5</ele><time>2026-03-24T11:17:07.96Z</time></trkpt><trkpt lat="42.093796" lon="13.4114657"><ele>895.25</ele><time>2026-03-24T11:17:08.96Z</time></trkpt><trkpt lat="42.0937739" lon="13.4112754"><ele>894.0</ele><time>2026-03-24T11:17:09.961Z</time></trkpt><trkpt lat="42.0937506" lon="13.4110908"><ele>892.75</ele><time>2026-03-24T11:17:10.96Z</time></trkpt><trkpt lat="42.0937258" lon="13.4109165"><ele>891.5</ele><time>2026-03-24T11:17:11.961Z</time></trkpt><trkpt lat="42.0936992" lon="13.4107446"><ele>890.25</ele><time>2026-03-24T11:17:12.961Z</time></trkpt><trkpt lat="42.0936728" lon="13.4105804"><ele>889.0</ele><time>2026-03-24T11:17:13.96Z</time></trkpt><trkpt lat="42.0936497" lon="13.4104244"><ele>888.4000000000001</ele><time>2026-03-24T11:17:14.96Z</time></trkpt><trkpt lat="42.0936273" lon="13.4102721"><ele>887.8000000000001</ele><time>2026-03-24T11:17:15.961Z</time></trkpt><trkpt lat="42.0936074" lon="13.4101293"><ele>887.1999999999999</ele><time>2026-03-24T11:17:16.961Z</time></trkpt><trkpt lat="42.0935904" lon="13.4099852"><ele>886.5999999999999</ele><time>2026-03-24T11:17:17.96Z</time></trkpt><trkpt lat="42.0935704" lon="13.4098493"><ele>886.0</ele><time>2026-03-24T11:17:18.96Z</time></trkpt><trkpt lat="42.0935537" lon="13.4096987"><ele>884.75</ele><time>2026-03-24T11:17:19.96Z</time></trkpt><trkpt lat="42.0935377" lon="13.4095358"><ele>883.5</ele><time>2026-03-24T11:17:20.96Z</time></trkpt><trkpt lat="42.0935217" lon="13.4093625"><ele>882.25</ele><time>2026-03-24T11:17:21.96Z</time></trkpt><trkpt lat="42.0935078" lon="13.4091762"><ele>881.0</ele><time>2026-03-24T11:17:22.961Z</time></trkpt><trkpt lat="42.0934974" lon="13.408978"><ele>880.3333333333334</ele><time>2026-03-24T11:17:23.96Z</time></trkpt><trkpt lat="42.0934851" lon="13.4087698"><ele>879.6666666666667</ele><time>2026-03-24T11:17:24.96Z</time></trkpt><trkpt lat="42.0934823" lon="13.4085543"><ele>879.0</ele><time>2026-03-24T11:17:25.961Z</time></trkpt><trkpt lat="42.09349" lon="13.4083346"><ele>879.0</ele><time>2026-03-24T11:17:26.96Z</time></trkpt><trkpt lat="42.093503" lon="13.408118"><ele>879.0</ele><time>2026-03-24T11:17:27.961Z</time></trkpt><trkpt lat="42.0935112" lon="13.4079089"><ele>879.0</ele><time>2026-03-24T11:17:28.96Z</time></trkpt><trkpt lat="42.0935149" lon="13.4077079"><ele>877.75</ele><time>2026-03-24T11:17:29.961Z</time></trkpt><trkpt lat="42.0935149" lon="13.4075115"><ele>876.5</ele><time>2026-03-24T11:17:30.96Z</time></trkpt><trkpt lat="42.0935154" lon="13.407323"><ele>875.25</ele><time>2026-03-24T11:17:31.96Z</time></trkpt><trkpt lat="42.0935131" lon="13.4071403"><ele>874.0</ele><time>2026-03-24T11:17:32.96Z</time></trkpt><trkpt lat="42.0935083" lon="13.4069613"><ele>873.0</ele><time>2026-03-24T11:17:33.961Z</time></trkpt><trkpt lat="42.0934944" lon="13.4067801"><ele>872.0</ele><time>2026-03-24T11:17:34.96Z</time></trkpt><trkpt lat="42.0934809" lon="13.4065798"><ele>871.0</ele><time>2026-03-24T11:17:35.961Z</time></trkpt><trkpt lat="42.0934693" lon="13.4063685"><ele>870.0</ele><time>2026-03-24T11:17:36.961Z</time></trkpt><trkpt lat="42.0934573" lon="13.4061548"><ele>869.25</ele><time>2026-03-24T11:17:37.96Z</time></trkpt><trkpt lat="42.0934447" lon="13.4059532"><ele>868.5</ele><time>2026-03-24T11:17:38.961Z</time></trkpt><trkpt lat="42.0934283" lon="13.4057608"><ele>867.75</ele><time>2026-03-24T11:17:39.96Z</time></trkpt><trkpt lat="42.0934074" lon="13.405577"><ele>867.0</ele><time>2026-03-24T11:17:40.961Z</time></trkpt><trkpt lat="42.093386" lon="13.4053975"><ele>866.0</ele><time>2026-03-24T11:17:41.96Z</time></trkpt><trkpt lat="42.0933649" lon="13.4052242"><ele>865.0</ele><time>2026-03-24T11:17:42.961Z</time></trkpt><trkpt lat="42.0933465" lon="13.4050592"><ele>864.0</ele><time>2026-03-24T11:17:43.96Z</time></trkpt><trkpt lat="42.0933254" lon="13.4048979"><ele>863.0</ele><time>2026-03-24T11:17:44.96Z</time></trkpt><trkpt lat="42.0933059" lon="13.4047387"><ele>862.3333333333334</ele><time>2026-03-24T11:17:45.961Z</time></trkpt><trkpt lat="42.0932889" lon="13.4045926"><ele>861.6666666666667</ele><time>2026-03-24T11:17:46.96Z</time></trkpt><trkpt lat="42.0932783" lon="13.4044739"><ele>861.0</ele><time>2026-03-24T11:17:47.96Z</time></trkpt><trkpt lat="42.0932712" lon="13.4043887"><ele>860.3333333333333</ele><time>2026-03-24T11:17:48.96Z</time></trkpt><trkpt lat="42.0932666" lon="13.4042968"><ele>859.6666666666666</ele><time>2026-03-24T11:17:50.96Z</time></trkpt><trkpt lat="42.0932499" lon="13.4041708"><ele>859.0</ele><time>2026-03-24T11:18:42.96Z</time></trkpt><trkpt lat="42.0932653" lon="13.404054"><ele>859.0</ele><time>2026-03-24T11:18:44.96Z</time></trkpt><trkpt lat="42.0932826" lon="13.4039223"><ele>859.0000000000001</ele><time>2026-03-24T11:18:46.96Z</time></trkpt><trkpt lat="42.0932984" lon="13.4038048"><ele>859.0000000000001</ele><time>2026-03-24T11:18:48.96Z</time></trkpt><trkpt lat="42.0933049" lon="13.4036951"><ele>859.0</ele><time>2026-03-24T11:18:50.961Z</time></trkpt><trkpt lat="42.0932996" lon="13.403569"><ele>859.0</ele><time>2026-03-24T11:18:52.96Z</time></trkpt><trkpt lat="42.0932937" lon="13.4034496"><ele>858.3333333333333</ele><time>2026-03-24T11:18:54.961Z</time></trkpt><trkpt lat="42.0932853" lon="13.4033398"><ele>857.6666666666666</ele><time>2026-03-24T11:18:56.96Z</time></trkpt><trkpt lat="42.093262" lon="13.4032393"><ele>857.0</ele><time>2026-03-24T11:18:58.96Z</time></trkpt><trkpt lat="42.0932411" lon="13.4031527"><ele>856.3333333333333</ele><time>2026-03-24T11:19:00.96Z</time></trkpt><trkpt lat="42.0932374" lon="13.4030411"><ele>855.6666666666666</ele><time>2026-03-24T11:19:29.96Z</time></trkpt><trkpt lat="42.0932363" lon="13.4029486"><ele>855.0</ele><time>2026-03-24T11:19:30.961Z</time></trkpt><trkpt lat="42.0932378" lon="13.4028511"><ele>854.4285714285714</ele><time>2026-03-24T11:19:31.96Z</time></trkpt><trkpt lat="42.0932367" lon="13.4027577"><ele>853.8571428571428</ele><time>2026-03-24T11:19:32.96Z</time></trkpt><trkpt lat="42.0932404" lon="13.4026635"><ele>853.2857142857142</ele><time>2026-03-24T11:19:33.961Z</time></trkpt><trkpt lat="42.0932467" lon="13.4025698"><ele>852.7142857142858</ele><time>2026-03-24T11:19:34.96Z</time></trkpt><trkpt lat="42.0932427" lon="13.4024807"><ele>852.1428571428571</ele><time>2026-03-24T11:19:35.961Z</time></trkpt><trkpt lat="42.0932348" lon="13.4023849"><ele>851.5714285714286</ele><time>2026-03-24T11:19:36.96Z</time></trkpt><trkpt lat="42.0932279" lon="13.4022844"><ele>851.0</ele><time>2026-03-24T11:19:37.961Z</time></trkpt><trkpt lat="42.0932248" lon="13.4021788"><ele>850.0</ele><time>2026-03-24T11:19:38.96Z</time></trkpt><trkpt lat="42.0932197" lon="13.4020686"><ele>849.0</ele><time>2026-03-24T11:19:39.96Z</time></trkpt><trkpt lat="42.093211" lon="13.4019372"><ele>848.0</ele><time>2026-03-24T11:19:40.961Z</time></trkpt><trkpt lat="42.0932045" lon="13.4017988"><ele>847.0</ele><time>2026-03-24T11:19:41.96Z</time></trkpt><trkpt lat="42.09319" lon="13.4016445"><ele>846.0</ele><time>2026-03-24T11:19:42.96Z</time></trkpt><trkpt lat="42.093164" lon="13.4014877"><ele>846.0</ele><time>2026-03-24T11:19:43.961Z</time></trkpt><trkpt lat="42.0931283" lon="13.4013336"><ele>846.0</ele><time>2026-03-24T11:19:44.961Z</time></trkpt><trkpt lat="42.0930814" lon="13.4011833"><ele>846.0</ele><time>2026-03-24T11:19:45.96Z</time></trkpt><trkpt lat="42.0930384" lon="13.4010372"><ele>846.0</ele><time>2026-03-24T11:19:46.96Z</time></trkpt><trkpt lat="42.0930024" lon="13.4008878"><ele>844.8</ele><time>2026-03-24T11:19:47.96Z</time></trkpt><trkpt lat="42.0929706" lon="13.4007337"><ele>843.5999999999999</ele><time>2026-03-24T11:19:48.96Z</time></trkpt><trkpt lat="42.0929401" lon="13.4005938"><ele>842.4</ele><time>2026-03-24T11:19:49.96Z</time></trkpt><trkpt lat="42.0929103" lon="13.4004617"><ele>841.2</ele><time>2026-03-24T11:19:50.961Z</time></trkpt><trkpt lat="42.0928796" lon="13.4003361"><ele>840.0</ele><time>2026-03-24T11:19:51.96Z</time></trkpt><trkpt lat="42.0928449" lon="13.4002222"><ele>839.5</ele><time>2026-03-24T11:19:52.961Z</time></trkpt><trkpt lat="42.0928095" lon="13.4001261"><ele>839.0</ele><time>2026-03-24T11:19:53.96Z</time></trkpt><trkpt lat="42.0927783" lon="13.4000408"><ele>838.5</ele><time>2026-03-24T11:19:54.961Z</time></trkpt><trkpt lat="42.0927225" lon="13.3999038"><ele>838.0</ele><time>2026-03-24T11:19:56.96Z</time></trkpt><trkpt lat="42.0926532" lon="13.3997845"><ele>837.5</ele><time>2026-03-24T11:19:58.961Z</time></trkpt><trkpt lat="42.0926136" lon="13.3997114"><ele>837.0</ele><time>2026-03-24T11:19:59.96Z</time></trkpt><trkpt lat="42.0925667" lon="13.3996288"><ele>836.8333333333334</ele><time>2026-03-24T11:20:00.96Z</time></trkpt><trkpt lat="42.0925103" lon="13.3995441"><ele>836.6666666666667</ele><time>2026-03-24T11:20:01.96Z</time></trkpt><trkpt lat="42.0924599" lon="13.3994595"><ele>836.5</ele><time>2026-03-24T11:20:02.96Z</time></trkpt><trkpt lat="42.092401" lon="13.3993758"><ele>836.3333333333334</ele><time>2026-03-24T11:20:03.96Z</time></trkpt><trkpt lat="42.0923289" lon="13.3993035"><ele>836.1666666666667</ele><time>2026-03-24T11:20:04.96Z</time></trkpt><trkpt lat="42.0922539" lon="13.3992257"><ele>836.0</ele><time>2026-03-24T11:20:05.96Z</time></trkpt><trkpt lat="42.0921735" lon="13.3991302"><ele>835.0</ele><time>2026-03-24T11:20:06.96Z</time></trkpt><trkpt lat="42.0920925" lon="13.3990255"><ele>834.0</ele><time>2026-03-24T11:20:07.96Z</time></trkpt><trkpt lat="42.0920049" lon="13.3989141"><ele>833.0</ele><time>2026-03-24T11:20:08.961Z</time></trkpt><trkpt lat="42.0919199" lon="13.3988062"><ele>832.0</ele><time>2026-03-24T11:20:09.96Z</time></trkpt><trkpt lat="42.0918391" lon="13.3986984"><ele>831.25</ele><time>2026-03-24T11:20:10.961Z</time></trkpt><trkpt lat="42.0917597" lon="13.3985927"><ele>830.5</ele><time>2026-03-24T11:20:11.96Z</time></trkpt><trkpt lat="42.0916778" lon="13.3984867"><ele>829.75</ele><time>2026-03-24T11:20:12.961Z</time></trkpt><trkpt lat="42.0915874" lon="13.3983669"><ele>829.0</ele><time>2026-03-24T11:20:13.961Z</time></trkpt><trkpt lat="42.0914923" lon="13.398236"><ele>828.6666666666666</ele><time>2026-03-24T11:20:14.961Z</time></trkpt><trkpt lat="42.0913906" lon="13.3980868"><ele>828.3333333333333</ele><time>2026-03-24T11:20:15.961Z</time></trkpt><trkpt lat="42.091285" lon="13.3979186"><ele>828.0</ele><time>2026-03-24T11:20:16.96Z</time></trkpt><trkpt lat="42.0911776" lon="13.3977522"><ele>827.0</ele><time>2026-03-24T11:20:17.961Z</time></trkpt><trkpt lat="42.0910711" lon="13.3976039"><ele>826.0</ele><time>2026-03-24T11:20:18.96Z</time></trkpt><trkpt lat="42.0909701" lon="13.3974556"><ele>825.0</ele><time>2026-03-24T11:20:19.961Z</time></trkpt><trkpt lat="42.0908725" lon="13.3973043"><ele>824.5</ele><time>2026-03-24T11:20:20.96Z</time></trkpt><trkpt lat="42.0907803" lon="13.3971473"><ele>824.0</ele><time>2026-03-24T11:20:21.96Z</time></trkpt><trkpt lat="42.0906962" lon="13.3969977"><ele>823.5</ele><time>2026-03-24T11:20:22.96Z</time></trkpt><trkpt lat="42.0906199" lon="13.3968571"><ele>823.0</ele><time>2026-03-24T11:20:23.96Z</time></trkpt><trkpt lat="42.0905466" lon="13.3967205"><ele>822.25</ele><time>2026-03-24T11:20:24.961Z</time></trkpt><trkpt lat="42.0904772" lon="13.3965891"><ele>821.5</ele><time>2026-03-24T11:20:25.96Z</time></trkpt><trkpt lat="42.0904118" lon="13.3964537"><ele>820.75</ele><time>2026-03-24T11:20:26.96Z</time></trkpt><trkpt lat="42.0903471" lon="13.3963062"><ele>820.0</ele><time>2026-03-24T11:20:27.96Z</time></trkpt><trkpt lat="42.0902839" lon="13.3961532"><ele>818.75</ele><time>2026-03-24T11:20:28.96Z</time></trkpt><trkpt lat="42.0902304" lon="13.3960126"><ele>817.5</ele><time>2026-03-24T11:20:29.96Z</time></trkpt><trkpt lat="42.0901754" lon="13.3958645"><ele>816.25</ele><time>2026-03-24T11:20:30.961Z</time></trkpt><trkpt lat="42.0901151" lon="13.3957145"><ele>815.0</ele><time>2026-03-24T11:20:31.96Z</time></trkpt><trkpt lat="42.090048" lon="13.3955707"><ele>813.3333333333334</ele><time>2026-03-24T11:20:32.96Z</time></trkpt><trkpt lat="42.0899583" lon="13.3954163"><ele>811.6666666666667</ele><time>2026-03-24T11:20:33.96Z</time></trkpt><trkpt lat="42.0898481" lon="13.3952497"><ele>810.0</ele><time>2026-03-24T11:20:34.96Z</time></trkpt><trkpt lat="42.0897275" lon="13.3950708"><ele>810.0</ele><time>2026-03-24T11:20:35.96Z</time></trkpt><trkpt lat="42.089612" lon="13.3949082"><ele>810.0</ele><time>2026-03-24T11:20:36.96Z</time></trkpt><trkpt lat="42.0894789" lon="13.394748"><ele>810.0</ele><time>2026-03-24T11:20:37.96Z</time></trkpt><trkpt lat="42.0893436" lon="13.3945875"><ele>809.6666666666667</ele><time>2026-03-24T11:20:38.961Z</time></trkpt><trkpt lat="42.0892042" lon="13.3944068"><ele>809.3333333333334</ele><time>2026-03-24T11:20:39.961Z</time></trkpt><trkpt lat="42.0890566" lon="13.3941994"><ele>809.0</ele><time>2026-03-24T11:20:40.96Z</time></trkpt><trkpt lat="42.0889057" lon="13.3939882"><ele>807.0</ele><time>2026-03-24T11:20:41.961Z</time></trkpt><trkpt lat="42.0887501" lon="13.3937688"><ele>805.0</ele><time>2026-03-24T11:20:42.96Z</time></trkpt><trkpt lat="42.0886002" lon="13.3935504"><ele>803.0</ele><time>2026-03-24T11:20:43.96Z</time></trkpt><trkpt lat="42.0884596" lon="13.3933446"><ele>803.0</ele><time>2026-03-24T11:20:44.96Z</time></trkpt><trkpt lat="42.0883173" lon="13.3931455"><ele>803.0</ele><time>2026-03-24T11:20:45.96Z</time></trkpt><trkpt lat="42.0881716" lon="13.3929441"><ele>803.0</ele><time>2026-03-24T11:20:46.96Z</time></trkpt><trkpt lat="42.0880333" lon="13.3927646"><ele>800.6666666666667</ele><time>2026-03-24T11:20:47.961Z</time></trkpt><trkpt lat="42.0878982" lon="13.3926013"><ele>798.3333333333333</ele><time>2026-03-24T11:20:48.96Z</time></trkpt><trkpt lat="42.0877819" lon="13.3924586"><ele>796.0</ele><time>2026-03-24T11:20:49.961Z</time></trkpt><trkpt lat="42.0876779" lon="13.3923364"><ele>796.0</ele><time>2026-03-24T11:20:50.96Z</time></trkpt><trkpt lat="42.0875752" lon="13.3922355"><ele>796.0</ele><time>2026-03-24T11:20:51.96Z</time></trkpt><trkpt lat="42.0874799" lon="13.3921511"><ele>796.0</ele><time>2026-03-24T11:20:52.96Z</time></trkpt><trkpt lat="42.0874014" lon="13.3920692"><ele>796.0</ele><time>2026-03-24T11:20:53.96Z</time></trkpt><trkpt lat="42.0873305" lon="13.3919851"><ele>796.0</ele><time>2026-03-24T11:20:54.961Z</time></trkpt><trkpt lat="42.0872642" lon="13.3918724"><ele>795.5999999999999</ele><time>2026-03-24T11:20:55.96Z</time></trkpt><trkpt lat="42.0871835" lon="13.3917453"><ele>795.2</ele><time>2026-03-24T11:20:56.96Z</time></trkpt><trkpt lat="42.0871137" lon="13.3916223"><ele>794.8</ele><time>2026-03-24T11:20:57.96Z</time></trkpt><trkpt lat="42.0870474" lon="13.3915099"><ele>794.4000000000001</ele><time>2026-03-24T11:20:58.961Z</time></trkpt><trkpt lat="42.0869865" lon="13.3914088"><ele>794.0</ele><time>2026-03-24T11:20:59.96Z</time></trkpt><trkpt lat="42.0869334" lon="13.3913089"><ele>793.4000000000001</ele><time>2026-03-24T11:21:00.96Z</time></trkpt><trkpt lat="42.086883" lon="13.3911928"><ele>792.8</ele><time>2026-03-24T11:21:01.96Z</time></trkpt><trkpt lat="42.0868298" lon="13.3910698"><ele>792.2</ele><time>2026-03-24T11:21:02.96Z</time></trkpt><trkpt lat="42.0867667" lon="13.3909418"><ele>791.5999999999999</ele><time>2026-03-24T11:21:03.961Z</time></trkpt><trkpt lat="42.0866909" lon="13.3908057"><ele>791.0</ele><time>2026-03-24T11:21:04.96Z</time></trkpt><trkpt lat="42.0865988" lon="13.3906615"><ele>790.0</ele><time>2026-03-24T11:21:05.96Z</time></trkpt><trkpt lat="42.0864805" lon="13.3905144"><ele>789.0</ele><time>2026-03-24T11:21:06.96Z</time></trkpt><trkpt lat="42.0863692" lon="13.3903759"><ele>788.0</ele><time>2026-03-24T11:21:07.961Z</time></trkpt><trkpt lat="42.0862565" lon="13.390245"><ele>787.5</ele><time>2026-03-24T11:21:08.96Z</time></trkpt><trkpt lat="42.0861435" lon="13.3901314"><ele>787.0</ele><time>2026-03-24T11:21:09.961Z</time></trkpt><trkpt lat="42.0860416" lon="13.3900335"><ele>786.5</ele><time>2026-03-24T11:21:10.961Z</time></trkpt><trkpt lat="42.0859213" lon="13.3899195"><ele>786.0</ele><time>2026-03-24T11:21:11.96Z</time></trkpt><trkpt lat="42.0858146" lon="13.3898272"><ele>785.0</ele><time>2026-03-24T11:21:12.96Z</time></trkpt><trkpt lat="42.0857019" lon="13.3897475"><ele>784.0</ele><time>2026-03-24T11:21:13.96Z</time></trkpt><trkpt lat="42.0855783" lon="13.3896613"><ele>783.0</ele><time>2026-03-24T11:21:14.96Z</time></trkpt><trkpt lat="42.0854572" lon="13.3895681"><ele>782.0</ele><time>2026-03-24T11:21:15.961Z</time></trkpt><trkpt lat="42.0853388" lon="13.3894672"><ele>781.75</ele><time>2026-03-24T11:21:16.961Z</time></trkpt><trkpt lat="42.085228" lon="13.3893753"><ele>781.5</ele><time>2026-03-24T11:21:17.961Z</time></trkpt><trkpt lat="42.0851199" lon="13.3892904"><ele>781.25</ele><time>2026-03-24T11:21:18.96Z</time></trkpt><trkpt lat="42.0850067" lon="13.3891939"><ele>781.0</ele><time>2026-03-24T11:21:19.96Z</time></trkpt><trkpt lat="42.0849013" lon="13.3890887"><ele>780.25</ele><time>2026-03-24T11:21:20.96Z</time></trkpt><trkpt lat="42.0847968" lon="13.3889702"><ele>779.5</ele><time>2026-03-24T11:21:21.961Z</time></trkpt><trkpt lat="42.0847011" lon="13.3888569"><ele>778.75</ele><time>2026-03-24T11:21:22.96Z</time></trkpt><trkpt lat="42.084611" lon="13.3887505"><ele>778.0</ele><time>2026-03-24T11:21:23.961Z</time></trkpt><trkpt lat="42.0845125" lon="13.3886433"><ele>777.5</ele><time>2026-03-24T11:21:24.96Z</time></trkpt><trkpt lat="42.0844101" lon="13.388537"><ele>777.0</ele><time>2026-03-24T11:21:25.961Z</time></trkpt><trkpt lat="42.0843028" lon="13.3884256"><ele>776.5</ele><time>2026-03-24T11:21:26.96Z</time></trkpt><trkpt lat="42.0841973" lon="13.3883072"><ele>776.0</ele><time>2026-03-24T11:21:27.96Z</time></trkpt><trkpt lat="42.0840838" lon="13.3881864"><ele>775.5</ele><time>2026-03-24T11:21:28.961Z</time></trkpt><trkpt lat="42.0839864" lon="13.3880684"><ele>775.0</ele><time>2026-03-24T11:21:29.96Z</time></trkpt><trkpt lat="42.0838966" lon="13.387951"><ele>774.5</ele><time>2026-03-24T11:21:30.96Z</time></trkpt><trkpt lat="42.0838059" lon="13.3878458"><ele>774.0</ele><time>2026-03-24T11:21:31.96Z</time></trkpt><trkpt lat="42.08372" lon="13.387748"><ele>773.8000000000001</ele><time>2026-03-24T11:21:32.961Z</time></trkpt><trkpt lat="42.0836385" lon="13.3876521"><ele>773.6</ele><time>2026-03-24T11:21:33.961Z</time></trkpt><trkpt lat="42.0835665" lon="13.3875537"><ele>773.4</ele><time>2026-03-24T11:21:34.96Z</time></trkpt><trkpt lat="42.0834876" lon="13.3874506"><ele>773.2</ele><time>2026-03-24T11:21:35.96Z</time></trkpt><trkpt lat="42.0834028" lon="13.3873537"><ele>773.0</ele><time>2026-03-24T11:21:36.96Z</time></trkpt><trkpt lat="42.0833275" lon="13.387253"><ele>772.0</ele><time>2026-03-24T11:21:37.96Z</time></trkpt><trkpt lat="42.083242" lon="13.3871591"><ele>771.0</ele><time>2026-03-24T11:21:38.961Z</time></trkpt><trkpt lat="42.0831465" lon="13.387074"><ele>770.0</ele><time>2026-03-24T11:21:39.96Z</time></trkpt><trkpt lat="42.083056" lon="13.386994"><ele>769.0</ele><time>2026-03-24T11:21:40.96Z</time></trkpt><trkpt lat="42.0829609" lon="13.386912"><ele>768.0</ele><time>2026-03-24T11:21:41.96Z</time></trkpt><trkpt lat="42.0828633" lon="13.3868227"><ele>768.0</ele><time>2026-03-24T11:21:42.961Z</time></trkpt><trkpt lat="42.0827608" lon="13.3867235"><ele>768.0</ele><time>2026-03-24T11:21:43.96Z</time></trkpt><trkpt lat="42.0826563" lon="13.3866264"><ele>768.0</ele><time>2026-03-24T11:21:44.96Z</time></trkpt><trkpt lat="42.0825623" lon="13.3865295"><ele>768.0</ele><time>2026-03-24T11:21:45.961Z</time></trkpt><trkpt lat="42.0824775" lon="13.3864414"><ele>767.0</ele><time>2026-03-24T11:21:46.96Z</time></trkpt><trkpt lat="42.0824002" lon="13.3863674"><ele>766.0</ele><time>2026-03-24T11:21:47.96Z</time></trkpt><trkpt lat="42.0823236" lon="13.3863022"><ele>765.0</ele><time>2026-03-24T11:21:48.96Z</time></trkpt><trkpt lat="42.0822518" lon="13.3862506"><ele>764.0</ele><time>2026-03-24T11:21:49.96Z</time></trkpt><trkpt lat="42.0821884" lon="13.3862095"><ele>763.0</ele><time>2026-03-24T11:21:50.96Z</time></trkpt><trkpt lat="42.0820955" lon="13.3861246"><ele>762.0</ele><time>2026-03-24T11:21:52.961Z</time></trkpt><trkpt lat="42.0820486" lon="13.3860459"><ele>761.4000000000001</ele><time>2026-03-24T11:21:54.961Z</time></trkpt><trkpt lat="42.0819737" lon="13.3859488"><ele>760.8000000000001</ele><time>2026-03-24T11:21:57.96Z</time></trkpt><trkpt lat="42.0819105" lon="13.385907"><ele>760.2</ele><time>2026-03-24T11:21:58.96Z</time></trkpt><trkpt lat="42.0818136" lon="13.3858642"><ele>759.6</ele><time>2026-03-24T11:21:59.961Z</time></trkpt><trkpt lat="42.081676" lon="13.3858141"><ele>759.0</ele><time>2026-03-24T11:22:00.96Z</time></trkpt><trkpt lat="42.0815005" lon="13.3857514"><ele>758.0</ele><time>2026-03-24T11:22:01.96Z</time></trkpt><trkpt lat="42.0812891" lon="13.3856744"><ele>757.0</ele><time>2026-03-24T11:22:02.96Z</time></trkpt><trkpt lat="42.0810541" lon="13.3855881"><ele>755.5</ele><time>2026-03-24T11:22:03.96Z</time></trkpt><trkpt lat="42.0807949" lon="13.3855014"><ele>754.0</ele><time>2026-03-24T11:22:04.96Z</time></trkpt><trkpt lat="42.0805187" lon="13.3854048"><ele>753.0</ele><time>2026-03-24T11:22:05.96Z</time></trkpt><trkpt lat="42.0802363" lon="13.3853079"><ele>752.0</ele><time>2026-03-24T11:22:06.96Z</time></trkpt><trkpt lat="42.0799527" lon="13.3852113"><ele>751.5</ele><time>2026-03-24T11:22:07.961Z</time></trkpt><trkpt lat="42.079671" lon="13.3851167"><ele>751.0</ele><time>2026-03-24T11:22:08.96Z</time></trkpt><trkpt lat="42.079392" lon="13.3850207"><ele>751.0</ele><time>2026-03-24T11:22:09.961Z</time></trkpt><trkpt lat="42.0791139" lon="13.3849256"><ele>751.0</ele><time>2026-03-24T11:22:10.96Z</time></trkpt><trkpt lat="42.0788439" lon="13.3848339"><ele>749.5</ele><time>2026-03-24T11:22:11.961Z</time></trkpt><trkpt lat="42.0785782" lon="13.3847443"><ele>748.0</ele><time>2026-03-24T11:22:12.96Z</time></trkpt><trkpt lat="42.078318" lon="13.384655"><ele>745.5</ele><time>2026-03-24T11:22:13.961Z</time></trkpt><trkpt lat="42.0780643" lon="13.3845685"><ele>743.0</ele><time>2026-03-24T11:22:14.96Z</time></trkpt><trkpt lat="42.0778161" lon="13.3844865"><ele>743.0</ele><time>2026-03-24T11:22:15.96Z</time></trkpt><trkpt lat="42.0775712" lon="13.3844007"><ele>743.0</ele><time>2026-03-24T11:22:16.961Z</time></trkpt><trkpt lat="42.0773384" lon="13.3843191"><ele>741.5</ele><time>2026-03-24T11:22:17.961Z</time></trkpt><trkpt lat="42.0771127" lon="13.3842421"><ele>740.0</ele><time>2026-03-24T11:22:18.96Z</time></trkpt><trkpt lat="42.0768953" lon="13.3841692"><ele>740.0</ele><time>2026-03-24T11:22:19.96Z</time></trkpt><trkpt lat="42.0766793" lon="13.3840941"><ele>740.0</ele><time>2026-03-24T11:22:20.96Z</time></trkpt><trkpt lat="42.0764644" lon="13.3840177"><ele>740.0</ele><time>2026-03-24T11:22:21.96Z</time></trkpt><trkpt lat="42.0762502" lon="13.3839406"><ele>739.0</ele><time>2026-03-24T11:22:22.96Z</time></trkpt><trkpt lat="42.0760334" lon="13.3838645"><ele>738.0</ele><time>2026-03-24T11:22:23.96Z</time></trkpt><trkpt lat="42.0758155" lon="13.3837901"><ele>737.0</ele><time>2026-03-24T11:22:24.96Z</time></trkpt><trkpt lat="42.0755956" lon="13.3837128"><ele>736.0</ele><time>2026-03-24T11:22:25.96Z</time></trkpt><trkpt lat="42.0753744" lon="13.3836344"><ele>735.0</ele><time>2026-03-24T11:22:26.96Z</time></trkpt><trkpt lat="42.0751515" lon="13.3835558"><ele>732.5</ele><time>2026-03-24T11:22:27.96Z</time></trkpt><trkpt lat="42.0749288" lon="13.3834729"><ele>730.0</ele><time>2026-03-24T11:22:28.96Z</time></trkpt><trkpt lat="42.0747096" lon="13.3833916"><ele>730.0</ele><time>2026-03-24T11:22:29.96Z</time></trkpt><trkpt lat="42.0744913" lon="13.3833142"><ele>730.0</ele><time>2026-03-24T11:22:30.961Z</time></trkpt><trkpt lat="42.0742822" lon="13.3832453"><ele>730.0</ele><time>2026-03-24T11:22:31.96Z</time></trkpt><trkpt lat="42.0740815" lon="13.3831833"><ele>729.0</ele><time>2026-03-24T11:22:32.96Z</time></trkpt><trkpt lat="42.0738894" lon="13.3831301"><ele>728.0</ele><time>2026-03-24T11:22:33.96Z</time></trkpt><trkpt lat="42.0737019" lon="13.3830871"><ele>727.0</ele><time>2026-03-24T11:22:34.961Z</time></trkpt><trkpt lat="42.0735213" lon="13.3830482"><ele>726.6666666666667</ele><time>2026-03-24T11:22:35.96Z</time></trkpt><trkpt lat="42.0733504" lon="13.3830086"><ele>726.3333333333334</ele><time>2026-03-24T11:22:36.96Z</time></trkpt><trkpt lat="42.0731859" lon="13.3829709"><ele>726.0</ele><time>2026-03-24T11:22:37.96Z</time></trkpt><trkpt lat="42.0730319" lon="13.3829334"><ele>725.25</ele><time>2026-03-24T11:22:38.96Z</time></trkpt><trkpt lat="42.0728933" lon="13.3829026"><ele>724.5</ele><time>2026-03-24T11:22:39.96Z</time></trkpt><trkpt lat="42.0727655" lon="13.3828733"><ele>723.75</ele><time>2026-03-24T11:22:40.96Z</time></trkpt><trkpt lat="42.0726557" lon="13.3828445"><ele>723.0</ele><time>2026-03-24T11:22:41.961Z</time></trkpt><trkpt lat="42.0725582" lon="13.3828209"><ele>723.0</ele><time>2026-03-24T11:22:42.96Z</time></trkpt><trkpt lat="42.0724772" lon="13.382797"><ele>723.0</ele><time>2026-03-24T11:22:43.961Z</time></trkpt><trkpt lat="42.0724059" lon="13.3827663"><ele>723.0</ele><time>2026-03-24T11:22:45.961Z</time></trkpt><trkpt lat="42.0723367" lon="13.3826781"><ele>723.0</ele><time>2026-03-24T11:22:48.96Z</time></trkpt><trkpt lat="42.0722688" lon="13.3825592"><ele>723.0</ele><time>2026-03-24T11:22:50.961Z</time></trkpt><trkpt lat="42.0721607" lon="13.3825088"><ele>722.8</ele><time>2026-03-24T11:22:52.96Z</time></trkpt><trkpt lat="42.0720985" lon="13.3825264"><ele>722.5999999999999</ele><time>2026-03-24T11:22:53.96Z</time></trkpt><trkpt lat="42.0720218" lon="13.382643"><ele>722.4000000000001</ele><time>2026-03-24T11:22:55.961Z</time></trkpt><trkpt lat="42.0720186" lon="13.382751"><ele>722.2</ele><time>2026-03-24T11:22:56.96Z</time></trkpt><trkpt lat="42.0720241" lon="13.3828831"><ele>722.0</ele><time>2026-03-24T11:22:57.961Z</time></trkpt><trkpt lat="42.0720074" lon="13.3830134"><ele>722.4000000000001</ele><time>2026-03-24T11:22:58.96Z</time></trkpt><trkpt lat="42.0719578" lon="13.383118"><ele>722.8000000000001</ele><time>2026-03-24T11:22:59.96Z</time></trkpt><trkpt lat="42.0718903" lon="13.3832238"><ele>723.2</ele><time>2026-03-24T11:23:00.96Z</time></trkpt><trkpt lat="42.0718135" lon="13.383343"><ele>723.6</ele><time>2026-03-24T11:23:01.96Z</time></trkpt><trkpt lat="42.0717334" lon="13.3834643"><ele>724.0</ele><time>2026-03-24T11:23:02.961Z</time></trkpt><trkpt lat="42.0716528" lon="13.3835847"><ele>723.6</ele><time>2026-03-24T11:23:03.96Z</time></trkpt><trkpt lat="42.071577" lon="13.3836908"><ele>723.2</ele><time>2026-03-24T11:23:04.96Z</time></trkpt><trkpt lat="42.0715047" lon="13.3837907"><ele>722.8000000000001</ele><time>2026-03-24T11:23:05.961Z</time></trkpt><trkpt lat="42.0714366" lon="13.3838817"><ele>722.4000000000001</ele><time>2026-03-24T11:23:06.96Z</time></trkpt><trkpt lat="42.071372" lon="13.3839687"><ele>722.0</ele><time>2026-03-24T11:23:07.96Z</time></trkpt><trkpt lat="42.0712994" lon="13.3840595"><ele>721.5</ele><time>2026-03-24T11:23:08.961Z</time></trkpt><trkpt lat="42.071225" lon="13.3841597"><ele>721.0</ele><time>2026-03-24T11:23:09.961Z</time></trkpt><trkpt lat="42.0711449" lon="13.3842652"><ele>720.5</ele><time>2026-03-24T11:23:10.96Z</time></trkpt><trkpt lat="42.0710626" lon="13.3843749"><ele>720.0</ele><time>2026-03-24T11:23:11.96Z</time></trkpt><trkpt lat="42.0709841" lon="13.3844959"><ele>720.0</ele><time>2026-03-24T11:23:12.961Z</time></trkpt><trkpt lat="42.0709089" lon="13.3846235"><ele>720.0</ele><time>2026-03-24T11:23:13.96Z</time></trkpt><trkpt lat="42.0708379" lon="13.3847554"><ele>720.0</ele><time>2026-03-24T11:23:14.96Z</time></trkpt><trkpt lat="42.0707648" lon="13.3848823"><ele>720.0</ele><time>2026-03-24T11:23:15.961Z</time></trkpt><trkpt lat="42.0706953" lon="13.3850067"><ele>719.4</ele><time>2026-03-24T11:23:16.961Z</time></trkpt><trkpt lat="42.0706286" lon="13.3851313"><ele>718.8</ele><time>2026-03-24T11:23:17.96Z</time></trkpt><trkpt lat="42.0705711" lon="13.3852375"><ele>718.2</ele><time>2026-03-24T11:23:18.96Z</time></trkpt><trkpt lat="42.0705313" lon="13.3853094"><ele>717.6</ele><time>2026-03-24T11:23:19.96Z</time></trkpt><trkpt lat="42.0704952" lon="13.3853848"><ele>717.0</ele><time>2026-03-24T11:23:21.96Z</time></trkpt><trkpt lat="42.0706008" lon="13.3853014"><ele>717.0</ele><time>2026-03-24T11:23:25.96Z</time></trkpt><trkpt lat="42.0706593" lon="13.3851854"><ele>717.0</ele><time>2026-03-24T11:23:26.961Z</time></trkpt><trkpt lat="42.0707505" lon="13.3850293"><ele>717.0</ele><time>2026-03-24T11:23:27.96Z</time></trkpt><trkpt lat="42.0708442" lon="13.3848458"><ele>717.0</ele><time>2026-03-24T11:23:28.961Z</time></trkpt><trkpt lat="42.0709464" lon="13.3846606"><ele>718.0</ele><time>2026-03-24T11:23:29.96Z</time></trkpt><trkpt lat="42.0710606" lon="13.3844791"><ele>719.0</ele><time>2026-03-24T11:23:30.96Z</time></trkpt><trkpt lat="42.0711799" lon="13.3843028"><ele>720.0</ele><time>2026-03-24T11:23:31.961Z</time></trkpt><trkpt lat="42.0713096" lon="13.3841276"><ele>720.0</ele><time>2026-03-24T11:23:32.96Z</time></trkpt><trkpt lat="42.0714451" lon="13.383954"><ele>720.0</ele><time>2026-03-24T11:23:33.96Z</time></trkpt><trkpt lat="42.0715702" lon="13.3837842"><ele>720.0</ele><time>2026-03-24T11:23:34.96Z</time></trkpt><trkpt lat="42.0716856" lon="13.3836167"><ele>721.0</ele><time>2026-03-24T11:23:35.96Z</time></trkpt><trkpt lat="42.0717933" lon="13.3834575"><ele>722.0</ele><time>2026-03-24T11:23:36.961Z</time></trkpt><trkpt lat="42.0718898" lon="13.3833157"><ele>723.0</ele><time>2026-03-24T11:23:37.96Z</time></trkpt><trkpt lat="42.071972" lon="13.3832"><ele>724.0</ele><time>2026-03-24T11:23:38.961Z</time></trkpt><trkpt lat="42.072046" lon="13.3831009"><ele>724.0</ele><time>2026-03-24T11:23:39.961Z</time></trkpt><trkpt lat="42.072114" lon="13.3830203"><ele>724.0</ele><time>2026-03-24T11:23:40.96Z</time></trkpt><trkpt lat="42.0721821" lon="13.3829513"><ele>724.0</ele><time>2026-03-24T11:23:41.961Z</time></trkpt><trkpt lat="42.0722474" lon="13.3828925"><ele>724.0</ele><time>2026-03-24T11:23:42.96Z</time></trkpt><trkpt lat="42.072291" lon="13.3828269"><ele>724.0</ele><time>2026-03-24T11:23:43.96Z</time></trkpt><trkpt lat="42.0723016" lon="13.3826706"><ele>724.0</ele><time>2026-03-24T11:23:45.961Z</time></trkpt><trkpt lat="42.0722249" lon="13.3825439"><ele>723.6666666666667</ele><time>2026-03-24T11:23:47.961Z</time></trkpt><trkpt lat="42.0721584" lon="13.382522"><ele>723.3333333333334</ele><time>2026-03-24T11:23:48.96Z</time></trkpt><trkpt lat="42.0720883" lon="13.3825408"><ele>723.0</ele><time>2026-03-24T11:23:49.96Z</time></trkpt><trkpt lat="42.072022" lon="13.3825824"><ele>722.6666666666666</ele><time>2026-03-24T11:23:50.961Z</time></trkpt><trkpt lat="42.0719508" lon="13.3826158"><ele>722.3333333333333</ele><time>2026-03-24T11:23:51.961Z</time></trkpt><trkpt lat="42.0718665" lon="13.3826314"><ele>722.0</ele><time>2026-03-24T11:23:52.961Z</time></trkpt><trkpt lat="42.0717778" lon="13.3826193"><ele>722.0</ele><time>2026-03-24T11:23:53.961Z</time></trkpt><trkpt lat="42.071682" lon="13.3826055"><ele>722.0</ele><time>2026-03-24T11:23:54.96Z</time></trkpt><trkpt lat="42.0715749" lon="13.3825837"><ele>722.0</ele><time>2026-03-24T11:23:55.96Z</time></trkpt><trkpt lat="42.0714646" lon="13.3825335"><ele>722.0</ele><time>2026-03-24T11:23:56.96Z</time></trkpt><trkpt lat="42.0713567" lon="13.3824924"><ele>722.0</ele><time>2026-03-24T11:23:57.96Z</time></trkpt><trkpt lat="42.0712493" lon="13.3824524"><ele>722.0</ele><time>2026-03-24T11:23:58.961Z</time></trkpt><trkpt lat="42.0711523" lon="13.3824043"><ele>722.0</ele><time>2026-03-24T11:23:59.961Z</time></trkpt><trkpt lat="42.0710557" lon="13.3823571"><ele>722.0</ele><time>2026-03-24T11:24:00.96Z</time></trkpt><trkpt lat="42.0709596" lon="13.3823089"><ele>722.0</ele><time>2026-03-24T11:24:01.96Z</time></trkpt><trkpt lat="42.0708636" lon="13.3822567"><ele>722.0</ele><time>2026-03-24T11:24:02.961Z</time></trkpt><trkpt lat="42.0707628" lon="13.3821966"><ele>720.75</ele><time>2026-03-24T11:24:03.96Z</time></trkpt><trkpt lat="42.070657" lon="13.3821294"><ele>719.5</ele><time>2026-03-24T11:24:04.96Z</time></trkpt><trkpt lat="42.0705389" lon="13.382058"><ele>718.25</ele><time>2026-03-24T11:24:05.961Z</time></trkpt><trkpt lat="42.070409" lon="13.3819873"><ele>717.0</ele><time>2026-03-24T11:24:06.961Z</time></trkpt><trkpt lat="42.070273" lon="13.3819124"><ele>717.0</ele><time>2026-03-24T11:24:07.96Z</time></trkpt><trkpt lat="42.0701351" lon="13.3818455"><ele>717.0</ele><time>2026-03-24T11:24:08.961Z</time></trkpt><trkpt lat="42.0699958" lon="13.3817795"><ele>717.0</ele><time>2026-03-24T11:24:09.96Z</time></trkpt><trkpt lat="42.0698506" lon="13.3817185"><ele>717.0</ele><time>2026-03-24T11:24:10.96Z</time></trkpt><trkpt lat="42.0697025" lon="13.3816637"><ele>716.6666666666666</ele><time>2026-03-24T11:24:11.96Z</time></trkpt><trkpt lat="42.0695482" lon="13.3816105"><ele>716.3333333333333</ele><time>2026-03-24T11:24:12.96Z</time></trkpt><trkpt lat="42.0693962" lon="13.381559"><ele>716.0</ele><time>2026-03-24T11:24:13.96Z</time></trkpt><trkpt lat="42.0692454" lon="13.3815084"><ele>716.0</ele><time>2026-03-24T11:24:14.961Z</time></trkpt><trkpt lat="42.0690946" lon="13.3814593"><ele>716.0</ele><time>2026-03-24T11:24:15.96Z</time></trkpt><trkpt lat="42.0689477" lon="13.3814102"><ele>716.0</ele><time>2026-03-24T11:24:16.961Z</time></trkpt><trkpt lat="42.0688032" lon="13.3813616"><ele>715.75</ele><time>2026-03-24T11:24:17.96Z</time></trkpt><trkpt lat="42.0686658" lon="13.3813126"><ele>715.5</ele><time>2026-03-24T11:24:18.96Z</time></trkpt><trkpt lat="42.0685334" lon="13.3812648"><ele>715.25</ele><time>2026-03-24T11:24:19.96Z</time></trkpt><trkpt lat="42.068409" lon="13.3812255"><ele>715.0</ele><time>2026-03-24T11:24:20.96Z</time></trkpt><trkpt lat="42.0682925" lon="13.3811811"><ele>714.5</ele><time>2026-03-24T11:24:21.96Z</time></trkpt><trkpt lat="42.0681875" lon="13.3811383"><ele>714.0</ele><time>2026-03-24T11:24:22.961Z</time></trkpt><trkpt lat="42.0680913" lon="13.3810969"><ele>713.5</ele><time>2026-03-24T11:24:23.96Z</time></trkpt><trkpt lat="42.0680052" lon="13.3810567"><ele>713.0</ele><time>2026-03-24T11:24:24.96Z</time></trkpt><trkpt lat="42.0679421" lon="13.3810113"><ele>712.5</ele><time>2026-03-24T11:24:25.96Z</time></trkpt><trkpt lat="42.0678859" lon="13.3809655"><ele>712.0</ele><time>2026-03-24T11:24:26.96Z</time></trkpt><trkpt lat="42.0678185" lon="13.3808921"><ele>712.0</ele><time>2026-03-24T11:24:28.961Z</time></trkpt><trkpt lat="42.0677605" lon="13.380844"><ele>712.0</ele><time>2026-03-24T11:24:31.96Z</time></trkpt><trkpt lat="42.0676479" lon="13.3808708"><ele>712.0</ele><time>2026-03-24T11:24:33.96Z</time></trkpt><trkpt lat="42.0675726" lon="13.3809075"><ele>712.0</ele><time>2026-03-24T11:24:34.961Z</time></trkpt><trkpt lat="42.0674826" lon="13.3809655"><ele>712.0</ele><time>2026-03-24T11:24:35.96Z</time></trkpt><trkpt lat="42.0673863" lon="13.3810295"><ele>712.0</ele><time>2026-03-24T11:24:36.96Z</time></trkpt><trkpt lat="42.0672889" lon="13.3811001"><ele>712.0</ele><time>2026-03-24T11:24:37.96Z</time></trkpt><trkpt lat="42.067181" lon="13.38117"><ele>712.0</ele><time>2026-03-24T11:24:38.96Z</time></trkpt><trkpt lat="42.0670663" lon="13.3812462"><ele>712.0</ele><time>2026-03-24T11:24:39.96Z</time></trkpt><trkpt lat="42.0669526" lon="13.3813192"><ele>712.0</ele><time>2026-03-24T11:24:40.96Z</time></trkpt><trkpt lat="42.0668423" lon="13.3813959"><ele>712.0</ele><time>2026-03-24T11:24:41.96Z</time></trkpt><trkpt lat="42.0667358" lon="13.3814632"><ele>712.0</ele><time>2026-03-24T11:24:42.96Z</time></trkpt><trkpt lat="42.0666399" lon="13.3815288"><ele>712.0</ele><time>2026-03-24T11:24:43.961Z</time></trkpt><trkpt lat="42.0665513" lon="13.38159"><ele>712.0</ele><time>2026-03-24T11:24:44.96Z</time></trkpt><trkpt lat="42.0664715" lon="13.3816465"><ele>711.8333333333334</ele><time>2026-03-24T11:24:45.96Z</time></trkpt><trkpt lat="42.0663969" lon="13.3817011"><ele>711.6666666666667</ele><time>2026-03-24T11:24:46.96Z</time></trkpt><trkpt lat="42.0663306" lon="13.3817544"><ele>711.5</ele><time>2026-03-24T11:24:47.96Z</time></trkpt><trkpt lat="42.0662648" lon="13.3818098"><ele>711.3333333333334</ele><time>2026-03-24T11:24:48.96Z</time></trkpt><trkpt lat="42.0661985" lon="13.3818676"><ele>711.1666666666666</ele><time>2026-03-24T11:24:49.96Z</time></trkpt><trkpt lat="42.0661351" lon="13.3819314"><ele>711.0</ele><time>2026-03-24T11:24:50.961Z</time></trkpt><trkpt lat="42.0660787" lon="13.3819946"><ele>711.0</ele><time>2026-03-24T11:24:51.96Z</time></trkpt><trkpt lat="42.0659908" lon="13.3820795"><ele>711.0</ele><time>2026-03-24T11:24:53.96Z</time></trkpt><trkpt lat="42.0659314" lon="13.3821316"><ele>711.0</ele><time>2026-03-24T11:24:56.961Z</time></trkpt><trkpt lat="42.0658714" lon="13.382208"><ele>711.0</ele><time>2026-03-24T11:24:59.96Z</time></trkpt><trkpt lat="42.0658336" lon="13.3822762"><ele>711.0</ele><time>2026-03-24T11:25:00.96Z</time></trkpt><trkpt lat="42.065792" lon="13.3823489"><ele>711.0</ele><time>2026-03-24T11:25:01.961Z</time></trkpt><trkpt lat="42.0657432" lon="13.3824195"><ele>711.0</ele><time>2026-03-24T11:25:02.96Z</time></trkpt><trkpt lat="42.0656829" lon="13.3824995"><ele>711.0</ele><time>2026-03-24T11:25:03.961Z</time></trkpt><trkpt lat="42.0656229" lon="13.3825872"><ele>711.0</ele><time>2026-03-24T11:25:04.96Z</time></trkpt><trkpt lat="42.0655638" lon="13.3826727"><ele>711.0</ele><time>2026-03-24T11:25:05.96Z</time></trkpt><trkpt lat="42.0654967" lon="13.3827629"><ele>711.0</ele><time>2026-03-24T11:25:06.961Z</time></trkpt><trkpt lat="42.0654226" lon="13.3828571"><ele>711.0</ele><time>2026-03-24T11:25:07.96Z</time></trkpt><trkpt lat="42.0653421" lon="13.3829589"><ele>711.0</ele><time>2026-03-24T11:25:08.96Z</time></trkpt><trkpt lat="42.0652628" lon="13.3830665"><ele>711.0</ele><time>2026-03-24T11:25:09.96Z</time></trkpt><trkpt lat="42.0651815" lon="13.3831827"><ele>711.0</ele><time>2026-03-24T11:25:10.96Z</time></trkpt><trkpt lat="42.0650952" lon="13.3833042"><ele>710.75</ele><time>2026-03-24T11:25:11.96Z</time></trkpt><trkpt lat="42.0649948" lon="13.3834278"><ele>710.5</ele><time>2026-03-24T11:25:12.96Z</time></trkpt><trkpt lat="42.0649017" lon="13.3835557"><ele>710.25</ele><time>2026-03-24T11:25:13.96Z</time></trkpt><trkpt lat="42.0648102" lon="13.3836753"><ele>710.0</ele><time>2026-03-24T11:25:14.961Z</time></trkpt><trkpt lat="42.0647261" lon="13.3837919"><ele>709.5</ele><time>2026-03-24T11:25:15.96Z</time></trkpt><trkpt lat="42.0646469" lon="13.3839089"><ele>709.0</ele><time>2026-03-24T11:25:16.96Z</time></trkpt><trkpt lat="42.0645643" lon="13.3840275"><ele>708.5</ele><time>2026-03-24T11:25:17.96Z</time></trkpt><trkpt lat="42.0644748" lon="13.3841504"><ele>708.0</ele><time>2026-03-24T11:25:18.96Z</time></trkpt><trkpt lat="42.0643806" lon="13.38428"><ele>708.0</ele><time>2026-03-24T11:25:19.961Z</time></trkpt><trkpt lat="42.0642782" lon="13.3844135"><ele>708.0</ele><time>2026-03-24T11:25:20.96Z</time></trkpt><trkpt lat="42.0641686" lon="13.3845589"><ele>708.0</ele><time>2026-03-24T11:25:21.961Z</time></trkpt><trkpt lat="42.064058" lon="13.384704"><ele>707.6666666666666</ele><time>2026-03-24T11:25:22.961Z</time></trkpt><trkpt lat="42.0639453" lon="13.384855"><ele>707.3333333333333</ele><time>2026-03-24T11:25:23.96Z</time></trkpt><trkpt lat="42.0638321" lon="13.3850093"><ele>707.0</ele><time>2026-03-24T11:25:24.96Z</time></trkpt><trkpt lat="42.0637154" lon="13.3851597"><ele>707.0</ele><time>2026-03-24T11:25:25.96Z</time></trkpt><trkpt lat="42.0635997" lon="13.3853083"><ele>707.0</ele><time>2026-03-24T11:25:26.96Z</time></trkpt><trkpt lat="42.0634809" lon="13.3854565"><ele>707.0</ele><time>2026-03-24T11:25:27.96Z</time></trkpt><trkpt lat="42.0633653" lon="13.385608"><ele>707.0</ele><time>2026-03-24T11:25:28.96Z</time></trkpt><trkpt lat="42.0632503" lon="13.3857587"><ele>707.0</ele><time>2026-03-24T11:25:29.96Z</time></trkpt><trkpt lat="42.063133" lon="13.3859105"><ele>707.0</ele><time>2026-03-24T11:25:30.961Z</time></trkpt><trkpt lat="42.0630122" lon="13.3860728"><ele>707.0</ele><time>2026-03-24T11:25:31.961Z</time></trkpt><trkpt lat="42.0628906" lon="13.3862296"><ele>707.0</ele><time>2026-03-24T11:25:32.96Z</time></trkpt><trkpt lat="42.062771" lon="13.3863881"><ele>707.0</ele><time>2026-03-24T11:25:33.961Z</time></trkpt><trkpt lat="42.0626503" lon="13.3865498"><ele>707.0</ele><time>2026-03-24T11:25:34.961Z</time></trkpt><trkpt lat="42.0625331" lon="13.3867127"><ele>707.0</ele><time>2026-03-24T11:25:35.96Z</time></trkpt><trkpt lat="42.0624136" lon="13.3868714"><ele>707.0</ele><time>2026-03-24T11:25:36.96Z</time></trkpt><trkpt lat="42.0622922" lon="13.3870258"><ele>707.6666666666666</ele><time>2026-03-24T11:25:37.96Z</time></trkpt><trkpt lat="42.0621779" lon="13.3871741"><ele>708.3333333333334</ele><time>2026-03-24T11:25:38.96Z</time></trkpt><trkpt lat="42.0620669" lon="13.3873162"><ele>709.0</ele><time>2026-03-24T11:25:39.96Z</time></trkpt><trkpt lat="42.0619626" lon="13.3874558"><ele>709.3333333333334</ele><time>2026-03-24T11:25:40.96Z</time></trkpt><trkpt lat="42.0618586" lon="13.3875983"><ele>709.6666666666666</ele><time>2026-03-24T11:25:41.961Z</time></trkpt><trkpt lat="42.0617479" lon="13.3877436"><ele>710.0</ele><time>2026-03-24T11:25:42.96Z</time></trkpt><trkpt lat="42.0616306" lon="13.3878932"><ele>709.3333333333333</ele><time>2026-03-24T11:25:43.96Z</time></trkpt><trkpt lat="42.0615086" lon="13.388051"><ele>708.6666666666666</ele><time>2026-03-24T11:25:44.96Z</time></trkpt><trkpt lat="42.0613854" lon="13.3882099"><ele>708.0</ele><time>2026-03-24T11:25:45.96Z</time></trkpt><trkpt lat="42.061262" lon="13.3883688"><ele>708.0</ele><time>2026-03-24T11:25:46.961Z</time></trkpt><trkpt lat="42.0611433" lon="13.3885282"><ele>708.0</ele><time>2026-03-24T11:25:47.96Z</time></trkpt><trkpt lat="42.0610262" lon="13.3886873"><ele>708.0</ele><time>2026-03-24T11:25:48.96Z</time></trkpt><trkpt lat="42.0609093" lon="13.3888432"><ele>708.0</ele><time>2026-03-24T11:25:49.96Z</time></trkpt><trkpt lat="42.0607886" lon="13.3890002"><ele>708.0</ele><time>2026-03-24T11:25:50.961Z</time></trkpt><trkpt lat="42.0606671" lon="13.3891609"><ele>708.0</ele><time>2026-03-24T11:25:51.961Z</time></trkpt><trkpt lat="42.0605451" lon="13.3893199"><ele>708.0</ele><time>2026-03-24T11:25:52.961Z</time></trkpt><trkpt lat="42.0604195" lon="13.3894818"><ele>708.0</ele><time>2026-03-24T11:25:53.96Z</time></trkpt><trkpt lat="42.0602941" lon="13.3896447"><ele>708.0</ele><time>2026-03-24T11:25:54.961Z</time></trkpt><trkpt lat="42.0601677" lon="13.3898135"><ele>708.6666666666666</ele><time>2026-03-24T11:25:55.96Z</time></trkpt><trkpt lat="42.0600398" lon="13.3899782"><ele>709.3333333333333</ele><time>2026-03-24T11:25:56.961Z</time></trkpt><trkpt lat="42.0599183" lon="13.3901364"><ele>710.0</ele><time>2026-03-24T11:25:57.96Z</time></trkpt><trkpt lat="42.0598042" lon="13.3902884"><ele>710.3333333333333</ele><time>2026-03-24T11:25:58.96Z</time></trkpt><trkpt lat="42.0596926" lon="13.3904331"><ele>710.6666666666666</ele><time>2026-03-24T11:25:59.96Z</time></trkpt><trkpt lat="42.0595868" lon="13.3905725"><ele>711.0</ele><time>2026-03-24T11:26:00.961Z</time></trkpt><trkpt lat="42.0594794" lon="13.3907089"><ele>711.0</ele><time>2026-03-24T11:26:01.961Z</time></trkpt><trkpt lat="42.0593719" lon="13.3908421"><ele>711.0</ele><time>2026-03-24T11:26:02.96Z</time></trkpt><trkpt lat="42.0592702" lon="13.3909766"><ele>711.0</ele><time>2026-03-24T11:26:03.96Z</time></trkpt><trkpt lat="42.0591692" lon="13.391111"><ele>711.0</ele><time>2026-03-24T11:26:04.96Z</time></trkpt><trkpt lat="42.0590678" lon="13.3912393"><ele>711.25</ele><time>2026-03-24T11:26:05.96Z</time></trkpt><trkpt lat="42.0589678" lon="13.3913664"><ele>711.5</ele><time>2026-03-24T11:26:06.96Z</time></trkpt><trkpt lat="42.0588688" lon="13.3914889"><ele>711.75</ele><time>2026-03-24T11:26:07.961Z</time></trkpt><trkpt lat="42.0587744" lon="13.3916132"><ele>712.0</ele><time>2026-03-24T11:26:08.961Z</time></trkpt><trkpt lat="42.0586775" lon="13.3917359"><ele>712.0</ele><time>2026-03-24T11:26:09.961Z</time></trkpt><trkpt lat="42.0585796" lon="13.3918609"><ele>712.0</ele><time>2026-03-24T11:26:10.96Z</time></trkpt><trkpt lat="42.0584817" lon="13.3919872"><ele>712.0</ele><time>2026-03-24T11:26:11.96Z</time></trkpt><trkpt lat="42.0583811" lon="13.392117"><ele>712.0</ele><time>2026-03-24T11:26:12.96Z</time></trkpt><trkpt lat="42.0582795" lon="13.3922493"><ele>712.0</ele><time>2026-03-24T11:26:13.96Z</time></trkpt><trkpt lat="42.0581765" lon="13.3923823"><ele>712.0</ele><time>2026-03-24T11:26:14.961Z</time></trkpt><trkpt lat="42.0580727" lon="13.392512"><ele>712.0</ele><time>2026-03-24T11:26:15.96Z</time></trkpt><trkpt lat="42.057964" lon="13.3926502"><ele>712.0</ele><time>2026-03-24T11:26:16.96Z</time></trkpt><trkpt lat="42.0578531" lon="13.3928037"><ele>712.0</ele><time>2026-03-24T11:26:17.961Z</time></trkpt><trkpt lat="42.05773" lon="13.3929704"><ele>712.0</ele><time>2026-03-24T11:26:18.96Z</time></trkpt><trkpt lat="42.0576028" lon="13.3931493"><ele>712.0</ele><time>2026-03-24T11:26:19.961Z</time></trkpt><trkpt lat="42.0574695" lon="13.3933316"><ele>712.0</ele><time>2026-03-24T11:26:20.961Z</time></trkpt><trkpt lat="42.0573309" lon="13.3935136"><ele>712.0</ele><time>2026-03-24T11:26:21.961Z</time></trkpt><trkpt lat="42.0571918" lon="13.393697"><ele>712.0</ele><time>2026-03-24T11:26:22.961Z</time></trkpt><trkpt lat="42.0570563" lon="13.3938755"><ele>713.3333333333334</ele><time>2026-03-24T11:26:23.96Z</time></trkpt><trkpt lat="42.0569255" lon="13.3940492"><ele>714.6666666666666</ele><time>2026-03-24T11:26:24.96Z</time></trkpt><trkpt lat="42.0567982" lon="13.394218"><ele>716.0</ele><time>2026-03-24T11:26:25.96Z</time></trkpt><trkpt lat="42.0566697" lon="13.3943826"><ele>717.3333333333333</ele><time>2026-03-24T11:26:26.96Z</time></trkpt><trkpt lat="42.0565472" lon="13.3945469"><ele>718.6666666666666</ele><time>2026-03-24T11:26:27.96Z</time></trkpt><trkpt lat="42.056424" lon="13.3947073"><ele>720.0</ele><time>2026-03-24T11:26:28.96Z</time></trkpt><trkpt lat="42.0563046" lon="13.3948632"><ele>720.0</ele><time>2026-03-24T11:26:29.96Z</time></trkpt><trkpt lat="42.0561854" lon="13.3950223"><ele>720.0</ele><time>2026-03-24T11:26:30.961Z</time></trkpt><trkpt lat="42.0560644" lon="13.3951787"><ele>720.0</ele><time>2026-03-24T11:26:31.96Z</time></trkpt><trkpt lat="42.0559417" lon="13.3953368"><ele>720.0</ele><time>2026-03-24T11:26:32.961Z</time></trkpt><trkpt lat="42.0558173" lon="13.3954978"><ele>720.0</ele><time>2026-03-24T11:26:33.96Z</time></trkpt><trkpt lat="42.0556921" lon="13.3956614"><ele>720.0</ele><time>2026-03-24T11:26:34.96Z</time></trkpt><trkpt lat="42.0555648" lon="13.3958242"><ele>721.3333333333334</ele><time>2026-03-24T11:26:35.96Z</time></trkpt><trkpt lat="42.0554405" lon="13.395988"><ele>722.6666666666667</ele><time>2026-03-24T11:26:36.96Z</time></trkpt><trkpt lat="42.055315" lon="13.396161"><ele>724.0</ele><time>2026-03-24T11:26:37.961Z</time></trkpt><trkpt lat="42.0551914" lon="13.3963289"><ele>722.0</ele><time>2026-03-24T11:26:38.961Z</time></trkpt><trkpt lat="42.0550641" lon="13.3964972"><ele>720.0</ele><time>2026-03-24T11:26:39.961Z</time></trkpt><trkpt lat="42.0549394" lon="13.3966674"><ele>718.0</ele><time>2026-03-24T11:26:40.96Z</time></trkpt><trkpt lat="42.0548151" lon="13.3968316"><ele>718.3333333333334</ele><time>2026-03-24T11:26:41.961Z</time></trkpt><trkpt lat="42.0546903" lon="13.3969949"><ele>718.6666666666666</ele><time>2026-03-24T11:26:42.96Z</time></trkpt><trkpt lat="42.0545642" lon="13.3971521"><ele>719.0</ele><time>2026-03-24T11:26:43.961Z</time></trkpt><trkpt lat="42.0544432" lon="13.3973022"><ele>719.0</ele><time>2026-03-24T11:26:44.96Z</time></trkpt><trkpt lat="42.0543236" lon="13.3974501"><ele>719.0</ele><time>2026-03-24T11:26:45.96Z</time></trkpt><trkpt lat="42.0542072" lon="13.3975941"><ele>719.0</ele><time>2026-03-24T11:26:46.961Z</time></trkpt><trkpt lat="42.0540899" lon="13.3977299"><ele>719.6666666666666</ele><time>2026-03-24T11:26:47.96Z</time></trkpt><trkpt lat="42.0539698" lon="13.3978614"><ele>720.3333333333334</ele><time>2026-03-24T11:26:48.961Z</time></trkpt><trkpt lat="42.0538517" lon="13.3979931"><ele>721.0</ele><time>2026-03-24T11:26:49.961Z</time></trkpt><trkpt lat="42.0537302" lon="13.3981222"><ele>721.0</ele><time>2026-03-24T11:26:50.961Z</time></trkpt><trkpt lat="42.0536034" lon="13.3982549"><ele>721.0</ele><time>2026-03-24T11:26:51.96Z</time></trkpt><trkpt lat="42.0534744" lon="13.3983992"><ele>721.0</ele><time>2026-03-24T11:26:52.96Z</time></trkpt><trkpt lat="42.0533439" lon="13.3985422"><ele>721.0</ele><time>2026-03-24T11:26:53.96Z</time></trkpt><trkpt lat="42.0532109" lon="13.3986853"><ele>721.0</ele><time>2026-03-24T11:26:54.961Z</time></trkpt><trkpt lat="42.0530774" lon="13.3988243"><ele>721.0</ele><time>2026-03-24T11:26:55.96Z</time></trkpt><trkpt lat="42.0529448" lon="13.3989646"><ele>719.6666666666667</ele><time>2026-03-24T11:26:56.961Z</time></trkpt><trkpt lat="42.0528133" lon="13.3991049"><ele>718.3333333333334</ele><time>2026-03-24T11:26:57.96Z</time></trkpt><trkpt lat="42.052683" lon="13.3992441"><ele>717.0</ele><time>2026-03-24T11:26:58.96Z</time></trkpt><trkpt lat="42.0525545" lon="13.3993826"><ele>716.6666666666666</ele><time>2026-03-24T11:26:59.961Z</time></trkpt><trkpt lat="42.0524327" lon="13.3995093"><ele>716.3333333333333</ele><time>2026-03-24T11:27:00.96Z</time></trkpt><trkpt lat="42.0523134" lon="13.3996416"><ele>716.0</ele><time>2026-03-24T11:27:01.961Z</time></trkpt><trkpt lat="42.0521919" lon="13.3997718"><ele>716.6666666666666</ele><time>2026-03-24T11:27:02.96Z</time></trkpt><trkpt lat="42.0520705" lon="13.3999006"><ele>717.3333333333334</ele><time>2026-03-24T11:27:03.961Z</time></trkpt><trkpt lat="42.0519489" lon="13.4000269"><ele>718.0</ele><time>2026-03-24T11:27:04.961Z</time></trkpt><trkpt lat="42.0518344" lon="13.4001559"><ele>718.0</ele><time>2026-03-24T11:27:05.961Z</time></trkpt><trkpt lat="42.0517243" lon="13.4002717"><ele>718.0</ele><time>2026-03-24T11:27:06.961Z</time></trkpt><trkpt lat="42.0516145" lon="13.4003855"><ele>718.0</ele><time>2026-03-24T11:27:07.961Z</time></trkpt><trkpt lat="42.0515073" lon="13.4005012"><ele>718.0</ele><time>2026-03-24T11:27:08.96Z</time></trkpt><trkpt lat="42.0514003" lon="13.4006131"><ele>717.5</ele><time>2026-03-24T11:27:09.96Z</time></trkpt><trkpt lat="42.051297" lon="13.4007174"><ele>717.0</ele><time>2026-03-24T11:27:10.96Z</time></trkpt><trkpt lat="42.0512017" lon="13.4008176"><ele>716.5</ele><time>2026-03-24T11:27:11.96Z</time></trkpt><trkpt lat="42.0511117" lon="13.4009164"><ele>716.0</ele><time>2026-03-24T11:27:12.96Z</time></trkpt><trkpt lat="42.0510193" lon="13.401011"><ele>716.0</ele><time>2026-03-24T11:27:13.96Z</time></trkpt><trkpt lat="42.0509226" lon="13.40111"><ele>716.0</ele><time>2026-03-24T11:27:14.961Z</time></trkpt><trkpt lat="42.0508243" lon="13.4012104"><ele>716.0</ele><time>2026-03-24T11:27:15.96Z</time></trkpt><trkpt lat="42.0507251" lon="13.401313"><ele>716.0</ele><time>2026-03-24T11:27:16.96Z</time></trkpt><trkpt lat="42.050625" lon="13.4014236"><ele>716.5</ele><time>2026-03-24T11:27:17.96Z</time></trkpt><trkpt lat="42.0505229" lon="13.4015353"><ele>717.0</ele><time>2026-03-24T11:27:18.96Z</time></trkpt><trkpt lat="42.0504187" lon="13.4016426"><ele>717.5</ele><time>2026-03-24T11:27:19.961Z</time></trkpt><trkpt lat="42.0503158" lon="13.4017517"><ele>718.0</ele><time>2026-03-24T11:27:20.96Z</time></trkpt><trkpt lat="42.050216" lon="13.4018612"><ele>718.0</ele><time>2026-03-24T11:27:21.96Z</time></trkpt><trkpt lat="42.0501145" lon="13.4019688"><ele>718.0</ele><time>2026-03-24T11:27:22.96Z</time></trkpt><trkpt lat="42.0500125" lon="13.402079"><ele>718.0</ele><time>2026-03-24T11:27:23.961Z</time></trkpt><trkpt lat="42.0499091" lon="13.4021901"><ele>718.0</ele><time>2026-03-24T11:27:24.961Z</time></trkpt><trkpt lat="42.0497974" lon="13.402302"><ele>718.0</ele><time>2026-03-24T11:27:25.96Z</time></trkpt><trkpt lat="42.0496878" lon="13.4024137"><ele>718.0</ele><time>2026-03-24T11:27:26.961Z</time></trkpt><trkpt lat="42.0495738" lon="13.4025258"><ele>718.0</ele><time>2026-03-24T11:27:27.961Z</time></trkpt><trkpt lat="42.0494585" lon="13.4026404"><ele>718.0</ele><time>2026-03-24T11:27:28.96Z</time></trkpt><trkpt lat="42.0493437" lon="13.4027554"><ele>718.0</ele><time>2026-03-24T11:27:29.96Z</time></trkpt><trkpt lat="42.0492291" lon="13.4028636"><ele>718.0</ele><time>2026-03-24T11:27:30.96Z</time></trkpt><trkpt lat="42.0491191" lon="13.4029741"><ele>718.0</ele><time>2026-03-24T11:27:31.961Z</time></trkpt><trkpt lat="42.0490076" lon="13.4030876"><ele>718.0</ele><time>2026-03-24T11:27:32.96Z</time></trkpt><trkpt lat="42.0488958" lon="13.4032019"><ele>718.0</ele><time>2026-03-24T11:27:33.961Z</time></trkpt><trkpt lat="42.0487874" lon="13.4033184"><ele>718.0</ele><time>2026-03-24T11:27:34.96Z</time></trkpt><trkpt lat="42.0486769" lon="13.4034294"><ele>718.0</ele><time>2026-03-24T11:27:35.96Z</time></trkpt><trkpt lat="42.0485727" lon="13.4035411"><ele>718.0</ele><time>2026-03-24T11:27:36.96Z</time></trkpt><trkpt lat="42.0484673" lon="13.4036512"><ele>718.0</ele><time>2026-03-24T11:27:37.961Z</time></trkpt><trkpt lat="42.0483622" lon="13.4037555"><ele>718.0</ele><time>2026-03-24T11:27:38.96Z</time></trkpt><trkpt lat="42.0482596" lon="13.4038598"><ele>718.0</ele><time>2026-03-24T11:27:39.96Z</time></trkpt><trkpt lat="42.0481582" lon="13.4039656"><ele>718.0</ele><time>2026-03-24T11:27:40.96Z</time></trkpt><trkpt lat="42.0480646" lon="13.4040722"><ele>716.8</ele><time>2026-03-24T11:27:41.96Z</time></trkpt><trkpt lat="42.0479764" lon="13.4041683"><ele>715.5999999999999</ele><time>2026-03-24T11:27:42.96Z</time></trkpt><trkpt lat="42.0478971" lon="13.4042589"><ele>714.4000000000001</ele><time>2026-03-24T11:27:43.96Z</time></trkpt><trkpt lat="42.0478197" lon="13.4043434"><ele>713.2</ele><time>2026-03-24T11:27:44.96Z</time></trkpt><trkpt lat="42.0477363" lon="13.404429"><ele>712.0</ele><time>2026-03-24T11:27:45.961Z</time></trkpt><trkpt lat="42.0476557" lon="13.4045244"><ele>712.0</ele><time>2026-03-24T11:27:46.96Z</time></trkpt><trkpt lat="42.0475687" lon="13.4046204"><ele>712.0</ele><time>2026-03-24T11:27:47.96Z</time></trkpt><trkpt lat="42.0474875" lon="13.4047157"><ele>712.0</ele><time>2026-03-24T11:27:48.96Z</time></trkpt><trkpt lat="42.0474097" lon="13.4048043"><ele>712.0</ele><time>2026-03-24T11:27:49.96Z</time></trkpt><trkpt lat="42.0473377" lon="13.4048852"><ele>712.0</ele><time>2026-03-24T11:27:50.96Z</time></trkpt><trkpt lat="42.0472694" lon="13.4049631"><ele>712.5</ele><time>2026-03-24T11:27:51.96Z</time></trkpt><trkpt lat="42.0471998" lon="13.4050354"><ele>713.0</ele><time>2026-03-24T11:27:52.96Z</time></trkpt><trkpt lat="42.047131" lon="13.4051079"><ele>713.5</ele><time>2026-03-24T11:27:53.961Z</time></trkpt><trkpt lat="42.0470683" lon="13.4051726"><ele>714.0</ele><time>2026-03-24T11:27:54.96Z</time></trkpt><trkpt lat="42.047008" lon="13.4052313"><ele>714.5</ele><time>2026-03-24T11:27:55.96Z</time></trkpt><trkpt lat="42.0469518" lon="13.4052935"><ele>715.0</ele><time>2026-03-24T11:27:56.96Z</time></trkpt><trkpt lat="42.0468974" lon="13.4053535"><ele>715.0</ele><time>2026-03-24T11:27:57.961Z</time></trkpt><trkpt lat="42.0468437" lon="13.4054053"><ele>715.0</ele><time>2026-03-24T11:27:58.961Z</time></trkpt><trkpt lat="42.0467815" lon="13.4054377"><ele>715.0</ele><time>2026-03-24T11:27:59.96Z</time></trkpt><trkpt lat="42.0467091" lon="13.4054615"><ele>715.0</ele><time>2026-03-24T11:28:00.96Z</time></trkpt><trkpt lat="42.0466377" lon="13.4054817"><ele>715.0</ele><time>2026-03-24T11:28:01.96Z</time></trkpt><trkpt lat="42.0465753" lon="13.405511"><ele>715.0</ele><time>2026-03-24T11:28:02.96Z</time></trkpt><trkpt lat="42.046482" lon="13.4056192"><ele>714.8</ele><time>2026-03-24T11:28:04.96Z</time></trkpt><trkpt lat="42.0464369" lon="13.4057141"><ele>714.6</ele><time>2026-03-24T11:28:05.96Z</time></trkpt><trkpt lat="42.0463854" lon="13.4058267"><ele>714.4000000000001</ele><time>2026-03-24T11:28:06.961Z</time></trkpt><trkpt lat="42.046315" lon="13.4059417"><ele>714.2</ele><time>2026-03-24T11:28:07.961Z</time></trkpt><trkpt lat="42.0462289" lon="13.4060565"><ele>714.0</ele><time>2026-03-24T11:28:08.96Z</time></trkpt><trkpt lat="42.0461322" lon="13.4061694"><ele>714.0</ele><time>2026-03-24T11:28:09.96Z</time></trkpt><trkpt lat="42.0460333" lon="13.4062804"><ele>714.0</ele><time>2026-03-24T11:28:10.96Z</time></trkpt><trkpt lat="42.0459342" lon="13.4063828"><ele>714.0</ele><time>2026-03-24T11:28:11.961Z</time></trkpt><trkpt lat="42.0458308" lon="13.4064893"><ele>714.0</ele><time>2026-03-24T11:28:12.961Z</time></trkpt><trkpt lat="42.0457219" lon="13.4066022"><ele>713.5</ele><time>2026-03-24T11:28:13.96Z</time></trkpt><trkpt lat="42.0456151" lon="13.4067143"><ele>713.0</ele><time>2026-03-24T11:28:14.961Z</time></trkpt><trkpt lat="42.0455118" lon="13.4068283"><ele>712.5</ele><time>2026-03-24T11:28:15.96Z</time></trkpt><trkpt lat="42.045415" lon="13.4069346"><ele>712.0</ele><time>2026-03-24T11:28:16.961Z</time></trkpt><trkpt lat="42.0453295" lon="13.407025"><ele>712.0</ele><time>2026-03-24T11:28:17.96Z</time></trkpt><trkpt lat="42.0452562" lon="13.4070966"><ele>712.0</ele><time>2026-03-24T11:28:18.96Z</time></trkpt><trkpt lat="42.0451935" lon="13.4071589"><ele>712.0</ele><time>2026-03-24T11:28:19.96Z</time></trkpt><trkpt lat="42.0451093" lon="13.4072061"><ele>712.0</ele><time>2026-03-24T11:28:21.961Z</time></trkpt><trkpt lat="42.045027" lon="13.4072174"><ele>712.0</ele><time>2026-03-24T11:28:24.96Z</time></trkpt><trkpt lat="42.04493" lon="13.4072339"><ele>712.0</ele><time>2026-03-24T11:28:26.961Z</time></trkpt><trkpt lat="42.0448642" lon="13.4072637"><ele>711.6666666666667</ele><time>2026-03-24T11:28:27.961Z</time></trkpt><trkpt lat="42.0448003" lon="13.4073267"><ele>711.3333333333334</ele><time>2026-03-24T11:28:28.96Z</time></trkpt><trkpt lat="42.0447579" lon="13.4074191"><ele>711.0</ele><time>2026-03-24T11:28:29.96Z</time></trkpt><trkpt lat="42.0447352" lon="13.4075262"><ele>710.6666666666666</ele><time>2026-03-24T11:28:30.96Z</time></trkpt><trkpt lat="42.0447054" lon="13.4076391"><ele>710.3333333333333</ele><time>2026-03-24T11:28:31.96Z</time></trkpt><trkpt lat="42.044645" lon="13.4077424"><ele>710.0</ele><time>2026-03-24T11:28:32.961Z</time></trkpt><trkpt lat="42.0445675" lon="13.407844"><ele>710.0</ele><time>2026-03-24T11:28:33.961Z</time></trkpt><trkpt lat="42.044489" lon="13.4079296"><ele>710.0</ele><time>2026-03-24T11:28:34.96Z</time></trkpt><trkpt lat="42.0444059" lon="13.4080116"><ele>710.0</ele><time>2026-03-24T11:28:35.96Z</time></trkpt><trkpt lat="42.0443216" lon="13.4080979"><ele>710.0</ele><time>2026-03-24T11:28:36.96Z</time></trkpt><trkpt lat="42.0442392" lon="13.4081849"><ele>710.0</ele><time>2026-03-24T11:28:37.96Z</time></trkpt><trkpt lat="42.0441597" lon="13.4082655"><ele>710.2</ele><time>2026-03-24T11:28:38.96Z</time></trkpt><trkpt lat="42.0440846" lon="13.408349"><ele>710.4</ele><time>2026-03-24T11:28:39.96Z</time></trkpt><trkpt lat="42.0440104" lon="13.408426"><ele>710.5999999999999</ele><time>2026-03-24T11:28:40.961Z</time></trkpt><trkpt lat="42.0439413" lon="13.4085"><ele>710.8</ele><time>2026-03-24T11:28:41.96Z</time></trkpt><trkpt lat="42.0438692" lon="13.408573"><ele>711.0</ele><time>2026-03-24T11:28:42.96Z</time></trkpt><trkpt lat="42.0437966" lon="13.408643"><ele>711.0</ele><time>2026-03-24T11:28:43.961Z</time></trkpt><trkpt lat="42.04372" lon="13.4087223"><ele>711.0</ele><time>2026-03-24T11:28:44.96Z</time></trkpt><trkpt lat="42.0436312" lon="13.4088125"><ele>711.0</ele><time>2026-03-24T11:28:45.96Z</time></trkpt><trkpt lat="42.043546" lon="13.408902"><ele>711.0</ele><time>2026-03-24T11:28:46.96Z</time></trkpt><trkpt lat="42.0434624" lon="13.4089899"><ele>711.0</ele><time>2026-03-24T11:28:47.961Z</time></trkpt><trkpt lat="42.0433877" lon="13.4090754"><ele>711.4</ele><time>2026-03-24T11:28:48.96Z</time></trkpt><trkpt lat="42.0433102" lon="13.4091563"><ele>711.8</ele><time>2026-03-24T11:28:49.96Z</time></trkpt><trkpt lat="42.043227" lon="13.409234"><ele>712.1999999999999</ele><time>2026-03-24T11:28:50.96Z</time></trkpt><trkpt lat="42.043148" lon="13.4093073"><ele>712.5999999999999</ele><time>2026-03-24T11:28:51.96Z</time></trkpt><trkpt lat="42.043065" lon="13.4093803"><ele>713.0</ele><time>2026-03-24T11:28:52.961Z</time></trkpt><trkpt lat="42.0429925" lon="13.4094603"><ele>713.0</ele><time>2026-03-24T11:28:53.961Z</time></trkpt><trkpt lat="42.0429295" lon="13.4095281"><ele>713.0</ele><time>2026-03-24T11:28:54.961Z</time></trkpt><trkpt lat="42.0428668" lon="13.4096018"><ele>713.0</ele><time>2026-03-24T11:28:55.96Z</time></trkpt><trkpt lat="42.0428018" lon="13.4096787"><ele>713.0</ele><time>2026-03-24T11:28:56.96Z</time></trkpt><trkpt lat="42.0427302" lon="13.4097616"><ele>713.0</ele><time>2026-03-24T11:28:57.96Z</time></trkpt><trkpt lat="42.0426612" lon="13.4098412"><ele>713.0</ele><time>2026-03-24T11:28:58.961Z</time></trkpt><trkpt lat="42.042596" lon="13.4099121"><ele>713.0</ele><time>2026-03-24T11:28:59.96Z</time></trkpt><trkpt lat="42.0425272" lon="13.409982"><ele>713.0</ele><time>2026-03-24T11:29:00.961Z</time></trkpt><trkpt lat="42.0424583" lon="13.4100596"><ele>713.0</ele><time>2026-03-24T11:29:01.96Z</time></trkpt><trkpt lat="42.0423839" lon="13.4101332"><ele>713.0</ele><time>2026-03-24T11:29:02.961Z</time></trkpt><trkpt lat="42.0423117" lon="13.4102055"><ele>713.0</ele><time>2026-03-24T11:29:03.961Z</time></trkpt><trkpt lat="42.0422357" lon="13.4102815"><ele>713.0</ele><time>2026-03-24T11:29:04.96Z</time></trkpt><trkpt lat="42.0421621" lon="13.4103676"><ele>713.0</ele><time>2026-03-24T11:29:05.961Z</time></trkpt><trkpt lat="42.0420845" lon="13.4104421"><ele>713.0</ele><time>2026-03-24T11:29:06.961Z</time></trkpt><trkpt lat="42.0420068" lon="13.4105234"><ele>713.0</ele><time>2026-03-24T11:29:07.961Z</time></trkpt><trkpt lat="42.0419326" lon="13.4106011"><ele>713.0</ele><time>2026-03-24T11:29:08.96Z</time></trkpt><trkpt lat="42.0418595" lon="13.4106834"><ele>713.0</ele><time>2026-03-24T11:29:09.96Z</time></trkpt><trkpt lat="42.0417915" lon="13.4107594"><ele>713.0</ele><time>2026-03-24T11:29:10.96Z</time></trkpt><trkpt lat="42.0417214" lon="13.4108366"><ele>713.0</ele><time>2026-03-24T11:29:11.96Z</time></trkpt><trkpt lat="42.0416458" lon="13.4109156"><ele>713.0</ele><time>2026-03-24T11:29:12.96Z</time></trkpt><trkpt lat="42.0415738" lon="13.4109931"><ele>713.0</ele><time>2026-03-24T11:29:13.96Z</time></trkpt><trkpt lat="42.0414989" lon="13.4110624"><ele>713.0</ele><time>2026-03-24T11:29:14.961Z</time></trkpt><trkpt lat="42.0414273" lon="13.4111361"><ele>713.0</ele><time>2026-03-24T11:29:15.96Z</time></trkpt><trkpt lat="42.0413569" lon="13.4112109"><ele>713.0</ele><time>2026-03-24T11:29:16.961Z</time></trkpt><trkpt lat="42.0412917" lon="13.4112819"><ele>713.0</ele><time>2026-03-24T11:29:17.96Z</time></trkpt><trkpt lat="42.0412317" lon="13.4113494"><ele>713.0</ele><time>2026-03-24T11:29:18.96Z</time></trkpt><trkpt lat="42.041176" lon="13.4114084"><ele>713.0</ele><time>2026-03-24T11:29:19.96Z</time></trkpt><trkpt lat="42.0411247" lon="13.4114706"><ele>712.8333333333333</ele><time>2026-03-24T11:29:20.96Z</time></trkpt><trkpt lat="42.0410641" lon="13.4115375"><ele>712.6666666666666</ele><time>2026-03-24T11:29:21.961Z</time></trkpt><trkpt lat="42.0409941" lon="13.4116076"><ele>712.5</ele><time>2026-03-24T11:29:22.961Z</time></trkpt><trkpt lat="42.0409145" lon="13.4116923"><ele>712.3333333333334</ele><time>2026-03-24T11:29:23.96Z</time></trkpt><trkpt lat="42.0408401" lon="13.4117702"><ele>712.1666666666667</ele><time>2026-03-24T11:29:24.96Z</time></trkpt><trkpt lat="42.0407755" lon="13.4118382"><ele>712.0</ele><time>2026-03-24T11:29:25.96Z</time></trkpt><trkpt lat="42.0407243" lon="13.4118939"><ele>711.8333333333334</ele><time>2026-03-24T11:29:26.96Z</time></trkpt><trkpt lat="42.0406412" lon="13.4119782"><ele>711.6666666666667</ele><time>2026-03-24T11:29:28.96Z</time></trkpt><trkpt lat="42.0405726" lon="13.4120523"><ele>711.5</ele><time>2026-03-24T11:29:30.96Z</time></trkpt><trkpt lat="42.0405029" lon="13.4121269"><ele>711.3333333333334</ele><time>2026-03-24T11:29:32.96Z</time></trkpt><trkpt lat="42.0404542" lon="13.4121831"><ele>711.1666666666666</ele><time>2026-03-24T11:29:33.96Z</time></trkpt><trkpt lat="42.040393" lon="13.4122437"><ele>711.0</ele><time>2026-03-24T11:29:34.961Z</time></trkpt><trkpt lat="42.0403399" lon="13.412299"><ele>711.0</ele><time>2026-03-24T11:29:35.96Z</time></trkpt><trkpt lat="42.0402497" lon="13.4123799"><ele>711.0</ele><time>2026-03-24T11:29:37.96Z</time></trkpt><trkpt lat="42.0401575" lon="13.4124616"><ele>711.0</ele><time>2026-03-24T11:29:39.96Z</time></trkpt><trkpt lat="42.0400671" lon="13.4125504"><ele>711.0</ele><time>2026-03-24T11:29:41.96Z</time></trkpt><trkpt lat="42.0399708" lon="13.4126427"><ele>711.0</ele><time>2026-03-24T11:29:43.961Z</time></trkpt><trkpt lat="42.0399168" lon="13.4127073"><ele>711.1428571428571</ele><time>2026-03-24T11:29:44.96Z</time></trkpt><trkpt lat="42.0398644" lon="13.4127634"><ele>711.2857142857142</ele><time>2026-03-24T11:29:45.96Z</time></trkpt><trkpt lat="42.0398135" lon="13.4128259"><ele>711.4285714285713</ele><time>2026-03-24T11:29:46.96Z</time></trkpt><trkpt lat="42.0397555" lon="13.4128864"><ele>711.5714285714286</ele><time>2026-03-24T11:29:47.96Z</time></trkpt><trkpt lat="42.0396938" lon="13.412949"><ele>711.7142857142857</ele><time>2026-03-24T11:29:48.961Z</time></trkpt><trkpt lat="42.0396345" lon="13.4130098"><ele>711.8571428571428</ele><time>2026-03-24T11:29:49.961Z</time></trkpt><trkpt lat="42.0395753" lon="13.4130733"><ele>712.0</ele><time>2026-03-24T11:29:50.96Z</time></trkpt><trkpt lat="42.0395115" lon="13.4131334"><ele>712.0</ele><time>2026-03-24T11:29:51.96Z</time></trkpt><trkpt lat="42.0394496" lon="13.4131948"><ele>712.0</ele><time>2026-03-24T11:29:52.96Z</time></trkpt><trkpt lat="42.0393853" lon="13.413263"><ele>712.0</ele><time>2026-03-24T11:29:53.96Z</time></trkpt><trkpt lat="42.0393213" lon="13.4133335"><ele>712.0</ele><time>2026-03-24T11:29:54.96Z</time></trkpt><trkpt lat="42.0392561" lon="13.4134047"><ele>712.0</ele><time>2026-03-24T11:29:55.961Z</time></trkpt><trkpt lat="42.0391797" lon="13.4134756"><ele>712.0</ele><time>2026-03-24T11:29:56.96Z</time></trkpt><trkpt lat="42.0391044" lon="13.4135561"><ele>712.1666666666667</ele><time>2026-03-24T11:29:57.96Z</time></trkpt><trkpt lat="42.0390396" lon="13.4136304"><ele>712.3333333333334</ele><time>2026-03-24T11:29:58.961Z</time></trkpt><trkpt lat="42.0389711" lon="13.4136974"><ele>712.5</ele><time>2026-03-24T11:29:59.96Z</time></trkpt><trkpt lat="42.038899" lon="13.4137768"><ele>712.6666666666666</ele><time>2026-03-24T11:30:00.96Z</time></trkpt><trkpt lat="42.0388269" lon="13.4138548"><ele>712.8333333333333</ele><time>2026-03-24T11:30:01.961Z</time></trkpt><trkpt lat="42.0387624" lon="13.4139263"><ele>713.0</ele><time>2026-03-24T11:30:02.96Z</time></trkpt><trkpt lat="42.0387048" lon="13.4139847"><ele>713.2</ele><time>2026-03-24T11:30:03.96Z</time></trkpt><trkpt lat="42.0386519" lon="13.4140422"><ele>713.4</ele><time>2026-03-24T11:30:04.96Z</time></trkpt><trkpt lat="42.0385627" lon="13.4141291"><ele>713.6</ele><time>2026-03-24T11:30:06.96Z</time></trkpt><trkpt lat="42.0384875" lon="13.4142193"><ele>713.8000000000001</ele><time>2026-03-24T11:30:08.96Z</time></trkpt><trkpt lat="42.0384079" lon="13.4143068"><ele>714.0</ele><time>2026-03-24T11:30:10.961Z</time></trkpt><trkpt lat="42.0383374" lon="13.4143845"><ele>713.8333333333334</ele><time>2026-03-24T11:30:12.96Z</time></trkpt><trkpt lat="42.038277" lon="13.4144475"><ele>713.6666666666666</ele><time>2026-03-24T11:30:14.96Z</time></trkpt><trkpt lat="42.0382024" lon="13.4145263"><ele>713.5</ele><time>2026-03-24T11:30:16.96Z</time></trkpt><trkpt lat="42.0381325" lon="13.4145934"><ele>713.3333333333333</ele><time>2026-03-24T11:30:18.96Z</time></trkpt><trkpt lat="42.0380701" lon="13.4146706"><ele>713.1666666666666</ele><time>2026-03-24T11:30:20.961Z</time></trkpt><trkpt lat="42.0380073" lon="13.4147423"><ele>713.0</ele><time>2026-03-24T11:30:22.961Z</time></trkpt><trkpt lat="42.0379516" lon="13.4147965"><ele>712.6666666666666</ele><time>2026-03-24T11:30:24.96Z</time></trkpt><trkpt lat="42.0378953" lon="13.4148505"><ele>712.3333333333333</ele><time>2026-03-24T11:30:26.96Z</time></trkpt><trkpt lat="42.037826" lon="13.414924"><ele>712.0</ele><time>2026-03-24T11:30:28.96Z</time></trkpt><trkpt lat="42.0377474" lon="13.4149997"><ele>711.6666666666666</ele><time>2026-03-24T11:30:30.96Z</time></trkpt><trkpt lat="42.0376807" lon="13.4150717"><ele>711.3333333333334</ele><time>2026-03-24T11:30:32.96Z</time></trkpt><trkpt lat="42.0376151" lon="13.4151467"><ele>711.0</ele><time>2026-03-24T11:30:34.961Z</time></trkpt><trkpt lat="42.0375646" lon="13.4152095"><ele>711.0</ele><time>2026-03-24T11:30:36.961Z</time></trkpt><trkpt lat="42.0374958" lon="13.4152696"><ele>711.0</ele><time>2026-03-24T11:30:39.96Z</time></trkpt><trkpt lat="42.0374409" lon="13.4153224"><ele>711.0</ele><time>2026-03-24T11:30:44.96Z</time></trkpt><trkpt lat="42.0373559" lon="13.4154115"><ele>711.0</ele><time>2026-03-24T11:30:47.96Z</time></trkpt><trkpt lat="42.0373031" lon="13.41546"><ele>711.0</ele><time>2026-03-24T11:30:48.96Z</time></trkpt><trkpt lat="42.0372169" lon="13.4155501"><ele>711.0</ele><time>2026-03-24T11:30:50.96Z</time></trkpt><trkpt lat="42.037122" lon="13.4156608"><ele>710.8333333333334</ele><time>2026-03-24T11:30:52.961Z</time></trkpt><trkpt lat="42.0370674" lon="13.4157196"><ele>710.6666666666666</ele><time>2026-03-24T11:30:53.961Z</time></trkpt><trkpt lat="42.037006" lon="13.4157863"><ele>710.5</ele><time>2026-03-24T11:30:54.96Z</time></trkpt><trkpt lat="42.036944" lon="13.415855"><ele>710.3333333333333</ele><time>2026-03-24T11:30:55.961Z</time></trkpt><trkpt lat="42.036884" lon="13.4159223"><ele>710.1666666666666</ele><time>2026-03-24T11:30:56.96Z</time></trkpt><trkpt lat="42.0368234" lon="13.4159956"><ele>710.0</ele><time>2026-03-24T11:30:57.961Z</time></trkpt><trkpt lat="42.0367593" lon="13.4160627"><ele>710.0</ele><time>2026-03-24T11:30:58.96Z</time></trkpt><trkpt lat="42.0367002" lon="13.416129"><ele>710.0</ele><time>2026-03-24T11:30:59.96Z</time></trkpt><trkpt lat="42.036643" lon="13.4161811"><ele>710.0</ele><time>2026-03-24T11:31:00.961Z</time></trkpt><trkpt lat="42.0365852" lon="13.416238"><ele>710.0</ele><time>2026-03-24T11:31:01.961Z</time></trkpt><trkpt lat="42.0365283" lon="13.4162982"><ele>710.0</ele><time>2026-03-24T11:31:02.96Z</time></trkpt><trkpt lat="42.0364678" lon="13.4163659"><ele>710.0</ele><time>2026-03-24T11:31:03.961Z</time></trkpt><trkpt lat="42.0364101" lon="13.4164272"><ele>710.0</ele><time>2026-03-24T11:31:04.96Z</time></trkpt><trkpt lat="42.0363486" lon="13.4164899"><ele>709.5714285714286</ele><time>2026-03-24T11:31:05.961Z</time></trkpt><trkpt lat="42.0362901" lon="13.4165593"><ele>709.1428571428571</ele><time>2026-03-24T11:31:06.961Z</time></trkpt><trkpt lat="42.0362354" lon="13.4166215"><ele>708.7142857142858</ele><time>2026-03-24T11:31:07.96Z</time></trkpt><trkpt lat="42.0361756" lon="13.4166821"><ele>708.2857142857142</ele><time>2026-03-24T11:31:08.96Z</time></trkpt><trkpt lat="42.0361202" lon="13.416745"><ele>707.8571428571429</ele><time>2026-03-24T11:31:09.96Z</time></trkpt><trkpt lat="42.0360627" lon="13.4168026"><ele>707.4285714285714</ele><time>2026-03-24T11:31:10.96Z</time></trkpt><trkpt lat="42.0360064" lon="13.4168646"><ele>707.0</ele><time>2026-03-24T11:31:11.96Z</time></trkpt><trkpt lat="42.0359424" lon="13.4169315"><ele>707.0</ele><time>2026-03-24T11:31:12.96Z</time></trkpt><trkpt lat="42.0358793" lon="13.4170029"><ele>707.0</ele><time>2026-03-24T11:31:13.96Z</time></trkpt><trkpt lat="42.0358193" lon="13.417066"><ele>707.0</ele><time>2026-03-24T11:31:14.96Z</time></trkpt><trkpt lat="42.0357696" lon="13.4171186"><ele>707.0</ele><time>2026-03-24T11:31:15.961Z</time></trkpt><trkpt lat="42.03571" lon="13.4171793"><ele>707.0</ele><time>2026-03-24T11:31:16.961Z</time></trkpt><trkpt lat="42.0356309" lon="13.4172558"><ele>707.0</ele><time>2026-03-24T11:31:17.961Z</time></trkpt><trkpt lat="42.0355551" lon="13.4173401"><ele>706.3333333333333</ele><time>2026-03-24T11:31:18.96Z</time></trkpt><trkpt lat="42.0354835" lon="13.4174177"><ele>705.6666666666666</ele><time>2026-03-24T11:31:19.96Z</time></trkpt><trkpt lat="42.0354254" lon="13.4174803"><ele>705.0</ele><time>2026-03-24T11:31:20.96Z</time></trkpt><trkpt lat="42.0353727" lon="13.4175399"><ele>704.3333333333334</ele><time>2026-03-24T11:31:21.96Z</time></trkpt><trkpt lat="42.0353064" lon="13.4176106"><ele>703.6666666666667</ele><time>2026-03-24T11:31:22.96Z</time></trkpt><trkpt lat="42.0352209" lon="13.4176913"><ele>703.0</ele><time>2026-03-24T11:31:23.961Z</time></trkpt><trkpt lat="42.0351452" lon="13.4177635"><ele>703.0</ele><time>2026-03-24T11:31:24.96Z</time></trkpt><trkpt lat="42.0350734" lon="13.4178389"><ele>703.0</ele><time>2026-03-24T11:31:25.96Z</time></trkpt><trkpt lat="42.035019" lon="13.4179064"><ele>703.0</ele><time>2026-03-24T11:31:26.96Z</time></trkpt><trkpt lat="42.0349356" lon="13.4179956"><ele>703.0</ele><time>2026-03-24T11:31:28.96Z</time></trkpt><trkpt lat="42.0348668" lon="13.4180665"><ele>703.0</ele><time>2026-03-24T11:31:30.961Z</time></trkpt><trkpt lat="42.0347994" lon="13.4181293"><ele>703.0</ele><time>2026-03-24T11:31:32.96Z</time></trkpt><trkpt lat="42.0347437" lon="13.4181836"><ele>703.1666666666667</ele><time>2026-03-24T11:31:33.96Z</time></trkpt><trkpt lat="42.034689" lon="13.4182406"><ele>703.3333333333334</ele><time>2026-03-24T11:31:34.96Z</time></trkpt><trkpt lat="42.0346025" lon="13.4183358"><ele>703.5</ele><time>2026-03-24T11:31:36.96Z</time></trkpt><trkpt lat="42.0345501" lon="13.4184009"><ele>703.6666666666666</ele><time>2026-03-24T11:31:37.961Z</time></trkpt><trkpt lat="42.0344905" lon="13.4184747"><ele>703.8333333333333</ele><time>2026-03-24T11:31:38.961Z</time></trkpt><trkpt lat="42.0344295" lon="13.4185478"><ele>704.0</ele><time>2026-03-24T11:31:39.96Z</time></trkpt><trkpt lat="42.0343621" lon="13.4186174"><ele>704.0</ele><time>2026-03-24T11:31:40.961Z</time></trkpt><trkpt lat="42.0342926" lon="13.4186931"><ele>704.0</ele><time>2026-03-24T11:31:41.96Z</time></trkpt><trkpt lat="42.0342227" lon="13.4187729"><ele>704.0</ele><time>2026-03-24T11:31:42.96Z</time></trkpt><trkpt lat="42.0341503" lon="13.4188518"><ele>704.0</ele><time>2026-03-24T11:31:43.961Z</time></trkpt><trkpt lat="42.0340793" lon="13.4189311"><ele>704.0</ele><time>2026-03-24T11:31:44.961Z</time></trkpt><trkpt lat="42.0340121" lon="13.4190062"><ele>703.8333333333333</ele><time>2026-03-24T11:31:45.961Z</time></trkpt><trkpt lat="42.0339468" lon="13.419081"><ele>703.6666666666666</ele><time>2026-03-24T11:31:46.96Z</time></trkpt><trkpt lat="42.0338825" lon="13.4191488"><ele>703.5</ele><time>2026-03-24T11:31:47.96Z</time></trkpt><trkpt lat="42.033815" lon="13.4192163"><ele>703.3333333333334</ele><time>2026-03-24T11:31:48.96Z</time></trkpt><trkpt lat="42.0337539" lon="13.4192873"><ele>703.1666666666667</ele><time>2026-03-24T11:31:49.96Z</time></trkpt><trkpt lat="42.033691" lon="13.4193503"><ele>703.0</ele><time>2026-03-24T11:31:50.96Z</time></trkpt><trkpt lat="42.0336316" lon="13.4194112"><ele>703.0</ele><time>2026-03-24T11:31:51.96Z</time></trkpt><trkpt lat="42.0335725" lon="13.4194756"><ele>703.0</ele><time>2026-03-24T11:31:52.96Z</time></trkpt><trkpt lat="42.0335138" lon="13.4195305"><ele>703.0</ele><time>2026-03-24T11:31:53.96Z</time></trkpt><trkpt lat="42.0334604" lon="13.419593"><ele>703.0</ele><time>2026-03-24T11:31:54.96Z</time></trkpt><trkpt lat="42.0334052" lon="13.4196496"><ele>703.0</ele><time>2026-03-24T11:31:55.96Z</time></trkpt><trkpt lat="42.0333546" lon="13.4197024"><ele>703.0</ele><time>2026-03-24T11:31:56.96Z</time></trkpt><trkpt lat="42.0332728" lon="13.4197957"><ele>702.6666666666667</ele><time>2026-03-24T11:31:58.96Z</time></trkpt><trkpt lat="42.0332058" lon="13.4198656"><ele>702.3333333333334</ele><time>2026-03-24T11:32:00.96Z</time></trkpt><trkpt lat="42.0331544" lon="13.4199208"><ele>702.0</ele><time>2026-03-24T11:32:02.96Z</time></trkpt><trkpt lat="42.0331005" lon="13.4199721"><ele>701.6666666666666</ele><time>2026-03-24T11:32:04.96Z</time></trkpt><trkpt lat="42.0330416" lon="13.4200354"><ele>701.3333333333333</ele><time>2026-03-24T11:32:06.96Z</time></trkpt><trkpt lat="42.032972" lon="13.4201046"><ele>701.0</ele><time>2026-03-24T11:32:08.961Z</time></trkpt><trkpt lat="42.0328706" lon="13.4202124"><ele>701.0</ele><time>2026-03-24T11:32:10.96Z</time></trkpt><trkpt lat="42.0328175" lon="13.4202627"><ele>701.0</ele><time>2026-03-24T11:32:11.961Z</time></trkpt><trkpt lat="42.0327666" lon="13.4203171"><ele>701.0</ele><time>2026-03-24T11:32:12.96Z</time></trkpt><trkpt lat="42.0326781" lon="13.4204161"><ele>701.0</ele><time>2026-03-24T11:32:14.961Z</time></trkpt><trkpt lat="42.0325887" lon="13.4205039"><ele>701.0</ele><time>2026-03-24T11:32:16.961Z</time></trkpt><trkpt lat="42.0324914" lon="13.4206018"><ele>700.5</ele><time>2026-03-24T11:32:18.961Z</time></trkpt><trkpt lat="42.0324412" lon="13.4206552"><ele>700.0</ele><time>2026-03-24T11:32:19.96Z</time></trkpt><trkpt lat="42.0323891" lon="13.4207045"><ele>699.5</ele><time>2026-03-24T11:32:20.96Z</time></trkpt><trkpt lat="42.0323017" lon="13.4208051"><ele>699.0</ele><time>2026-03-24T11:32:22.96Z</time></trkpt><trkpt lat="42.032232" lon="13.4208786"><ele>698.5</ele><time>2026-03-24T11:32:24.96Z</time></trkpt><trkpt lat="42.0321615" lon="13.4209594"><ele>698.0</ele><time>2026-03-24T11:32:26.96Z</time></trkpt><trkpt lat="42.0320772" lon="13.4210428"><ele>698.0</ele><time>2026-03-24T11:32:28.961Z</time></trkpt><trkpt lat="42.0319833" lon="13.4211389"><ele>698.0</ele><time>2026-03-24T11:32:30.961Z</time></trkpt><trkpt lat="42.0319259" lon="13.4211938"><ele>698.0</ele><time>2026-03-24T11:32:31.961Z</time></trkpt><trkpt lat="42.0318704" lon="13.4212585"><ele>698.0</ele><time>2026-03-24T11:32:32.961Z</time></trkpt><trkpt lat="42.0318209" lon="13.4213166"><ele>698.0</ele><time>2026-03-24T11:32:33.961Z</time></trkpt><trkpt lat="42.0317594" lon="13.4213763"><ele>698.0</ele><time>2026-03-24T11:32:34.96Z</time></trkpt><trkpt lat="42.0316997" lon="13.4214409"><ele>697.8571428571428</ele><time>2026-03-24T11:32:35.96Z</time></trkpt><trkpt lat="42.0316404" lon="13.4215008"><ele>697.7142857142857</ele><time>2026-03-24T11:32:36.961Z</time></trkpt><trkpt lat="42.0315799" lon="13.4215616"><ele>697.5714285714286</ele><time>2026-03-24T11:32:37.96Z</time></trkpt><trkpt lat="42.0315245" lon="13.4216273"><ele>697.4285714285713</ele><time>2026-03-24T11:32:38.961Z</time></trkpt><trkpt lat="42.0314683" lon="13.4216899"><ele>697.2857142857142</ele><time>2026-03-24T11:32:39.961Z</time></trkpt><trkpt lat="42.031413" lon="13.4217565"><ele>697.1428571428571</ele><time>2026-03-24T11:32:40.961Z</time></trkpt><trkpt lat="42.0313534" lon="13.421817"><ele>697.0</ele><time>2026-03-24T11:32:41.96Z</time></trkpt><trkpt lat="42.0312919" lon="13.4218793"><ele>697.0</ele><time>2026-03-24T11:32:42.96Z</time></trkpt><trkpt lat="42.0312296" lon="13.4219422"><ele>697.0</ele><time>2026-03-24T11:32:43.961Z</time></trkpt><trkpt lat="42.0311729" lon="13.4219999"><ele>697.0</ele><time>2026-03-24T11:32:44.96Z</time></trkpt><trkpt lat="42.0311209" lon="13.4220581"><ele>697.0</ele><time>2026-03-24T11:32:45.96Z</time></trkpt><trkpt lat="42.0310315" lon="13.4221527"><ele>697.0</ele><time>2026-03-24T11:32:47.961Z</time></trkpt><trkpt lat="42.0309483" lon="13.4222361"><ele>697.0</ele><time>2026-03-24T11:32:49.96Z</time></trkpt><trkpt lat="42.0308974" lon="13.4222919"><ele>697.0</ele><time>2026-03-24T11:32:53.961Z</time></trkpt><trkpt lat="42.030825" lon="13.4223703"><ele>697.0</ele><time>2026-03-24T11:32:57.96Z</time></trkpt><trkpt lat="42.030756" lon="13.4224382"><ele>697.0</ele><time>2026-03-24T11:32:59.96Z</time></trkpt><trkpt lat="42.0306913" lon="13.4225017"><ele>697.0</ele><time>2026-03-24T11:33:01.96Z</time></trkpt><trkpt lat="42.0306318" lon="13.4225615"><ele>697.0</ele><time>2026-03-24T11:33:03.96Z</time></trkpt><trkpt lat="42.0305738" lon="13.4226277"><ele>697.0</ele><time>2026-03-24T11:33:05.96Z</time></trkpt><trkpt lat="42.0304745" lon="13.4227302"><ele>697.0</ele><time>2026-03-24T11:33:07.961Z</time></trkpt><trkpt lat="42.0304135" lon="13.42279"><ele>697.0</ele><time>2026-03-24T11:33:08.96Z</time></trkpt><trkpt lat="42.0303591" lon="13.4228522"><ele>697.0</ele><time>2026-03-24T11:33:09.96Z</time></trkpt><trkpt lat="42.030301" lon="13.4229119"><ele>697.0</ele><time>2026-03-24T11:33:10.96Z</time></trkpt><trkpt lat="42.0302057" lon="13.4230006"><ele>697.0</ele><time>2026-03-24T11:33:12.96Z</time></trkpt><trkpt lat="42.0301065" lon="13.4230899"><ele>697.0</ele><time>2026-03-24T11:33:14.96Z</time></trkpt><trkpt lat="42.0300108" lon="13.423183"><ele>697.0</ele><time>2026-03-24T11:33:16.96Z</time></trkpt><trkpt lat="42.0299427" lon="13.4232446"><ele>697.0</ele><time>2026-03-24T11:33:18.96Z</time></trkpt><trkpt lat="42.0298704" lon="13.4231307"><ele>697.0</ele><time>2026-03-24T11:33:21.96Z</time></trkpt><trkpt lat="42.0298426" lon="13.4230511"><ele>697.0</ele><time>2026-03-24T11:33:22.961Z</time></trkpt><trkpt lat="42.0298072" lon="13.4229654"><ele>697.0</ele><time>2026-03-24T11:33:23.96Z</time></trkpt><trkpt lat="42.0297722" lon="13.4228789"><ele>697.0</ele><time>2026-03-24T11:33:24.96Z</time></trkpt><trkpt lat="42.029736" lon="13.4227823"><ele>697.0</ele><time>2026-03-24T11:33:25.96Z</time></trkpt><trkpt lat="42.029704" lon="13.4226797"><ele>697.0</ele><time>2026-03-24T11:33:26.961Z</time></trkpt><trkpt lat="42.0296625" lon="13.4225792"><ele>697.0</ele><time>2026-03-24T11:33:27.96Z</time></trkpt><trkpt lat="42.0296179" lon="13.4224761"><ele>697.0</ele><time>2026-03-24T11:33:28.96Z</time></trkpt><trkpt lat="42.0295714" lon="13.4223706"><ele>697.0</ele><time>2026-03-24T11:33:29.96Z</time></trkpt><trkpt lat="42.0295246" lon="13.4222581"><ele>697.0</ele><time>2026-03-24T11:33:30.961Z</time></trkpt><trkpt lat="42.0294736" lon="13.4221441"><ele>697.0</ele><time>2026-03-24T11:33:31.96Z</time></trkpt><trkpt lat="42.0294229" lon="13.4220226"><ele>697.0</ele><time>2026-03-24T11:33:32.96Z</time></trkpt><trkpt lat="42.0293694" lon="13.4218955"><ele>697.0</ele><time>2026-03-24T11:33:33.961Z</time></trkpt><trkpt lat="42.0293085" lon="13.4217602"><ele>697.25</ele><time>2026-03-24T11:33:34.96Z</time></trkpt><trkpt lat="42.0292494" lon="13.4216215"><ele>697.5</ele><time>2026-03-24T11:33:35.96Z</time></trkpt><trkpt lat="42.0291899" lon="13.421481"><ele>697.75</ele><time>2026-03-24T11:33:36.96Z</time></trkpt><trkpt lat="42.029138" lon="13.4213447"><ele>698.0</ele><time>2026-03-24T11:33:37.961Z</time></trkpt><trkpt lat="42.0290858" lon="13.4212176"><ele>697.5999999999999</ele><time>2026-03-24T11:33:38.96Z</time></trkpt><trkpt lat="42.0290363" lon="13.4210944"><ele>697.1999999999999</ele><time>2026-03-24T11:33:39.96Z</time></trkpt><trkpt lat="42.0289924" lon="13.4209869"><ele>696.8</ele><time>2026-03-24T11:33:40.96Z</time></trkpt><trkpt lat="42.0289507" lon="13.4208879"><ele>696.4</ele><time>2026-03-24T11:33:41.96Z</time></trkpt><trkpt lat="42.0289072" lon="13.4207865"><ele>696.0</ele><time>2026-03-24T11:33:42.961Z</time></trkpt><trkpt lat="42.028863" lon="13.420686"><ele>696.0</ele><time>2026-03-24T11:33:43.961Z</time></trkpt><trkpt lat="42.0288209" lon="13.4205808"><ele>696.0</ele><time>2026-03-24T11:33:44.96Z</time></trkpt><trkpt lat="42.0287775" lon="13.4204658"><ele>696.0</ele><time>2026-03-24T11:33:45.96Z</time></trkpt><trkpt lat="42.0287235" lon="13.4203416"><ele>696.0</ele><time>2026-03-24T11:33:46.961Z</time></trkpt><trkpt lat="42.0286677" lon="13.4202103"><ele>696.0</ele><time>2026-03-24T11:33:47.96Z</time></trkpt><trkpt lat="42.0286152" lon="13.4200757"><ele>696.1999999999999</ele><time>2026-03-24T11:33:48.96Z</time></trkpt><trkpt lat="42.0285643" lon="13.4199475"><ele>696.4</ele><time>2026-03-24T11:33:49.961Z</time></trkpt><trkpt lat="42.0285155" lon="13.4198272"><ele>696.6</ele><time>2026-03-24T11:33:50.96Z</time></trkpt><trkpt lat="42.0284687" lon="13.4197122"><ele>696.8</ele><time>2026-03-24T11:33:51.96Z</time></trkpt><trkpt lat="42.0284268" lon="13.4196007"><ele>697.0</ele><time>2026-03-24T11:33:52.961Z</time></trkpt><trkpt lat="42.0283815" lon="13.4194946"><ele>697.2</ele><time>2026-03-24T11:33:53.96Z</time></trkpt><trkpt lat="42.0283355" lon="13.4193836"><ele>697.4000000000001</ele><time>2026-03-24T11:33:54.96Z</time></trkpt><trkpt lat="42.0282855" lon="13.419261"><ele>697.5999999999999</ele><time>2026-03-24T11:33:55.961Z</time></trkpt><trkpt lat="42.0282327" lon="13.419131"><ele>697.8</ele><time>2026-03-24T11:33:56.961Z</time></trkpt><trkpt lat="42.0281744" lon="13.4189976"><ele>698.0</ele><time>2026-03-24T11:33:57.96Z</time></trkpt><trkpt lat="42.0281134" lon="13.4188555"><ele>698.4</ele><time>2026-03-24T11:33:58.96Z</time></trkpt><trkpt lat="42.0280628" lon="13.4187185"><ele>698.8</ele><time>2026-03-24T11:33:59.96Z</time></trkpt><trkpt lat="42.0280095" lon="13.4185971"><ele>699.2</ele><time>2026-03-24T11:34:00.961Z</time></trkpt><trkpt lat="42.0279671" lon="13.4184963"><ele>699.6</ele><time>2026-03-24T11:34:01.961Z</time></trkpt><trkpt lat="42.027937" lon="13.4184213"><ele>700.0</ele><time>2026-03-24T11:34:02.961Z</time></trkpt><trkpt lat="42.027879" lon="13.4183109"><ele>700.0</ele><time>2026-03-24T11:34:04.961Z</time></trkpt><trkpt lat="42.0277633" lon="13.4182455"><ele>700.0</ele><time>2026-03-24T11:34:06.961Z</time></trkpt><trkpt lat="42.0276942" lon="13.4182409"><ele>700.0</ele><time>2026-03-24T11:34:07.96Z</time></trkpt><trkpt lat="42.0275952" lon="13.4182465"><ele>700.0</ele><time>2026-03-24T11:34:09.96Z</time></trkpt><trkpt lat="42.0275303" lon="13.4182912"><ele>700.0</ele><time>2026-03-24T11:34:11.96Z</time></trkpt><trkpt lat="42.0274353" lon="13.418378"><ele>700.0</ele><time>2026-03-24T11:34:13.961Z</time></trkpt><trkpt lat="42.0273677" lon="13.4184166"><ele>700.0</ele><time>2026-03-24T11:34:14.961Z</time></trkpt><trkpt lat="42.0272958" lon="13.4184668"><ele>700.0</ele><time>2026-03-24T11:34:15.96Z</time></trkpt><trkpt lat="42.0272298" lon="13.4185172"><ele>700.0</ele><time>2026-03-24T11:34:16.96Z</time></trkpt><trkpt lat="42.0271586" lon="13.4185649"><ele>700.0</ele><time>2026-03-24T11:34:17.96Z</time></trkpt><trkpt lat="42.0270883" lon="13.4186127"><ele>700.0</ele><time>2026-03-24T11:34:18.961Z</time></trkpt><trkpt lat="42.0270288" lon="13.4186651"><ele>700.0</ele><time>2026-03-24T11:34:19.961Z</time></trkpt><trkpt lat="42.0269343" lon="13.4187277"><ele>700.0</ele><time>2026-03-24T11:34:21.961Z</time></trkpt><trkpt lat="42.0268872" lon="13.4187963"><ele>700.0</ele><time>2026-03-24T11:34:25.96Z</time></trkpt><trkpt lat="42.0268521" lon="13.4188919"><ele>700.0</ele><time>2026-03-24T11:34:28.96Z</time></trkpt><trkpt lat="42.0267527" lon="13.4189569"><ele>700.0</ele><time>2026-03-24T11:34:30.96Z</time></trkpt><trkpt lat="42.0266937" lon="13.4189917"><ele>700.0</ele><time>2026-03-24T11:34:31.96Z</time></trkpt><trkpt lat="42.0266305" lon="13.4190354"><ele>699.6666666666667</ele><time>2026-03-24T11:34:32.961Z</time></trkpt><trkpt lat="42.0265653" lon="13.4190725"><ele>699.3333333333334</ele><time>2026-03-24T11:34:33.961Z</time></trkpt><trkpt lat="42.0264916" lon="13.4191073"><ele>699.0</ele><time>2026-03-24T11:34:34.96Z</time></trkpt><trkpt lat="42.0264172" lon="13.4191492"><ele>698.6666666666666</ele><time>2026-03-24T11:34:35.96Z</time></trkpt><trkpt lat="42.0263434" lon="13.4191847"><ele>698.3333333333333</ele><time>2026-03-24T11:34:36.961Z</time></trkpt><trkpt lat="42.0262705" lon="13.4192245"><ele>698.0</ele><time>2026-03-24T11:34:37.96Z</time></trkpt><trkpt lat="42.0261991" lon="13.4192598"><ele>697.9999999999999</ele><time>2026-03-24T11:34:38.96Z</time></trkpt><trkpt lat="42.0261305" lon="13.4192966"><ele>698.0</ele><time>2026-03-24T11:34:39.96Z</time></trkpt><trkpt lat="42.026068" lon="13.4193284"><ele>698.0</ele><time>2026-03-24T11:34:40.96Z</time></trkpt><trkpt lat="42.0260036" lon="13.4193631"><ele>698.0</ele><time>2026-03-24T11:34:41.96Z</time></trkpt><trkpt lat="42.0259379" lon="13.4193948"><ele>698.0</ele><time>2026-03-24T11:34:42.961Z</time></trkpt><trkpt lat="42.0258788" lon="13.4194254"><ele>697.9999999999999</ele><time>2026-03-24T11:34:43.96Z</time></trkpt><trkpt lat="42.0257922" lon="13.4194704"><ele>698.0</ele><time>2026-03-24T11:34:45.96Z</time></trkpt><trkpt lat="42.0257111" lon="13.4193932"><ele>697.8</ele><time>2026-03-24T11:34:51.961Z</time></trkpt><trkpt lat="42.0256826" lon="13.4193086"><ele>697.5999999999999</ele><time>2026-03-24T11:34:52.96Z</time></trkpt><trkpt lat="42.0256444" lon="13.4192161"><ele>697.4000000000001</ele><time>2026-03-24T11:34:53.961Z</time></trkpt><trkpt lat="42.0256094" lon="13.4191167"><ele>697.2</ele><time>2026-03-24T11:34:54.96Z</time></trkpt><trkpt lat="42.0255581" lon="13.4189897"><ele>697.0</ele><time>2026-03-24T11:34:55.961Z</time></trkpt><trkpt lat="42.0255037" lon="13.4188516"><ele>697.2</ele><time>2026-03-24T11:34:56.96Z</time></trkpt><trkpt lat="42.0254432" lon="13.4187108"><ele>697.4000000000001</ele><time>2026-03-24T11:34:57.96Z</time></trkpt><trkpt lat="42.0253834" lon="13.4185704"><ele>697.5999999999999</ele><time>2026-03-24T11:34:58.96Z</time></trkpt><trkpt lat="42.0253284" lon="13.4184444"><ele>697.8</ele><time>2026-03-24T11:34:59.96Z</time></trkpt><trkpt lat="42.0252826" lon="13.4183325"><ele>698.0</ele><time>2026-03-24T11:35:00.961Z</time></trkpt><trkpt lat="42.0252456" lon="13.4182431"><ele>698.0</ele><time>2026-03-24T11:35:01.96Z</time></trkpt><trkpt lat="42.0251906" lon="13.4181138"><ele>698.0</ele><time>2026-03-24T11:35:03.96Z</time></trkpt><trkpt lat="42.0251456" lon="13.418028"><ele>698.0</ele><time>2026-03-24T11:35:05.96Z</time></trkpt><trkpt lat="42.0251111" lon="13.4179439"><ele>698.0</ele><time>2026-03-24T11:35:07.96Z</time></trkpt><trkpt lat="42.0250588" lon="13.4177932"><ele>698.0</ele><time>2026-03-24T11:35:09.961Z</time></trkpt><trkpt lat="42.0250246" lon="13.4176881"><ele>698.2</ele><time>2026-03-24T11:35:10.96Z</time></trkpt><trkpt lat="42.0249793" lon="13.417578"><ele>698.4</ele><time>2026-03-24T11:35:11.96Z</time></trkpt><trkpt lat="42.0249386" lon="13.4174638"><ele>698.6</ele><time>2026-03-24T11:35:12.96Z</time></trkpt><trkpt lat="42.0248965" lon="13.4173508"><ele>698.8000000000001</ele><time>2026-03-24T11:35:13.96Z</time></trkpt><trkpt lat="42.0248487" lon="13.4172362"><ele>699.0</ele><time>2026-03-24T11:35:14.961Z</time></trkpt><trkpt lat="42.0248038" lon="13.4171182"><ele>699.4000000000001</ele><time>2026-03-24T11:35:15.96Z</time></trkpt><trkpt lat="42.0247572" lon="13.4170002"><ele>699.8</ele><time>2026-03-24T11:35:16.961Z</time></trkpt><trkpt lat="42.0247077" lon="13.4168786"><ele>700.2</ele><time>2026-03-24T11:35:17.96Z</time></trkpt><trkpt lat="42.024659" lon="13.4167628"><ele>700.5999999999999</ele><time>2026-03-24T11:35:18.96Z</time></trkpt><trkpt lat="42.0246105" lon="13.4166518"><ele>701.0</ele><time>2026-03-24T11:35:19.961Z</time></trkpt><trkpt lat="42.0245624" lon="13.4165418"><ele>701.0</ele><time>2026-03-24T11:35:20.96Z</time></trkpt><trkpt lat="42.0245141" lon="13.4164185"><ele>701.0</ele><time>2026-03-24T11:35:21.961Z</time></trkpt><trkpt lat="42.0244662" lon="13.4162898"><ele>701.0</ele><time>2026-03-24T11:35:22.96Z</time></trkpt><trkpt lat="42.0244193" lon="13.4161573"><ele>701.0</ele><time>2026-03-24T11:35:23.96Z</time></trkpt><trkpt lat="42.0243603" lon="13.4160127"><ele>701.0</ele><time>2026-03-24T11:35:24.961Z</time></trkpt><trkpt lat="42.0243002" lon="13.415862"><ele>701.0</ele><time>2026-03-24T11:35:25.96Z</time></trkpt><trkpt lat="42.0242305" lon="13.4156938"><ele>701.0</ele><time>2026-03-24T11:35:26.96Z</time></trkpt><trkpt lat="42.0241628" lon="13.4155159"><ele>701.0</ele><time>2026-03-24T11:35:27.96Z</time></trkpt><trkpt lat="42.0240908" lon="13.4153397"><ele>701.0</ele><time>2026-03-24T11:35:28.96Z</time></trkpt><trkpt lat="42.0240242" lon="13.415174"><ele>701.0</ele><time>2026-03-24T11:35:29.96Z</time></trkpt><trkpt lat="42.0239622" lon="13.4150183"><ele>701.0</ele><time>2026-03-24T11:35:30.961Z</time></trkpt><trkpt lat="42.0239048" lon="13.4148714"><ele>701.0</ele><time>2026-03-24T11:35:31.96Z</time></trkpt><trkpt lat="42.0238494" lon="13.4147355"><ele>701.0</ele><time>2026-03-24T11:35:32.961Z</time></trkpt><trkpt lat="42.0237979" lon="13.4146029"><ele>701.5999999999999</ele><time>2026-03-24T11:35:33.96Z</time></trkpt><trkpt lat="42.0237412" lon="13.4144603"><ele>702.2</ele><time>2026-03-24T11:35:34.96Z</time></trkpt><trkpt lat="42.0236868" lon="13.41432"><ele>702.8</ele><time>2026-03-24T11:35:35.96Z</time></trkpt><trkpt lat="42.0236369" lon="13.4141886"><ele>703.4000000000001</ele><time>2026-03-24T11:35:36.96Z</time></trkpt><trkpt lat="42.0235934" lon="13.4140751"><ele>704.0</ele><time>2026-03-24T11:35:37.96Z</time></trkpt><trkpt lat="42.023563" lon="13.4139835"><ele>704.0</ele><time>2026-03-24T11:35:38.96Z</time></trkpt><trkpt lat="42.0235168" lon="13.4138509"><ele>704.0</ele><time>2026-03-24T11:35:40.96Z</time></trkpt><trkpt lat="42.0234494" lon="13.4138122"><ele>704.0</ele><time>2026-03-24T11:35:42.96Z</time></trkpt><trkpt lat="42.0233785" lon="13.4138642"><ele>704.0</ele><time>2026-03-24T11:35:44.96Z</time></trkpt><trkpt lat="42.0232752" lon="13.41401"><ele>704.0</ele><time>2026-03-24T11:35:46.961Z</time></trkpt><trkpt lat="42.0232087" lon="13.41411"><ele>703.25</ele><time>2026-03-24T11:35:47.96Z</time></trkpt><trkpt lat="42.0231455" lon="13.4142239"><ele>702.5</ele><time>2026-03-24T11:35:48.96Z</time></trkpt><trkpt lat="42.0230816" lon="13.414347"><ele>701.75</ele><time>2026-03-24T11:35:49.96Z</time></trkpt><trkpt lat="42.0230099" lon="13.4144862"><ele>701.0</ele><time>2026-03-24T11:35:50.96Z</time></trkpt><trkpt lat="42.0229407" lon="13.4146318"><ele>700.75</ele><time>2026-03-24T11:35:51.96Z</time></trkpt><trkpt lat="42.0228732" lon="13.4147889"><ele>700.5</ele><time>2026-03-24T11:35:52.961Z</time></trkpt><trkpt lat="42.0228007" lon="13.4149409"><ele>700.25</ele><time>2026-03-24T11:35:53.96Z</time></trkpt><trkpt lat="42.0227323" lon="13.4150928"><ele>700.0</ele><time>2026-03-24T11:35:54.961Z</time></trkpt><trkpt lat="42.0226683" lon="13.415235"><ele>700.0</ele><time>2026-03-24T11:35:55.96Z</time></trkpt><trkpt lat="42.0226049" lon="13.4153699"><ele>700.0</ele><time>2026-03-24T11:35:56.96Z</time></trkpt><trkpt lat="42.0225461" lon="13.41549"><ele>700.0</ele><time>2026-03-24T11:35:57.96Z</time></trkpt><trkpt lat="42.0224866" lon="13.4156023"><ele>700.0</ele><time>2026-03-24T11:35:58.96Z</time></trkpt><trkpt lat="42.0224313" lon="13.4156978"><ele>700.0</ele><time>2026-03-24T11:35:59.96Z</time></trkpt><trkpt lat="42.0223744" lon="13.4157849"><ele>699.6666666666667</ele><time>2026-03-24T11:36:00.96Z</time></trkpt><trkpt lat="42.0223166" lon="13.4158565"><ele>699.3333333333334</ele><time>2026-03-24T11:36:01.96Z</time></trkpt><trkpt lat="42.0222568" lon="13.4159147"><ele>699.0</ele><time>2026-03-24T11:36:02.961Z</time></trkpt><trkpt lat="42.022186" lon="13.4159622"><ele>698.6666666666666</ele><time>2026-03-24T11:36:03.961Z</time></trkpt><trkpt lat="42.0221" lon="13.4159985"><ele>698.3333333333333</ele><time>2026-03-24T11:36:04.96Z</time></trkpt><trkpt lat="42.0220064" lon="13.4160186"><ele>698.0</ele><time>2026-03-24T11:36:05.961Z</time></trkpt><trkpt lat="42.0218991" lon="13.4160108"><ele>698.0</ele><time>2026-03-24T11:36:06.96Z</time></trkpt><trkpt lat="42.0218006" lon="13.4159699"><ele>698.0</ele><time>2026-03-24T11:36:07.96Z</time></trkpt><trkpt lat="42.02172" lon="13.4158976"><ele>698.0</ele><time>2026-03-24T11:36:08.96Z</time></trkpt><trkpt lat="42.0216577" lon="13.4158112"><ele>698.0</ele><time>2026-03-24T11:36:09.96Z</time></trkpt><trkpt lat="42.0216081" lon="13.4157088"><ele>698.0</ele><time>2026-03-24T11:36:10.961Z</time></trkpt><trkpt lat="42.0215744" lon="13.4155921"><ele>698.0</ele><time>2026-03-24T11:36:11.96Z</time></trkpt><trkpt lat="42.0215598" lon="13.4154646"><ele>698.0</ele><time>2026-03-24T11:36:12.96Z</time></trkpt><trkpt lat="42.0215597" lon="13.4153313"><ele>698.0</ele><time>2026-03-24T11:36:13.961Z</time></trkpt><trkpt lat="42.0215675" lon="13.4151961"><ele>698.0</ele><time>2026-03-24T11:36:14.96Z</time></trkpt><trkpt lat="42.0215801" lon="13.4150734"><ele>698.0</ele><time>2026-03-24T11:36:15.961Z</time></trkpt><trkpt lat="42.0215928" lon="13.4149642"><ele>698.0</ele><time>2026-03-24T11:36:16.96Z</time></trkpt><trkpt lat="42.0215926" lon="13.4148763"><ele>698.0</ele><time>2026-03-24T11:36:17.96Z</time></trkpt><trkpt lat="42.0215689" lon="13.414782"><ele>698.0</ele><time>2026-03-24T11:36:19.961Z</time></trkpt><trkpt lat="42.021483" lon="13.4147066"><ele>698.0</ele><time>2026-03-24T11:36:21.96Z</time></trkpt><trkpt lat="42.0213976" lon="13.4146886"><ele>698.0</ele><time>2026-03-24T11:36:22.96Z</time></trkpt><trkpt lat="42.0213008" lon="13.4146875"><ele>698.0</ele><time>2026-03-24T11:36:23.961Z</time></trkpt><trkpt lat="42.0211802" lon="13.4146916"><ele>698.0</ele><time>2026-03-24T11:36:24.961Z</time></trkpt><trkpt lat="42.0210542" lon="13.4147033"><ele>698.0</ele><time>2026-03-24T11:36:25.96Z</time></trkpt><trkpt lat="42.0209192" lon="13.4147274"><ele>698.0</ele><time>2026-03-24T11:36:26.96Z</time></trkpt><trkpt lat="42.0207725" lon="13.4147763"><ele>698.0</ele><time>2026-03-24T11:36:27.96Z</time></trkpt><trkpt lat="42.0206247" lon="13.414857"><ele>698.6666666666666</ele><time>2026-03-24T11:36:28.96Z</time></trkpt><trkpt lat="42.0204776" lon="13.4149632"><ele>699.3333333333334</ele><time>2026-03-24T11:36:29.961Z</time></trkpt><trkpt lat="42.0203386" lon="13.4150782"><ele>700.0</ele><time>2026-03-24T11:36:30.961Z</time></trkpt><trkpt lat="42.0201966" lon="13.4152033"><ele>700.0</ele><time>2026-03-24T11:36:31.96Z</time></trkpt><trkpt lat="42.0200507" lon="13.4153351"><ele>700.0</ele><time>2026-03-24T11:36:32.96Z</time></trkpt><trkpt lat="42.019906" lon="13.4154645"><ele>700.0</ele><time>2026-03-24T11:36:33.961Z</time></trkpt><trkpt lat="42.019766" lon="13.4155884"><ele>698.3333333333334</ele><time>2026-03-24T11:36:34.96Z</time></trkpt><trkpt lat="42.0196326" lon="13.4157058"><ele>696.6666666666666</ele><time>2026-03-24T11:36:35.96Z</time></trkpt><trkpt lat="42.0195029" lon="13.4158267"><ele>695.0</ele><time>2026-03-24T11:36:36.96Z</time></trkpt><trkpt lat="42.0193756" lon="13.4159436"><ele>695.0</ele><time>2026-03-24T11:36:37.96Z</time></trkpt><trkpt lat="42.0192471" lon="13.4160599"><ele>695.0</ele><time>2026-03-24T11:36:38.96Z</time></trkpt><trkpt lat="42.0191202" lon="13.4161772"><ele>695.0</ele><time>2026-03-24T11:36:39.96Z</time></trkpt><trkpt lat="42.0189984" lon="13.4162931"><ele>695.0</ele><time>2026-03-24T11:36:40.96Z</time></trkpt><trkpt lat="42.0188796" lon="13.4163975"><ele>695.0</ele><time>2026-03-24T11:36:41.96Z</time></trkpt><trkpt lat="42.018761" lon="13.4164591"><ele>695.0</ele><time>2026-03-24T11:36:42.96Z</time></trkpt><trkpt lat="42.0186501" lon="13.4164738"><ele>695.0</ele><time>2026-03-24T11:36:43.96Z</time></trkpt><trkpt lat="42.0185458" lon="13.4164455"><ele>695.0</ele><time>2026-03-24T11:36:44.96Z</time></trkpt><trkpt lat="42.0184477" lon="13.4163748"><ele>695.0</ele><time>2026-03-24T11:36:45.961Z</time></trkpt><trkpt lat="42.0183606" lon="13.4162706"><ele>695.0</ele><time>2026-03-24T11:36:46.96Z</time></trkpt><trkpt lat="42.0182865" lon="13.4161277"><ele>695.0</ele><time>2026-03-24T11:36:47.961Z</time></trkpt><trkpt lat="42.0182208" lon="13.4159656"><ele>696.0</ele><time>2026-03-24T11:36:48.96Z</time></trkpt><trkpt lat="42.0181623" lon="13.4157801"><ele>697.0</ele><time>2026-03-24T11:36:49.96Z</time></trkpt><trkpt lat="42.0181092" lon="13.4155744"><ele>698.0</ele><time>2026-03-24T11:36:50.96Z</time></trkpt><trkpt lat="42.0180544" lon="13.4153527"><ele>698.0</ele><time>2026-03-24T11:36:51.96Z</time></trkpt><trkpt lat="42.0179882" lon="13.4151356"><ele>698.0</ele><time>2026-03-24T11:36:52.96Z</time></trkpt><trkpt lat="42.0179195" lon="13.4149353"><ele>698.0</ele><time>2026-03-24T11:36:53.96Z</time></trkpt><trkpt lat="42.0178451" lon="13.4147686"><ele>698.0</ele><time>2026-03-24T11:36:54.96Z</time></trkpt><trkpt lat="42.0177549" lon="13.4146315"><ele>698.0</ele><time>2026-03-24T11:36:55.961Z</time></trkpt><trkpt lat="42.0176539" lon="13.4145339"><ele>698.0</ele><time>2026-03-24T11:36:56.961Z</time></trkpt><trkpt lat="42.0175454" lon="13.4144707"><ele>698.0</ele><time>2026-03-24T11:36:57.96Z</time></trkpt><trkpt lat="42.0174291" lon="13.4144494"><ele>698.0</ele><time>2026-03-24T11:36:58.96Z</time></trkpt><trkpt lat="42.0173088" lon="13.4144692"><ele>698.0</ele><time>2026-03-24T11:36:59.96Z</time></trkpt><trkpt lat="42.0172013" lon="13.4145248"><ele>698.0</ele><time>2026-03-24T11:37:00.961Z</time></trkpt><trkpt lat="42.0171154" lon="13.4146162"><ele>698.0</ele><time>2026-03-24T11:37:01.96Z</time></trkpt><trkpt lat="42.0170518" lon="13.4147308"><ele>698.0</ele><time>2026-03-24T11:37:02.96Z</time></trkpt><trkpt lat="42.0170096" lon="13.4148603"><ele>698.0</ele><time>2026-03-24T11:37:03.96Z</time></trkpt><trkpt lat="42.016992" lon="13.4149997"><ele>698.0</ele><time>2026-03-24T11:37:04.961Z</time></trkpt><trkpt lat="42.0169956" lon="13.4151467"><ele>698.0</ele><time>2026-03-24T11:37:05.96Z</time></trkpt><trkpt lat="42.0170167" lon="13.4152899"><ele>698.0</ele><time>2026-03-24T11:37:06.96Z</time></trkpt><trkpt lat="42.0170312" lon="13.4154333"><ele>697.5999999999999</ele><time>2026-03-24T11:37:07.96Z</time></trkpt><trkpt lat="42.0170262" lon="13.4155762"><ele>697.1999999999999</ele><time>2026-03-24T11:37:08.96Z</time></trkpt><trkpt lat="42.0170021" lon="13.4157039"><ele>696.8</ele><time>2026-03-24T11:37:09.961Z</time></trkpt><trkpt lat="42.016959" lon="13.4158155"><ele>696.4</ele><time>2026-03-24T11:37:10.961Z</time></trkpt><trkpt lat="42.0168911" lon="13.4159174"><ele>696.0</ele><time>2026-03-24T11:37:11.961Z</time></trkpt><trkpt lat="42.016802" lon="13.4160012"><ele>696.0</ele><time>2026-03-24T11:37:12.96Z</time></trkpt><trkpt lat="42.016695" lon="13.4160824"><ele>696.0</ele><time>2026-03-24T11:37:13.96Z</time></trkpt><trkpt lat="42.0165679" lon="13.4161498"><ele>696.0</ele><time>2026-03-24T11:37:14.961Z</time></trkpt><trkpt lat="42.0164159" lon="13.416228"><ele>696.0</ele><time>2026-03-24T11:37:15.961Z</time></trkpt><trkpt lat="42.0162384" lon="13.4163259"><ele>696.0</ele><time>2026-03-24T11:37:16.961Z</time></trkpt><trkpt lat="42.0160466" lon="13.4164371"><ele>696.0</ele><time>2026-03-24T11:37:17.961Z</time></trkpt><trkpt lat="42.0158255" lon="13.4165549"><ele>696.0</ele><time>2026-03-24T11:37:18.96Z</time></trkpt><trkpt lat="42.0155777" lon="13.4166759"><ele>695.5</ele><time>2026-03-24T11:37:19.961Z</time></trkpt><trkpt lat="42.015331" lon="13.4167898"><ele>695.0</ele><time>2026-03-24T11:37:20.96Z</time></trkpt><trkpt lat="42.0150858" lon="13.4168933"><ele>696.0</ele><time>2026-03-24T11:37:21.96Z</time></trkpt><trkpt lat="42.0148481" lon="13.4169946"><ele>697.0</ele><time>2026-03-24T11:37:22.96Z</time></trkpt><trkpt lat="42.0146141" lon="13.4170978"><ele>696.5</ele><time>2026-03-24T11:37:23.96Z</time></trkpt><trkpt lat="42.0143787" lon="13.4172024"><ele>696.0</ele><time>2026-03-24T11:37:24.96Z</time></trkpt><trkpt lat="42.0141459" lon="13.4173108"><ele>697.0</ele><time>2026-03-24T11:37:25.961Z</time></trkpt><trkpt lat="42.0139135" lon="13.4174176"><ele>698.0</ele><time>2026-03-24T11:37:26.96Z</time></trkpt><trkpt lat="42.0136793" lon="13.4175253"><ele>698.0</ele><time>2026-03-24T11:37:27.96Z</time></trkpt><trkpt lat="42.0134445" lon="13.4176349"><ele>698.0</ele><time>2026-03-24T11:37:28.96Z</time></trkpt><trkpt lat="42.0132116" lon="13.4177475"><ele>697.0</ele><time>2026-03-24T11:37:29.961Z</time></trkpt><trkpt lat="42.0129778" lon="13.4178605"><ele>696.0</ele><time>2026-03-24T11:37:30.96Z</time></trkpt><trkpt lat="42.0127432" lon="13.4179784"><ele>695.5</ele><time>2026-03-24T11:37:31.96Z</time></trkpt><trkpt lat="42.0125042" lon="13.4180912"><ele>695.0</ele><time>2026-03-24T11:37:32.96Z</time></trkpt><trkpt lat="42.0122661" lon="13.4182009"><ele>695.0</ele><time>2026-03-24T11:37:33.96Z</time></trkpt><trkpt lat="42.0120293" lon="13.4183098"><ele>695.0</ele><time>2026-03-24T11:37:34.96Z</time></trkpt><trkpt lat="42.0117898" lon="13.4184202"><ele>695.0</ele><time>2026-03-24T11:37:35.961Z</time></trkpt><trkpt lat="42.0115536" lon="13.4185311"><ele>695.0</ele><time>2026-03-24T11:37:36.96Z</time></trkpt><trkpt lat="42.0113147" lon="13.4186413"><ele>695.0</ele><time>2026-03-24T11:37:37.96Z</time></trkpt><trkpt lat="42.0110745" lon="13.4187574"><ele>695.0</ele><time>2026-03-24T11:37:38.96Z</time></trkpt><trkpt lat="42.0108331" lon="13.4188698"><ele>693.5</ele><time>2026-03-24T11:37:39.961Z</time></trkpt><trkpt lat="42.0105899" lon="13.4189806"><ele>692.0</ele><time>2026-03-24T11:37:40.961Z</time></trkpt><trkpt lat="42.0103475" lon="13.4190932"><ele>692.0</ele><time>2026-03-24T11:37:41.961Z</time></trkpt><trkpt lat="42.0101038" lon="13.4192081"><ele>692.0</ele><time>2026-03-24T11:37:42.96Z</time></trkpt><trkpt lat="42.0098615" lon="13.4193198"><ele>691.5</ele><time>2026-03-24T11:37:43.961Z</time></trkpt><trkpt lat="42.0096271" lon="13.4194312"><ele>691.0</ele><time>2026-03-24T11:37:44.96Z</time></trkpt><trkpt lat="42.0094032" lon="13.4195382"><ele>691.0</ele><time>2026-03-24T11:37:45.961Z</time></trkpt><trkpt lat="42.0091886" lon="13.4196401"><ele>691.0</ele><time>2026-03-24T11:37:46.96Z</time></trkpt><trkpt lat="42.0089751" lon="13.419737"><ele>690.6666666666667</ele><time>2026-03-24T11:37:47.96Z</time></trkpt><trkpt lat="42.0087715" lon="13.4198346"><ele>690.3333333333334</ele><time>2026-03-24T11:37:48.96Z</time></trkpt><trkpt lat="42.0085528" lon="13.4199341"><ele>690.0</ele><time>2026-03-24T11:37:49.96Z</time></trkpt><trkpt lat="42.0083275" lon="13.4200374"><ele>691.0</ele><time>2026-03-24T11:37:50.96Z</time></trkpt><trkpt lat="42.0080947" lon="13.420144"><ele>692.0</ele><time>2026-03-24T11:37:51.96Z</time></trkpt><trkpt lat="42.0078613" lon="13.4202562"><ele>692.0</ele><time>2026-03-24T11:37:52.96Z</time></trkpt><trkpt lat="42.0076202" lon="13.4203715"><ele>692.0</ele><time>2026-03-24T11:37:53.961Z</time></trkpt><trkpt lat="42.0073777" lon="13.4204902"><ele>692.5</ele><time>2026-03-24T11:37:54.961Z</time></trkpt><trkpt lat="42.007132" lon="13.4206051"><ele>693.0</ele><time>2026-03-24T11:37:55.96Z</time></trkpt><trkpt lat="42.0068813" lon="13.4207208"><ele>693.0</ele><time>2026-03-24T11:37:56.961Z</time></trkpt><trkpt lat="42.0066321" lon="13.4208354"><ele>693.0</ele><time>2026-03-24T11:37:57.96Z</time></trkpt><trkpt lat="42.0063902" lon="13.4209471"><ele>693.0</ele><time>2026-03-24T11:37:58.96Z</time></trkpt><trkpt lat="42.0061648" lon="13.421051"><ele>693.0</ele><time>2026-03-24T11:37:59.96Z</time></trkpt><trkpt lat="42.0059592" lon="13.4211485"><ele>693.3333333333334</ele><time>2026-03-24T11:38:00.96Z</time></trkpt><trkpt lat="42.0057661" lon="13.4212307"><ele>693.6666666666667</ele><time>2026-03-24T11:38:01.961Z</time></trkpt><trkpt lat="42.0055898" lon="13.4213041"><ele>694.0</ele><time>2026-03-24T11:38:02.96Z</time></trkpt><trkpt lat="42.0054336" lon="13.4213718"><ele>694.5</ele><time>2026-03-24T11:38:03.96Z</time></trkpt><trkpt lat="42.0052929" lon="13.4214333"><ele>695.0</ele><time>2026-03-24T11:38:04.961Z</time></trkpt><trkpt lat="42.0051623" lon="13.4214787"><ele>695.5</ele><time>2026-03-24T11:38:05.961Z</time></trkpt><trkpt lat="42.0050383" lon="13.4215004"><ele>696.0</ele><time>2026-03-24T11:38:06.96Z</time></trkpt><trkpt lat="42.0049214" lon="13.4215002"><ele>696.1999999999999</ele><time>2026-03-24T11:38:07.961Z</time></trkpt><trkpt lat="42.0048102" lon="13.4214698"><ele>696.4</ele><time>2026-03-24T11:38:08.961Z</time></trkpt><trkpt lat="42.004708" lon="13.4214072"><ele>696.6</ele><time>2026-03-24T11:38:09.96Z</time></trkpt><trkpt lat="42.004622" lon="13.4213153"><ele>696.8</ele><time>2026-03-24T11:38:10.96Z</time></trkpt><trkpt lat="42.0045582" lon="13.4212026"><ele>697.0</ele><time>2026-03-24T11:38:11.961Z</time></trkpt><trkpt lat="42.0045125" lon="13.421079"><ele>696.6666666666667</ele><time>2026-03-24T11:38:12.96Z</time></trkpt><trkpt lat="42.0044919" lon="13.420967"><ele>696.3333333333334</ele><time>2026-03-24T11:38:13.96Z</time></trkpt><trkpt lat="42.0044803" lon="13.4208624"><ele>696.0</ele><time>2026-03-24T11:38:14.96Z</time></trkpt><trkpt lat="42.0044828" lon="13.4207543"><ele>695.6666666666666</ele><time>2026-03-24T11:38:15.961Z</time></trkpt><trkpt lat="42.0044951" lon="13.4206446"><ele>695.3333333333333</ele><time>2026-03-24T11:38:16.96Z</time></trkpt><trkpt lat="42.0044935" lon="13.4205423"><ele>695.0</ele><time>2026-03-24T11:38:17.96Z</time></trkpt><trkpt lat="42.0044683" lon="13.4204566"><ele>695.1666666666666</ele><time>2026-03-24T11:38:18.961Z</time></trkpt><trkpt lat="42.0044189" lon="13.4203897"><ele>695.3333333333333</ele><time>2026-03-24T11:38:19.96Z</time></trkpt><trkpt lat="42.0043526" lon="13.4203629"><ele>695.5</ele><time>2026-03-24T11:38:20.961Z</time></trkpt><trkpt lat="42.0042817" lon="13.420377"><ele>695.6666666666666</ele><time>2026-03-24T11:38:21.96Z</time></trkpt><trkpt lat="42.0042026" lon="13.4204368"><ele>695.8333333333334</ele><time>2026-03-24T11:38:22.961Z</time></trkpt><trkpt lat="42.004106" lon="13.420512"><ele>696.0</ele><time>2026-03-24T11:38:23.96Z</time></trkpt><trkpt lat="42.003988" lon="13.4205713"><ele>696.0</ele><time>2026-03-24T11:38:24.96Z</time></trkpt><trkpt lat="42.0038585" lon="13.4206313"><ele>696.0</ele><time>2026-03-24T11:38:25.96Z</time></trkpt><trkpt lat="42.0037193" lon="13.4207088"><ele>696.0</ele><time>2026-03-24T11:38:26.961Z</time></trkpt><trkpt lat="42.0035794" lon="13.4207967"><ele>696.0</ele><time>2026-03-24T11:38:27.96Z</time></trkpt><trkpt lat="42.0034442" lon="13.4209143"><ele>697.0</ele><time>2026-03-24T11:38:28.961Z</time></trkpt><trkpt lat="42.0033117" lon="13.4210522"><ele>698.0</ele><time>2026-03-24T11:38:29.96Z</time></trkpt><trkpt lat="42.0031719" lon="13.4212121"><ele>699.0</ele><time>2026-03-24T11:38:30.961Z</time></trkpt><trkpt lat="42.0030347" lon="13.4213954"><ele>699.0</ele><time>2026-03-24T11:38:31.961Z</time></trkpt><trkpt lat="42.0029016" lon="13.421601"><ele>699.0</ele><time>2026-03-24T11:38:32.96Z</time></trkpt><trkpt lat="42.0027653" lon="13.4218239"><ele>699.0</ele><time>2026-03-24T11:38:33.96Z</time></trkpt><trkpt lat="42.0026309" lon="13.4220554"><ele>699.0</ele><time>2026-03-24T11:38:34.961Z</time></trkpt><trkpt lat="42.0024962" lon="13.4222985"><ele>699.0</ele><time>2026-03-24T11:38:35.96Z</time></trkpt><trkpt lat="42.0023624" lon="13.4225475"><ele>699.0</ele><time>2026-03-24T11:38:36.96Z</time></trkpt><trkpt lat="42.0022346" lon="13.4228033"><ele>699.0</ele><time>2026-03-24T11:38:37.96Z</time></trkpt><trkpt lat="42.0020989" lon="13.4230402"><ele>699.0</ele><time>2026-03-24T11:38:38.96Z</time></trkpt><trkpt lat="42.0019693" lon="13.4232871"><ele>699.0</ele><time>2026-03-24T11:38:39.96Z</time></trkpt><trkpt lat="42.0018415" lon="13.4235298"><ele>699.0</ele><time>2026-03-24T11:38:40.961Z</time></trkpt><trkpt lat="42.0017142" lon="13.4237631"><ele>699.0</ele><time>2026-03-24T11:38:41.96Z</time></trkpt><trkpt lat="42.0015977" lon="13.4239813"><ele>699.0</ele><time>2026-03-24T11:38:42.96Z</time></trkpt><trkpt lat="42.0014885" lon="13.4241904"><ele>699.0</ele><time>2026-03-24T11:38:43.961Z</time></trkpt><trkpt lat="42.001388" lon="13.4243861"><ele>699.0</ele><time>2026-03-24T11:38:44.96Z</time></trkpt><trkpt lat="42.0012912" lon="13.4245726"><ele>699.0</ele><time>2026-03-24T11:38:45.96Z</time></trkpt><trkpt lat="42.0011995" lon="13.4247459"><ele>699.0</ele><time>2026-03-24T11:38:46.96Z</time></trkpt><trkpt lat="42.0011051" lon="13.4249186"><ele>698.0</ele><time>2026-03-24T11:38:47.96Z</time></trkpt><trkpt lat="42.0010125" lon="13.4250966"><ele>697.0</ele><time>2026-03-24T11:38:48.96Z</time></trkpt><trkpt lat="42.0009228" lon="13.4252754"><ele>696.0</ele><time>2026-03-24T11:38:49.961Z</time></trkpt><trkpt lat="42.0008392" lon="13.4254586"><ele>695.3333333333334</ele><time>2026-03-24T11:38:50.96Z</time></trkpt><trkpt lat="42.0007654" lon="13.4256474"><ele>694.6666666666667</ele><time>2026-03-24T11:38:51.96Z</time></trkpt><trkpt lat="42.0007023" lon="13.4258329"><ele>694.0</ele><time>2026-03-24T11:38:52.96Z</time></trkpt><trkpt lat="42.0006516" lon="13.426011"><ele>694.0</ele><time>2026-03-24T11:38:53.961Z</time></trkpt><trkpt lat="42.0006008" lon="13.4261549"><ele>694.0</ele><time>2026-03-24T11:38:54.96Z</time></trkpt><trkpt lat="42.0005495" lon="13.426263"><ele>694.0</ele><time>2026-03-24T11:38:55.96Z</time></trkpt><trkpt lat="42.0004968" lon="13.4263626"><ele>694.0</ele><time>2026-03-24T11:38:56.96Z</time></trkpt><trkpt lat="42.0004382" lon="13.4264473"><ele>694.0</ele><time>2026-03-24T11:38:57.96Z</time></trkpt><trkpt lat="42.0003731" lon="13.4265233"><ele>693.2</ele><time>2026-03-24T11:38:58.96Z</time></trkpt><trkpt lat="42.0002942" lon="13.4265832"><ele>692.4000000000001</ele><time>2026-03-24T11:38:59.96Z</time></trkpt><trkpt lat="42.000203" lon="13.4266265"><ele>691.6</ele><time>2026-03-24T11:39:00.96Z</time></trkpt><trkpt lat="42.0000995" lon="13.4266605"><ele>690.8</ele><time>2026-03-24T11:39:01.96Z</time></trkpt><trkpt lat="41.9999934" lon="13.4267036"><ele>690.0</ele><time>2026-03-24T11:39:02.961Z</time></trkpt><trkpt lat="41.9998908" lon="13.4267684"><ele>690.0</ele><time>2026-03-24T11:39:03.961Z</time></trkpt><trkpt lat="41.9998065" lon="13.4268649"><ele>690.0</ele><time>2026-03-24T11:39:04.96Z</time></trkpt><trkpt lat="41.9997471" lon="13.4269816"><ele>690.0</ele><time>2026-03-24T11:39:05.96Z</time></trkpt><trkpt lat="41.999705" lon="13.4271142"><ele>690.0</ele><time>2026-03-24T11:39:06.96Z</time></trkpt><trkpt lat="41.9996677" lon="13.4272512"><ele>690.0</ele><time>2026-03-24T11:39:07.96Z</time></trkpt><trkpt lat="41.9996188" lon="13.4273811"><ele>688.5</ele><time>2026-03-24T11:39:08.96Z</time></trkpt><trkpt lat="41.9995494" lon="13.4274896"><ele>687.0</ele><time>2026-03-24T11:39:09.96Z</time></trkpt><trkpt lat="41.9994628" lon="13.4275867"><ele>685.5</ele><time>2026-03-24T11:39:10.96Z</time></trkpt><trkpt lat="41.9993556" lon="13.4276739"><ele>684.0</ele><time>2026-03-24T11:39:11.96Z</time></trkpt><trkpt lat="41.9992333" lon="13.4277657"><ele>684.6666666666666</ele><time>2026-03-24T11:39:12.96Z</time></trkpt><trkpt lat="41.999099" lon="13.4278646"><ele>685.3333333333333</ele><time>2026-03-24T11:39:13.961Z</time></trkpt><trkpt lat="41.9989519" lon="13.4279745"><ele>686.0</ele><time>2026-03-24T11:39:14.96Z</time></trkpt><trkpt lat="41.9987922" lon="13.4280931"><ele>686.0</ele><time>2026-03-24T11:39:15.96Z</time></trkpt><trkpt lat="41.9986251" lon="13.4282185"><ele>686.0</ele><time>2026-03-24T11:39:16.96Z</time></trkpt><trkpt lat="41.9984576" lon="13.428352"><ele>686.0</ele><time>2026-03-24T11:39:17.96Z</time></trkpt><trkpt lat="41.9982823" lon="13.4284882"><ele>686.0</ele><time>2026-03-24T11:39:18.96Z</time></trkpt><trkpt lat="41.9981057" lon="13.4286283"><ele>686.0</ele><time>2026-03-24T11:39:19.961Z</time></trkpt><trkpt lat="41.9979259" lon="13.42877"><ele>686.0</ele><time>2026-03-24T11:39:20.96Z</time></trkpt><trkpt lat="41.9977454" lon="13.4289087"><ele>686.0</ele><time>2026-03-24T11:39:21.96Z</time></trkpt><trkpt lat="41.9975675" lon="13.4290462"><ele>686.0</ele><time>2026-03-24T11:39:22.96Z</time></trkpt><trkpt lat="41.9973928" lon="13.4291852"><ele>686.0</ele><time>2026-03-24T11:39:23.96Z</time></trkpt><trkpt lat="41.9972155" lon="13.4293185"><ele>686.0</ele><time>2026-03-24T11:39:24.961Z</time></trkpt><trkpt lat="41.997041" lon="13.4294573"><ele>686.0</ele><time>2026-03-24T11:39:25.96Z</time></trkpt><trkpt lat="41.9968712" lon="13.4295896"><ele>686.0</ele><time>2026-03-24T11:39:26.96Z</time></trkpt><trkpt lat="41.9967004" lon="13.4297228"><ele>685.6666666666666</ele><time>2026-03-24T11:39:27.961Z</time></trkpt><trkpt lat="41.9965287" lon="13.4298551"><ele>685.3333333333334</ele><time>2026-03-24T11:39:28.961Z</time></trkpt><trkpt lat="41.9963623" lon="13.4299847"><ele>685.0</ele><time>2026-03-24T11:39:29.961Z</time></trkpt><trkpt lat="41.996197" lon="13.4301079"><ele>685.0</ele><time>2026-03-24T11:39:30.96Z</time></trkpt><trkpt lat="41.9960347" lon="13.4302291"><ele>685.0</ele><time>2026-03-24T11:39:31.961Z</time></trkpt><trkpt lat="41.9958739" lon="13.4303481"><ele>685.0</ele><time>2026-03-24T11:39:32.96Z</time></trkpt><trkpt lat="41.9957177" lon="13.4304692"><ele>684.3333333333334</ele><time>2026-03-24T11:39:33.961Z</time></trkpt><trkpt lat="41.9955631" lon="13.4305898"><ele>683.6666666666666</ele><time>2026-03-24T11:39:34.96Z</time></trkpt><trkpt lat="41.9954055" lon="13.4307042"><ele>683.0</ele><time>2026-03-24T11:39:35.96Z</time></trkpt><trkpt lat="41.9952481" lon="13.4308203"><ele>683.0</ele><time>2026-03-24T11:39:36.96Z</time></trkpt><trkpt lat="41.9950867" lon="13.4309416"><ele>683.0</ele><time>2026-03-24T11:39:37.96Z</time></trkpt><trkpt lat="41.9949243" lon="13.4310658"><ele>683.0</ele><time>2026-03-24T11:39:38.961Z</time></trkpt><trkpt lat="41.9947572" lon="13.431187"><ele>682.3333333333333</ele><time>2026-03-24T11:39:39.961Z</time></trkpt><trkpt lat="41.9945863" lon="13.4313091"><ele>681.6666666666666</ele><time>2026-03-24T11:39:40.961Z</time></trkpt><trkpt lat="41.9944114" lon="13.4314336"><ele>681.0</ele><time>2026-03-24T11:39:41.961Z</time></trkpt><trkpt lat="41.9942366" lon="13.431564"><ele>681.3333333333334</ele><time>2026-03-24T11:39:42.96Z</time></trkpt><trkpt lat="41.9940618" lon="13.4316974"><ele>681.6666666666667</ele><time>2026-03-24T11:39:43.96Z</time></trkpt><trkpt lat="41.9938906" lon="13.431829"><ele>682.0</ele><time>2026-03-24T11:39:44.961Z</time></trkpt><trkpt lat="41.9937212" lon="13.4319604"><ele>682.0</ele><time>2026-03-24T11:39:45.96Z</time></trkpt><trkpt lat="41.9935542" lon="13.4320892"><ele>682.0</ele><time>2026-03-24T11:39:46.96Z</time></trkpt><trkpt lat="41.9933866" lon="13.4322145"><ele>682.0</ele><time>2026-03-24T11:39:47.96Z</time></trkpt><trkpt lat="41.9932177" lon="13.4323357"><ele>682.3333333333334</ele><time>2026-03-24T11:39:48.96Z</time></trkpt><trkpt lat="41.9930472" lon="13.4324588"><ele>682.6666666666666</ele><time>2026-03-24T11:39:49.96Z</time></trkpt><trkpt lat="41.9928765" lon="13.4325836"><ele>683.0</ele><time>2026-03-24T11:39:50.96Z</time></trkpt><trkpt lat="41.9927061" lon="13.4327111"><ele>683.0</ele><time>2026-03-24T11:39:51.961Z</time></trkpt><trkpt lat="41.9925258" lon="13.4328335"><ele>683.0</ele><time>2026-03-24T11:39:52.961Z</time></trkpt><trkpt lat="41.9923477" lon="13.4329629"><ele>683.0</ele><time>2026-03-24T11:39:53.96Z</time></trkpt><trkpt lat="41.9921686" lon="13.4330991"><ele>682.6666666666666</ele><time>2026-03-24T11:39:54.961Z</time></trkpt><trkpt lat="41.9919853" lon="13.4332369"><ele>682.3333333333334</ele><time>2026-03-24T11:39:55.961Z</time></trkpt><trkpt lat="41.9918009" lon="13.4333731"><ele>682.0</ele><time>2026-03-24T11:39:56.96Z</time></trkpt><trkpt lat="41.9916161" lon="13.4335101"><ele>682.6666666666667</ele><time>2026-03-24T11:39:57.96Z</time></trkpt><trkpt lat="41.9914323" lon="13.4336462"><ele>683.3333333333334</ele><time>2026-03-24T11:39:58.96Z</time></trkpt><trkpt lat="41.9912481" lon="13.4337739"><ele>684.0</ele><time>2026-03-24T11:39:59.96Z</time></trkpt><trkpt lat="41.9910627" lon="13.4339025"><ele>684.0</ele><time>2026-03-24T11:40:00.961Z</time></trkpt><trkpt lat="41.9908799" lon="13.4340271"><ele>684.0</ele><time>2026-03-24T11:40:01.96Z</time></trkpt><trkpt lat="41.9907032" lon="13.4341578"><ele>684.0</ele><time>2026-03-24T11:40:02.96Z</time></trkpt><trkpt lat="41.9905296" lon="13.4342946"><ele>684.6666666666666</ele><time>2026-03-24T11:40:03.961Z</time></trkpt><trkpt lat="41.9903658" lon="13.4344441"><ele>685.3333333333333</ele><time>2026-03-24T11:40:04.96Z</time></trkpt><trkpt lat="41.990204" lon="13.4346015"><ele>686.0</ele><time>2026-03-24T11:40:05.96Z</time></trkpt><trkpt lat="41.990047" lon="13.434765"><ele>686.6666666666666</ele><time>2026-03-24T11:40:06.961Z</time></trkpt><trkpt lat="41.9898932" lon="13.4349391"><ele>687.3333333333334</ele><time>2026-03-24T11:40:07.96Z</time></trkpt><trkpt lat="41.9897522" lon="13.4351179"><ele>688.0</ele><time>2026-03-24T11:40:08.96Z</time></trkpt><trkpt lat="41.9896141" lon="13.435302"><ele>687.0</ele><time>2026-03-24T11:40:09.961Z</time></trkpt><trkpt lat="41.9894844" lon="13.4354901"><ele>686.0</ele><time>2026-03-24T11:40:10.96Z</time></trkpt><trkpt lat="41.9893585" lon="13.4356889"><ele>685.0</ele><time>2026-03-24T11:40:11.96Z</time></trkpt><trkpt lat="41.9892417" lon="13.4358882"><ele>685.6666666666667</ele><time>2026-03-24T11:40:12.961Z</time></trkpt><trkpt lat="41.9891288" lon="13.4360988"><ele>686.3333333333334</ele><time>2026-03-24T11:40:13.96Z</time></trkpt><trkpt lat="41.9890242" lon="13.436323"><ele>687.0</ele><time>2026-03-24T11:40:14.961Z</time></trkpt><trkpt lat="41.9889247" lon="13.4365549"><ele>687.0</ele><time>2026-03-24T11:40:15.96Z</time></trkpt><trkpt lat="41.988832" lon="13.4367968"><ele>687.0</ele><time>2026-03-24T11:40:16.96Z</time></trkpt><trkpt lat="41.9887353" lon="13.4370389"><ele>687.0</ele><time>2026-03-24T11:40:17.96Z</time></trkpt><trkpt lat="41.9886389" lon="13.4372948"><ele>686.0</ele><time>2026-03-24T11:40:18.96Z</time></trkpt><trkpt lat="41.9885494" lon="13.4375474"><ele>685.0</ele><time>2026-03-24T11:40:19.96Z</time></trkpt><trkpt lat="41.9884664" lon="13.4378067"><ele>684.0</ele><time>2026-03-24T11:40:20.961Z</time></trkpt><trkpt lat="41.9883941" lon="13.4380542"><ele>684.3333333333334</ele><time>2026-03-24T11:40:21.96Z</time></trkpt><trkpt lat="41.9883345" lon="13.4382877"><ele>684.6666666666667</ele><time>2026-03-24T11:40:22.961Z</time></trkpt><trkpt lat="41.9882936" lon="13.4385038"><ele>685.0</ele><time>2026-03-24T11:40:23.961Z</time></trkpt><trkpt lat="41.9882602" lon="13.438699"><ele>684.4</ele><time>2026-03-24T11:40:24.96Z</time></trkpt><trkpt lat="41.9882317" lon="13.438871"><ele>683.8</ele><time>2026-03-24T11:40:25.961Z</time></trkpt><trkpt lat="41.9882104" lon="13.4390158"><ele>683.2</ele><time>2026-03-24T11:40:26.961Z</time></trkpt><trkpt lat="41.9881847" lon="13.4391243"><ele>682.6</ele><time>2026-03-24T11:40:27.961Z</time></trkpt><trkpt lat="41.9881403" lon="13.4392104"><ele>682.0</ele><time>2026-03-24T11:40:28.96Z</time></trkpt><trkpt lat="41.9880757" lon="13.4392925"><ele>682.0</ele><time>2026-03-24T11:40:29.96Z</time></trkpt><trkpt lat="41.9879989" lon="13.4393748"><ele>682.0</ele><time>2026-03-24T11:40:30.96Z</time></trkpt><trkpt lat="41.9879205" lon="13.4394689"><ele>682.0</ele><time>2026-03-24T11:40:31.96Z</time></trkpt><trkpt lat="41.9878572" lon="13.4395764"><ele>682.0</ele><time>2026-03-24T11:40:32.96Z</time></trkpt><trkpt lat="41.9878152" lon="13.4396907"><ele>682.0</ele><time>2026-03-24T11:40:33.96Z</time></trkpt><trkpt lat="41.9877954" lon="13.4398047"><ele>681.0</ele><time>2026-03-24T11:40:34.961Z</time></trkpt><trkpt lat="41.9877864" lon="13.4399155"><ele>680.0</ele><time>2026-03-24T11:40:35.96Z</time></trkpt><trkpt lat="41.9877833" lon="13.4400221"><ele>679.0</ele><time>2026-03-24T11:40:36.961Z</time></trkpt><trkpt lat="41.9877682" lon="13.4401204"><ele>678.0</ele><time>2026-03-24T11:40:37.961Z</time></trkpt><trkpt lat="41.9877283" lon="13.4402132"><ele>677.0</ele><time>2026-03-24T11:40:38.961Z</time></trkpt><trkpt lat="41.9876597" lon="13.4403066"><ele>676.0</ele><time>2026-03-24T11:40:39.96Z</time></trkpt><trkpt lat="41.9875677" lon="13.4404221"><ele>677.3333333333334</ele><time>2026-03-24T11:40:40.96Z</time></trkpt><trkpt lat="41.9874618" lon="13.4405559"><ele>678.6666666666666</ele><time>2026-03-24T11:40:41.96Z</time></trkpt><trkpt lat="41.9873479" lon="13.4407066"><ele>680.0</ele><time>2026-03-24T11:40:42.961Z</time></trkpt><trkpt lat="41.9872364" lon="13.4408765"><ele>680.0</ele><time>2026-03-24T11:40:43.961Z</time></trkpt><trkpt lat="41.9871293" lon="13.4410576"><ele>680.0</ele><time>2026-03-24T11:40:44.96Z</time></trkpt><trkpt lat="41.9870175" lon="13.4412452"><ele>680.0</ele><time>2026-03-24T11:40:45.961Z</time></trkpt><trkpt lat="41.9869155" lon="13.4414488"><ele>681.3333333333333</ele><time>2026-03-24T11:40:46.961Z</time></trkpt><trkpt lat="41.9868193" lon="13.4416625"><ele>682.6666666666666</ele><time>2026-03-24T11:40:47.96Z</time></trkpt><trkpt lat="41.9867263" lon="13.4418838"><ele>684.0</ele><time>2026-03-24T11:40:48.961Z</time></trkpt><trkpt lat="41.9866379" lon="13.4421056"><ele>682.0</ele><time>2026-03-24T11:40:49.961Z</time></trkpt><trkpt lat="41.9865571" lon="13.4423276"><ele>680.0</ele><time>2026-03-24T11:40:50.96Z</time></trkpt><trkpt lat="41.9864812" lon="13.4425289"><ele>678.0</ele><time>2026-03-24T11:40:51.96Z</time></trkpt><trkpt lat="41.9863978" lon="13.4427062"><ele>678.0</ele><time>2026-03-24T11:40:52.96Z</time></trkpt><trkpt lat="41.9863053" lon="13.4428646"><ele>678.0</ele><time>2026-03-24T11:40:53.96Z</time></trkpt><trkpt lat="41.986196" lon="13.4430057"><ele>678.0</ele><time>2026-03-24T11:40:54.961Z</time></trkpt><trkpt lat="41.986073" lon="13.4431279"><ele>678.6666666666666</ele><time>2026-03-24T11:40:55.96Z</time></trkpt><trkpt lat="41.9859384" lon="13.443234"><ele>679.3333333333333</ele><time>2026-03-24T11:40:56.96Z</time></trkpt><trkpt lat="41.9858021" lon="13.4433433"><ele>680.0</ele><time>2026-03-24T11:40:57.961Z</time></trkpt><trkpt lat="41.9856603" lon="13.4434484"><ele>680.0</ele><time>2026-03-24T11:40:58.96Z</time></trkpt><trkpt lat="41.9855276" lon="13.4435539"><ele>680.0</ele><time>2026-03-24T11:40:59.961Z</time></trkpt><trkpt lat="41.9854035" lon="13.4436559"><ele>680.0</ele><time>2026-03-24T11:41:00.96Z</time></trkpt><trkpt lat="41.9852801" lon="13.4437568"><ele>680.0</ele><time>2026-03-24T11:41:01.96Z</time></trkpt><trkpt lat="41.9851534" lon="13.4438593"><ele>678.0</ele><time>2026-03-24T11:41:02.961Z</time></trkpt><trkpt lat="41.9850238" lon="13.4439618"><ele>676.0</ele><time>2026-03-24T11:41:03.961Z</time></trkpt><trkpt lat="41.9848887" lon="13.4440644"><ele>674.0</ele><time>2026-03-24T11:41:04.961Z</time></trkpt><trkpt lat="41.9847466" lon="13.4441712"><ele>674.0</ele><time>2026-03-24T11:41:05.96Z</time></trkpt><trkpt lat="41.9846022" lon="13.4442816"><ele>674.0</ele><time>2026-03-24T11:41:06.96Z</time></trkpt><trkpt lat="41.9844562" lon="13.4443983"><ele>674.0</ele><time>2026-03-24T11:41:07.96Z</time></trkpt><trkpt lat="41.9843079" lon="13.4445211"><ele>674.0</ele><time>2026-03-24T11:41:08.96Z</time></trkpt><trkpt lat="41.9841555" lon="13.444644"><ele>674.0</ele><time>2026-03-24T11:41:09.96Z</time></trkpt><trkpt lat="41.9840015" lon="13.4447669"><ele>674.0</ele><time>2026-03-24T11:41:10.96Z</time></trkpt><trkpt lat="41.9838484" lon="13.444886"><ele>674.0</ele><time>2026-03-24T11:41:11.96Z</time></trkpt><trkpt lat="41.9837007" lon="13.445002"><ele>674.0</ele><time>2026-03-24T11:41:12.96Z</time></trkpt><trkpt lat="41.9835573" lon="13.4451137"><ele>674.0</ele><time>2026-03-24T11:41:13.961Z</time></trkpt><trkpt lat="41.9834125" lon="13.4452267"><ele>672.6666666666666</ele><time>2026-03-24T11:41:14.96Z</time></trkpt><trkpt lat="41.9832672" lon="13.4453411"><ele>671.3333333333334</ele><time>2026-03-24T11:41:15.961Z</time></trkpt><trkpt lat="41.9831186" lon="13.445461"><ele>670.0</ele><time>2026-03-24T11:41:16.96Z</time></trkpt><trkpt lat="41.9829683" lon="13.4455808"><ele>670.0</ele><time>2026-03-24T11:41:17.96Z</time></trkpt><trkpt lat="41.9828166" lon="13.4456977"><ele>670.0</ele><time>2026-03-24T11:41:18.96Z</time></trkpt><trkpt lat="41.9826642" lon="13.4458159"><ele>670.0</ele><time>2026-03-24T11:41:19.96Z</time></trkpt><trkpt lat="41.9825112" lon="13.4459329"><ele>672.3333333333334</ele><time>2026-03-24T11:41:20.961Z</time></trkpt><trkpt lat="41.9823632" lon="13.4460488"><ele>674.6666666666666</ele><time>2026-03-24T11:41:21.961Z</time></trkpt><trkpt lat="41.9822151" lon="13.4461608"><ele>677.0</ele><time>2026-03-24T11:41:22.96Z</time></trkpt><trkpt lat="41.9820746" lon="13.4462746"><ele>676.0</ele><time>2026-03-24T11:41:23.96Z</time></trkpt><trkpt lat="41.9819356" lon="13.4463872"><ele>675.0</ele><time>2026-03-24T11:41:24.96Z</time></trkpt><trkpt lat="41.9817972" lon="13.4465006"><ele>674.0</ele><time>2026-03-24T11:41:25.96Z</time></trkpt><trkpt lat="41.9816559" lon="13.4466122"><ele>674.0</ele><time>2026-03-24T11:41:26.961Z</time></trkpt><trkpt lat="41.9815136" lon="13.4467247"><ele>674.0</ele><time>2026-03-24T11:41:27.96Z</time></trkpt><trkpt lat="41.981368" lon="13.4468385"><ele>674.0</ele><time>2026-03-24T11:41:28.96Z</time></trkpt><trkpt lat="41.9812204" lon="13.4469537"><ele>674.0</ele><time>2026-03-24T11:41:29.96Z</time></trkpt><trkpt lat="41.9810712" lon="13.4470692"><ele>674.0</ele><time>2026-03-24T11:41:30.96Z</time></trkpt><trkpt lat="41.9809228" lon="13.4471806"><ele>674.0</ele><time>2026-03-24T11:41:31.96Z</time></trkpt><trkpt lat="41.9807775" lon="13.4472961"><ele>675.0</ele><time>2026-03-24T11:41:32.961Z</time></trkpt><trkpt lat="41.9806317" lon="13.4474062"><ele>676.0</ele><time>2026-03-24T11:41:33.961Z</time></trkpt><trkpt lat="41.9804873" lon="13.4475163"><ele>677.0</ele><time>2026-03-24T11:41:34.96Z</time></trkpt><trkpt lat="41.9803475" lon="13.4476304"><ele>677.0</ele><time>2026-03-24T11:41:35.96Z</time></trkpt><trkpt lat="41.9802042" lon="13.4477458"><ele>677.0</ele><time>2026-03-24T11:41:36.961Z</time></trkpt><trkpt lat="41.9800601" lon="13.4478615"><ele>677.0</ele><time>2026-03-24T11:41:37.96Z</time></trkpt><trkpt lat="41.9799139" lon="13.4479754"><ele>679.6666666666666</ele><time>2026-03-24T11:41:38.96Z</time></trkpt><trkpt lat="41.9797678" lon="13.4480916"><ele>682.3333333333334</ele><time>2026-03-24T11:41:39.961Z</time></trkpt><trkpt lat="41.979617" lon="13.4482043"><ele>685.0</ele><time>2026-03-24T11:41:40.961Z</time></trkpt><trkpt lat="41.9794659" lon="13.4483242"><ele>685.0</ele><time>2026-03-24T11:41:41.96Z</time></trkpt><trkpt lat="41.9793164" lon="13.4484444"><ele>685.0</ele><time>2026-03-24T11:41:42.96Z</time></trkpt><trkpt lat="41.979172" lon="13.4485563"><ele>685.0</ele><time>2026-03-24T11:41:43.96Z</time></trkpt><trkpt lat="41.9790289" lon="13.4486671"><ele>684.3333333333334</ele><time>2026-03-24T11:41:44.96Z</time></trkpt><trkpt lat="41.9788869" lon="13.4487744"><ele>683.6666666666666</ele><time>2026-03-24T11:41:45.96Z</time></trkpt><trkpt lat="41.9787501" lon="13.4488864"><ele>683.0</ele><time>2026-03-24T11:41:46.961Z</time></trkpt><trkpt lat="41.9786102" lon="13.4490024"><ele>683.0</ele><time>2026-03-24T11:41:47.961Z</time></trkpt><trkpt lat="41.9784697" lon="13.4491198"><ele>683.0</ele><time>2026-03-24T11:41:48.96Z</time></trkpt><trkpt lat="41.9783269" lon="13.4492382"><ele>683.0</ele><time>2026-03-24T11:41:49.961Z</time></trkpt><trkpt lat="41.9781862" lon="13.4493557"><ele>682.0</ele><time>2026-03-24T11:41:50.96Z</time></trkpt><trkpt lat="41.9780503" lon="13.4494704"><ele>681.0</ele><time>2026-03-24T11:41:51.96Z</time></trkpt><trkpt lat="41.9779241" lon="13.4495799"><ele>680.0</ele><time>2026-03-24T11:41:52.961Z</time></trkpt><trkpt lat="41.9778046" lon="13.4496908"><ele>680.0</ele><time>2026-03-24T11:41:53.96Z</time></trkpt><trkpt lat="41.9776865" lon="13.4497965"><ele>680.0</ele><time>2026-03-24T11:41:54.96Z</time></trkpt><trkpt lat="41.9775695" lon="13.4499087"><ele>680.0</ele><time>2026-03-24T11:41:55.96Z</time></trkpt><trkpt lat="41.9774607" lon="13.4500512"><ele>680.0</ele><time>2026-03-24T11:41:56.961Z</time></trkpt><trkpt lat="41.9773562" lon="13.4502174"><ele>680.6666666666666</ele><time>2026-03-24T11:41:57.961Z</time></trkpt><trkpt lat="41.9772613" lon="13.4504158"><ele>681.3333333333334</ele><time>2026-03-24T11:41:58.96Z</time></trkpt><trkpt lat="41.9771768" lon="13.4506247"><ele>682.0</ele><time>2026-03-24T11:41:59.96Z</time></trkpt><trkpt lat="41.9770932" lon="13.4508316"><ele>680.6666666666667</ele><time>2026-03-24T11:42:00.96Z</time></trkpt><trkpt lat="41.9770129" lon="13.4510274"><ele>679.3333333333334</ele><time>2026-03-24T11:42:01.961Z</time></trkpt><trkpt lat="41.9769362" lon="13.4512246"><ele>678.0</ele><time>2026-03-24T11:42:02.961Z</time></trkpt><trkpt lat="41.9768574" lon="13.4514247"><ele>679.0</ele><time>2026-03-24T11:42:03.96Z</time></trkpt><trkpt lat="41.9767815" lon="13.4516211"><ele>680.0</ele><time>2026-03-24T11:42:04.961Z</time></trkpt><trkpt lat="41.9767024" lon="13.4518147"><ele>681.0</ele><time>2026-03-24T11:42:05.96Z</time></trkpt><trkpt lat="41.9766234" lon="13.4520041"><ele>677.6666666666666</ele><time>2026-03-24T11:42:06.96Z</time></trkpt><trkpt lat="41.9765492" lon="13.4521856"><ele>674.3333333333333</ele><time>2026-03-24T11:42:07.961Z</time></trkpt><trkpt lat="41.9764697" lon="13.4523564"><ele>671.0</ele><time>2026-03-24T11:42:08.96Z</time></trkpt><trkpt lat="41.9763687" lon="13.4525184"><ele>671.0</ele><time>2026-03-24T11:42:09.96Z</time></trkpt><trkpt lat="41.9762543" lon="13.4526604"><ele>671.0</ele><time>2026-03-24T11:42:10.961Z</time></trkpt><trkpt lat="41.9761243" lon="13.4527806"><ele>671.0</ele><time>2026-03-24T11:42:11.96Z</time></trkpt><trkpt lat="41.9759814" lon="13.4528853"><ele>669.6666666666666</ele><time>2026-03-24T11:42:12.96Z</time></trkpt><trkpt lat="41.9758389" lon="13.4529762"><ele>668.3333333333334</ele><time>2026-03-24T11:42:13.96Z</time></trkpt><trkpt lat="41.9756984" lon="13.4530736"><ele>667.0</ele><time>2026-03-24T11:42:14.961Z</time></trkpt><trkpt lat="41.9755687" lon="13.4532003"><ele>667.0</ele><time>2026-03-24T11:42:15.96Z</time></trkpt><trkpt lat="41.9754496" lon="13.4533555"><ele>667.0</ele><time>2026-03-24T11:42:16.96Z</time></trkpt><trkpt lat="41.9753417" lon="13.4535295"><ele>667.0</ele><time>2026-03-24T11:42:17.96Z</time></trkpt><trkpt lat="41.9752312" lon="13.4537092"><ele>667.6666666666667</ele><time>2026-03-24T11:42:18.96Z</time></trkpt><trkpt lat="41.9751201" lon="13.4538974"><ele>668.3333333333334</ele><time>2026-03-24T11:42:19.96Z</time></trkpt><trkpt lat="41.9750047" lon="13.4540912"><ele>669.0</ele><time>2026-03-24T11:42:20.96Z</time></trkpt><trkpt lat="41.9748905" lon="13.4542839"><ele>669.0</ele><time>2026-03-24T11:42:21.96Z</time></trkpt><trkpt lat="41.9747765" lon="13.4544747"><ele>669.0</ele><time>2026-03-24T11:42:22.961Z</time></trkpt><trkpt lat="41.9746647" lon="13.4546593"><ele>669.0</ele><time>2026-03-24T11:42:23.96Z</time></trkpt><trkpt lat="41.9745575" lon="13.4548454"><ele>667.3333333333334</ele><time>2026-03-24T11:42:24.96Z</time></trkpt><trkpt lat="41.9744516" lon="13.4550227"><ele>665.6666666666667</ele><time>2026-03-24T11:42:25.961Z</time></trkpt><trkpt lat="41.9743516" lon="13.4552029"><ele>664.0</ele><time>2026-03-24T11:42:26.961Z</time></trkpt><trkpt lat="41.9742509" lon="13.4553802"><ele>665.6666666666667</ele><time>2026-03-24T11:42:27.961Z</time></trkpt><trkpt lat="41.9741539" lon="13.4555522"><ele>667.3333333333334</ele><time>2026-03-24T11:42:28.96Z</time></trkpt><trkpt lat="41.9740678" lon="13.4557299"><ele>669.0</ele><time>2026-03-24T11:42:29.96Z</time></trkpt><trkpt lat="41.9739958" lon="13.4559207"><ele>669.0</ele><time>2026-03-24T11:42:30.96Z</time></trkpt><trkpt lat="41.9739348" lon="13.4561122"><ele>669.0</ele><time>2026-03-24T11:42:31.96Z</time></trkpt><trkpt lat="41.9738852" lon="13.4563099"><ele>669.0</ele><time>2026-03-24T11:42:32.96Z</time></trkpt><trkpt lat="41.9738437" lon="13.4564995"><ele>667.75</ele><time>2026-03-24T11:42:33.961Z</time></trkpt><trkpt lat="41.9738003" lon="13.4566785"><ele>666.5</ele><time>2026-03-24T11:42:34.96Z</time></trkpt><trkpt lat="41.9737479" lon="13.4568569"><ele>665.25</ele><time>2026-03-24T11:42:35.961Z</time></trkpt><trkpt lat="41.9736813" lon="13.45703"><ele>664.0</ele><time>2026-03-24T11:42:36.96Z</time></trkpt><trkpt lat="41.973599" lon="13.4571959"><ele>662.6666666666667</ele><time>2026-03-24T11:42:37.961Z</time></trkpt><trkpt lat="41.9735041" lon="13.4573566"><ele>661.3333333333334</ele><time>2026-03-24T11:42:38.96Z</time></trkpt><trkpt lat="41.9734077" lon="13.4575178"><ele>660.0</ele><time>2026-03-24T11:42:39.96Z</time></trkpt><trkpt lat="41.9733162" lon="13.4576833"><ele>660.6666666666666</ele><time>2026-03-24T11:42:40.961Z</time></trkpt><trkpt lat="41.9732274" lon="13.4578608"><ele>661.3333333333333</ele><time>2026-03-24T11:42:41.96Z</time></trkpt><trkpt lat="41.9731534" lon="13.4580442"><ele>662.0</ele><time>2026-03-24T11:42:42.961Z</time></trkpt><trkpt lat="41.9730869" lon="13.4582322"><ele>662.0</ele><time>2026-03-24T11:42:43.96Z</time></trkpt><trkpt lat="41.9730328" lon="13.4584122"><ele>662.0</ele><time>2026-03-24T11:42:44.96Z</time></trkpt><trkpt lat="41.9729932" lon="13.4585918"><ele>662.0</ele><time>2026-03-24T11:42:45.96Z</time></trkpt><trkpt lat="41.9729619" lon="13.4587662"><ele>662.0</ele><time>2026-03-24T11:42:46.96Z</time></trkpt><trkpt lat="41.9729373" lon="13.458937"><ele>661.25</ele><time>2026-03-24T11:42:47.96Z</time></trkpt><trkpt lat="41.9729033" lon="13.4590981"><ele>660.5</ele><time>2026-03-24T11:42:48.96Z</time></trkpt><trkpt lat="41.9728548" lon="13.4592624"><ele>659.75</ele><time>2026-03-24T11:42:49.96Z</time></trkpt><trkpt lat="41.9727871" lon="13.4594205"><ele>659.0</ele><time>2026-03-24T11:42:50.96Z</time></trkpt><trkpt lat="41.9726955" lon="13.4595715"><ele>659.0</ele><time>2026-03-24T11:42:51.96Z</time></trkpt><trkpt lat="41.9725999" lon="13.4597226"><ele>659.0</ele><time>2026-03-24T11:42:52.961Z</time></trkpt><trkpt lat="41.9725018" lon="13.4598653"><ele>659.0</ele><time>2026-03-24T11:42:53.96Z</time></trkpt><trkpt lat="41.97239" lon="13.4600019"><ele>659.0</ele><time>2026-03-24T11:42:54.96Z</time></trkpt><trkpt lat="41.9722695" lon="13.4601229"><ele>658.6666666666666</ele><time>2026-03-24T11:42:55.961Z</time></trkpt><trkpt lat="41.9721435" lon="13.4602455"><ele>658.3333333333334</ele><time>2026-03-24T11:42:56.961Z</time></trkpt><trkpt lat="41.9720104" lon="13.4603724"><ele>658.0</ele><time>2026-03-24T11:42:57.96Z</time></trkpt><trkpt lat="41.9718718" lon="13.4604938"><ele>658.0</ele><time>2026-03-24T11:42:58.96Z</time></trkpt><trkpt lat="41.9717304" lon="13.460622"><ele>658.0</ele><time>2026-03-24T11:42:59.96Z</time></trkpt><trkpt lat="41.971592" lon="13.4607484"><ele>658.0</ele><time>2026-03-24T11:43:00.961Z</time></trkpt><trkpt lat="41.9714599" lon="13.4608716"><ele>660.3333333333334</ele><time>2026-03-24T11:43:01.96Z</time></trkpt><trkpt lat="41.9713279" lon="13.4609865"><ele>662.6666666666666</ele><time>2026-03-24T11:43:02.96Z</time></trkpt><trkpt lat="41.971202" lon="13.4611035"><ele>665.0</ele><time>2026-03-24T11:43:03.96Z</time></trkpt><trkpt lat="41.9710759" lon="13.4612209"><ele>665.0</ele><time>2026-03-24T11:43:04.96Z</time></trkpt><trkpt lat="41.9709476" lon="13.4613396"><ele>665.0</ele><time>2026-03-24T11:43:05.961Z</time></trkpt><trkpt lat="41.9708179" lon="13.4614568"><ele>665.0</ele><time>2026-03-24T11:43:06.961Z</time></trkpt><trkpt lat="41.9706865" lon="13.4615781"><ele>665.0</ele><time>2026-03-24T11:43:07.96Z</time></trkpt><trkpt lat="41.970551" lon="13.4617058"><ele>665.0</ele><time>2026-03-24T11:43:08.96Z</time></trkpt><trkpt lat="41.9704154" lon="13.4618306"><ele>665.0</ele><time>2026-03-24T11:43:09.96Z</time></trkpt><trkpt lat="41.9702867" lon="13.4619481"><ele>665.0</ele><time>2026-03-24T11:43:10.961Z</time></trkpt><trkpt lat="41.9701577" lon="13.4620634"><ele>665.0</ele><time>2026-03-24T11:43:11.96Z</time></trkpt><trkpt lat="41.9700336" lon="13.4621777"><ele>665.0</ele><time>2026-03-24T11:43:12.961Z</time></trkpt><trkpt lat="41.9699037" lon="13.4622927"><ele>664.75</ele><time>2026-03-24T11:43:13.96Z</time></trkpt><trkpt lat="41.9697775" lon="13.4624099"><ele>664.5</ele><time>2026-03-24T11:43:14.961Z</time></trkpt><trkpt lat="41.969657" lon="13.4625262"><ele>664.25</ele><time>2026-03-24T11:43:15.96Z</time></trkpt><trkpt lat="41.9695401" lon="13.4626371"><ele>664.0</ele><time>2026-03-24T11:43:16.96Z</time></trkpt><trkpt lat="41.9694205" lon="13.4627477"><ele>664.0</ele><time>2026-03-24T11:43:17.96Z</time></trkpt><trkpt lat="41.9693034" lon="13.4628622"><ele>664.0</ele><time>2026-03-24T11:43:18.96Z</time></trkpt><trkpt lat="41.9691856" lon="13.4629723"><ele>664.0</ele><time>2026-03-24T11:43:19.96Z</time></trkpt><trkpt lat="41.9690672" lon="13.4630834"><ele>664.0</ele><time>2026-03-24T11:43:20.96Z</time></trkpt><trkpt lat="41.9689542" lon="13.4631826"><ele>663.75</ele><time>2026-03-24T11:43:21.96Z</time></trkpt><trkpt lat="41.9688474" lon="13.463281"><ele>663.5</ele><time>2026-03-24T11:43:22.961Z</time></trkpt><trkpt lat="41.9687449" lon="13.4633745"><ele>663.25</ele><time>2026-03-24T11:43:23.96Z</time></trkpt><trkpt lat="41.9686473" lon="13.4634611"><ele>663.0</ele><time>2026-03-24T11:43:24.96Z</time></trkpt><trkpt lat="41.9685466" lon="13.4635556"><ele>663.0</ele><time>2026-03-24T11:43:25.961Z</time></trkpt><trkpt lat="41.9684516" lon="13.4636461"><ele>663.0</ele><time>2026-03-24T11:43:26.96Z</time></trkpt><trkpt lat="41.9683604" lon="13.4637314"><ele>663.0</ele><time>2026-03-24T11:43:27.96Z</time></trkpt><trkpt lat="41.9682706" lon="13.4638095"><ele>663.0</ele><time>2026-03-24T11:43:28.96Z</time></trkpt><trkpt lat="41.9681759" lon="13.4638946"><ele>663.0</ele><time>2026-03-24T11:43:29.96Z</time></trkpt><trkpt lat="41.9680783" lon="13.4639795"><ele>663.0</ele><time>2026-03-24T11:43:30.961Z</time></trkpt><trkpt lat="41.967975" lon="13.4640649"><ele>663.0</ele><time>2026-03-24T11:43:31.96Z</time></trkpt><trkpt lat="41.9678688" lon="13.4641472"><ele>663.0</ele><time>2026-03-24T11:43:32.96Z</time></trkpt><trkpt lat="41.9677601" lon="13.4642192"><ele>663.0</ele><time>2026-03-24T11:43:33.96Z</time></trkpt><trkpt lat="41.9676495" lon="13.4642856"><ele>663.0</ele><time>2026-03-24T11:43:34.96Z</time></trkpt><trkpt lat="41.9675369" lon="13.4643485"><ele>663.0</ele><time>2026-03-24T11:43:35.961Z</time></trkpt><trkpt lat="41.9674207" lon="13.4644122"><ele>663.0</ele><time>2026-03-24T11:43:36.96Z</time></trkpt><trkpt lat="41.9673007" lon="13.4644783"><ele>663.0</ele><time>2026-03-24T11:43:37.961Z</time></trkpt><trkpt lat="41.9671719" lon="13.4645428"><ele>662.5</ele><time>2026-03-24T11:43:38.961Z</time></trkpt><trkpt lat="41.9670421" lon="13.4646133"><ele>662.0</ele><time>2026-03-24T11:43:39.961Z</time></trkpt><trkpt lat="41.9669157" lon="13.4646821"><ele>661.5</ele><time>2026-03-24T11:43:40.961Z</time></trkpt><trkpt lat="41.9667932" lon="13.4647476"><ele>661.0</ele><time>2026-03-24T11:43:41.961Z</time></trkpt><trkpt lat="41.9666747" lon="13.4648145"><ele>662.0</ele><time>2026-03-24T11:43:42.961Z</time></trkpt><trkpt lat="41.966559" lon="13.464876"><ele>663.0</ele><time>2026-03-24T11:43:43.961Z</time></trkpt><trkpt lat="41.9664476" lon="13.4649443"><ele>664.0</ele><time>2026-03-24T11:43:44.96Z</time></trkpt><trkpt lat="41.9663453" lon="13.4650182"><ele>665.0</ele><time>2026-03-24T11:43:45.96Z</time></trkpt><trkpt lat="41.9662475" lon="13.4650974"><ele>665.0</ele><time>2026-03-24T11:43:46.961Z</time></trkpt><trkpt lat="41.9661555" lon="13.4651751"><ele>665.0</ele><time>2026-03-24T11:43:47.961Z</time></trkpt><trkpt lat="41.9660635" lon="13.4652556"><ele>665.0</ele><time>2026-03-24T11:43:48.961Z</time></trkpt><trkpt lat="41.9659718" lon="13.4653316"><ele>665.0</ele><time>2026-03-24T11:43:49.96Z</time></trkpt><trkpt lat="41.9658828" lon="13.4654066"><ele>665.0</ele><time>2026-03-24T11:43:50.961Z</time></trkpt><trkpt lat="41.9657916" lon="13.4654792"><ele>664.6666666666666</ele><time>2026-03-24T11:43:51.96Z</time></trkpt><trkpt lat="41.9657056" lon="13.4655507"><ele>664.3333333333333</ele><time>2026-03-24T11:43:52.96Z</time></trkpt><trkpt lat="41.9656209" lon="13.4656217"><ele>664.0</ele><time>2026-03-24T11:43:53.96Z</time></trkpt><trkpt lat="41.9655478" lon="13.4656767"><ele>663.6666666666666</ele><time>2026-03-24T11:43:54.96Z</time></trkpt><trkpt lat="41.965486" lon="13.4657313"><ele>663.3333333333334</ele><time>2026-03-24T11:43:55.96Z</time></trkpt><trkpt lat="41.9654295" lon="13.4657807"><ele>663.0</ele><time>2026-03-24T11:43:56.96Z</time></trkpt><trkpt lat="41.9653391" lon="13.4658489"><ele>663.0</ele><time>2026-03-24T11:43:58.961Z</time></trkpt><trkpt lat="41.9652703" lon="13.4659011"><ele>663.0</ele><time>2026-03-24T11:44:01.961Z</time></trkpt><trkpt lat="41.9651958" lon="13.4659647"><ele>663.0</ele><time>2026-03-24T11:44:06.96Z</time></trkpt><trkpt lat="41.9651142" lon="13.4660493"><ele>663.0</ele><time>2026-03-24T11:44:08.96Z</time></trkpt><trkpt lat="41.9650141" lon="13.466125"><ele>663.0</ele><time>2026-03-24T11:44:10.96Z</time></trkpt><trkpt lat="41.9649489" lon="13.4661718"><ele>663.0</ele><time>2026-03-24T11:44:11.96Z</time></trkpt><trkpt lat="41.9648759" lon="13.4662395"><ele>663.0</ele><time>2026-03-24T11:44:12.96Z</time></trkpt><trkpt lat="41.9647972" lon="13.4663059"><ele>663.0</ele><time>2026-03-24T11:44:13.961Z</time></trkpt><trkpt lat="41.9647134" lon="13.4663756"><ele>663.0</ele><time>2026-03-24T11:44:14.961Z</time></trkpt><trkpt lat="41.9646264" lon="13.4664475"><ele>663.0</ele><time>2026-03-24T11:44:15.96Z</time></trkpt><trkpt lat="41.9645424" lon="13.4665142"><ele>663.0</ele><time>2026-03-24T11:44:16.96Z</time></trkpt><trkpt lat="41.9644572" lon="13.4665865"><ele>663.0</ele><time>2026-03-24T11:44:17.961Z</time></trkpt><trkpt lat="41.9643769" lon="13.4666507"><ele>663.0</ele><time>2026-03-24T11:44:18.96Z</time></trkpt><trkpt lat="41.9642897" lon="13.4667171"><ele>663.0</ele><time>2026-03-24T11:44:19.96Z</time></trkpt><trkpt lat="41.9642244" lon="13.4667788"><ele>663.0</ele><time>2026-03-24T11:44:20.961Z</time></trkpt><trkpt lat="41.9641513" lon="13.4668426"><ele>663.1666666666666</ele><time>2026-03-24T11:44:21.96Z</time></trkpt><trkpt lat="41.9640856" lon="13.4668959"><ele>663.3333333333334</ele><time>2026-03-24T11:44:22.96Z</time></trkpt><trkpt lat="41.9640257" lon="13.4669444"><ele>663.5</ele><time>2026-03-24T11:44:23.96Z</time></trkpt><trkpt lat="41.9639697" lon="13.4669939"><ele>663.6666666666667</ele><time>2026-03-24T11:44:24.96Z</time></trkpt><trkpt lat="41.9638651" lon="13.4670791"><ele>663.8333333333334</ele><time>2026-03-24T11:44:26.96Z</time></trkpt><trkpt lat="41.9638099" lon="13.4671267"><ele>664.0</ele><time>2026-03-24T11:44:27.961Z</time></trkpt><trkpt lat="41.96375" lon="13.4671757"><ele>664.0</ele><time>2026-03-24T11:44:28.96Z</time></trkpt><trkpt lat="41.9636875" lon="13.4672256"><ele>664.0</ele><time>2026-03-24T11:44:29.961Z</time></trkpt><trkpt lat="41.9636233" lon="13.4672819"><ele>664.0</ele><time>2026-03-24T11:44:30.96Z</time></trkpt><trkpt lat="41.9635489" lon="13.4673418"><ele>664.0</ele><time>2026-03-24T11:44:31.96Z</time></trkpt><trkpt lat="41.9634748" lon="13.467401"><ele>664.0</ele><time>2026-03-24T11:44:32.96Z</time></trkpt><trkpt lat="41.9633966" lon="13.4674664"><ele>664.0</ele><time>2026-03-24T11:44:33.96Z</time></trkpt><trkpt lat="41.9633215" lon="13.4675301"><ele>664.1666666666667</ele><time>2026-03-24T11:44:34.96Z</time></trkpt><trkpt lat="41.9632472" lon="13.467589"><ele>664.3333333333334</ele><time>2026-03-24T11:44:35.96Z</time></trkpt><trkpt lat="41.9631738" lon="13.4676492"><ele>664.5</ele><time>2026-03-24T11:44:36.961Z</time></trkpt><trkpt lat="41.9630993" lon="13.4677033"><ele>664.6666666666666</ele><time>2026-03-24T11:44:37.961Z</time></trkpt><trkpt lat="41.9630244" lon="13.4677624"><ele>664.8333333333333</ele><time>2026-03-24T11:44:38.96Z</time></trkpt><trkpt lat="41.9629549" lon="13.4678143"><ele>665.0</ele><time>2026-03-24T11:44:39.961Z</time></trkpt><trkpt lat="41.9628825" lon="13.4678754"><ele>665.0</ele><time>2026-03-24T11:44:40.96Z</time></trkpt><trkpt lat="41.9628135" lon="13.4679347"><ele>665.0</ele><time>2026-03-24T11:44:41.96Z</time></trkpt><trkpt lat="41.9627431" lon="13.4679979"><ele>665.0</ele><time>2026-03-24T11:44:42.96Z</time></trkpt><trkpt lat="41.9626673" lon="13.4680575"><ele>665.0</ele><time>2026-03-24T11:44:43.96Z</time></trkpt><trkpt lat="41.9625824" lon="13.4681289"><ele>665.0</ele><time>2026-03-24T11:44:44.96Z</time></trkpt><trkpt lat="41.9624904" lon="13.4682015"><ele>665.2</ele><time>2026-03-24T11:44:45.96Z</time></trkpt><trkpt lat="41.9623996" lon="13.468275"><ele>665.4</ele><time>2026-03-24T11:44:46.96Z</time></trkpt><trkpt lat="41.9623075" lon="13.4683513"><ele>665.5999999999999</ele><time>2026-03-24T11:44:47.96Z</time></trkpt><trkpt lat="41.9622171" lon="13.468426"><ele>665.8</ele><time>2026-03-24T11:44:48.961Z</time></trkpt><trkpt lat="41.9621373" lon="13.4684939"><ele>666.0</ele><time>2026-03-24T11:44:49.961Z</time></trkpt><trkpt lat="41.9620636" lon="13.4685616"><ele>666.0</ele><time>2026-03-24T11:44:50.961Z</time></trkpt><trkpt lat="41.9619937" lon="13.4686161"><ele>666.0</ele><time>2026-03-24T11:44:51.961Z</time></trkpt><trkpt lat="41.9619224" lon="13.4686704"><ele>666.0</ele><time>2026-03-24T11:44:52.961Z</time></trkpt><trkpt lat="41.96185" lon="13.4687271"><ele>666.0</ele><time>2026-03-24T11:44:53.96Z</time></trkpt><trkpt lat="41.9617761" lon="13.4687887"><ele>666.0</ele><time>2026-03-24T11:44:54.96Z</time></trkpt><trkpt lat="41.9616984" lon="13.4688552"><ele>666.0</ele><time>2026-03-24T11:44:55.96Z</time></trkpt><trkpt lat="41.96162" lon="13.4689187"><ele>665.6666666666666</ele><time>2026-03-24T11:44:56.96Z</time></trkpt><trkpt lat="41.9615458" lon="13.4689885"><ele>665.3333333333334</ele><time>2026-03-24T11:44:57.961Z</time></trkpt><trkpt lat="41.9614728" lon="13.4690541"><ele>665.0</ele><time>2026-03-24T11:44:58.96Z</time></trkpt><trkpt lat="41.9614061" lon="13.4691078"><ele>664.6666666666667</ele><time>2026-03-24T11:44:59.961Z</time></trkpt><trkpt lat="41.9613257" lon="13.4691704"><ele>664.3333333333334</ele><time>2026-03-24T11:45:00.96Z</time></trkpt><trkpt lat="41.9612485" lon="13.4692253"><ele>664.0</ele><time>2026-03-24T11:45:01.961Z</time></trkpt><trkpt lat="41.9611763" lon="13.4692864"><ele>664.0</ele><time>2026-03-24T11:45:02.96Z</time></trkpt><trkpt lat="41.9611017" lon="13.4693472"><ele>664.0</ele><time>2026-03-24T11:45:03.96Z</time></trkpt><trkpt lat="41.9610303" lon="13.4694016"><ele>664.0</ele><time>2026-03-24T11:45:04.96Z</time></trkpt><trkpt lat="41.9609645" lon="13.469455"><ele>664.0</ele><time>2026-03-24T11:45:05.96Z</time></trkpt><trkpt lat="41.9608874" lon="13.469521"><ele>664.0</ele><time>2026-03-24T11:45:06.96Z</time></trkpt><trkpt lat="41.9608049" lon="13.4695825"><ele>664.0</ele><time>2026-03-24T11:45:07.96Z</time></trkpt><trkpt lat="41.9607196" lon="13.4696484"><ele>664.6</ele><time>2026-03-24T11:45:08.96Z</time></trkpt><trkpt lat="41.9606345" lon="13.4697166"><ele>665.2</ele><time>2026-03-24T11:45:09.96Z</time></trkpt><trkpt lat="41.9605446" lon="13.4697881"><ele>665.8000000000001</ele><time>2026-03-24T11:45:10.961Z</time></trkpt><trkpt lat="41.9604493" lon="13.4698613"><ele>666.4000000000001</ele><time>2026-03-24T11:45:11.96Z</time></trkpt><trkpt lat="41.9603574" lon="13.4699404"><ele>667.0</ele><time>2026-03-24T11:45:12.96Z</time></trkpt><trkpt lat="41.96027" lon="13.4700181"><ele>667.0</ele><time>2026-03-24T11:45:13.961Z</time></trkpt><trkpt lat="41.9601864" lon="13.4700895"><ele>667.0</ele><time>2026-03-24T11:45:14.96Z</time></trkpt><trkpt lat="41.9601104" lon="13.4701551"><ele>667.0</ele><time>2026-03-24T11:45:15.96Z</time></trkpt><trkpt lat="41.960044" lon="13.4702144"><ele>667.0</ele><time>2026-03-24T11:45:16.961Z</time></trkpt><trkpt lat="41.9599765" lon="13.4702717"><ele>667.0</ele><time>2026-03-24T11:45:17.961Z</time></trkpt><trkpt lat="41.9599089" lon="13.4703296"><ele>667.0</ele><time>2026-03-24T11:45:18.96Z</time></trkpt><trkpt lat="41.9598367" lon="13.4703871"><ele>666.6666666666667</ele><time>2026-03-24T11:45:19.96Z</time></trkpt><trkpt lat="41.9597588" lon="13.4704458"><ele>666.3333333333334</ele><time>2026-03-24T11:45:20.961Z</time></trkpt><trkpt lat="41.9596877" lon="13.4705091"><ele>666.0</ele><time>2026-03-24T11:45:21.961Z</time></trkpt><trkpt lat="41.9596163" lon="13.4705749"><ele>665.6666666666666</ele><time>2026-03-24T11:45:22.961Z</time></trkpt><trkpt lat="41.9595425" lon="13.4706392"><ele>665.3333333333333</ele><time>2026-03-24T11:45:23.96Z</time></trkpt><trkpt lat="41.9594642" lon="13.4706976"><ele>665.0</ele><time>2026-03-24T11:45:24.96Z</time></trkpt><trkpt lat="41.9593887" lon="13.4707582"><ele>665.0</ele><time>2026-03-24T11:45:25.96Z</time></trkpt><trkpt lat="41.9593117" lon="13.4708171"><ele>665.0</ele><time>2026-03-24T11:45:26.96Z</time></trkpt><trkpt lat="41.9592325" lon="13.4708819"><ele>665.0</ele><time>2026-03-24T11:45:27.96Z</time></trkpt><trkpt lat="41.9591523" lon="13.4709487"><ele>665.0</ele><time>2026-03-24T11:45:28.961Z</time></trkpt><trkpt lat="41.9590666" lon="13.4710243"><ele>665.0</ele><time>2026-03-24T11:45:29.96Z</time></trkpt><trkpt lat="41.958977" lon="13.4710941"><ele>665.0</ele><time>2026-03-24T11:45:30.96Z</time></trkpt><trkpt lat="41.9588855" lon="13.4711692"><ele>665.0</ele><time>2026-03-24T11:45:31.961Z</time></trkpt><trkpt lat="41.9587976" lon="13.4712354"><ele>665.0</ele><time>2026-03-24T11:45:32.96Z</time></trkpt><trkpt lat="41.9587091" lon="13.4713089"><ele>665.0</ele><time>2026-03-24T11:45:33.96Z</time></trkpt><trkpt lat="41.9586238" lon="13.4713734"><ele>665.0</ele><time>2026-03-24T11:45:34.961Z</time></trkpt><trkpt lat="41.9585394" lon="13.4714465"><ele>665.0</ele><time>2026-03-24T11:45:35.96Z</time></trkpt><trkpt lat="41.9584535" lon="13.4715163"><ele>665.0</ele><time>2026-03-24T11:45:36.96Z</time></trkpt><trkpt lat="41.9583691" lon="13.4715852"><ele>665.0</ele><time>2026-03-24T11:45:37.96Z</time></trkpt><trkpt lat="41.9582849" lon="13.4716553"><ele>665.0</ele><time>2026-03-24T11:45:38.96Z</time></trkpt><trkpt lat="41.9582029" lon="13.4717183"><ele>665.0</ele><time>2026-03-24T11:45:39.96Z</time></trkpt><trkpt lat="41.9581196" lon="13.4717835"><ele>665.0</ele><time>2026-03-24T11:45:40.96Z</time></trkpt><trkpt lat="41.9580286" lon="13.4718528"><ele>665.0</ele><time>2026-03-24T11:45:41.961Z</time></trkpt><trkpt lat="41.9579305" lon="13.4719304"><ele>665.0</ele><time>2026-03-24T11:45:42.96Z</time></trkpt><trkpt lat="41.9578316" lon="13.4720114"><ele>665.0</ele><time>2026-03-24T11:45:43.96Z</time></trkpt><trkpt lat="41.9577364" lon="13.4720913"><ele>665.0</ele><time>2026-03-24T11:45:44.96Z</time></trkpt><trkpt lat="41.9576445" lon="13.4721669"><ele>665.0</ele><time>2026-03-24T11:45:45.961Z</time></trkpt><trkpt lat="41.9575673" lon="13.472231"><ele>665.0</ele><time>2026-03-24T11:45:46.96Z</time></trkpt><trkpt lat="41.9574992" lon="13.4722914"><ele>665.0</ele><time>2026-03-24T11:45:47.96Z</time></trkpt><trkpt lat="41.9574371" lon="13.472342"><ele>665.0</ele><time>2026-03-24T11:45:48.961Z</time></trkpt><trkpt lat="41.9573737" lon="13.4723906"><ele>665.0</ele><time>2026-03-24T11:45:49.96Z</time></trkpt><trkpt lat="41.9573053" lon="13.4724419"><ele>665.0</ele><time>2026-03-24T11:45:50.961Z</time></trkpt><trkpt lat="41.9572305" lon="13.4725035"><ele>665.4</ele><time>2026-03-24T11:45:51.96Z</time></trkpt><trkpt lat="41.9571473" lon="13.4725777"><ele>665.8</ele><time>2026-03-24T11:45:52.96Z</time></trkpt><trkpt lat="41.9570543" lon="13.4726471"><ele>666.2</ele><time>2026-03-24T11:45:53.96Z</time></trkpt><trkpt lat="41.9569701" lon="13.4727257"><ele>666.6</ele><time>2026-03-24T11:45:54.961Z</time></trkpt><trkpt lat="41.9568853" lon="13.4727996"><ele>667.0</ele><time>2026-03-24T11:45:55.96Z</time></trkpt><trkpt lat="41.9568027" lon="13.4728613"><ele>667.0</ele><time>2026-03-24T11:45:56.961Z</time></trkpt><trkpt lat="41.9567251" lon="13.472928"><ele>667.0</ele><time>2026-03-24T11:45:57.96Z</time></trkpt><trkpt lat="41.9566435" lon="13.4729912"><ele>667.0</ele><time>2026-03-24T11:45:58.96Z</time></trkpt><trkpt lat="41.9565644" lon="13.4730525"><ele>667.0</ele><time>2026-03-24T11:45:59.961Z</time></trkpt><trkpt lat="41.9564951" lon="13.4731074"><ele>667.0</ele><time>2026-03-24T11:46:00.96Z</time></trkpt><trkpt lat="41.9564376" lon="13.4731604"><ele>667.0</ele><time>2026-03-24T11:46:01.96Z</time></trkpt><trkpt lat="41.9563813" lon="13.4732071"><ele>666.8</ele><time>2026-03-24T11:46:02.96Z</time></trkpt><trkpt lat="41.956325" lon="13.4732535"><ele>666.6</ele><time>2026-03-24T11:46:03.96Z</time></trkpt><trkpt lat="41.956255" lon="13.4733044"><ele>666.4</ele><time>2026-03-24T11:46:04.961Z</time></trkpt><trkpt lat="41.9561672" lon="13.473368"><ele>666.1999999999999</ele><time>2026-03-24T11:46:05.961Z</time></trkpt><trkpt lat="41.9560703" lon="13.4734348"><ele>666.0</ele><time>2026-03-24T11:46:06.961Z</time></trkpt><trkpt lat="41.9559711" lon="13.4735119"><ele>666.0</ele><time>2026-03-24T11:46:07.96Z</time></trkpt><trkpt lat="41.9558702" lon="13.4735966"><ele>666.0</ele><time>2026-03-24T11:46:08.961Z</time></trkpt><trkpt lat="41.9557721" lon="13.4736874"><ele>666.0</ele><time>2026-03-24T11:46:09.96Z</time></trkpt><trkpt lat="41.9556667" lon="13.4737797"><ele>666.0</ele><time>2026-03-24T11:46:10.96Z</time></trkpt><trkpt lat="41.9555564" lon="13.4738827"><ele>666.0</ele><time>2026-03-24T11:46:11.961Z</time></trkpt><trkpt lat="41.9554463" lon="13.4739932"><ele>666.0</ele><time>2026-03-24T11:46:12.96Z</time></trkpt><trkpt lat="41.9553345" lon="13.4741087"><ele>666.0</ele><time>2026-03-24T11:46:13.961Z</time></trkpt><trkpt lat="41.9552232" lon="13.4742259"><ele>666.0</ele><time>2026-03-24T11:46:14.961Z</time></trkpt><trkpt lat="41.9551101" lon="13.4743481"><ele>666.0</ele><time>2026-03-24T11:46:15.96Z</time></trkpt><trkpt lat="41.954994" lon="13.4744787"><ele>666.0</ele><time>2026-03-24T11:46:16.96Z</time></trkpt><trkpt lat="41.9548715" lon="13.4746124"><ele>666.0</ele><time>2026-03-24T11:46:17.961Z</time></trkpt><trkpt lat="41.9547466" lon="13.4747514"><ele>666.0</ele><time>2026-03-24T11:46:18.96Z</time></trkpt><trkpt lat="41.9546274" lon="13.4748973"><ele>666.0</ele><time>2026-03-24T11:46:19.961Z</time></trkpt><trkpt lat="41.9545087" lon="13.4750323"><ele>666.0</ele><time>2026-03-24T11:46:20.961Z</time></trkpt><trkpt lat="41.9544023" lon="13.4751573"><ele>666.0</ele><time>2026-03-24T11:46:21.961Z</time></trkpt><trkpt lat="41.9542997" lon="13.4752816"><ele>666.0</ele><time>2026-03-24T11:46:22.961Z</time></trkpt><trkpt lat="41.9542081" lon="13.4753925"><ele>666.0</ele><time>2026-03-24T11:46:23.96Z</time></trkpt><trkpt lat="41.9541158" lon="13.4755118"><ele>666.0</ele><time>2026-03-24T11:46:24.96Z</time></trkpt><trkpt lat="41.9540227" lon="13.4756379"><ele>666.0</ele><time>2026-03-24T11:46:25.96Z</time></trkpt><trkpt lat="41.9539308" lon="13.4757666"><ele>666.0</ele><time>2026-03-24T11:46:26.96Z</time></trkpt><trkpt lat="41.953837" lon="13.475898"><ele>666.0</ele><time>2026-03-24T11:46:27.96Z</time></trkpt><trkpt lat="41.9537486" lon="13.4760139"><ele>666.0</ele><time>2026-03-24T11:46:28.961Z</time></trkpt><trkpt lat="41.9536673" lon="13.4761202"><ele>666.0</ele><time>2026-03-24T11:46:29.96Z</time></trkpt><trkpt lat="41.9535933" lon="13.4762166"><ele>666.0</ele><time>2026-03-24T11:46:30.961Z</time></trkpt><trkpt lat="41.9535255" lon="13.4763053"><ele>666.0</ele><time>2026-03-24T11:46:31.96Z</time></trkpt><trkpt lat="41.9534561" lon="13.4763882"><ele>666.0</ele><time>2026-03-24T11:46:32.961Z</time></trkpt><trkpt lat="41.9534002" lon="13.4764578"><ele>666.0</ele><time>2026-03-24T11:46:33.961Z</time></trkpt><trkpt lat="41.953339" lon="13.4765341"><ele>666.0</ele><time>2026-03-24T11:46:35.96Z</time></trkpt><trkpt lat="41.9533328" lon="13.4766188"><ele>666.0</ele><time>2026-03-24T11:46:39.96Z</time></trkpt><trkpt lat="41.9533852" lon="13.4767005"><ele>666.0</ele><time>2026-03-24T11:46:41.96Z</time></trkpt><trkpt lat="41.9534717" lon="13.4767989"><ele>666.0</ele><time>2026-03-24T11:46:43.961Z</time></trkpt><trkpt lat="41.9535684" lon="13.476907"><ele>666.0</ele><time>2026-03-24T11:46:45.96Z</time></trkpt><trkpt lat="41.9536184" lon="13.476971"><ele>665.8</ele><time>2026-03-24T11:46:46.96Z</time></trkpt><trkpt lat="41.95367" lon="13.4770387"><ele>665.5999999999999</ele><time>2026-03-24T11:46:47.96Z</time></trkpt><trkpt lat="41.9537434" lon="13.4771261"><ele>665.4</ele><time>2026-03-24T11:46:49.96Z</time></trkpt><trkpt lat="41.9537034" lon="13.4770117"><ele>665.2</ele><time>2026-03-24T11:46:55.96Z</time></trkpt><trkpt lat="41.9535913" lon="13.4768998"><ele>665.0</ele><time>2026-03-24T11:46:57.96Z</time></trkpt><trkpt lat="41.9535225" lon="13.4768237"><ele>664.8</ele><time>2026-03-24T11:46:58.961Z</time></trkpt><trkpt lat="41.95345" lon="13.4767465"><ele>664.6</ele><time>2026-03-24T11:46:59.96Z</time></trkpt><trkpt lat="41.9533721" lon="13.4766671"><ele>664.4000000000001</ele><time>2026-03-24T11:47:00.96Z</time></trkpt><trkpt lat="41.9532921" lon="13.4765833"><ele>664.2</ele><time>2026-03-24T11:47:01.96Z</time></trkpt><trkpt lat="41.9532098" lon="13.4765003"><ele>664.0</ele><time>2026-03-24T11:47:02.96Z</time></trkpt><trkpt lat="41.9531321" lon="13.4764072"><ele>664.3333333333334</ele><time>2026-03-24T11:47:03.96Z</time></trkpt><trkpt lat="41.9530776" lon="13.4763563"><ele>664.6666666666667</ele><time>2026-03-24T11:47:04.96Z</time></trkpt><trkpt lat="41.9530099" lon="13.4762954"><ele>665.0</ele><time>2026-03-24T11:47:08.961Z</time></trkpt><trkpt lat="41.9529415" lon="13.4763654"><ele>665.3333333333334</ele><time>2026-03-24T11:47:10.961Z</time></trkpt><trkpt lat="41.9528907" lon="13.476432"><ele>665.6666666666666</ele><time>2026-03-24T11:47:11.96Z</time></trkpt><trkpt lat="41.9528406" lon="13.4764981"><ele>666.0</ele><time>2026-03-24T11:47:12.96Z</time></trkpt><trkpt lat="41.9527842" lon="13.4765754"><ele>666.0</ele><time>2026-03-24T11:47:13.96Z</time></trkpt><trkpt lat="41.9527189" lon="13.4766563"><ele>666.0</ele><time>2026-03-24T11:47:14.96Z</time></trkpt><trkpt lat="41.9526493" lon="13.4767385"><ele>666.0</ele><time>2026-03-24T11:47:15.961Z</time></trkpt><trkpt lat="41.9525823" lon="13.4768379"><ele>666.0</ele><time>2026-03-24T11:47:16.961Z</time></trkpt><trkpt lat="41.9525111" lon="13.4769385"><ele>666.0</ele><time>2026-03-24T11:47:17.96Z</time></trkpt><trkpt lat="41.9524312" lon="13.4770367"><ele>666.25</ele><time>2026-03-24T11:47:18.96Z</time></trkpt><trkpt lat="41.9523507" lon="13.4771478"><ele>666.5</ele><time>2026-03-24T11:47:19.96Z</time></trkpt><trkpt lat="41.9522699" lon="13.4772667"><ele>666.75</ele><time>2026-03-24T11:47:20.96Z</time></trkpt><trkpt lat="41.9521789" lon="13.4773784"><ele>667.0</ele><time>2026-03-24T11:47:21.961Z</time></trkpt><trkpt lat="41.9520939" lon="13.4775056"><ele>667.0</ele><time>2026-03-24T11:47:22.96Z</time></trkpt><trkpt lat="41.9520135" lon="13.4776313"><ele>667.0</ele><time>2026-03-24T11:47:23.96Z</time></trkpt><trkpt lat="41.9519237" lon="13.4777688"><ele>667.0</ele><time>2026-03-24T11:47:24.961Z</time></trkpt><trkpt lat="41.9518295" lon="13.4778932"><ele>667.0</ele><time>2026-03-24T11:47:25.96Z</time></trkpt><trkpt lat="41.9517518" lon="13.4780384"><ele>667.2</ele><time>2026-03-24T11:47:26.96Z</time></trkpt><trkpt lat="41.9516731" lon="13.4781671"><ele>667.4000000000001</ele><time>2026-03-24T11:47:27.96Z</time></trkpt><trkpt lat="41.9516045" lon="13.4782844"><ele>667.5999999999999</ele><time>2026-03-24T11:47:28.96Z</time></trkpt><trkpt lat="41.9515464" lon="13.4783956"><ele>667.8</ele><time>2026-03-24T11:47:29.961Z</time></trkpt><trkpt lat="41.9514865" lon="13.4785062"><ele>668.0</ele><time>2026-03-24T11:47:30.96Z</time></trkpt><trkpt lat="41.9514296" lon="13.4786137"><ele>668.0</ele><time>2026-03-24T11:47:31.961Z</time></trkpt><trkpt lat="41.9513855" lon="13.4787108"><ele>668.0</ele><time>2026-03-24T11:47:32.961Z</time></trkpt><trkpt lat="41.9513379" lon="13.4788045"><ele>668.0</ele><time>2026-03-24T11:47:33.96Z</time></trkpt><trkpt lat="41.9512826" lon="13.4789044"><ele>668.0</ele><time>2026-03-24T11:47:34.96Z</time></trkpt><trkpt lat="41.9512244" lon="13.4790004"><ele>668.0</ele><time>2026-03-24T11:47:35.96Z</time></trkpt><trkpt lat="41.9511526" lon="13.4791193"><ele>667.75</ele><time>2026-03-24T11:47:36.961Z</time></trkpt><trkpt lat="41.951076" lon="13.4792554"><ele>667.5</ele><time>2026-03-24T11:47:37.96Z</time></trkpt><trkpt lat="41.9509986" lon="13.4794038"><ele>667.25</ele><time>2026-03-24T11:47:38.961Z</time></trkpt><trkpt lat="41.9509233" lon="13.4795589"><ele>667.0</ele><time>2026-03-24T11:47:39.961Z</time></trkpt><trkpt lat="41.9508472" lon="13.4797123"><ele>666.75</ele><time>2026-03-24T11:47:40.96Z</time></trkpt><trkpt lat="41.9507745" lon="13.4798605"><ele>666.5</ele><time>2026-03-24T11:47:41.961Z</time></trkpt><trkpt lat="41.9507044" lon="13.4800153"><ele>666.25</ele><time>2026-03-24T11:47:42.96Z</time></trkpt><trkpt lat="41.9506404" lon="13.4801571"><ele>666.0</ele><time>2026-03-24T11:47:43.961Z</time></trkpt><trkpt lat="41.9505778" lon="13.4802944"><ele>666.0</ele><time>2026-03-24T11:47:44.96Z</time></trkpt><trkpt lat="41.9505067" lon="13.4804222"><ele>666.0</ele><time>2026-03-24T11:47:45.96Z</time></trkpt><trkpt lat="41.9504263" lon="13.4805512"><ele>666.0</ele><time>2026-03-24T11:47:46.96Z</time></trkpt><trkpt lat="41.9503464" lon="13.4806805"><ele>666.0</ele><time>2026-03-24T11:47:47.96Z</time></trkpt><trkpt lat="41.9502626" lon="13.4808085"><ele>666.25</ele><time>2026-03-24T11:47:48.961Z</time></trkpt><trkpt lat="41.9501774" lon="13.4809403"><ele>666.5</ele><time>2026-03-24T11:47:49.961Z</time></trkpt><trkpt lat="41.9500958" lon="13.4810742"><ele>666.75</ele><time>2026-03-24T11:47:50.96Z</time></trkpt><trkpt lat="41.9500164" lon="13.481197"><ele>667.0</ele><time>2026-03-24T11:47:51.96Z</time></trkpt><trkpt lat="41.949938" lon="13.4813294"><ele>667.25</ele><time>2026-03-24T11:47:52.96Z</time></trkpt><trkpt lat="41.9498627" lon="13.4814635"><ele>667.5</ele><time>2026-03-24T11:47:53.96Z</time></trkpt><trkpt lat="41.9497803" lon="13.4815968"><ele>667.75</ele><time>2026-03-24T11:47:54.961Z</time></trkpt><trkpt lat="41.9497047" lon="13.4817231"><ele>668.0</ele><time>2026-03-24T11:47:55.96Z</time></trkpt><trkpt lat="41.949632" lon="13.481831"><ele>668.0</ele><time>2026-03-24T11:47:56.96Z</time></trkpt><trkpt lat="41.9495435" lon="13.4819145"><ele>668.0</ele><time>2026-03-24T11:47:57.96Z</time></trkpt><trkpt lat="41.9494487" lon="13.4819847"><ele>668.0</ele><time>2026-03-24T11:47:58.96Z</time></trkpt><trkpt lat="41.9493429" lon="13.4820624"><ele>668.0</ele><time>2026-03-24T11:47:59.96Z</time></trkpt><trkpt lat="41.9492268" lon="13.4821621"><ele>668.5</ele><time>2026-03-24T11:48:00.96Z</time></trkpt><trkpt lat="41.9491126" lon="13.4822795"><ele>669.0</ele><time>2026-03-24T11:48:01.96Z</time></trkpt><trkpt lat="41.949002" lon="13.4824139"><ele>669.5</ele><time>2026-03-24T11:48:02.96Z</time></trkpt><trkpt lat="41.9489005" lon="13.4825701"><ele>670.0</ele><time>2026-03-24T11:48:03.96Z</time></trkpt><trkpt lat="41.9488036" lon="13.4827425"><ele>670.0</ele><time>2026-03-24T11:48:04.961Z</time></trkpt><trkpt lat="41.9487057" lon="13.4829219"><ele>670.0</ele><time>2026-03-24T11:48:05.96Z</time></trkpt><trkpt lat="41.9486074" lon="13.4831003"><ele>670.0</ele><time>2026-03-24T11:48:06.96Z</time></trkpt><trkpt lat="41.9485073" lon="13.4832747"><ele>669.5</ele><time>2026-03-24T11:48:07.961Z</time></trkpt><trkpt lat="41.9484129" lon="13.4834413"><ele>669.0</ele><time>2026-03-24T11:48:08.96Z</time></trkpt><trkpt lat="41.9483379" lon="13.4835927"><ele>668.5</ele><time>2026-03-24T11:48:09.96Z</time></trkpt><trkpt lat="41.9482798" lon="13.483724"><ele>668.0</ele><time>2026-03-24T11:48:10.96Z</time></trkpt><trkpt lat="41.9482216" lon="13.4838332"><ele>669.0</ele><time>2026-03-24T11:48:11.96Z</time></trkpt><trkpt lat="41.9481624" lon="13.4839363"><ele>670.0</ele><time>2026-03-24T11:48:12.961Z</time></trkpt><trkpt lat="41.9480843" lon="13.4840444"><ele>671.0</ele><time>2026-03-24T11:48:13.96Z</time></trkpt><trkpt lat="41.9479912" lon="13.4841564"><ele>672.0</ele><time>2026-03-24T11:48:14.961Z</time></trkpt><trkpt lat="41.9478882" lon="13.4842779"><ele>672.0</ele><time>2026-03-24T11:48:15.96Z</time></trkpt><trkpt lat="41.9477842" lon="13.4844089"><ele>672.0</ele><time>2026-03-24T11:48:16.961Z</time></trkpt><trkpt lat="41.9476689" lon="13.4845439"><ele>672.0</ele><time>2026-03-24T11:48:17.96Z</time></trkpt><trkpt lat="41.9475489" lon="13.484678"><ele>673.6666666666666</ele><time>2026-03-24T11:48:18.96Z</time></trkpt><trkpt lat="41.9474315" lon="13.4848119"><ele>675.3333333333333</ele><time>2026-03-24T11:48:19.961Z</time></trkpt><trkpt lat="41.9473122" lon="13.4849464"><ele>677.0</ele><time>2026-03-24T11:48:20.96Z</time></trkpt><trkpt lat="41.9471992" lon="13.4850801"><ele>677.0</ele><time>2026-03-24T11:48:21.961Z</time></trkpt><trkpt lat="41.9470944" lon="13.4852083"><ele>677.0</ele><time>2026-03-24T11:48:22.96Z</time></trkpt><trkpt lat="41.9469908" lon="13.4853375"><ele>677.0</ele><time>2026-03-24T11:48:23.96Z</time></trkpt><trkpt lat="41.9468908" lon="13.4854592"><ele>677.0</ele><time>2026-03-24T11:48:24.961Z</time></trkpt><trkpt lat="41.9467896" lon="13.485584"><ele>676.5</ele><time>2026-03-24T11:48:25.961Z</time></trkpt><trkpt lat="41.9466856" lon="13.4857018"><ele>676.0</ele><time>2026-03-24T11:48:26.96Z</time></trkpt><trkpt lat="41.9465814" lon="13.4858224"><ele>675.5</ele><time>2026-03-24T11:48:27.96Z</time></trkpt><trkpt lat="41.9464727" lon="13.485947"><ele>675.0</ele><time>2026-03-24T11:48:28.96Z</time></trkpt><trkpt lat="41.9463618" lon="13.4860696"><ele>675.0</ele><time>2026-03-24T11:48:29.961Z</time></trkpt><trkpt lat="41.9462455" lon="13.4861973"><ele>675.0</ele><time>2026-03-24T11:48:30.96Z</time></trkpt><trkpt lat="41.946124" lon="13.4863392"><ele>675.0</ele><time>2026-03-24T11:48:31.961Z</time></trkpt><trkpt lat="41.9459992" lon="13.4864796"><ele>676.0</ele><time>2026-03-24T11:48:32.961Z</time></trkpt><trkpt lat="41.9458743" lon="13.4866194"><ele>677.0</ele><time>2026-03-24T11:48:33.96Z</time></trkpt><trkpt lat="41.9457454" lon="13.4867571"><ele>678.0</ele><time>2026-03-24T11:48:34.96Z</time></trkpt><trkpt lat="41.9456315" lon="13.4868978"><ele>678.0</ele><time>2026-03-24T11:48:35.96Z</time></trkpt><trkpt lat="41.9455178" lon="13.487046"><ele>678.0</ele><time>2026-03-24T11:48:36.96Z</time></trkpt><trkpt lat="41.9454013" lon="13.4871894"><ele>678.0</ele><time>2026-03-24T11:48:37.96Z</time></trkpt><trkpt lat="41.9452855" lon="13.4873351"><ele>678.3333333333334</ele><time>2026-03-24T11:48:38.961Z</time></trkpt><trkpt lat="41.9451672" lon="13.487472"><ele>678.6666666666667</ele><time>2026-03-24T11:48:39.96Z</time></trkpt><trkpt lat="41.9450456" lon="13.4876039"><ele>679.0</ele><time>2026-03-24T11:48:40.96Z</time></trkpt><trkpt lat="41.9449228" lon="13.4877281"><ele>679.0</ele><time>2026-03-24T11:48:41.96Z</time></trkpt><trkpt lat="41.944799" lon="13.4878455"><ele>679.0</ele><time>2026-03-24T11:48:42.961Z</time></trkpt><trkpt lat="41.9446775" lon="13.4879531"><ele>679.0</ele><time>2026-03-24T11:48:43.961Z</time></trkpt><trkpt lat="41.9445578" lon="13.488059"><ele>679.0</ele><time>2026-03-24T11:48:44.96Z</time></trkpt><trkpt lat="41.9444383" lon="13.4881627"><ele>678.75</ele><time>2026-03-24T11:48:45.961Z</time></trkpt><trkpt lat="41.9443195" lon="13.4882607"><ele>678.5</ele><time>2026-03-24T11:48:46.96Z</time></trkpt><trkpt lat="41.9442108" lon="13.4883487"><ele>678.25</ele><time>2026-03-24T11:48:47.961Z</time></trkpt><trkpt lat="41.9441031" lon="13.4884356"><ele>678.0</ele><time>2026-03-24T11:48:48.961Z</time></trkpt><trkpt lat="41.944009" lon="13.488502"><ele>678.25</ele><time>2026-03-24T11:48:49.96Z</time></trkpt><trkpt lat="41.9439052" lon="13.4885742"><ele>678.5</ele><time>2026-03-24T11:48:50.961Z</time></trkpt><trkpt lat="41.9437945" lon="13.4886587"><ele>678.75</ele><time>2026-03-24T11:48:51.96Z</time></trkpt><trkpt lat="41.9436801" lon="13.4887431"><ele>679.0</ele><time>2026-03-24T11:48:52.96Z</time></trkpt><trkpt lat="41.9435696" lon="13.4888313"><ele>679.0</ele><time>2026-03-24T11:48:53.96Z</time></trkpt><trkpt lat="41.9434518" lon="13.4889291"><ele>679.0</ele><time>2026-03-24T11:48:54.96Z</time></trkpt><trkpt lat="41.9433407" lon="13.4890343"><ele>679.0</ele><time>2026-03-24T11:48:55.96Z</time></trkpt><trkpt lat="41.9432295" lon="13.4891511"><ele>679.0</ele><time>2026-03-24T11:48:56.96Z</time></trkpt><trkpt lat="41.9431159" lon="13.4892752"><ele>679.5</ele><time>2026-03-24T11:48:57.96Z</time></trkpt><trkpt lat="41.9430043" lon="13.4893933"><ele>680.0</ele><time>2026-03-24T11:48:58.96Z</time></trkpt><trkpt lat="41.9428965" lon="13.4895048"><ele>680.5</ele><time>2026-03-24T11:48:59.961Z</time></trkpt><trkpt lat="41.9428107" lon="13.4895885"><ele>681.0</ele><time>2026-03-24T11:49:00.96Z</time></trkpt><trkpt lat="41.9427455" lon="13.4896402"><ele>681.0</ele><time>2026-03-24T11:49:01.961Z</time></trkpt><trkpt lat="41.9426712" lon="13.4896948"><ele>681.0</ele><time>2026-03-24T11:49:03.96Z</time></trkpt><trkpt lat="41.9426106" lon="13.4897522"><ele>681.0</ele><time>2026-03-24T11:52:13.96Z</time></trkpt><trkpt lat="41.9425562" lon="13.4898033"><ele>681.0</ele><time>2026-03-24T11:52:14.96Z</time></trkpt><trkpt lat="41.942494" lon="13.4898655"><ele>681.0</ele><time>2026-03-24T11:52:15.96Z</time></trkpt><trkpt lat="41.9424176" lon="13.4899391"><ele>681.0</ele><time>2026-03-24T11:52:16.961Z</time></trkpt><trkpt lat="41.9423336" lon="13.4900202"><ele>681.5</ele><time>2026-03-24T11:52:17.96Z</time></trkpt><trkpt lat="41.9422457" lon="13.4901092"><ele>682.0</ele><time>2026-03-24T11:52:18.96Z</time></trkpt><trkpt lat="41.9421625" lon="13.4902156"><ele>682.5</ele><time>2026-03-24T11:52:19.96Z</time></trkpt><trkpt lat="41.9420779" lon="13.4903332"><ele>683.0</ele><time>2026-03-24T11:52:20.961Z</time></trkpt><trkpt lat="41.9420002" lon="13.4904428"><ele>683.0</ele><time>2026-03-24T11:52:21.96Z</time></trkpt><trkpt lat="41.9419261" lon="13.490534"><ele>683.0</ele><time>2026-03-24T11:52:22.96Z</time></trkpt><trkpt lat="41.9418745" lon="13.4906074"><ele>683.0</ele><time>2026-03-24T11:52:23.96Z</time></trkpt><trkpt lat="41.9418071" lon="13.4907128"><ele>683.0</ele><time>2026-03-24T11:52:25.96Z</time></trkpt><trkpt lat="41.9417798" lon="13.4907911"><ele>683.0</ele><time>2026-03-24T11:52:26.961Z</time></trkpt><trkpt lat="41.9417537" lon="13.4908902"><ele>683.0</ele><time>2026-03-24T11:52:27.96Z</time></trkpt><trkpt lat="41.9417309" lon="13.4910039"><ele>683.4</ele><time>2026-03-24T11:52:28.96Z</time></trkpt><trkpt lat="41.9417032" lon="13.4911324"><ele>683.8</ele><time>2026-03-24T11:52:29.961Z</time></trkpt><trkpt lat="41.9416793" lon="13.4912708"><ele>684.2</ele><time>2026-03-24T11:52:30.96Z</time></trkpt><trkpt lat="41.9416607" lon="13.4914147"><ele>684.6</ele><time>2026-03-24T11:52:31.961Z</time></trkpt><trkpt lat="41.9416481" lon="13.4915544"><ele>685.0</ele><time>2026-03-24T11:52:32.96Z</time></trkpt><trkpt lat="41.9416301" lon="13.4916797"><ele>685.0</ele><time>2026-03-24T11:52:33.96Z</time></trkpt><trkpt lat="41.9415834" lon="13.4918078"><ele>685.0</ele><time>2026-03-24T11:52:34.96Z</time></trkpt><trkpt lat="41.9415281" lon="13.4919395"><ele>685.0</ele><time>2026-03-24T11:52:35.96Z</time></trkpt><trkpt lat="41.9414531" lon="13.4920724"><ele>685.0</ele><time>2026-03-24T11:52:36.96Z</time></trkpt><trkpt lat="41.9413646" lon="13.4922096"><ele>684.75</ele><time>2026-03-24T11:52:37.961Z</time></trkpt><trkpt lat="41.9412779" lon="13.4923501"><ele>684.5</ele><time>2026-03-24T11:52:38.96Z</time></trkpt><trkpt lat="41.9412022" lon="13.4924824"><ele>684.25</ele><time>2026-03-24T11:52:39.961Z</time></trkpt><trkpt lat="41.9411378" lon="13.4926094"><ele>684.0</ele><time>2026-03-24T11:52:40.96Z</time></trkpt><trkpt lat="41.9410705" lon="13.492743"><ele>684.0</ele><time>2026-03-24T11:52:41.96Z</time></trkpt><trkpt lat="41.9409966" lon="13.4928832"><ele>684.0</ele><time>2026-03-24T11:52:42.961Z</time></trkpt><trkpt lat="41.9409227" lon="13.4930264"><ele>684.0</ele><time>2026-03-24T11:52:43.961Z</time></trkpt><trkpt lat="41.9408445" lon="13.4931759"><ele>684.0</ele><time>2026-03-24T11:52:44.961Z</time></trkpt><trkpt lat="41.940758" lon="13.4933243"><ele>684.0</ele><time>2026-03-24T11:52:45.96Z</time></trkpt><trkpt lat="41.9406697" lon="13.4934779"><ele>684.0</ele><time>2026-03-24T11:52:46.961Z</time></trkpt><trkpt lat="41.9405742" lon="13.4936276"><ele>684.0</ele><time>2026-03-24T11:52:47.961Z</time></trkpt><trkpt lat="41.9404811" lon="13.4937854"><ele>684.0</ele><time>2026-03-24T11:52:48.96Z</time></trkpt><trkpt lat="41.9403901" lon="13.4939409"><ele>684.0</ele><time>2026-03-24T11:52:49.96Z</time></trkpt><trkpt lat="41.9403026" lon="13.4940954"><ele>684.0</ele><time>2026-03-24T11:52:50.961Z</time></trkpt><trkpt lat="41.9402172" lon="13.4942466"><ele>684.0</ele><time>2026-03-24T11:52:51.96Z</time></trkpt><trkpt lat="41.940138" lon="13.4943939"><ele>684.0</ele><time>2026-03-24T11:52:52.96Z</time></trkpt><trkpt lat="41.940066" lon="13.4945303"><ele>684.0</ele><time>2026-03-24T11:52:53.96Z</time></trkpt><trkpt lat="41.9399957" lon="13.4946607"><ele>684.0</ele><time>2026-03-24T11:52:54.961Z</time></trkpt><trkpt lat="41.9399182" lon="13.4947791"><ele>684.0</ele><time>2026-03-24T11:52:55.96Z</time></trkpt><trkpt lat="41.9398367" lon="13.4948973"><ele>684.0</ele><time>2026-03-24T11:52:56.96Z</time></trkpt><trkpt lat="41.9397519" lon="13.4950132"><ele>684.0</ele><time>2026-03-24T11:52:57.96Z</time></trkpt><trkpt lat="41.9396612" lon="13.4951343"><ele>684.0</ele><time>2026-03-24T11:52:58.961Z</time></trkpt><trkpt lat="41.9395703" lon="13.4952478"><ele>684.0</ele><time>2026-03-24T11:52:59.96Z</time></trkpt><trkpt lat="41.9394731" lon="13.4953592"><ele>684.0</ele><time>2026-03-24T11:53:00.96Z</time></trkpt><trkpt lat="41.9393796" lon="13.4954754"><ele>684.2</ele><time>2026-03-24T11:53:01.961Z</time></trkpt><trkpt lat="41.9392884" lon="13.4955834"><ele>684.4000000000001</ele><time>2026-03-24T11:53:02.961Z</time></trkpt><trkpt lat="41.9392008" lon="13.4956665"><ele>684.6</ele><time>2026-03-24T11:53:03.96Z</time></trkpt><trkpt lat="41.9391203" lon="13.4957576"><ele>684.8</ele><time>2026-03-24T11:53:04.96Z</time></trkpt><trkpt lat="41.9390643" lon="13.4958505"><ele>685.0</ele><time>2026-03-24T11:53:05.961Z</time></trkpt><trkpt lat="41.9390079" lon="13.4959629"><ele>685.25</ele><time>2026-03-24T11:53:06.961Z</time></trkpt><trkpt lat="41.9389521" lon="13.4960878"><ele>685.5</ele><time>2026-03-24T11:53:07.96Z</time></trkpt><trkpt lat="41.9388941" lon="13.496223"><ele>685.75</ele><time>2026-03-24T11:53:08.96Z</time></trkpt><trkpt lat="41.938841" lon="13.4963635"><ele>686.0</ele><time>2026-03-24T11:53:09.96Z</time></trkpt><trkpt lat="41.9387781" lon="13.4965219"><ele>686.0</ele><time>2026-03-24T11:53:10.96Z</time></trkpt><trkpt lat="41.9387167" lon="13.4966677"><ele>686.0</ele><time>2026-03-24T11:53:11.96Z</time></trkpt><trkpt lat="41.9386564" lon="13.4968077"><ele>686.0</ele><time>2026-03-24T11:53:12.96Z</time></trkpt><trkpt lat="41.9386043" lon="13.4969392"><ele>686.0</ele><time>2026-03-24T11:53:13.961Z</time></trkpt><trkpt lat="41.9385586" lon="13.4970617"><ele>686.1666666666666</ele><time>2026-03-24T11:53:14.961Z</time></trkpt><trkpt lat="41.9385271" lon="13.4971665"><ele>686.3333333333333</ele><time>2026-03-24T11:53:15.96Z</time></trkpt><trkpt lat="41.9385031" lon="13.4972653"><ele>686.5</ele><time>2026-03-24T11:53:16.96Z</time></trkpt><trkpt lat="41.938482" lon="13.4973706"><ele>686.6666666666666</ele><time>2026-03-24T11:53:17.96Z</time></trkpt><trkpt lat="41.9384623" lon="13.4974881"><ele>686.8333333333334</ele><time>2026-03-24T11:53:18.961Z</time></trkpt><trkpt lat="41.9384416" lon="13.4976198"><ele>687.0</ele><time>2026-03-24T11:53:19.961Z</time></trkpt><trkpt lat="41.9384289" lon="13.4977743"><ele>686.8</ele><time>2026-03-24T11:53:20.96Z</time></trkpt><trkpt lat="41.9384176" lon="13.4979279"><ele>686.6</ele><time>2026-03-24T11:53:21.96Z</time></trkpt><trkpt lat="41.9384046" lon="13.4980817"><ele>686.4</ele><time>2026-03-24T11:53:22.961Z</time></trkpt><trkpt lat="41.9383985" lon="13.4982283"><ele>686.1999999999999</ele><time>2026-03-24T11:53:23.961Z</time></trkpt><trkpt lat="41.9383985" lon="13.4983602"><ele>686.0</ele><time>2026-03-24T11:53:24.96Z</time></trkpt><trkpt lat="41.9383949" lon="13.4984703"><ele>686.0</ele><time>2026-03-24T11:53:25.96Z</time></trkpt><trkpt lat="41.9384004" lon="13.4985667"><ele>686.0</ele><time>2026-03-24T11:53:26.96Z</time></trkpt><trkpt lat="41.9384104" lon="13.4986631"><ele>686.0</ele><time>2026-03-24T11:53:27.96Z</time></trkpt><trkpt lat="41.9384184" lon="13.4987842"><ele>686.0</ele><time>2026-03-24T11:53:28.961Z</time></trkpt><trkpt lat="41.9384192" lon="13.4989232"><ele>686.0</ele><time>2026-03-24T11:53:29.96Z</time></trkpt><trkpt lat="41.9384102" lon="13.4990877"><ele>685.25</ele><time>2026-03-24T11:53:30.961Z</time></trkpt><trkpt lat="41.9383956" lon="13.4992682"><ele>684.5</ele><time>2026-03-24T11:53:31.961Z</time></trkpt><trkpt lat="41.9383802" lon="13.4994607"><ele>683.75</ele><time>2026-03-24T11:53:32.96Z</time></trkpt><trkpt lat="41.9383651" lon="13.499638"><ele>683.0</ele><time>2026-03-24T11:53:33.96Z</time></trkpt><trkpt lat="41.9383428" lon="13.4998027"><ele>684.2</ele><time>2026-03-24T11:53:34.961Z</time></trkpt><trkpt lat="41.9383207" lon="13.499951"><ele>685.4</ele><time>2026-03-24T11:53:35.961Z</time></trkpt><trkpt lat="41.9383032" lon="13.5000648"><ele>686.6</ele><time>2026-03-24T11:53:36.96Z</time></trkpt><trkpt lat="41.9382905" lon="13.5002057"><ele>687.8000000000001</ele><time>2026-03-24T11:53:38.96Z</time></trkpt><trkpt lat="41.9382898" lon="13.5002988"><ele>689.0</ele><time>2026-03-24T11:53:41.96Z</time></trkpt><trkpt lat="41.9383268" lon="13.5004497"><ele>689.0</ele><time>2026-03-24T11:53:44.96Z</time></trkpt><trkpt lat="41.9383517" lon="13.5005407"><ele>689.0</ele><time>2026-03-24T11:53:45.96Z</time></trkpt><trkpt lat="41.9383801" lon="13.5006566"><ele>689.0</ele><time>2026-03-24T11:53:46.96Z</time></trkpt><trkpt lat="41.9384098" lon="13.5007781"><ele>689.0</ele><time>2026-03-24T11:53:47.961Z</time></trkpt><trkpt lat="41.938438" lon="13.5008833"><ele>689.0</ele><time>2026-03-24T11:53:48.961Z</time></trkpt><trkpt lat="41.9384557" lon="13.500974"><ele>689.0</ele><time>2026-03-24T11:53:49.961Z</time></trkpt><trkpt lat="41.9384613" lon="13.5010654"><ele>688.1666666666666</ele><time>2026-03-24T11:53:50.96Z</time></trkpt><trkpt lat="41.9384614" lon="13.5011599"><ele>687.3333333333333</ele><time>2026-03-24T11:53:51.96Z</time></trkpt><trkpt lat="41.9384579" lon="13.5012624"><ele>686.5</ele><time>2026-03-24T11:53:52.96Z</time></trkpt><trkpt lat="41.938457" lon="13.501389"><ele>685.6666666666666</ele><time>2026-03-24T11:53:53.96Z</time></trkpt><trkpt lat="41.9384603" lon="13.5015217"><ele>684.8333333333334</ele><time>2026-03-24T11:53:54.961Z</time></trkpt><trkpt lat="41.9384678" lon="13.5016629"><ele>684.0</ele><time>2026-03-24T11:53:55.96Z</time></trkpt><trkpt lat="41.9384623" lon="13.5018065"><ele>684.0</ele><time>2026-03-24T11:53:56.96Z</time></trkpt><trkpt lat="41.9384576" lon="13.5019455"><ele>684.0</ele><time>2026-03-24T11:53:57.96Z</time></trkpt><trkpt lat="41.9384514" lon="13.5020897"><ele>684.0</ele><time>2026-03-24T11:53:58.96Z</time></trkpt><trkpt lat="41.9384434" lon="13.5022376"><ele>684.0</ele><time>2026-03-24T11:53:59.96Z</time></trkpt><trkpt lat="41.9384351" lon="13.5023748"><ele>684.0</ele><time>2026-03-24T11:54:00.96Z</time></trkpt><trkpt lat="41.9384211" lon="13.5024934"><ele>684.0</ele><time>2026-03-24T11:54:01.96Z</time></trkpt><trkpt lat="41.938397" lon="13.5026189"><ele>684.0</ele><time>2026-03-24T11:54:02.96Z</time></trkpt><trkpt lat="41.9383768" lon="13.5027444"><ele>684.0</ele><time>2026-03-24T11:54:03.96Z</time></trkpt><trkpt lat="41.9383662" lon="13.5028807"><ele>684.0</ele><time>2026-03-24T11:54:04.961Z</time></trkpt><trkpt lat="41.9383532" lon="13.5030232"><ele>684.0</ele><time>2026-03-24T11:54:05.96Z</time></trkpt><trkpt lat="41.9383473" lon="13.5031697"><ele>685.5</ele><time>2026-03-24T11:54:06.96Z</time></trkpt><trkpt lat="41.9383401" lon="13.5033171"><ele>687.0</ele><time>2026-03-24T11:54:07.961Z</time></trkpt><trkpt lat="41.9383388" lon="13.5034727"><ele>688.5</ele><time>2026-03-24T11:54:08.96Z</time></trkpt><trkpt lat="41.938347" lon="13.5036357"><ele>690.0</ele><time>2026-03-24T11:54:09.96Z</time></trkpt><trkpt lat="41.9383519" lon="13.5037851"><ele>690.0</ele><time>2026-03-24T11:54:10.961Z</time></trkpt><trkpt lat="41.9383662" lon="13.5039237"><ele>690.0</ele><time>2026-03-24T11:54:11.961Z</time></trkpt><trkpt lat="41.9383792" lon="13.5040573"><ele>690.0</ele><time>2026-03-24T11:54:12.96Z</time></trkpt><trkpt lat="41.9383979" lon="13.5041988"><ele>690.0</ele><time>2026-03-24T11:54:13.96Z</time></trkpt><trkpt lat="41.938424" lon="13.504341"><ele>690.0</ele><time>2026-03-24T11:54:14.961Z</time></trkpt><trkpt lat="41.9384536" lon="13.5044761"><ele>689.0</ele><time>2026-03-24T11:54:15.96Z</time></trkpt><trkpt lat="41.9384865" lon="13.5046069"><ele>688.0</ele><time>2026-03-24T11:54:16.96Z</time></trkpt><trkpt lat="41.9385121" lon="13.504732"><ele>687.0</ele><time>2026-03-24T11:54:17.961Z</time></trkpt><trkpt lat="41.9385356" lon="13.5048588"><ele>686.0</ele><time>2026-03-24T11:54:18.96Z</time></trkpt><trkpt lat="41.9385615" lon="13.5049691"><ele>685.0</ele><time>2026-03-24T11:54:19.96Z</time></trkpt><trkpt lat="41.9385857" lon="13.5050605"><ele>685.0</ele><time>2026-03-24T11:54:20.96Z</time></trkpt><trkpt lat="41.93862" lon="13.5051509"><ele>685.0</ele><time>2026-03-24T11:54:21.961Z</time></trkpt><trkpt lat="41.9386562" lon="13.5052513"><ele>685.0</ele><time>2026-03-24T11:54:22.961Z</time></trkpt><trkpt lat="41.9386951" lon="13.5053487"><ele>685.0</ele><time>2026-03-24T11:54:23.96Z</time></trkpt><trkpt lat="41.938749" lon="13.5054445"><ele>685.0</ele><time>2026-03-24T11:54:24.961Z</time></trkpt><trkpt lat="41.9388051" lon="13.5055273"><ele>685.0</ele><time>2026-03-24T11:54:25.96Z</time></trkpt><trkpt lat="41.9388506" lon="13.5056181"><ele>685.0</ele><time>2026-03-24T11:54:26.961Z</time></trkpt><trkpt lat="41.9388956" lon="13.5057216"><ele>685.0</ele><time>2026-03-24T11:54:27.96Z</time></trkpt><trkpt lat="41.9389414" lon="13.5058472"><ele>685.0</ele><time>2026-03-24T11:54:28.96Z</time></trkpt><trkpt lat="41.9389902" lon="13.5059823"><ele>685.0</ele><time>2026-03-24T11:54:29.961Z</time></trkpt><trkpt lat="41.9390308" lon="13.506111"><ele>685.0</ele><time>2026-03-24T11:54:30.96Z</time></trkpt><trkpt lat="41.9390654" lon="13.5062316"><ele>685.0</ele><time>2026-03-24T11:54:31.961Z</time></trkpt><trkpt lat="41.9390898" lon="13.506327"><ele>685.0</ele><time>2026-03-24T11:54:32.96Z</time></trkpt><trkpt lat="41.9391169" lon="13.5064564"><ele>685.0</ele><time>2026-03-24T11:54:34.96Z</time></trkpt><trkpt lat="41.9391589" lon="13.506576"><ele>685.0</ele><time>2026-03-24T11:54:37.961Z</time></trkpt><trkpt lat="41.9392316" lon="13.506669"><ele>685.0</ele><time>2026-03-24T11:54:39.961Z</time></trkpt><trkpt lat="41.939326" lon="13.5067562"><ele>684.6666666666667</ele><time>2026-03-24T11:54:41.96Z</time></trkpt><trkpt lat="41.9393847" lon="13.5068135"><ele>684.3333333333334</ele><time>2026-03-24T11:54:42.961Z</time></trkpt><trkpt lat="41.9394501" lon="13.5068768"><ele>684.0</ele><time>2026-03-24T11:54:43.96Z</time></trkpt><trkpt lat="41.9395154" lon="13.5069424"><ele>683.6666666666666</ele><time>2026-03-24T11:54:44.96Z</time></trkpt><trkpt lat="41.9395851" lon="13.5069999"><ele>683.3333333333333</ele><time>2026-03-24T11:54:45.96Z</time></trkpt><trkpt lat="41.9396608" lon="13.5070625"><ele>683.0</ele><time>2026-03-24T11:54:46.96Z</time></trkpt><trkpt lat="41.9397477" lon="13.5071232"><ele>683.0</ele><time>2026-03-24T11:54:47.96Z</time></trkpt><trkpt lat="41.939841" lon="13.5071868"><ele>683.0</ele><time>2026-03-24T11:54:48.96Z</time></trkpt><trkpt lat="41.939934" lon="13.507263"><ele>683.0</ele><time>2026-03-24T11:54:49.961Z</time></trkpt><trkpt lat="41.9400298" lon="13.5073354"><ele>683.0</ele><time>2026-03-24T11:54:50.961Z</time></trkpt><trkpt lat="41.9401181" lon="13.5074113"><ele>683.0</ele><time>2026-03-24T11:54:51.961Z</time></trkpt><trkpt lat="41.9401957" lon="13.5074872"><ele>683.0</ele><time>2026-03-24T11:54:52.96Z</time></trkpt><trkpt lat="41.940269" lon="13.5075503"><ele>683.0</ele><time>2026-03-24T11:54:53.961Z</time></trkpt><trkpt lat="41.9403403" lon="13.507617"><ele>683.0</ele><time>2026-03-24T11:54:54.96Z</time></trkpt><trkpt lat="41.9404193" lon="13.5076753"><ele>683.0</ele><time>2026-03-24T11:54:55.961Z</time></trkpt><trkpt lat="41.9405043" lon="13.5077248"><ele>683.0</ele><time>2026-03-24T11:54:56.96Z</time></trkpt><trkpt lat="41.9405836" lon="13.5077703"><ele>683.0</ele><time>2026-03-24T11:54:57.96Z</time></trkpt><trkpt lat="41.9406558" lon="13.5078132"><ele>683.0</ele><time>2026-03-24T11:54:58.961Z</time></trkpt><trkpt lat="41.9407362" lon="13.5078745"><ele>683.0</ele><time>2026-03-24T11:55:00.96Z</time></trkpt><trkpt lat="41.9407855" lon="13.5079287"><ele>683.0</ele><time>2026-03-24T11:55:01.961Z</time></trkpt><trkpt lat="41.9408455" lon="13.5079996"><ele>683.0</ele><time>2026-03-24T11:55:02.961Z</time></trkpt><trkpt lat="41.9409201" lon="13.5080906"><ele>683.0</ele><time>2026-03-24T11:55:03.96Z</time></trkpt><trkpt lat="41.9409967" lon="13.5081776"><ele>683.0</ele><time>2026-03-24T11:55:04.96Z</time></trkpt><trkpt lat="41.9410786" lon="13.5082537"><ele>683.0</ele><time>2026-03-24T11:55:05.96Z</time></trkpt><trkpt lat="41.9411664" lon="13.5083199"><ele>683.0</ele><time>2026-03-24T11:55:06.961Z</time></trkpt><trkpt lat="41.9412463" lon="13.5083679"><ele>683.0</ele><time>2026-03-24T11:55:07.961Z</time></trkpt><trkpt lat="41.9413088" lon="13.508414"><ele>683.0</ele><time>2026-03-24T11:55:08.96Z</time></trkpt><trkpt lat="41.9413963" lon="13.5085178"><ele>683.0</ele><time>2026-03-24T11:55:10.96Z</time></trkpt><trkpt lat="41.9414217" lon="13.5086389"><ele>683.0</ele><time>2026-03-24T11:55:12.961Z</time></trkpt><trkpt lat="41.9414045" lon="13.5087299"><ele>683.0</ele><time>2026-03-24T11:55:14.961Z</time></trkpt><trkpt lat="41.9413356" lon="13.5088077"><ele>683.0</ele><time>2026-03-24T11:55:16.961Z</time></trkpt><trkpt lat="41.9412712" lon="13.5088512"><ele>683.0</ele><time>2026-03-24T11:55:17.961Z</time></trkpt><trkpt lat="41.9411905" lon="13.5089043"><ele>683.0</ele><time>2026-03-24T11:55:18.96Z</time></trkpt><trkpt lat="41.9411219" lon="13.5089583"><ele>683.0</ele><time>2026-03-24T11:55:19.96Z</time></trkpt><trkpt lat="41.9410689" lon="13.5090694"><ele>683.0</ele><time>2026-03-24T11:55:21.96Z</time></trkpt><trkpt lat="41.9410891" lon="13.5092075"><ele>683.0</ele><time>2026-03-24T11:55:23.96Z</time></trkpt><trkpt lat="41.9411235" lon="13.5092994"><ele>683.0</ele><time>2026-03-24T11:55:24.96Z</time></trkpt><trkpt lat="41.9411602" lon="13.5093799"><ele>683.0</ele><time>2026-03-24T11:55:25.96Z</time></trkpt><trkpt lat="41.9411976" lon="13.509465"><ele>683.0</ele><time>2026-03-24T11:55:26.961Z</time></trkpt><trkpt lat="41.9412373" lon="13.5095687"><ele>683.0</ele><time>2026-03-24T11:55:27.96Z</time></trkpt><trkpt lat="41.9412822" lon="13.5096842"><ele>682.5999999999999</ele><time>2026-03-24T11:55:28.96Z</time></trkpt><trkpt lat="41.9413347" lon="13.5098088"><ele>682.1999999999999</ele><time>2026-03-24T11:55:29.961Z</time></trkpt><trkpt lat="41.9413924" lon="13.509933"><ele>681.8</ele><time>2026-03-24T11:55:30.961Z</time></trkpt><trkpt lat="41.9414573" lon="13.5100611"><ele>681.4</ele><time>2026-03-24T11:55:31.96Z</time></trkpt><trkpt lat="41.9415301" lon="13.5101861"><ele>681.0</ele><time>2026-03-24T11:55:32.96Z</time></trkpt><trkpt lat="41.9416044" lon="13.5103028"><ele>681.0</ele><time>2026-03-24T11:55:33.961Z</time></trkpt><trkpt lat="41.9416703" lon="13.5104009"><ele>681.0</ele><time>2026-03-24T11:55:34.96Z</time></trkpt><trkpt lat="41.9417244" lon="13.5104967"><ele>681.0</ele><time>2026-03-24T11:55:35.96Z</time></trkpt><trkpt lat="41.941764" lon="13.5105885"><ele>681.0</ele><time>2026-03-24T11:55:36.96Z</time></trkpt><trkpt lat="41.9418003" lon="13.5106772"><ele>681.0</ele><time>2026-03-24T11:55:37.96Z</time></trkpt><trkpt lat="41.9418297" lon="13.5107707"><ele>681.0</ele><time>2026-03-24T11:55:38.961Z</time></trkpt><trkpt lat="41.9418604" lon="13.5108809"><ele>681.1999999999999</ele><time>2026-03-24T11:55:39.961Z</time></trkpt><trkpt lat="41.9418963" lon="13.5110002"><ele>681.4</ele><time>2026-03-24T11:55:40.96Z</time></trkpt><trkpt lat="41.9419287" lon="13.5111247"><ele>681.6</ele><time>2026-03-24T11:55:41.96Z</time></trkpt><trkpt lat="41.9419553" lon="13.511255"><ele>681.8</ele><time>2026-03-24T11:55:42.961Z</time></trkpt><trkpt lat="41.9419881" lon="13.5114029"><ele>682.0</ele><time>2026-03-24T11:55:43.96Z</time></trkpt><trkpt lat="41.9420191" lon="13.5115496"><ele>682.4000000000001</ele><time>2026-03-24T11:55:44.961Z</time></trkpt><trkpt lat="41.9420467" lon="13.5117083"><ele>682.8000000000001</ele><time>2026-03-24T11:55:45.96Z</time></trkpt><trkpt lat="41.9420726" lon="13.5118487"><ele>683.2</ele><time>2026-03-24T11:55:46.961Z</time></trkpt><trkpt lat="41.9420968" lon="13.5119766"><ele>683.6</ele><time>2026-03-24T11:55:47.961Z</time></trkpt><trkpt lat="41.9421178" lon="13.5121005"><ele>684.0</ele><time>2026-03-24T11:55:48.96Z</time></trkpt><trkpt lat="41.942148" lon="13.5122167"><ele>684.2</ele><time>2026-03-24T11:55:49.96Z</time></trkpt><trkpt lat="41.9421776" lon="13.5123432"><ele>684.4000000000001</ele><time>2026-03-24T11:55:50.961Z</time></trkpt><trkpt lat="41.9422128" lon="13.5124678"><ele>684.6</ele><time>2026-03-24T11:55:51.96Z</time></trkpt><trkpt lat="41.9422535" lon="13.5125919"><ele>684.8</ele><time>2026-03-24T11:55:52.96Z</time></trkpt><trkpt lat="41.9422959" lon="13.5127055"><ele>685.0</ele><time>2026-03-24T11:55:53.96Z</time></trkpt><trkpt lat="41.942345" lon="13.5128129"><ele>685.2</ele><time>2026-03-24T11:55:54.96Z</time></trkpt><trkpt lat="41.9423989" lon="13.5129115"><ele>685.4</ele><time>2026-03-24T11:55:55.961Z</time></trkpt><trkpt lat="41.942461" lon="13.5130143"><ele>685.5999999999999</ele><time>2026-03-24T11:55:56.96Z</time></trkpt><trkpt lat="41.942532" lon="13.5131185"><ele>685.8</ele><time>2026-03-24T11:55:57.96Z</time></trkpt><trkpt lat="41.9426047" lon="13.5132209"><ele>686.0</ele><time>2026-03-24T11:55:58.96Z</time></trkpt><trkpt lat="41.9426742" lon="13.5133255"><ele>686.0</ele><time>2026-03-24T11:55:59.96Z</time></trkpt><trkpt lat="41.9427404" lon="13.513437"><ele>686.0</ele><time>2026-03-24T11:56:00.96Z</time></trkpt><trkpt lat="41.9428033" lon="13.5135509"><ele>686.0</ele><time>2026-03-24T11:56:01.961Z</time></trkpt><trkpt lat="41.9428637" lon="13.5136696"><ele>686.0</ele><time>2026-03-24T11:56:02.961Z</time></trkpt><trkpt lat="41.9429266" lon="13.5137899"><ele>686.0</ele><time>2026-03-24T11:56:03.96Z</time></trkpt><trkpt lat="41.9429845" lon="13.513907"><ele>686.0</ele><time>2026-03-24T11:56:04.96Z</time></trkpt><trkpt lat="41.9430391" lon="13.5140235"><ele>686.0</ele><time>2026-03-24T11:56:05.96Z</time></trkpt><trkpt lat="41.9430941" lon="13.5141424"><ele>686.0</ele><time>2026-03-24T11:56:06.96Z</time></trkpt><trkpt lat="41.9431534" lon="13.5142652"><ele>686.0</ele><time>2026-03-24T11:56:07.96Z</time></trkpt><trkpt lat="41.943211" lon="13.5143874"><ele>686.0</ele><time>2026-03-24T11:56:08.96Z</time></trkpt><trkpt lat="41.9432683" lon="13.5145105"><ele>686.1666666666666</ele><time>2026-03-24T11:56:09.96Z</time></trkpt><trkpt lat="41.9433237" lon="13.5146307"><ele>686.3333333333333</ele><time>2026-03-24T11:56:10.961Z</time></trkpt><trkpt lat="41.9433804" lon="13.5147478"><ele>686.5</ele><time>2026-03-24T11:56:11.96Z</time></trkpt><trkpt lat="41.9434324" lon="13.5148471"><ele>686.6666666666666</ele><time>2026-03-24T11:56:12.96Z</time></trkpt><trkpt lat="41.9434725" lon="13.5149265"><ele>686.8333333333334</ele><time>2026-03-24T11:56:13.96Z</time></trkpt><trkpt lat="41.9435141" lon="13.5150107"><ele>687.0</ele><time>2026-03-24T11:56:15.96Z</time></trkpt><trkpt lat="41.9435699" lon="13.5150608"><ele>687.3333333333334</ele><time>2026-03-24T11:56:31.96Z</time></trkpt><trkpt lat="41.9436174" lon="13.5151691"><ele>687.6666666666666</ele><time>2026-03-24T11:56:33.96Z</time></trkpt><trkpt lat="41.9436859" lon="13.5152988"><ele>688.0</ele><time>2026-03-24T11:56:35.96Z</time></trkpt><trkpt lat="41.9437246" lon="13.515373"><ele>688.3333333333333</ele><time>2026-03-24T11:56:36.961Z</time></trkpt><trkpt lat="41.9437679" lon="13.51545"><ele>688.6666666666666</ele><time>2026-03-24T11:56:37.96Z</time></trkpt><trkpt lat="41.9438137" lon="13.5155311"><ele>689.0</ele><time>2026-03-24T11:56:38.96Z</time></trkpt><trkpt lat="41.9438601" lon="13.5156181"><ele>689.0</ele><time>2026-03-24T11:56:39.96Z</time></trkpt><trkpt lat="41.9439058" lon="13.5157121"><ele>689.0</ele><time>2026-03-24T11:56:40.96Z</time></trkpt><trkpt lat="41.9439549" lon="13.5158114"><ele>689.0</ele><time>2026-03-24T11:56:41.96Z</time></trkpt><trkpt lat="41.9440053" lon="13.5159211"><ele>689.0</ele><time>2026-03-24T11:56:42.96Z</time></trkpt><trkpt lat="41.9440533" lon="13.5160386"><ele>689.0</ele><time>2026-03-24T11:56:43.96Z</time></trkpt><trkpt lat="41.9441014" lon="13.5161573"><ele>689.4000000000001</ele><time>2026-03-24T11:56:44.96Z</time></trkpt><trkpt lat="41.9441511" lon="13.5162775"><ele>689.8</ele><time>2026-03-24T11:56:45.961Z</time></trkpt><trkpt lat="41.944207" lon="13.5163993"><ele>690.2</ele><time>2026-03-24T11:56:46.96Z</time></trkpt><trkpt lat="41.9442587" lon="13.5165264"><ele>690.5999999999999</ele><time>2026-03-24T11:56:47.961Z</time></trkpt><trkpt lat="41.9443127" lon="13.5166543"><ele>691.0</ele><time>2026-03-24T11:56:48.961Z</time></trkpt><trkpt lat="41.9443697" lon="13.5167726"><ele>691.0</ele><time>2026-03-24T11:56:49.96Z</time></trkpt><trkpt lat="41.9444298" lon="13.5168898"><ele>691.0</ele><time>2026-03-24T11:56:50.96Z</time></trkpt><trkpt lat="41.9444921" lon="13.5170105"><ele>691.0</ele><time>2026-03-24T11:56:51.961Z</time></trkpt><trkpt lat="41.9445549" lon="13.5171286"><ele>691.0</ele><time>2026-03-24T11:56:52.96Z</time></trkpt><trkpt lat="41.9446186" lon="13.5172454"><ele>691.0</ele><time>2026-03-24T11:56:53.961Z</time></trkpt><trkpt lat="41.9446841" lon="13.5173619"><ele>691.4</ele><time>2026-03-24T11:56:54.96Z</time></trkpt><trkpt lat="41.9447505" lon="13.5174831"><ele>691.8</ele><time>2026-03-24T11:56:55.961Z</time></trkpt><trkpt lat="41.9448153" lon="13.517601"><ele>692.1999999999999</ele><time>2026-03-24T11:56:56.961Z</time></trkpt><trkpt lat="41.9448796" lon="13.5177204"><ele>692.5999999999999</ele><time>2026-03-24T11:56:57.96Z</time></trkpt><trkpt lat="41.9449406" lon="13.5178361"><ele>693.0</ele><time>2026-03-24T11:56:58.961Z</time></trkpt><trkpt lat="41.9449955" lon="13.5179557"><ele>693.0</ele><time>2026-03-24T11:56:59.96Z</time></trkpt><trkpt lat="41.9450466" lon="13.5180806"><ele>693.0</ele><time>2026-03-24T11:57:00.96Z</time></trkpt><trkpt lat="41.9450996" lon="13.5182103"><ele>693.0</ele><time>2026-03-24T11:57:01.96Z</time></trkpt><trkpt lat="41.9451674" lon="13.5183339"><ele>693.0</ele><time>2026-03-24T11:57:02.961Z</time></trkpt><trkpt lat="41.945242" lon="13.5184563"><ele>693.0</ele><time>2026-03-24T11:57:03.96Z</time></trkpt><trkpt lat="41.9453282" lon="13.5185703"><ele>693.0</ele><time>2026-03-24T11:57:04.961Z</time></trkpt><trkpt lat="41.9454196" lon="13.5186877"><ele>693.0</ele><time>2026-03-24T11:57:05.961Z</time></trkpt><trkpt lat="41.9455149" lon="13.5188113"><ele>693.0</ele><time>2026-03-24T11:57:06.96Z</time></trkpt><trkpt lat="41.9456098" lon="13.5189345"><ele>693.0</ele><time>2026-03-24T11:57:07.96Z</time></trkpt><trkpt lat="41.9457068" lon="13.5190672"><ele>693.25</ele><time>2026-03-24T11:57:08.961Z</time></trkpt><trkpt lat="41.9458024" lon="13.5192073"><ele>693.5</ele><time>2026-03-24T11:57:09.96Z</time></trkpt><trkpt lat="41.945897" lon="13.51936"><ele>693.75</ele><time>2026-03-24T11:57:10.96Z</time></trkpt><trkpt lat="41.9459946" lon="13.5195166"><ele>694.0</ele><time>2026-03-24T11:57:11.96Z</time></trkpt><trkpt lat="41.9460885" lon="13.5196694"><ele>693.0</ele><time>2026-03-24T11:57:12.96Z</time></trkpt><trkpt lat="41.946185" lon="13.5198324"><ele>692.0</ele><time>2026-03-24T11:57:13.96Z</time></trkpt><trkpt lat="41.9462842" lon="13.5200022"><ele>691.0</ele><time>2026-03-24T11:57:14.96Z</time></trkpt><trkpt lat="41.9463838" lon="13.5201719"><ele>691.0</ele><time>2026-03-24T11:57:15.96Z</time></trkpt><trkpt lat="41.9464794" lon="13.5203346"><ele>691.0</ele><time>2026-03-24T11:57:16.961Z</time></trkpt><trkpt lat="41.9465721" lon="13.5204873"><ele>691.0</ele><time>2026-03-24T11:57:17.96Z</time></trkpt><trkpt lat="41.9466638" lon="13.5206407"><ele>691.0</ele><time>2026-03-24T11:57:18.96Z</time></trkpt><trkpt lat="41.9467546" lon="13.520793"><ele>690.6666666666667</ele><time>2026-03-24T11:57:19.96Z</time></trkpt><trkpt lat="41.9468471" lon="13.520949"><ele>690.3333333333334</ele><time>2026-03-24T11:57:20.961Z</time></trkpt><trkpt lat="41.9469451" lon="13.5211062"><ele>690.0</ele><time>2026-03-24T11:57:21.96Z</time></trkpt><trkpt lat="41.9470453" lon="13.5212626"><ele>690.5</ele><time>2026-03-24T11:57:22.961Z</time></trkpt><trkpt lat="41.9471441" lon="13.5214089"><ele>691.0</ele><time>2026-03-24T11:57:23.961Z</time></trkpt><trkpt lat="41.9472397" lon="13.5215433"><ele>691.5</ele><time>2026-03-24T11:57:24.96Z</time></trkpt><trkpt lat="41.9473305" lon="13.5216826"><ele>692.0</ele><time>2026-03-24T11:57:25.96Z</time></trkpt><trkpt lat="41.9474327" lon="13.5218278"><ele>692.0</ele><time>2026-03-24T11:57:26.961Z</time></trkpt><trkpt lat="41.9475416" lon="13.5219739"><ele>692.0</ele><time>2026-03-24T11:57:27.961Z</time></trkpt><trkpt lat="41.9476572" lon="13.5221291"><ele>692.0</ele><time>2026-03-24T11:57:28.96Z</time></trkpt><trkpt lat="41.9477717" lon="13.5222865"><ele>691.75</ele><time>2026-03-24T11:57:29.961Z</time></trkpt><trkpt lat="41.9478751" lon="13.5224349"><ele>691.5</ele><time>2026-03-24T11:57:30.961Z</time></trkpt><trkpt lat="41.9479715" lon="13.5225833"><ele>691.25</ele><time>2026-03-24T11:57:31.96Z</time></trkpt><trkpt lat="41.9480689" lon="13.5227371"><ele>691.0</ele><time>2026-03-24T11:57:32.96Z</time></trkpt><trkpt lat="41.9481606" lon="13.5228985"><ele>691.0</ele><time>2026-03-24T11:57:33.96Z</time></trkpt><trkpt lat="41.9482514" lon="13.5230645"><ele>691.0</ele><time>2026-03-24T11:57:34.96Z</time></trkpt><trkpt lat="41.9483388" lon="13.5232324"><ele>691.0</ele><time>2026-03-24T11:57:35.961Z</time></trkpt><trkpt lat="41.9484259" lon="13.5233934"><ele>691.0</ele><time>2026-03-24T11:57:36.96Z</time></trkpt><trkpt lat="41.9485146" lon="13.5235526"><ele>691.0</ele><time>2026-03-24T11:57:37.96Z</time></trkpt><trkpt lat="41.9486024" lon="13.5237063"><ele>691.0</ele><time>2026-03-24T11:57:38.96Z</time></trkpt><trkpt lat="41.9486903" lon="13.5238644"><ele>691.0</ele><time>2026-03-24T11:57:39.96Z</time></trkpt><trkpt lat="41.9487794" lon="13.5240198"><ele>691.25</ele><time>2026-03-24T11:57:40.961Z</time></trkpt><trkpt lat="41.9488691" lon="13.5241767"><ele>691.5</ele><time>2026-03-24T11:57:41.96Z</time></trkpt><trkpt lat="41.9489578" lon="13.5243289"><ele>691.75</ele><time>2026-03-24T11:57:42.96Z</time></trkpt><trkpt lat="41.9490441" lon="13.5244689"><ele>692.0</ele><time>2026-03-24T11:57:43.961Z</time></trkpt><trkpt lat="41.9491209" lon="13.5246019"><ele>692.1666666666666</ele><time>2026-03-24T11:57:44.961Z</time></trkpt><trkpt lat="41.9491874" lon="13.5247185"><ele>692.3333333333333</ele><time>2026-03-24T11:57:45.96Z</time></trkpt><trkpt lat="41.9492544" lon="13.524845"><ele>692.5</ele><time>2026-03-24T11:57:46.96Z</time></trkpt><trkpt lat="41.9493" lon="13.5249314"><ele>692.6666666666666</ele><time>2026-03-24T11:57:47.96Z</time></trkpt><trkpt lat="41.9493353" lon="13.5250066"><ele>692.8333333333334</ele><time>2026-03-24T11:57:48.96Z</time></trkpt><trkpt lat="41.9493714" lon="13.5251002"><ele>693.0</ele><time>2026-03-24T11:57:50.96Z</time></trkpt><trkpt lat="41.9493858" lon="13.525183"><ele>693.0</ele><time>2026-03-24T11:57:52.96Z</time></trkpt><trkpt lat="41.9494038" lon="13.5252966"><ele>693.0</ele><time>2026-03-24T11:57:54.961Z</time></trkpt><trkpt lat="41.9494923" lon="13.5254448"><ele>693.0</ele><time>2026-03-24T11:57:56.961Z</time></trkpt><trkpt lat="41.9495596" lon="13.5255487"><ele>693.0</ele><time>2026-03-24T11:57:57.96Z</time></trkpt><trkpt lat="41.9496341" lon="13.5256855"><ele>693.25</ele><time>2026-03-24T11:57:58.961Z</time></trkpt><trkpt lat="41.9497095" lon="13.5258372"><ele>693.5</ele><time>2026-03-24T11:57:59.96Z</time></trkpt><trkpt lat="41.9497933" lon="13.5260105"><ele>693.75</ele><time>2026-03-24T11:58:00.96Z</time></trkpt><trkpt lat="41.9498795" lon="13.5261872"><ele>694.0</ele><time>2026-03-24T11:58:01.96Z</time></trkpt><trkpt lat="41.9499658" lon="13.5263721"><ele>694.3333333333334</ele><time>2026-03-24T11:58:02.96Z</time></trkpt><trkpt lat="41.9500581" lon="13.5265612"><ele>694.6666666666666</ele><time>2026-03-24T11:58:03.96Z</time></trkpt><trkpt lat="41.9501483" lon="13.5267528"><ele>695.0</ele><time>2026-03-24T11:58:04.96Z</time></trkpt><trkpt lat="41.9502345" lon="13.5269333"><ele>694.6666666666666</ele><time>2026-03-24T11:58:05.961Z</time></trkpt><trkpt lat="41.9503172" lon="13.5271084"><ele>694.3333333333334</ele><time>2026-03-24T11:58:06.96Z</time></trkpt><trkpt lat="41.9503983" lon="13.5272908"><ele>694.0</ele><time>2026-03-24T11:58:07.96Z</time></trkpt><trkpt lat="41.9504823" lon="13.527477"><ele>694.0</ele><time>2026-03-24T11:58:08.96Z</time></trkpt><trkpt lat="41.9505654" lon="13.5276657"><ele>694.0</ele><time>2026-03-24T11:58:09.96Z</time></trkpt><trkpt lat="41.9506514" lon="13.5278624"><ele>694.0</ele><time>2026-03-24T11:58:10.96Z</time></trkpt><trkpt lat="41.950741" lon="13.5280589"><ele>694.0</ele><time>2026-03-24T11:58:11.96Z</time></trkpt><trkpt lat="41.9508331" lon="13.5282582"><ele>694.0</ele><time>2026-03-24T11:58:12.96Z</time></trkpt><trkpt lat="41.9509288" lon="13.5284578"><ele>694.0</ele><time>2026-03-24T11:58:13.96Z</time></trkpt><trkpt lat="41.9510252" lon="13.5286568"><ele>693.6666666666667</ele><time>2026-03-24T11:58:14.961Z</time></trkpt><trkpt lat="41.9511197" lon="13.5288542"><ele>693.3333333333334</ele><time>2026-03-24T11:58:15.961Z</time></trkpt><trkpt lat="41.9512119" lon="13.5290428"><ele>693.0</ele><time>2026-03-24T11:58:16.96Z</time></trkpt><trkpt lat="41.9513007" lon="13.5292304"><ele>693.0</ele><time>2026-03-24T11:58:17.96Z</time></trkpt><trkpt lat="41.9513909" lon="13.5294189"><ele>693.0</ele><time>2026-03-24T11:58:18.961Z</time></trkpt><trkpt lat="41.9514771" lon="13.5296004"><ele>693.0</ele><time>2026-03-24T11:58:19.961Z</time></trkpt><trkpt lat="41.951563" lon="13.5297736"><ele>693.0</ele><time>2026-03-24T11:58:20.96Z</time></trkpt><trkpt lat="41.9516465" lon="13.5299462"><ele>693.0</ele><time>2026-03-24T11:58:21.96Z</time></trkpt><trkpt lat="41.9517287" lon="13.5301087"><ele>693.0</ele><time>2026-03-24T11:58:22.96Z</time></trkpt><trkpt lat="41.951806" lon="13.5302668"><ele>693.0</ele><time>2026-03-24T11:58:23.96Z</time></trkpt><trkpt lat="41.9518774" lon="13.5304173"><ele>693.25</ele><time>2026-03-24T11:58:24.961Z</time></trkpt><trkpt lat="41.951952" lon="13.5305664"><ele>693.5</ele><time>2026-03-24T11:58:25.96Z</time></trkpt><trkpt lat="41.9520288" lon="13.5307191"><ele>693.75</ele><time>2026-03-24T11:58:26.961Z</time></trkpt><trkpt lat="41.9521025" lon="13.5308629"><ele>694.0</ele><time>2026-03-24T11:58:27.96Z</time></trkpt><trkpt lat="41.9521729" lon="13.5310014"><ele>694.0</ele><time>2026-03-24T11:58:28.96Z</time></trkpt><trkpt lat="41.9522353" lon="13.5311317"><ele>694.0</ele><time>2026-03-24T11:58:29.96Z</time></trkpt><trkpt lat="41.9522969" lon="13.5312509"><ele>694.0</ele><time>2026-03-24T11:58:30.96Z</time></trkpt><trkpt lat="41.9523492" lon="13.5313491"><ele>694.0</ele><time>2026-03-24T11:58:31.96Z</time></trkpt><trkpt lat="41.9523931" lon="13.5314326"><ele>694.0</ele><time>2026-03-24T11:58:32.96Z</time></trkpt><trkpt lat="41.9524548" lon="13.5315495"><ele>694.0</ele><time>2026-03-24T11:58:34.96Z</time></trkpt><trkpt lat="41.9525488" lon="13.5316666"><ele>694.0</ele><time>2026-03-24T11:58:36.96Z</time></trkpt><trkpt lat="41.9526231" lon="13.5317316"><ele>694.0</ele><time>2026-03-24T11:58:37.96Z</time></trkpt><trkpt lat="41.9527169" lon="13.5317987"><ele>694.0</ele><time>2026-03-24T11:58:38.961Z</time></trkpt><trkpt lat="41.9528296" lon="13.5318712"><ele>694.0</ele><time>2026-03-24T11:58:39.96Z</time></trkpt><trkpt lat="41.9529492" lon="13.5319504"><ele>694.0</ele><time>2026-03-24T11:58:40.961Z</time></trkpt><trkpt lat="41.9530714" lon="13.5320342"><ele>694.0</ele><time>2026-03-24T11:58:41.96Z</time></trkpt><trkpt lat="41.9531974" lon="13.5321341"><ele>694.0</ele><time>2026-03-24T11:58:42.961Z</time></trkpt><trkpt lat="41.9533287" lon="13.5322462"><ele>694.0</ele><time>2026-03-24T11:58:43.961Z</time></trkpt><trkpt lat="41.9534724" lon="13.5323557"><ele>693.6666666666667</ele><time>2026-03-24T11:58:44.96Z</time></trkpt><trkpt lat="41.9536168" lon="13.532469"><ele>693.3333333333334</ele><time>2026-03-24T11:58:45.96Z</time></trkpt><trkpt lat="41.953755" lon="13.5325786"><ele>693.0</ele><time>2026-03-24T11:58:46.96Z</time></trkpt><trkpt lat="41.9538828" lon="13.5326831"><ele>693.0</ele><time>2026-03-24T11:58:47.96Z</time></trkpt><trkpt lat="41.9540046" lon="13.5327801"><ele>693.0</ele><time>2026-03-24T11:58:48.961Z</time></trkpt><trkpt lat="41.9541135" lon="13.5328748"><ele>693.0</ele><time>2026-03-24T11:58:49.96Z</time></trkpt><trkpt lat="41.9542061" lon="13.5329525"><ele>693.0</ele><time>2026-03-24T11:58:50.96Z</time></trkpt><trkpt lat="41.9542897" lon="13.5330178"><ele>692.8333333333334</ele><time>2026-03-24T11:58:51.96Z</time></trkpt><trkpt lat="41.9543627" lon="13.5330814"><ele>692.6666666666666</ele><time>2026-03-24T11:58:52.96Z</time></trkpt><trkpt lat="41.9544315" lon="13.533147"><ele>692.5</ele><time>2026-03-24T11:58:53.961Z</time></trkpt><trkpt lat="41.9544932" lon="13.5332136"><ele>692.3333333333333</ele><time>2026-03-24T11:58:54.961Z</time></trkpt><trkpt lat="41.9545513" lon="13.533281"><ele>692.1666666666666</ele><time>2026-03-24T11:58:55.961Z</time></trkpt><trkpt lat="41.9546127" lon="13.5333532"><ele>692.0</ele><time>2026-03-24T11:58:56.96Z</time></trkpt><trkpt lat="41.9546813" lon="13.5334336"><ele>692.0</ele><time>2026-03-24T11:58:57.96Z</time></trkpt><trkpt lat="41.9547518" lon="13.5335138"><ele>692.0</ele><time>2026-03-24T11:58:58.961Z</time></trkpt><trkpt lat="41.9548271" lon="13.5336029"><ele>692.0</ele><time>2026-03-24T11:58:59.961Z</time></trkpt><trkpt lat="41.9549025" lon="13.5336903"><ele>692.0</ele><time>2026-03-24T11:59:00.961Z</time></trkpt><trkpt lat="41.9549763" lon="13.5337815"><ele>692.0</ele><time>2026-03-24T11:59:01.961Z</time></trkpt><trkpt lat="41.9550502" lon="13.5338675"><ele>691.8</ele><time>2026-03-24T11:59:02.96Z</time></trkpt><trkpt lat="41.9551235" lon="13.533953"><ele>691.6</ele><time>2026-03-24T11:59:03.961Z</time></trkpt><trkpt lat="41.9552011" lon="13.5340478"><ele>691.4</ele><time>2026-03-24T11:59:04.96Z</time></trkpt><trkpt lat="41.9552853" lon="13.5341391"><ele>691.1999999999999</ele><time>2026-03-24T11:59:05.96Z</time></trkpt><trkpt lat="41.9553712" lon="13.5342317"><ele>691.0</ele><time>2026-03-24T11:59:06.96Z</time></trkpt><trkpt lat="41.9554555" lon="13.5343272"><ele>691.0</ele><time>2026-03-24T11:59:07.961Z</time></trkpt><trkpt lat="41.9555337" lon="13.5344168"><ele>691.0</ele><time>2026-03-24T11:59:08.961Z</time></trkpt><trkpt lat="41.9556089" lon="13.5345014"><ele>691.0</ele><time>2026-03-24T11:59:09.961Z</time></trkpt><trkpt lat="41.9556804" lon="13.5345804"><ele>691.0</ele><time>2026-03-24T11:59:10.96Z</time></trkpt><trkpt lat="41.9557496" lon="13.5346573"><ele>691.0</ele><time>2026-03-24T11:59:11.96Z</time></trkpt><trkpt lat="41.9558188" lon="13.5347264"><ele>691.0</ele><time>2026-03-24T11:59:12.96Z</time></trkpt><trkpt lat="41.9558879" lon="13.5348016"><ele>691.0</ele><time>2026-03-24T11:59:13.96Z</time></trkpt><trkpt lat="41.9559534" lon="13.5348764"><ele>691.0</ele><time>2026-03-24T11:59:14.961Z</time></trkpt><trkpt lat="41.9560187" lon="13.5349569"><ele>691.0</ele><time>2026-03-24T11:59:15.96Z</time></trkpt><trkpt lat="41.9560789" lon="13.5350387"><ele>691.0</ele><time>2026-03-24T11:59:16.96Z</time></trkpt><trkpt lat="41.9561379" lon="13.5351268"><ele>691.0</ele><time>2026-03-24T11:59:17.96Z</time></trkpt><trkpt lat="41.956194" lon="13.5352052"><ele>691.0</ele><time>2026-03-24T11:59:18.96Z</time></trkpt><trkpt lat="41.9562453" lon="13.5352841"><ele>691.0</ele><time>2026-03-24T11:59:19.96Z</time></trkpt><trkpt lat="41.9562946" lon="13.5353762"><ele>691.0</ele><time>2026-03-24T11:59:20.961Z</time></trkpt><trkpt lat="41.9563438" lon="13.5354756"><ele>691.0</ele><time>2026-03-24T11:59:21.96Z</time></trkpt><trkpt lat="41.9563907" lon="13.5355797"><ele>691.0</ele><time>2026-03-24T11:59:22.96Z</time></trkpt><trkpt lat="41.9564379" lon="13.5356789"><ele>691.0</ele><time>2026-03-24T11:59:23.96Z</time></trkpt><trkpt lat="41.9564778" lon="13.5357757"><ele>691.1666666666667</ele><time>2026-03-24T11:59:24.96Z</time></trkpt><trkpt lat="41.9565175" lon="13.5358619"><ele>691.3333333333334</ele><time>2026-03-24T11:59:25.96Z</time></trkpt><trkpt lat="41.9565532" lon="13.5359367"><ele>691.5</ele><time>2026-03-24T11:59:26.961Z</time></trkpt><trkpt lat="41.9566003" lon="13.5360233"><ele>691.6666666666666</ele><time>2026-03-24T11:59:28.961Z</time></trkpt><trkpt lat="41.9566438" lon="13.5361108"><ele>691.8333333333333</ele><time>2026-03-24T11:59:31.96Z</time></trkpt><trkpt lat="41.9566943" lon="13.5362192"><ele>692.0</ele><time>2026-03-24T11:59:42.96Z</time></trkpt><trkpt lat="41.9567309" lon="13.5363087"><ele>691.6666666666666</ele><time>2026-03-24T11:59:44.961Z</time></trkpt><trkpt lat="41.956766" lon="13.5364359"><ele>691.3333333333333</ele><time>2026-03-24T11:59:46.96Z</time></trkpt><trkpt lat="41.9567913" lon="13.5365412"><ele>691.0</ele><time>2026-03-24T11:59:48.961Z</time></trkpt><trkpt lat="41.9568183" lon="13.5366366"><ele>690.6666666666666</ele><time>2026-03-24T11:59:51.96Z</time></trkpt><trkpt lat="41.9568597" lon="13.5367591"><ele>690.3333333333334</ele><time>2026-03-24T11:59:53.96Z</time></trkpt><trkpt lat="41.9568913" lon="13.5368471"><ele>690.0</ele><time>2026-03-24T11:59:54.96Z</time></trkpt><trkpt lat="41.9569324" lon="13.53695"><ele>689.8</ele><time>2026-03-24T11:59:55.961Z</time></trkpt><trkpt lat="41.9569752" lon="13.5370594"><ele>689.6</ele><time>2026-03-24T11:59:56.96Z</time></trkpt><trkpt lat="41.9570195" lon="13.537177"><ele>689.4000000000001</ele><time>2026-03-24T11:59:57.96Z</time></trkpt><trkpt lat="41.9570565" lon="13.5372959"><ele>689.2</ele><time>2026-03-24T11:59:58.961Z</time></trkpt><trkpt lat="41.9570881" lon="13.5374181"><ele>689.0</ele><time>2026-03-24T11:59:59.96Z</time></trkpt><trkpt lat="41.9571202" lon="13.5375419"><ele>689.0</ele><time>2026-03-24T12:00:00.961Z</time></trkpt><trkpt lat="41.9571538" lon="13.537653"><ele>689.0</ele><time>2026-03-24T12:00:01.96Z</time></trkpt><trkpt lat="41.9571831" lon="13.5377578"><ele>689.0</ele><time>2026-03-24T12:00:02.96Z</time></trkpt><trkpt lat="41.9572098" lon="13.5378572"><ele>689.0</ele><time>2026-03-24T12:00:03.961Z</time></trkpt><trkpt lat="41.9572324" lon="13.5379599"><ele>689.0</ele><time>2026-03-24T12:00:04.96Z</time></trkpt><trkpt lat="41.9572582" lon="13.5380658"><ele>689.0</ele><time>2026-03-24T12:00:05.96Z</time></trkpt><trkpt lat="41.9572877" lon="13.5381789"><ele>689.8000000000001</ele><time>2026-03-24T12:00:06.961Z</time></trkpt><trkpt lat="41.9573159" lon="13.5382976"><ele>690.6</ele><time>2026-03-24T12:00:07.961Z</time></trkpt><trkpt lat="41.9573438" lon="13.5384138"><ele>691.4</ele><time>2026-03-24T12:00:08.96Z</time></trkpt><trkpt lat="41.957376" lon="13.5385277"><ele>692.2</ele><time>2026-03-24T12:00:09.96Z</time></trkpt><trkpt lat="41.9574132" lon="13.5386378"><ele>693.0</ele><time>2026-03-24T12:00:10.96Z</time></trkpt><trkpt lat="41.9574558" lon="13.538742"><ele>693.1428571428571</ele><time>2026-03-24T12:00:11.96Z</time></trkpt><trkpt lat="41.9575017" lon="13.5388355"><ele>693.2857142857142</ele><time>2026-03-24T12:00:12.961Z</time></trkpt><trkpt lat="41.9575471" lon="13.5389181"><ele>693.4285714285714</ele><time>2026-03-24T12:00:13.96Z</time></trkpt><trkpt lat="41.9575903" lon="13.5389911"><ele>693.5714285714286</ele><time>2026-03-24T12:00:14.961Z</time></trkpt><trkpt lat="41.9576225" lon="13.5390674"><ele>693.7142857142857</ele><time>2026-03-24T12:00:15.96Z</time></trkpt><trkpt lat="41.9576454" lon="13.5391468"><ele>693.8571428571429</ele><time>2026-03-24T12:00:16.961Z</time></trkpt><trkpt lat="41.9576631" lon="13.5392485"><ele>694.0</ele><time>2026-03-24T12:00:17.96Z</time></trkpt><trkpt lat="41.9576724" lon="13.5393607"><ele>693.5</ele><time>2026-03-24T12:00:18.96Z</time></trkpt><trkpt lat="41.9576834" lon="13.5394747"><ele>693.0</ele><time>2026-03-24T12:00:19.96Z</time></trkpt><trkpt lat="41.9576945" lon="13.5395866"><ele>692.5</ele><time>2026-03-24T12:00:20.961Z</time></trkpt><trkpt lat="41.9576987" lon="13.5396913"><ele>692.0</ele><time>2026-03-24T12:00:21.96Z</time></trkpt><trkpt lat="41.9577028" lon="13.5397894"><ele>691.5</ele><time>2026-03-24T12:00:22.961Z</time></trkpt><trkpt lat="41.9577054" lon="13.5398829"><ele>691.0</ele><time>2026-03-24T12:00:23.96Z</time></trkpt><trkpt lat="41.9577275" lon="13.5400411"><ele>690.6666666666667</ele><time>2026-03-24T12:00:25.961Z</time></trkpt><trkpt lat="41.9577581" lon="13.5401206"><ele>690.3333333333334</ele><time>2026-03-24T12:00:26.96Z</time></trkpt><trkpt lat="41.9577953" lon="13.5402054"><ele>690.0</ele><time>2026-03-24T12:00:27.96Z</time></trkpt><trkpt lat="41.957834" lon="13.5402985"><ele>689.6666666666666</ele><time>2026-03-24T12:00:28.96Z</time></trkpt><trkpt lat="41.9578782" lon="13.5403964"><ele>689.3333333333333</ele><time>2026-03-24T12:00:29.96Z</time></trkpt><trkpt lat="41.9579192" lon="13.5405038"><ele>689.0</ele><time>2026-03-24T12:00:30.96Z</time></trkpt><trkpt lat="41.9579645" lon="13.540613"><ele>689.0</ele><time>2026-03-24T12:00:31.961Z</time></trkpt><trkpt lat="41.9580198" lon="13.5407197"><ele>689.0</ele><time>2026-03-24T12:00:32.96Z</time></trkpt><trkpt lat="41.9580679" lon="13.5408182"><ele>689.0</ele><time>2026-03-24T12:00:33.96Z</time></trkpt><trkpt lat="41.9581082" lon="13.5408974"><ele>689.0</ele><time>2026-03-24T12:00:34.96Z</time></trkpt><trkpt lat="41.9581736" lon="13.5410328"><ele>689.0</ele><time>2026-03-24T12:00:36.96Z</time></trkpt><trkpt lat="41.9582389" lon="13.5411769"><ele>689.8571428571429</ele><time>2026-03-24T12:00:38.961Z</time></trkpt><trkpt lat="41.9582754" lon="13.5412483"><ele>690.7142857142858</ele><time>2026-03-24T12:00:39.961Z</time></trkpt><trkpt lat="41.9583201" lon="13.5413215"><ele>691.5714285714287</ele><time>2026-03-24T12:00:40.96Z</time></trkpt><trkpt lat="41.9583666" lon="13.5413959"><ele>692.4285714285714</ele><time>2026-03-24T12:00:41.96Z</time></trkpt><trkpt lat="41.9584161" lon="13.5414783"><ele>693.2857142857143</ele><time>2026-03-24T12:00:42.96Z</time></trkpt><trkpt lat="41.9584629" lon="13.5415626"><ele>694.1428571428572</ele><time>2026-03-24T12:00:43.961Z</time></trkpt><trkpt lat="41.9585119" lon="13.5416476"><ele>695.0</ele><time>2026-03-24T12:00:44.96Z</time></trkpt><trkpt lat="41.9585655" lon="13.5417323"><ele>691.6666666666666</ele><time>2026-03-24T12:00:45.96Z</time></trkpt><trkpt lat="41.9586217" lon="13.5418194"><ele>688.3333333333333</ele><time>2026-03-24T12:00:46.961Z</time></trkpt><trkpt lat="41.9586797" lon="13.5419037"><ele>685.0</ele><time>2026-03-24T12:00:47.961Z</time></trkpt><trkpt lat="41.9587365" lon="13.5419885"><ele>681.6666666666666</ele><time>2026-03-24T12:00:48.96Z</time></trkpt><trkpt lat="41.9588037" lon="13.5420622"><ele>678.3333333333334</ele><time>2026-03-24T12:00:49.96Z</time></trkpt><trkpt lat="41.9588677" lon="13.5421283"><ele>675.0</ele><time>2026-03-24T12:00:50.961Z</time></trkpt><trkpt lat="41.958943" lon="13.5421877"><ele>675.0</ele><time>2026-03-24T12:00:51.96Z</time></trkpt><trkpt lat="41.9590229" lon="13.5422312"><ele>675.0</ele><time>2026-03-24T12:00:52.96Z</time></trkpt><trkpt lat="41.9591015" lon="13.5422741"><ele>675.0</ele><time>2026-03-24T12:00:53.961Z</time></trkpt><trkpt lat="41.959182" lon="13.5423184"><ele>675.0</ele><time>2026-03-24T12:00:54.96Z</time></trkpt><trkpt lat="41.9592583" lon="13.5423683"><ele>675.0</ele><time>2026-03-24T12:00:55.96Z</time></trkpt><trkpt lat="41.9593366" lon="13.5424295"><ele>675.0</ele><time>2026-03-24T12:00:56.961Z</time></trkpt><trkpt lat="41.9594125" lon="13.542492"><ele>673.0</ele><time>2026-03-24T12:00:57.96Z</time></trkpt><trkpt lat="41.9594961" lon="13.5425502"><ele>671.0</ele><time>2026-03-24T12:00:58.96Z</time></trkpt><trkpt lat="41.9595865" lon="13.5425987"><ele>669.0</ele><time>2026-03-24T12:00:59.961Z</time></trkpt><trkpt lat="41.9596682" lon="13.5426532"><ele>667.0</ele><time>2026-03-24T12:01:00.959Z</time></trkpt><trkpt lat="41.9597513" lon="13.5427015"><ele>665.0</ele><time>2026-03-24T12:01:01.96Z</time></trkpt><trkpt lat="41.9598206" lon="13.5427457"><ele>665.0</ele><time>2026-03-24T12:01:02.96Z</time></trkpt><trkpt lat="41.9599222" lon="13.5428042"><ele>665.0</ele><time>2026-03-24T12:01:04.96Z</time></trkpt><trkpt lat="41.9599606" lon="13.5429052"><ele>665.0</ele><time>2026-03-24T12:01:10.96Z</time></trkpt><trkpt lat="41.959928" lon="13.5429815"><ele>665.0</ele><time>2026-03-24T12:01:11.96Z</time></trkpt><trkpt lat="41.9598651" lon="13.5431537"><ele>665.0</ele><time>2026-03-24T12:01:13.96Z</time></trkpt><trkpt lat="41.9598185" lon="13.5432577"><ele>664.4</ele><time>2026-03-24T12:01:14.96Z</time></trkpt><trkpt lat="41.9597753" lon="13.5433657"><ele>663.8</ele><time>2026-03-24T12:01:15.96Z</time></trkpt><trkpt lat="41.9597268" lon="13.5434844"><ele>663.2</ele><time>2026-03-24T12:01:16.96Z</time></trkpt><trkpt lat="41.9596765" lon="13.5436144"><ele>662.6</ele><time>2026-03-24T12:01:17.96Z</time></trkpt><trkpt lat="41.9596327" lon="13.5437478"><ele>662.0</ele><time>2026-03-24T12:01:18.961Z</time></trkpt><trkpt lat="41.9595904" lon="13.5438822"><ele>661.8</ele><time>2026-03-24T12:01:19.96Z</time></trkpt><trkpt lat="41.9595509" lon="13.5440182"><ele>661.6</ele><time>2026-03-24T12:01:20.961Z</time></trkpt><trkpt lat="41.9595195" lon="13.544161"><ele>661.4</ele><time>2026-03-24T12:01:21.961Z</time></trkpt><trkpt lat="41.9594964" lon="13.5443119"><ele>661.1999999999999</ele><time>2026-03-24T12:01:22.96Z</time></trkpt><trkpt lat="41.9594779" lon="13.544464"><ele>661.0</ele><time>2026-03-24T12:01:23.96Z</time></trkpt><trkpt lat="41.9594654" lon="13.5446215"><ele>661.0</ele><time>2026-03-24T12:01:24.961Z</time></trkpt><trkpt lat="41.9594556" lon="13.544777"><ele>661.0</ele><time>2026-03-24T12:01:25.96Z</time></trkpt><trkpt lat="41.959447" lon="13.5449332"><ele>661.0</ele><time>2026-03-24T12:01:26.961Z</time></trkpt><trkpt lat="41.9594395" lon="13.5450925"><ele>661.0</ele><time>2026-03-24T12:01:27.96Z</time></trkpt><trkpt lat="41.9594321" lon="13.5452499"><ele>661.0</ele><time>2026-03-24T12:01:28.96Z</time></trkpt><trkpt lat="41.9594314" lon="13.5454085"><ele>661.0</ele><time>2026-03-24T12:01:29.961Z</time></trkpt><trkpt lat="41.959432" lon="13.5455634"><ele>661.0</ele><time>2026-03-24T12:01:30.96Z</time></trkpt><trkpt lat="41.9594341" lon="13.5457238"><ele>661.0</ele><time>2026-03-24T12:01:31.961Z</time></trkpt><trkpt lat="41.9594411" lon="13.5458905"><ele>661.0</ele><time>2026-03-24T12:01:32.96Z</time></trkpt><trkpt lat="41.9594521" lon="13.5460564"><ele>661.0</ele><time>2026-03-24T12:01:33.96Z</time></trkpt><trkpt lat="41.9594716" lon="13.5462189"><ele>661.0</ele><time>2026-03-24T12:01:34.96Z</time></trkpt><trkpt lat="41.9594893" lon="13.5463726"><ele>661.0</ele><time>2026-03-24T12:01:35.961Z</time></trkpt><trkpt lat="41.9595184" lon="13.5465117"><ele>661.0</ele><time>2026-03-24T12:01:36.96Z</time></trkpt><trkpt lat="41.9595551" lon="13.546645"><ele>661.0</ele><time>2026-03-24T12:01:37.96Z</time></trkpt><trkpt lat="41.9595927" lon="13.5467812"><ele>661.0</ele><time>2026-03-24T12:01:38.96Z</time></trkpt><trkpt lat="41.9596332" lon="13.5469198"><ele>661.0</ele><time>2026-03-24T12:01:39.96Z</time></trkpt><trkpt lat="41.9596773" lon="13.5470652"><ele>661.0</ele><time>2026-03-24T12:01:40.96Z</time></trkpt><trkpt lat="41.9597189" lon="13.5472156"><ele>661.0</ele><time>2026-03-24T12:01:41.96Z</time></trkpt><trkpt lat="41.9597652" lon="13.5473748"><ele>661.0</ele><time>2026-03-24T12:01:42.96Z</time></trkpt><trkpt lat="41.9598121" lon="13.54753"><ele>661.0</ele><time>2026-03-24T12:01:43.96Z</time></trkpt><trkpt lat="41.9598574" lon="13.5476808"><ele>661.0</ele><time>2026-03-24T12:01:44.96Z</time></trkpt><trkpt lat="41.9599019" lon="13.5478251"><ele>660.75</ele><time>2026-03-24T12:01:45.96Z</time></trkpt><trkpt lat="41.9599506" lon="13.5479686"><ele>660.5</ele><time>2026-03-24T12:01:46.961Z</time></trkpt><trkpt lat="41.960002" lon="13.5481165"><ele>660.25</ele><time>2026-03-24T12:01:47.96Z</time></trkpt><trkpt lat="41.9600599" lon="13.5482629"><ele>660.0</ele><time>2026-03-24T12:01:48.96Z</time></trkpt><trkpt lat="41.9601243" lon="13.5484019"><ele>660.0</ele><time>2026-03-24T12:01:49.961Z</time></trkpt><trkpt lat="41.9601821" lon="13.5485317"><ele>660.0</ele><time>2026-03-24T12:01:50.96Z</time></trkpt><trkpt lat="41.9602364" lon="13.548655"><ele>660.0</ele><time>2026-03-24T12:01:51.961Z</time></trkpt><trkpt lat="41.9602894" lon="13.5487734"><ele>660.0</ele><time>2026-03-24T12:01:52.96Z</time></trkpt><trkpt lat="41.9603443" lon="13.5488908"><ele>660.0</ele><time>2026-03-24T12:01:53.961Z</time></trkpt><trkpt lat="41.9603985" lon="13.5489991"><ele>660.1666666666666</ele><time>2026-03-24T12:01:54.96Z</time></trkpt><trkpt lat="41.9604477" lon="13.5491046"><ele>660.3333333333334</ele><time>2026-03-24T12:01:55.961Z</time></trkpt><trkpt lat="41.9604897" lon="13.5491936"><ele>660.5</ele><time>2026-03-24T12:01:56.96Z</time></trkpt><trkpt lat="41.9605292" lon="13.5492782"><ele>660.6666666666667</ele><time>2026-03-24T12:01:57.961Z</time></trkpt><trkpt lat="41.9605692" lon="13.5493569"><ele>660.8333333333334</ele><time>2026-03-24T12:01:58.96Z</time></trkpt><trkpt lat="41.960607" lon="13.5494339"><ele>661.0</ele><time>2026-03-24T12:01:59.96Z</time></trkpt><trkpt lat="41.9606778" lon="13.5495916"><ele>661.75</ele><time>2026-03-24T12:02:01.96Z</time></trkpt><trkpt lat="41.9607273" lon="13.5496927"><ele>662.5</ele><time>2026-03-24T12:02:02.96Z</time></trkpt><trkpt lat="41.9607848" lon="13.5498126"><ele>663.25</ele><time>2026-03-24T12:02:03.961Z</time></trkpt><trkpt lat="41.9608496" lon="13.5499607"><ele>664.0</ele><time>2026-03-24T12:02:04.96Z</time></trkpt><trkpt lat="41.9609169" lon="13.5501322"><ele>662.0</ele><time>2026-03-24T12:02:05.96Z</time></trkpt><trkpt lat="41.9609943" lon="13.550328"><ele>660.0</ele><time>2026-03-24T12:02:06.96Z</time></trkpt><trkpt lat="41.9610748" lon="13.5505421"><ele>658.0</ele><time>2026-03-24T12:02:07.96Z</time></trkpt><trkpt lat="41.9611493" lon="13.550764"><ele>658.0</ele><time>2026-03-24T12:02:08.96Z</time></trkpt><trkpt lat="41.9612197" lon="13.5510043"><ele>658.0</ele><time>2026-03-24T12:02:09.961Z</time></trkpt><trkpt lat="41.9612853" lon="13.5512689"><ele>658.0</ele><time>2026-03-24T12:02:10.96Z</time></trkpt><trkpt lat="41.9613387" lon="13.5515336"><ele>658.6666666666667</ele><time>2026-03-24T12:02:11.96Z</time></trkpt><trkpt lat="41.9613849" lon="13.5517992"><ele>659.3333333333334</ele><time>2026-03-24T12:02:12.96Z</time></trkpt><trkpt lat="41.9614229" lon="13.5520723"><ele>660.0</ele><time>2026-03-24T12:02:13.961Z</time></trkpt><trkpt lat="41.9614481" lon="13.5523515"><ele>660.0</ele><time>2026-03-24T12:02:14.961Z</time></trkpt><trkpt lat="41.9614613" lon="13.5526238"><ele>660.0</ele><time>2026-03-24T12:02:15.96Z</time></trkpt><trkpt lat="41.9614707" lon="13.5529031"><ele>660.0</ele><time>2026-03-24T12:02:16.96Z</time></trkpt><trkpt lat="41.9614768" lon="13.5531804"><ele>660.0</ele><time>2026-03-24T12:02:17.96Z</time></trkpt><trkpt lat="41.9614803" lon="13.5534554"><ele>660.0</ele><time>2026-03-24T12:02:18.96Z</time></trkpt><trkpt lat="41.9614843" lon="13.5537282"><ele>660.0</ele><time>2026-03-24T12:02:19.961Z</time></trkpt><trkpt lat="41.9614902" lon="13.5540007"><ele>660.3333333333334</ele><time>2026-03-24T12:02:20.96Z</time></trkpt><trkpt lat="41.9614912" lon="13.554274"><ele>660.6666666666667</ele><time>2026-03-24T12:02:21.961Z</time></trkpt><trkpt lat="41.9614902" lon="13.5545455"><ele>661.0</ele><time>2026-03-24T12:02:22.96Z</time></trkpt><trkpt lat="41.9614907" lon="13.5548199"><ele>661.0</ele><time>2026-03-24T12:02:23.96Z</time></trkpt><trkpt lat="41.9614932" lon="13.5551018"><ele>661.0</ele><time>2026-03-24T12:02:24.96Z</time></trkpt><trkpt lat="41.9615023" lon="13.5553949"><ele>661.0</ele><time>2026-03-24T12:02:25.961Z</time></trkpt><trkpt lat="41.9615162" lon="13.555696"><ele>661.0</ele><time>2026-03-24T12:02:26.961Z</time></trkpt><trkpt lat="41.9615401" lon="13.5560016"><ele>661.0</ele><time>2026-03-24T12:02:27.961Z</time></trkpt><trkpt lat="41.9615679" lon="13.5563166"><ele>661.0</ele><time>2026-03-24T12:02:28.961Z</time></trkpt><trkpt lat="41.9616024" lon="13.5566326"><ele>661.0</ele><time>2026-03-24T12:02:29.96Z</time></trkpt><trkpt lat="41.9616387" lon="13.5569528"><ele>661.5</ele><time>2026-03-24T12:02:30.961Z</time></trkpt><trkpt lat="41.9616803" lon="13.5572806"><ele>662.0</ele><time>2026-03-24T12:02:31.96Z</time></trkpt><trkpt lat="41.9617196" lon="13.5576097"><ele>659.5</ele><time>2026-03-24T12:02:32.961Z</time></trkpt><trkpt lat="41.9617528" lon="13.5579435"><ele>657.0</ele><time>2026-03-24T12:02:33.96Z</time></trkpt><trkpt lat="41.9617795" lon="13.5582772"><ele>657.0</ele><time>2026-03-24T12:02:34.96Z</time></trkpt><trkpt lat="41.9617983" lon="13.558601"><ele>657.0</ele><time>2026-03-24T12:02:35.961Z</time></trkpt><trkpt lat="41.9618149" lon="13.5589226"><ele>657.0</ele><time>2026-03-24T12:02:36.96Z</time></trkpt><trkpt lat="41.9618204" lon="13.5592346"><ele>657.0</ele><time>2026-03-24T12:02:37.96Z</time></trkpt><trkpt lat="41.9618163" lon="13.5595436"><ele>657.0</ele><time>2026-03-24T12:02:38.96Z</time></trkpt><trkpt lat="41.9618068" lon="13.5598546"><ele>657.0</ele><time>2026-03-24T12:02:39.961Z</time></trkpt><trkpt lat="41.9617929" lon="13.5601743"><ele>657.0</ele><time>2026-03-24T12:02:40.961Z</time></trkpt><trkpt lat="41.9617846" lon="13.5604957"><ele>657.0</ele><time>2026-03-24T12:02:41.961Z</time></trkpt><trkpt lat="41.961781" lon="13.5608223"><ele>657.0</ele><time>2026-03-24T12:02:42.96Z</time></trkpt><trkpt lat="41.9617833" lon="13.5611504"><ele>657.0</ele><time>2026-03-24T12:02:43.961Z</time></trkpt><trkpt lat="41.9618052" lon="13.5614799"><ele>657.0</ele><time>2026-03-24T12:02:44.96Z</time></trkpt><trkpt lat="41.9618261" lon="13.5618102"><ele>657.0</ele><time>2026-03-24T12:02:45.96Z</time></trkpt><trkpt lat="41.9618477" lon="13.5621295"><ele>657.0</ele><time>2026-03-24T12:02:46.96Z</time></trkpt><trkpt lat="41.9618618" lon="13.5624356"><ele>657.0</ele><time>2026-03-24T12:02:47.96Z</time></trkpt><trkpt lat="41.9618668" lon="13.5627286"><ele>657.0</ele><time>2026-03-24T12:02:48.96Z</time></trkpt><trkpt lat="41.9618695" lon="13.5630198"><ele>657.0</ele><time>2026-03-24T12:02:49.961Z</time></trkpt><trkpt lat="41.9618545" lon="13.5633187"><ele>657.0</ele><time>2026-03-24T12:02:50.961Z</time></trkpt><trkpt lat="41.9618261" lon="13.5636218"><ele>657.0</ele><time>2026-03-24T12:02:51.96Z</time></trkpt><trkpt lat="41.9617892" lon="13.5639323"><ele>657.0</ele><time>2026-03-24T12:02:52.961Z</time></trkpt><trkpt lat="41.9617558" lon="13.5642481"><ele>656.5</ele><time>2026-03-24T12:02:53.96Z</time></trkpt><trkpt lat="41.9617233" lon="13.5645725"><ele>656.0</ele><time>2026-03-24T12:02:54.96Z</time></trkpt><trkpt lat="41.9616932" lon="13.5649041"><ele>659.5</ele><time>2026-03-24T12:02:55.96Z</time></trkpt><trkpt lat="41.961666" lon="13.5652411"><ele>663.0</ele><time>2026-03-24T12:02:56.96Z</time></trkpt><trkpt lat="41.9616385" lon="13.5655805"><ele>663.0</ele><time>2026-03-24T12:02:57.96Z</time></trkpt><trkpt lat="41.9616117" lon="13.5659232"><ele>663.0</ele><time>2026-03-24T12:02:58.96Z</time></trkpt><trkpt lat="41.961589" lon="13.5662673"><ele>662.5</ele><time>2026-03-24T12:02:59.96Z</time></trkpt><trkpt lat="41.9615639" lon="13.5666132"><ele>662.0</ele><time>2026-03-24T12:03:00.96Z</time></trkpt><trkpt lat="41.9615381" lon="13.5669615"><ele>660.5</ele><time>2026-03-24T12:03:01.96Z</time></trkpt><trkpt lat="41.9615096" lon="13.5673096"><ele>659.0</ele><time>2026-03-24T12:03:02.961Z</time></trkpt><trkpt lat="41.9614834" lon="13.5676579"><ele>658.5</ele><time>2026-03-24T12:03:03.96Z</time></trkpt><trkpt lat="41.96146" lon="13.5680086"><ele>658.0</ele><time>2026-03-24T12:03:04.96Z</time></trkpt><trkpt lat="41.9614356" lon="13.5683586"><ele>659.0</ele><time>2026-03-24T12:03:05.96Z</time></trkpt><trkpt lat="41.9614114" lon="13.5687012"><ele>660.0</ele><time>2026-03-24T12:03:06.96Z</time></trkpt><trkpt lat="41.9613948" lon="13.5690432"><ele>660.0</ele><time>2026-03-24T12:03:07.96Z</time></trkpt><trkpt lat="41.9613762" lon="13.5693834"><ele>660.0</ele><time>2026-03-24T12:03:08.961Z</time></trkpt><trkpt lat="41.961354" lon="13.5697202"><ele>660.0</ele><time>2026-03-24T12:03:09.96Z</time></trkpt><trkpt lat="41.9613342" lon="13.5700552"><ele>660.0</ele><time>2026-03-24T12:03:10.96Z</time></trkpt><trkpt lat="41.961318" lon="13.570388"><ele>659.5</ele><time>2026-03-24T12:03:11.96Z</time></trkpt><trkpt lat="41.9613048" lon="13.570703"><ele>659.0</ele><time>2026-03-24T12:03:12.961Z</time></trkpt><trkpt lat="41.9612922" lon="13.5710022"><ele>659.0</ele><time>2026-03-24T12:03:13.96Z</time></trkpt><trkpt lat="41.9612788" lon="13.5712807"><ele>659.0</ele><time>2026-03-24T12:03:14.96Z</time></trkpt><trkpt lat="41.9612599" lon="13.571544"><ele>659.0</ele><time>2026-03-24T12:03:15.96Z</time></trkpt><trkpt lat="41.9612249" lon="13.571812"><ele>658.6666666666666</ele><time>2026-03-24T12:03:16.96Z</time></trkpt><trkpt lat="41.9611734" lon="13.5720851"><ele>658.3333333333334</ele><time>2026-03-24T12:03:17.96Z</time></trkpt><trkpt lat="41.9611057" lon="13.5723652"><ele>658.0</ele><time>2026-03-24T12:03:18.96Z</time></trkpt><trkpt lat="41.9610292" lon="13.5726521"><ele>658.0</ele><time>2026-03-24T12:03:19.96Z</time></trkpt><trkpt lat="41.960947" lon="13.5729418"><ele>658.0</ele><time>2026-03-24T12:03:20.961Z</time></trkpt><trkpt lat="41.9608578" lon="13.5732357"><ele>659.5</ele><time>2026-03-24T12:03:21.96Z</time></trkpt><trkpt lat="41.9607646" lon="13.5735343"><ele>661.0</ele><time>2026-03-24T12:03:22.96Z</time></trkpt><trkpt lat="41.9606704" lon="13.5738376"><ele>661.0</ele><time>2026-03-24T12:03:23.961Z</time></trkpt><trkpt lat="41.9605709" lon="13.5741359"><ele>661.0</ele><time>2026-03-24T12:03:24.961Z</time></trkpt><trkpt lat="41.9604718" lon="13.5744271"><ele>659.5</ele><time>2026-03-24T12:03:25.961Z</time></trkpt><trkpt lat="41.960365" lon="13.5747097"><ele>658.0</ele><time>2026-03-24T12:03:26.96Z</time></trkpt><trkpt lat="41.9602505" lon="13.574986"><ele>658.0</ele><time>2026-03-24T12:03:27.96Z</time></trkpt><trkpt lat="41.9601341" lon="13.5752618"><ele>658.0</ele><time>2026-03-24T12:03:28.96Z</time></trkpt><trkpt lat="41.9600149" lon="13.5755338"><ele>660.5</ele><time>2026-03-24T12:03:29.96Z</time></trkpt><trkpt lat="41.9598968" lon="13.5758026"><ele>663.0</ele><time>2026-03-24T12:03:30.96Z</time></trkpt><trkpt lat="41.9597801" lon="13.5760702"><ele>661.0</ele><time>2026-03-24T12:03:31.96Z</time></trkpt><trkpt lat="41.9596646" lon="13.5763327"><ele>659.0</ele><time>2026-03-24T12:03:32.96Z</time></trkpt><trkpt lat="41.9595533" lon="13.5765945"><ele>659.0</ele><time>2026-03-24T12:03:33.96Z</time></trkpt><trkpt lat="41.9594383" lon="13.5768499"><ele>659.0</ele><time>2026-03-24T12:03:34.961Z</time></trkpt><trkpt lat="41.9593246" lon="13.577101"><ele>659.0</ele><time>2026-03-24T12:03:35.96Z</time></trkpt><trkpt lat="41.9592133" lon="13.5773438"><ele>658.6666666666666</ele><time>2026-03-24T12:03:36.96Z</time></trkpt><trkpt lat="41.959098" lon="13.5775838"><ele>658.3333333333334</ele><time>2026-03-24T12:03:37.96Z</time></trkpt><trkpt lat="41.9589891" lon="13.5778072"><ele>658.0</ele><time>2026-03-24T12:03:38.96Z</time></trkpt><trkpt lat="41.9588822" lon="13.5780235"><ele>658.0</ele><time>2026-03-24T12:03:39.96Z</time></trkpt><trkpt lat="41.9587795" lon="13.578229"><ele>658.0</ele><time>2026-03-24T12:03:40.96Z</time></trkpt><trkpt lat="41.9586776" lon="13.578436"><ele>658.0</ele><time>2026-03-24T12:03:41.96Z</time></trkpt><trkpt lat="41.9585696" lon="13.5786427"><ele>657.6666666666667</ele><time>2026-03-24T12:03:42.961Z</time></trkpt><trkpt lat="41.9584599" lon="13.5788498"><ele>657.3333333333334</ele><time>2026-03-24T12:03:43.96Z</time></trkpt><trkpt lat="41.9583576" lon="13.579055"><ele>657.0</ele><time>2026-03-24T12:03:44.961Z</time></trkpt><trkpt lat="41.9582552" lon="13.5792527"><ele>657.3333333333334</ele><time>2026-03-24T12:03:45.96Z</time></trkpt><trkpt lat="41.9581521" lon="13.5794449"><ele>657.6666666666667</ele><time>2026-03-24T12:03:46.96Z</time></trkpt><trkpt lat="41.9580463" lon="13.5796287"><ele>658.0</ele><time>2026-03-24T12:03:47.961Z</time></trkpt><trkpt lat="41.9579385" lon="13.5798125"><ele>658.0</ele><time>2026-03-24T12:03:48.96Z</time></trkpt><trkpt lat="41.9578157" lon="13.5800141"><ele>658.0</ele><time>2026-03-24T12:03:49.96Z</time></trkpt><trkpt lat="41.9576717" lon="13.5802208"><ele>658.0</ele><time>2026-03-24T12:03:50.96Z</time></trkpt><trkpt lat="41.95752" lon="13.5804358"><ele>659.0</ele><time>2026-03-24T12:03:51.96Z</time></trkpt><trkpt lat="41.9573632" lon="13.5806575"><ele>660.0</ele><time>2026-03-24T12:03:52.96Z</time></trkpt><trkpt lat="41.957206" lon="13.5808768"><ele>660.0</ele><time>2026-03-24T12:03:53.96Z</time></trkpt><trkpt lat="41.9570478" lon="13.5811063"><ele>660.0</ele><time>2026-03-24T12:03:54.961Z</time></trkpt><trkpt lat="41.9568936" lon="13.5813322"><ele>659.0</ele><time>2026-03-24T12:03:55.961Z</time></trkpt><trkpt lat="41.9567344" lon="13.5815641"><ele>658.0</ele><time>2026-03-24T12:03:56.96Z</time></trkpt><trkpt lat="41.9565767" lon="13.5818027"><ele>658.5</ele><time>2026-03-24T12:03:57.96Z</time></trkpt><trkpt lat="41.9564182" lon="13.582034"><ele>659.0</ele><time>2026-03-24T12:03:58.961Z</time></trkpt><trkpt lat="41.9562658" lon="13.5822645"><ele>659.0</ele><time>2026-03-24T12:03:59.961Z</time></trkpt><trkpt lat="41.9561182" lon="13.5824956"><ele>659.0</ele><time>2026-03-24T12:04:00.96Z</time></trkpt><trkpt lat="41.955971" lon="13.5827225"><ele>660.3333333333333</ele><time>2026-03-24T12:04:01.961Z</time></trkpt><trkpt lat="41.9558238" lon="13.5829459"><ele>661.6666666666666</ele><time>2026-03-24T12:04:02.96Z</time></trkpt><trkpt lat="41.9556773" lon="13.5831689"><ele>663.0</ele><time>2026-03-24T12:04:03.96Z</time></trkpt><trkpt lat="41.9555285" lon="13.5833889"><ele>663.0</ele><time>2026-03-24T12:04:04.961Z</time></trkpt><trkpt lat="41.9553813" lon="13.5836073"><ele>663.0</ele><time>2026-03-24T12:04:05.96Z</time></trkpt><trkpt lat="41.9552229" lon="13.5838152"><ele>663.0</ele><time>2026-03-24T12:04:06.96Z</time></trkpt><trkpt lat="41.9550588" lon="13.584024"><ele>662.5</ele><time>2026-03-24T12:04:07.96Z</time></trkpt><trkpt lat="41.9548839" lon="13.5842242"><ele>662.0</ele><time>2026-03-24T12:04:08.96Z</time></trkpt><trkpt lat="41.9547042" lon="13.5844234"><ele>660.5</ele><time>2026-03-24T12:04:09.961Z</time></trkpt><trkpt lat="41.9545204" lon="13.5846231"><ele>659.0</ele><time>2026-03-24T12:04:10.961Z</time></trkpt><trkpt lat="41.9543344" lon="13.5848233"><ele>661.0</ele><time>2026-03-24T12:04:11.961Z</time></trkpt><trkpt lat="41.954152" lon="13.5850283"><ele>663.0</ele><time>2026-03-24T12:04:12.961Z</time></trkpt><trkpt lat="41.9539722" lon="13.585237"><ele>661.5</ele><time>2026-03-24T12:04:13.96Z</time></trkpt><trkpt lat="41.9537965" lon="13.5854544"><ele>660.0</ele><time>2026-03-24T12:04:14.961Z</time></trkpt><trkpt lat="41.9536279" lon="13.5856819"><ele>660.0</ele><time>2026-03-24T12:04:15.96Z</time></trkpt><trkpt lat="41.9534679" lon="13.5859205"><ele>660.0</ele><time>2026-03-24T12:04:16.961Z</time></trkpt><trkpt lat="41.9533086" lon="13.5861634"><ele>660.0</ele><time>2026-03-24T12:04:17.96Z</time></trkpt><trkpt lat="41.9531518" lon="13.586415"><ele>660.0</ele><time>2026-03-24T12:04:18.961Z</time></trkpt><trkpt lat="41.9529987" lon="13.5866713"><ele>660.0</ele><time>2026-03-24T12:04:19.96Z</time></trkpt><trkpt lat="41.9528427" lon="13.5869193"><ele>660.0</ele><time>2026-03-24T12:04:20.961Z</time></trkpt><trkpt lat="41.9526887" lon="13.5871684"><ele>661.0</ele><time>2026-03-24T12:04:21.96Z</time></trkpt><trkpt lat="41.9525356" lon="13.5874131"><ele>662.0</ele><time>2026-03-24T12:04:22.961Z</time></trkpt><trkpt lat="41.9523847" lon="13.5876584"><ele>661.5</ele><time>2026-03-24T12:04:23.96Z</time></trkpt><trkpt lat="41.9522347" lon="13.5879029"><ele>661.0</ele><time>2026-03-24T12:04:24.961Z</time></trkpt><trkpt lat="41.9520876" lon="13.5881502"><ele>661.0</ele><time>2026-03-24T12:04:25.96Z</time></trkpt><trkpt lat="41.9519463" lon="13.5884052"><ele>661.0</ele><time>2026-03-24T12:04:26.96Z</time></trkpt><trkpt lat="41.9518085" lon="13.5886697"><ele>662.0</ele><time>2026-03-24T12:04:27.96Z</time></trkpt><trkpt lat="41.951674" lon="13.5889367"><ele>663.0</ele><time>2026-03-24T12:04:28.96Z</time></trkpt><trkpt lat="41.9515446" lon="13.5892129"><ele>663.0</ele><time>2026-03-24T12:04:29.961Z</time></trkpt><trkpt lat="41.9514127" lon="13.5894949"><ele>663.0</ele><time>2026-03-24T12:04:30.96Z</time></trkpt><trkpt lat="41.9512874" lon="13.5897761"><ele>661.0</ele><time>2026-03-24T12:04:31.961Z</time></trkpt><trkpt lat="41.9511656" lon="13.5900583"><ele>659.0</ele><time>2026-03-24T12:04:32.96Z</time></trkpt><trkpt lat="41.9510409" lon="13.5903414"><ele>659.0</ele><time>2026-03-24T12:04:33.961Z</time></trkpt><trkpt lat="41.9509138" lon="13.5906255"><ele>659.0</ele><time>2026-03-24T12:04:34.96Z</time></trkpt><trkpt lat="41.9507859" lon="13.5909088"><ele>659.5</ele><time>2026-03-24T12:04:35.961Z</time></trkpt><trkpt lat="41.950661" lon="13.5911938"><ele>660.0</ele><time>2026-03-24T12:04:36.96Z</time></trkpt><trkpt lat="41.9505426" lon="13.5914855"><ele>660.0</ele><time>2026-03-24T12:04:37.961Z</time></trkpt><trkpt lat="41.9504334" lon="13.5917791"><ele>660.0</ele><time>2026-03-24T12:04:38.96Z</time></trkpt><trkpt lat="41.9503337" lon="13.5920794"><ele>660.0</ele><time>2026-03-24T12:04:39.961Z</time></trkpt><trkpt lat="41.9502432" lon="13.5923885"><ele>660.0</ele><time>2026-03-24T12:04:40.96Z</time></trkpt><trkpt lat="41.9501604" lon="13.592698"><ele>659.5</ele><time>2026-03-24T12:04:41.961Z</time></trkpt><trkpt lat="41.9500748" lon="13.5930006"><ele>659.0</ele><time>2026-03-24T12:04:42.96Z</time></trkpt><trkpt lat="41.9499894" lon="13.593298"><ele>660.0</ele><time>2026-03-24T12:04:43.96Z</time></trkpt><trkpt lat="41.9499029" lon="13.5935928"><ele>661.0</ele><time>2026-03-24T12:04:44.961Z</time></trkpt><trkpt lat="41.9498193" lon="13.5938807"><ele>661.0</ele><time>2026-03-24T12:04:45.961Z</time></trkpt><trkpt lat="41.9497355" lon="13.5941662"><ele>661.0</ele><time>2026-03-24T12:04:46.961Z</time></trkpt><trkpt lat="41.9496549" lon="13.5944503"><ele>660.5</ele><time>2026-03-24T12:04:47.96Z</time></trkpt><trkpt lat="41.9495759" lon="13.5947444"><ele>660.0</ele><time>2026-03-24T12:04:48.961Z</time></trkpt><trkpt lat="41.9495114" lon="13.5950449"><ele>659.0</ele><time>2026-03-24T12:04:49.96Z</time></trkpt><trkpt lat="41.949452" lon="13.5953506"><ele>658.0</ele><time>2026-03-24T12:04:50.96Z</time></trkpt><trkpt lat="41.9493927" lon="13.595659"><ele>658.0</ele><time>2026-03-24T12:04:51.96Z</time></trkpt><trkpt lat="41.9493276" lon="13.595975"><ele>658.0</ele><time>2026-03-24T12:04:52.96Z</time></trkpt><trkpt lat="41.9492637" lon="13.5962952"><ele>658.5</ele><time>2026-03-24T12:04:53.96Z</time></trkpt><trkpt lat="41.9491978" lon="13.5966186"><ele>659.0</ele><time>2026-03-24T12:04:54.961Z</time></trkpt><trkpt lat="41.9491346" lon="13.5969524"><ele>658.5</ele><time>2026-03-24T12:04:55.96Z</time></trkpt><trkpt lat="41.9490683" lon="13.5972943"><ele>658.0</ele><time>2026-03-24T12:04:56.961Z</time></trkpt><trkpt lat="41.9490002" lon="13.5976527"><ele>658.0</ele><time>2026-03-24T12:04:57.961Z</time></trkpt><trkpt lat="41.9489274" lon="13.5980271"><ele>658.0</ele><time>2026-03-24T12:04:58.961Z</time></trkpt><trkpt lat="41.9488535" lon="13.5984129"><ele>658.5</ele><time>2026-03-24T12:04:59.961Z</time></trkpt><trkpt lat="41.948776" lon="13.5988085"><ele>659.0</ele><time>2026-03-24T12:05:00.961Z</time></trkpt><trkpt lat="41.9486997" lon="13.599212"><ele>659.0</ele><time>2026-03-24T12:05:01.96Z</time></trkpt><trkpt lat="41.9486192" lon="13.5996179"><ele>659.0</ele><time>2026-03-24T12:05:02.96Z</time></trkpt><trkpt lat="41.9485383" lon="13.6000383"><ele>658.5</ele><time>2026-03-24T12:05:03.96Z</time></trkpt><trkpt lat="41.9484563" lon="13.6004706"><ele>658.0</ele><time>2026-03-24T12:05:04.96Z</time></trkpt><trkpt lat="41.9483715" lon="13.6009123"><ele>659.0</ele><time>2026-03-24T12:05:05.96Z</time></trkpt><trkpt lat="41.9482816" lon="13.6013605"><ele>660.0</ele><time>2026-03-24T12:05:06.96Z</time></trkpt><trkpt lat="41.94819" lon="13.6018145"><ele>659.5</ele><time>2026-03-24T12:05:07.96Z</time></trkpt><trkpt lat="41.9480995" lon="13.6022634"><ele>659.0</ele><time>2026-03-24T12:05:08.96Z</time></trkpt><trkpt lat="41.9480121" lon="13.6027085"><ele>659.5</ele><time>2026-03-24T12:05:09.96Z</time></trkpt><trkpt lat="41.9479233" lon="13.6031572"><ele>660.0</ele><time>2026-03-24T12:05:10.96Z</time></trkpt><trkpt lat="41.9478356" lon="13.6036166"><ele>660.0</ele><time>2026-03-24T12:05:11.96Z</time></trkpt><trkpt lat="41.9477416" lon="13.6040861"><ele>660.0</ele><time>2026-03-24T12:05:12.961Z</time></trkpt><trkpt lat="41.9476444" lon="13.6045674"><ele>659.5</ele><time>2026-03-24T12:05:13.96Z</time></trkpt><trkpt lat="41.9475458" lon="13.6050522"><ele>659.0</ele><time>2026-03-24T12:05:14.961Z</time></trkpt><trkpt lat="41.9474506" lon="13.6055151"><ele>658.5</ele><time>2026-03-24T12:05:15.96Z</time></trkpt><trkpt lat="41.947363" lon="13.6059476"><ele>658.0</ele><time>2026-03-24T12:05:16.96Z</time></trkpt><trkpt lat="41.9472809" lon="13.6063521"><ele>658.0</ele><time>2026-03-24T12:05:17.96Z</time></trkpt><trkpt lat="41.9472047" lon="13.6067342"><ele>658.0</ele><time>2026-03-24T12:05:18.961Z</time></trkpt><trkpt lat="41.9471327" lon="13.6070919"><ele>658.5</ele><time>2026-03-24T12:05:19.96Z</time></trkpt><trkpt lat="41.9470653" lon="13.6074295"><ele>659.0</ele><time>2026-03-24T12:05:20.96Z</time></trkpt><trkpt lat="41.9470036" lon="13.6077506"><ele>659.0</ele><time>2026-03-24T12:05:21.96Z</time></trkpt><trkpt lat="41.9469398" lon="13.6080679"><ele>659.0</ele><time>2026-03-24T12:05:22.96Z</time></trkpt><trkpt lat="41.9468752" lon="13.6083858"><ele>658.5</ele><time>2026-03-24T12:05:23.96Z</time></trkpt><trkpt lat="41.9468134" lon="13.6087049"><ele>658.0</ele><time>2026-03-24T12:05:24.96Z</time></trkpt><trkpt lat="41.9467507" lon="13.609025"><ele>658.0</ele><time>2026-03-24T12:05:25.961Z</time></trkpt><trkpt lat="41.946688" lon="13.6093458"><ele>658.0</ele><time>2026-03-24T12:05:26.96Z</time></trkpt><trkpt lat="41.9466278" lon="13.6096658"><ele>658.5</ele><time>2026-03-24T12:05:27.96Z</time></trkpt><trkpt lat="41.9465666" lon="13.6099857"><ele>659.0</ele><time>2026-03-24T12:05:28.96Z</time></trkpt><trkpt lat="41.9465038" lon="13.6103046"><ele>659.5</ele><time>2026-03-24T12:05:29.96Z</time></trkpt><trkpt lat="41.9464399" lon="13.6106306"><ele>660.0</ele><time>2026-03-24T12:05:30.96Z</time></trkpt><trkpt lat="41.946374" lon="13.6109633"><ele>660.0</ele><time>2026-03-24T12:05:31.961Z</time></trkpt><trkpt lat="41.9463074" lon="13.6112953"><ele>660.0</ele><time>2026-03-24T12:05:32.961Z</time></trkpt><trkpt lat="41.9462425" lon="13.6116291"><ele>660.0</ele><time>2026-03-24T12:05:33.961Z</time></trkpt><trkpt lat="41.9461747" lon="13.6119593"><ele>660.0</ele><time>2026-03-24T12:05:34.961Z</time></trkpt><trkpt lat="41.9461099" lon="13.6122825"><ele>659.5</ele><time>2026-03-24T12:05:35.96Z</time></trkpt><trkpt lat="41.9460464" lon="13.6126012"><ele>659.0</ele><time>2026-03-24T12:05:36.96Z</time></trkpt><trkpt lat="41.945982" lon="13.6129155"><ele>659.0</ele><time>2026-03-24T12:05:37.961Z</time></trkpt><trkpt lat="41.9459214" lon="13.6132281"><ele>659.0</ele><time>2026-03-24T12:05:38.96Z</time></trkpt><trkpt lat="41.9458585" lon="13.6135432"><ele>660.5</ele><time>2026-03-24T12:05:39.96Z</time></trkpt><trkpt lat="41.9457984" lon="13.6138443"><ele>662.0</ele><time>2026-03-24T12:05:40.961Z</time></trkpt><trkpt lat="41.9457391" lon="13.6141397"><ele>662.0</ele><time>2026-03-24T12:05:41.96Z</time></trkpt><trkpt lat="41.9456827" lon="13.6144325"><ele>662.0</ele><time>2026-03-24T12:05:42.961Z</time></trkpt><trkpt lat="41.9456288" lon="13.6147123"><ele>662.0</ele><time>2026-03-24T12:05:43.961Z</time></trkpt><trkpt lat="41.945576" lon="13.6149856"><ele>661.6666666666666</ele><time>2026-03-24T12:05:44.96Z</time></trkpt><trkpt lat="41.9455185" lon="13.615253"><ele>661.3333333333334</ele><time>2026-03-24T12:05:45.96Z</time></trkpt><trkpt lat="41.9454561" lon="13.6155108"><ele>661.0</ele><time>2026-03-24T12:05:46.96Z</time></trkpt><trkpt lat="41.9453845" lon="13.6157595"><ele>661.0</ele><time>2026-03-24T12:05:47.961Z</time></trkpt><trkpt lat="41.9452976" lon="13.6160028"><ele>661.0</ele><time>2026-03-24T12:05:48.96Z</time></trkpt><trkpt lat="41.9452044" lon="13.6162493"><ele>661.0</ele><time>2026-03-24T12:05:49.96Z</time></trkpt><trkpt lat="41.945092" lon="13.6164882"><ele>661.3333333333334</ele><time>2026-03-24T12:05:50.96Z</time></trkpt><trkpt lat="41.9449659" lon="13.6167207"><ele>661.6666666666666</ele><time>2026-03-24T12:05:51.96Z</time></trkpt><trkpt lat="41.9448358" lon="13.6169469"><ele>662.0</ele><time>2026-03-24T12:05:52.96Z</time></trkpt><trkpt lat="41.9447093" lon="13.6171832"><ele>662.0</ele><time>2026-03-24T12:05:53.961Z</time></trkpt><trkpt lat="41.9445981" lon="13.6174352"><ele>662.0</ele><time>2026-03-24T12:05:54.96Z</time></trkpt><trkpt lat="41.9445018" lon="13.6177098"><ele>662.0</ele><time>2026-03-24T12:05:55.961Z</time></trkpt><trkpt lat="41.9444122" lon="13.6180003"><ele>661.0</ele><time>2026-03-24T12:05:56.96Z</time></trkpt><trkpt lat="41.9443201" lon="13.618302"><ele>660.0</ele><time>2026-03-24T12:05:57.961Z</time></trkpt><trkpt lat="41.9442379" lon="13.6186137"><ele>660.0</ele><time>2026-03-24T12:05:58.961Z</time></trkpt><trkpt lat="41.9441584" lon="13.6189376"><ele>660.0</ele><time>2026-03-24T12:05:59.96Z</time></trkpt><trkpt lat="41.9440806" lon="13.619269"><ele>660.5</ele><time>2026-03-24T12:06:00.96Z</time></trkpt><trkpt lat="41.9440019" lon="13.619601"><ele>661.0</ele><time>2026-03-24T12:06:01.96Z</time></trkpt><trkpt lat="41.9439212" lon="13.6199385"><ele>661.0</ele><time>2026-03-24T12:06:02.96Z</time></trkpt><trkpt lat="41.9438422" lon="13.6202758"><ele>661.0</ele><time>2026-03-24T12:06:03.96Z</time></trkpt><trkpt lat="41.9437651" lon="13.6206071"><ele>661.0</ele><time>2026-03-24T12:06:04.961Z</time></trkpt><trkpt lat="41.9436922" lon="13.6209221"><ele>661.0</ele><time>2026-03-24T12:06:05.961Z</time></trkpt><trkpt lat="41.943626" lon="13.621221"><ele>661.0</ele><time>2026-03-24T12:06:06.96Z</time></trkpt><trkpt lat="41.9435602" lon="13.6215031"><ele>661.0</ele><time>2026-03-24T12:06:07.961Z</time></trkpt><trkpt lat="41.9435011" lon="13.6217798"><ele>661.0</ele><time>2026-03-24T12:06:08.96Z</time></trkpt><trkpt lat="41.9434598" lon="13.6220636"><ele>661.0</ele><time>2026-03-24T12:06:09.961Z</time></trkpt><trkpt lat="41.9434402" lon="13.6223577"><ele>661.0</ele><time>2026-03-24T12:06:10.96Z</time></trkpt><trkpt lat="41.9434351" lon="13.6226693"><ele>661.0</ele><time>2026-03-24T12:06:11.96Z</time></trkpt><trkpt lat="41.9434376" lon="13.6229941"><ele>661.0</ele><time>2026-03-24T12:06:12.961Z</time></trkpt><trkpt lat="41.9434447" lon="13.6233296"><ele>661.0</ele><time>2026-03-24T12:06:13.96Z</time></trkpt><trkpt lat="41.943455" lon="13.6236749"><ele>661.0</ele><time>2026-03-24T12:06:14.96Z</time></trkpt><trkpt lat="41.943465" lon="13.6240294"><ele>661.0</ele><time>2026-03-24T12:06:15.961Z</time></trkpt><trkpt lat="41.9434765" lon="13.6243834"><ele>661.0</ele><time>2026-03-24T12:06:16.96Z</time></trkpt><trkpt lat="41.943489" lon="13.6247423"><ele>661.0</ele><time>2026-03-24T12:06:17.961Z</time></trkpt><trkpt lat="41.943503" lon="13.6251039"><ele>661.0</ele><time>2026-03-24T12:06:18.961Z</time></trkpt><trkpt lat="41.9435161" lon="13.6254666"><ele>661.0</ele><time>2026-03-24T12:06:19.96Z</time></trkpt><trkpt lat="41.9435295" lon="13.6258318"><ele>661.0</ele><time>2026-03-24T12:06:20.961Z</time></trkpt><trkpt lat="41.9435401" lon="13.6261904"><ele>661.0</ele><time>2026-03-24T12:06:21.961Z</time></trkpt><trkpt lat="41.9435516" lon="13.6265444"><ele>661.0</ele><time>2026-03-24T12:06:22.96Z</time></trkpt><trkpt lat="41.9435651" lon="13.6268955"><ele>661.0</ele><time>2026-03-24T12:06:23.96Z</time></trkpt><trkpt lat="41.9435781" lon="13.6272322"><ele>661.0</ele><time>2026-03-24T12:06:24.96Z</time></trkpt><trkpt lat="41.9435862" lon="13.6275509"><ele>661.3333333333334</ele><time>2026-03-24T12:06:25.96Z</time></trkpt><trkpt lat="41.9435967" lon="13.62785"><ele>661.6666666666666</ele><time>2026-03-24T12:06:26.96Z</time></trkpt><trkpt lat="41.9436055" lon="13.6281253"><ele>662.0</ele><time>2026-03-24T12:06:27.961Z</time></trkpt><trkpt lat="41.9436201" lon="13.6283833"><ele>662.0</ele><time>2026-03-24T12:06:28.961Z</time></trkpt><trkpt lat="41.9436564" lon="13.6286392"><ele>662.0</ele><time>2026-03-24T12:06:29.961Z</time></trkpt><trkpt lat="41.9437158" lon="13.6288929"><ele>662.0</ele><time>2026-03-24T12:06:30.96Z</time></trkpt><trkpt lat="41.9437959" lon="13.6291579"><ele>662.0</ele><time>2026-03-24T12:06:31.961Z</time></trkpt><trkpt lat="41.9438851" lon="13.6294323"><ele>662.0</ele><time>2026-03-24T12:06:32.961Z</time></trkpt><trkpt lat="41.9439758" lon="13.6297161"><ele>661.5</ele><time>2026-03-24T12:06:33.961Z</time></trkpt><trkpt lat="41.9440683" lon="13.6300012"><ele>661.0</ele><time>2026-03-24T12:06:34.961Z</time></trkpt><trkpt lat="41.9441582" lon="13.6302744"><ele>661.0</ele><time>2026-03-24T12:06:35.96Z</time></trkpt><trkpt lat="41.9442519" lon="13.6305205"><ele>661.0</ele><time>2026-03-24T12:06:36.961Z</time></trkpt><trkpt lat="41.9443667" lon="13.6307356"><ele>661.0</ele><time>2026-03-24T12:06:37.96Z</time></trkpt><trkpt lat="41.9445018" lon="13.6309334"><ele>661.0</ele><time>2026-03-24T12:06:38.961Z</time></trkpt><trkpt lat="41.9446572" lon="13.6311187"><ele>661.0</ele><time>2026-03-24T12:06:39.96Z</time></trkpt><trkpt lat="41.9448293" lon="13.6313058"><ele>661.0</ele><time>2026-03-24T12:06:40.961Z</time></trkpt><trkpt lat="41.9450029" lon="13.6314989"><ele>662.0</ele><time>2026-03-24T12:06:41.96Z</time></trkpt><trkpt lat="41.9451886" lon="13.6317014"><ele>663.0</ele><time>2026-03-24T12:06:42.96Z</time></trkpt><trkpt lat="41.9453801" lon="13.6319025"><ele>662.0</ele><time>2026-03-24T12:06:43.961Z</time></trkpt><trkpt lat="41.9455702" lon="13.6320984"><ele>661.0</ele><time>2026-03-24T12:06:44.96Z</time></trkpt><trkpt lat="41.9457733" lon="13.6322727"><ele>661.0</ele><time>2026-03-24T12:06:45.961Z</time></trkpt><trkpt lat="41.9459817" lon="13.6324287"><ele>661.0</ele><time>2026-03-24T12:06:46.96Z</time></trkpt><trkpt lat="41.9461934" lon="13.6325784"><ele>661.0</ele><time>2026-03-24T12:06:47.961Z</time></trkpt><trkpt lat="41.9464057" lon="13.6327233"><ele>661.0</ele><time>2026-03-24T12:06:48.96Z</time></trkpt><trkpt lat="41.9466163" lon="13.6328645"><ele>662.0</ele><time>2026-03-24T12:06:49.96Z</time></trkpt><trkpt lat="41.9468282" lon="13.6330054"><ele>663.0</ele><time>2026-03-24T12:06:50.96Z</time></trkpt><trkpt lat="41.947038" lon="13.6331443"><ele>663.0</ele><time>2026-03-24T12:06:51.96Z</time></trkpt><trkpt lat="41.9472454" lon="13.6332842"><ele>663.0</ele><time>2026-03-24T12:06:52.96Z</time></trkpt><trkpt lat="41.9474525" lon="13.6334249"><ele>662.5</ele><time>2026-03-24T12:06:53.96Z</time></trkpt><trkpt lat="41.9476572" lon="13.6335672"><ele>662.0</ele><time>2026-03-24T12:06:54.96Z</time></trkpt><trkpt lat="41.947865" lon="13.633707"><ele>661.0</ele><time>2026-03-24T12:06:55.961Z</time></trkpt><trkpt lat="41.9480759" lon="13.633848"><ele>660.0</ele><time>2026-03-24T12:06:56.96Z</time></trkpt><trkpt lat="41.9482882" lon="13.63399"><ele>661.0</ele><time>2026-03-24T12:06:57.961Z</time></trkpt><trkpt lat="41.9484985" lon="13.6341309"><ele>662.0</ele><time>2026-03-24T12:06:58.96Z</time></trkpt><trkpt lat="41.9487111" lon="13.6342749"><ele>662.0</ele><time>2026-03-24T12:06:59.96Z</time></trkpt><trkpt lat="41.948926" lon="13.6344209"><ele>662.0</ele><time>2026-03-24T12:07:00.96Z</time></trkpt><trkpt lat="41.94914" lon="13.6345634"><ele>662.0</ele><time>2026-03-24T12:07:01.96Z</time></trkpt><trkpt lat="41.9493529" lon="13.6347113"><ele>662.0</ele><time>2026-03-24T12:07:02.961Z</time></trkpt><trkpt lat="41.9495655" lon="13.634857"><ele>662.0</ele><time>2026-03-24T12:07:03.961Z</time></trkpt><trkpt lat="41.9497778" lon="13.6350003"><ele>662.0</ele><time>2026-03-24T12:07:04.96Z</time></trkpt><trkpt lat="41.9499902" lon="13.6351488"><ele>662.0</ele><time>2026-03-24T12:07:05.96Z</time></trkpt><trkpt lat="41.9502011" lon="13.6352978"><ele>662.0</ele><time>2026-03-24T12:07:06.961Z</time></trkpt><trkpt lat="41.9504116" lon="13.6354471"><ele>662.0</ele><time>2026-03-24T12:07:07.961Z</time></trkpt><trkpt lat="41.9506211" lon="13.6355918"><ele>662.0</ele><time>2026-03-24T12:07:08.961Z</time></trkpt><trkpt lat="41.9508328" lon="13.6357358"><ele>661.5</ele><time>2026-03-24T12:07:09.961Z</time></trkpt><trkpt lat="41.9510431" lon="13.6358808"><ele>661.0</ele><time>2026-03-24T12:07:10.96Z</time></trkpt><trkpt lat="41.9512546" lon="13.6360311"><ele>662.0</ele><time>2026-03-24T12:07:11.961Z</time></trkpt><trkpt lat="41.9514631" lon="13.6361752"><ele>663.0</ele><time>2026-03-24T12:07:12.96Z</time></trkpt><trkpt lat="41.9516684" lon="13.6363166"><ele>662.6666666666666</ele><time>2026-03-24T12:07:13.96Z</time></trkpt><trkpt lat="41.9518666" lon="13.6364545"><ele>662.3333333333333</ele><time>2026-03-24T12:07:14.96Z</time></trkpt><trkpt lat="41.9520572" lon="13.6365861"><ele>662.0</ele><time>2026-03-24T12:07:15.96Z</time></trkpt><trkpt lat="41.9522352" lon="13.6367101"><ele>662.0</ele><time>2026-03-24T12:07:16.961Z</time></trkpt><trkpt lat="41.9524068" lon="13.6368263"><ele>662.0</ele><time>2026-03-24T12:07:17.961Z</time></trkpt><trkpt lat="41.9525682" lon="13.6369373"><ele>662.0</ele><time>2026-03-24T12:07:18.961Z</time></trkpt><trkpt lat="41.9527173" lon="13.6370424"><ele>662.0</ele><time>2026-03-24T12:07:19.96Z</time></trkpt><trkpt lat="41.9528609" lon="13.6371419"><ele>662.0</ele><time>2026-03-24T12:07:20.961Z</time></trkpt><trkpt lat="41.9529979" lon="13.6372352"><ele>662.0</ele><time>2026-03-24T12:07:21.961Z</time></trkpt><trkpt lat="41.9531219" lon="13.6373212"><ele>662.0</ele><time>2026-03-24T12:07:22.961Z</time></trkpt><trkpt lat="41.9532339" lon="13.637397"><ele>662.0</ele><time>2026-03-24T12:07:23.96Z</time></trkpt><trkpt lat="41.9533364" lon="13.6374664"><ele>662.0</ele><time>2026-03-24T12:07:24.96Z</time></trkpt><trkpt lat="41.9534298" lon="13.6375322"><ele>662.0</ele><time>2026-03-24T12:07:25.96Z</time></trkpt><trkpt lat="41.953506" lon="13.6375993"><ele>662.0</ele><time>2026-03-24T12:07:26.96Z</time></trkpt><trkpt lat="41.9535632" lon="13.6376571"><ele>661.8</ele><time>2026-03-24T12:07:27.96Z</time></trkpt><trkpt lat="41.9536181" lon="13.6377631"><ele>661.6</ele><time>2026-03-24T12:07:29.96Z</time></trkpt><trkpt lat="41.9535731" lon="13.6378889"><ele>661.4</ele><time>2026-03-24T12:07:31.96Z</time></trkpt><trkpt lat="41.9535219" lon="13.6379907"><ele>661.1999999999999</ele><time>2026-03-24T12:07:32.96Z</time></trkpt><trkpt lat="41.9534592" lon="13.6381279"><ele>661.0</ele><time>2026-03-24T12:07:33.96Z</time></trkpt><trkpt lat="41.9533862" lon="13.6382954"><ele>661.0</ele><time>2026-03-24T12:07:34.96Z</time></trkpt><trkpt lat="41.9533032" lon="13.6384775"><ele>661.0</ele><time>2026-03-24T12:07:35.96Z</time></trkpt><trkpt lat="41.9532159" lon="13.6386617"><ele>661.0</ele><time>2026-03-24T12:07:36.96Z</time></trkpt><trkpt lat="41.9531317" lon="13.6388494"><ele>662.0</ele><time>2026-03-24T12:07:37.96Z</time></trkpt><trkpt lat="41.9530482" lon="13.639036"><ele>663.0</ele><time>2026-03-24T12:07:38.961Z</time></trkpt><trkpt lat="41.9529675" lon="13.6392155"><ele>664.0</ele><time>2026-03-24T12:07:39.96Z</time></trkpt><trkpt lat="41.9528909" lon="13.639393"><ele>664.25</ele><time>2026-03-24T12:07:40.96Z</time></trkpt><trkpt lat="41.9528188" lon="13.6395698"><ele>664.5</ele><time>2026-03-24T12:07:41.96Z</time></trkpt><trkpt lat="41.952752" lon="13.639738"><ele>664.75</ele><time>2026-03-24T12:07:42.96Z</time></trkpt><trkpt lat="41.9526866" lon="13.6399023"><ele>665.0</ele><time>2026-03-24T12:07:43.96Z</time></trkpt><trkpt lat="41.9526234" lon="13.6400568"><ele>665.0</ele><time>2026-03-24T12:07:44.96Z</time></trkpt><trkpt lat="41.9525558" lon="13.6402151"><ele>665.0</ele><time>2026-03-24T12:07:45.96Z</time></trkpt><trkpt lat="41.9524847" lon="13.6403783"><ele>665.0</ele><time>2026-03-24T12:07:46.961Z</time></trkpt><trkpt lat="41.9524148" lon="13.6405372"><ele>665.0</ele><time>2026-03-24T12:07:47.96Z</time></trkpt><trkpt lat="41.9523394" lon="13.6407008"><ele>665.0</ele><time>2026-03-24T12:07:48.961Z</time></trkpt><trkpt lat="41.9522601" lon="13.6408711"><ele>665.0</ele><time>2026-03-24T12:07:49.961Z</time></trkpt><trkpt lat="41.9521781" lon="13.6410485"><ele>665.0</ele><time>2026-03-24T12:07:50.961Z</time></trkpt><trkpt lat="41.9520943" lon="13.641235"><ele>665.0</ele><time>2026-03-24T12:07:51.96Z</time></trkpt><trkpt lat="41.9520128" lon="13.6414289"><ele>665.0</ele><time>2026-03-24T12:07:52.961Z</time></trkpt><trkpt lat="41.951931" lon="13.6416227"><ele>665.0</ele><time>2026-03-24T12:07:53.96Z</time></trkpt><trkpt lat="41.9518435" lon="13.6418189"><ele>665.3333333333333</ele><time>2026-03-24T12:07:54.96Z</time></trkpt><trkpt lat="41.9517529" lon="13.6420252"><ele>665.6666666666666</ele><time>2026-03-24T12:07:55.961Z</time></trkpt><trkpt lat="41.9516585" lon="13.6422318"><ele>666.0</ele><time>2026-03-24T12:07:56.96Z</time></trkpt><trkpt lat="41.9515639" lon="13.642448"><ele>666.0</ele><time>2026-03-24T12:07:57.96Z</time></trkpt><trkpt lat="41.951468" lon="13.6426575"><ele>666.0</ele><time>2026-03-24T12:07:58.96Z</time></trkpt><trkpt lat="41.9513715" lon="13.6428715"><ele>666.0</ele><time>2026-03-24T12:07:59.961Z</time></trkpt><trkpt lat="41.9512763" lon="13.6430887"><ele>666.0</ele><time>2026-03-24T12:08:00.96Z</time></trkpt><trkpt lat="41.9511834" lon="13.6432999"><ele>666.0</ele><time>2026-03-24T12:08:01.961Z</time></trkpt><trkpt lat="41.9510969" lon="13.6435168"><ele>666.0</ele><time>2026-03-24T12:08:02.96Z</time></trkpt><trkpt lat="41.9510123" lon="13.6437283"><ele>665.6666666666666</ele><time>2026-03-24T12:08:03.96Z</time></trkpt><trkpt lat="41.9509341" lon="13.6439334"><ele>665.3333333333333</ele><time>2026-03-24T12:08:04.96Z</time></trkpt><trkpt lat="41.9508599" lon="13.64414"><ele>665.0</ele><time>2026-03-24T12:08:05.96Z</time></trkpt><trkpt lat="41.9507877" lon="13.6443475"><ele>665.3333333333333</ele><time>2026-03-24T12:08:06.961Z</time></trkpt><trkpt lat="41.9507268" lon="13.6445613"><ele>665.6666666666666</ele><time>2026-03-24T12:08:07.96Z</time></trkpt><trkpt lat="41.9506832" lon="13.6447762"><ele>666.0</ele><time>2026-03-24T12:08:08.96Z</time></trkpt><trkpt lat="41.9506602" lon="13.6449846"><ele>666.0</ele><time>2026-03-24T12:08:09.96Z</time></trkpt><trkpt lat="41.9506589" lon="13.6451854"><ele>666.0</ele><time>2026-03-24T12:08:10.96Z</time></trkpt><trkpt lat="41.9506755" lon="13.6453708"><ele>666.0</ele><time>2026-03-24T12:08:11.961Z</time></trkpt><trkpt lat="41.9507151" lon="13.6455432"><ele>666.0</ele><time>2026-03-24T12:08:12.96Z</time></trkpt><trkpt lat="41.9507722" lon="13.6457047"><ele>666.0</ele><time>2026-03-24T12:08:13.961Z</time></trkpt><trkpt lat="41.9508382" lon="13.6458618"><ele>666.0</ele><time>2026-03-24T12:08:14.96Z</time></trkpt><trkpt lat="41.9509134" lon="13.6460243"><ele>666.0</ele><time>2026-03-24T12:08:15.961Z</time></trkpt><trkpt lat="41.9509846" lon="13.6461992"><ele>666.0</ele><time>2026-03-24T12:08:16.961Z</time></trkpt><trkpt lat="41.9510538" lon="13.6463879"><ele>666.0</ele><time>2026-03-24T12:08:17.96Z</time></trkpt><trkpt lat="41.9511238" lon="13.6465894"><ele>666.0</ele><time>2026-03-24T12:08:18.96Z</time></trkpt><trkpt lat="41.9511838" lon="13.6468049"><ele>666.0</ele><time>2026-03-24T12:08:19.961Z</time></trkpt><trkpt lat="41.9512421" lon="13.647042"><ele>666.0</ele><time>2026-03-24T12:08:20.96Z</time></trkpt><trkpt lat="41.9512975" lon="13.6472954"><ele>666.0</ele><time>2026-03-24T12:08:21.961Z</time></trkpt><trkpt lat="41.9513516" lon="13.6475674"><ele>666.0</ele><time>2026-03-24T12:08:22.96Z</time></trkpt><trkpt lat="41.9514053" lon="13.647842"><ele>666.0</ele><time>2026-03-24T12:08:23.96Z</time></trkpt><trkpt lat="41.9514591" lon="13.6481125"><ele>666.0</ele><time>2026-03-24T12:08:24.96Z</time></trkpt><trkpt lat="41.9515135" lon="13.6483732"><ele>666.0</ele><time>2026-03-24T12:08:25.961Z</time></trkpt><trkpt lat="41.9515646" lon="13.648633"><ele>666.6666666666666</ele><time>2026-03-24T12:08:26.96Z</time></trkpt><trkpt lat="41.9516141" lon="13.6488557"><ele>667.3333333333333</ele><time>2026-03-24T12:08:27.96Z</time></trkpt><trkpt lat="41.9516598" lon="13.6490572"><ele>668.0</ele><time>2026-03-24T12:08:28.961Z</time></trkpt><trkpt lat="41.9517013" lon="13.6492273"><ele>668.0</ele><time>2026-03-24T12:08:29.961Z</time></trkpt><trkpt lat="41.9517575" lon="13.6493845"><ele>668.0</ele><time>2026-03-24T12:08:30.96Z</time></trkpt><trkpt lat="41.9518358" lon="13.649527"><ele>668.0</ele><time>2026-03-24T12:08:31.961Z</time></trkpt><trkpt lat="41.951935" lon="13.649663"><ele>668.0</ele><time>2026-03-24T12:08:32.961Z</time></trkpt><trkpt lat="41.9520455" lon="13.6498027"><ele>668.0</ele><time>2026-03-24T12:08:33.96Z</time></trkpt><trkpt lat="41.9521552" lon="13.6499504"><ele>668.0</ele><time>2026-03-24T12:08:34.96Z</time></trkpt><trkpt lat="41.9522696" lon="13.6500987"><ele>668.0</ele><time>2026-03-24T12:08:35.96Z</time></trkpt><trkpt lat="41.9523798" lon="13.6502407"><ele>668.0</ele><time>2026-03-24T12:08:36.961Z</time></trkpt><trkpt lat="41.9524785" lon="13.6503744"><ele>668.0</ele><time>2026-03-24T12:08:37.96Z</time></trkpt><trkpt lat="41.9525709" lon="13.6505082"><ele>668.0</ele><time>2026-03-24T12:08:38.961Z</time></trkpt><trkpt lat="41.9526623" lon="13.6506548"><ele>668.0</ele><time>2026-03-24T12:08:39.96Z</time></trkpt><trkpt lat="41.9527504" lon="13.6508095"><ele>668.0</ele><time>2026-03-24T12:08:40.96Z</time></trkpt><trkpt lat="41.9528402" lon="13.6509792"><ele>668.0</ele><time>2026-03-24T12:08:41.961Z</time></trkpt><trkpt lat="41.9529338" lon="13.651161"><ele>668.0</ele><time>2026-03-24T12:08:42.961Z</time></trkpt><trkpt lat="41.953029" lon="13.651346"><ele>668.0</ele><time>2026-03-24T12:08:43.96Z</time></trkpt><trkpt lat="41.9531268" lon="13.6515457"><ele>668.0</ele><time>2026-03-24T12:08:44.96Z</time></trkpt><trkpt lat="41.9532325" lon="13.6517499"><ele>668.0</ele><time>2026-03-24T12:08:45.961Z</time></trkpt><trkpt lat="41.9533394" lon="13.6519601"><ele>668.3333333333333</ele><time>2026-03-24T12:08:46.96Z</time></trkpt><trkpt lat="41.9534476" lon="13.652169"><ele>668.6666666666666</ele><time>2026-03-24T12:08:47.96Z</time></trkpt><trkpt lat="41.9535552" lon="13.652378"><ele>669.0</ele><time>2026-03-24T12:08:48.96Z</time></trkpt><trkpt lat="41.9536549" lon="13.6525667"><ele>669.0</ele><time>2026-03-24T12:08:49.96Z</time></trkpt><trkpt lat="41.9537531" lon="13.6527468"><ele>669.0</ele><time>2026-03-24T12:08:50.96Z</time></trkpt><trkpt lat="41.9538371" lon="13.6529165"><ele>669.0</ele><time>2026-03-24T12:08:51.96Z</time></trkpt><trkpt lat="41.9539163" lon="13.6530734"><ele>668.75</ele><time>2026-03-24T12:08:52.961Z</time></trkpt><trkpt lat="41.9539957" lon="13.6532348"><ele>668.5</ele><time>2026-03-24T12:08:53.96Z</time></trkpt><trkpt lat="41.9540776" lon="13.6533924"><ele>668.25</ele><time>2026-03-24T12:08:54.96Z</time></trkpt><trkpt lat="41.954152" lon="13.6535406"><ele>668.0</ele><time>2026-03-24T12:08:55.96Z</time></trkpt><trkpt lat="41.9542203" lon="13.6536813"><ele>667.8</ele><time>2026-03-24T12:08:56.96Z</time></trkpt><trkpt lat="41.9542763" lon="13.6538065"><ele>667.5999999999999</ele><time>2026-03-24T12:08:57.96Z</time></trkpt><trkpt lat="41.9543265" lon="13.6539169"><ele>667.4000000000001</ele><time>2026-03-24T12:08:58.961Z</time></trkpt><trkpt lat="41.9543709" lon="13.6540157"><ele>667.2</ele><time>2026-03-24T12:08:59.96Z</time></trkpt><trkpt lat="41.9544175" lon="13.6541268"><ele>667.0</ele><time>2026-03-24T12:09:00.96Z</time></trkpt><trkpt lat="41.9544689" lon="13.6542419"><ele>667.0</ele><time>2026-03-24T12:09:01.961Z</time></trkpt><trkpt lat="41.954545" lon="13.6543589"><ele>667.0</ele><time>2026-03-24T12:09:02.96Z</time></trkpt><trkpt lat="41.9546403" lon="13.6544895"><ele>667.0</ele><time>2026-03-24T12:09:03.961Z</time></trkpt><trkpt lat="41.9547453" lon="13.6546224"><ele>667.0</ele><time>2026-03-24T12:09:04.96Z</time></trkpt><trkpt lat="41.954864" lon="13.6547738"><ele>667.3333333333334</ele><time>2026-03-24T12:09:05.96Z</time></trkpt><trkpt lat="41.9549931" lon="13.6549313"><ele>667.6666666666666</ele><time>2026-03-24T12:09:06.96Z</time></trkpt><trkpt lat="41.9551258" lon="13.6550949"><ele>668.0</ele><time>2026-03-24T12:09:07.96Z</time></trkpt><trkpt lat="41.955259" lon="13.655265"><ele>667.6666666666666</ele><time>2026-03-24T12:09:08.96Z</time></trkpt><trkpt lat="41.9553991" lon="13.6554379"><ele>667.3333333333334</ele><time>2026-03-24T12:09:09.961Z</time></trkpt><trkpt lat="41.9555392" lon="13.6556138"><ele>667.0</ele><time>2026-03-24T12:09:10.961Z</time></trkpt><trkpt lat="41.9556774" lon="13.6557985"><ele>667.0</ele><time>2026-03-24T12:09:11.96Z</time></trkpt><trkpt lat="41.9558044" lon="13.6559973"><ele>667.0</ele><time>2026-03-24T12:09:12.96Z</time></trkpt><trkpt lat="41.9559244" lon="13.6562069"><ele>667.0</ele><time>2026-03-24T12:09:13.96Z</time></trkpt><trkpt lat="41.9560368" lon="13.656431"><ele>667.3333333333334</ele><time>2026-03-24T12:09:14.961Z</time></trkpt><trkpt lat="41.9561423" lon="13.6566657"><ele>667.6666666666666</ele><time>2026-03-24T12:09:15.96Z</time></trkpt><trkpt lat="41.9562428" lon="13.6569112"><ele>668.0</ele><time>2026-03-24T12:09:16.961Z</time></trkpt><trkpt lat="41.9563424" lon="13.6571643"><ele>668.0</ele><time>2026-03-24T12:09:17.96Z</time></trkpt><trkpt lat="41.9564359" lon="13.6574218"><ele>668.0</ele><time>2026-03-24T12:09:18.961Z</time></trkpt><trkpt lat="41.956518" lon="13.6576639"><ele>668.0</ele><time>2026-03-24T12:09:19.96Z</time></trkpt><trkpt lat="41.956588" lon="13.6578918"><ele>668.3333333333333</ele><time>2026-03-24T12:09:20.961Z</time></trkpt><trkpt lat="41.956641" lon="13.6581237"><ele>668.6666666666666</ele><time>2026-03-24T12:09:21.96Z</time></trkpt><trkpt lat="41.9566823" lon="13.6583509"><ele>669.0</ele><time>2026-03-24T12:09:22.961Z</time></trkpt><trkpt lat="41.95671" lon="13.6585852"><ele>668.6666666666666</ele><time>2026-03-24T12:09:23.961Z</time></trkpt><trkpt lat="41.9567405" lon="13.6588262"><ele>668.3333333333333</ele><time>2026-03-24T12:09:24.961Z</time></trkpt><trkpt lat="41.9567734" lon="13.6590632"><ele>668.0</ele><time>2026-03-24T12:09:25.96Z</time></trkpt><trkpt lat="41.9568194" lon="13.659295"><ele>668.6666666666666</ele><time>2026-03-24T12:09:26.96Z</time></trkpt><trkpt lat="41.9568949" lon="13.6595109"><ele>669.3333333333334</ele><time>2026-03-24T12:09:27.96Z</time></trkpt><trkpt lat="41.9569829" lon="13.6597307"><ele>670.0</ele><time>2026-03-24T12:09:28.96Z</time></trkpt><trkpt lat="41.9570778" lon="13.6599511"><ele>670.0</ele><time>2026-03-24T12:09:29.961Z</time></trkpt><trkpt lat="41.9571735" lon="13.6601866"><ele>670.0</ele><time>2026-03-24T12:09:30.961Z</time></trkpt><trkpt lat="41.9572695" lon="13.6604389"><ele>670.0</ele><time>2026-03-24T12:09:31.96Z</time></trkpt><trkpt lat="41.9573729" lon="13.6607113"><ele>670.5</ele><time>2026-03-24T12:09:32.961Z</time></trkpt><trkpt lat="41.9574792" lon="13.6609998"><ele>671.0</ele><time>2026-03-24T12:09:33.96Z</time></trkpt><trkpt lat="41.9575913" lon="13.6613029"><ele>670.0</ele><time>2026-03-24T12:09:34.96Z</time></trkpt><trkpt lat="41.9577102" lon="13.6616124"><ele>669.0</ele><time>2026-03-24T12:09:35.961Z</time></trkpt><trkpt lat="41.9578293" lon="13.6619342"><ele>669.0</ele><time>2026-03-24T12:09:36.96Z</time></trkpt><trkpt lat="41.957949" lon="13.6622469"><ele>669.0</ele><time>2026-03-24T12:09:37.96Z</time></trkpt><trkpt lat="41.9580708" lon="13.6625659"><ele>669.0</ele><time>2026-03-24T12:09:38.96Z</time></trkpt><trkpt lat="41.9581883" lon="13.6628928"><ele>669.0</ele><time>2026-03-24T12:09:39.96Z</time></trkpt><trkpt lat="41.95831" lon="13.663223"><ele>668.5</ele><time>2026-03-24T12:09:40.961Z</time></trkpt><trkpt lat="41.9584327" lon="13.6635577"><ele>668.0</ele><time>2026-03-24T12:09:41.961Z</time></trkpt><trkpt lat="41.9585546" lon="13.6638943"><ele>668.0</ele><time>2026-03-24T12:09:42.96Z</time></trkpt><trkpt lat="41.9586807" lon="13.6642327"><ele>668.0</ele><time>2026-03-24T12:09:43.96Z</time></trkpt><trkpt lat="41.9588068" lon="13.6645659"><ele>668.0</ele><time>2026-03-24T12:09:44.961Z</time></trkpt><trkpt lat="41.9589318" lon="13.6648998"><ele>668.0</ele><time>2026-03-24T12:09:45.96Z</time></trkpt><trkpt lat="41.9590569" lon="13.6652333"><ele>668.5</ele><time>2026-03-24T12:09:46.96Z</time></trkpt><trkpt lat="41.9591821" lon="13.6655716"><ele>669.0</ele><time>2026-03-24T12:09:47.96Z</time></trkpt><trkpt lat="41.9593063" lon="13.6659069"><ele>669.0</ele><time>2026-03-24T12:09:48.961Z</time></trkpt><trkpt lat="41.9594297" lon="13.6662398"><ele>669.0</ele><time>2026-03-24T12:09:49.96Z</time></trkpt><trkpt lat="41.9595511" lon="13.6665676"><ele>669.0</ele><time>2026-03-24T12:09:50.96Z</time></trkpt><trkpt lat="41.9596648" lon="13.666885"><ele>669.0</ele><time>2026-03-24T12:09:51.961Z</time></trkpt><trkpt lat="41.9597758" lon="13.6671811"><ele>669.3333333333334</ele><time>2026-03-24T12:09:52.961Z</time></trkpt><trkpt lat="41.9598746" lon="13.6674528"><ele>669.6666666666667</ele><time>2026-03-24T12:09:53.961Z</time></trkpt><trkpt lat="41.9599639" lon="13.6676939"><ele>670.0</ele><time>2026-03-24T12:09:54.96Z</time></trkpt><trkpt lat="41.9600396" lon="13.6679229"><ele>670.3333333333334</ele><time>2026-03-24T12:09:55.96Z</time></trkpt><trkpt lat="41.9601002" lon="13.6681537"><ele>670.6666666666666</ele><time>2026-03-24T12:09:56.96Z</time></trkpt><trkpt lat="41.9601441" lon="13.6683939"><ele>671.0</ele><time>2026-03-24T12:09:57.96Z</time></trkpt><trkpt lat="41.9601677" lon="13.6686465"><ele>671.0</ele><time>2026-03-24T12:09:58.96Z</time></trkpt><trkpt lat="41.9601847" lon="13.6689043"><ele>671.0</ele><time>2026-03-24T12:09:59.96Z</time></trkpt><trkpt lat="41.9602005" lon="13.6691653"><ele>671.0</ele><time>2026-03-24T12:10:00.961Z</time></trkpt><trkpt lat="41.9602259" lon="13.669424"><ele>671.3333333333333</ele><time>2026-03-24T12:10:01.96Z</time></trkpt><trkpt lat="41.9602679" lon="13.6696713"><ele>671.6666666666666</ele><time>2026-03-24T12:10:02.96Z</time></trkpt><trkpt lat="41.9603257" lon="13.6699017"><ele>672.0</ele><time>2026-03-24T12:10:03.96Z</time></trkpt><trkpt lat="41.9604041" lon="13.6701185"><ele>672.6666666666666</ele><time>2026-03-24T12:10:04.961Z</time></trkpt><trkpt lat="41.9605046" lon="13.6703246"><ele>673.3333333333333</ele><time>2026-03-24T12:10:05.961Z</time></trkpt><trkpt lat="41.9606168" lon="13.6705216"><ele>674.0</ele><time>2026-03-24T12:10:06.961Z</time></trkpt><trkpt lat="41.9607316" lon="13.6707205"><ele>674.0</ele><time>2026-03-24T12:10:07.961Z</time></trkpt><trkpt lat="41.9608522" lon="13.6709153"><ele>674.0</ele><time>2026-03-24T12:10:08.96Z</time></trkpt><trkpt lat="41.9609686" lon="13.6711111"><ele>674.0</ele><time>2026-03-24T12:10:09.96Z</time></trkpt><trkpt lat="41.9610885" lon="13.671308"><ele>674.3333333333333</ele><time>2026-03-24T12:10:10.961Z</time></trkpt><trkpt lat="41.9612041" lon="13.6714905"><ele>674.6666666666666</ele><time>2026-03-24T12:10:11.96Z</time></trkpt><trkpt lat="41.9613121" lon="13.6716671"><ele>675.0</ele><time>2026-03-24T12:10:12.961Z</time></trkpt><trkpt lat="41.9614132" lon="13.6718263"><ele>675.25</ele><time>2026-03-24T12:10:13.96Z</time></trkpt><trkpt lat="41.961506" lon="13.6719733"><ele>675.5</ele><time>2026-03-24T12:10:14.96Z</time></trkpt><trkpt lat="41.9615932" lon="13.6721078"><ele>675.75</ele><time>2026-03-24T12:10:15.96Z</time></trkpt><trkpt lat="41.9616706" lon="13.6722333"><ele>676.0</ele><time>2026-03-24T12:10:16.96Z</time></trkpt><trkpt lat="41.9617355" lon="13.6723419"><ele>676.0</ele><time>2026-03-24T12:10:17.961Z</time></trkpt><trkpt lat="41.961786" lon="13.6724239"><ele>676.0</ele><time>2026-03-24T12:10:18.961Z</time></trkpt><trkpt lat="41.961844" lon="13.6725314"><ele>676.0</ele><time>2026-03-24T12:10:20.961Z</time></trkpt><trkpt lat="41.9618565" lon="13.672642"><ele>676.0</ele><time>2026-03-24T12:10:23.96Z</time></trkpt><trkpt lat="41.961805" lon="13.6727776"><ele>676.0</ele><time>2026-03-24T12:10:25.96Z</time></trkpt><trkpt lat="41.9617493" lon="13.6728652"><ele>675.75</ele><time>2026-03-24T12:10:26.961Z</time></trkpt><trkpt lat="41.9616826" lon="13.6729762"><ele>675.5</ele><time>2026-03-24T12:10:27.96Z</time></trkpt><trkpt lat="41.9615937" lon="13.6731062"><ele>675.25</ele><time>2026-03-24T12:10:28.96Z</time></trkpt><trkpt lat="41.961494" lon="13.6732494"><ele>675.0</ele><time>2026-03-24T12:10:29.96Z</time></trkpt><trkpt lat="41.961376" lon="13.6734228"><ele>675.0</ele><time>2026-03-24T12:10:30.96Z</time></trkpt><trkpt lat="41.9612504" lon="13.6736154"><ele>675.0</ele><time>2026-03-24T12:10:31.96Z</time></trkpt><trkpt lat="41.96112" lon="13.6738123"><ele>675.0</ele><time>2026-03-24T12:10:32.96Z</time></trkpt><trkpt lat="41.9609729" lon="13.6740288"><ele>675.0</ele><time>2026-03-24T12:10:33.961Z</time></trkpt><trkpt lat="41.96081" lon="13.6742589"><ele>675.0</ele><time>2026-03-24T12:10:34.96Z</time></trkpt><trkpt lat="41.9606513" lon="13.674495"><ele>674.5</ele><time>2026-03-24T12:10:35.96Z</time></trkpt><trkpt lat="41.9604843" lon="13.6747405"><ele>674.0</ele><time>2026-03-24T12:10:36.961Z</time></trkpt><trkpt lat="41.9603113" lon="13.6749968"><ele>674.0</ele><time>2026-03-24T12:10:37.96Z</time></trkpt><trkpt lat="41.9601355" lon="13.6752507"><ele>674.0</ele><time>2026-03-24T12:10:38.96Z</time></trkpt><trkpt lat="41.9599606" lon="13.6755059"><ele>675.0</ele><time>2026-03-24T12:10:39.96Z</time></trkpt><trkpt lat="41.9597891" lon="13.6757599"><ele>676.0</ele><time>2026-03-24T12:10:40.961Z</time></trkpt><trkpt lat="41.9596245" lon="13.6760147"><ele>675.0</ele><time>2026-03-24T12:10:41.961Z</time></trkpt><trkpt lat="41.9594592" lon="13.6762798"><ele>674.0</ele><time>2026-03-24T12:10:42.961Z</time></trkpt><trkpt lat="41.9592986" lon="13.6765547"><ele>674.5</ele><time>2026-03-24T12:10:43.961Z</time></trkpt><trkpt lat="41.9591377" lon="13.6768292"><ele>675.0</ele><time>2026-03-24T12:10:44.96Z</time></trkpt><trkpt lat="41.9589759" lon="13.6771072"><ele>675.0</ele><time>2026-03-24T12:10:45.961Z</time></trkpt><trkpt lat="41.9588223" lon="13.6773854"><ele>675.0</ele><time>2026-03-24T12:10:46.96Z</time></trkpt><trkpt lat="41.9586724" lon="13.6776571"><ele>675.0</ele><time>2026-03-24T12:10:47.96Z</time></trkpt><trkpt lat="41.9585311" lon="13.6779239"><ele>675.0</ele><time>2026-03-24T12:10:48.96Z</time></trkpt><trkpt lat="41.9583925" lon="13.6781883"><ele>675.5</ele><time>2026-03-24T12:10:49.96Z</time></trkpt><trkpt lat="41.958265" lon="13.6784559"><ele>676.0</ele><time>2026-03-24T12:10:50.96Z</time></trkpt><trkpt lat="41.9581436" lon="13.6787283"><ele>676.0</ele><time>2026-03-24T12:10:51.96Z</time></trkpt><trkpt lat="41.9580297" lon="13.6790038"><ele>676.0</ele><time>2026-03-24T12:10:52.961Z</time></trkpt><trkpt lat="41.9579168" lon="13.6792668"><ele>675.6666666666667</ele><time>2026-03-24T12:10:53.96Z</time></trkpt><trkpt lat="41.9578093" lon="13.6795298"><ele>675.3333333333334</ele><time>2026-03-24T12:10:54.961Z</time></trkpt><trkpt lat="41.9577049" lon="13.6797904"><ele>675.0</ele><time>2026-03-24T12:10:55.96Z</time></trkpt><trkpt lat="41.9576048" lon="13.680053"><ele>675.3333333333334</ele><time>2026-03-24T12:10:56.96Z</time></trkpt><trkpt lat="41.9575192" lon="13.6803235"><ele>675.6666666666667</ele><time>2026-03-24T12:10:57.96Z</time></trkpt><trkpt lat="41.9574468" lon="13.6806085"><ele>676.0</ele><time>2026-03-24T12:10:58.96Z</time></trkpt><trkpt lat="41.9573872" lon="13.6808879"><ele>675.6666666666667</ele><time>2026-03-24T12:10:59.96Z</time></trkpt><trkpt lat="41.9573262" lon="13.6811653"><ele>675.3333333333334</ele><time>2026-03-24T12:11:00.96Z</time></trkpt><trkpt lat="41.9572592" lon="13.6814376"><ele>675.0</ele><time>2026-03-24T12:11:01.96Z</time></trkpt><trkpt lat="41.9571808" lon="13.6817099"><ele>675.3333333333334</ele><time>2026-03-24T12:11:02.96Z</time></trkpt><trkpt lat="41.9570885" lon="13.6819749"><ele>675.6666666666667</ele><time>2026-03-24T12:11:03.961Z</time></trkpt><trkpt lat="41.9569828" lon="13.6822348"><ele>676.0</ele><time>2026-03-24T12:11:04.96Z</time></trkpt><trkpt lat="41.9568658" lon="13.6824932"><ele>676.0</ele><time>2026-03-24T12:11:05.96Z</time></trkpt><trkpt lat="41.9567504" lon="13.6827537"><ele>676.0</ele><time>2026-03-24T12:11:06.96Z</time></trkpt><trkpt lat="41.9566359" lon="13.6830128"><ele>676.3333333333334</ele><time>2026-03-24T12:11:07.961Z</time></trkpt><trkpt lat="41.956524" lon="13.6832689"><ele>676.6666666666666</ele><time>2026-03-24T12:11:08.961Z</time></trkpt><trkpt lat="41.9564232" lon="13.6835104"><ele>677.0</ele><time>2026-03-24T12:11:09.961Z</time></trkpt><trkpt lat="41.9563223" lon="13.6837483"><ele>677.0</ele><time>2026-03-24T12:11:10.96Z</time></trkpt><trkpt lat="41.9562293" lon="13.6839945"><ele>677.0</ele><time>2026-03-24T12:11:11.96Z</time></trkpt><trkpt lat="41.956141" lon="13.6842566"><ele>677.0</ele><time>2026-03-24T12:11:12.961Z</time></trkpt><trkpt lat="41.9560579" lon="13.6845346"><ele>676.5</ele><time>2026-03-24T12:11:13.961Z</time></trkpt><trkpt lat="41.9559774" lon="13.6848218"><ele>676.0</ele><time>2026-03-24T12:11:14.96Z</time></trkpt><trkpt lat="41.9558923" lon="13.6851179"><ele>677.5</ele><time>2026-03-24T12:11:15.961Z</time></trkpt><trkpt lat="41.955805" lon="13.6854184"><ele>679.0</ele><time>2026-03-24T12:11:16.96Z</time></trkpt><trkpt lat="41.9557208" lon="13.6857231"><ele>679.0</ele><time>2026-03-24T12:11:17.96Z</time></trkpt><trkpt lat="41.9556419" lon="13.6860259"><ele>679.0</ele><time>2026-03-24T12:11:18.96Z</time></trkpt><trkpt lat="41.955568" lon="13.6863234"><ele>680.5</ele><time>2026-03-24T12:11:19.96Z</time></trkpt><trkpt lat="41.9555049" lon="13.6866176"><ele>682.0</ele><time>2026-03-24T12:11:20.96Z</time></trkpt><trkpt lat="41.9554452" lon="13.686905"><ele>682.6666666666667</ele><time>2026-03-24T12:11:21.96Z</time></trkpt><trkpt lat="41.9553889" lon="13.687189"><ele>683.3333333333334</ele><time>2026-03-24T12:11:22.961Z</time></trkpt><trkpt lat="41.9553354" lon="13.6874631"><ele>684.0</ele><time>2026-03-24T12:11:23.96Z</time></trkpt><trkpt lat="41.9552907" lon="13.6877244"><ele>684.6666666666666</ele><time>2026-03-24T12:11:24.961Z</time></trkpt><trkpt lat="41.955252" lon="13.6879797"><ele>685.3333333333333</ele><time>2026-03-24T12:11:25.96Z</time></trkpt><trkpt lat="41.9552245" lon="13.6882311"><ele>686.0</ele><time>2026-03-24T12:11:26.96Z</time></trkpt><trkpt lat="41.9552054" lon="13.6884735"><ele>687.6666666666666</ele><time>2026-03-24T12:11:27.96Z</time></trkpt><trkpt lat="41.9551896" lon="13.688697"><ele>689.3333333333334</ele><time>2026-03-24T12:11:28.96Z</time></trkpt><trkpt lat="41.9551836" lon="13.6889053"><ele>691.0</ele><time>2026-03-24T12:11:29.961Z</time></trkpt><trkpt lat="41.9551801" lon="13.6890983"><ele>691.0</ele><time>2026-03-24T12:11:30.961Z</time></trkpt><trkpt lat="41.9551778" lon="13.6892927"><ele>691.0</ele><time>2026-03-24T12:11:31.96Z</time></trkpt><trkpt lat="41.9551802" lon="13.6894766"><ele>691.0</ele><time>2026-03-24T12:11:32.961Z</time></trkpt><trkpt lat="41.9551817" lon="13.6896623"><ele>691.0</ele><time>2026-03-24T12:11:33.96Z</time></trkpt><trkpt lat="41.9551875" lon="13.6898494"><ele>692.25</ele><time>2026-03-24T12:11:34.96Z</time></trkpt><trkpt lat="41.9551954" lon="13.6900365"><ele>693.5</ele><time>2026-03-24T12:11:35.961Z</time></trkpt><trkpt lat="41.9552025" lon="13.6902279"><ele>694.75</ele><time>2026-03-24T12:11:36.961Z</time></trkpt><trkpt lat="41.9552054" lon="13.6904152"><ele>696.0</ele><time>2026-03-24T12:11:37.961Z</time></trkpt><trkpt lat="41.9552108" lon="13.6906065"><ele>697.0</ele><time>2026-03-24T12:11:38.96Z</time></trkpt><trkpt lat="41.9552101" lon="13.6907968"><ele>698.0</ele><time>2026-03-24T12:11:39.961Z</time></trkpt><trkpt lat="41.9552023" lon="13.690985"><ele>699.0</ele><time>2026-03-24T12:11:40.961Z</time></trkpt><trkpt lat="41.9551828" lon="13.6911722"><ele>700.0</ele><time>2026-03-24T12:11:41.96Z</time></trkpt><trkpt lat="41.9551552" lon="13.6913579"><ele>700.5</ele><time>2026-03-24T12:11:42.961Z</time></trkpt><trkpt lat="41.9551207" lon="13.6915457"><ele>701.0</ele><time>2026-03-24T12:11:43.96Z</time></trkpt><trkpt lat="41.9550827" lon="13.6917352"><ele>701.5</ele><time>2026-03-24T12:11:44.96Z</time></trkpt><trkpt lat="41.9550508" lon="13.6919217"><ele>702.0</ele><time>2026-03-24T12:11:45.96Z</time></trkpt><trkpt lat="41.9550182" lon="13.6921129"><ele>704.0</ele><time>2026-03-24T12:11:46.961Z</time></trkpt><trkpt lat="41.9549833" lon="13.6923026"><ele>706.0</ele><time>2026-03-24T12:11:47.96Z</time></trkpt><trkpt lat="41.9549542" lon="13.6924795"><ele>708.0</ele><time>2026-03-24T12:11:48.961Z</time></trkpt><trkpt lat="41.9549212" lon="13.6926443"><ele>710.0</ele><time>2026-03-24T12:11:49.96Z</time></trkpt><trkpt lat="41.9548922" lon="13.6927904"><ele>710.6</ele><time>2026-03-24T12:11:50.96Z</time></trkpt><trkpt lat="41.9548642" lon="13.6929227"><ele>711.2</ele><time>2026-03-24T12:11:51.96Z</time></trkpt><trkpt lat="41.95484" lon="13.6930426"><ele>711.8</ele><time>2026-03-24T12:11:52.961Z</time></trkpt><trkpt lat="41.9548251" lon="13.6931685"><ele>712.4</ele><time>2026-03-24T12:11:53.96Z</time></trkpt><trkpt lat="41.9548336" lon="13.6933032"><ele>713.0</ele><time>2026-03-24T12:11:54.96Z</time></trkpt><trkpt lat="41.9548513" lon="13.693455"><ele>713.25</ele><time>2026-03-24T12:11:55.96Z</time></trkpt><trkpt lat="41.9548715" lon="13.6936135"><ele>713.5</ele><time>2026-03-24T12:11:56.96Z</time></trkpt><trkpt lat="41.9548975" lon="13.6937824"><ele>713.75</ele><time>2026-03-24T12:11:57.96Z</time></trkpt><trkpt lat="41.954925" lon="13.6939602"><ele>714.0</ele><time>2026-03-24T12:11:58.961Z</time></trkpt><trkpt lat="41.9549456" lon="13.6941291"><ele>714.0</ele><time>2026-03-24T12:11:59.96Z</time></trkpt><trkpt lat="41.9549621" lon="13.6942857"><ele>714.0</ele><time>2026-03-24T12:12:00.961Z</time></trkpt><trkpt lat="41.9549689" lon="13.694422"><ele>714.0</ele><time>2026-03-24T12:12:01.96Z</time></trkpt><trkpt lat="41.9549702" lon="13.6945386"><ele>714.0</ele><time>2026-03-24T12:12:02.96Z</time></trkpt><trkpt lat="41.9549543" lon="13.6946435"><ele>714.0</ele><time>2026-03-24T12:12:03.96Z</time></trkpt><trkpt lat="41.9549244" lon="13.6947356"><ele>714.0</ele><time>2026-03-24T12:12:04.96Z</time></trkpt><trkpt lat="41.9548789" lon="13.6948286"><ele>714.0</ele><time>2026-03-24T12:12:05.961Z</time></trkpt><trkpt lat="41.9548153" lon="13.694927"><ele>714.0</ele><time>2026-03-24T12:12:06.961Z</time></trkpt><trkpt lat="41.9547377" lon="13.6950402"><ele>714.0</ele><time>2026-03-24T12:12:07.96Z</time></trkpt><trkpt lat="41.9546498" lon="13.6951694"><ele>714.0</ele><time>2026-03-24T12:12:08.96Z</time></trkpt><trkpt lat="41.9545541" lon="13.6953099"><ele>716.3333333333334</ele><time>2026-03-24T12:12:09.96Z</time></trkpt><trkpt lat="41.9544473" lon="13.6954617"><ele>718.6666666666667</ele><time>2026-03-24T12:12:10.96Z</time></trkpt><trkpt lat="41.954339" lon="13.6956287"><ele>721.0</ele><time>2026-03-24T12:12:11.961Z</time></trkpt><trkpt lat="41.9542252" lon="13.6958027"><ele>720.6666666666667</ele><time>2026-03-24T12:12:12.96Z</time></trkpt><trkpt lat="41.9541072" lon="13.6959886"><ele>720.3333333333334</ele><time>2026-03-24T12:12:13.96Z</time></trkpt><trkpt lat="41.9539834" lon="13.6961772"><ele>720.0</ele><time>2026-03-24T12:12:14.961Z</time></trkpt><trkpt lat="41.9538585" lon="13.6963776"><ele>720.0</ele><time>2026-03-24T12:12:15.96Z</time></trkpt><trkpt lat="41.9537327" lon="13.6965755"><ele>720.0</ele><time>2026-03-24T12:12:16.96Z</time></trkpt><trkpt lat="41.953603" lon="13.6967696"><ele>720.0</ele><time>2026-03-24T12:12:17.96Z</time></trkpt><trkpt lat="41.9534699" lon="13.6969688"><ele>720.0</ele><time>2026-03-24T12:12:18.96Z</time></trkpt><trkpt lat="41.9533308" lon="13.6971746"><ele>720.0</ele><time>2026-03-24T12:12:19.96Z</time></trkpt><trkpt lat="41.9531908" lon="13.6973835"><ele>720.0</ele><time>2026-03-24T12:12:20.96Z</time></trkpt><trkpt lat="41.9530481" lon="13.6975967"><ele>722.0</ele><time>2026-03-24T12:12:21.961Z</time></trkpt><trkpt lat="41.9529072" lon="13.6978131"><ele>724.0</ele><time>2026-03-24T12:12:22.961Z</time></trkpt><trkpt lat="41.9527617" lon="13.6980314"><ele>726.0</ele><time>2026-03-24T12:12:23.96Z</time></trkpt><trkpt lat="41.9526164" lon="13.6982486"><ele>725.0</ele><time>2026-03-24T12:12:24.96Z</time></trkpt><trkpt lat="41.9524721" lon="13.6984767"><ele>724.0</ele><time>2026-03-24T12:12:25.961Z</time></trkpt><trkpt lat="41.9523232" lon="13.6986961"><ele>723.0</ele><time>2026-03-24T12:12:26.96Z</time></trkpt><trkpt lat="41.9521745" lon="13.6989143"><ele>723.0</ele><time>2026-03-24T12:12:27.96Z</time></trkpt><trkpt lat="41.9520255" lon="13.6991398"><ele>723.0</ele><time>2026-03-24T12:12:28.961Z</time></trkpt><trkpt lat="41.9518771" lon="13.6993653"><ele>723.0</ele><time>2026-03-24T12:12:29.96Z</time></trkpt><trkpt lat="41.9517289" lon="13.6995889"><ele>722.0</ele><time>2026-03-24T12:12:30.961Z</time></trkpt><trkpt lat="41.951575" lon="13.6998194"><ele>721.0</ele><time>2026-03-24T12:12:31.961Z</time></trkpt><trkpt lat="41.9514198" lon="13.7000486"><ele>722.0</ele><time>2026-03-24T12:12:32.96Z</time></trkpt><trkpt lat="41.9512686" lon="13.7002756"><ele>723.0</ele><time>2026-03-24T12:12:33.96Z</time></trkpt><trkpt lat="41.9511175" lon="13.7005048"><ele>723.0</ele><time>2026-03-24T12:12:34.96Z</time></trkpt><trkpt lat="41.9509649" lon="13.7007303"><ele>723.0</ele><time>2026-03-24T12:12:35.96Z</time></trkpt><trkpt lat="41.9508146" lon="13.7009572"><ele>724.3333333333334</ele><time>2026-03-24T12:12:36.961Z</time></trkpt><trkpt lat="41.9506634" lon="13.7011839"><ele>725.6666666666667</ele><time>2026-03-24T12:12:37.961Z</time></trkpt><trkpt lat="41.9505176" lon="13.7014037"><ele>727.0</ele><time>2026-03-24T12:12:38.96Z</time></trkpt><trkpt lat="41.9503794" lon="13.701608"><ele>727.0</ele><time>2026-03-24T12:12:39.961Z</time></trkpt><trkpt lat="41.9502458" lon="13.7018031"><ele>727.0</ele><time>2026-03-24T12:12:40.96Z</time></trkpt><trkpt lat="41.9501179" lon="13.702"><ele>727.0</ele><time>2026-03-24T12:12:41.961Z</time></trkpt><trkpt lat="41.9499872" lon="13.7022017"><ele>728.3333333333334</ele><time>2026-03-24T12:12:42.96Z</time></trkpt><trkpt lat="41.9498719" lon="13.7023796"><ele>729.6666666666666</ele><time>2026-03-24T12:12:43.96Z</time></trkpt><trkpt lat="41.9497577" lon="13.7025497"><ele>731.0</ele><time>2026-03-24T12:12:44.96Z</time></trkpt><trkpt lat="41.9496422" lon="13.702702"><ele>732.25</ele><time>2026-03-24T12:12:45.961Z</time></trkpt><trkpt lat="41.9495277" lon="13.7028213"><ele>733.5</ele><time>2026-03-24T12:12:46.961Z</time></trkpt><trkpt lat="41.9494112" lon="13.7029021"><ele>734.75</ele><time>2026-03-24T12:12:47.96Z</time></trkpt><trkpt lat="41.9492905" lon="13.7029417"><ele>736.0</ele><time>2026-03-24T12:12:48.96Z</time></trkpt><trkpt lat="41.9491752" lon="13.7029414"><ele>736.0</ele><time>2026-03-24T12:12:49.96Z</time></trkpt><trkpt lat="41.9490551" lon="13.7029022"><ele>736.0</ele><time>2026-03-24T12:12:50.96Z</time></trkpt><trkpt lat="41.948932" lon="13.7028304"><ele>736.0</ele><time>2026-03-24T12:12:51.961Z</time></trkpt><trkpt lat="41.9488116" lon="13.7027249"><ele>736.0</ele><time>2026-03-24T12:12:52.961Z</time></trkpt><trkpt lat="41.9486991" lon="13.7025898"><ele>736.0</ele><time>2026-03-24T12:12:53.96Z</time></trkpt><trkpt lat="41.9485848" lon="13.7024484"><ele>736.0</ele><time>2026-03-24T12:12:54.961Z</time></trkpt><trkpt lat="41.9484685" lon="13.7023202"><ele>736.0</ele><time>2026-03-24T12:12:55.961Z</time></trkpt><trkpt lat="41.9483364" lon="13.702224"><ele>736.0</ele><time>2026-03-24T12:12:56.96Z</time></trkpt><trkpt lat="41.9481911" lon="13.7021372"><ele>736.0</ele><time>2026-03-24T12:12:57.96Z</time></trkpt><trkpt lat="41.9480342" lon="13.7020579"><ele>736.0</ele><time>2026-03-24T12:12:58.961Z</time></trkpt><trkpt lat="41.9478942" lon="13.7019819"><ele>736.0</ele><time>2026-03-24T12:12:59.96Z</time></trkpt><trkpt lat="41.9477835" lon="13.7019206"><ele>736.0</ele><time>2026-03-24T12:13:00.961Z</time></trkpt><trkpt lat="41.9477003" lon="13.7018795"><ele>736.0</ele><time>2026-03-24T12:13:01.961Z</time></trkpt><trkpt lat="41.9476358" lon="13.7018481"><ele>736.0</ele><time>2026-03-24T12:13:02.96Z</time></trkpt><trkpt lat="41.9475724" lon="13.7017891"><ele>736.0</ele><time>2026-03-24T12:13:04.96Z</time></trkpt><trkpt lat="41.9475047" lon="13.7017575"><ele>736.0</ele><time>2026-03-24T12:16:49.961Z</time></trkpt><trkpt lat="41.9473921" lon="13.7017224"><ele>735.8</ele><time>2026-03-24T12:16:51.961Z</time></trkpt><trkpt lat="41.9473106" lon="13.7016852"><ele>735.5999999999999</ele><time>2026-03-24T12:16:52.961Z</time></trkpt><trkpt lat="41.9472138" lon="13.7016421"><ele>735.4</ele><time>2026-03-24T12:16:53.96Z</time></trkpt><trkpt lat="41.9471008" lon="13.7015958"><ele>735.2</ele><time>2026-03-24T12:16:54.96Z</time></trkpt><trkpt lat="41.946975" lon="13.7015425"><ele>735.0</ele><time>2026-03-24T12:16:55.96Z</time></trkpt><trkpt lat="41.9468369" lon="13.7014816"><ele>735.3333333333334</ele><time>2026-03-24T12:16:56.961Z</time></trkpt><trkpt lat="41.9466822" lon="13.7014143"><ele>735.6666666666667</ele><time>2026-03-24T12:16:57.96Z</time></trkpt><trkpt lat="41.9465137" lon="13.7013491"><ele>736.0</ele><time>2026-03-24T12:16:58.96Z</time></trkpt><trkpt lat="41.9463375" lon="13.7012752"><ele>736.0</ele><time>2026-03-24T12:16:59.96Z</time></trkpt><trkpt lat="41.9461528" lon="13.7011981"><ele>736.0</ele><time>2026-03-24T12:17:00.96Z</time></trkpt><trkpt lat="41.9459607" lon="13.7011244"><ele>736.0</ele><time>2026-03-24T12:17:01.96Z</time></trkpt><trkpt lat="41.9457699" lon="13.7010474"><ele>735.6666666666667</ele><time>2026-03-24T12:17:02.961Z</time></trkpt><trkpt lat="41.9455881" lon="13.7009741"><ele>735.3333333333334</ele><time>2026-03-24T12:17:03.961Z</time></trkpt><trkpt lat="41.9454056" lon="13.7009159"><ele>735.0</ele><time>2026-03-24T12:17:04.96Z</time></trkpt><trkpt lat="41.945217" lon="13.7008787"><ele>737.3333333333334</ele><time>2026-03-24T12:17:05.96Z</time></trkpt><trkpt lat="41.9450194" lon="13.7008598"><ele>739.6666666666667</ele><time>2026-03-24T12:17:06.961Z</time></trkpt><trkpt lat="41.9448178" lon="13.700848"><ele>742.0</ele><time>2026-03-24T12:17:07.96Z</time></trkpt><trkpt lat="41.9446191" lon="13.7008265"><ele>742.0</ele><time>2026-03-24T12:17:08.96Z</time></trkpt><trkpt lat="41.9444188" lon="13.7008068"><ele>742.0</ele><time>2026-03-24T12:17:09.96Z</time></trkpt><trkpt lat="41.9442207" lon="13.7007914"><ele>742.0</ele><time>2026-03-24T12:17:10.96Z</time></trkpt><trkpt lat="41.9440235" lon="13.7007991"><ele>744.6666666666667</ele><time>2026-03-24T12:17:11.96Z</time></trkpt><trkpt lat="41.9438322" lon="13.7008253"><ele>747.3333333333334</ele><time>2026-03-24T12:17:12.961Z</time></trkpt><trkpt lat="41.9436455" lon="13.7008741"><ele>750.0</ele><time>2026-03-24T12:17:13.961Z</time></trkpt><trkpt lat="41.9434654" lon="13.7009399"><ele>751.0</ele><time>2026-03-24T12:17:14.96Z</time></trkpt><trkpt lat="41.9432902" lon="13.7010312"><ele>752.0</ele><time>2026-03-24T12:17:15.961Z</time></trkpt><trkpt lat="41.9431284" lon="13.7011486"><ele>753.0</ele><time>2026-03-24T12:17:16.961Z</time></trkpt><trkpt lat="41.9429904" lon="13.7013001"><ele>759.0</ele><time>2026-03-24T12:17:17.961Z</time></trkpt><trkpt lat="41.9428745" lon="13.7014791"><ele>765.0</ele><time>2026-03-24T12:17:18.96Z</time></trkpt><trkpt lat="41.9427784" lon="13.7016831"><ele>771.0</ele><time>2026-03-24T12:17:19.96Z</time></trkpt><trkpt lat="41.9426997" lon="13.7019036"><ele>770.0</ele><time>2026-03-24T12:17:20.96Z</time></trkpt><trkpt lat="41.9426379" lon="13.7021463"><ele>769.0</ele><time>2026-03-24T12:17:21.96Z</time></trkpt><trkpt lat="41.9425912" lon="13.7024033"><ele>768.0</ele><time>2026-03-24T12:17:22.96Z</time></trkpt><trkpt lat="41.9425462" lon="13.702659"><ele>771.0</ele><time>2026-03-24T12:17:23.96Z</time></trkpt><trkpt lat="41.9425032" lon="13.70291"><ele>774.0</ele><time>2026-03-24T12:17:24.96Z</time></trkpt><trkpt lat="41.9424587" lon="13.7031342"><ele>777.0</ele><time>2026-03-24T12:17:25.96Z</time></trkpt><trkpt lat="41.9424113" lon="13.7033275"><ele>777.0</ele><time>2026-03-24T12:17:26.96Z</time></trkpt><trkpt lat="41.9423575" lon="13.7034964"><ele>777.0</ele><time>2026-03-24T12:17:27.961Z</time></trkpt><trkpt lat="41.9423156" lon="13.7036604"><ele>777.0</ele><time>2026-03-24T12:17:28.96Z</time></trkpt><trkpt lat="41.9422994" lon="13.7038352"><ele>777.0</ele><time>2026-03-24T12:17:29.96Z</time></trkpt><trkpt lat="41.9423149" lon="13.7040231"><ele>777.75</ele><time>2026-03-24T12:17:30.96Z</time></trkpt><trkpt lat="41.9423564" lon="13.7042087"><ele>778.5</ele><time>2026-03-24T12:17:31.96Z</time></trkpt><trkpt lat="41.942426" lon="13.7043834"><ele>779.25</ele><time>2026-03-24T12:17:32.96Z</time></trkpt><trkpt lat="41.9425068" lon="13.7045352"><ele>780.0</ele><time>2026-03-24T12:17:33.96Z</time></trkpt><trkpt lat="41.9425911" lon="13.7046314"><ele>783.25</ele><time>2026-03-24T12:17:34.96Z</time></trkpt><trkpt lat="41.9426624" lon="13.7047417"><ele>786.5</ele><time>2026-03-24T12:17:35.96Z</time></trkpt><trkpt lat="41.9426915" lon="13.7048813"><ele>789.75</ele><time>2026-03-24T12:17:36.96Z</time></trkpt><trkpt lat="41.9426997" lon="13.7050332"><ele>793.0</ele><time>2026-03-24T12:17:37.96Z</time></trkpt><trkpt lat="41.942671" lon="13.705213"><ele>794.0</ele><time>2026-03-24T12:17:38.96Z</time></trkpt><trkpt lat="41.942614" lon="13.7053988"><ele>795.0</ele><time>2026-03-24T12:17:39.96Z</time></trkpt><trkpt lat="41.9425354" lon="13.7055919"><ele>796.0</ele><time>2026-03-24T12:17:40.96Z</time></trkpt><trkpt lat="41.9424482" lon="13.7057837"><ele>796.25</ele><time>2026-03-24T12:17:41.96Z</time></trkpt><trkpt lat="41.9423677" lon="13.7059549"><ele>796.5</ele><time>2026-03-24T12:17:42.96Z</time></trkpt><trkpt lat="41.94229" lon="13.7061006"><ele>796.75</ele><time>2026-03-24T12:17:43.961Z</time></trkpt><trkpt lat="41.942204" lon="13.7062175"><ele>797.0</ele><time>2026-03-24T12:17:44.961Z</time></trkpt><trkpt lat="41.9420997" lon="13.7062963"><ele>797.0</ele><time>2026-03-24T12:17:45.96Z</time></trkpt><trkpt lat="41.9419769" lon="13.7063407"><ele>797.0</ele><time>2026-03-24T12:17:46.96Z</time></trkpt><trkpt lat="41.9418457" lon="13.7063342"><ele>797.0</ele><time>2026-03-24T12:17:47.961Z</time></trkpt><trkpt lat="41.9417145" lon="13.7062715"><ele>797.0</ele><time>2026-03-24T12:17:48.96Z</time></trkpt><trkpt lat="41.94158" lon="13.7061627"><ele>794.6666666666667</ele><time>2026-03-24T12:17:49.96Z</time></trkpt><trkpt lat="41.9414294" lon="13.7060362"><ele>792.3333333333333</ele><time>2026-03-24T12:17:50.961Z</time></trkpt><trkpt lat="41.941288" lon="13.7059107"><ele>790.0</ele><time>2026-03-24T12:17:51.961Z</time></trkpt><trkpt lat="41.9411567" lon="13.7058021"><ele>790.0</ele><time>2026-03-24T12:17:52.961Z</time></trkpt><trkpt lat="41.9410334" lon="13.7057349"><ele>790.0</ele><time>2026-03-24T12:17:53.96Z</time></trkpt><trkpt lat="41.9409018" lon="13.7057154"><ele>790.0</ele><time>2026-03-24T12:17:54.961Z</time></trkpt><trkpt lat="41.9407685" lon="13.7057445"><ele>790.0</ele><time>2026-03-24T12:17:55.96Z</time></trkpt><trkpt lat="41.9406355" lon="13.7058159"><ele>792.75</ele><time>2026-03-24T12:17:56.961Z</time></trkpt><trkpt lat="41.9405175" lon="13.7059188"><ele>795.5</ele><time>2026-03-24T12:17:57.96Z</time></trkpt><trkpt lat="41.9404106" lon="13.7060133"><ele>798.25</ele><time>2026-03-24T12:17:58.96Z</time></trkpt><trkpt lat="41.9402957" lon="13.7060812"><ele>801.0</ele><time>2026-03-24T12:17:59.96Z</time></trkpt><trkpt lat="41.9401688" lon="13.7060962"><ele>801.75</ele><time>2026-03-24T12:18:00.96Z</time></trkpt><trkpt lat="41.9400477" lon="13.7060539"><ele>802.5</ele><time>2026-03-24T12:18:01.961Z</time></trkpt><trkpt lat="41.9399211" lon="13.7059813"><ele>803.25</ele><time>2026-03-24T12:18:02.96Z</time></trkpt><trkpt lat="41.9397989" lon="13.7059097"><ele>804.0</ele><time>2026-03-24T12:18:03.96Z</time></trkpt><trkpt lat="41.9396915" lon="13.7058442"><ele>804.0</ele><time>2026-03-24T12:18:04.961Z</time></trkpt><trkpt lat="41.9395788" lon="13.7058126"><ele>804.0</ele><time>2026-03-24T12:18:05.961Z</time></trkpt><trkpt lat="41.9394777" lon="13.7058301"><ele>804.0</ele><time>2026-03-24T12:18:06.96Z</time></trkpt><trkpt lat="41.9393885" lon="13.7058895"><ele>804.0</ele><time>2026-03-24T12:18:07.96Z</time></trkpt><trkpt lat="41.9393142" lon="13.7059908"><ele>804.0</ele><time>2026-03-24T12:18:08.96Z</time></trkpt><trkpt lat="41.9392336" lon="13.7061181"><ele>810.25</ele><time>2026-03-24T12:18:09.96Z</time></trkpt><trkpt lat="41.939139" lon="13.7062356"><ele>816.5</ele><time>2026-03-24T12:18:10.961Z</time></trkpt><trkpt lat="41.9390396" lon="13.7063209"><ele>822.75</ele><time>2026-03-24T12:18:11.96Z</time></trkpt><trkpt lat="41.9389243" lon="13.706356"><ele>829.0</ele><time>2026-03-24T12:18:12.96Z</time></trkpt><trkpt lat="41.9387843" lon="13.7063622"><ele>829.0</ele><time>2026-03-24T12:18:13.96Z</time></trkpt><trkpt lat="41.9386325" lon="13.7063761"><ele>829.0</ele><time>2026-03-24T12:18:14.96Z</time></trkpt><trkpt lat="41.9384803" lon="13.7064257"><ele>829.0</ele><time>2026-03-24T12:18:15.961Z</time></trkpt><trkpt lat="41.9383156" lon="13.7064891"><ele>828.6666666666666</ele><time>2026-03-24T12:18:16.96Z</time></trkpt><trkpt lat="41.9381443" lon="13.7065454"><ele>828.3333333333333</ele><time>2026-03-24T12:18:17.961Z</time></trkpt><trkpt lat="41.9379819" lon="13.7065873"><ele>828.0</ele><time>2026-03-24T12:18:18.961Z</time></trkpt><trkpt lat="41.9378525" lon="13.7066125"><ele>828.0</ele><time>2026-03-24T12:18:19.96Z</time></trkpt><trkpt lat="41.9377509" lon="13.7066151"><ele>828.0</ele><time>2026-03-24T12:18:20.96Z</time></trkpt><trkpt lat="41.9376623" lon="13.7065824"><ele>828.0</ele><time>2026-03-24T12:18:21.96Z</time></trkpt><trkpt lat="41.9375968" lon="13.706515"><ele>828.0</ele><time>2026-03-24T12:18:22.96Z</time></trkpt><trkpt lat="41.9375641" lon="13.7064059"><ele>828.0</ele><time>2026-03-24T12:18:23.96Z</time></trkpt><trkpt lat="41.9375705" lon="13.7062754"><ele>828.0</ele><time>2026-03-24T12:18:24.96Z</time></trkpt><trkpt lat="41.9375988" lon="13.7061325"><ele>828.0</ele><time>2026-03-24T12:18:25.961Z</time></trkpt><trkpt lat="41.9376374" lon="13.7059766"><ele>828.0</ele><time>2026-03-24T12:18:26.96Z</time></trkpt><trkpt lat="41.9376429" lon="13.7057975"><ele>828.0</ele><time>2026-03-24T12:18:27.96Z</time></trkpt><trkpt lat="41.9376264" lon="13.7056116"><ele>825.3333333333333</ele><time>2026-03-24T12:18:28.961Z</time></trkpt><trkpt lat="41.9375886" lon="13.7054247"><ele>822.6666666666666</ele><time>2026-03-24T12:18:29.96Z</time></trkpt><trkpt lat="41.9375317" lon="13.7052285"><ele>820.0</ele><time>2026-03-24T12:18:30.96Z</time></trkpt><trkpt lat="41.9374694" lon="13.7050245"><ele>825.6666666666666</ele><time>2026-03-24T12:18:31.96Z</time></trkpt><trkpt lat="41.9374311" lon="13.7048206"><ele>831.3333333333333</ele><time>2026-03-24T12:18:32.96Z</time></trkpt><trkpt lat="41.9374078" lon="13.7046085"><ele>837.0</ele><time>2026-03-24T12:18:33.96Z</time></trkpt><trkpt lat="41.9374025" lon="13.7044185"><ele>837.6666666666667</ele><time>2026-03-24T12:18:34.96Z</time></trkpt><trkpt lat="41.9373923" lon="13.7042287"><ele>838.3333333333334</ele><time>2026-03-24T12:18:35.96Z</time></trkpt><trkpt lat="41.9373813" lon="13.7040247"><ele>839.0</ele><time>2026-03-24T12:18:36.96Z</time></trkpt><trkpt lat="41.9373582" lon="13.7038172"><ele>839.0</ele><time>2026-03-24T12:18:37.96Z</time></trkpt><trkpt lat="41.9373083" lon="13.7036167"><ele>839.0</ele><time>2026-03-24T12:18:38.961Z</time></trkpt><trkpt lat="41.9372212" lon="13.7034375"><ele>839.0</ele><time>2026-03-24T12:18:39.961Z</time></trkpt><trkpt lat="41.9370952" lon="13.7032821"><ele>839.3333333333334</ele><time>2026-03-24T12:18:40.96Z</time></trkpt><trkpt lat="41.9369291" lon="13.7031478"><ele>839.6666666666667</ele><time>2026-03-24T12:18:41.961Z</time></trkpt><trkpt lat="41.9367536" lon="13.7030093"><ele>840.0</ele><time>2026-03-24T12:18:42.961Z</time></trkpt><trkpt lat="41.9365883" lon="13.7028405"><ele>842.6666666666667</ele><time>2026-03-24T12:18:43.96Z</time></trkpt><trkpt lat="41.9364187" lon="13.7026453"><ele>845.3333333333334</ele><time>2026-03-24T12:18:44.96Z</time></trkpt><trkpt lat="41.9362761" lon="13.7024765"><ele>848.0</ele><time>2026-03-24T12:18:45.96Z</time></trkpt><trkpt lat="41.9361561" lon="13.7023358"><ele>848.0</ele><time>2026-03-24T12:18:46.96Z</time></trkpt><trkpt lat="41.9360621" lon="13.702228"><ele>848.0</ele><time>2026-03-24T12:18:47.96Z</time></trkpt><trkpt lat="41.9359707" lon="13.7021682"><ele>848.0</ele><time>2026-03-24T12:18:48.961Z</time></trkpt><trkpt lat="41.935883" lon="13.7021591"><ele>848.0</ele><time>2026-03-24T12:18:49.96Z</time></trkpt><trkpt lat="41.9358099" lon="13.7022062"><ele>848.0</ele><time>2026-03-24T12:18:50.96Z</time></trkpt><trkpt lat="41.935774" lon="13.702296"><ele>848.0</ele><time>2026-03-24T12:18:51.96Z</time></trkpt><trkpt lat="41.9357915" lon="13.7023962"><ele>848.0</ele><time>2026-03-24T12:18:52.96Z</time></trkpt><trkpt lat="41.9358504" lon="13.7025027"><ele>848.0</ele><time>2026-03-24T12:18:53.961Z</time></trkpt><trkpt lat="41.9359445" lon="13.7025979"><ele>848.0</ele><time>2026-03-24T12:18:54.96Z</time></trkpt><trkpt lat="41.9360424" lon="13.702705"><ele>848.0</ele><time>2026-03-24T12:18:55.961Z</time></trkpt><trkpt lat="41.9361162" lon="13.7028335"><ele>850.0</ele><time>2026-03-24T12:18:56.96Z</time></trkpt><trkpt lat="41.936131" lon="13.7030046"><ele>852.0</ele><time>2026-03-24T12:18:57.96Z</time></trkpt><trkpt lat="41.936133" lon="13.7032141"><ele>854.0</ele><time>2026-03-24T12:18:58.96Z</time></trkpt><trkpt lat="41.9361176" lon="13.7034366"><ele>854.75</ele><time>2026-03-24T12:18:59.961Z</time></trkpt><trkpt lat="41.936082" lon="13.7036273"><ele>855.5</ele><time>2026-03-24T12:19:00.96Z</time></trkpt><trkpt lat="41.9360043" lon="13.7038053"><ele>856.25</ele><time>2026-03-24T12:19:01.96Z</time></trkpt><trkpt lat="41.9359235" lon="13.7039594"><ele>857.0</ele><time>2026-03-24T12:19:02.96Z</time></trkpt><trkpt lat="41.9358843" lon="13.7041314"><ele>857.3333333333334</ele><time>2026-03-24T12:19:03.961Z</time></trkpt><trkpt lat="41.9358422" lon="13.7043007"><ele>857.6666666666667</ele><time>2026-03-24T12:19:04.961Z</time></trkpt><trkpt lat="41.9359319" lon="13.7045057"><ele>858.0</ele><time>2026-03-24T12:19:05.96Z</time></trkpt><trkpt lat="41.9360118" lon="13.704712"><ele>858.0</ele><time>2026-03-24T12:19:06.96Z</time></trkpt><trkpt lat="41.9360781" lon="13.7048948"><ele>858.0</ele><time>2026-03-24T12:19:07.96Z</time></trkpt><trkpt lat="41.9361164" lon="13.705079"><ele>858.0</ele><time>2026-03-24T12:19:08.961Z</time></trkpt><trkpt lat="41.9361185" lon="13.7052764"><ele>858.0</ele><time>2026-03-24T12:19:09.961Z</time></trkpt><trkpt lat="41.936093" lon="13.7055102"><ele>858.0</ele><time>2026-03-24T12:19:10.96Z</time></trkpt><trkpt lat="41.9360628" lon="13.7057601"><ele>858.0</ele><time>2026-03-24T12:19:11.961Z</time></trkpt><trkpt lat="41.9360375" lon="13.7060259"><ele>858.0</ele><time>2026-03-24T12:19:12.961Z</time></trkpt><trkpt lat="41.9360278" lon="13.7062969"><ele>858.0</ele><time>2026-03-24T12:19:13.96Z</time></trkpt><trkpt lat="41.9360312" lon="13.7065599"><ele>858.0</ele><time>2026-03-24T12:19:14.96Z</time></trkpt><trkpt lat="41.9360292" lon="13.7068009"><ele>858.0</ele><time>2026-03-24T12:19:15.96Z</time></trkpt><trkpt lat="41.9360121" lon="13.7070134"><ele>859.3333333333333</ele><time>2026-03-24T12:19:16.96Z</time></trkpt><trkpt lat="41.9359905" lon="13.7072194"><ele>860.6666666666666</ele><time>2026-03-24T12:19:17.96Z</time></trkpt><trkpt lat="41.9358773" lon="13.7074279"><ele>862.0</ele><time>2026-03-24T12:19:18.96Z</time></trkpt><trkpt lat="41.9357671" lon="13.7076387"><ele>869.6666666666666</ele><time>2026-03-24T12:19:19.961Z</time></trkpt><trkpt lat="41.9356357" lon="13.7078533"><ele>877.3333333333333</ele><time>2026-03-24T12:19:20.961Z</time></trkpt><trkpt lat="41.9355087" lon="13.7080387"><ele>885.0</ele><time>2026-03-24T12:19:21.961Z</time></trkpt><trkpt lat="41.9353817" lon="13.7082052"><ele>885.0</ele><time>2026-03-24T12:19:22.961Z</time></trkpt><trkpt lat="41.9352723" lon="13.708323"><ele>885.0</ele><time>2026-03-24T12:19:23.96Z</time></trkpt><trkpt lat="41.9351945" lon="13.7084219"><ele>885.0</ele><time>2026-03-24T12:19:24.961Z</time></trkpt><trkpt lat="41.9351473" lon="13.7085245"><ele>885.0</ele><time>2026-03-24T12:19:25.961Z</time></trkpt><trkpt lat="41.9351179" lon="13.7086228"><ele>885.0</ele><time>2026-03-24T12:19:26.961Z</time></trkpt><trkpt lat="41.9351346" lon="13.7087368"><ele>892.25</ele><time>2026-03-24T12:19:27.96Z</time></trkpt><trkpt lat="41.9352527" lon="13.7088135"><ele>899.5</ele><time>2026-03-24T12:19:28.96Z</time></trkpt><trkpt lat="41.935371" lon="13.7088663"><ele>906.75</ele><time>2026-03-24T12:19:29.96Z</time></trkpt><trkpt lat="41.9355396" lon="13.7088501"><ele>914.0</ele><time>2026-03-24T12:19:30.96Z</time></trkpt><trkpt lat="41.9357295" lon="13.7088421"><ele>918.5</ele><time>2026-03-24T12:19:31.96Z</time></trkpt><trkpt lat="41.935955" lon="13.7088263"><ele>923.0</ele><time>2026-03-24T12:19:32.961Z</time></trkpt><trkpt lat="41.9361991" lon="13.7087871"><ele>923.0</ele><time>2026-03-24T12:19:33.96Z</time></trkpt><trkpt lat="41.9364551" lon="13.7087018"><ele>923.0</ele><time>2026-03-24T12:19:34.96Z</time></trkpt><trkpt lat="41.9366975" lon="13.7086049"><ele>912.6666666666667</ele><time>2026-03-24T12:19:35.961Z</time></trkpt><trkpt lat="41.9369058" lon="13.7085216"><ele>902.3333333333333</ele><time>2026-03-24T12:19:36.96Z</time></trkpt><trkpt lat="41.9370683" lon="13.7084654"><ele>892.0</ele><time>2026-03-24T12:19:37.961Z</time></trkpt><trkpt lat="41.9371945" lon="13.7084441"><ele>892.0</ele><time>2026-03-24T12:19:38.96Z</time></trkpt><trkpt lat="41.9373182" lon="13.70844"><ele>892.0</ele><time>2026-03-24T12:19:39.96Z</time></trkpt><trkpt lat="41.9374193" lon="13.7085585"><ele>892.0</ele><time>2026-03-24T12:19:40.96Z</time></trkpt><trkpt lat="41.9375122" lon="13.708697"><ele>892.0</ele><time>2026-03-24T12:19:41.961Z</time></trkpt><trkpt lat="41.9376002" lon="13.7088636"><ele>894.3333333333333</ele><time>2026-03-24T12:19:42.961Z</time></trkpt><trkpt lat="41.9376666" lon="13.7090391"><ele>896.6666666666667</ele><time>2026-03-24T12:19:43.96Z</time></trkpt><trkpt lat="41.9377313" lon="13.7092334"><ele>899.0</ele><time>2026-03-24T12:19:44.961Z</time></trkpt><trkpt lat="41.9377525" lon="13.7094302"><ele>899.0</ele><time>2026-03-24T12:19:45.96Z</time></trkpt><trkpt lat="41.9377868" lon="13.7096437"><ele>899.0</ele><time>2026-03-24T12:19:46.96Z</time></trkpt><trkpt lat="41.9378577" lon="13.7098019"><ele>899.0</ele><time>2026-03-24T12:19:47.961Z</time></trkpt><trkpt lat="41.9379176" lon="13.7099565"><ele>899.0</ele><time>2026-03-24T12:19:48.961Z</time></trkpt><trkpt lat="41.9379693" lon="13.7101084"><ele>903.0</ele><time>2026-03-24T12:19:49.96Z</time></trkpt><trkpt lat="41.9379918" lon="13.7102891"><ele>907.0</ele><time>2026-03-24T12:19:50.96Z</time></trkpt><trkpt lat="41.9380052" lon="13.710484"><ele>911.0</ele><time>2026-03-24T12:19:51.96Z</time></trkpt><trkpt lat="41.9380079" lon="13.7106846"><ele>915.0</ele><time>2026-03-24T12:19:52.96Z</time></trkpt><trkpt lat="41.9380126" lon="13.7108797"><ele>915.0</ele><time>2026-03-24T12:19:53.961Z</time></trkpt><trkpt lat="41.9380238" lon="13.7110669"><ele>915.0</ele><time>2026-03-24T12:19:54.961Z</time></trkpt><trkpt lat="41.9380474" lon="13.7112276"><ele>915.0</ele><time>2026-03-24T12:19:55.961Z</time></trkpt><trkpt lat="41.9380654" lon="13.7113562"><ele>915.0</ele><time>2026-03-24T12:19:56.961Z</time></trkpt><trkpt lat="41.938088" lon="13.7114565"><ele>915.0</ele><time>2026-03-24T12:19:57.96Z</time></trkpt><trkpt lat="41.938114" lon="13.7115339"><ele>918.1666666666666</ele><time>2026-03-24T12:19:58.96Z</time></trkpt><trkpt lat="41.938177" lon="13.7115733"><ele>921.3333333333333</ele><time>2026-03-24T12:19:59.96Z</time></trkpt><trkpt lat="41.9382469" lon="13.7115729"><ele>924.5</ele><time>2026-03-24T12:20:00.961Z</time></trkpt><trkpt lat="41.938318" lon="13.7115448"><ele>927.6666666666666</ele><time>2026-03-24T12:20:01.96Z</time></trkpt><trkpt lat="41.9383868" lon="13.7114966"><ele>930.8333333333333</ele><time>2026-03-24T12:20:02.961Z</time></trkpt><trkpt lat="41.9384581" lon="13.7114274"><ele>934.0</ele><time>2026-03-24T12:20:03.96Z</time></trkpt><trkpt lat="41.9385253" lon="13.7113444"><ele>934.2</ele><time>2026-03-24T12:20:04.96Z</time></trkpt><trkpt lat="41.9385918" lon="13.7112512"><ele>934.4000000000001</ele><time>2026-03-24T12:20:05.96Z</time></trkpt><trkpt lat="41.9386538" lon="13.7111544"><ele>934.6</ele><time>2026-03-24T12:20:06.96Z</time></trkpt><trkpt lat="41.9387176" lon="13.7110561"><ele>934.8</ele><time>2026-03-24T12:20:07.961Z</time></trkpt><trkpt lat="41.9387798" lon="13.7109569"><ele>935.0</ele><time>2026-03-24T12:20:08.96Z</time></trkpt><trkpt lat="41.9388478" lon="13.7108558"><ele>935.0</ele><time>2026-03-24T12:20:09.961Z</time></trkpt><trkpt lat="41.9389166" lon="13.7107628"><ele>935.0</ele><time>2026-03-24T12:20:10.96Z</time></trkpt><trkpt lat="41.9389931" lon="13.7106793"><ele>935.0</ele><time>2026-03-24T12:20:11.96Z</time></trkpt><trkpt lat="41.9390756" lon="13.710603"><ele>935.0</ele><time>2026-03-24T12:20:12.961Z</time></trkpt><trkpt lat="41.9391647" lon="13.7105321"><ele>935.0</ele><time>2026-03-24T12:20:13.961Z</time></trkpt><trkpt lat="41.939263" lon="13.710461"><ele>936.2</ele><time>2026-03-24T12:20:14.96Z</time></trkpt><trkpt lat="41.9393655" lon="13.7104013"><ele>937.4</ele><time>2026-03-24T12:20:15.96Z</time></trkpt><trkpt lat="41.9394718" lon="13.7103377"><ele>938.5999999999999</ele><time>2026-03-24T12:20:16.96Z</time></trkpt><trkpt lat="41.9395776" lon="13.7102744"><ele>939.8</ele><time>2026-03-24T12:20:17.96Z</time></trkpt><trkpt lat="41.9396724" lon="13.7102234"><ele>941.0</ele><time>2026-03-24T12:20:18.96Z</time></trkpt><trkpt lat="41.9397586" lon="13.7101878"><ele>941.0000000000001</ele><time>2026-03-24T12:20:19.961Z</time></trkpt><trkpt lat="41.9398421" lon="13.710162"><ele>941.0</ele><time>2026-03-24T12:20:20.96Z</time></trkpt><trkpt lat="41.9399131" lon="13.710142"><ele>941.0</ele><time>2026-03-24T12:20:21.96Z</time></trkpt><trkpt lat="41.9399778" lon="13.710135"><ele>941.0</ele><time>2026-03-24T12:20:22.961Z</time></trkpt><trkpt lat="41.9400668" lon="13.7101763"><ele>941.0000000000001</ele><time>2026-03-24T12:20:24.96Z</time></trkpt><trkpt lat="41.9400495" lon="13.7102844"><ele>941.0</ele><time>2026-03-24T12:20:26.961Z</time></trkpt><trkpt lat="41.9399361" lon="13.7102978"><ele>941.0</ele><time>2026-03-24T12:20:28.961Z</time></trkpt><trkpt lat="41.9398354" lon="13.7102834"><ele>940.9999999999999</ele><time>2026-03-24T12:20:30.96Z</time></trkpt><trkpt lat="41.9397694" lon="13.7103184"><ele>940.9999999999999</ele><time>2026-03-24T12:21:31.96Z</time></trkpt><trkpt lat="41.9396459" lon="13.7103859"><ele>941.0</ele><time>2026-03-24T12:21:33.961Z</time></trkpt><trkpt lat="41.9395697" lon="13.7104473"><ele>941.0</ele><time>2026-03-24T12:21:34.961Z</time></trkpt><trkpt lat="41.9394851" lon="13.7105233"><ele>941.0</ele><time>2026-03-24T12:21:35.961Z</time></trkpt><trkpt lat="41.9393922" lon="13.7106106"><ele>941.0</ele><time>2026-03-24T12:21:36.961Z</time></trkpt><trkpt lat="41.9392972" lon="13.7107039"><ele>941.0</ele><time>2026-03-24T12:21:37.961Z</time></trkpt><trkpt lat="41.9391999" lon="13.7107988"><ele>941.0</ele><time>2026-03-24T12:21:38.96Z</time></trkpt><trkpt lat="41.9391042" lon="13.7109149"><ele>939.0</ele><time>2026-03-24T12:21:39.96Z</time></trkpt><trkpt lat="41.9390117" lon="13.7110628"><ele>937.0</ele><time>2026-03-24T12:21:40.96Z</time></trkpt><trkpt lat="41.9389187" lon="13.7112443"><ele>935.0</ele><time>2026-03-24T12:21:41.96Z</time></trkpt><trkpt lat="41.9388239" lon="13.711442"><ele>941.6666666666667</ele><time>2026-03-24T12:21:42.96Z</time></trkpt><trkpt lat="41.9387305" lon="13.711639"><ele>948.3333333333333</ele><time>2026-03-24T12:21:43.961Z</time></trkpt><trkpt lat="41.9386309" lon="13.7118184"><ele>955.0</ele><time>2026-03-24T12:21:44.96Z</time></trkpt><trkpt lat="41.9385256" lon="13.7119598"><ele>957.5</ele><time>2026-03-24T12:21:45.96Z</time></trkpt><trkpt lat="41.9384125" lon="13.7120716"><ele>960.0</ele><time>2026-03-24T12:21:46.96Z</time></trkpt><trkpt lat="41.9382904" lon="13.7121685"><ele>962.5</ele><time>2026-03-24T12:21:47.96Z</time></trkpt><trkpt lat="41.9381557" lon="13.7122433"><ele>965.0</ele><time>2026-03-24T12:21:48.96Z</time></trkpt><trkpt lat="41.9380203" lon="13.7123159"><ele>965.0</ele><time>2026-03-24T12:21:49.961Z</time></trkpt><trkpt lat="41.9379012" lon="13.7123849"><ele>965.0</ele><time>2026-03-24T12:21:50.96Z</time></trkpt><trkpt lat="41.9377823" lon="13.7124446"><ele>965.0</ele><time>2026-03-24T12:21:51.96Z</time></trkpt><trkpt lat="41.9377005" lon="13.7124909"><ele>965.0</ele><time>2026-03-24T12:21:52.96Z</time></trkpt><trkpt lat="41.9376034" lon="13.7125151"><ele>965.0</ele><time>2026-03-24T12:21:53.96Z</time></trkpt><trkpt lat="41.937526" lon="13.712525"><ele>965.3333333333334</ele><time>2026-03-24T12:21:54.961Z</time></trkpt><trkpt lat="41.937467" lon="13.7124919"><ele>965.6666666666667</ele><time>2026-03-24T12:21:55.961Z</time></trkpt><trkpt lat="41.9374228" lon="13.7124094"><ele>966.0</ele><time>2026-03-24T12:21:56.96Z</time></trkpt><trkpt lat="41.9374073" lon="13.7123091"><ele>966.3333333333333</ele><time>2026-03-24T12:21:57.961Z</time></trkpt><trkpt lat="41.937406" lon="13.7121759"><ele>966.6666666666666</ele><time>2026-03-24T12:21:58.96Z</time></trkpt><trkpt lat="41.9374146" lon="13.7120262"><ele>967.0</ele><time>2026-03-24T12:21:59.96Z</time></trkpt><trkpt lat="41.9374303" lon="13.7118476"><ele>962.3333333333333</ele><time>2026-03-24T12:22:00.96Z</time></trkpt><trkpt lat="41.9374418" lon="13.7116518"><ele>957.6666666666667</ele><time>2026-03-24T12:22:01.96Z</time></trkpt><trkpt lat="41.9374369" lon="13.7114404"><ele>953.0</ele><time>2026-03-24T12:22:02.961Z</time></trkpt><trkpt lat="41.9374075" lon="13.7112174"><ele>951.25</ele><time>2026-03-24T12:22:03.96Z</time></trkpt><trkpt lat="41.9373616" lon="13.7110152"><ele>949.5</ele><time>2026-03-24T12:22:04.96Z</time></trkpt><trkpt lat="41.9373001" lon="13.7108416"><ele>947.75</ele><time>2026-03-24T12:22:05.96Z</time></trkpt><trkpt lat="41.9372235" lon="13.7106911"><ele>946.0</ele><time>2026-03-24T12:22:06.96Z</time></trkpt><trkpt lat="41.9371256" lon="13.7105647"><ele>946.0</ele><time>2026-03-24T12:22:07.96Z</time></trkpt><trkpt lat="41.9370117" lon="13.7104641"><ele>946.0</ele><time>2026-03-24T12:22:08.96Z</time></trkpt><trkpt lat="41.9368873" lon="13.7103953"><ele>946.0</ele><time>2026-03-24T12:22:09.96Z</time></trkpt><trkpt lat="41.9367564" lon="13.710362"><ele>946.0</ele><time>2026-03-24T12:22:10.96Z</time></trkpt><trkpt lat="41.9366235" lon="13.7103659"><ele>952.25</ele><time>2026-03-24T12:22:11.96Z</time></trkpt><trkpt lat="41.9364843" lon="13.7104009"><ele>958.5</ele><time>2026-03-24T12:22:12.96Z</time></trkpt><trkpt lat="41.9363537" lon="13.7104662"><ele>964.75</ele><time>2026-03-24T12:22:13.961Z</time></trkpt><trkpt lat="41.9362336" lon="13.7105656"><ele>971.0</ele><time>2026-03-24T12:22:14.96Z</time></trkpt><trkpt lat="41.9361327" lon="13.7107032"><ele>971.0</ele><time>2026-03-24T12:22:15.961Z</time></trkpt><trkpt lat="41.9360392" lon="13.7108737"><ele>971.0</ele><time>2026-03-24T12:22:16.96Z</time></trkpt><trkpt lat="41.9359335" lon="13.7110622"><ele>971.0</ele><time>2026-03-24T12:22:17.96Z</time></trkpt><trkpt lat="41.9358127" lon="13.7112397"><ele>974.0</ele><time>2026-03-24T12:22:18.96Z</time></trkpt><trkpt lat="41.9356759" lon="13.7114035"><ele>977.0</ele><time>2026-03-24T12:22:19.96Z</time></trkpt><trkpt lat="41.9355274" lon="13.7115657"><ele>980.0</ele><time>2026-03-24T12:22:20.961Z</time></trkpt><trkpt lat="41.935373" lon="13.7117237"><ele>980.0</ele><time>2026-03-24T12:22:21.961Z</time></trkpt><trkpt lat="41.9352048" lon="13.711866"><ele>980.0</ele><time>2026-03-24T12:22:22.96Z</time></trkpt><trkpt lat="41.9350204" lon="13.7119887"><ele>980.0</ele><time>2026-03-24T12:22:23.96Z</time></trkpt><trkpt lat="41.9348307" lon="13.71209"><ele>984.6666666666667</ele><time>2026-03-24T12:22:24.96Z</time></trkpt><trkpt lat="41.9346504" lon="13.7121853"><ele>989.3333333333333</ele><time>2026-03-24T12:22:25.96Z</time></trkpt><trkpt lat="41.9344854" lon="13.7122656"><ele>994.0</ele><time>2026-03-24T12:22:26.961Z</time></trkpt><trkpt lat="41.9343287" lon="13.7123319"><ele>991.6666666666666</ele><time>2026-03-24T12:22:27.96Z</time></trkpt><trkpt lat="41.9341689" lon="13.7123655"><ele>989.3333333333333</ele><time>2026-03-24T12:22:28.96Z</time></trkpt><trkpt lat="41.9339995" lon="13.7123723"><ele>987.0</ele><time>2026-03-24T12:22:29.96Z</time></trkpt><trkpt lat="41.9338316" lon="13.7123622"><ele>987.0</ele><time>2026-03-24T12:22:30.96Z</time></trkpt><trkpt lat="41.9336747" lon="13.7123469"><ele>987.0</ele><time>2026-03-24T12:22:31.961Z</time></trkpt><trkpt lat="41.9335298" lon="13.7123279"><ele>987.0</ele><time>2026-03-24T12:22:32.961Z</time></trkpt><trkpt lat="41.9333973" lon="13.7123047"><ele>987.0</ele><time>2026-03-24T12:22:33.96Z</time></trkpt><trkpt lat="41.9332972" lon="13.7122552"><ele>987.0</ele><time>2026-03-24T12:22:34.961Z</time></trkpt><trkpt lat="41.9332102" lon="13.7121907"><ele>987.0</ele><time>2026-03-24T12:22:35.961Z</time></trkpt><trkpt lat="41.9331419" lon="13.7121009"><ele>987.0</ele><time>2026-03-24T12:22:36.96Z</time></trkpt><trkpt lat="41.9330921" lon="13.7119898"><ele>987.0</ele><time>2026-03-24T12:22:37.96Z</time></trkpt><trkpt lat="41.9330634" lon="13.711859"><ele>987.0</ele><time>2026-03-24T12:22:38.96Z</time></trkpt><trkpt lat="41.9330667" lon="13.7117069"><ele>987.0</ele><time>2026-03-24T12:22:39.96Z</time></trkpt><trkpt lat="41.9330924" lon="13.7115369"><ele>987.0</ele><time>2026-03-24T12:22:40.96Z</time></trkpt><trkpt lat="41.9331403" lon="13.7113641"><ele>987.0</ele><time>2026-03-24T12:22:41.961Z</time></trkpt><trkpt lat="41.9331885" lon="13.7111943"><ele>987.0</ele><time>2026-03-24T12:22:42.961Z</time></trkpt><trkpt lat="41.933211" lon="13.7110399"><ele>987.0</ele><time>2026-03-24T12:22:43.96Z</time></trkpt><trkpt lat="41.9331925" lon="13.7108782"><ele>987.0</ele><time>2026-03-24T12:22:44.96Z</time></trkpt><trkpt lat="41.933134" lon="13.7107312"><ele>987.0</ele><time>2026-03-24T12:22:45.961Z</time></trkpt><trkpt lat="41.93304" lon="13.7105973"><ele>987.0</ele><time>2026-03-24T12:22:46.96Z</time></trkpt><trkpt lat="41.9329295" lon="13.7104656"><ele>987.0</ele><time>2026-03-24T12:22:47.961Z</time></trkpt><trkpt lat="41.9328207" lon="13.7103048"><ele>987.0</ele><time>2026-03-24T12:22:48.96Z</time></trkpt><trkpt lat="41.932727" lon="13.7101223"><ele>987.0</ele><time>2026-03-24T12:22:49.96Z</time></trkpt><trkpt lat="41.9326567" lon="13.7099107"><ele>988.3333333333333</ele><time>2026-03-24T12:22:50.96Z</time></trkpt><trkpt lat="41.9325951" lon="13.7097043"><ele>989.6666666666666</ele><time>2026-03-24T12:22:51.961Z</time></trkpt><trkpt lat="41.9325119" lon="13.7095135"><ele>991.0</ele><time>2026-03-24T12:22:52.96Z</time></trkpt><trkpt lat="41.932413" lon="13.7093496"><ele>991.0</ele><time>2026-03-24T12:22:53.96Z</time></trkpt><trkpt lat="41.9322933" lon="13.7092075"><ele>991.0</ele><time>2026-03-24T12:22:54.961Z</time></trkpt><trkpt lat="41.9321609" lon="13.7090929"><ele>991.0</ele><time>2026-03-24T12:22:55.96Z</time></trkpt><trkpt lat="41.9320264" lon="13.7090082"><ele>991.0</ele><time>2026-03-24T12:22:56.961Z</time></trkpt><trkpt lat="41.9318985" lon="13.7089228"><ele>991.0</ele><time>2026-03-24T12:22:57.96Z</time></trkpt><trkpt lat="41.931791" lon="13.7088161"><ele>991.0</ele><time>2026-03-24T12:22:58.96Z</time></trkpt><trkpt lat="41.9317121" lon="13.7086925"><ele>991.0</ele><time>2026-03-24T12:22:59.96Z</time></trkpt><trkpt lat="41.931654" lon="13.7085812"><ele>992.4</ele><time>2026-03-24T12:23:00.961Z</time></trkpt><trkpt lat="41.9315726" lon="13.7085068"><ele>993.8</ele><time>2026-03-24T12:23:01.961Z</time></trkpt><trkpt lat="41.9314739" lon="13.7084785"><ele>995.1999999999999</ele><time>2026-03-24T12:23:02.961Z</time></trkpt><trkpt lat="41.931355" lon="13.708498"><ele>996.5999999999999</ele><time>2026-03-24T12:23:03.96Z</time></trkpt><trkpt lat="41.9312304" lon="13.7085444"><ele>998.0</ele><time>2026-03-24T12:23:04.96Z</time></trkpt><trkpt lat="41.9311106" lon="13.7086265"><ele>1001.75</ele><time>2026-03-24T12:23:05.961Z</time></trkpt><trkpt lat="41.9310047" lon="13.7087444"><ele>1005.5</ele><time>2026-03-24T12:23:06.961Z</time></trkpt><trkpt lat="41.9309161" lon="13.7088789"><ele>1009.25</ele><time>2026-03-24T12:23:07.96Z</time></trkpt><trkpt lat="41.9308242" lon="13.7090055"><ele>1013.0</ele><time>2026-03-24T12:23:08.96Z</time></trkpt><trkpt lat="41.9307226" lon="13.7091072"><ele>1013.8</ele><time>2026-03-24T12:23:09.96Z</time></trkpt><trkpt lat="41.9306222" lon="13.7091835"><ele>1014.5999999999999</ele><time>2026-03-24T12:23:10.96Z</time></trkpt><trkpt lat="41.9305181" lon="13.7092053"><ele>1015.4000000000001</ele><time>2026-03-24T12:23:11.961Z</time></trkpt><trkpt lat="41.9304318" lon="13.7091802"><ele>1016.2</ele><time>2026-03-24T12:23:12.961Z</time></trkpt><trkpt lat="41.9303672" lon="13.7091164"><ele>1017.0</ele><time>2026-03-24T12:23:13.96Z</time></trkpt><trkpt lat="41.9303237" lon="13.709006"><ele>1017.0</ele><time>2026-03-24T12:23:14.961Z</time></trkpt><trkpt lat="41.9302905" lon="13.7088708"><ele>1017.0</ele><time>2026-03-24T12:23:15.96Z</time></trkpt><trkpt lat="41.9302231" lon="13.7087596"><ele>1017.0</ele><time>2026-03-24T12:23:16.961Z</time></trkpt><trkpt lat="41.9301191" lon="13.7086652"><ele>1017.0</ele><time>2026-03-24T12:23:17.961Z</time></trkpt><trkpt lat="41.9299826" lon="13.7085916"><ele>1016.6666666666667</ele><time>2026-03-24T12:23:18.96Z</time></trkpt><trkpt lat="41.9298222" lon="13.7085298"><ele>1016.3333333333334</ele><time>2026-03-24T12:23:19.96Z</time></trkpt><trkpt lat="41.9296517" lon="13.7084788"><ele>1016.0</ele><time>2026-03-24T12:23:20.96Z</time></trkpt><trkpt lat="41.9294723" lon="13.7084346"><ele>1016.0</ele><time>2026-03-24T12:23:21.96Z</time></trkpt><trkpt lat="41.9292979" lon="13.7083996"><ele>1016.0</ele><time>2026-03-24T12:23:22.96Z</time></trkpt><trkpt lat="41.9291435" lon="13.7083687"><ele>1016.0</ele><time>2026-03-24T12:23:23.96Z</time></trkpt><trkpt lat="41.9290065" lon="13.708332"><ele>1018.5999999999999</ele><time>2026-03-24T12:23:24.961Z</time></trkpt><trkpt lat="41.9288929" lon="13.7082948"><ele>1021.1999999999999</ele><time>2026-03-24T12:23:25.96Z</time></trkpt><trkpt lat="41.9287852" lon="13.7082516"><ele>1023.8000000000001</ele><time>2026-03-24T12:23:26.961Z</time></trkpt><trkpt lat="41.9287114" lon="13.7081875"><ele>1026.4</ele><time>2026-03-24T12:23:27.96Z</time></trkpt><trkpt lat="41.9287183" lon="13.708052"><ele>1029.0</ele><time>2026-03-24T12:23:28.96Z</time></trkpt><trkpt lat="41.9287475" lon="13.7079347"><ele>1029.0</ele><time>2026-03-24T12:23:29.96Z</time></trkpt><trkpt lat="41.9288713" lon="13.7078142"><ele>1029.0</ele><time>2026-03-24T12:23:30.961Z</time></trkpt><trkpt lat="41.9289471" lon="13.7077016"><ele>1029.0</ele><time>2026-03-24T12:23:31.96Z</time></trkpt><trkpt lat="41.9289937" lon="13.7075725"><ele>1029.0</ele><time>2026-03-24T12:23:32.96Z</time></trkpt><trkpt lat="41.9289838" lon="13.7074469"><ele>1028.75</ele><time>2026-03-24T12:23:33.961Z</time></trkpt><trkpt lat="41.9289426" lon="13.7073093"><ele>1028.5</ele><time>2026-03-24T12:23:34.96Z</time></trkpt><trkpt lat="41.9288731" lon="13.7071766"><ele>1028.25</ele><time>2026-03-24T12:23:35.96Z</time></trkpt><trkpt lat="41.9287964" lon="13.7070534"><ele>1028.0</ele><time>2026-03-24T12:23:36.96Z</time></trkpt><trkpt lat="41.9287366" lon="13.7069433"><ele>1029.3333333333335</ele><time>2026-03-24T12:23:37.96Z</time></trkpt><trkpt lat="41.9287063" lon="13.7068339"><ele>1030.6666666666667</ele><time>2026-03-24T12:23:38.96Z</time></trkpt><trkpt lat="41.9287055" lon="13.7067301"><ele>1032.0</ele><time>2026-03-24T12:23:39.96Z</time></trkpt><trkpt lat="41.9287508" lon="13.706648"><ele>1033.3333333333333</ele><time>2026-03-24T12:23:40.96Z</time></trkpt><trkpt lat="41.9288265" lon="13.7065864"><ele>1034.6666666666665</ele><time>2026-03-24T12:23:41.961Z</time></trkpt><trkpt lat="41.9289368" lon="13.7065466"><ele>1036.0</ele><time>2026-03-24T12:23:42.96Z</time></trkpt><trkpt lat="41.9290605" lon="13.7065172"><ele>1036.0</ele><time>2026-03-24T12:23:43.96Z</time></trkpt><trkpt lat="41.9291873" lon="13.7064929"><ele>1036.0</ele><time>2026-03-24T12:23:44.96Z</time></trkpt><trkpt lat="41.9292991" lon="13.7064375"><ele>1036.0</ele><time>2026-03-24T12:23:45.961Z</time></trkpt><trkpt lat="41.9293965" lon="13.706348"><ele>1036.0</ele><time>2026-03-24T12:23:46.96Z</time></trkpt><trkpt lat="41.929477" lon="13.7062105"><ele>1035.75</ele><time>2026-03-24T12:23:47.96Z</time></trkpt><trkpt lat="41.9295474" lon="13.7060468"><ele>1035.5</ele><time>2026-03-24T12:23:48.96Z</time></trkpt><trkpt lat="41.9296358" lon="13.7059028"><ele>1035.25</ele><time>2026-03-24T12:23:49.96Z</time></trkpt><trkpt lat="41.9297213" lon="13.7057865"><ele>1035.0</ele><time>2026-03-24T12:23:50.961Z</time></trkpt><trkpt lat="41.9297867" lon="13.7056574"><ele>1035.0</ele><time>2026-03-24T12:23:51.96Z</time></trkpt><trkpt lat="41.9298239" lon="13.7055116"><ele>1035.0</ele><time>2026-03-24T12:23:52.96Z</time></trkpt><trkpt lat="41.9298115" lon="13.7053603"><ele>1035.0</ele><time>2026-03-24T12:23:53.961Z</time></trkpt><trkpt lat="41.9297618" lon="13.7052205"><ele>1035.0</ele><time>2026-03-24T12:23:54.96Z</time></trkpt><trkpt lat="41.9296702" lon="13.7050963"><ele>1034.3333333333333</ele><time>2026-03-24T12:23:55.96Z</time></trkpt><trkpt lat="41.9295389" lon="13.7049702"><ele>1033.6666666666665</ele><time>2026-03-24T12:23:56.96Z</time></trkpt><trkpt lat="41.9294016" lon="13.7048414"><ele>1033.0</ele><time>2026-03-24T12:23:57.961Z</time></trkpt><trkpt lat="41.9292558" lon="13.7047254"><ele>1039.3333333333333</ele><time>2026-03-24T12:23:58.961Z</time></trkpt><trkpt lat="41.9290867" lon="13.704642"><ele>1045.6666666666667</ele><time>2026-03-24T12:23:59.96Z</time></trkpt><trkpt lat="41.9289101" lon="13.7045968"><ele>1052.0</ele><time>2026-03-24T12:24:00.96Z</time></trkpt><trkpt lat="41.9287333" lon="13.7045598"><ele>1052.0</ele><time>2026-03-24T12:24:01.96Z</time></trkpt><trkpt lat="41.9285524" lon="13.7044761"><ele>1052.0</ele><time>2026-03-24T12:24:02.96Z</time></trkpt><trkpt lat="41.9283873" lon="13.7043748"><ele>1052.0</ele><time>2026-03-24T12:24:03.961Z</time></trkpt><trkpt lat="41.9282186" lon="13.7042796"><ele>1051.75</ele><time>2026-03-24T12:24:04.961Z</time></trkpt><trkpt lat="41.9280722" lon="13.7041968"><ele>1051.5</ele><time>2026-03-24T12:24:05.96Z</time></trkpt><trkpt lat="41.9279451" lon="13.7041006"><ele>1051.25</ele><time>2026-03-24T12:24:06.961Z</time></trkpt><trkpt lat="41.9278448" lon="13.703986"><ele>1051.0</ele><time>2026-03-24T12:24:07.96Z</time></trkpt><trkpt lat="41.9277686" lon="13.7038423"><ele>1051.0</ele><time>2026-03-24T12:24:08.961Z</time></trkpt><trkpt lat="41.927714" lon="13.703676"><ele>1051.0</ele><time>2026-03-24T12:24:09.961Z</time></trkpt><trkpt lat="41.9276752" lon="13.7034935"><ele>1051.0</ele><time>2026-03-24T12:24:10.961Z</time></trkpt><trkpt lat="41.9276383" lon="13.7033181"><ele>1051.0</ele><time>2026-03-24T12:24:11.961Z</time></trkpt><trkpt lat="41.9275862" lon="13.7031718"><ele>1053.75</ele><time>2026-03-24T12:24:12.96Z</time></trkpt><trkpt lat="41.9275135" lon="13.7030578"><ele>1056.5</ele><time>2026-03-24T12:24:13.961Z</time></trkpt><trkpt lat="41.9274103" lon="13.7029629"><ele>1059.25</ele><time>2026-03-24T12:24:14.96Z</time></trkpt><trkpt lat="41.9272854" lon="13.7028935"><ele>1062.0</ele><time>2026-03-24T12:24:15.961Z</time></trkpt><trkpt lat="41.9271399" lon="13.7028478"><ele>1062.0</ele><time>2026-03-24T12:24:16.96Z</time></trkpt><trkpt lat="41.9269957" lon="13.7028147"><ele>1062.0</ele><time>2026-03-24T12:24:17.96Z</time></trkpt><trkpt lat="41.9268577" lon="13.7027761"><ele>1062.0</ele><time>2026-03-24T12:24:18.96Z</time></trkpt><trkpt lat="41.9267108" lon="13.7027628"><ele>1062.0</ele><time>2026-03-24T12:24:19.961Z</time></trkpt><trkpt lat="41.9265638" lon="13.7027942"><ele>1066.3333333333333</ele><time>2026-03-24T12:24:20.96Z</time></trkpt><trkpt lat="41.9264109" lon="13.702863"><ele>1070.6666666666665</ele><time>2026-03-24T12:24:21.96Z</time></trkpt><trkpt lat="41.9262501" lon="13.7029569"><ele>1075.0</ele><time>2026-03-24T12:24:22.96Z</time></trkpt><trkpt lat="41.9260842" lon="13.70306"><ele>1075.0</ele><time>2026-03-24T12:24:23.96Z</time></trkpt><trkpt lat="41.9259204" lon="13.7031663"><ele>1075.0</ele><time>2026-03-24T12:24:24.961Z</time></trkpt><trkpt lat="41.9257615" lon="13.7032969"><ele>1075.0</ele><time>2026-03-24T12:24:25.96Z</time></trkpt><trkpt lat="41.9256077" lon="13.7034488"><ele>1081.3333333333333</ele><time>2026-03-24T12:24:26.96Z</time></trkpt><trkpt lat="41.925457" lon="13.7036174"><ele>1087.6666666666667</ele><time>2026-03-24T12:24:27.96Z</time></trkpt><trkpt lat="41.9253006" lon="13.703781"><ele>1094.0</ele><time>2026-03-24T12:24:28.961Z</time></trkpt><trkpt lat="41.9251309" lon="13.7039248"><ele>1090.3333333333335</ele><time>2026-03-24T12:24:29.961Z</time></trkpt><trkpt lat="41.9249538" lon="13.7040665"><ele>1086.6666666666667</ele><time>2026-03-24T12:24:30.96Z</time></trkpt><trkpt lat="41.9247647" lon="13.7041813"><ele>1083.0</ele><time>2026-03-24T12:24:31.96Z</time></trkpt><trkpt lat="41.9245809" lon="13.7042755"><ele>1083.0</ele><time>2026-03-24T12:24:32.961Z</time></trkpt><trkpt lat="41.9244071" lon="13.7043854"><ele>1083.0</ele><time>2026-03-24T12:24:33.96Z</time></trkpt><trkpt lat="41.9242418" lon="13.7045191"><ele>1083.0</ele><time>2026-03-24T12:24:34.96Z</time></trkpt><trkpt lat="41.9240838" lon="13.7046785"><ele>1085.0</ele><time>2026-03-24T12:24:35.96Z</time></trkpt><trkpt lat="41.9239195" lon="13.7048556"><ele>1087.0</ele><time>2026-03-24T12:24:36.96Z</time></trkpt><trkpt lat="41.9237481" lon="13.7050372"><ele>1089.0</ele><time>2026-03-24T12:24:37.961Z</time></trkpt><trkpt lat="41.9235787" lon="13.7052182"><ele>1088.6666666666667</ele><time>2026-03-24T12:24:38.96Z</time></trkpt><trkpt lat="41.9234283" lon="13.7053804"><ele>1088.3333333333335</ele><time>2026-03-24T12:24:39.96Z</time></trkpt><trkpt lat="41.9233058" lon="13.7055259"><ele>1088.0</ele><time>2026-03-24T12:24:40.961Z</time></trkpt><trkpt lat="41.923205" lon="13.7056759"><ele>1088.0</ele><time>2026-03-24T12:24:41.961Z</time></trkpt><trkpt lat="41.9231283" lon="13.7058532"><ele>1088.0</ele><time>2026-03-24T12:24:42.96Z</time></trkpt><trkpt lat="41.9230718" lon="13.7060555"><ele>1088.0</ele><time>2026-03-24T12:24:43.96Z</time></trkpt><trkpt lat="41.9230211" lon="13.7062854"><ele>1092.0</ele><time>2026-03-24T12:24:44.96Z</time></trkpt><trkpt lat="41.9229625" lon="13.7065323"><ele>1096.0</ele><time>2026-03-24T12:24:45.96Z</time></trkpt><trkpt lat="41.9229027" lon="13.706805"><ele>1100.0</ele><time>2026-03-24T12:24:46.96Z</time></trkpt><trkpt lat="41.9228393" lon="13.7070819"><ele>1104.3333333333335</ele><time>2026-03-24T12:24:47.961Z</time></trkpt><trkpt lat="41.9227715" lon="13.7073638"><ele>1108.6666666666667</ele><time>2026-03-24T12:24:48.961Z</time></trkpt><trkpt lat="41.9227069" lon="13.7076358"><ele>1113.0</ele><time>2026-03-24T12:24:49.961Z</time></trkpt><trkpt lat="41.9226506" lon="13.7078698"><ele>1116.6666666666667</ele><time>2026-03-24T12:24:50.96Z</time></trkpt><trkpt lat="41.9226079" lon="13.7080794"><ele>1120.3333333333335</ele><time>2026-03-24T12:24:51.96Z</time></trkpt><trkpt lat="41.9225812" lon="13.7082724"><ele>1124.0</ele><time>2026-03-24T12:24:52.961Z</time></trkpt><trkpt lat="41.9225813" lon="13.7084721"><ele>1126.0</ele><time>2026-03-24T12:24:53.96Z</time></trkpt><trkpt lat="41.9225965" lon="13.7086845"><ele>1128.0</ele><time>2026-03-24T12:24:54.961Z</time></trkpt><trkpt lat="41.9226119" lon="13.7089066"><ele>1130.0</ele><time>2026-03-24T12:24:55.961Z</time></trkpt><trkpt lat="41.9226296" lon="13.7091251"><ele>1130.0</ele><time>2026-03-24T12:24:56.961Z</time></trkpt><trkpt lat="41.9226375" lon="13.7093357"><ele>1130.0</ele><time>2026-03-24T12:24:57.961Z</time></trkpt><trkpt lat="41.9226262" lon="13.70953"><ele>1130.0</ele><time>2026-03-24T12:24:58.96Z</time></trkpt><trkpt lat="41.9225941" lon="13.7097136"><ele>1130.0</ele><time>2026-03-24T12:24:59.96Z</time></trkpt><trkpt lat="41.9225375" lon="13.7098971"><ele>1127.6666666666667</ele><time>2026-03-24T12:25:00.96Z</time></trkpt><trkpt lat="41.9224827" lon="13.7101042"><ele>1125.3333333333333</ele><time>2026-03-24T12:25:01.961Z</time></trkpt><trkpt lat="41.9224353" lon="13.7103303"><ele>1123.0</ele><time>2026-03-24T12:25:02.96Z</time></trkpt><trkpt lat="41.9223704" lon="13.7105558"><ele>1123.0</ele><time>2026-03-24T12:25:03.96Z</time></trkpt><trkpt lat="41.9222816" lon="13.7107759"><ele>1123.0</ele><time>2026-03-24T12:25:04.96Z</time></trkpt><trkpt lat="41.9221771" lon="13.7109921"><ele>1123.0</ele><time>2026-03-24T12:25:05.96Z</time></trkpt><trkpt lat="41.9220683" lon="13.7112055"><ele>1127.0</ele><time>2026-03-24T12:25:06.96Z</time></trkpt><trkpt lat="41.9219691" lon="13.7113993"><ele>1131.0</ele><time>2026-03-24T12:25:07.96Z</time></trkpt><trkpt lat="41.9218807" lon="13.7115785"><ele>1135.0</ele><time>2026-03-24T12:25:08.96Z</time></trkpt><trkpt lat="41.9218146" lon="13.7117553"><ele>1136.5</ele><time>2026-03-24T12:25:09.961Z</time></trkpt><trkpt lat="41.9217789" lon="13.7119384"><ele>1138.0</ele><time>2026-03-24T12:25:10.961Z</time></trkpt><trkpt lat="41.9217641" lon="13.7121292"><ele>1139.5</ele><time>2026-03-24T12:25:11.96Z</time></trkpt><trkpt lat="41.9217726" lon="13.7123377"><ele>1141.0</ele><time>2026-03-24T12:25:12.96Z</time></trkpt><trkpt lat="41.9217944" lon="13.712561"><ele>1139.3333333333333</ele><time>2026-03-24T12:25:13.96Z</time></trkpt><trkpt lat="41.9218262" lon="13.7127931"><ele>1137.6666666666667</ele><time>2026-03-24T12:25:14.961Z</time></trkpt><trkpt lat="41.9218697" lon="13.7130389"><ele>1136.0</ele><time>2026-03-24T12:25:15.96Z</time></trkpt><trkpt lat="41.9219199" lon="13.7132921"><ele>1136.0</ele><time>2026-03-24T12:25:16.96Z</time></trkpt><trkpt lat="41.9219687" lon="13.7135577"><ele>1136.0</ele><time>2026-03-24T12:25:17.961Z</time></trkpt><trkpt lat="41.9220125" lon="13.7138227"><ele>1136.0</ele><time>2026-03-24T12:25:18.96Z</time></trkpt><trkpt lat="41.9220527" lon="13.7140676"><ele>1135.0</ele><time>2026-03-24T12:25:19.96Z</time></trkpt><trkpt lat="41.9220854" lon="13.7142833"><ele>1134.0</ele><time>2026-03-24T12:25:20.96Z</time></trkpt><trkpt lat="41.9221093" lon="13.7144651"><ele>1133.0</ele><time>2026-03-24T12:25:21.961Z</time></trkpt><trkpt lat="41.9221247" lon="13.7146182"><ele>1132.0</ele><time>2026-03-24T12:25:22.96Z</time></trkpt><trkpt lat="41.9221515" lon="13.7147463"><ele>1131.6</ele><time>2026-03-24T12:25:23.96Z</time></trkpt><trkpt lat="41.9222015" lon="13.7148424"><ele>1131.2</ele><time>2026-03-24T12:25:24.96Z</time></trkpt><trkpt lat="41.9222681" lon="13.7148932"><ele>1130.8</ele><time>2026-03-24T12:25:25.961Z</time></trkpt><trkpt lat="41.922351" lon="13.7148908"><ele>1130.4</ele><time>2026-03-24T12:25:26.96Z</time></trkpt><trkpt lat="41.9224556" lon="13.7148637"><ele>1130.0</ele><time>2026-03-24T12:25:27.96Z</time></trkpt><trkpt lat="41.9225768" lon="13.7147992"><ele>1130.0</ele><time>2026-03-24T12:25:28.96Z</time></trkpt><trkpt lat="41.922683" lon="13.714729"><ele>1130.0</ele><time>2026-03-24T12:25:29.961Z</time></trkpt><trkpt lat="41.922778" lon="13.7146242"><ele>1130.0</ele><time>2026-03-24T12:25:30.96Z</time></trkpt><trkpt lat="41.9228506" lon="13.7144881"><ele>1130.0</ele><time>2026-03-24T12:25:31.96Z</time></trkpt><trkpt lat="41.9228939" lon="13.7143323"><ele>1131.0</ele><time>2026-03-24T12:25:32.961Z</time></trkpt><trkpt lat="41.9229293" lon="13.7141392"><ele>1132.0</ele><time>2026-03-24T12:25:33.96Z</time></trkpt><trkpt lat="41.9229636" lon="13.7139172"><ele>1133.0</ele><time>2026-03-24T12:25:34.961Z</time></trkpt><trkpt lat="41.9230035" lon="13.7136813"><ele>1134.0</ele><time>2026-03-24T12:25:35.96Z</time></trkpt><trkpt lat="41.9230364" lon="13.7134517"><ele>1135.0</ele><time>2026-03-24T12:25:36.961Z</time></trkpt><trkpt lat="41.9230607" lon="13.7132265"><ele>1136.0</ele><time>2026-03-24T12:25:37.961Z</time></trkpt><trkpt lat="41.9230855" lon="13.7130333"><ele>1136.0</ele><time>2026-03-24T12:25:38.96Z</time></trkpt><trkpt lat="41.9231136" lon="13.7128725"><ele>1136.0</ele><time>2026-03-24T12:25:39.96Z</time></trkpt><trkpt lat="41.9231658" lon="13.7127388"><ele>1136.0</ele><time>2026-03-24T12:25:40.961Z</time></trkpt><trkpt lat="41.9232389" lon="13.7126497"><ele>1136.0</ele><time>2026-03-24T12:25:41.961Z</time></trkpt><trkpt lat="41.9233316" lon="13.7126012"><ele>1136.0</ele><time>2026-03-24T12:25:42.961Z</time></trkpt><trkpt lat="41.9234414" lon="13.7125859"><ele>1138.0</ele><time>2026-03-24T12:25:43.96Z</time></trkpt><trkpt lat="41.9235614" lon="13.7125819"><ele>1140.0</ele><time>2026-03-24T12:25:44.96Z</time></trkpt><trkpt lat="41.9236945" lon="13.71256"><ele>1142.0</ele><time>2026-03-24T12:25:45.96Z</time></trkpt><trkpt lat="41.9238401" lon="13.7125062"><ele>1144.0</ele><time>2026-03-24T12:25:46.961Z</time></trkpt><trkpt lat="41.9239987" lon="13.7124345"><ele>1144.0</ele><time>2026-03-24T12:25:47.961Z</time></trkpt><trkpt lat="41.9241746" lon="13.71235"><ele>1144.0</ele><time>2026-03-24T12:25:48.96Z</time></trkpt><trkpt lat="41.9243538" lon="13.7122703"><ele>1144.0</ele><time>2026-03-24T12:25:49.96Z</time></trkpt><trkpt lat="41.9245378" lon="13.7121837"><ele>1147.3333333333333</ele><time>2026-03-24T12:25:50.96Z</time></trkpt><trkpt lat="41.9247263" lon="13.7120963"><ele>1150.6666666666667</ele><time>2026-03-24T12:25:51.96Z</time></trkpt><trkpt lat="41.9249192" lon="13.7120392"><ele>1154.0</ele><time>2026-03-24T12:25:52.961Z</time></trkpt><trkpt lat="41.9250959" lon="13.7119947"><ele>1154.0</ele><time>2026-03-24T12:25:53.961Z</time></trkpt><trkpt lat="41.9252536" lon="13.7119722"><ele>1154.0</ele><time>2026-03-24T12:25:54.961Z</time></trkpt><trkpt lat="41.9253879" lon="13.7119651"><ele>1154.0</ele><time>2026-03-24T12:25:55.96Z</time></trkpt><trkpt lat="41.9255029" lon="13.7119914"><ele>1154.0</ele><time>2026-03-24T12:25:56.96Z</time></trkpt><trkpt lat="41.9256015" lon="13.712042"><ele>1154.0</ele><time>2026-03-24T12:25:57.961Z</time></trkpt><trkpt lat="41.9256812" lon="13.712127"><ele>1154.0</ele><time>2026-03-24T12:25:58.96Z</time></trkpt><trkpt lat="41.925735" lon="13.712247"><ele>1154.0</ele><time>2026-03-24T12:25:59.96Z</time></trkpt><trkpt lat="41.9257691" lon="13.7124003"><ele>1154.0</ele><time>2026-03-24T12:26:00.961Z</time></trkpt><trkpt lat="41.9257992" lon="13.7125779"><ele>1151.0</ele><time>2026-03-24T12:26:01.96Z</time></trkpt><trkpt lat="41.9258428" lon="13.7127728"><ele>1148.0</ele><time>2026-03-24T12:26:02.96Z</time></trkpt><trkpt lat="41.9259039" lon="13.7129614"><ele>1145.0</ele><time>2026-03-24T12:26:03.96Z</time></trkpt><trkpt lat="41.9259763" lon="13.7131416"><ele>1145.0</ele><time>2026-03-24T12:26:04.96Z</time></trkpt><trkpt lat="41.9260369" lon="13.7133181"><ele>1145.0</ele><time>2026-03-24T12:26:05.961Z</time></trkpt><trkpt lat="41.9260702" lon="13.713509"><ele>1145.0</ele><time>2026-03-24T12:26:06.96Z</time></trkpt><trkpt lat="41.9260999" lon="13.713719"><ele>1145.6666666666667</ele><time>2026-03-24T12:26:07.961Z</time></trkpt><trkpt lat="41.9261513" lon="13.7139471"><ele>1146.3333333333333</ele><time>2026-03-24T12:26:08.96Z</time></trkpt><trkpt lat="41.9262006" lon="13.7141955"><ele>1147.0</ele><time>2026-03-24T12:26:09.96Z</time></trkpt><trkpt lat="41.9262367" lon="13.7144498"><ele>1149.3333333333333</ele><time>2026-03-24T12:26:10.96Z</time></trkpt><trkpt lat="41.9262718" lon="13.7147201"><ele>1151.6666666666667</ele><time>2026-03-24T12:26:11.96Z</time></trkpt><trkpt lat="41.9263093" lon="13.7149842"><ele>1154.0</ele><time>2026-03-24T12:26:12.96Z</time></trkpt><trkpt lat="41.92635" lon="13.7152184"><ele>1155.75</ele><time>2026-03-24T12:26:13.96Z</time></trkpt><trkpt lat="41.9263838" lon="13.715416"><ele>1157.5</ele><time>2026-03-24T12:26:14.96Z</time></trkpt><trkpt lat="41.9263908" lon="13.7155973"><ele>1159.25</ele><time>2026-03-24T12:26:15.96Z</time></trkpt><trkpt lat="41.9263873" lon="13.7157778"><ele>1161.0</ele><time>2026-03-24T12:26:16.961Z</time></trkpt><trkpt lat="41.926369" lon="13.7159554"><ele>1163.3999999999999</ele><time>2026-03-24T12:26:17.961Z</time></trkpt><trkpt lat="41.9263477" lon="13.7161088"><ele>1165.8</ele><time>2026-03-24T12:26:18.96Z</time></trkpt><trkpt lat="41.9263249" lon="13.7162326"><ele>1168.1999999999998</ele><time>2026-03-24T12:26:19.961Z</time></trkpt><trkpt lat="41.926301" lon="13.7163512"><ele>1170.6</ele><time>2026-03-24T12:26:20.961Z</time></trkpt><trkpt lat="41.9263243" lon="13.7164809"><ele>1173.0</ele><time>2026-03-24T12:26:22.96Z</time></trkpt><trkpt lat="41.9263767" lon="13.7165706"><ele>1173.0</ele><time>2026-03-24T12:26:24.96Z</time></trkpt><trkpt lat="41.9264397" lon="13.7166406"><ele>1173.0</ele><time>2026-03-24T12:26:26.96Z</time></trkpt><trkpt lat="41.9264962" lon="13.7167439"><ele>1173.0</ele><time>2026-03-24T12:26:29.961Z</time></trkpt><trkpt lat="41.9265801" lon="13.7168664"><ele>1173.0</ele><time>2026-03-24T12:26:31.96Z</time></trkpt><trkpt lat="41.9266401" lon="13.7169727"><ele>1173.0</ele><time>2026-03-24T12:26:33.96Z</time></trkpt><trkpt lat="41.9266801" lon="13.7170581"><ele>1170.2</ele><time>2026-03-24T12:26:35.961Z</time></trkpt><trkpt lat="41.9267105" lon="13.7171729"><ele>1167.4</ele><time>2026-03-24T12:26:47.96Z</time></trkpt><trkpt lat="41.926739" lon="13.717266"><ele>1164.6000000000001</ele><time>2026-03-24T12:26:48.96Z</time></trkpt><trkpt lat="41.9267679" lon="13.7173743"><ele>1161.8</ele><time>2026-03-24T12:26:49.96Z</time></trkpt><trkpt lat="41.9268081" lon="13.7175168"><ele>1159.0</ele><time>2026-03-24T12:26:50.96Z</time></trkpt><trkpt lat="41.9268568" lon="13.71768"><ele>1162.5</ele><time>2026-03-24T12:26:51.96Z</time></trkpt><trkpt lat="41.9269157" lon="13.7178605"><ele>1166.0</ele><time>2026-03-24T12:26:52.961Z</time></trkpt><trkpt lat="41.9269757" lon="13.7180397"><ele>1169.5</ele><time>2026-03-24T12:26:53.961Z</time></trkpt><trkpt lat="41.9270431" lon="13.7182158"><ele>1173.0</ele><time>2026-03-24T12:26:54.961Z</time></trkpt><trkpt lat="41.9271108" lon="13.718383"><ele>1173.0</ele><time>2026-03-24T12:26:55.961Z</time></trkpt><trkpt lat="41.9271707" lon="13.718525"><ele>1173.0</ele><time>2026-03-24T12:26:56.961Z</time></trkpt><trkpt lat="41.9272164" lon="13.7186449"><ele>1173.0</ele><time>2026-03-24T12:26:57.96Z</time></trkpt><trkpt lat="41.9272408" lon="13.7187527"><ele>1173.0</ele><time>2026-03-24T12:26:58.96Z</time></trkpt><trkpt lat="41.9272671" lon="13.7188639"><ele>1173.0</ele><time>2026-03-24T12:26:59.96Z</time></trkpt><trkpt lat="41.9272543" lon="13.7189743"><ele>1172.8</ele><time>2026-03-24T12:27:00.961Z</time></trkpt><trkpt lat="41.9272983" lon="13.7190934"><ele>1172.6</ele><time>2026-03-24T12:27:01.96Z</time></trkpt><trkpt lat="41.9272621" lon="13.7192297"><ele>1172.4</ele><time>2026-03-24T12:27:02.96Z</time></trkpt><trkpt lat="41.9272187" lon="13.7193519"><ele>1172.2</ele><time>2026-03-24T12:27:03.96Z</time></trkpt><trkpt lat="41.927189" lon="13.7194603"><ele>1172.0</ele><time>2026-03-24T12:27:04.96Z</time></trkpt><trkpt lat="41.9271555" lon="13.7195703"><ele>1172.0</ele><time>2026-03-24T12:27:05.96Z</time></trkpt><trkpt lat="41.9271254" lon="13.7196696"><ele>1172.0</ele><time>2026-03-24T12:27:06.961Z</time></trkpt><trkpt lat="41.9271049" lon="13.7197702"><ele>1172.0</ele><time>2026-03-24T12:27:07.96Z</time></trkpt><trkpt lat="41.927079" lon="13.7198954"><ele>1172.0</ele><time>2026-03-24T12:27:08.96Z</time></trkpt><trkpt lat="41.9270368" lon="13.7200332"><ele>1172.0</ele><time>2026-03-24T12:27:09.96Z</time></trkpt><trkpt lat="41.9269948" lon="13.7201499"><ele>1173.0</ele><time>2026-03-24T12:27:10.961Z</time></trkpt><trkpt lat="41.926954" lon="13.7202489"><ele>1174.0</ele><time>2026-03-24T12:27:11.961Z</time></trkpt><trkpt lat="41.9269061" lon="13.7203347"><ele>1175.0</ele><time>2026-03-24T12:27:12.961Z</time></trkpt><trkpt lat="41.9268538" lon="13.7204083"><ele>1176.0</ele><time>2026-03-24T12:27:13.96Z</time></trkpt><trkpt lat="41.9268126" lon="13.7204754"><ele>1177.0</ele><time>2026-03-24T12:27:14.96Z</time></trkpt><trkpt lat="41.9267421" lon="13.7205491"><ele>1178.0</ele><time>2026-03-24T12:27:16.961Z</time></trkpt><trkpt lat="41.9266758" lon="13.7206115"><ele>1181.3333333333335</ele><time>2026-03-24T12:27:18.96Z</time></trkpt><trkpt lat="41.9266168" lon="13.7206869"><ele>1184.6666666666667</ele><time>2026-03-24T12:27:39.96Z</time></trkpt><trkpt lat="41.9265381" lon="13.720718"><ele>1188.0</ele><time>2026-03-24T12:32:28.96Z</time></trkpt><trkpt lat="41.9264914" lon="13.7207788"><ele>1191.3333333333333</ele><time>2026-03-24T12:32:38.96Z</time></trkpt><trkpt lat="41.9264295" lon="13.7208756"><ele>1194.6666666666665</ele><time>2026-03-24T12:32:40.96Z</time></trkpt><trkpt lat="41.9264224" lon="13.7209791"><ele>1198.0</ele><time>2026-03-24T12:32:41.961Z</time></trkpt><trkpt lat="41.9264336" lon="13.7210823"><ele>1198.8</ele><time>2026-03-24T12:32:42.96Z</time></trkpt><trkpt lat="41.9265157" lon="13.7211969"><ele>1199.6</ele><time>2026-03-24T12:32:43.96Z</time></trkpt><trkpt lat="41.9265808" lon="13.7212609"><ele>1200.4</ele><time>2026-03-24T12:32:44.961Z</time></trkpt><trkpt lat="41.9266463" lon="13.7213154"><ele>1201.2</ele><time>2026-03-24T12:32:45.961Z</time></trkpt><trkpt lat="41.9267225" lon="13.7213668"><ele>1202.0</ele><time>2026-03-24T12:32:46.96Z</time></trkpt><trkpt lat="41.9268261" lon="13.7213728"><ele>1202.0</ele><time>2026-03-24T12:32:47.96Z</time></trkpt><trkpt lat="41.9269549" lon="13.7213833"><ele>1202.0</ele><time>2026-03-24T12:32:48.96Z</time></trkpt><trkpt lat="41.9271072" lon="13.7213879"><ele>1202.0</ele><time>2026-03-24T12:32:49.961Z</time></trkpt><trkpt lat="41.9272703" lon="13.7214004"><ele>1202.0</ele><time>2026-03-24T12:32:50.96Z</time></trkpt><trkpt lat="41.9265381" lon="13.720718"><ele>1201.3333333333335</ele><time>2026-03-24T12:32:28.96Z</time></trkpt><trkpt lat="41.9264914" lon="13.7207788"><ele>1200.6666666666667</ele><time>2026-03-24T12:32:38.96Z</time></trkpt><trkpt lat="41.9264295" lon="13.7208756"><ele>1200.0</ele><time>2026-03-24T12:32:40.96Z</time></trkpt><trkpt lat="41.9264224" lon="13.7209791"><ele>1199.3333333333333</ele><time>2026-03-24T12:32:41.961Z</time></trkpt><trkpt lat="41.9264336" lon="13.7210823"><ele>1198.6666666666665</ele><time>2026-03-24T12:32:42.96Z</time></trkpt><trkpt lat="41.9265157" lon="13.7211969"><ele>1198.0</ele><time>2026-03-24T12:32:43.96Z</time></trkpt><trkpt lat="41.9265808" lon="13.7212609"><ele>1198.8</ele><time>2026-03-24T12:32:44.961Z</time></trkpt><trkpt lat="41.9266463" lon="13.7213154"><ele>1199.6</ele><time>2026-03-24T12:32:45.961Z</time></trkpt><trkpt lat="41.9267225" lon="13.7213668"><ele>1200.4</ele><time>2026-03-24T12:32:46.96Z</time></trkpt><trkpt lat="41.9268261" lon="13.7213728"><ele>1201.2</ele><time>2026-03-24T12:32:47.96Z</time></trkpt><trkpt lat="41.9269549" lon="13.7213833"><ele>1202.0</ele><time>2026-03-24T12:32:48.96Z</time></trkpt><trkpt lat="41.9271072" lon="13.7213879"><ele>1202.0</ele><time>2026-03-24T12:32:49.961Z</time></trkpt><trkpt lat="41.9272703" lon="13.7214004"><ele>1202.0</ele><time>2026-03-24T12:32:50.96Z</time></trkpt><trkpt lat="41.9274173" lon="13.7214086"><ele>1202.0</ele><time>2026-03-24T12:32:51.96Z</time></trkpt><trkpt lat="41.9275456" lon="13.7214144"><ele>1202.0</ele><time>2026-03-24T12:32:52.96Z</time></trkpt><trkpt lat="41.9276415" lon="13.721421"><ele>1199.1666666666667</ele><time>2026-03-24T12:32:53.961Z</time></trkpt><trkpt lat="41.9277191" lon="13.7214358"><ele>1196.3333333333335</ele><time>2026-03-24T12:32:54.96Z</time></trkpt><trkpt lat="41.9277808" lon="13.7214562"><ele>1193.5</ele><time>2026-03-24T12:32:55.96Z</time></trkpt><trkpt lat="41.9278495" lon="13.7215448"><ele>1190.6666666666667</ele><time>2026-03-24T12:32:57.96Z</time></trkpt><trkpt lat="41.9278428" lon="13.7216561"><ele>1187.8333333333333</ele><time>2026-03-24T12:32:59.96Z</time></trkpt><trkpt lat="41.9278207" lon="13.7217552"><ele>1185.0</ele><time>2026-03-24T12:33:00.96Z</time></trkpt><trkpt lat="41.9277998" lon="13.7218658"><ele>1187.6</ele><time>2026-03-24T12:33:01.96Z</time></trkpt><trkpt lat="41.9278019" lon="13.7219799"><ele>1190.2</ele><time>2026-03-24T12:33:02.96Z</time></trkpt><trkpt lat="41.9278078" lon="13.7220835"><ele>1192.8</ele><time>2026-03-24T12:33:03.96Z</time></trkpt><trkpt lat="41.9278415" lon="13.7221568"><ele>1195.4</ele><time>2026-03-24T12:33:04.96Z</time></trkpt><trkpt lat="41.9279471" lon="13.7222882"><ele>1198.0</ele><time>2026-03-24T12:33:06.96Z</time></trkpt><trkpt lat="41.9280317" lon="13.7223451"><ele>1198.0</ele><time>2026-03-24T12:33:07.96Z</time></trkpt><trkpt lat="41.9281291" lon="13.722389"><ele>1198.0</ele><time>2026-03-24T12:33:08.96Z</time></trkpt><trkpt lat="41.9282088" lon="13.7224354"><ele>1198.0</ele><time>2026-03-24T12:33:09.96Z</time></trkpt><trkpt lat="41.9282786" lon="13.7224811"><ele>1198.0</ele><time>2026-03-24T12:33:10.961Z</time></trkpt><trkpt lat="41.9283508" lon="13.7226105"><ele>1198.0</ele><time>2026-03-24T12:33:12.961Z</time></trkpt><trkpt lat="41.928335" lon="13.7228079"><ele>1198.0</ele><time>2026-03-24T12:33:14.96Z</time></trkpt><trkpt lat="41.9282997" lon="13.7229555"><ele>1198.0</ele><time>2026-03-24T12:33:15.961Z</time></trkpt><trkpt lat="41.9282647" lon="13.7231198"><ele>1198.0</ele><time>2026-03-24T12:33:16.96Z</time></trkpt><trkpt lat="41.9282378" lon="13.7232573"><ele>1198.0</ele><time>2026-03-24T12:33:17.96Z</time></trkpt><trkpt lat="41.9282064" lon="13.7233677"><ele>1198.0</ele><time>2026-03-24T12:33:18.961Z</time></trkpt><trkpt lat="41.9281647" lon="13.7234336"><ele>1198.0</ele><time>2026-03-24T12:33:19.96Z</time></trkpt><trkpt lat="41.9281111" lon="13.7234905"><ele>1198.0</ele><time>2026-03-24T12:33:20.96Z</time></trkpt><trkpt lat="41.9280361" lon="13.7235365"><ele>1198.0</ele><time>2026-03-24T12:33:21.96Z</time></trkpt><trkpt lat="41.9279489" lon="13.7235777"><ele>1198.0</ele><time>2026-03-24T12:33:22.96Z</time></trkpt><trkpt lat="41.9278238" lon="13.7236201"><ele>1198.0</ele><time>2026-03-24T12:33:23.96Z</time></trkpt><trkpt lat="41.9276872" lon="13.7236636"><ele>1198.75</ele><time>2026-03-24T12:33:24.961Z</time></trkpt><trkpt lat="41.927568" lon="13.723713"><ele>1199.5</ele><time>2026-03-24T12:33:25.961Z</time></trkpt><trkpt lat="41.9274548" lon="13.7237575"><ele>1200.25</ele><time>2026-03-24T12:33:26.96Z</time></trkpt><trkpt lat="41.9273357" lon="13.7237864"><ele>1201.0</ele><time>2026-03-24T12:33:27.96Z</time></trkpt><trkpt lat="41.9272249" lon="13.7238089"><ele>1201.0</ele><time>2026-03-24T12:33:28.96Z</time></trkpt><trkpt lat="41.9271086" lon="13.7238439"><ele>1201.0</ele><time>2026-03-24T12:33:29.96Z</time></trkpt><trkpt lat="41.927" lon="13.7238817"><ele>1201.0</ele><time>2026-03-24T12:33:30.96Z</time></trkpt><trkpt lat="41.9268782" lon="13.7239618"><ele>1201.0</ele><time>2026-03-24T12:33:31.96Z</time></trkpt><trkpt lat="41.9267617" lon="13.7240344"><ele>1203.2</ele><time>2026-03-24T12:33:32.96Z</time></trkpt><trkpt lat="41.9266514" lon="13.72409"><ele>1205.3999999999999</ele><time>2026-03-24T12:33:33.961Z</time></trkpt><trkpt lat="41.9265544" lon="13.7241468"><ele>1207.6</ele><time>2026-03-24T12:33:34.96Z</time></trkpt><trkpt lat="41.9264738" lon="13.7242046"><ele>1209.8</ele><time>2026-03-24T12:33:35.96Z</time></trkpt><trkpt lat="41.9264284" lon="13.7242639"><ele>1212.0</ele><time>2026-03-24T12:33:36.96Z</time></trkpt><trkpt lat="41.9263873" lon="13.7244248"><ele>1212.1666666666667</ele><time>2026-03-24T12:33:38.96Z</time></trkpt><trkpt lat="41.9263887" lon="13.7245307"><ele>1212.3333333333333</ele><time>2026-03-24T12:33:39.96Z</time></trkpt><trkpt lat="41.9264" lon="13.7246307"><ele>1212.5</ele><time>2026-03-24T12:33:40.961Z</time></trkpt><trkpt lat="41.9264269" lon="13.7247124"><ele>1212.6666666666665</ele><time>2026-03-24T12:33:41.96Z</time></trkpt><trkpt lat="41.9264797" lon="13.7247936"><ele>1212.8333333333333</ele><time>2026-03-24T12:33:42.96Z</time></trkpt><trkpt lat="41.9265467" lon="13.7248745"><ele>1213.0</ele><time>2026-03-24T12:33:43.961Z</time></trkpt><trkpt lat="41.9266116" lon="13.7249657"><ele>1213.0</ele><time>2026-03-24T12:33:44.96Z</time></trkpt><trkpt lat="41.9267144" lon="13.7250853"><ele>1213.0</ele><time>2026-03-24T12:33:45.961Z</time></trkpt><trkpt lat="41.9267891" lon="13.7251788"><ele>1213.0</ele><time>2026-03-24T12:33:46.96Z</time></trkpt><trkpt lat="41.9268655" lon="13.7252689"><ele>1213.0</ele><time>2026-03-24T12:33:47.96Z</time></trkpt><trkpt lat="41.9269426" lon="13.7253299"><ele>1213.0</ele><time>2026-03-24T12:33:48.961Z</time></trkpt><trkpt lat="41.9270229" lon="13.7253547"><ele>1215.8</ele><time>2026-03-24T12:33:49.96Z</time></trkpt><trkpt lat="41.9271025" lon="13.7253751"><ele>1218.6</ele><time>2026-03-24T12:33:50.961Z</time></trkpt><trkpt lat="41.9271886" lon="13.7253751"><ele>1221.4</ele><time>2026-03-24T12:33:51.96Z</time></trkpt><trkpt lat="41.9272693" lon="13.7253679"><ele>1224.2</ele><time>2026-03-24T12:33:52.96Z</time></trkpt><trkpt lat="41.9273725" lon="13.7253551"><ele>1227.0</ele><time>2026-03-24T12:33:53.96Z</time></trkpt><trkpt lat="41.9274832" lon="13.7253522"><ele>1225.0</ele><time>2026-03-24T12:33:54.96Z</time></trkpt><trkpt lat="41.9276018" lon="13.7253535"><ele>1223.0</ele><time>2026-03-24T12:33:55.96Z</time></trkpt><trkpt lat="41.927726" lon="13.7253728"><ele>1221.0</ele><time>2026-03-24T12:33:56.961Z</time></trkpt><trkpt lat="41.9278543" lon="13.7253929"><ele>1219.0</ele><time>2026-03-24T12:33:57.96Z</time></trkpt><trkpt lat="41.9279828" lon="13.7254257"><ele>1219.0</ele><time>2026-03-24T12:33:58.961Z</time></trkpt><trkpt lat="41.9280988" lon="13.7254561"><ele>1219.0</ele><time>2026-03-24T12:33:59.96Z</time></trkpt><trkpt lat="41.9282044" lon="13.7255018"><ele>1219.0</ele><time>2026-03-24T12:34:00.961Z</time></trkpt><trkpt lat="41.9283146" lon="13.7255607"><ele>1219.0</ele><time>2026-03-24T12:34:01.961Z</time></trkpt><trkpt lat="41.9284364" lon="13.7256201"><ele>1215.0</ele><time>2026-03-24T12:34:02.96Z</time></trkpt><trkpt lat="41.9285559" lon="13.7256864"><ele>1211.0</ele><time>2026-03-24T12:34:03.96Z</time></trkpt><trkpt lat="41.9286718" lon="13.7257448"><ele>1207.0</ele><time>2026-03-24T12:34:04.96Z</time></trkpt><trkpt lat="41.928782" lon="13.725819"><ele>1203.0</ele><time>2026-03-24T12:34:05.96Z</time></trkpt><trkpt lat="41.9288989" lon="13.7258902"><ele>1203.0</ele><time>2026-03-24T12:34:06.96Z</time></trkpt><trkpt lat="41.9290232" lon="13.7259735"><ele>1203.0</ele><time>2026-03-24T12:34:07.96Z</time></trkpt><trkpt lat="41.9291604" lon="13.7260716"><ele>1203.0</ele><time>2026-03-24T12:34:08.96Z</time></trkpt><trkpt lat="41.9293073" lon="13.7261698"><ele>1204.75</ele><time>2026-03-24T12:34:09.96Z</time></trkpt><trkpt lat="41.9294433" lon="13.7262793"><ele>1206.5</ele><time>2026-03-24T12:34:10.961Z</time></trkpt><trkpt lat="41.9295608" lon="13.726377"><ele>1208.25</ele><time>2026-03-24T12:34:11.961Z</time></trkpt><trkpt lat="41.9296777" lon="13.7264606"><ele>1210.0</ele><time>2026-03-24T12:34:12.96Z</time></trkpt><trkpt lat="41.9297891" lon="13.7265322"><ele>1210.0</ele><time>2026-03-24T12:34:13.96Z</time></trkpt><trkpt lat="41.929905" lon="13.7265841"><ele>1210.0</ele><time>2026-03-24T12:34:14.961Z</time></trkpt><trkpt lat="41.9300282" lon="13.7266227"><ele>1210.0</ele><time>2026-03-24T12:34:15.96Z</time></trkpt><trkpt lat="41.9301621" lon="13.7266553"><ele>1210.0</ele><time>2026-03-24T12:34:16.96Z</time></trkpt><trkpt lat="41.9302858" lon="13.7266841"><ele>1207.0</ele><time>2026-03-24T12:34:17.961Z</time></trkpt><trkpt lat="41.9304069" lon="13.7267141"><ele>1204.0</ele><time>2026-03-24T12:34:18.96Z</time></trkpt><trkpt lat="41.9305254" lon="13.7267533"><ele>1201.0</ele><time>2026-03-24T12:34:19.96Z</time></trkpt><trkpt lat="41.9306518" lon="13.7268042"><ele>1198.0</ele><time>2026-03-24T12:34:20.961Z</time></trkpt><trkpt lat="41.9307828" lon="13.7268556"><ele>1199.25</ele><time>2026-03-24T12:34:21.96Z</time></trkpt><trkpt lat="41.930918" lon="13.7269064"><ele>1200.5</ele><time>2026-03-24T12:34:22.961Z</time></trkpt><trkpt lat="41.9310508" lon="13.7269563"><ele>1201.75</ele><time>2026-03-24T12:34:23.961Z</time></trkpt><trkpt lat="41.9311718" lon="13.7270053"><ele>1203.0</ele><time>2026-03-24T12:34:24.961Z</time></trkpt><trkpt lat="41.9312618" lon="13.7270517"><ele>1203.0</ele><time>2026-03-24T12:34:25.96Z</time></trkpt><trkpt lat="41.9313251" lon="13.727102"><ele>1203.0</ele><time>2026-03-24T12:34:26.96Z</time></trkpt><trkpt lat="41.9313866" lon="13.7272131"><ele>1203.0</ele><time>2026-03-24T12:34:28.96Z</time></trkpt><trkpt lat="41.9314106" lon="13.7273632"><ele>1203.0</ele><time>2026-03-24T12:34:30.96Z</time></trkpt><trkpt lat="41.9314081" lon="13.7274669"><ele>1203.0</ele><time>2026-03-24T12:34:31.961Z</time></trkpt><trkpt lat="41.9314017" lon="13.7275843"><ele>1203.0</ele><time>2026-03-24T12:34:32.96Z</time></trkpt><trkpt lat="41.931379" lon="13.7277129"><ele>1203.0</ele><time>2026-03-24T12:34:33.96Z</time></trkpt><trkpt lat="41.9313662" lon="13.7278462"><ele>1203.0</ele><time>2026-03-24T12:34:34.961Z</time></trkpt><trkpt lat="41.931365" lon="13.7279626"><ele>1203.0</ele><time>2026-03-24T12:34:35.961Z</time></trkpt><trkpt lat="41.9313779" lon="13.7280682"><ele>1203.0</ele><time>2026-03-24T12:34:36.96Z</time></trkpt><trkpt lat="41.9314117" lon="13.7281638"><ele>1203.0</ele><time>2026-03-24T12:34:37.961Z</time></trkpt><trkpt lat="41.9314654" lon="13.7282493"><ele>1203.75</ele><time>2026-03-24T12:34:38.961Z</time></trkpt><trkpt lat="41.9315354" lon="13.7283244"><ele>1204.5</ele><time>2026-03-24T12:34:39.96Z</time></trkpt><trkpt lat="41.9316248" lon="13.7283862"><ele>1205.25</ele><time>2026-03-24T12:34:40.96Z</time></trkpt><trkpt lat="41.9317435" lon="13.7284504"><ele>1206.0</ele><time>2026-03-24T12:34:41.96Z</time></trkpt><trkpt lat="41.9318641" lon="13.7285236"><ele>1206.75</ele><time>2026-03-24T12:34:42.96Z</time></trkpt><trkpt lat="41.9319672" lon="13.7285961"><ele>1207.5</ele><time>2026-03-24T12:34:43.96Z</time></trkpt><trkpt lat="41.9320566" lon="13.7286724"><ele>1208.25</ele><time>2026-03-24T12:34:44.96Z</time></trkpt><trkpt lat="41.9321464" lon="13.728773"><ele>1209.0</ele><time>2026-03-24T12:34:45.96Z</time></trkpt><trkpt lat="41.9322423" lon="13.7289003"><ele>1209.0</ele><time>2026-03-24T12:34:46.96Z</time></trkpt><trkpt lat="41.9323476" lon="13.7290453"><ele>1209.0</ele><time>2026-03-24T12:34:47.961Z</time></trkpt><trkpt lat="41.9324582" lon="13.7291938"><ele>1209.0</ele><time>2026-03-24T12:34:48.961Z</time></trkpt><trkpt lat="41.9325629" lon="13.7293492"><ele>1210.25</ele><time>2026-03-24T12:34:49.96Z</time></trkpt><trkpt lat="41.932658" lon="13.729493"><ele>1211.5</ele><time>2026-03-24T12:34:50.96Z</time></trkpt><trkpt lat="41.9327427" lon="13.7296206"><ele>1212.75</ele><time>2026-03-24T12:34:51.961Z</time></trkpt><trkpt lat="41.9328225" lon="13.7297227"><ele>1214.0</ele><time>2026-03-24T12:34:52.96Z</time></trkpt><trkpt lat="41.932903" lon="13.7298083"><ele>1214.0</ele><time>2026-03-24T12:34:53.96Z</time></trkpt><trkpt lat="41.9329888" lon="13.7298757"><ele>1214.0</ele><time>2026-03-24T12:34:54.96Z</time></trkpt><trkpt lat="41.9330725" lon="13.7299241"><ele>1214.0</ele><time>2026-03-24T12:34:55.96Z</time></trkpt><trkpt lat="41.9331614" lon="13.7299483"><ele>1214.0</ele><time>2026-03-24T12:34:56.961Z</time></trkpt><trkpt lat="41.9332526" lon="13.7299464"><ele>1214.0</ele><time>2026-03-24T12:34:57.96Z</time></trkpt><trkpt lat="41.9333523" lon="13.7299201"><ele>1216.75</ele><time>2026-03-24T12:34:58.96Z</time></trkpt><trkpt lat="41.933464" lon="13.7298736"><ele>1219.5</ele><time>2026-03-24T12:34:59.961Z</time></trkpt><trkpt lat="41.9335878" lon="13.7298168"><ele>1222.25</ele><time>2026-03-24T12:35:00.96Z</time></trkpt><trkpt lat="41.9337295" lon="13.7297388"><ele>1225.0</ele><time>2026-03-24T12:35:01.96Z</time></trkpt><trkpt lat="41.9338637" lon="13.7296554"><ele>1225.0</ele><time>2026-03-24T12:35:02.96Z</time></trkpt><trkpt lat="41.9339871" lon="13.7295523"><ele>1225.0</ele><time>2026-03-24T12:35:03.961Z</time></trkpt><trkpt lat="41.9341062" lon="13.7294372"><ele>1225.0</ele><time>2026-03-24T12:35:04.96Z</time></trkpt><trkpt lat="41.9342189" lon="13.729326"><ele>1225.0</ele><time>2026-03-24T12:35:05.96Z</time></trkpt><trkpt lat="41.9343301" lon="13.7292329"><ele>1225.4</ele><time>2026-03-24T12:35:06.96Z</time></trkpt><trkpt lat="41.9344306" lon="13.7291528"><ele>1225.8</ele><time>2026-03-24T12:35:07.96Z</time></trkpt><trkpt lat="41.9345188" lon="13.7290987"><ele>1226.2</ele><time>2026-03-24T12:35:08.961Z</time></trkpt><trkpt lat="41.9346101" lon="13.7290527"><ele>1226.6</ele><time>2026-03-24T12:35:09.961Z</time></trkpt><trkpt lat="41.9347097" lon="13.7290169"><ele>1227.0</ele><time>2026-03-24T12:35:10.96Z</time></trkpt><trkpt lat="41.9348255" lon="13.7289962"><ele>1227.0</ele><time>2026-03-24T12:35:11.96Z</time></trkpt><trkpt lat="41.9349572" lon="13.7289743"><ele>1227.0</ele><time>2026-03-24T12:35:12.96Z</time></trkpt><trkpt lat="41.9351021" lon="13.7289554"><ele>1227.0</ele><time>2026-03-24T12:35:13.96Z</time></trkpt><trkpt lat="41.9352521" lon="13.7289307"><ele>1227.0</ele><time>2026-03-24T12:35:14.96Z</time></trkpt><trkpt lat="41.9354033" lon="13.7289068"><ele>1227.0</ele><time>2026-03-24T12:35:15.961Z</time></trkpt><trkpt lat="41.9355553" lon="13.7288929"><ele>1227.0</ele><time>2026-03-24T12:35:16.961Z</time></trkpt><trkpt lat="41.9357007" lon="13.7288824"><ele>1227.0</ele><time>2026-03-24T12:35:17.96Z</time></trkpt><trkpt lat="41.9358297" lon="13.7288707"><ele>1227.0</ele><time>2026-03-24T12:35:18.96Z</time></trkpt><trkpt lat="41.9359449" lon="13.7288535"><ele>1227.0</ele><time>2026-03-24T12:35:19.961Z</time></trkpt><trkpt lat="41.9360499" lon="13.7288279"><ele>1227.0</ele><time>2026-03-24T12:35:20.961Z</time></trkpt><trkpt lat="41.936153" lon="13.7287835"><ele>1227.0</ele><time>2026-03-24T12:35:21.96Z</time></trkpt><trkpt lat="41.9362483" lon="13.7287314"><ele>1227.0</ele><time>2026-03-24T12:35:22.96Z</time></trkpt><trkpt lat="41.9363338" lon="13.7286961"><ele>1227.0</ele><time>2026-03-24T12:35:23.961Z</time></trkpt><trkpt lat="41.936407" lon="13.728673"><ele>1227.0</ele><time>2026-03-24T12:35:24.961Z</time></trkpt><trkpt lat="41.936511" lon="13.7286841"><ele>1227.0</ele><time>2026-03-24T12:35:26.961Z</time></trkpt><trkpt lat="41.9365801" lon="13.7287454"><ele>1227.0</ele><time>2026-03-24T12:35:28.96Z</time></trkpt><trkpt lat="41.9366379" lon="13.7288482"><ele>1227.0</ele><time>2026-03-24T12:35:30.961Z</time></trkpt><trkpt lat="41.9366691" lon="13.728947"><ele>1227.0</ele><time>2026-03-24T12:35:32.96Z</time></trkpt><trkpt lat="41.9366654" lon="13.7290667"><ele>1227.0</ele><time>2026-03-24T12:35:34.96Z</time></trkpt><trkpt lat="41.9366702" lon="13.7292225"><ele>1227.0</ele><time>2026-03-24T12:35:36.96Z</time></trkpt><trkpt lat="41.9366808" lon="13.729387"><ele>1227.0</ele><time>2026-03-24T12:35:38.96Z</time></trkpt><trkpt lat="41.9366992" lon="13.7294776"><ele>1227.0</ele><time>2026-03-24T12:35:39.96Z</time></trkpt><trkpt lat="41.9367334" lon="13.7295713"><ele>1227.0</ele><time>2026-03-24T12:35:40.96Z</time></trkpt><trkpt lat="41.9367726" lon="13.7296622"><ele>1227.6666666666667</ele><time>2026-03-24T12:35:41.96Z</time></trkpt><trkpt lat="41.9368274" lon="13.729763"><ele>1228.3333333333333</ele><time>2026-03-24T12:35:42.961Z</time></trkpt><trkpt lat="41.9368848" lon="13.7298602"><ele>1229.0</ele><time>2026-03-24T12:35:43.96Z</time></trkpt><trkpt lat="41.9369311" lon="13.7299477"><ele>1229.6666666666665</ele><time>2026-03-24T12:35:44.961Z</time></trkpt><trkpt lat="41.9369714" lon="13.7300374"><ele>1230.3333333333333</ele><time>2026-03-24T12:35:45.961Z</time></trkpt><trkpt lat="41.9369962" lon="13.7301375"><ele>1231.0</ele><time>2026-03-24T12:35:46.961Z</time></trkpt><trkpt lat="41.9370186" lon="13.730253"><ele>1232.4285714285713</ele><time>2026-03-24T12:35:47.961Z</time></trkpt><trkpt lat="41.93704" lon="13.7303662"><ele>1233.857142857143</ele><time>2026-03-24T12:35:48.961Z</time></trkpt><trkpt lat="41.9370714" lon="13.7304582"><ele>1235.2857142857142</ele><time>2026-03-24T12:35:49.96Z</time></trkpt><trkpt lat="41.9371111" lon="13.7305384"><ele>1236.7142857142858</ele><time>2026-03-24T12:35:50.961Z</time></trkpt><trkpt lat="41.9371616" lon="13.7306085"><ele>1238.142857142857</ele><time>2026-03-24T12:35:51.96Z</time></trkpt><trkpt lat="41.9372228" lon="13.7306545"><ele>1239.5714285714287</ele><time>2026-03-24T12:35:52.96Z</time></trkpt><trkpt lat="41.9372838" lon="13.7306762"><ele>1241.0</ele><time>2026-03-24T12:35:53.96Z</time></trkpt><trkpt lat="41.9373799" lon="13.7306636"><ele>1241.0</ele><time>2026-03-24T12:35:55.96Z</time></trkpt><trkpt lat="41.9374507" lon="13.7306905"><ele>1241.0</ele><time>2026-03-24T12:36:02.96Z</time></trkpt><trkpt lat="41.9373913" lon="13.730779"><ele>1241.0</ele><time>2026-03-24T12:36:05.959Z</time></trkpt><trkpt lat="41.9372698" lon="13.730787"><ele>1241.0</ele><time>2026-03-24T12:36:07.96Z</time></trkpt><trkpt lat="41.9371767" lon="13.7307601"><ele>1241.0</ele><time>2026-03-24T12:36:08.961Z</time></trkpt><trkpt lat="41.9370672" lon="13.7307435"><ele>1241.0</ele><time>2026-03-24T12:36:10.96Z</time></trkpt><trkpt lat="41.9370068" lon="13.7308102"><ele>1241.0</ele><time>2026-03-24T12:36:12.96Z</time></trkpt><trkpt lat="41.9370336" lon="13.7309248"><ele>1241.0</ele><time>2026-03-24T12:36:14.961Z</time></trkpt><trkpt lat="41.9371523" lon="13.7309657"><ele>1241.0</ele><time>2026-03-24T12:36:16.96Z</time></trkpt><trkpt lat="41.9372358" lon="13.7309499"><ele>1241.0</ele><time>2026-03-24T12:36:17.961Z</time></trkpt><trkpt lat="41.9373509" lon="13.730948"><ele>1241.0</ele><time>2026-03-24T12:36:18.96Z</time></trkpt><trkpt lat="41.9374682" lon="13.7309552"><ele>1241.0</ele><time>2026-03-24T12:36:19.96Z</time></trkpt><trkpt lat="41.937577" lon="13.7309644"><ele>1241.0</ele><time>2026-03-24T12:36:20.96Z</time></trkpt><trkpt lat="41.9376652" lon="13.7309864"><ele>1241.0</ele><time>2026-03-24T12:36:21.96Z</time></trkpt><trkpt lat="41.9377329" lon="13.7310196"><ele>1241.0</ele><time>2026-03-24T12:36:22.961Z</time></trkpt><trkpt lat="41.9378101" lon="13.7311034"><ele>1243.3333333333335</ele><time>2026-03-24T12:36:24.961Z</time></trkpt><trkpt lat="41.9378124" lon="13.7312253"><ele>1245.6666666666667</ele><time>2026-03-24T12:36:26.96Z</time></trkpt><trkpt lat="41.9377503" lon="13.7312961"><ele>1248.0</ele><time>2026-03-24T12:36:28.96Z</time></trkpt><trkpt lat="41.9376745" lon="13.7313082"><ele>1250.3333333333333</ele><time>2026-03-24T12:36:29.961Z</time></trkpt><trkpt lat="41.9375936" lon="13.7313053"><ele>1252.6666666666665</ele><time>2026-03-24T12:36:30.961Z</time></trkpt><trkpt lat="41.9375194" lon="13.7313264"><ele>1255.0</ele><time>2026-03-24T12:36:31.96Z</time></trkpt><trkpt lat="41.9374242" lon="13.7313645"><ele>1255.0</ele><time>2026-03-24T12:36:32.961Z</time></trkpt><trkpt lat="41.937338" lon="13.7313872"><ele>1255.0</ele><time>2026-03-24T12:36:33.96Z</time></trkpt><trkpt lat="41.9372553" lon="13.7313968"><ele>1255.0</ele><time>2026-03-24T12:36:34.96Z</time></trkpt><trkpt lat="41.9371638" lon="13.7313748"><ele>1255.0</ele><time>2026-03-24T12:36:35.96Z</time></trkpt><trkpt lat="41.9370863" lon="13.731358"><ele>1255.0</ele><time>2026-03-24T12:36:36.961Z</time></trkpt><trkpt lat="41.9370094" lon="13.7313743"><ele>1255.0</ele><time>2026-03-24T12:36:38.96Z</time></trkpt><trkpt lat="41.9370103" lon="13.7314906"><ele>1255.0</ele><time>2026-03-24T12:36:41.96Z</time></trkpt><trkpt lat="41.9370914" lon="13.7315697"><ele>1255.0</ele><time>2026-03-24T12:36:43.96Z</time></trkpt><trkpt lat="41.937149" lon="13.7316348"><ele>1255.0</ele><time>2026-03-24T12:36:44.961Z</time></trkpt><trkpt lat="41.9372048" lon="13.7317158"><ele>1255.0</ele><time>2026-03-24T12:36:45.96Z</time></trkpt><trkpt lat="41.9372614" lon="13.7318143"><ele>1255.0</ele><time>2026-03-24T12:36:46.961Z</time></trkpt><trkpt lat="41.9373174" lon="13.7319236"><ele>1255.0</ele><time>2026-03-24T12:36:47.96Z</time></trkpt><trkpt lat="41.9373679" lon="13.7320258"><ele>1258.8333333333333</ele><time>2026-03-24T12:36:48.96Z</time></trkpt><trkpt lat="41.9374133" lon="13.732101"><ele>1262.6666666666665</ele><time>2026-03-24T12:36:49.96Z</time></trkpt><trkpt lat="41.9375036" lon="13.7321931"><ele>1266.5</ele><time>2026-03-24T12:36:51.96Z</time></trkpt><trkpt lat="41.9376085" lon="13.7321887"><ele>1270.3333333333333</ele><time>2026-03-24T12:36:53.961Z</time></trkpt><trkpt lat="41.9376717" lon="13.7321536"><ele>1274.1666666666667</ele><time>2026-03-24T12:36:54.96Z</time></trkpt><trkpt lat="41.9377482" lon="13.7321152"><ele>1278.0</ele><time>2026-03-24T12:36:55.96Z</time></trkpt><trkpt lat="41.9378241" lon="13.7320905"><ele>1279.4</ele><time>2026-03-24T12:36:56.961Z</time></trkpt><trkpt lat="41.9379073" lon="13.7320783"><ele>1280.8</ele><time>2026-03-24T12:36:57.96Z</time></trkpt><trkpt lat="41.9379966" lon="13.732078"><ele>1282.2</ele><time>2026-03-24T12:36:58.961Z</time></trkpt><trkpt lat="41.9380958" lon="13.7320843"><ele>1283.6</ele><time>2026-03-24T12:36:59.96Z</time></trkpt><trkpt lat="41.9382009" lon="13.732085"><ele>1285.0</ele><time>2026-03-24T12:37:00.961Z</time></trkpt><trkpt lat="41.938303" lon="13.7320804"><ele>1284.4285714285716</ele><time>2026-03-24T12:37:01.96Z</time></trkpt><trkpt lat="41.9383876" lon="13.7320756"><ele>1283.857142857143</ele><time>2026-03-24T12:37:02.96Z</time></trkpt><trkpt lat="41.9384576" lon="13.7320582"><ele>1283.2857142857142</ele><time>2026-03-24T12:37:03.96Z</time></trkpt><trkpt lat="41.9385295" lon="13.7320205"><ele>1282.7142857142858</ele><time>2026-03-24T12:37:04.961Z</time></trkpt><trkpt lat="41.9385859" lon="13.7319713"><ele>1282.142857142857</ele><time>2026-03-24T12:37:05.961Z</time></trkpt><trkpt lat="41.9386344" lon="13.7319138"><ele>1281.5714285714287</ele><time>2026-03-24T12:37:06.96Z</time></trkpt><trkpt lat="41.9386761" lon="13.7318308"><ele>1281.0</ele><time>2026-03-24T12:37:07.96Z</time></trkpt><trkpt lat="41.9387136" lon="13.7317512"><ele>1281.0</ele><time>2026-03-24T12:37:08.96Z</time></trkpt><trkpt lat="41.9387499" lon="13.7316673"><ele>1281.0</ele><time>2026-03-24T12:37:09.96Z</time></trkpt><trkpt lat="41.9387814" lon="13.7315844"><ele>1281.0</ele><time>2026-03-24T12:37:10.96Z</time></trkpt><trkpt lat="41.938824" lon="13.7314897"><ele>1281.0</ele><time>2026-03-24T12:37:12.96Z</time></trkpt><trkpt lat="41.9388365" lon="13.7314015"><ele>1281.0</ele><time>2026-03-24T12:37:15.96Z</time></trkpt><trkpt lat="41.938816" lon="13.7313029"><ele>1281.0</ele><time>2026-03-24T12:37:19.96Z</time></trkpt><trkpt lat="41.9387539" lon="13.7312485"><ele>1281.0</ele><time>2026-03-24T12:37:22.96Z</time></trkpt><trkpt lat="41.9386912" lon="13.7312005"><ele>1281.0</ele><time>2026-03-24T12:37:24.96Z</time></trkpt><trkpt lat="41.9386415" lon="13.7311392"><ele>1281.0</ele><time>2026-03-24T12:37:26.961Z</time></trkpt><trkpt lat="41.9386024" lon="13.731036"><ele>1281.0</ele><time>2026-03-24T12:37:29.96Z</time></trkpt><trkpt lat="41.9386281" lon="13.7309546"><ele>1281.0</ele><time>2026-03-24T12:37:33.96Z</time></trkpt><trkpt lat="41.9386931" lon="13.7309458"><ele>1281.0</ele><time>2026-03-24T12:41:19.96Z</time></trkpt><trkpt lat="41.9387399" lon="13.7310434"><ele>1281.0</ele><time>2026-03-24T12:41:23.961Z</time></trkpt><trkpt lat="41.9387547" lon="13.7311514"><ele>1281.0</ele><time>2026-03-24T12:41:25.96Z</time></trkpt><trkpt lat="41.9387772" lon="13.7312939"><ele>1281.0</ele><time>2026-03-24T12:41:27.96Z</time></trkpt><trkpt lat="41.9388083" lon="13.7313745"><ele>1281.0</ele><time>2026-03-24T12:41:29.96Z</time></trkpt><trkpt lat="41.9388599" lon="13.7314358"><ele>1281.0</ele><time>2026-03-24T12:41:34.96Z</time></trkpt><trkpt lat="41.9389432" lon="13.7313648"><ele>1281.0</ele><time>2026-03-24T12:41:37.961Z</time></trkpt><trkpt lat="41.9390678" lon="13.7313101"><ele>1281.0</ele><time>2026-03-24T12:41:39.96Z</time></trkpt><trkpt lat="41.9391423" lon="13.7312849"><ele>1281.0</ele><time>2026-03-24T12:41:40.96Z</time></trkpt><trkpt lat="41.9392271" lon="13.7312636"><ele>1281.0</ele><time>2026-03-24T12:41:41.961Z</time></trkpt><trkpt lat="41.9393301" lon="13.7312409"><ele>1281.0</ele><time>2026-03-24T12:41:42.96Z</time></trkpt><trkpt lat="41.939426" lon="13.7312175"><ele>1281.0</ele><time>2026-03-24T12:41:43.96Z</time></trkpt><trkpt lat="41.9395133" lon="13.7311964"><ele>1281.5</ele><time>2026-03-24T12:41:44.96Z</time></trkpt><trkpt lat="41.939596" lon="13.7311854"><ele>1282.0</ele><time>2026-03-24T12:41:45.96Z</time></trkpt><trkpt lat="41.9396825" lon="13.7311945"><ele>1282.5</ele><time>2026-03-24T12:41:46.96Z</time></trkpt><trkpt lat="41.9397722" lon="13.7312177"><ele>1283.0</ele><time>2026-03-24T12:41:47.96Z</time></trkpt><trkpt lat="41.9398634" lon="13.7312462"><ele>1283.5</ele><time>2026-03-24T12:41:48.96Z</time></trkpt><trkpt lat="41.9399457" lon="13.7312646"><ele>1284.0</ele><time>2026-03-24T12:41:49.96Z</time></trkpt><trkpt lat="41.9400235" lon="13.731259"><ele>1284.4</ele><time>2026-03-24T12:41:50.96Z</time></trkpt><trkpt lat="41.9401096" lon="13.7312341"><ele>1284.8000000000002</ele><time>2026-03-24T12:41:51.96Z</time></trkpt><trkpt lat="41.9402119" lon="13.7311922"><ele>1285.1999999999998</ele><time>2026-03-24T12:41:52.96Z</time></trkpt><trkpt lat="41.9403125" lon="13.7311474"><ele>1285.6</ele><time>2026-03-24T12:41:53.96Z</time></trkpt><trkpt lat="41.9404016" lon="13.7311023"><ele>1286.0</ele><time>2026-03-24T12:41:54.961Z</time></trkpt><trkpt lat="41.9404789" lon="13.7310577"><ele>1285.3333333333335</ele><time>2026-03-24T12:41:55.96Z</time></trkpt><trkpt lat="41.9405539" lon="13.7310371"><ele>1284.6666666666667</ele><time>2026-03-24T12:41:56.961Z</time></trkpt><trkpt lat="41.9406304" lon="13.7310292"><ele>1284.0</ele><time>2026-03-24T12:41:57.96Z</time></trkpt><trkpt lat="41.9407132" lon="13.7310293"><ele>1283.3333333333333</ele><time>2026-03-24T12:41:58.96Z</time></trkpt><trkpt lat="41.9407996" lon="13.731026"><ele>1282.6666666666665</ele><time>2026-03-24T12:41:59.961Z</time></trkpt><trkpt lat="41.9408853" lon="13.7310085"><ele>1282.0</ele><time>2026-03-24T12:42:00.96Z</time></trkpt><trkpt lat="41.9409867" lon="13.730983"><ele>1282.0</ele><time>2026-03-24T12:42:01.961Z</time></trkpt><trkpt lat="41.9410959" lon="13.7309607"><ele>1282.0</ele><time>2026-03-24T12:42:02.96Z</time></trkpt><trkpt lat="41.9412142" lon="13.7309405"><ele>1282.0</ele><time>2026-03-24T12:42:03.96Z</time></trkpt><trkpt lat="41.9413225" lon="13.7309267"><ele>1282.0</ele><time>2026-03-24T12:42:04.961Z</time></trkpt><trkpt lat="41.9414194" lon="13.7309101"><ele>1282.0</ele><time>2026-03-24T12:42:05.96Z</time></trkpt><trkpt lat="41.9415084" lon="13.7308977"><ele>1282.0</ele><time>2026-03-24T12:42:06.96Z</time></trkpt><trkpt lat="41.9415877" lon="13.7308821"><ele>1282.0</ele><time>2026-03-24T12:42:07.96Z</time></trkpt><trkpt lat="41.9416653" lon="13.7308736"><ele>1282.0</ele><time>2026-03-24T12:42:08.96Z</time></trkpt><trkpt lat="41.9417366" lon="13.7308661"><ele>1282.0</ele><time>2026-03-24T12:42:09.96Z</time></trkpt><trkpt lat="41.9418137" lon="13.7308548"><ele>1282.0</ele><time>2026-03-24T12:42:10.961Z</time></trkpt><trkpt lat="41.9418899" lon="13.7308413"><ele>1282.0</ele><time>2026-03-24T12:42:11.961Z</time></trkpt><trkpt lat="41.9419665" lon="13.730826"><ele>1283.8333333333333</ele><time>2026-03-24T12:42:12.96Z</time></trkpt><trkpt lat="41.9420385" lon="13.7308018"><ele>1285.6666666666665</ele><time>2026-03-24T12:42:13.96Z</time></trkpt><trkpt lat="41.9421029" lon="13.7307729"><ele>1287.5</ele><time>2026-03-24T12:42:14.96Z</time></trkpt><trkpt lat="41.9421614" lon="13.7307395"><ele>1289.3333333333333</ele><time>2026-03-24T12:42:15.961Z</time></trkpt><trkpt lat="41.9422504" lon="13.7306474"><ele>1291.1666666666667</ele><time>2026-03-24T12:42:17.96Z</time></trkpt><trkpt lat="41.9423177" lon="13.7305652"><ele>1293.0</ele><time>2026-03-24T12:42:19.96Z</time></trkpt><trkpt lat="41.9423845" lon="13.7304678"><ele>1293.0</ele><time>2026-03-24T12:42:21.96Z</time></trkpt><trkpt lat="41.9424311" lon="13.7304062"><ele>1293.0</ele><time>2026-03-24T12:42:22.961Z</time></trkpt><trkpt lat="41.942475" lon="13.7303414"><ele>1293.0</ele><time>2026-03-24T12:42:23.96Z</time></trkpt><trkpt lat="41.9425241" lon="13.7302851"><ele>1293.0</ele><time>2026-03-24T12:42:24.96Z</time></trkpt><trkpt lat="41.9426223" lon="13.7302118"><ele>1293.0</ele><time>2026-03-24T12:42:26.961Z</time></trkpt><trkpt lat="41.9427335" lon="13.7301645"><ele>1293.0</ele><time>2026-03-24T12:42:28.96Z</time></trkpt><trkpt lat="41.9428514" lon="13.730151"><ele>1292.857142857143</ele><time>2026-03-24T12:42:30.96Z</time></trkpt><trkpt lat="41.942913" lon="13.7301335"><ele>1292.7142857142858</ele><time>2026-03-24T12:42:31.961Z</time></trkpt><trkpt lat="41.9429831" lon="13.7301165"><ele>1292.5714285714287</ele><time>2026-03-24T12:42:32.96Z</time></trkpt><trkpt lat="41.9430546" lon="13.7301027"><ele>1292.4285714285716</ele><time>2026-03-24T12:42:33.961Z</time></trkpt><trkpt lat="41.9431277" lon="13.7300896"><ele>1292.2857142857142</ele><time>2026-03-24T12:42:34.96Z</time></trkpt><trkpt lat="41.9431996" lon="13.7300754"><ele>1292.1428571428573</ele><time>2026-03-24T12:42:35.961Z</time></trkpt><trkpt lat="41.9432787" lon="13.7300535"><ele>1292.0</ele><time>2026-03-24T12:42:36.96Z</time></trkpt><trkpt lat="41.9433554" lon="13.7300474"><ele>1292.6666666666667</ele><time>2026-03-24T12:42:37.96Z</time></trkpt><trkpt lat="41.9434391" lon="13.7300386"><ele>1293.3333333333335</ele><time>2026-03-24T12:42:38.96Z</time></trkpt><trkpt lat="41.9435195" lon="13.7300277"><ele>1294.0</ele><time>2026-03-24T12:42:39.96Z</time></trkpt><trkpt lat="41.9435934" lon="13.7300169"><ele>1294.6666666666667</ele><time>2026-03-24T12:42:40.961Z</time></trkpt><trkpt lat="41.9436657" lon="13.7300078"><ele>1295.3333333333333</ele><time>2026-03-24T12:42:41.961Z</time></trkpt><trkpt lat="41.94374" lon="13.7299935"><ele>1296.0</ele><time>2026-03-24T12:42:42.96Z</time></trkpt><trkpt lat="41.9438147" lon="13.7299761"><ele>1296.0</ele><time>2026-03-24T12:42:43.96Z</time></trkpt><trkpt lat="41.9438812" lon="13.7299581"><ele>1296.0</ele><time>2026-03-24T12:42:44.961Z</time></trkpt><trkpt lat="41.9440093" lon="13.7299351"><ele>1296.0</ele><time>2026-03-24T12:42:46.96Z</time></trkpt><trkpt lat="41.9441155" lon="13.7299596"><ele>1296.0</ele><time>2026-03-24T12:42:48.96Z</time></trkpt><trkpt lat="41.9441987" lon="13.7300148"><ele>1296.0</ele><time>2026-03-24T12:42:50.96Z</time></trkpt><trkpt lat="41.9442662" lon="13.7301108"><ele>1298.8</ele><time>2026-03-24T12:42:52.96Z</time></trkpt><trkpt lat="41.944342" lon="13.7302079"><ele>1301.6</ele><time>2026-03-24T12:42:54.96Z</time></trkpt><trkpt lat="41.944413" lon="13.7302985"><ele>1304.4</ele><time>2026-03-24T12:42:56.96Z</time></trkpt><trkpt lat="41.9444883" lon="13.7303844"><ele>1307.2</ele><time>2026-03-24T12:42:58.96Z</time></trkpt><trkpt lat="41.9445713" lon="13.7304898"><ele>1310.0</ele><time>2026-03-24T12:43:00.96Z</time></trkpt><trkpt lat="41.9446211" lon="13.7305519"><ele>1310.1666666666667</ele><time>2026-03-24T12:43:01.96Z</time></trkpt><trkpt lat="41.9446757" lon="13.7306157"><ele>1310.3333333333335</ele><time>2026-03-24T12:43:02.961Z</time></trkpt><trkpt lat="41.9447292" lon="13.7306787"><ele>1310.5</ele><time>2026-03-24T12:43:03.96Z</time></trkpt><trkpt lat="41.94478" lon="13.7307375"><ele>1310.6666666666667</ele><time>2026-03-24T12:43:04.961Z</time></trkpt><trkpt lat="41.9448274" lon="13.7307973"><ele>1310.8333333333333</ele><time>2026-03-24T12:43:05.961Z</time></trkpt><trkpt lat="41.9449171" lon="13.7309025"><ele>1311.0</ele><time>2026-03-24T12:43:07.96Z</time></trkpt><trkpt lat="41.945007" lon="13.7310126"><ele>1312.3333333333333</ele><time>2026-03-24T12:43:09.96Z</time></trkpt><trkpt lat="41.9450929" lon="13.731112"><ele>1313.6666666666667</ele><time>2026-03-24T12:43:11.96Z</time></trkpt><trkpt lat="41.9451876" lon="13.7312233"><ele>1315.0</ele><time>2026-03-24T12:43:13.96Z</time></trkpt><trkpt lat="41.9452411" lon="13.7312854"><ele>1316.3333333333335</ele><time>2026-03-24T12:43:14.96Z</time></trkpt><trkpt lat="41.9452934" lon="13.7313454"><ele>1317.6666666666667</ele><time>2026-03-24T12:43:15.961Z</time></trkpt><trkpt lat="41.9453482" lon="13.7314015"><ele>1319.0</ele><time>2026-03-24T12:43:16.961Z</time></trkpt><trkpt lat="41.9453965" lon="13.7314657"><ele>1319.0</ele><time>2026-03-24T12:43:17.961Z</time></trkpt><trkpt lat="41.9454428" lon="13.7315283"><ele>1319.0</ele><time>2026-03-24T12:43:18.96Z</time></trkpt><trkpt lat="41.9454946" lon="13.7315881"><ele>1319.0</ele><time>2026-03-24T12:43:19.96Z</time></trkpt><trkpt lat="41.9455471" lon="13.7316608"><ele>1319.0</ele><time>2026-03-24T12:43:20.961Z</time></trkpt><trkpt lat="41.9456041" lon="13.7317361"><ele>1319.0</ele><time>2026-03-24T12:43:21.96Z</time></trkpt><trkpt lat="41.9456683" lon="13.7318076"><ele>1319.0</ele><time>2026-03-24T12:43:22.96Z</time></trkpt><trkpt lat="41.9457345" lon="13.7318888"><ele>1319.1666666666667</ele><time>2026-03-24T12:43:23.961Z</time></trkpt><trkpt lat="41.945806" lon="13.7319742"><ele>1319.3333333333335</ele><time>2026-03-24T12:43:24.96Z</time></trkpt><trkpt lat="41.9458687" lon="13.7320529"><ele>1319.5</ele><time>2026-03-24T12:43:25.96Z</time></trkpt><trkpt lat="41.9459209" lon="13.7321173"><ele>1319.6666666666667</ele><time>2026-03-24T12:43:26.96Z</time></trkpt><trkpt lat="41.945968" lon="13.7321785"><ele>1319.8333333333333</ele><time>2026-03-24T12:43:27.96Z</time></trkpt><trkpt lat="41.9460317" lon="13.7322839"><ele>1320.0</ele><time>2026-03-24T12:43:29.96Z</time></trkpt><trkpt lat="41.9460811" lon="13.7323731"><ele>1320.5</ele><time>2026-03-24T12:43:31.961Z</time></trkpt><trkpt lat="41.9461266" lon="13.7324895"><ele>1321.0</ele><time>2026-03-24T12:43:33.961Z</time></trkpt><trkpt lat="41.9461678" lon="13.7326069"><ele>1321.5</ele><time>2026-03-24T12:43:35.961Z</time></trkpt><trkpt lat="41.9462016" lon="13.7327"><ele>1322.0</ele><time>2026-03-24T12:43:37.96Z</time></trkpt><trkpt lat="41.9462278" lon="13.7327876"><ele>1322.5</ele><time>2026-03-24T12:43:39.96Z</time></trkpt><trkpt lat="41.946256" lon="13.7328732"><ele>1323.0</ele><time>2026-03-24T12:43:41.96Z</time></trkpt><trkpt lat="41.9462884" lon="13.7329635"><ele>1321.3333333333333</ele><time>2026-03-24T12:43:43.96Z</time></trkpt><trkpt lat="41.9463195" lon="13.7330684"><ele>1319.6666666666667</ele><time>2026-03-24T12:43:45.96Z</time></trkpt><trkpt lat="41.9463497" lon="13.7331617"><ele>1318.0</ele><time>2026-03-24T12:43:47.961Z</time></trkpt><trkpt lat="41.9463715" lon="13.7332514"><ele>1316.3333333333335</ele><time>2026-03-24T12:43:50.961Z</time></trkpt><trkpt lat="41.9464107" lon="13.7333598"><ele>1314.6666666666667</ele><time>2026-03-24T12:43:53.96Z</time></trkpt><trkpt lat="41.94644" lon="13.7334476"><ele>1313.0</ele><time>2026-03-24T12:43:55.96Z</time></trkpt><trkpt lat="41.9464777" lon="13.7335738"><ele>1312.5</ele><time>2026-03-24T12:43:57.961Z</time></trkpt><trkpt lat="41.9465361" lon="13.7337306"><ele>1312.0</ele><time>2026-03-24T12:43:59.96Z</time></trkpt><trkpt lat="41.9465761" lon="13.7338288"><ele>1311.5</ele><time>2026-03-24T12:44:00.96Z</time></trkpt><trkpt lat="41.9466133" lon="13.7339305"><ele>1311.0</ele><time>2026-03-24T12:44:01.961Z</time></trkpt><trkpt lat="41.9466439" lon="13.7340241"><ele>1310.5</ele><time>2026-03-24T12:44:02.961Z</time></trkpt><trkpt lat="41.9466697" lon="13.7341167"><ele>1310.0</ele><time>2026-03-24T12:44:03.961Z</time></trkpt><trkpt lat="41.9467026" lon="13.7342188"><ele>1309.1666666666667</ele><time>2026-03-24T12:44:04.961Z</time></trkpt><trkpt lat="41.9467391" lon="13.7343109"><ele>1308.3333333333335</ele><time>2026-03-24T12:44:05.96Z</time></trkpt><trkpt lat="41.9467718" lon="13.7344041"><ele>1307.5</ele><time>2026-03-24T12:44:06.96Z</time></trkpt><trkpt lat="41.9468092" lon="13.7344837"><ele>1306.6666666666667</ele><time>2026-03-24T12:44:07.961Z</time></trkpt><trkpt lat="41.9468493" lon="13.7345585"><ele>1305.8333333333333</ele><time>2026-03-24T12:44:08.96Z</time></trkpt><trkpt lat="41.9469254" lon="13.7346868"><ele>1305.0</ele><time>2026-03-24T12:44:10.96Z</time></trkpt><trkpt lat="41.947001" lon="13.7347908"><ele>1305.0</ele><time>2026-03-24T12:44:12.96Z</time></trkpt><trkpt lat="41.9470998" lon="13.7348838"><ele>1305.0</ele><time>2026-03-24T12:44:14.961Z</time></trkpt><trkpt lat="41.9472131" lon="13.7349346"><ele>1305.0</ele><time>2026-03-24T12:44:16.96Z</time></trkpt><trkpt lat="41.947328" lon="13.7349618"><ele>1305.0</ele><time>2026-03-24T12:44:18.961Z</time></trkpt><trkpt lat="41.9474332" lon="13.7348994"><ele>1303.25</ele><time>2026-03-24T12:44:20.96Z</time></trkpt><trkpt lat="41.947546" lon="13.7348485"><ele>1301.5</ele><time>2026-03-24T12:44:22.96Z</time></trkpt><trkpt lat="41.9476551" lon="13.7347926"><ele>1299.75</ele><time>2026-03-24T12:44:24.96Z</time></trkpt><trkpt lat="41.9477606" lon="13.7347306"><ele>1298.0</ele><time>2026-03-24T12:44:26.96Z</time></trkpt><trkpt lat="41.9478623" lon="13.7346778"><ele>1298.0</ele><time>2026-03-24T12:44:28.96Z</time></trkpt><trkpt lat="41.9479567" lon="13.7346395"><ele>1298.0</ele><time>2026-03-24T12:44:30.96Z</time></trkpt><trkpt lat="41.9480648" lon="13.7346136"><ele>1298.0</ele><time>2026-03-24T12:44:32.96Z</time></trkpt><trkpt lat="41.9481824" lon="13.7346196"><ele>1298.0</ele><time>2026-03-24T12:44:34.96Z</time></trkpt><trkpt lat="41.9482973" lon="13.7346619"><ele>1298.0</ele><time>2026-03-24T12:44:36.961Z</time></trkpt><trkpt lat="41.9484028" lon="13.7347456"><ele>1296.0</ele><time>2026-03-24T12:44:38.96Z</time></trkpt><trkpt lat="41.9485015" lon="13.7348501"><ele>1294.0</ele><time>2026-03-24T12:44:40.96Z</time></trkpt><trkpt lat="41.9485558" lon="13.7349045"><ele>1292.0</ele><time>2026-03-24T12:44:41.96Z</time></trkpt><trkpt lat="41.9486122" lon="13.7349699"><ele>1290.0</ele><time>2026-03-24T12:44:42.961Z</time></trkpt><trkpt lat="41.9486678" lon="13.7350237"><ele>1288.0</ele><time>2026-03-24T12:44:43.96Z</time></trkpt><trkpt lat="41.9487184" lon="13.7350781"><ele>1286.0</ele><time>2026-03-24T12:44:44.961Z</time></trkpt><trkpt lat="41.9488171" lon="13.7351819"><ele>1285.0</ele><time>2026-03-24T12:44:46.96Z</time></trkpt><trkpt lat="41.9489172" lon="13.7352694"><ele>1284.0</ele><time>2026-03-24T12:44:48.961Z</time></trkpt><trkpt lat="41.949019" lon="13.7353491"><ele>1283.0</ele><time>2026-03-24T12:44:50.96Z</time></trkpt><trkpt lat="41.9491111" lon="13.735417"><ele>1282.0</ele><time>2026-03-24T12:44:52.961Z</time></trkpt><trkpt lat="41.9492207" lon="13.7354727"><ele>1282.0</ele><time>2026-03-24T12:44:54.961Z</time></trkpt><trkpt lat="41.9493301" lon="13.7355138"><ele>1282.0</ele><time>2026-03-24T12:44:56.96Z</time></trkpt><trkpt lat="41.9494428" lon="13.7355407"><ele>1282.0</ele><time>2026-03-24T12:44:58.96Z</time></trkpt><trkpt lat="41.9495561" lon="13.7355617"><ele>1282.0</ele><time>2026-03-24T12:45:00.961Z</time></trkpt><trkpt lat="41.9496838" lon="13.7355934"><ele>1282.0</ele><time>2026-03-24T12:45:02.96Z</time></trkpt><trkpt lat="41.9498014" lon="13.7356283"><ele>1282.0</ele><time>2026-03-24T12:45:04.96Z</time></trkpt><trkpt lat="41.9499126" lon="13.7356555"><ele>1282.0</ele><time>2026-03-24T12:45:06.96Z</time></trkpt><trkpt lat="41.9500067" lon="13.7356767"><ele>1282.0</ele><time>2026-03-24T12:45:08.96Z</time></trkpt><trkpt lat="41.9500949" lon="13.7357084"><ele>1282.0</ele><time>2026-03-24T12:45:10.96Z</time></trkpt><trkpt lat="41.9502122" lon="13.7357438"><ele>1280.4285714285716</ele><time>2026-03-24T12:45:12.96Z</time></trkpt><trkpt lat="41.9502798" lon="13.7357551"><ele>1278.857142857143</ele><time>2026-03-24T12:45:13.961Z</time></trkpt><trkpt lat="41.9503512" lon="13.7357714"><ele>1277.2857142857142</ele><time>2026-03-24T12:45:14.96Z</time></trkpt><trkpt lat="41.9504236" lon="13.7357843"><ele>1275.7142857142858</ele><time>2026-03-24T12:45:15.961Z</time></trkpt><trkpt lat="41.9505024" lon="13.7358009"><ele>1274.142857142857</ele><time>2026-03-24T12:45:16.961Z</time></trkpt><trkpt lat="41.9505776" lon="13.7358172"><ele>1272.5714285714287</ele><time>2026-03-24T12:45:17.96Z</time></trkpt><trkpt lat="41.9506481" lon="13.7358346"><ele>1271.0</ele><time>2026-03-24T12:45:18.961Z</time></trkpt><trkpt lat="41.9507166" lon="13.7358506"><ele>1271.0</ele><time>2026-03-24T12:45:19.96Z</time></trkpt><trkpt lat="41.9507835" lon="13.73587"><ele>1271.0</ele><time>2026-03-24T12:45:20.96Z</time></trkpt><trkpt lat="41.9508579" lon="13.7358825"><ele>1271.0</ele><time>2026-03-24T12:45:21.961Z</time></trkpt><trkpt lat="41.9509317" lon="13.7358965"><ele>1271.0</ele><time>2026-03-24T12:45:22.96Z</time></trkpt><trkpt lat="41.9510014" lon="13.7359078"><ele>1271.0</ele><time>2026-03-24T12:45:23.96Z</time></trkpt><trkpt lat="41.951068" lon="13.7359158"><ele>1271.0</ele><time>2026-03-24T12:45:24.96Z</time></trkpt><trkpt lat="41.9511854" lon="13.7359531"><ele>1269.8333333333335</ele><time>2026-03-24T12:45:26.96Z</time></trkpt><trkpt lat="41.9513024" lon="13.7359903"><ele>1268.6666666666667</ele><time>2026-03-24T12:45:28.96Z</time></trkpt><trkpt lat="41.951423" lon="13.736013"><ele>1267.5</ele><time>2026-03-24T12:45:30.961Z</time></trkpt><trkpt lat="41.9514852" lon="13.7360271"><ele>1266.3333333333333</ele><time>2026-03-24T12:45:31.96Z</time></trkpt><trkpt lat="41.9515501" lon="13.7360399"><ele>1265.1666666666665</ele><time>2026-03-24T12:45:32.96Z</time></trkpt><trkpt lat="41.9516222" lon="13.7360556"><ele>1264.0</ele><time>2026-03-24T12:45:33.96Z</time></trkpt><trkpt lat="41.9516972" lon="13.736073"><ele>1266.2</ele><time>2026-03-24T12:45:34.96Z</time></trkpt><trkpt lat="41.9517711" lon="13.7360934"><ele>1268.4</ele><time>2026-03-24T12:45:35.96Z</time></trkpt><trkpt lat="41.9518374" lon="13.7361066"><ele>1270.6</ele><time>2026-03-24T12:45:36.96Z</time></trkpt><trkpt lat="41.9519007" lon="13.736119"><ele>1272.8</ele><time>2026-03-24T12:45:37.961Z</time></trkpt><trkpt lat="41.9520191" lon="13.7361688"><ele>1275.0</ele><time>2026-03-24T12:45:39.96Z</time></trkpt><trkpt lat="41.9521376" lon="13.7362174"><ele>1275.0</ele><time>2026-03-24T12:45:41.96Z</time></trkpt><trkpt lat="41.952197" lon="13.7362467"><ele>1275.0</ele><time>2026-03-24T12:45:42.96Z</time></trkpt><trkpt lat="41.952264" lon="13.7362777"><ele>1275.0</ele><time>2026-03-24T12:45:43.961Z</time></trkpt><trkpt lat="41.9523285" lon="13.736305"><ele>1275.0</ele><time>2026-03-24T12:45:44.961Z</time></trkpt><trkpt lat="41.9523928" lon="13.7363337"><ele>1275.0</ele><time>2026-03-24T12:45:45.96Z</time></trkpt><trkpt lat="41.9524625" lon="13.7363621"><ele>1275.0</ele><time>2026-03-24T12:45:46.961Z</time></trkpt><trkpt lat="41.9525353" lon="13.7363903"><ele>1275.0</ele><time>2026-03-24T12:45:47.96Z</time></trkpt><trkpt lat="41.9526093" lon="13.7364198"><ele>1272.5</ele><time>2026-03-24T12:45:48.961Z</time></trkpt><trkpt lat="41.9526851" lon="13.736452"><ele>1270.0</ele><time>2026-03-24T12:45:49.96Z</time></trkpt><trkpt lat="41.9527703" lon="13.7364893"><ele>1267.5</ele><time>2026-03-24T12:45:50.96Z</time></trkpt><trkpt lat="41.9528531" lon="13.7365132"><ele>1265.0</ele><time>2026-03-24T12:45:51.961Z</time></trkpt><trkpt lat="41.9529354" lon="13.7365279"><ele>1262.5</ele><time>2026-03-24T12:45:52.96Z</time></trkpt><trkpt lat="41.9530139" lon="13.7365355"><ele>1260.0</ele><time>2026-03-24T12:45:53.96Z</time></trkpt><trkpt lat="41.9530929" lon="13.7365491"><ele>1260.0</ele><time>2026-03-24T12:45:54.96Z</time></trkpt><trkpt lat="41.953175" lon="13.7365642"><ele>1260.0</ele><time>2026-03-24T12:45:55.96Z</time></trkpt><trkpt lat="41.9532531" lon="13.7365694"><ele>1260.0</ele><time>2026-03-24T12:45:56.961Z</time></trkpt><trkpt lat="41.9533172" lon="13.7365946"><ele>1260.0</ele><time>2026-03-24T12:45:57.96Z</time></trkpt><trkpt lat="41.9533858" lon="13.7366029"><ele>1260.0</ele><time>2026-03-24T12:45:58.961Z</time></trkpt><trkpt lat="41.9534503" lon="13.7366047"><ele>1260.0</ele><time>2026-03-24T12:45:59.96Z</time></trkpt><trkpt lat="41.9535541" lon="13.7366537"><ele>1259.6</ele><time>2026-03-24T12:46:01.961Z</time></trkpt><trkpt lat="41.9536611" lon="13.7366499"><ele>1259.2</ele><time>2026-03-24T12:46:03.96Z</time></trkpt><trkpt lat="41.9537417" lon="13.7365503"><ele>1258.8</ele><time>2026-03-24T12:46:05.96Z</time></trkpt><trkpt lat="41.9537272" lon="13.7364392"><ele>1258.4</ele><time>2026-03-24T12:46:07.96Z</time></trkpt><trkpt lat="41.9536523" lon="13.736365"><ele>1258.0</ele><time>2026-03-24T12:46:09.96Z</time></trkpt><trkpt lat="41.9535823" lon="13.7363332"><ele>1258.0</ele><time>2026-03-24T12:46:10.96Z</time></trkpt><trkpt lat="41.9535107" lon="13.7363055"><ele>1258.0</ele><time>2026-03-24T12:46:11.96Z</time></trkpt><trkpt lat="41.9534453" lon="13.7362622"><ele>1258.0</ele><time>2026-03-24T12:46:12.96Z</time></trkpt><trkpt lat="41.953382" lon="13.7362131"><ele>1258.0</ele><time>2026-03-24T12:46:13.961Z</time></trkpt><trkpt lat="41.9533161" lon="13.7361432"><ele>1258.0</ele><time>2026-03-24T12:46:14.961Z</time></trkpt><trkpt lat="41.9532459" lon="13.7360668"><ele>1258.0</ele><time>2026-03-24T12:46:15.96Z</time></trkpt><trkpt lat="41.9531822" lon="13.7359928"><ele>1255.5</ele><time>2026-03-24T12:46:16.961Z</time></trkpt><trkpt lat="41.9531186" lon="13.7359118"><ele>1253.0</ele><time>2026-03-24T12:46:17.96Z</time></trkpt><trkpt lat="41.9530472" lon="13.7358352"><ele>1250.5</ele><time>2026-03-24T12:46:18.961Z</time></trkpt><trkpt lat="41.9529831" lon="13.735765"><ele>1248.0</ele><time>2026-03-24T12:46:19.961Z</time></trkpt><trkpt lat="41.9529219" lon="13.7356877"><ele>1245.5</ele><time>2026-03-24T12:46:20.961Z</time></trkpt><trkpt lat="41.9528624" lon="13.7356079"><ele>1243.0</ele><time>2026-03-24T12:46:21.96Z</time></trkpt><trkpt lat="41.9528083" lon="13.7355292"><ele>1243.0</ele><time>2026-03-24T12:46:22.96Z</time></trkpt><trkpt lat="41.9527572" lon="13.7354441"><ele>1243.0</ele><time>2026-03-24T12:46:23.96Z</time></trkpt><trkpt lat="41.9527071" lon="13.7353546"><ele>1243.0</ele><time>2026-03-24T12:46:24.96Z</time></trkpt><trkpt lat="41.9526529" lon="13.7352646"><ele>1243.0</ele><time>2026-03-24T12:46:25.961Z</time></trkpt><trkpt lat="41.9525988" lon="13.7351792"><ele>1243.0</ele><time>2026-03-24T12:46:26.96Z</time></trkpt><trkpt lat="41.9525532" lon="13.7350982"><ele>1243.0</ele><time>2026-03-24T12:46:27.96Z</time></trkpt><trkpt lat="41.9525135" lon="13.7350162"><ele>1241.8</ele><time>2026-03-24T12:46:28.96Z</time></trkpt><trkpt lat="41.9524667" lon="13.7349419"><ele>1240.6</ele><time>2026-03-24T12:46:29.96Z</time></trkpt><trkpt lat="41.952431" lon="13.7348599"><ele>1239.4</ele><time>2026-03-24T12:46:30.96Z</time></trkpt><trkpt lat="41.9524038" lon="13.7347782"><ele>1238.2</ele><time>2026-03-24T12:46:31.961Z</time></trkpt><trkpt lat="41.9523919" lon="13.7346125"><ele>1237.0</ele><time>2026-03-24T12:46:33.961Z</time></trkpt><trkpt lat="41.9524263" lon="13.7344568"><ele>1236.1666666666665</ele><time>2026-03-24T12:46:35.96Z</time></trkpt><trkpt lat="41.9524739" lon="13.7343353"><ele>1235.3333333333333</ele><time>2026-03-24T12:46:37.961Z</time></trkpt><trkpt lat="41.9525485" lon="13.7342712"><ele>1234.5</ele><time>2026-03-24T12:46:39.96Z</time></trkpt><trkpt lat="41.9526577" lon="13.7342376"><ele>1233.6666666666667</ele><time>2026-03-24T12:46:41.96Z</time></trkpt><trkpt lat="41.9527287" lon="13.734225"><ele>1232.8333333333335</ele><time>2026-03-24T12:46:42.96Z</time></trkpt><trkpt lat="41.952801" lon="13.7342152"><ele>1232.0</ele><time>2026-03-24T12:46:43.96Z</time></trkpt><trkpt lat="41.9528722" lon="13.7342056"><ele>1231.2</ele><time>2026-03-24T12:46:44.961Z</time></trkpt><trkpt lat="41.9530009" lon="13.7341985"><ele>1230.4</ele><time>2026-03-24T12:46:46.96Z</time></trkpt><trkpt lat="41.9531287" lon="13.7341909"><ele>1229.6</ele><time>2026-03-24T12:46:48.961Z</time></trkpt><trkpt lat="41.9531916" lon="13.7341819"><ele>1228.8</ele><time>2026-03-24T12:46:49.961Z</time></trkpt><trkpt lat="41.9532555" lon="13.7341669"><ele>1228.0</ele><time>2026-03-24T12:46:50.96Z</time></trkpt><trkpt lat="41.9533831" lon="13.7341457"><ele>1226.8333333333333</ele><time>2026-03-24T12:46:52.96Z</time></trkpt><trkpt lat="41.9534529" lon="13.7341271"><ele>1225.6666666666665</ele><time>2026-03-24T12:46:53.96Z</time></trkpt><trkpt lat="41.953519" lon="13.7341178"><ele>1224.5</ele><time>2026-03-24T12:46:54.96Z</time></trkpt><trkpt lat="41.9535811" lon="13.7341035"><ele>1223.3333333333333</ele><time>2026-03-24T12:46:55.961Z</time></trkpt><trkpt lat="41.9537005" lon="13.7340867"><ele>1222.1666666666667</ele><time>2026-03-24T12:46:57.96Z</time></trkpt><trkpt lat="41.9538016" lon="13.7340728"><ele>1221.0</ele><time>2026-03-24T12:46:59.96Z</time></trkpt><trkpt lat="41.9539137" lon="13.7340581"><ele>1221.0</ele><time>2026-03-24T12:47:01.96Z</time></trkpt><trkpt lat="41.9540257" lon="13.7340445"><ele>1221.0</ele><time>2026-03-24T12:47:03.961Z</time></trkpt><trkpt lat="41.9541586" lon="13.7340255"><ele>1221.0</ele><time>2026-03-24T12:47:05.96Z</time></trkpt><trkpt lat="41.9542255" lon="13.7340136"><ele>1221.0</ele><time>2026-03-24T12:47:06.96Z</time></trkpt><trkpt lat="41.9543429" lon="13.733994"><ele>1221.0</ele><time>2026-03-24T12:47:08.961Z</time></trkpt><trkpt lat="41.9544546" lon="13.7339728"><ele>1220.0</ele><time>2026-03-24T12:47:10.961Z</time></trkpt><trkpt lat="41.9545567" lon="13.7339625"><ele>1219.0</ele><time>2026-03-24T12:47:12.961Z</time></trkpt><trkpt lat="41.9546551" lon="13.7339512"><ele>1218.0</ele><time>2026-03-24T12:47:14.961Z</time></trkpt><trkpt lat="41.9547301" lon="13.7339328"><ele>1217.0</ele><time>2026-03-24T12:47:16.961Z</time></trkpt><trkpt lat="41.9548042" lon="13.7339203"><ele>1216.0</ele><time>2026-03-24T12:47:18.961Z</time></trkpt><trkpt lat="41.9548795" lon="13.733926"><ele>1215.0</ele><time>2026-03-24T12:47:20.96Z</time></trkpt><trkpt lat="41.954993" lon="13.7339172"><ele>1213.2</ele><time>2026-03-24T12:47:22.96Z</time></trkpt><trkpt lat="41.9551115" lon="13.7338973"><ele>1211.4</ele><time>2026-03-24T12:47:24.961Z</time></trkpt><trkpt lat="41.9552231" lon="13.7338785"><ele>1209.6</ele><time>2026-03-24T12:47:26.96Z</time></trkpt><trkpt lat="41.9553515" lon="13.7338722"><ele>1207.8</ele><time>2026-03-24T12:47:28.961Z</time></trkpt><trkpt lat="41.9554364" lon="13.7338773"><ele>1206.0</ele><time>2026-03-24T12:47:29.961Z</time></trkpt><trkpt lat="41.9555128" lon="13.7338791"><ele>1206.0</ele><time>2026-03-24T12:47:30.96Z</time></trkpt><trkpt lat="41.9555857" lon="13.7338862"><ele>1206.0</ele><time>2026-03-24T12:47:31.96Z</time></trkpt><trkpt lat="41.9556491" lon="13.7338956"><ele>1206.0</ele><time>2026-03-24T12:47:32.96Z</time></trkpt><trkpt lat="41.9557673" lon="13.7339141"><ele>1206.0</ele><time>2026-03-24T12:47:34.96Z</time></trkpt><trkpt lat="41.9558865" lon="13.7339287"><ele>1206.0</ele><time>2026-03-24T12:47:36.96Z</time></trkpt><trkpt lat="41.9559502" lon="13.7339454"><ele>1206.0</ele><time>2026-03-24T12:47:37.96Z</time></trkpt><trkpt lat="41.9560248" lon="13.73396"><ele>1205.2</ele><time>2026-03-24T12:47:38.961Z</time></trkpt><trkpt lat="41.9561147" lon="13.7339755"><ele>1204.3999999999999</ele><time>2026-03-24T12:47:39.961Z</time></trkpt><trkpt lat="41.9562005" lon="13.7339906"><ele>1203.6</ele><time>2026-03-24T12:47:40.96Z</time></trkpt><trkpt lat="41.9562844" lon="13.7340011"><ele>1202.8</ele><time>2026-03-24T12:47:41.96Z</time></trkpt><trkpt lat="41.9563586" lon="13.7340081"><ele>1202.0</ele><time>2026-03-24T12:47:42.96Z</time></trkpt><trkpt lat="41.9564759" lon="13.7340075"><ele>1202.0</ele><time>2026-03-24T12:47:44.961Z</time></trkpt><trkpt lat="41.9565638" lon="13.733998"><ele>1202.0</ele><time>2026-03-24T12:47:46.961Z</time></trkpt><trkpt lat="41.9566386" lon="13.7339826"><ele>1202.0</ele><time>2026-03-24T12:47:49.96Z</time></trkpt><trkpt lat="41.9567019" lon="13.7339593"><ele>1202.0</ele><time>2026-03-24T12:47:51.961Z</time></trkpt><trkpt lat="41.9567754" lon="13.7339521"><ele>1202.0</ele><time>2026-03-24T12:47:53.96Z</time></trkpt><trkpt lat="41.9568478" lon="13.7339353"><ele>1202.0</ele><time>2026-03-24T12:47:55.96Z</time></trkpt><trkpt lat="41.9569272" lon="13.7339223"><ele>1201.8333333333335</ele><time>2026-03-24T12:47:57.96Z</time></trkpt><trkpt lat="41.9570181" lon="13.733889"><ele>1201.6666666666667</ele><time>2026-03-24T12:47:59.961Z</time></trkpt><trkpt lat="41.9571024" lon="13.7338514"><ele>1201.5</ele><time>2026-03-24T12:48:01.96Z</time></trkpt><trkpt lat="41.957171" lon="13.7338179"><ele>1201.3333333333333</ele><time>2026-03-24T12:48:02.96Z</time></trkpt><trkpt lat="41.957252" lon="13.7337875"><ele>1201.1666666666665</ele><time>2026-03-24T12:48:03.96Z</time></trkpt><trkpt lat="41.9573228" lon="13.7337647"><ele>1201.0</ele><time>2026-03-24T12:48:04.961Z</time></trkpt><trkpt lat="41.9573917" lon="13.7337488"><ele>1201.0000000000002</ele><time>2026-03-24T12:48:05.96Z</time></trkpt><trkpt lat="41.9574552" lon="13.7337404"><ele>1201.0</ele><time>2026-03-24T12:48:06.96Z</time></trkpt><trkpt lat="41.9575198" lon="13.7337325"><ele>1201.0</ele><time>2026-03-24T12:48:07.96Z</time></trkpt><trkpt lat="41.9575874" lon="13.7337321"><ele>1201.0</ele><time>2026-03-24T12:48:08.96Z</time></trkpt><trkpt lat="41.9576548" lon="13.7337305"><ele>1201.0</ele><time>2026-03-24T12:48:09.96Z</time></trkpt><trkpt lat="41.9577251" lon="13.7337319"><ele>1201.0000000000002</ele><time>2026-03-24T12:48:10.96Z</time></trkpt><trkpt lat="41.9577911" lon="13.7337281"><ele>1201.0</ele><time>2026-03-24T12:48:11.96Z</time></trkpt><trkpt lat="41.9578591" lon="13.7337293"><ele>1199.25</ele><time>2026-03-24T12:48:12.961Z</time></trkpt><trkpt lat="41.957978" lon="13.7337397"><ele>1197.5</ele><time>2026-03-24T12:48:14.96Z</time></trkpt><trkpt lat="41.9580887" lon="13.7337473"><ele>1195.75</ele><time>2026-03-24T12:48:16.96Z</time></trkpt><trkpt lat="41.9581961" lon="13.7337593"><ele>1194.0</ele><time>2026-03-24T12:48:18.961Z</time></trkpt><trkpt lat="41.9583078" lon="13.7337669"><ele>1193.0</ele><time>2026-03-24T12:48:20.96Z</time></trkpt><trkpt lat="41.9583757" lon="13.733771"><ele>1192.0</ele><time>2026-03-24T12:48:21.961Z</time></trkpt><trkpt lat="41.9584463" lon="13.7337766"><ele>1191.0</ele><time>2026-03-24T12:48:22.96Z</time></trkpt><trkpt lat="41.9585213" lon="13.7337767"><ele>1190.0</ele><time>2026-03-24T12:48:23.96Z</time></trkpt><trkpt lat="41.9585918" lon="13.7337839"><ele>1189.0</ele><time>2026-03-24T12:48:24.96Z</time></trkpt><trkpt lat="41.9587161" lon="13.7337808"><ele>1188.0</ele><time>2026-03-24T12:48:26.96Z</time></trkpt><trkpt lat="41.9588321" lon="13.7337856"><ele>1188.0</ele><time>2026-03-24T12:48:28.96Z</time></trkpt><trkpt lat="41.9589319" lon="13.7337876"><ele>1188.0</ele><time>2026-03-24T12:48:30.96Z</time></trkpt><trkpt lat="41.959028" lon="13.733788"><ele>1188.0</ele><time>2026-03-24T12:48:32.961Z</time></trkpt><trkpt lat="41.9591271" lon="13.7337942"><ele>1188.0</ele><time>2026-03-24T12:48:34.96Z</time></trkpt><trkpt lat="41.9592214" lon="13.7338277"><ele>1188.0</ele><time>2026-03-24T12:48:36.96Z</time></trkpt><trkpt lat="41.9593342" lon="13.7338549"><ele>1185.25</ele><time>2026-03-24T12:48:38.961Z</time></trkpt><trkpt lat="41.9594408" lon="13.7338878"><ele>1182.5</ele><time>2026-03-24T12:48:40.96Z</time></trkpt><trkpt lat="41.9595551" lon="13.7339286"><ele>1179.75</ele><time>2026-03-24T12:48:42.96Z</time></trkpt><trkpt lat="41.9596746" lon="13.7339716"><ele>1177.0</ele><time>2026-03-24T12:48:44.96Z</time></trkpt><trkpt lat="41.9597816" lon="13.7340191"><ele>1177.0</ele><time>2026-03-24T12:48:46.961Z</time></trkpt><trkpt lat="41.9598777" lon="13.734071"><ele>1177.0</ele><time>2026-03-24T12:48:48.961Z</time></trkpt><trkpt lat="41.9599922" lon="13.7341361"><ele>1177.0</ele><time>2026-03-24T12:48:50.96Z</time></trkpt><trkpt lat="41.9600486" lon="13.7341757"><ele>1177.0</ele><time>2026-03-24T12:48:51.96Z</time></trkpt><trkpt lat="41.9601093" lon="13.7342166"><ele>1177.0</ele><time>2026-03-24T12:48:52.96Z</time></trkpt><trkpt lat="41.9601742" lon="13.7342591"><ele>1177.0</ele><time>2026-03-24T12:48:53.96Z</time></trkpt><trkpt lat="41.9602399" lon="13.734301"><ele>1177.6666666666665</ele><time>2026-03-24T12:48:54.96Z</time></trkpt><trkpt lat="41.9603027" lon="13.7343295"><ele>1178.3333333333333</ele><time>2026-03-24T12:48:55.961Z</time></trkpt><trkpt lat="41.9603702" lon="13.7343554"><ele>1179.0</ele><time>2026-03-24T12:48:56.96Z</time></trkpt><trkpt lat="41.9604473" lon="13.734387"><ele>1179.6666666666667</ele><time>2026-03-24T12:48:57.96Z</time></trkpt><trkpt lat="41.9605359" lon="13.7344209"><ele>1180.3333333333335</ele><time>2026-03-24T12:48:58.96Z</time></trkpt><trkpt lat="41.960616" lon="13.7344369"><ele>1181.0</ele><time>2026-03-24T12:48:59.96Z</time></trkpt><trkpt lat="41.960696" lon="13.7344525"><ele>1181.0</ele><time>2026-03-24T12:49:00.96Z</time></trkpt><trkpt lat="41.9607743" lon="13.734462"><ele>1181.0</ele><time>2026-03-24T12:49:01.96Z</time></trkpt><trkpt lat="41.960853" lon="13.7344609"><ele>1181.0</ele><time>2026-03-24T12:49:02.961Z</time></trkpt><trkpt lat="41.9609284" lon="13.7344691"><ele>1181.0</ele><time>2026-03-24T12:49:03.961Z</time></trkpt><trkpt lat="41.9610105" lon="13.7344698"><ele>1181.0</ele><time>2026-03-24T12:49:04.96Z</time></trkpt><trkpt lat="41.9610859" lon="13.7344721"><ele>1181.0</ele><time>2026-03-24T12:49:05.961Z</time></trkpt><trkpt lat="41.9611557" lon="13.7344838"><ele>1179.3333333333335</ele><time>2026-03-24T12:49:06.96Z</time></trkpt><trkpt lat="41.9612274" lon="13.7345004"><ele>1177.6666666666667</ele><time>2026-03-24T12:49:07.96Z</time></trkpt><trkpt lat="41.961298" lon="13.7345225"><ele>1176.0</ele><time>2026-03-24T12:49:08.961Z</time></trkpt><trkpt lat="41.9613736" lon="13.7345453"><ele>1174.3333333333333</ele><time>2026-03-24T12:49:09.96Z</time></trkpt><trkpt lat="41.9614545" lon="13.7345656"><ele>1172.6666666666665</ele><time>2026-03-24T12:49:10.96Z</time></trkpt><trkpt lat="41.9615312" lon="13.7345754"><ele>1171.0</ele><time>2026-03-24T12:49:11.961Z</time></trkpt><trkpt lat="41.9616045" lon="13.7345809"><ele>1171.0</ele><time>2026-03-24T12:49:12.96Z</time></trkpt><trkpt lat="41.9616732" lon="13.7345891"><ele>1171.0</ele><time>2026-03-24T12:49:13.96Z</time></trkpt><trkpt lat="41.9617369" lon="13.734582"><ele>1171.0</ele><time>2026-03-24T12:49:14.961Z</time></trkpt><trkpt lat="41.9618539" lon="13.734573"><ele>1171.0</ele><time>2026-03-24T12:49:16.96Z</time></trkpt><trkpt lat="41.9619227" lon="13.7345597"><ele>1171.0</ele><time>2026-03-24T12:49:17.96Z</time></trkpt><trkpt lat="41.9619943" lon="13.7345529"><ele>1171.0</ele><time>2026-03-24T12:49:18.96Z</time></trkpt><trkpt lat="41.9620722" lon="13.7345354"><ele>1169.6666666666665</ele><time>2026-03-24T12:49:19.96Z</time></trkpt><trkpt lat="41.9621499" lon="13.7345155"><ele>1168.3333333333333</ele><time>2026-03-24T12:49:20.96Z</time></trkpt><trkpt lat="41.9622282" lon="13.7344984"><ele>1167.0</ele><time>2026-03-24T12:49:21.96Z</time></trkpt><trkpt lat="41.9623131" lon="13.7344788"><ele>1165.6666666666667</ele><time>2026-03-24T12:49:22.96Z</time></trkpt><trkpt lat="41.9623965" lon="13.7344602"><ele>1164.3333333333335</ele><time>2026-03-24T12:49:23.961Z</time></trkpt><trkpt lat="41.9624772" lon="13.7344516"><ele>1163.0</ele><time>2026-03-24T12:49:24.96Z</time></trkpt><trkpt lat="41.9625577" lon="13.7344233"><ele>1160.2</ele><time>2026-03-24T12:49:25.96Z</time></trkpt><trkpt lat="41.9626349" lon="13.7344006"><ele>1157.4</ele><time>2026-03-24T12:49:26.961Z</time></trkpt><trkpt lat="41.9627116" lon="13.7343816"><ele>1154.6000000000001</ele><time>2026-03-24T12:49:27.96Z</time></trkpt><trkpt lat="41.9627974" lon="13.7343459"><ele>1151.8</ele><time>2026-03-24T12:49:29.961Z</time></trkpt><trkpt lat="41.9628928" lon="13.734389"><ele>1149.0</ele><time>2026-03-24T12:49:31.96Z</time></trkpt><trkpt lat="41.9629815" lon="13.7344854"><ele>1149.0</ele><time>2026-03-24T12:49:33.96Z</time></trkpt><trkpt lat="41.9630164" lon="13.7345581"><ele>1149.0</ele><time>2026-03-24T12:49:34.96Z</time></trkpt><trkpt lat="41.9630467" lon="13.7346468"><ele>1149.0</ele><time>2026-03-24T12:49:35.961Z</time></trkpt><trkpt lat="41.9630733" lon="13.7347419"><ele>1149.0</ele><time>2026-03-24T12:49:36.961Z</time></trkpt><trkpt lat="41.9630965" lon="13.7348345"><ele>1149.0</ele><time>2026-03-24T12:49:37.96Z</time></trkpt><trkpt lat="41.9631162" lon="13.7349192"><ele>1149.0</ele><time>2026-03-24T12:49:38.96Z</time></trkpt><trkpt lat="41.9631636" lon="13.7350672"><ele>1149.0</ele><time>2026-03-24T12:49:40.96Z</time></trkpt><trkpt lat="41.9632503" lon="13.735145"><ele>1149.0</ele><time>2026-03-24T12:49:42.961Z</time></trkpt><trkpt lat="41.9633524" lon="13.7351662"><ele>1149.0</ele><time>2026-03-24T12:49:44.96Z</time></trkpt><trkpt lat="41.9634693" lon="13.7351591"><ele>1149.0</ele><time>2026-03-24T12:49:46.96Z</time></trkpt><trkpt lat="41.9635332" lon="13.7351558"><ele>1149.0</ele><time>2026-03-24T12:49:47.96Z</time></trkpt><trkpt lat="41.9635973" lon="13.7351602"><ele>1149.1666666666667</ele><time>2026-03-24T12:49:48.961Z</time></trkpt><trkpt lat="41.9637235" lon="13.7351855"><ele>1149.3333333333333</ele><time>2026-03-24T12:49:50.961Z</time></trkpt><trkpt lat="41.9637912" lon="13.7352219"><ele>1149.5</ele><time>2026-03-24T12:49:51.96Z</time></trkpt><trkpt lat="41.9638597" lon="13.7352673"><ele>1149.6666666666665</ele><time>2026-03-24T12:49:52.96Z</time></trkpt><trkpt lat="41.9639266" lon="13.7353148"><ele>1149.8333333333333</ele><time>2026-03-24T12:49:53.96Z</time></trkpt><trkpt lat="41.9639939" lon="13.7353547"><ele>1150.0</ele><time>2026-03-24T12:49:54.961Z</time></trkpt><trkpt lat="41.9640603" lon="13.7353839"><ele>1150.0</ele><time>2026-03-24T12:49:55.961Z</time></trkpt><trkpt lat="41.9641275" lon="13.7353986"><ele>1150.0</ele><time>2026-03-24T12:49:56.961Z</time></trkpt><trkpt lat="41.9641965" lon="13.7354086"><ele>1150.0</ele><time>2026-03-24T12:49:57.96Z</time></trkpt><trkpt lat="41.9642603" lon="13.7354149"><ele>1150.0</ele><time>2026-03-24T12:49:58.96Z</time></trkpt><trkpt lat="41.9643414" lon="13.7354299"><ele>1150.0</ele><time>2026-03-24T12:49:59.961Z</time></trkpt><trkpt lat="41.9644276" lon="13.7354423"><ele>1150.0</ele><time>2026-03-24T12:50:00.96Z</time></trkpt><trkpt lat="41.9645232" lon="13.7354612"><ele>1148.0</ele><time>2026-03-24T12:50:01.961Z</time></trkpt><trkpt lat="41.9646262" lon="13.7354794"><ele>1146.0</ele><time>2026-03-24T12:50:02.96Z</time></trkpt><trkpt lat="41.9647304" lon="13.7354972"><ele>1144.0</ele><time>2026-03-24T12:50:03.96Z</time></trkpt><trkpt lat="41.9648261" lon="13.7355087"><ele>1142.0</ele><time>2026-03-24T12:50:04.961Z</time></trkpt><trkpt lat="41.9649169" lon="13.7355161"><ele>1140.0</ele><time>2026-03-24T12:50:05.96Z</time></trkpt><trkpt lat="41.9650038" lon="13.7355261"><ele>1138.4285714285713</ele><time>2026-03-24T12:50:06.961Z</time></trkpt><trkpt lat="41.9650861" lon="13.7355316"><ele>1136.857142857143</ele><time>2026-03-24T12:50:07.96Z</time></trkpt><trkpt lat="41.9651642" lon="13.735548"><ele>1135.2857142857142</ele><time>2026-03-24T12:50:08.96Z</time></trkpt><trkpt lat="41.9652353" lon="13.7355641"><ele>1133.7142857142858</ele><time>2026-03-24T12:50:09.96Z</time></trkpt><trkpt lat="41.9653073" lon="13.7355853"><ele>1132.142857142857</ele><time>2026-03-24T12:50:10.96Z</time></trkpt><trkpt lat="41.965379" lon="13.7355983"><ele>1130.5714285714284</ele><time>2026-03-24T12:50:11.96Z</time></trkpt><trkpt lat="41.9654442" lon="13.7356044"><ele>1129.0</ele><time>2026-03-24T12:50:12.96Z</time></trkpt><trkpt lat="41.9655139" lon="13.7356271"><ele>1129.0</ele><time>2026-03-24T12:50:13.96Z</time></trkpt><trkpt lat="41.9655882" lon="13.7356507"><ele>1129.0</ele><time>2026-03-24T12:50:14.96Z</time></trkpt><trkpt lat="41.9656569" lon="13.7356935"><ele>1129.0</ele><time>2026-03-24T12:50:15.96Z</time></trkpt><trkpt lat="41.9657212" lon="13.7357387"><ele>1129.0</ele><time>2026-03-24T12:50:16.96Z</time></trkpt><trkpt lat="41.9658264" lon="13.7358537"><ele>1129.0</ele><time>2026-03-24T12:50:18.961Z</time></trkpt><trkpt lat="41.9658829" lon="13.7359048"><ele>1129.0</ele><time>2026-03-24T12:50:19.961Z</time></trkpt><trkpt lat="41.9659947" lon="13.7359665"><ele>1127.1666666666665</ele><time>2026-03-24T12:50:21.96Z</time></trkpt><trkpt lat="41.9660628" lon="13.7359867"><ele>1125.3333333333333</ele><time>2026-03-24T12:50:22.96Z</time></trkpt><trkpt lat="41.9661276" lon="13.7359928"><ele>1123.5</ele><time>2026-03-24T12:50:23.961Z</time></trkpt><trkpt lat="41.9661924" lon="13.7359835"><ele>1121.6666666666667</ele><time>2026-03-24T12:50:24.961Z</time></trkpt><trkpt lat="41.966311" lon="13.7359726"><ele>1119.8333333333335</ele><time>2026-03-24T12:50:26.961Z</time></trkpt><trkpt lat="41.9664278" lon="13.7359805"><ele>1118.0</ele><time>2026-03-24T12:50:28.961Z</time></trkpt><trkpt lat="41.9664896" lon="13.7360021"><ele>1118.0</ele><time>2026-03-24T12:50:29.96Z</time></trkpt><trkpt lat="41.9665546" lon="13.7360268"><ele>1118.0</ele><time>2026-03-24T12:50:30.96Z</time></trkpt><trkpt lat="41.9666211" lon="13.7360554"><ele>1118.0</ele><time>2026-03-24T12:50:31.961Z</time></trkpt><trkpt lat="41.9666871" lon="13.7360881"><ele>1118.0</ele><time>2026-03-24T12:50:32.961Z</time></trkpt><trkpt lat="41.9667513" lon="13.7361111"><ele>1118.0</ele><time>2026-03-24T12:50:33.961Z</time></trkpt><trkpt lat="41.9668784" lon="13.7361115"><ele>1118.0</ele><time>2026-03-24T12:50:35.96Z</time></trkpt><trkpt lat="41.9670151" lon="13.7360876"><ele>1117.6666666666667</ele><time>2026-03-24T12:50:37.961Z</time></trkpt><trkpt lat="41.9670911" lon="13.7360705"><ele>1117.3333333333335</ele><time>2026-03-24T12:50:38.96Z</time></trkpt><trkpt lat="41.9671682" lon="13.7360543"><ele>1117.0</ele><time>2026-03-24T12:50:39.96Z</time></trkpt><trkpt lat="41.9672492" lon="13.7360305"><ele>1116.6666666666667</ele><time>2026-03-24T12:50:40.961Z</time></trkpt><trkpt lat="41.9673327" lon="13.7360164"><ele>1116.3333333333333</ele><time>2026-03-24T12:50:41.96Z</time></trkpt><trkpt lat="41.9674131" lon="13.7359988"><ele>1116.0</ele><time>2026-03-24T12:50:42.961Z</time></trkpt><trkpt lat="41.9674903" lon="13.7359845"><ele>1115.8333333333333</ele><time>2026-03-24T12:50:43.961Z</time></trkpt><trkpt lat="41.9675637" lon="13.7359657"><ele>1115.6666666666667</ele><time>2026-03-24T12:50:44.96Z</time></trkpt><trkpt lat="41.9676369" lon="13.7359513"><ele>1115.5</ele><time>2026-03-24T12:50:45.96Z</time></trkpt><trkpt lat="41.9677149" lon="13.7359296"><ele>1115.3333333333335</ele><time>2026-03-24T12:50:46.96Z</time></trkpt><trkpt lat="41.9677959" lon="13.7359168"><ele>1115.1666666666667</ele><time>2026-03-24T12:50:47.96Z</time></trkpt><trkpt lat="41.9678879" lon="13.7358907"><ele>1115.0</ele><time>2026-03-24T12:50:48.961Z</time></trkpt><trkpt lat="41.9679836" lon="13.735877"><ele>1115.0</ele><time>2026-03-24T12:50:49.961Z</time></trkpt><trkpt lat="41.9680718" lon="13.735857"><ele>1115.0</ele><time>2026-03-24T12:50:50.96Z</time></trkpt><trkpt lat="41.9681575" lon="13.735838"><ele>1115.0</ele><time>2026-03-24T12:50:51.96Z</time></trkpt><trkpt lat="41.9682413" lon="13.7358158"><ele>1115.0</ele><time>2026-03-24T12:50:52.961Z</time></trkpt><trkpt lat="41.9683214" lon="13.735793"><ele>1115.0</ele><time>2026-03-24T12:50:53.961Z</time></trkpt><trkpt lat="41.9684072" lon="13.7357773"><ele>1115.0</ele><time>2026-03-24T12:50:54.96Z</time></trkpt><trkpt lat="41.9684876" lon="13.7357529"><ele>1115.4</ele><time>2026-03-24T12:50:55.96Z</time></trkpt><trkpt lat="41.9685572" lon="13.7357258"><ele>1115.8</ele><time>2026-03-24T12:50:56.96Z</time></trkpt><trkpt lat="41.9686763" lon="13.7356924"><ele>1116.2</ele><time>2026-03-24T12:50:58.96Z</time></trkpt><trkpt lat="41.9687438" lon="13.7356973"><ele>1116.6</ele><time>2026-03-24T12:50:59.96Z</time></trkpt><trkpt lat="41.968867" lon="13.7356883"><ele>1117.0</ele><time>2026-03-24T12:51:01.96Z</time></trkpt><trkpt lat="41.9689688" lon="13.7356141"><ele>1117.0</ele><time>2026-03-24T12:51:03.961Z</time></trkpt><trkpt lat="41.9690706" lon="13.7355224"><ele>1117.0</ele><time>2026-03-24T12:51:05.96Z</time></trkpt><trkpt lat="41.9691616" lon="13.7354463"><ele>1117.0</ele><time>2026-03-24T12:51:07.96Z</time></trkpt><trkpt lat="41.9692425" lon="13.7354827"><ele>1117.0</ele><time>2026-03-24T12:51:10.96Z</time></trkpt><trkpt lat="41.9693034" lon="13.7355682"><ele>1117.0</ele><time>2026-03-24T12:51:12.96Z</time></trkpt><trkpt lat="41.9693955" lon="13.7355915"><ele>1117.6666666666665</ele><time>2026-03-24T12:51:15.961Z</time></trkpt><trkpt lat="41.969465" lon="13.7355405"><ele>1118.3333333333333</ele><time>2026-03-24T12:51:17.96Z</time></trkpt><trkpt lat="41.9695316" lon="13.735479"><ele>1119.0</ele><time>2026-03-24T12:51:19.961Z</time></trkpt><trkpt lat="41.9695938" lon="13.735459"><ele>1119.6666666666667</ele><time>2026-03-24T12:51:22.961Z</time></trkpt><trkpt lat="41.9696506" lon="13.7355506"><ele>1120.3333333333335</ele><time>2026-03-24T12:51:24.96Z</time></trkpt><trkpt lat="41.9697059" lon="13.735692"><ele>1121.0</ele><time>2026-03-24T12:51:26.96Z</time></trkpt><trkpt lat="41.9697409" lon="13.7357816"><ele>1121.0</ele><time>2026-03-24T12:51:27.961Z</time></trkpt><trkpt lat="41.9697782" lon="13.7358715"><ele>1121.0</ele><time>2026-03-24T12:51:28.96Z</time></trkpt><trkpt lat="41.9698273" lon="13.7359937"><ele>1121.0</ele><time>2026-03-24T12:51:30.961Z</time></trkpt><trkpt lat="41.9698887" lon="13.7360817"><ele>1121.0</ele><time>2026-03-24T12:51:33.96Z</time></trkpt><trkpt lat="41.9699697" lon="13.7360975"><ele>1121.0</ele><time>2026-03-24T12:51:35.96Z</time></trkpt><trkpt lat="41.9700318" lon="13.7360718"><ele>1121.0</ele><time>2026-03-24T12:51:36.961Z</time></trkpt><trkpt lat="41.970093" lon="13.7360378"><ele>1119.6666666666667</ele><time>2026-03-24T12:51:37.96Z</time></trkpt><trkpt lat="41.9701643" lon="13.7360062"><ele>1118.3333333333335</ele><time>2026-03-24T12:51:38.96Z</time></trkpt><trkpt lat="41.9702314" lon="13.7359781"><ele>1117.0</ele><time>2026-03-24T12:51:39.961Z</time></trkpt><trkpt lat="41.9703053" lon="13.7359572"><ele>1115.6666666666667</ele><time>2026-03-24T12:51:40.961Z</time></trkpt><trkpt lat="41.9703678" lon="13.735933"><ele>1114.3333333333333</ele><time>2026-03-24T12:51:41.96Z</time></trkpt><trkpt lat="41.9704326" lon="13.7359084"><ele>1113.0</ele><time>2026-03-24T12:51:42.96Z</time></trkpt><trkpt lat="41.9705583" lon="13.7358872"><ele>1113.0</ele><time>2026-03-24T12:51:44.96Z</time></trkpt><trkpt lat="41.9706839" lon="13.7358845"><ele>1113.0</ele><time>2026-03-24T12:51:46.96Z</time></trkpt><trkpt lat="41.9707562" lon="13.7358925"><ele>1113.0</ele><time>2026-03-24T12:51:47.96Z</time></trkpt><trkpt lat="41.9708289" lon="13.7359168"><ele>1113.0</ele><time>2026-03-24T12:51:48.961Z</time></trkpt><trkpt lat="41.9709009" lon="13.7359377"><ele>1113.0</ele><time>2026-03-24T12:51:49.96Z</time></trkpt><trkpt lat="41.9709731" lon="13.7359659"><ele>1113.0</ele><time>2026-03-24T12:51:50.96Z</time></trkpt><trkpt lat="41.9710391" lon="13.7359947"><ele>1110.0</ele><time>2026-03-24T12:51:51.96Z</time></trkpt><trkpt lat="41.9711003" lon="13.7361057"><ele>1107.0</ele><time>2026-03-24T12:51:53.96Z</time></trkpt><trkpt lat="41.9710899" lon="13.7362779"><ele>1104.0</ele><time>2026-03-24T12:51:55.96Z</time></trkpt><trkpt lat="41.9710961" lon="13.7363809"><ele>1101.0</ele><time>2026-03-24T12:51:56.96Z</time></trkpt><trkpt lat="41.9711198" lon="13.7364811"><ele>1098.0</ele><time>2026-03-24T12:51:57.96Z</time></trkpt><trkpt lat="41.971158" lon="13.7365761"><ele>1098.0</ele><time>2026-03-24T12:51:58.96Z</time></trkpt><trkpt lat="41.9712184" lon="13.7366752"><ele>1098.0</ele><time>2026-03-24T12:51:59.96Z</time></trkpt><trkpt lat="41.9712907" lon="13.7367686"><ele>1098.0</ele><time>2026-03-24T12:52:00.96Z</time></trkpt><trkpt lat="41.9713622" lon="13.7368524"><ele>1098.0</ele><time>2026-03-24T12:52:01.96Z</time></trkpt><trkpt lat="41.9714303" lon="13.7369222"><ele>1098.0</ele><time>2026-03-24T12:52:02.961Z</time></trkpt><trkpt lat="41.9715088" lon="13.7369987"><ele>1098.8</ele><time>2026-03-24T12:52:03.961Z</time></trkpt><trkpt lat="41.9715809" lon="13.7370779"><ele>1099.6</ele><time>2026-03-24T12:52:04.961Z</time></trkpt><trkpt lat="41.9716452" lon="13.7371612"><ele>1100.4</ele><time>2026-03-24T12:52:05.96Z</time></trkpt><trkpt lat="41.9717125" lon="13.7372407"><ele>1101.2</ele><time>2026-03-24T12:52:06.96Z</time></trkpt><trkpt lat="41.9717887" lon="13.7373087"><ele>1102.0</ele><time>2026-03-24T12:52:07.96Z</time></trkpt><trkpt lat="41.9718681" lon="13.7373596"><ele>1102.0</ele><time>2026-03-24T12:52:08.96Z</time></trkpt><trkpt lat="41.9719553" lon="13.7373918"><ele>1102.0</ele><time>2026-03-24T12:52:09.96Z</time></trkpt><trkpt lat="41.9720556" lon="13.7374073"><ele>1102.0</ele><time>2026-03-24T12:52:10.96Z</time></trkpt><trkpt lat="41.9721627" lon="13.7374167"><ele>1102.0</ele><time>2026-03-24T12:52:11.96Z</time></trkpt><trkpt lat="41.9722731" lon="13.7374078"><ele>1102.0</ele><time>2026-03-24T12:52:12.96Z</time></trkpt><trkpt lat="41.9723874" lon="13.7373799"><ele>1102.0</ele><time>2026-03-24T12:52:13.96Z</time></trkpt><trkpt lat="41.9725028" lon="13.7373348"><ele>1102.0</ele><time>2026-03-24T12:52:14.96Z</time></trkpt><trkpt lat="41.9726144" lon="13.7372779"><ele>1102.0</ele><time>2026-03-24T12:52:15.96Z</time></trkpt><trkpt lat="41.9727273" lon="13.7372173"><ele>1102.0</ele><time>2026-03-24T12:52:16.961Z</time></trkpt><trkpt lat="41.9728429" lon="13.7371581"><ele>1101.25</ele><time>2026-03-24T12:52:17.96Z</time></trkpt><trkpt lat="41.9729519" lon="13.7370873"><ele>1100.5</ele><time>2026-03-24T12:52:18.961Z</time></trkpt><trkpt lat="41.9730575" lon="13.7370094"><ele>1099.75</ele><time>2026-03-24T12:52:19.961Z</time></trkpt><trkpt lat="41.9731684" lon="13.7369288"><ele>1099.0</ele><time>2026-03-24T12:52:20.961Z</time></trkpt><trkpt lat="41.9732784" lon="13.7368484"><ele>1095.0</ele><time>2026-03-24T12:52:21.96Z</time></trkpt><trkpt lat="41.9733963" lon="13.7367744"><ele>1091.0</ele><time>2026-03-24T12:52:22.961Z</time></trkpt><trkpt lat="41.973528" lon="13.7367068"><ele>1087.0</ele><time>2026-03-24T12:52:23.961Z</time></trkpt><trkpt lat="41.9736681" lon="13.7366445"><ele>1083.0</ele><time>2026-03-24T12:52:24.961Z</time></trkpt><trkpt lat="41.9738147" lon="13.7365829"><ele>1083.0</ele><time>2026-03-24T12:52:25.96Z</time></trkpt><trkpt lat="41.9739712" lon="13.7365194"><ele>1083.0</ele><time>2026-03-24T12:52:26.961Z</time></trkpt><trkpt lat="41.9741269" lon="13.7364527"><ele>1083.0</ele><time>2026-03-24T12:52:27.961Z</time></trkpt><trkpt lat="41.9742746" lon="13.7363832"><ele>1084.0</ele><time>2026-03-24T12:52:28.96Z</time></trkpt><trkpt lat="41.9744161" lon="13.7363084"><ele>1085.0</ele><time>2026-03-24T12:52:29.96Z</time></trkpt><trkpt lat="41.9745517" lon="13.7362299"><ele>1086.0</ele><time>2026-03-24T12:52:30.961Z</time></trkpt><trkpt lat="41.9746815" lon="13.7361529"><ele>1087.0</ele><time>2026-03-24T12:52:31.961Z</time></trkpt><trkpt lat="41.9748062" lon="13.7360821"><ele>1085.6</ele><time>2026-03-24T12:52:32.96Z</time></trkpt><trkpt lat="41.9749176" lon="13.736014"><ele>1084.2</ele><time>2026-03-24T12:52:33.96Z</time></trkpt><trkpt lat="41.9750151" lon="13.7359471"><ele>1082.8</ele><time>2026-03-24T12:52:34.96Z</time></trkpt><trkpt lat="41.9750987" lon="13.7358766"><ele>1081.4</ele><time>2026-03-24T12:52:35.96Z</time></trkpt><trkpt lat="41.9751631" lon="13.7357836"><ele>1080.0</ele><time>2026-03-24T12:52:36.961Z</time></trkpt><trkpt lat="41.9752121" lon="13.7356773"><ele>1080.0</ele><time>2026-03-24T12:52:37.96Z</time></trkpt><trkpt lat="41.9752479" lon="13.7355668"><ele>1080.0</ele><time>2026-03-24T12:52:38.96Z</time></trkpt><trkpt lat="41.9752706" lon="13.7354685"><ele>1080.0</ele><time>2026-03-24T12:52:39.961Z</time></trkpt><trkpt lat="41.9752961" lon="13.7353853"><ele>1080.0</ele><time>2026-03-24T12:52:40.96Z</time></trkpt><trkpt lat="41.9753834" lon="13.7352814"><ele>1080.0</ele><time>2026-03-24T12:52:42.96Z</time></trkpt><trkpt lat="41.9754516" lon="13.7352696"><ele>1080.0</ele><time>2026-03-24T12:52:43.961Z</time></trkpt><trkpt lat="41.9755442" lon="13.735279"><ele>1080.0</ele><time>2026-03-24T12:52:44.961Z</time></trkpt><trkpt lat="41.9756574" lon="13.7353073"><ele>1080.0</ele><time>2026-03-24T12:52:45.96Z</time></trkpt><trkpt lat="41.9757896" lon="13.7353435"><ele>1080.0</ele><time>2026-03-24T12:52:46.961Z</time></trkpt><trkpt lat="41.9759318" lon="13.7353778"><ele>1080.0</ele><time>2026-03-24T12:52:47.96Z</time></trkpt><trkpt lat="41.9760741" lon="13.7354053"><ele>1076.25</ele><time>2026-03-24T12:52:48.961Z</time></trkpt><trkpt lat="41.9762135" lon="13.7354342"><ele>1072.5</ele><time>2026-03-24T12:52:49.96Z</time></trkpt><trkpt lat="41.9763456" lon="13.7354805"><ele>1068.75</ele><time>2026-03-24T12:52:50.961Z</time></trkpt><trkpt lat="41.9764796" lon="13.7355518"><ele>1065.0</ele><time>2026-03-24T12:52:51.96Z</time></trkpt><trkpt lat="41.9766232" lon="13.7356257"><ele>1058.6666666666667</ele><time>2026-03-24T12:52:52.96Z</time></trkpt><trkpt lat="41.9767776" lon="13.7356833"><ele>1052.3333333333335</ele><time>2026-03-24T12:52:53.96Z</time></trkpt><trkpt lat="41.9769391" lon="13.7357431"><ele>1046.0</ele><time>2026-03-24T12:52:54.961Z</time></trkpt><trkpt lat="41.9771078" lon="13.7358096"><ele>1046.0</ele><time>2026-03-24T12:52:55.961Z</time></trkpt><trkpt lat="41.9772615" lon="13.7358867"><ele>1046.0</ele><time>2026-03-24T12:52:56.961Z</time></trkpt><trkpt lat="41.9774123" lon="13.7359699"><ele>1046.0</ele><time>2026-03-24T12:52:57.96Z</time></trkpt><trkpt lat="41.9775593" lon="13.7360379"><ele>1049.0</ele><time>2026-03-24T12:52:58.96Z</time></trkpt><trkpt lat="41.9777106" lon="13.7360944"><ele>1052.0</ele><time>2026-03-24T12:52:59.961Z</time></trkpt><trkpt lat="41.977865" lon="13.7361439"><ele>1055.0</ele><time>2026-03-24T12:53:00.96Z</time></trkpt><trkpt lat="41.9780116" lon="13.7361993"><ele>1055.0</ele><time>2026-03-24T12:53:01.961Z</time></trkpt><trkpt lat="41.9781493" lon="13.7362684"><ele>1055.0</ele><time>2026-03-24T12:53:02.96Z</time></trkpt><trkpt lat="41.9782782" lon="13.7363489"><ele>1055.0</ele><time>2026-03-24T12:53:03.96Z</time></trkpt><trkpt lat="41.9783977" lon="13.7364339"><ele>1055.0</ele><time>2026-03-24T12:53:04.961Z</time></trkpt><trkpt lat="41.9785045" lon="13.736529"><ele>1049.75</ele><time>2026-03-24T12:53:05.96Z</time></trkpt><trkpt lat="41.9786099" lon="13.7366217"><ele>1044.5</ele><time>2026-03-24T12:53:06.96Z</time></trkpt><trkpt lat="41.9787229" lon="13.73671"><ele>1039.25</ele><time>2026-03-24T12:53:07.961Z</time></trkpt><trkpt lat="41.9788485" lon="13.7367842"><ele>1034.0</ele><time>2026-03-24T12:53:08.96Z</time></trkpt><trkpt lat="41.9789869" lon="13.7368367"><ele>1034.0</ele><time>2026-03-24T12:53:09.96Z</time></trkpt><trkpt lat="41.9791315" lon="13.736873"><ele>1034.0</ele><time>2026-03-24T12:53:10.96Z</time></trkpt><trkpt lat="41.9792793" lon="13.7369036"><ele>1034.0</ele><time>2026-03-24T12:53:11.961Z</time></trkpt><trkpt lat="41.9794186" lon="13.7369468"><ele>1034.0</ele><time>2026-03-24T12:53:12.961Z</time></trkpt><trkpt lat="41.9795505" lon="13.7369913"><ele>1033.0</ele><time>2026-03-24T12:53:13.961Z</time></trkpt><trkpt lat="41.979658" lon="13.7370317"><ele>1032.0</ele><time>2026-03-24T12:53:14.96Z</time></trkpt><trkpt lat="41.9797513" lon="13.7370722"><ele>1031.0</ele><time>2026-03-24T12:53:15.96Z</time></trkpt><trkpt lat="41.9798236" lon="13.7371168"><ele>1030.0</ele><time>2026-03-24T12:53:16.96Z</time></trkpt><trkpt lat="41.9798826" lon="13.7371688"><ele>1029.0</ele><time>2026-03-24T12:53:17.961Z</time></trkpt><trkpt lat="41.97993" lon="13.7372402"><ele>1028.0</ele><time>2026-03-24T12:53:18.96Z</time></trkpt><trkpt lat="41.9799613" lon="13.7373299"><ele>1028.0</ele><time>2026-03-24T12:53:19.96Z</time></trkpt><trkpt lat="41.9799788" lon="13.7374316"><ele>1028.0</ele><time>2026-03-24T12:53:20.96Z</time></trkpt><trkpt lat="41.9799867" lon="13.7375371"><ele>1028.0</ele><time>2026-03-24T12:53:21.961Z</time></trkpt><trkpt lat="41.9799856" lon="13.7376417"><ele>1028.0</ele><time>2026-03-24T12:53:22.961Z</time></trkpt><trkpt lat="41.9799948" lon="13.7377337"><ele>1028.0</ele><time>2026-03-24T12:53:23.96Z</time></trkpt><trkpt lat="41.9800628" lon="13.7378528"><ele>1028.0</ele><time>2026-03-24T12:53:25.96Z</time></trkpt><trkpt lat="41.9801561" lon="13.7378207"><ele>1024.2</ele><time>2026-03-24T12:53:27.96Z</time></trkpt><trkpt lat="41.9801948" lon="13.7376343"><ele>1020.4</ele><time>2026-03-24T12:53:29.961Z</time></trkpt><trkpt lat="41.9802053" lon="13.7375065"><ele>1016.6000000000001</ele><time>2026-03-24T12:53:30.96Z</time></trkpt><trkpt lat="41.9802444" lon="13.7373813"><ele>1012.8000000000001</ele><time>2026-03-24T12:53:31.961Z</time></trkpt><trkpt lat="41.9803132" lon="13.7372721"><ele>1009.0</ele><time>2026-03-24T12:53:32.96Z</time></trkpt><trkpt lat="41.9804034" lon="13.7371735"><ele>1009.0</ele><time>2026-03-24T12:53:33.96Z</time></trkpt><trkpt lat="41.9805157" lon="13.7370955"><ele>1009.0</ele><time>2026-03-24T12:53:34.961Z</time></trkpt><trkpt lat="41.9806325" lon="13.7370408"><ele>1009.0</ele><time>2026-03-24T12:53:35.96Z</time></trkpt><trkpt lat="41.9807523" lon="13.7370096"><ele>1009.0</ele><time>2026-03-24T12:53:36.96Z</time></trkpt><trkpt lat="41.9808569" lon="13.7369922"><ele>1007.1666666666666</ele><time>2026-03-24T12:53:37.96Z</time></trkpt><trkpt lat="41.9809465" lon="13.7369618"><ele>1005.3333333333333</ele><time>2026-03-24T12:53:38.96Z</time></trkpt><trkpt lat="41.9810204" lon="13.7369141"><ele>1003.5</ele><time>2026-03-24T12:53:39.96Z</time></trkpt><trkpt lat="41.981082" lon="13.7368719"><ele>1001.6666666666667</ele><time>2026-03-24T12:53:40.96Z</time></trkpt><trkpt lat="41.9811751" lon="13.7368668"><ele>999.8333333333334</ele><time>2026-03-24T12:53:42.96Z</time></trkpt><trkpt lat="41.9812009" lon="13.7369635"><ele>998.0</ele><time>2026-03-24T12:53:44.96Z</time></trkpt><trkpt lat="41.9811025" lon="13.7370636"><ele>997.4</ele><time>2026-03-24T12:53:46.96Z</time></trkpt><trkpt lat="41.9810227" lon="13.737134"><ele>996.8</ele><time>2026-03-24T12:53:47.96Z</time></trkpt><trkpt lat="41.9809378" lon="13.7372288"><ele>996.2</ele><time>2026-03-24T12:53:48.96Z</time></trkpt><trkpt lat="41.9808584" lon="13.7373331"><ele>995.6</ele><time>2026-03-24T12:53:49.96Z</time></trkpt><trkpt lat="41.9807941" lon="13.7374358"><ele>995.0</ele><time>2026-03-24T12:53:50.96Z</time></trkpt><trkpt lat="41.9807505" lon="13.7375393"><ele>995.0000000000001</ele><time>2026-03-24T12:53:51.96Z</time></trkpt><trkpt lat="41.980723" lon="13.7376377"><ele>995.0</ele><time>2026-03-24T12:53:52.961Z</time></trkpt><trkpt lat="41.9807183" lon="13.7377283"><ele>995.0</ele><time>2026-03-24T12:53:53.96Z</time></trkpt><trkpt lat="41.9807788" lon="13.7378517"><ele>995.0</ele><time>2026-03-24T12:53:55.96Z</time></trkpt><trkpt lat="41.9808801" lon="13.7378269"><ele>995.0000000000001</ele><time>2026-03-24T12:53:57.96Z</time></trkpt><trkpt lat="41.9809212" lon="13.7377522"><ele>995.0</ele><time>2026-03-24T12:53:58.961Z</time></trkpt><trkpt lat="41.9809732" lon="13.7376605"><ele>995.0</ele><time>2026-03-24T12:53:59.96Z</time></trkpt><trkpt lat="41.9810679" lon="13.7375702"><ele>995.0</ele><time>2026-03-24T12:54:00.96Z</time></trkpt><trkpt lat="41.981179" lon="13.7375062"><ele>995.0</ele><time>2026-03-24T12:54:01.961Z</time></trkpt><trkpt lat="41.9813133" lon="13.7374379"><ele>995.0</ele><time>2026-03-24T12:54:02.96Z</time></trkpt><trkpt lat="41.9814566" lon="13.7373825"><ele>995.0</ele><time>2026-03-24T12:54:03.96Z</time></trkpt><trkpt lat="41.9815889" lon="13.7373294"><ele>995.0</ele><time>2026-03-24T12:54:04.961Z</time></trkpt><trkpt lat="41.9817175" lon="13.7372771"><ele>995.0</ele><time>2026-03-24T12:54:05.96Z</time></trkpt><trkpt lat="41.9818328" lon="13.7372149"><ele>995.0</ele><time>2026-03-24T12:54:06.96Z</time></trkpt><trkpt lat="41.9819382" lon="13.7371345"><ele>992.6</ele><time>2026-03-24T12:54:07.961Z</time></trkpt><trkpt lat="41.9820301" lon="13.7370313"><ele>990.2</ele><time>2026-03-24T12:54:08.961Z</time></trkpt><trkpt lat="41.9821057" lon="13.7369225"><ele>987.8</ele><time>2026-03-24T12:54:09.961Z</time></trkpt><trkpt lat="41.9821675" lon="13.7368072"><ele>985.4</ele><time>2026-03-24T12:54:10.96Z</time></trkpt><trkpt lat="41.9822166" lon="13.7367016"><ele>983.0</ele><time>2026-03-24T12:54:11.961Z</time></trkpt><trkpt lat="41.9822613" lon="13.7366163"><ele>983.0</ele><time>2026-03-24T12:54:12.961Z</time></trkpt><trkpt lat="41.9823143" lon="13.7365667"><ele>983.0</ele><time>2026-03-24T12:54:13.96Z</time></trkpt><trkpt lat="41.9823962" lon="13.7366066"><ele>983.0</ele><time>2026-03-24T12:54:15.96Z</time></trkpt><trkpt lat="41.9823989" lon="13.7367408"><ele>983.0</ele><time>2026-03-24T12:54:17.96Z</time></trkpt><trkpt lat="41.9823354" lon="13.7368732"><ele>983.0</ele><time>2026-03-24T12:54:18.96Z</time></trkpt><trkpt lat="41.9822825" lon="13.7370004"><ele>983.0</ele><time>2026-03-24T12:54:19.96Z</time></trkpt><trkpt lat="41.9822466" lon="13.7371517"><ele>983.0</ele><time>2026-03-24T12:54:20.96Z</time></trkpt><trkpt lat="41.9822349" lon="13.7372913"><ele>983.0</ele><time>2026-03-24T12:54:21.96Z</time></trkpt><trkpt lat="41.9822449" lon="13.7374201"><ele>983.0</ele><time>2026-03-24T12:54:22.96Z</time></trkpt><trkpt lat="41.9822683" lon="13.7375329"><ele>983.0</ele><time>2026-03-24T12:54:23.96Z</time></trkpt><trkpt lat="41.9823083" lon="13.7376287"><ele>983.0000000000001</ele><time>2026-03-24T12:54:24.96Z</time></trkpt><trkpt lat="41.9823612" lon="13.7377077"><ele>983.0</ele><time>2026-03-24T12:54:25.961Z</time></trkpt><trkpt lat="41.9824256" lon="13.737751"><ele>983.0</ele><time>2026-03-24T12:54:26.96Z</time></trkpt><trkpt lat="41.9824997" lon="13.7377642"><ele>983.0</ele><time>2026-03-24T12:54:27.961Z</time></trkpt><trkpt lat="41.9825707" lon="13.737732"><ele>983.0000000000001</ele><time>2026-03-24T12:54:28.961Z</time></trkpt><trkpt lat="41.9826229" lon="13.7376585"><ele>983.0</ele><time>2026-03-24T12:54:29.96Z</time></trkpt><trkpt lat="41.9826473" lon="13.7375477"><ele>982.3333333333334</ele><time>2026-03-24T12:54:30.961Z</time></trkpt><trkpt lat="41.9826509" lon="13.7374116"><ele>981.6666666666667</ele><time>2026-03-24T12:54:31.96Z</time></trkpt><trkpt lat="41.9826449" lon="13.7372727"><ele>981.0</ele><time>2026-03-24T12:54:32.96Z</time></trkpt><trkpt lat="41.9826412" lon="13.7371471"><ele>980.3333333333333</ele><time>2026-03-24T12:54:33.961Z</time></trkpt><trkpt lat="41.9826396" lon="13.7370445"><ele>979.6666666666666</ele><time>2026-03-24T12:54:34.96Z</time></trkpt><trkpt lat="41.9826409" lon="13.7369577"><ele>979.0</ele><time>2026-03-24T12:54:35.96Z</time></trkpt><trkpt lat="41.9826952" lon="13.7368468"><ele>979.0</ele><time>2026-03-24T12:54:37.961Z</time></trkpt><trkpt lat="41.9828007" lon="13.7369011"><ele>979.0000000000001</ele><time>2026-03-24T12:54:39.96Z</time></trkpt><trkpt lat="41.9828612" lon="13.7369921"><ele>979.0000000000001</ele><time>2026-03-24T12:54:40.961Z</time></trkpt><trkpt lat="41.9829251" lon="13.7371107"><ele>979.0</ele><time>2026-03-24T12:54:41.961Z</time></trkpt><trkpt lat="41.9829973" lon="13.7372434"><ele>979.0</ele><time>2026-03-24T12:54:42.96Z</time></trkpt><trkpt lat="41.9830764" lon="13.7373872"><ele>979.0</ele><time>2026-03-24T12:54:43.96Z</time></trkpt><trkpt lat="41.9831563" lon="13.7375365"><ele>979.0</ele><time>2026-03-24T12:54:44.96Z</time></trkpt><trkpt lat="41.9832309" lon="13.7376794"><ele>979.0</ele><time>2026-03-24T12:54:45.961Z</time></trkpt><trkpt lat="41.983308" lon="13.7378115"><ele>979.0</ele><time>2026-03-24T12:54:46.96Z</time></trkpt><trkpt lat="41.9833932" lon="13.7379218"><ele>976.6666666666666</ele><time>2026-03-24T12:54:47.96Z</time></trkpt><trkpt lat="41.9834803" lon="13.7379918"><ele>974.3333333333333</ele><time>2026-03-24T12:54:48.96Z</time></trkpt><trkpt lat="41.9835508" lon="13.7380314"><ele>972.0</ele><time>2026-03-24T12:54:49.96Z</time></trkpt><trkpt lat="41.9836049" lon="13.7380755"><ele>969.6666666666667</ele><time>2026-03-24T12:54:50.96Z</time></trkpt><trkpt lat="41.9836615" lon="13.7381724"><ele>967.3333333333334</ele><time>2026-03-24T12:54:52.96Z</time></trkpt><trkpt lat="41.9836078" lon="13.7382486"><ele>965.0</ele><time>2026-03-24T12:54:54.961Z</time></trkpt><trkpt lat="41.9834541" lon="13.7382333"><ele>965.25</ele><time>2026-03-24T12:54:56.96Z</time></trkpt><trkpt lat="41.9833368" lon="13.7382035"><ele>965.5</ele><time>2026-03-24T12:54:57.961Z</time></trkpt><trkpt lat="41.9832043" lon="13.7381712"><ele>965.75</ele><time>2026-03-24T12:54:58.961Z</time></trkpt><trkpt lat="41.9830669" lon="13.7381544"><ele>966.0</ele><time>2026-03-24T12:54:59.961Z</time></trkpt><trkpt lat="41.9829301" lon="13.7381557"><ele>966.0</ele><time>2026-03-24T12:55:00.961Z</time></trkpt><trkpt lat="41.9827861" lon="13.7381816"><ele>966.0</ele><time>2026-03-24T12:55:01.961Z</time></trkpt><trkpt lat="41.9826281" lon="13.738237"><ele>966.0</ele><time>2026-03-24T12:55:02.96Z</time></trkpt><trkpt lat="41.9824611" lon="13.738306"><ele>965.0</ele><time>2026-03-24T12:55:03.961Z</time></trkpt><trkpt lat="41.9822764" lon="13.738381"><ele>964.0</ele><time>2026-03-24T12:55:04.96Z</time></trkpt><trkpt lat="41.9820864" lon="13.7384531"><ele>963.0</ele><time>2026-03-24T12:55:05.961Z</time></trkpt><trkpt lat="41.9818946" lon="13.738543"><ele>958.0</ele><time>2026-03-24T12:55:06.96Z</time></trkpt><trkpt lat="41.9817085" lon="13.7386434"><ele>953.0</ele><time>2026-03-24T12:55:07.96Z</time></trkpt><trkpt lat="41.981532" lon="13.7387427"><ele>948.0</ele><time>2026-03-24T12:55:08.96Z</time></trkpt><trkpt lat="41.9813663" lon="13.7388393"><ele>948.0</ele><time>2026-03-24T12:55:09.961Z</time></trkpt><trkpt lat="41.9812058" lon="13.7389202"><ele>948.0</ele><time>2026-03-24T12:55:10.96Z</time></trkpt><trkpt lat="41.981052" lon="13.7390001"><ele>948.0</ele><time>2026-03-24T12:55:11.96Z</time></trkpt><trkpt lat="41.9809103" lon="13.7390872"><ele>946.25</ele><time>2026-03-24T12:55:12.96Z</time></trkpt><trkpt lat="41.9807848" lon="13.739197"><ele>944.5</ele><time>2026-03-24T12:55:13.96Z</time></trkpt><trkpt lat="41.980667" lon="13.73931"><ele>942.75</ele><time>2026-03-24T12:55:14.96Z</time></trkpt><trkpt lat="41.9805545" lon="13.7394161"><ele>941.0</ele><time>2026-03-24T12:55:15.96Z</time></trkpt><trkpt lat="41.9804384" lon="13.7394989"><ele>941.0</ele><time>2026-03-24T12:55:16.961Z</time></trkpt><trkpt lat="41.98032" lon="13.739562"><ele>941.0</ele><time>2026-03-24T12:55:17.961Z</time></trkpt><trkpt lat="41.9802025" lon="13.7396141"><ele>941.0</ele><time>2026-03-24T12:55:18.96Z</time></trkpt><trkpt lat="41.9800906" lon="13.7396628"><ele>941.0</ele><time>2026-03-24T12:55:19.96Z</time></trkpt><trkpt lat="41.9799831" lon="13.7397156"><ele>941.8</ele><time>2026-03-24T12:55:20.96Z</time></trkpt><trkpt lat="41.9798819" lon="13.7397832"><ele>942.5999999999999</ele><time>2026-03-24T12:55:21.96Z</time></trkpt><trkpt lat="41.979791" lon="13.7398626"><ele>943.4</ele><time>2026-03-24T12:55:22.96Z</time></trkpt><trkpt lat="41.9797014" lon="13.7399543"><ele>944.2</ele><time>2026-03-24T12:55:23.96Z</time></trkpt><trkpt lat="41.9796104" lon="13.7400455"><ele>945.0</ele><time>2026-03-24T12:55:24.96Z</time></trkpt><trkpt lat="41.9795169" lon="13.7401359"><ele>945.0</ele><time>2026-03-24T12:55:25.961Z</time></trkpt><trkpt lat="41.9794238" lon="13.7402109"><ele>945.0</ele><time>2026-03-24T12:55:26.961Z</time></trkpt><trkpt lat="41.9793297" lon="13.7402803"><ele>945.0</ele><time>2026-03-24T12:55:27.96Z</time></trkpt><trkpt lat="41.9792378" lon="13.740334"><ele>945.0</ele><time>2026-03-24T12:55:28.961Z</time></trkpt><trkpt lat="41.9791434" lon="13.7403718"><ele>945.0</ele><time>2026-03-24T12:55:29.961Z</time></trkpt><trkpt lat="41.9790676" lon="13.7403986"><ele>943.4</ele><time>2026-03-24T12:55:30.961Z</time></trkpt><trkpt lat="41.9789985" lon="13.7404225"><ele>941.8</ele><time>2026-03-24T12:55:31.96Z</time></trkpt><trkpt lat="41.9789302" lon="13.7405362"><ele>940.2</ele><time>2026-03-24T12:55:33.96Z</time></trkpt><trkpt lat="41.9789734" lon="13.7406519"><ele>938.6</ele><time>2026-03-24T12:55:35.96Z</time></trkpt><trkpt lat="41.9791068" lon="13.7406754"><ele>937.0</ele><time>2026-03-24T12:55:37.961Z</time></trkpt><trkpt lat="41.9791978" lon="13.7406489"><ele>935.5</ele><time>2026-03-24T12:55:38.96Z</time></trkpt><trkpt lat="41.9793032" lon="13.7406062"><ele>934.0</ele><time>2026-03-24T12:55:39.961Z</time></trkpt><trkpt lat="41.9794185" lon="13.7405541"><ele>932.5</ele><time>2026-03-24T12:55:40.96Z</time></trkpt><trkpt lat="41.9795439" lon="13.7405061"><ele>931.0</ele><time>2026-03-24T12:55:41.96Z</time></trkpt><trkpt lat="41.9796796" lon="13.7404719"><ele>931.0</ele><time>2026-03-24T12:55:42.961Z</time></trkpt><trkpt lat="41.9798197" lon="13.7404467"><ele>931.0</ele><time>2026-03-24T12:55:43.96Z</time></trkpt><trkpt lat="41.9799675" lon="13.7404187"><ele>931.0</ele><time>2026-03-24T12:55:44.96Z</time></trkpt><trkpt lat="41.9801279" lon="13.7403998"><ele>929.0</ele><time>2026-03-24T12:55:45.96Z</time></trkpt><trkpt lat="41.9802868" lon="13.7403776"><ele>927.0</ele><time>2026-03-24T12:55:46.96Z</time></trkpt><trkpt lat="41.9804404" lon="13.7403587"><ele>925.0</ele><time>2026-03-24T12:55:47.96Z</time></trkpt><trkpt lat="41.980584" lon="13.740341"><ele>925.0</ele><time>2026-03-24T12:55:48.961Z</time></trkpt><trkpt lat="41.9807232" lon="13.740336"><ele>925.0</ele><time>2026-03-24T12:55:49.961Z</time></trkpt><trkpt lat="41.9808547" lon="13.7403489"><ele>925.0</ele><time>2026-03-24T12:55:50.96Z</time></trkpt><trkpt lat="41.9809742" lon="13.7403844"><ele>925.0</ele><time>2026-03-24T12:55:51.96Z</time></trkpt><trkpt lat="41.9810876" lon="13.7404439"><ele>924.25</ele><time>2026-03-24T12:55:52.96Z</time></trkpt><trkpt lat="41.9811922" lon="13.740515"><ele>923.5</ele><time>2026-03-24T12:55:53.96Z</time></trkpt><trkpt lat="41.9812972" lon="13.7405829"><ele>922.75</ele><time>2026-03-24T12:55:54.96Z</time></trkpt><trkpt lat="41.9814111" lon="13.7406168"><ele>922.0</ele><time>2026-03-24T12:55:55.96Z</time></trkpt><trkpt lat="41.9815255" lon="13.7406185"><ele>922.0</ele><time>2026-03-24T12:55:56.961Z</time></trkpt><trkpt lat="41.9816473" lon="13.7405949"><ele>922.0</ele><time>2026-03-24T12:55:57.96Z</time></trkpt><trkpt lat="41.9817705" lon="13.7405499"><ele>922.0</ele><time>2026-03-24T12:55:58.96Z</time></trkpt><trkpt lat="41.9818999" lon="13.7404961"><ele>922.0</ele><time>2026-03-24T12:55:59.96Z</time></trkpt><trkpt lat="41.9820315" lon="13.7404324"><ele>922.0</ele><time>2026-03-24T12:56:00.96Z</time></trkpt><trkpt lat="41.982157" lon="13.7403604"><ele>922.0</ele><time>2026-03-24T12:56:01.961Z</time></trkpt><trkpt lat="41.9822587" lon="13.7403037"><ele>922.0</ele><time>2026-03-24T12:56:02.96Z</time></trkpt><trkpt lat="41.9823422" lon="13.7402636"><ele>922.0</ele><time>2026-03-24T12:56:03.96Z</time></trkpt><trkpt lat="41.9824233" lon="13.7402563"><ele>922.0</ele><time>2026-03-24T12:56:04.96Z</time></trkpt><trkpt lat="41.9824928" lon="13.7402817"><ele>921.3333333333333</ele><time>2026-03-24T12:56:05.96Z</time></trkpt><trkpt lat="41.9825685" lon="13.7403932"><ele>920.6666666666666</ele><time>2026-03-24T12:56:07.96Z</time></trkpt><trkpt lat="41.982596" lon="13.7404821"><ele>920.0</ele><time>2026-03-24T12:56:08.96Z</time></trkpt><trkpt lat="41.982626" lon="13.7405824"><ele>919.3333333333333</ele><time>2026-03-24T12:56:09.96Z</time></trkpt><trkpt lat="41.9826583" lon="13.740693"><ele>918.6666666666666</ele><time>2026-03-24T12:56:10.961Z</time></trkpt><trkpt lat="41.9826905" lon="13.7408099"><ele>918.0</ele><time>2026-03-24T12:56:11.96Z</time></trkpt><trkpt lat="41.9827186" lon="13.7409122"><ele>918.0</ele><time>2026-03-24T12:56:12.96Z</time></trkpt><trkpt lat="41.9827384" lon="13.7409929"><ele>918.0</ele><time>2026-03-24T12:56:13.96Z</time></trkpt><trkpt lat="41.982765" lon="13.7410781"><ele>918.0</ele><time>2026-03-24T12:56:15.96Z</time></trkpt><trkpt lat="41.9828495" lon="13.7411626"><ele>918.0</ele><time>2026-03-24T12:56:17.961Z</time></trkpt><trkpt lat="41.9829185" lon="13.7412034"><ele>918.0</ele><time>2026-03-24T12:56:18.961Z</time></trkpt><trkpt lat="41.9829972" lon="13.7412656"><ele>918.0</ele><time>2026-03-24T12:56:19.961Z</time></trkpt><trkpt lat="41.9830854" lon="13.7413491"><ele>918.25</ele><time>2026-03-24T12:56:20.961Z</time></trkpt><trkpt lat="41.9831788" lon="13.7414488"><ele>918.5</ele><time>2026-03-24T12:56:21.961Z</time></trkpt><trkpt lat="41.9832889" lon="13.7415538"><ele>918.75</ele><time>2026-03-24T12:56:22.961Z</time></trkpt><trkpt lat="41.9834155" lon="13.741655"><ele>919.0</ele><time>2026-03-24T12:56:23.96Z</time></trkpt><trkpt lat="41.9835522" lon="13.7417449"><ele>919.0</ele><time>2026-03-24T12:56:24.961Z</time></trkpt><trkpt lat="41.9837083" lon="13.7418202"><ele>919.0</ele><time>2026-03-24T12:56:25.96Z</time></trkpt><trkpt lat="41.9838735" lon="13.741885"><ele>919.0</ele><time>2026-03-24T12:56:26.96Z</time></trkpt><trkpt lat="41.9840501" lon="13.7419492"><ele>922.3333333333333</ele><time>2026-03-24T12:56:27.961Z</time></trkpt><trkpt lat="41.9842242" lon="13.7420169"><ele>925.6666666666667</ele><time>2026-03-24T12:56:28.96Z</time></trkpt><trkpt lat="41.9843841" lon="13.7420792"><ele>929.0</ele><time>2026-03-24T12:56:29.961Z</time></trkpt><trkpt lat="41.9845275" lon="13.7421204"><ele>929.0</ele><time>2026-03-24T12:56:30.96Z</time></trkpt><trkpt lat="41.9846567" lon="13.7421564"><ele>929.0</ele><time>2026-03-24T12:56:31.96Z</time></trkpt><trkpt lat="41.9847737" lon="13.7421464"><ele>929.0</ele><time>2026-03-24T12:56:32.96Z</time></trkpt><trkpt lat="41.9848873" lon="13.7420944"><ele>929.0</ele><time>2026-03-24T12:56:33.96Z</time></trkpt><trkpt lat="41.9849855" lon="13.7419984"><ele>925.75</ele><time>2026-03-24T12:56:34.961Z</time></trkpt><trkpt lat="41.9850816" lon="13.7418762"><ele>922.5</ele><time>2026-03-24T12:56:35.96Z</time></trkpt><trkpt lat="41.9852009" lon="13.7417747"><ele>919.25</ele><time>2026-03-24T12:56:36.96Z</time></trkpt><trkpt lat="41.9853339" lon="13.7416988"><ele>916.0</ele><time>2026-03-24T12:56:37.96Z</time></trkpt><trkpt lat="41.9854811" lon="13.7416562"><ele>916.0</ele><time>2026-03-24T12:56:38.96Z</time></trkpt><trkpt lat="41.9856391" lon="13.7416246"><ele>916.0</ele><time>2026-03-24T12:56:39.961Z</time></trkpt><trkpt lat="41.98582" lon="13.7416326"><ele>916.0</ele><time>2026-03-24T12:56:40.961Z</time></trkpt><trkpt lat="41.9859892" lon="13.7416153"><ele>918.0</ele><time>2026-03-24T12:56:41.96Z</time></trkpt><trkpt lat="41.986154" lon="13.7415963"><ele>920.0</ele><time>2026-03-24T12:56:42.961Z</time></trkpt><trkpt lat="41.9863211" lon="13.7415514"><ele>922.0</ele><time>2026-03-24T12:56:43.96Z</time></trkpt><trkpt lat="41.9864812" lon="13.7414626"><ele>922.0</ele><time>2026-03-24T12:56:44.96Z</time></trkpt><trkpt lat="41.9866346" lon="13.7413413"><ele>922.0</ele><time>2026-03-24T12:56:45.96Z</time></trkpt><trkpt lat="41.9867844" lon="13.7411945"><ele>922.0</ele><time>2026-03-24T12:56:46.961Z</time></trkpt><trkpt lat="41.986922" lon="13.7410284"><ele>923.6666666666666</ele><time>2026-03-24T12:56:47.96Z</time></trkpt><trkpt lat="41.9870524" lon="13.740863"><ele>925.3333333333333</ele><time>2026-03-24T12:56:48.961Z</time></trkpt><trkpt lat="41.9871824" lon="13.7407053"><ele>927.0</ele><time>2026-03-24T12:56:49.961Z</time></trkpt><trkpt lat="41.9873374" lon="13.7405927"><ele>927.0</ele><time>2026-03-24T12:56:50.96Z</time></trkpt><trkpt lat="41.9874885" lon="13.7404916"><ele>927.0</ele><time>2026-03-24T12:56:51.96Z</time></trkpt><trkpt lat="41.9876563" lon="13.7404269"><ele>927.0</ele><time>2026-03-24T12:56:52.961Z</time></trkpt><trkpt lat="41.9878365" lon="13.7403775"><ele>929.6666666666667</ele><time>2026-03-24T12:56:53.961Z</time></trkpt><trkpt lat="41.988028" lon="13.7403442"><ele>932.3333333333334</ele><time>2026-03-24T12:56:54.96Z</time></trkpt><trkpt lat="41.9882318" lon="13.740319"><ele>935.0</ele><time>2026-03-24T12:56:55.96Z</time></trkpt><trkpt lat="41.9884382" lon="13.7402878"><ele>936.0</ele><time>2026-03-24T12:56:56.961Z</time></trkpt><trkpt lat="41.9886316" lon="13.7402518"><ele>937.0</ele><time>2026-03-24T12:56:57.961Z</time></trkpt><trkpt lat="41.9888142" lon="13.7402123"><ele>938.0</ele><time>2026-03-24T12:56:58.961Z</time></trkpt><trkpt lat="41.988973" lon="13.740157"><ele>939.6666666666667</ele><time>2026-03-24T12:56:59.96Z</time></trkpt><trkpt lat="41.9891236" lon="13.7400649"><ele>941.3333333333333</ele><time>2026-03-24T12:57:00.961Z</time></trkpt><trkpt lat="41.9892561" lon="13.7399356"><ele>943.0</ele><time>2026-03-24T12:57:01.961Z</time></trkpt><trkpt lat="41.9893665" lon="13.7397615"><ele>943.0</ele><time>2026-03-24T12:57:02.96Z</time></trkpt><trkpt lat="41.9894744" lon="13.739564"><ele>943.0</ele><time>2026-03-24T12:57:03.961Z</time></trkpt><trkpt lat="41.989588" lon="13.7393568"><ele>943.0</ele><time>2026-03-24T12:57:04.96Z</time></trkpt><trkpt lat="41.9897073" lon="13.7391425"><ele>941.0</ele><time>2026-03-24T12:57:05.961Z</time></trkpt><trkpt lat="41.9898232" lon="13.7389175"><ele>939.0</ele><time>2026-03-24T12:57:06.961Z</time></trkpt><trkpt lat="41.9899287" lon="13.7386909"><ele>937.0</ele><time>2026-03-24T12:57:07.961Z</time></trkpt><trkpt lat="41.9900225" lon="13.7384806"><ele>937.0</ele><time>2026-03-24T12:57:08.96Z</time></trkpt><trkpt lat="41.9901179" lon="13.7382894"><ele>937.0</ele><time>2026-03-24T12:57:09.96Z</time></trkpt><trkpt lat="41.9902101" lon="13.7381639"><ele>937.0</ele><time>2026-03-24T12:57:10.961Z</time></trkpt><trkpt lat="41.9903326" lon="13.738065"><ele>937.0</ele><time>2026-03-24T12:57:11.96Z</time></trkpt><trkpt lat="41.9904607" lon="13.7380105"><ele>937.0</ele><time>2026-03-24T12:57:12.961Z</time></trkpt><trkpt lat="41.9905837" lon="13.738003"><ele>937.0</ele><time>2026-03-24T12:57:13.96Z</time></trkpt><trkpt lat="41.9906977" lon="13.7380232"><ele>937.0</ele><time>2026-03-24T12:57:14.96Z</time></trkpt><trkpt lat="41.9908134" lon="13.7380651"><ele>937.0</ele><time>2026-03-24T12:57:15.96Z</time></trkpt><trkpt lat="41.9909271" lon="13.7380512"><ele>939.0</ele><time>2026-03-24T12:57:16.96Z</time></trkpt><trkpt lat="41.9910326" lon="13.7379802"><ele>941.0</ele><time>2026-03-24T12:57:17.961Z</time></trkpt><trkpt lat="41.9911256" lon="13.7378727"><ele>943.0</ele><time>2026-03-24T12:57:18.96Z</time></trkpt><trkpt lat="41.9912137" lon="13.7377384"><ele>945.0</ele><time>2026-03-24T12:57:19.96Z</time></trkpt><trkpt lat="41.9913097" lon="13.7375925"><ele>945.0</ele><time>2026-03-24T12:57:20.96Z</time></trkpt><trkpt lat="41.9914109" lon="13.7374286"><ele>945.0</ele><time>2026-03-24T12:57:21.96Z</time></trkpt><trkpt lat="41.9915152" lon="13.7372508"><ele>945.0</ele><time>2026-03-24T12:57:22.96Z</time></trkpt><trkpt lat="41.9916234" lon="13.7370669"><ele>948.0</ele><time>2026-03-24T12:57:23.96Z</time></trkpt><trkpt lat="41.9917308" lon="13.7368797"><ele>951.0</ele><time>2026-03-24T12:57:24.961Z</time></trkpt><trkpt lat="41.9918395" lon="13.7366967"><ele>954.0</ele><time>2026-03-24T12:57:25.961Z</time></trkpt><trkpt lat="41.991941" lon="13.736499"><ele>954.0</ele><time>2026-03-24T12:57:26.96Z</time></trkpt><trkpt lat="41.9920546" lon="13.7363198"><ele>954.0</ele><time>2026-03-24T12:57:27.961Z</time></trkpt><trkpt lat="41.9921447" lon="13.736153"><ele>954.0</ele><time>2026-03-24T12:57:28.961Z</time></trkpt><trkpt lat="41.9922299" lon="13.735999"><ele>951.0</ele><time>2026-03-24T12:57:29.96Z</time></trkpt><trkpt lat="41.9923291" lon="13.7358673"><ele>948.0</ele><time>2026-03-24T12:57:30.96Z</time></trkpt><trkpt lat="41.9924315" lon="13.7357653"><ele>945.0</ele><time>2026-03-24T12:57:31.96Z</time></trkpt><trkpt lat="41.9925439" lon="13.7357049"><ele>942.0</ele><time>2026-03-24T12:57:32.96Z</time></trkpt><trkpt lat="41.9926589" lon="13.735666"><ele>942.0</ele><time>2026-03-24T12:57:33.961Z</time></trkpt><trkpt lat="41.9928119" lon="13.735732"><ele>942.0</ele><time>2026-03-24T12:57:34.961Z</time></trkpt><trkpt lat="41.9929615" lon="13.7357923"><ele>942.0</ele><time>2026-03-24T12:57:35.961Z</time></trkpt><trkpt lat="41.99312" lon="13.7358549"><ele>942.0</ele><time>2026-03-24T12:57:36.96Z</time></trkpt><trkpt lat="41.9932824" lon="13.7359079"><ele>942.0</ele><time>2026-03-24T12:57:37.961Z</time></trkpt><trkpt lat="41.9934407" lon="13.7359409"><ele>942.0</ele><time>2026-03-24T12:57:38.96Z</time></trkpt><trkpt lat="41.9935896" lon="13.735968"><ele>942.75</ele><time>2026-03-24T12:57:39.961Z</time></trkpt><trkpt lat="41.9937255" lon="13.7359801"><ele>943.5</ele><time>2026-03-24T12:57:40.96Z</time></trkpt><trkpt lat="41.9938553" lon="13.7359545"><ele>944.25</ele><time>2026-03-24T12:57:41.961Z</time></trkpt><trkpt lat="41.9939696" lon="13.7358819"><ele>945.0</ele><time>2026-03-24T12:57:42.96Z</time></trkpt><trkpt lat="41.9940663" lon="13.7357573"><ele>945.0</ele><time>2026-03-24T12:57:43.96Z</time></trkpt><trkpt lat="41.9941398" lon="13.7356159"><ele>945.0</ele><time>2026-03-24T12:57:44.96Z</time></trkpt><trkpt lat="41.9942007" lon="13.7354813"><ele>945.0</ele><time>2026-03-24T12:57:45.96Z</time></trkpt><trkpt lat="41.9942497" lon="13.7353546"><ele>945.0</ele><time>2026-03-24T12:57:46.96Z</time></trkpt><trkpt lat="41.9942907" lon="13.7352409"><ele>945.0</ele><time>2026-03-24T12:57:47.96Z</time></trkpt><trkpt lat="41.9943269" lon="13.7351312"><ele>947.75</ele><time>2026-03-24T12:57:48.961Z</time></trkpt><trkpt lat="41.9943614" lon="13.7350095"><ele>950.5</ele><time>2026-03-24T12:57:49.961Z</time></trkpt><trkpt lat="41.9944048" lon="13.7348678"><ele>953.25</ele><time>2026-03-24T12:57:50.96Z</time></trkpt><trkpt lat="41.9944567" lon="13.7347164"><ele>956.0</ele><time>2026-03-24T12:57:51.96Z</time></trkpt><trkpt lat="41.9945174" lon="13.7345566"><ele>956.0</ele><time>2026-03-24T12:57:52.96Z</time></trkpt><trkpt lat="41.9945904" lon="13.7343999"><ele>956.0</ele><time>2026-03-24T12:57:53.961Z</time></trkpt><trkpt lat="41.9946861" lon="13.7342634"><ele>956.0</ele><time>2026-03-24T12:57:54.96Z</time></trkpt><trkpt lat="41.9948032" lon="13.7341554"><ele>956.0</ele><time>2026-03-24T12:57:55.96Z</time></trkpt><trkpt lat="41.9949353" lon="13.7340888"><ele>954.0</ele><time>2026-03-24T12:57:56.96Z</time></trkpt><trkpt lat="41.9950794" lon="13.7340691"><ele>952.0</ele><time>2026-03-24T12:57:57.961Z</time></trkpt><trkpt lat="41.9952347" lon="13.7340887"><ele>950.0</ele><time>2026-03-24T12:57:58.96Z</time></trkpt><trkpt lat="41.9954016" lon="13.7341365"><ele>950.0</ele><time>2026-03-24T12:57:59.96Z</time></trkpt><trkpt lat="41.9955693" lon="13.7342049"><ele>950.0</ele><time>2026-03-24T12:58:00.96Z</time></trkpt><trkpt lat="41.9957313" lon="13.7342944"><ele>950.0</ele><time>2026-03-24T12:58:01.96Z</time></trkpt><trkpt lat="41.9958832" lon="13.7343862"><ele>953.0</ele><time>2026-03-24T12:58:02.96Z</time></trkpt><trkpt lat="41.9960251" lon="13.734465"><ele>956.0</ele><time>2026-03-24T12:58:03.96Z</time></trkpt><trkpt lat="41.9961602" lon="13.734524"><ele>959.0</ele><time>2026-03-24T12:58:04.96Z</time></trkpt><trkpt lat="41.996296" lon="13.7345395"><ele>962.0</ele><time>2026-03-24T12:58:05.96Z</time></trkpt><trkpt lat="41.9964254" lon="13.7345189"><ele>962.0</ele><time>2026-03-24T12:58:06.96Z</time></trkpt><trkpt lat="41.9965461" lon="13.7344485"><ele>962.0</ele><time>2026-03-24T12:58:07.96Z</time></trkpt><trkpt lat="41.9966345" lon="13.7343228"><ele>962.0</ele><time>2026-03-24T12:58:08.961Z</time></trkpt><trkpt lat="41.9967006" lon="13.734156"><ele>962.0</ele><time>2026-03-24T12:58:09.961Z</time></trkpt><trkpt lat="41.9967578" lon="13.7339773"><ele>961.5</ele><time>2026-03-24T12:58:10.96Z</time></trkpt><trkpt lat="41.9968156" lon="13.7338104"><ele>961.0</ele><time>2026-03-24T12:58:11.96Z</time></trkpt><trkpt lat="41.9968803" lon="13.7336529"><ele>960.5</ele><time>2026-03-24T12:58:12.96Z</time></trkpt><trkpt lat="41.9970035" lon="13.7336431"><ele>960.0</ele><time>2026-03-24T12:58:13.96Z</time></trkpt><trkpt lat="41.9971098" lon="13.733624"><ele>960.0</ele><time>2026-03-24T12:58:14.96Z</time></trkpt><trkpt lat="41.9972206" lon="13.733648"><ele>960.0</ele><time>2026-03-24T12:58:15.961Z</time></trkpt><trkpt lat="41.9973323" lon="13.7337093"><ele>960.0</ele><time>2026-03-24T12:58:16.961Z</time></trkpt><trkpt lat="41.9974607" lon="13.7338067"><ele>960.0</ele><time>2026-03-24T12:58:17.96Z</time></trkpt><trkpt lat="41.9975998" lon="13.7339071"><ele>961.0</ele><time>2026-03-24T12:58:18.96Z</time></trkpt><trkpt lat="41.9977491" lon="13.7339794"><ele>962.0</ele><time>2026-03-24T12:58:19.96Z</time></trkpt><trkpt lat="41.9978959" lon="13.7340243"><ele>963.0</ele><time>2026-03-24T12:58:20.961Z</time></trkpt><trkpt lat="41.9980403" lon="13.7340314"><ele>963.0</ele><time>2026-03-24T12:58:21.96Z</time></trkpt><trkpt lat="41.9981689" lon="13.7340023"><ele>963.0</ele><time>2026-03-24T12:58:22.961Z</time></trkpt><trkpt lat="41.9982851" lon="13.7339178"><ele>963.0</ele><time>2026-03-24T12:58:23.96Z</time></trkpt><trkpt lat="41.9983909" lon="13.7337873"><ele>963.0</ele><time>2026-03-24T12:58:24.96Z</time></trkpt><trkpt lat="41.9984908" lon="13.7336328"><ele>964.0</ele><time>2026-03-24T12:58:25.961Z</time></trkpt><trkpt lat="41.9985782" lon="13.7334634"><ele>965.0</ele><time>2026-03-24T12:58:26.961Z</time></trkpt><trkpt lat="41.9986492" lon="13.733292"><ele>966.0</ele><time>2026-03-24T12:58:27.96Z</time></trkpt><trkpt lat="41.9987145" lon="13.733124"><ele>967.0</ele><time>2026-03-24T12:58:28.96Z</time></trkpt><trkpt lat="41.9987885" lon="13.73299"><ele>967.0</ele><time>2026-03-24T12:58:29.96Z</time></trkpt><trkpt lat="41.9988815" lon="13.7328881"><ele>967.0</ele><time>2026-03-24T12:58:30.961Z</time></trkpt><trkpt lat="41.9989937" lon="13.7328318"><ele>967.0</ele><time>2026-03-24T12:58:31.961Z</time></trkpt><trkpt lat="41.9991178" lon="13.7327714"><ele>967.0</ele><time>2026-03-24T12:58:32.961Z</time></trkpt><trkpt lat="41.9992594" lon="13.7328363"><ele>967.3333333333333</ele><time>2026-03-24T12:58:33.96Z</time></trkpt><trkpt lat="41.9994018" lon="13.7328799"><ele>967.6666666666667</ele><time>2026-03-24T12:58:34.961Z</time></trkpt><trkpt lat="41.9995512" lon="13.7329499"><ele>968.0</ele><time>2026-03-24T12:58:35.961Z</time></trkpt><trkpt lat="41.999687" lon="13.7330231"><ele>968.0</ele><time>2026-03-24T12:58:36.961Z</time></trkpt><trkpt lat="41.9998198" lon="13.7330912"><ele>968.0</ele><time>2026-03-24T12:58:37.96Z</time></trkpt><trkpt lat="41.9999371" lon="13.7331467"><ele>968.0</ele><time>2026-03-24T12:58:38.961Z</time></trkpt><trkpt lat="42.0000501" lon="13.7331593"><ele>968.0</ele><time>2026-03-24T12:58:39.96Z</time></trkpt><trkpt lat="42.0001476" lon="13.7331272"><ele>968.0</ele><time>2026-03-24T12:58:40.96Z</time></trkpt><trkpt lat="42.0002395" lon="13.7330507"><ele>968.0</ele><time>2026-03-24T12:58:41.96Z</time></trkpt><trkpt lat="42.0003131" lon="13.7329483"><ele>968.0</ele><time>2026-03-24T12:58:42.961Z</time></trkpt><trkpt lat="42.0003553" lon="13.7328025"><ele>968.0</ele><time>2026-03-24T12:58:43.96Z</time></trkpt><trkpt lat="42.0003605" lon="13.7326485"><ele>968.0</ele><time>2026-03-24T12:58:44.96Z</time></trkpt><trkpt lat="42.0003473" lon="13.7324692"><ele>968.6666666666667</ele><time>2026-03-24T12:58:45.96Z</time></trkpt><trkpt lat="42.000324" lon="13.732276"><ele>969.3333333333333</ele><time>2026-03-24T12:58:46.961Z</time></trkpt><trkpt lat="42.0002892" lon="13.7320703"><ele>970.0</ele><time>2026-03-24T12:58:47.96Z</time></trkpt><trkpt lat="42.0002347" lon="13.7318688"><ele>970.0</ele><time>2026-03-24T12:58:48.961Z</time></trkpt><trkpt lat="42.0001711" lon="13.7316788"><ele>970.0</ele><time>2026-03-24T12:58:49.961Z</time></trkpt><trkpt lat="42.0000733" lon="13.7315"><ele>970.0</ele><time>2026-03-24T12:58:50.96Z</time></trkpt><trkpt lat="41.9999781" lon="13.7313229"><ele>970.0</ele><time>2026-03-24T12:58:51.96Z</time></trkpt><trkpt lat="41.9998782" lon="13.7311534"><ele>970.0</ele><time>2026-03-24T12:58:52.961Z</time></trkpt><trkpt lat="41.9997689" lon="13.7310123"><ele>970.0</ele><time>2026-03-24T12:58:53.96Z</time></trkpt><trkpt lat="41.999645" lon="13.7308901"><ele>970.25</ele><time>2026-03-24T12:58:54.961Z</time></trkpt><trkpt lat="41.9995237" lon="13.7307951"><ele>970.5</ele><time>2026-03-24T12:58:55.96Z</time></trkpt><trkpt lat="41.9994117" lon="13.7307146"><ele>970.75</ele><time>2026-03-24T12:58:56.96Z</time></trkpt><trkpt lat="41.9993104" lon="13.7306445"><ele>971.0</ele><time>2026-03-24T12:58:57.96Z</time></trkpt><trkpt lat="41.9992076" lon="13.7305776"><ele>971.1999999999999</ele><time>2026-03-24T12:58:58.96Z</time></trkpt><trkpt lat="41.9991377" lon="13.7305146"><ele>971.3999999999999</ele><time>2026-03-24T12:58:59.961Z</time></trkpt><trkpt lat="41.9990777" lon="13.7304604"><ele>971.6</ele><time>2026-03-24T12:59:00.96Z</time></trkpt><trkpt lat="41.9990312" lon="13.7303967"><ele>971.8</ele><time>2026-03-24T12:59:01.96Z</time></trkpt><trkpt lat="41.9990238" lon="13.7302563"><ele>972.0</ele><time>2026-03-24T12:59:03.96Z</time></trkpt><trkpt lat="41.9991247" lon="13.7301536"><ele>971.75</ele><time>2026-03-24T12:59:05.96Z</time></trkpt><trkpt lat="41.9992099" lon="13.7301563"><ele>971.5</ele><time>2026-03-24T12:59:06.96Z</time></trkpt><trkpt lat="41.9993147" lon="13.7302022"><ele>971.25</ele><time>2026-03-24T12:59:07.96Z</time></trkpt><trkpt lat="41.9994353" lon="13.7302898"><ele>971.0</ele><time>2026-03-24T12:59:08.96Z</time></trkpt><trkpt lat="41.9995767" lon="13.730405"><ele>971.0</ele><time>2026-03-24T12:59:09.96Z</time></trkpt><trkpt lat="41.9997386" lon="13.7305348"><ele>971.0</ele><time>2026-03-24T12:59:10.961Z</time></trkpt><trkpt lat="41.9999113" lon="13.7306814"><ele>971.0</ele><time>2026-03-24T12:59:11.961Z</time></trkpt><trkpt lat="42.0000842" lon="13.7308293"><ele>971.0</ele><time>2026-03-24T12:59:12.96Z</time></trkpt><trkpt lat="42.0002431" lon="13.7309631"><ele>971.0</ele><time>2026-03-24T12:59:13.96Z</time></trkpt><trkpt lat="42.0003958" lon="13.7310782"><ele>971.0</ele><time>2026-03-24T12:59:14.96Z</time></trkpt><trkpt lat="42.0005482" lon="13.7311663"><ele>970.75</ele><time>2026-03-24T12:59:15.96Z</time></trkpt><trkpt lat="42.0006952" lon="13.7312331"><ele>970.5</ele><time>2026-03-24T12:59:16.96Z</time></trkpt><trkpt lat="42.0008361" lon="13.7312834"><ele>970.25</ele><time>2026-03-24T12:59:17.96Z</time></trkpt><trkpt lat="42.0009764" lon="13.7313182"><ele>970.0</ele><time>2026-03-24T12:59:18.961Z</time></trkpt><trkpt lat="42.0011161" lon="13.7313348"><ele>971.25</ele><time>2026-03-24T12:59:19.96Z</time></trkpt><trkpt lat="42.0012611" lon="13.7313146"><ele>972.5</ele><time>2026-03-24T12:59:20.96Z</time></trkpt><trkpt lat="42.0014001" lon="13.7312639"><ele>973.75</ele><time>2026-03-24T12:59:21.96Z</time></trkpt><trkpt lat="42.0015301" lon="13.7312044"><ele>975.0</ele><time>2026-03-24T12:59:22.96Z</time></trkpt><trkpt lat="42.0016477" lon="13.7311611"><ele>975.0</ele><time>2026-03-24T12:59:23.961Z</time></trkpt><trkpt lat="42.0017578" lon="13.7311463"><ele>975.0</ele><time>2026-03-24T12:59:24.96Z</time></trkpt><trkpt lat="42.0018577" lon="13.7311799"><ele>975.0</ele><time>2026-03-24T12:59:25.96Z</time></trkpt><trkpt lat="42.001934" lon="13.7312531"><ele>975.0</ele><time>2026-03-24T12:59:26.96Z</time></trkpt><trkpt lat="42.0019937" lon="13.7313629"><ele>975.0</ele><time>2026-03-24T12:59:27.96Z</time></trkpt><trkpt lat="42.0020458" lon="13.7315051"><ele>975.0</ele><time>2026-03-24T12:59:28.961Z</time></trkpt><trkpt lat="42.0021146" lon="13.731653"><ele>975.0</ele><time>2026-03-24T12:59:29.961Z</time></trkpt><trkpt lat="42.0022068" lon="13.7317781"><ele>975.0</ele><time>2026-03-24T12:59:30.96Z</time></trkpt><trkpt lat="42.0023319" lon="13.7318751"><ele>975.0</ele><time>2026-03-24T12:59:31.961Z</time></trkpt><trkpt lat="42.0024776" lon="13.7319419"><ele>976.6666666666667</ele><time>2026-03-24T12:59:32.96Z</time></trkpt><trkpt lat="42.002643" lon="13.7319998"><ele>978.3333333333334</ele><time>2026-03-24T12:59:33.96Z</time></trkpt><trkpt lat="42.0028132" lon="13.7320706"><ele>980.0</ele><time>2026-03-24T12:59:34.961Z</time></trkpt><trkpt lat="42.0029658" lon="13.7321614"><ele>980.0</ele><time>2026-03-24T12:59:35.96Z</time></trkpt><trkpt lat="42.0030971" lon="13.7322765"><ele>980.0</ele><time>2026-03-24T12:59:36.96Z</time></trkpt><trkpt lat="42.0032151" lon="13.7324038"><ele>980.0</ele><time>2026-03-24T12:59:37.961Z</time></trkpt><trkpt lat="42.003325" lon="13.7325191"><ele>980.0</ele><time>2026-03-24T12:59:38.96Z</time></trkpt><trkpt lat="42.0034459" lon="13.7326108"><ele>976.25</ele><time>2026-03-24T12:59:39.96Z</time></trkpt><trkpt lat="42.0035737" lon="13.7326578"><ele>972.5</ele><time>2026-03-24T12:59:40.961Z</time></trkpt><trkpt lat="42.0037077" lon="13.7326665"><ele>968.75</ele><time>2026-03-24T12:59:41.96Z</time></trkpt><trkpt lat="42.0038345" lon="13.7326241"><ele>965.0</ele><time>2026-03-24T12:59:42.96Z</time></trkpt><trkpt lat="42.0039537" lon="13.7325339"><ele>965.0</ele><time>2026-03-24T12:59:43.96Z</time></trkpt><trkpt lat="42.0040546" lon="13.7324047"><ele>965.0</ele><time>2026-03-24T12:59:44.96Z</time></trkpt><trkpt lat="42.0041587" lon="13.7322576"><ele>965.0</ele><time>2026-03-24T12:59:45.96Z</time></trkpt><trkpt lat="42.0042583" lon="13.7321069"><ele>965.0</ele><time>2026-03-24T12:59:46.96Z</time></trkpt><trkpt lat="42.0043485" lon="13.731966"><ele>963.0</ele><time>2026-03-24T12:59:47.96Z</time></trkpt><trkpt lat="42.0044294" lon="13.7318412"><ele>961.0</ele><time>2026-03-24T12:59:48.96Z</time></trkpt><trkpt lat="42.0045" lon="13.7317136"><ele>959.0</ele><time>2026-03-24T12:59:49.96Z</time></trkpt><trkpt lat="42.0045583" lon="13.7315818"><ele>957.0</ele><time>2026-03-24T12:59:50.96Z</time></trkpt><trkpt lat="42.0046055" lon="13.7314436"><ele>957.0</ele><time>2026-03-24T12:59:51.961Z</time></trkpt><trkpt lat="42.0046361" lon="13.7312959"><ele>957.0</ele><time>2026-03-24T12:59:52.96Z</time></trkpt><trkpt lat="42.0046547" lon="13.7311365"><ele>957.0</ele><time>2026-03-24T12:59:53.96Z</time></trkpt><trkpt lat="42.0046732" lon="13.7309735"><ele>957.0</ele><time>2026-03-24T12:59:54.96Z</time></trkpt><trkpt lat="42.0046904" lon="13.7308106"><ele>955.25</ele><time>2026-03-24T12:59:55.96Z</time></trkpt><trkpt lat="42.0047052" lon="13.7306321"><ele>953.5</ele><time>2026-03-24T12:59:56.961Z</time></trkpt><trkpt lat="42.0047074" lon="13.7304406"><ele>951.75</ele><time>2026-03-24T12:59:57.96Z</time></trkpt><trkpt lat="42.004702" lon="13.7302559"><ele>950.0</ele><time>2026-03-24T12:59:58.96Z</time></trkpt><trkpt lat="42.0046994" lon="13.7300849"><ele>948.5</ele><time>2026-03-24T12:59:59.961Z</time></trkpt><trkpt lat="42.0046949" lon="13.72993"><ele>947.0</ele><time>2026-03-24T13:00:00.96Z</time></trkpt><trkpt lat="42.0046942" lon="13.7297858"><ele>945.5</ele><time>2026-03-24T13:00:01.96Z</time></trkpt><trkpt lat="42.0047006" lon="13.7296296"><ele>944.0</ele><time>2026-03-24T13:00:02.96Z</time></trkpt><trkpt lat="42.0047128" lon="13.7294525"><ele>942.6666666666667</ele><time>2026-03-24T13:00:03.96Z</time></trkpt><trkpt lat="42.0047218" lon="13.7292358"><ele>941.3333333333333</ele><time>2026-03-24T13:00:04.96Z</time></trkpt><trkpt lat="42.0047233" lon="13.7289969"><ele>940.0</ele><time>2026-03-24T13:00:05.96Z</time></trkpt><trkpt lat="42.0047003" lon="13.7287578"><ele>939.5</ele><time>2026-03-24T13:00:06.96Z</time></trkpt><trkpt lat="42.0046707" lon="13.7285357"><ele>939.0</ele><time>2026-03-24T13:00:07.96Z</time></trkpt><trkpt lat="42.0046452" lon="13.7283352"><ele>938.5</ele><time>2026-03-24T13:00:08.96Z</time></trkpt><trkpt lat="42.0046377" lon="13.7281639"><ele>938.0</ele><time>2026-03-24T13:00:09.961Z</time></trkpt><trkpt lat="42.0046451" lon="13.728011"><ele>938.0</ele><time>2026-03-24T13:00:10.96Z</time></trkpt><trkpt lat="42.0046802" lon="13.727885"><ele>938.0</ele><time>2026-03-24T13:00:11.96Z</time></trkpt><trkpt lat="42.0047288" lon="13.7277673"><ele>938.0</ele><time>2026-03-24T13:00:12.96Z</time></trkpt><trkpt lat="42.0048215" lon="13.7277722"><ele>938.0</ele><time>2026-03-24T13:00:13.96Z</time></trkpt><trkpt lat="42.0049172" lon="13.7277988"><ele>938.0</ele><time>2026-03-24T13:00:14.96Z</time></trkpt><trkpt lat="42.0050305" lon="13.7278773"><ele>943.0</ele><time>2026-03-24T13:00:15.96Z</time></trkpt><trkpt lat="42.0051585" lon="13.7279955"><ele>948.0</ele><time>2026-03-24T13:00:16.961Z</time></trkpt><trkpt lat="42.0053069" lon="13.7281521"><ele>953.0</ele><time>2026-03-24T13:00:17.961Z</time></trkpt><trkpt lat="42.0054851" lon="13.7283012"><ele>953.0</ele><time>2026-03-24T13:00:18.96Z</time></trkpt><trkpt lat="42.0056486" lon="13.7284197"><ele>953.0</ele><time>2026-03-24T13:00:19.96Z</time></trkpt><trkpt lat="42.0057916" lon="13.7284995"><ele>953.0</ele><time>2026-03-24T13:00:20.96Z</time></trkpt><trkpt lat="42.0059276" lon="13.7285344"><ele>951.75</ele><time>2026-03-24T13:00:21.96Z</time></trkpt><trkpt lat="42.0060596" lon="13.7285347"><ele>950.5</ele><time>2026-03-24T13:00:22.96Z</time></trkpt><trkpt lat="42.0061774" lon="13.7285001"><ele>949.25</ele><time>2026-03-24T13:00:23.96Z</time></trkpt><trkpt lat="42.0062809" lon="13.7284203"><ele>948.0</ele><time>2026-03-24T13:00:24.96Z</time></trkpt><trkpt lat="42.0063619" lon="13.7283069"><ele>948.0</ele><time>2026-03-24T13:00:25.96Z</time></trkpt><trkpt lat="42.0064099" lon="13.7281581"><ele>948.0</ele><time>2026-03-24T13:00:26.961Z</time></trkpt><trkpt lat="42.006428" lon="13.727983"><ele>948.0</ele><time>2026-03-24T13:00:27.96Z</time></trkpt><trkpt lat="42.0064286" lon="13.7277669"><ele>948.0</ele><time>2026-03-24T13:00:28.961Z</time></trkpt><trkpt lat="42.0064197" lon="13.7275285"><ele>944.6666666666667</ele><time>2026-03-24T13:00:29.961Z</time></trkpt><trkpt lat="42.0064033" lon="13.727277"><ele>941.3333333333334</ele><time>2026-03-24T13:00:30.961Z</time></trkpt><trkpt lat="42.0063853" lon="13.7270235"><ele>938.0</ele><time>2026-03-24T13:00:31.96Z</time></trkpt><trkpt lat="42.0063716" lon="13.7267922"><ele>936.25</ele><time>2026-03-24T13:00:32.961Z</time></trkpt><trkpt lat="42.0063798" lon="13.7265811"><ele>934.5</ele><time>2026-03-24T13:00:33.96Z</time></trkpt><trkpt lat="42.0064078" lon="13.7263971"><ele>932.75</ele><time>2026-03-24T13:00:34.96Z</time></trkpt><trkpt lat="42.0064523" lon="13.7262595"><ele>931.0</ele><time>2026-03-24T13:00:35.961Z</time></trkpt><trkpt lat="42.0065208" lon="13.7261571"><ele>931.0</ele><time>2026-03-24T13:00:36.96Z</time></trkpt><trkpt lat="42.0066033" lon="13.7260997"><ele>931.0</ele><time>2026-03-24T13:00:37.961Z</time></trkpt><trkpt lat="42.0067086" lon="13.7260979"><ele>931.0</ele><time>2026-03-24T13:00:38.961Z</time></trkpt><trkpt lat="42.0068191" lon="13.7261494"><ele>931.0</ele><time>2026-03-24T13:00:39.96Z</time></trkpt><trkpt lat="42.0069396" lon="13.7262442"><ele>934.0</ele><time>2026-03-24T13:00:40.961Z</time></trkpt><trkpt lat="42.0070613" lon="13.726388"><ele>937.0</ele><time>2026-03-24T13:00:41.96Z</time></trkpt><trkpt lat="42.0071816" lon="13.7265621"><ele>940.0</ele><time>2026-03-24T13:00:42.96Z</time></trkpt><trkpt lat="42.0073005" lon="13.7267308"><ele>940.0</ele><time>2026-03-24T13:00:43.96Z</time></trkpt><trkpt lat="42.007427" lon="13.7268804"><ele>940.0</ele><time>2026-03-24T13:00:44.96Z</time></trkpt><trkpt lat="42.0075549" lon="13.7269996"><ele>940.0</ele><time>2026-03-24T13:00:45.96Z</time></trkpt><trkpt lat="42.0076738" lon="13.7270817"><ele>940.25</ele><time>2026-03-24T13:00:46.96Z</time></trkpt><trkpt lat="42.0077914" lon="13.7271284"><ele>940.5</ele><time>2026-03-24T13:00:47.96Z</time></trkpt><trkpt lat="42.0079059" lon="13.7271373"><ele>940.75</ele><time>2026-03-24T13:00:48.96Z</time></trkpt><trkpt lat="42.0080134" lon="13.727093"><ele>941.0</ele><time>2026-03-24T13:00:49.96Z</time></trkpt><trkpt lat="42.0081037" lon="13.7270028"><ele>937.0</ele><time>2026-03-24T13:00:50.961Z</time></trkpt><trkpt lat="42.0081805" lon="13.7268639"><ele>933.0</ele><time>2026-03-24T13:00:51.96Z</time></trkpt><trkpt lat="42.008252" lon="13.7266858"><ele>929.0</ele><time>2026-03-24T13:00:52.96Z</time></trkpt><trkpt lat="42.0083328" lon="13.7264799"><ele>929.0</ele><time>2026-03-24T13:00:53.96Z</time></trkpt><trkpt lat="42.0084285" lon="13.7262735"><ele>929.0</ele><time>2026-03-24T13:00:54.96Z</time></trkpt><trkpt lat="42.0085496" lon="13.7260728"><ele>929.0</ele><time>2026-03-24T13:00:55.96Z</time></trkpt><trkpt lat="42.0086868" lon="13.725887"><ele>926.75</ele><time>2026-03-24T13:00:56.961Z</time></trkpt><trkpt lat="42.0088113" lon="13.7257362"><ele>924.5</ele><time>2026-03-24T13:00:57.96Z</time></trkpt><trkpt lat="42.0089221" lon="13.7256095"><ele>922.25</ele><time>2026-03-24T13:00:58.96Z</time></trkpt><trkpt lat="42.0090288" lon="13.7255156"><ele>920.0</ele><time>2026-03-24T13:00:59.961Z</time></trkpt><trkpt lat="42.0091266" lon="13.7254674"><ele>920.75</ele><time>2026-03-24T13:01:00.961Z</time></trkpt><trkpt lat="42.0092294" lon="13.7254678"><ele>921.5</ele><time>2026-03-24T13:01:01.961Z</time></trkpt><trkpt lat="42.0093473" lon="13.7255194"><ele>922.25</ele><time>2026-03-24T13:01:02.96Z</time></trkpt><trkpt lat="42.0094749" lon="13.7256055"><ele>923.0</ele><time>2026-03-24T13:01:03.96Z</time></trkpt><trkpt lat="42.0096164" lon="13.7256979"><ele>923.0</ele><time>2026-03-24T13:01:04.96Z</time></trkpt><trkpt lat="42.0097566" lon="13.7257812"><ele>923.0</ele><time>2026-03-24T13:01:05.96Z</time></trkpt><trkpt lat="42.009893" lon="13.7258419"><ele>923.0</ele><time>2026-03-24T13:01:06.961Z</time></trkpt><trkpt lat="42.0100282" lon="13.7258562"><ele>923.0</ele><time>2026-03-24T13:01:07.961Z</time></trkpt><trkpt lat="42.0101529" lon="13.7258144"><ele>921.25</ele><time>2026-03-24T13:01:08.96Z</time></trkpt><trkpt lat="42.0102831" lon="13.7257783"><ele>919.5</ele><time>2026-03-24T13:01:09.961Z</time></trkpt><trkpt lat="42.0103473" lon="13.7256131"><ele>917.75</ele><time>2026-03-24T13:01:10.96Z</time></trkpt><trkpt lat="42.0104124" lon="13.725465"><ele>916.0</ele><time>2026-03-24T13:01:11.96Z</time></trkpt><trkpt lat="42.0104399" lon="13.7252874"><ele>914.0</ele><time>2026-03-24T13:01:12.961Z</time></trkpt><trkpt lat="42.0104383" lon="13.7250856"><ele>912.0</ele><time>2026-03-24T13:01:13.96Z</time></trkpt><trkpt lat="42.0104192" lon="13.7248633"><ele>910.0</ele><time>2026-03-24T13:01:14.961Z</time></trkpt><trkpt lat="42.010404" lon="13.724632"><ele>907.6666666666666</ele><time>2026-03-24T13:01:15.96Z</time></trkpt><trkpt lat="42.0103851" lon="13.7243845"><ele>905.3333333333333</ele><time>2026-03-24T13:01:16.96Z</time></trkpt><trkpt lat="42.0103648" lon="13.7241407"><ele>903.0</ele><time>2026-03-24T13:01:17.96Z</time></trkpt><trkpt lat="42.010362" lon="13.7239053"><ele>903.0</ele><time>2026-03-24T13:01:18.96Z</time></trkpt><trkpt lat="42.0103768" lon="13.7236764"><ele>903.0</ele><time>2026-03-24T13:01:19.961Z</time></trkpt><trkpt lat="42.0104199" lon="13.7234647"><ele>903.0</ele><time>2026-03-24T13:01:20.961Z</time></trkpt><trkpt lat="42.0104686" lon="13.7232816"><ele>901.5</ele><time>2026-03-24T13:01:21.961Z</time></trkpt><trkpt lat="42.0105245" lon="13.7231262"><ele>900.0</ele><time>2026-03-24T13:01:22.96Z</time></trkpt><trkpt lat="42.0105906" lon="13.723004"><ele>898.5</ele><time>2026-03-24T13:01:23.96Z</time></trkpt><trkpt lat="42.0106856" lon="13.7229248"><ele>897.0</ele><time>2026-03-24T13:01:24.96Z</time></trkpt><trkpt lat="42.0108087" lon="13.7228929"><ele>899.3333333333333</ele><time>2026-03-24T13:01:25.961Z</time></trkpt><trkpt lat="42.0109529" lon="13.7229014"><ele>901.6666666666666</ele><time>2026-03-24T13:01:26.96Z</time></trkpt><trkpt lat="42.0111116" lon="13.7229288"><ele>904.0</ele><time>2026-03-24T13:01:27.96Z</time></trkpt><trkpt lat="42.0112675" lon="13.72297"><ele>904.0</ele><time>2026-03-24T13:01:28.96Z</time></trkpt><trkpt lat="42.011408" lon="13.7230395"><ele>904.0</ele><time>2026-03-24T13:01:29.961Z</time></trkpt><trkpt lat="42.0115424" lon="13.7231477"><ele>904.0</ele><time>2026-03-24T13:01:30.96Z</time></trkpt><trkpt lat="42.0116737" lon="13.7233034"><ele>903.0</ele><time>2026-03-24T13:01:31.96Z</time></trkpt><trkpt lat="42.0117906" lon="13.7234621"><ele>902.0</ele><time>2026-03-24T13:01:32.96Z</time></trkpt><trkpt lat="42.0118934" lon="13.723597"><ele>901.0</ele><time>2026-03-24T13:01:33.96Z</time></trkpt><trkpt lat="42.0119981" lon="13.7237021"><ele>900.0</ele><time>2026-03-24T13:01:34.96Z</time></trkpt><trkpt lat="42.012114" lon="13.7237578"><ele>900.0</ele><time>2026-03-24T13:01:35.961Z</time></trkpt><trkpt lat="42.0122355" lon="13.7237522"><ele>900.0</ele><time>2026-03-24T13:01:36.96Z</time></trkpt><trkpt lat="42.0123628" lon="13.7236936"><ele>900.0</ele><time>2026-03-24T13:01:37.96Z</time></trkpt><trkpt lat="42.0124952" lon="13.7235701"><ele>900.0</ele><time>2026-03-24T13:01:38.961Z</time></trkpt><trkpt lat="42.0126429" lon="13.7234075"><ele>897.0</ele><time>2026-03-24T13:01:39.96Z</time></trkpt><trkpt lat="42.0127934" lon="13.7232319"><ele>894.0</ele><time>2026-03-24T13:01:40.96Z</time></trkpt><trkpt lat="42.012931" lon="13.7230662"><ele>891.0</ele><time>2026-03-24T13:01:41.96Z</time></trkpt><trkpt lat="42.0130696" lon="13.7229013"><ele>891.0</ele><time>2026-03-24T13:01:42.96Z</time></trkpt><trkpt lat="42.0131797" lon="13.7227966"><ele>891.0</ele><time>2026-03-24T13:01:43.961Z</time></trkpt><trkpt lat="42.0132992" lon="13.7227307"><ele>891.0</ele><time>2026-03-24T13:01:44.96Z</time></trkpt><trkpt lat="42.0134202" lon="13.7227236"><ele>891.0</ele><time>2026-03-24T13:01:45.96Z</time></trkpt><trkpt lat="42.0135541" lon="13.7227659"><ele>891.0</ele><time>2026-03-24T13:01:46.96Z</time></trkpt><trkpt lat="42.0136942" lon="13.7228334"><ele>891.0</ele><time>2026-03-24T13:01:47.96Z</time></trkpt><trkpt lat="42.0138351" lon="13.7228996"><ele>891.0</ele><time>2026-03-24T13:01:48.96Z</time></trkpt><trkpt lat="42.0139679" lon="13.7229462"><ele>891.0</ele><time>2026-03-24T13:01:49.961Z</time></trkpt><trkpt lat="42.0141039" lon="13.7229458"><ele>889.3333333333333</ele><time>2026-03-24T13:01:50.96Z</time></trkpt><trkpt lat="42.0142356" lon="13.7228924"><ele>887.6666666666666</ele><time>2026-03-24T13:01:51.96Z</time></trkpt><trkpt lat="42.0143598" lon="13.7227826"><ele>886.0</ele><time>2026-03-24T13:01:52.961Z</time></trkpt><trkpt lat="42.0144887" lon="13.7226306"><ele>883.6666666666666</ele><time>2026-03-24T13:01:53.96Z</time></trkpt><trkpt lat="42.0146191" lon="13.7224912"><ele>881.3333333333333</ele><time>2026-03-24T13:01:54.96Z</time></trkpt><trkpt lat="42.0147569" lon="13.7223824"><ele>879.0</ele><time>2026-03-24T13:01:55.96Z</time></trkpt><trkpt lat="42.014907" lon="13.7223219"><ele>878.3333333333333</ele><time>2026-03-24T13:01:56.961Z</time></trkpt><trkpt lat="42.0150692" lon="13.7223128"><ele>877.6666666666666</ele><time>2026-03-24T13:01:57.96Z</time></trkpt><trkpt lat="42.0152499" lon="13.7223225"><ele>877.0</ele><time>2026-03-24T13:01:58.961Z</time></trkpt><trkpt lat="42.015434" lon="13.7223229"><ele>877.0</ele><time>2026-03-24T13:01:59.96Z</time></trkpt><trkpt lat="42.0156005" lon="13.7223063"><ele>877.0</ele><time>2026-03-24T13:02:00.96Z</time></trkpt><trkpt lat="42.0157637" lon="13.7222602"><ele>877.0</ele><time>2026-03-24T13:02:01.96Z</time></trkpt><trkpt lat="42.0159161" lon="13.7221785"><ele>876.6666666666666</ele><time>2026-03-24T13:02:02.96Z</time></trkpt><trkpt lat="42.0160645" lon="13.7220755"><ele>876.3333333333333</ele><time>2026-03-24T13:02:03.96Z</time></trkpt><trkpt lat="42.0162033" lon="13.7219722"><ele>876.0</ele><time>2026-03-24T13:02:04.961Z</time></trkpt><trkpt lat="42.0163337" lon="13.7218698"><ele>874.6666666666667</ele><time>2026-03-24T13:02:05.96Z</time></trkpt><trkpt lat="42.016456" lon="13.7217419"><ele>873.3333333333334</ele><time>2026-03-24T13:02:06.96Z</time></trkpt><trkpt lat="42.0165722" lon="13.7215807"><ele>872.0</ele><time>2026-03-24T13:02:07.961Z</time></trkpt><trkpt lat="42.0166722" lon="13.7213832"><ele>872.0</ele><time>2026-03-24T13:02:08.96Z</time></trkpt><trkpt lat="42.0167466" lon="13.7211608"><ele>872.0</ele><time>2026-03-24T13:02:09.96Z</time></trkpt><trkpt lat="42.0167949" lon="13.7209169"><ele>872.0</ele><time>2026-03-24T13:02:10.96Z</time></trkpt><trkpt lat="42.0168341" lon="13.7206633"><ele>870.6666666666667</ele><time>2026-03-24T13:02:11.96Z</time></trkpt><trkpt lat="42.0168679" lon="13.7204146"><ele>869.3333333333333</ele><time>2026-03-24T13:02:12.96Z</time></trkpt><trkpt lat="42.0168965" lon="13.720188"><ele>868.0</ele><time>2026-03-24T13:02:13.96Z</time></trkpt><trkpt lat="42.0169291" lon="13.7200043"><ele>866.75</ele><time>2026-03-24T13:02:14.96Z</time></trkpt><trkpt lat="42.0169909" lon="13.7198453"><ele>865.5</ele><time>2026-03-24T13:02:15.96Z</time></trkpt><trkpt lat="42.0170641" lon="13.719694"><ele>864.25</ele><time>2026-03-24T13:02:16.96Z</time></trkpt><trkpt lat="42.0171577" lon="13.7195828"><ele>863.0</ele><time>2026-03-24T13:02:17.96Z</time></trkpt><trkpt lat="42.0173268" lon="13.7194638"><ele>861.6666666666667</ele><time>2026-03-24T13:02:18.96Z</time></trkpt><trkpt lat="42.0174529" lon="13.7193172"><ele>860.3333333333333</ele><time>2026-03-24T13:02:19.96Z</time></trkpt><trkpt lat="42.0175453" lon="13.7191497"><ele>859.0</ele><time>2026-03-24T13:02:20.96Z</time></trkpt><trkpt lat="42.0175993" lon="13.7189627"><ele>859.0</ele><time>2026-03-24T13:02:21.96Z</time></trkpt><trkpt lat="42.0176242" lon="13.7187517"><ele>859.0</ele><time>2026-03-24T13:02:22.96Z</time></trkpt><trkpt lat="42.0176302" lon="13.7185085"><ele>859.0</ele><time>2026-03-24T13:02:23.96Z</time></trkpt><trkpt lat="42.0176452" lon="13.7182458"><ele>857.3333333333333</ele><time>2026-03-24T13:02:24.961Z</time></trkpt><trkpt lat="42.0176838" lon="13.7179713"><ele>855.6666666666667</ele><time>2026-03-24T13:02:25.96Z</time></trkpt><trkpt lat="42.0177363" lon="13.7176819"><ele>854.0</ele><time>2026-03-24T13:02:26.96Z</time></trkpt><trkpt lat="42.0178063" lon="13.7173487"><ele>852.0</ele><time>2026-03-24T13:02:27.96Z</time></trkpt><trkpt lat="42.0178797" lon="13.7169778"><ele>850.0</ele><time>2026-03-24T13:02:28.96Z</time></trkpt><trkpt lat="42.017955" lon="13.716584"><ele>847.5</ele><time>2026-03-24T13:02:29.961Z</time></trkpt><trkpt lat="42.0180385" lon="13.7161672"><ele>845.0</ele><time>2026-03-24T13:02:30.961Z</time></trkpt><trkpt lat="42.0181198" lon="13.7157618"><ele>843.0</ele><time>2026-03-24T13:02:31.961Z</time></trkpt><trkpt lat="42.0181978" lon="13.7153754"><ele>841.0</ele><time>2026-03-24T13:02:32.96Z</time></trkpt><trkpt lat="42.0182719" lon="13.7150118"><ele>841.0</ele><time>2026-03-24T13:02:33.96Z</time></trkpt><trkpt lat="42.0183356" lon="13.7146671"><ele>841.0</ele><time>2026-03-24T13:02:34.961Z</time></trkpt><trkpt lat="42.0183993" lon="13.7143455"><ele>842.0</ele><time>2026-03-24T13:02:35.96Z</time></trkpt><trkpt lat="42.0184647" lon="13.7140334"><ele>843.0</ele><time>2026-03-24T13:02:36.96Z</time></trkpt><trkpt lat="42.0185234" lon="13.7137264"><ele>844.0</ele><time>2026-03-24T13:02:37.96Z</time></trkpt><trkpt lat="42.0185872" lon="13.7134313"><ele>845.0</ele><time>2026-03-24T13:02:38.96Z</time></trkpt><trkpt lat="42.0186461" lon="13.7131449"><ele>846.0</ele><time>2026-03-24T13:02:39.96Z</time></trkpt><trkpt lat="42.018713" lon="13.7128772"><ele>845.6666666666667</ele><time>2026-03-24T13:02:40.96Z</time></trkpt><trkpt lat="42.0187899" lon="13.7126365"><ele>845.3333333333334</ele><time>2026-03-24T13:02:41.961Z</time></trkpt><trkpt lat="42.0188707" lon="13.7124239"><ele>845.0</ele><time>2026-03-24T13:02:42.96Z</time></trkpt><trkpt lat="42.0189402" lon="13.7122397"><ele>845.0</ele><time>2026-03-24T13:02:43.961Z</time></trkpt><trkpt lat="42.0189883" lon="13.7120835"><ele>845.0</ele><time>2026-03-24T13:02:44.96Z</time></trkpt><trkpt lat="42.0190087" lon="13.7119485"><ele>845.0</ele><time>2026-03-24T13:02:45.961Z</time></trkpt><trkpt lat="42.0190037" lon="13.711812"><ele>845.0</ele><time>2026-03-24T13:02:46.961Z</time></trkpt><trkpt lat="42.0189639" lon="13.7116798"><ele>845.0</ele><time>2026-03-24T13:02:47.96Z</time></trkpt><trkpt lat="42.0188952" lon="13.7115645"><ele>845.0</ele><time>2026-03-24T13:02:48.961Z</time></trkpt><trkpt lat="42.0188017" lon="13.7114629"><ele>845.0</ele><time>2026-03-24T13:02:49.961Z</time></trkpt><trkpt lat="42.0186994" lon="13.7113699"><ele>845.0</ele><time>2026-03-24T13:02:50.96Z</time></trkpt><trkpt lat="42.0185862" lon="13.7112655"><ele>845.0</ele><time>2026-03-24T13:02:51.961Z</time></trkpt><trkpt lat="42.0184897" lon="13.7111583"><ele>846.25</ele><time>2026-03-24T13:02:52.96Z</time></trkpt><trkpt lat="42.0183985" lon="13.711047"><ele>847.5</ele><time>2026-03-24T13:02:53.96Z</time></trkpt><trkpt lat="42.018345" lon="13.7109051"><ele>848.75</ele><time>2026-03-24T13:02:54.961Z</time></trkpt><trkpt lat="42.0183079" lon="13.7107501"><ele>850.0</ele><time>2026-03-24T13:02:55.96Z</time></trkpt><trkpt lat="42.0182909" lon="13.7105693"><ele>846.0</ele><time>2026-03-24T13:02:56.96Z</time></trkpt><trkpt lat="42.0182918" lon="13.710358"><ele>842.0</ele><time>2026-03-24T13:02:57.96Z</time></trkpt><trkpt lat="42.0182983" lon="13.7101276"><ele>838.0</ele><time>2026-03-24T13:02:58.96Z</time></trkpt><trkpt lat="42.0183089" lon="13.7098873"><ele>842.6666666666666</ele><time>2026-03-24T13:02:59.96Z</time></trkpt><trkpt lat="42.0183289" lon="13.709641"><ele>847.3333333333333</ele><time>2026-03-24T13:03:00.96Z</time></trkpt><trkpt lat="42.0183606" lon="13.7093901"><ele>852.0</ele><time>2026-03-24T13:03:01.96Z</time></trkpt><trkpt lat="42.0184092" lon="13.7091367"><ele>852.0</ele><time>2026-03-24T13:03:02.96Z</time></trkpt><trkpt lat="42.0184619" lon="13.7088827"><ele>852.0</ele><time>2026-03-24T13:03:03.96Z</time></trkpt><trkpt lat="42.0185291" lon="13.708644"><ele>852.0</ele><time>2026-03-24T13:03:04.96Z</time></trkpt><trkpt lat="42.0186092" lon="13.7084146"><ele>851.6666666666667</ele><time>2026-03-24T13:03:05.961Z</time></trkpt><trkpt lat="42.0187074" lon="13.7081907"><ele>851.3333333333334</ele><time>2026-03-24T13:03:06.96Z</time></trkpt><trkpt lat="42.0188091" lon="13.7079711"><ele>851.0</ele><time>2026-03-24T13:03:07.961Z</time></trkpt><trkpt lat="42.0189172" lon="13.707755"><ele>851.6666666666667</ele><time>2026-03-24T13:03:08.961Z</time></trkpt><trkpt lat="42.0190213" lon="13.7075415"><ele>852.3333333333333</ele><time>2026-03-24T13:03:09.96Z</time></trkpt><trkpt lat="42.0191228" lon="13.707346"><ele>853.0</ele><time>2026-03-24T13:03:10.96Z</time></trkpt><trkpt lat="42.0192343" lon="13.707173"><ele>855.6666666666666</ele><time>2026-03-24T13:03:11.961Z</time></trkpt><trkpt lat="42.0193609" lon="13.7070107"><ele>858.3333333333333</ele><time>2026-03-24T13:03:12.96Z</time></trkpt><trkpt lat="42.0194998" lon="13.7068577"><ele>861.0</ele><time>2026-03-24T13:03:13.96Z</time></trkpt><trkpt lat="42.0196483" lon="13.7066954"><ele>861.0</ele><time>2026-03-24T13:03:14.96Z</time></trkpt><trkpt lat="42.0197868" lon="13.70651"><ele>861.0</ele><time>2026-03-24T13:03:15.96Z</time></trkpt><trkpt lat="42.0199129" lon="13.7063073"><ele>861.0</ele><time>2026-03-24T13:03:16.961Z</time></trkpt><trkpt lat="42.0200158" lon="13.7060881"><ele>861.0</ele><time>2026-03-24T13:03:17.96Z</time></trkpt><trkpt lat="42.0201052" lon="13.7058436"><ele>861.0</ele><time>2026-03-24T13:03:18.96Z</time></trkpt><trkpt lat="42.0201976" lon="13.7055883"><ele>861.0</ele><time>2026-03-24T13:03:19.961Z</time></trkpt><trkpt lat="42.020294" lon="13.70532"><ele>859.6666666666667</ele><time>2026-03-24T13:03:20.961Z</time></trkpt><trkpt lat="42.0203931" lon="13.7050492"><ele>858.3333333333334</ele><time>2026-03-24T13:03:21.96Z</time></trkpt><trkpt lat="42.0204908" lon="13.7047925"><ele>857.0</ele><time>2026-03-24T13:03:22.961Z</time></trkpt><trkpt lat="42.0205816" lon="13.7045355"><ele>856.0</ele><time>2026-03-24T13:03:23.961Z</time></trkpt><trkpt lat="42.0206608" lon="13.7042831"><ele>855.0</ele><time>2026-03-24T13:03:24.961Z</time></trkpt><trkpt lat="42.0207113" lon="13.7040203"><ele>854.0</ele><time>2026-03-24T13:03:25.96Z</time></trkpt><trkpt lat="42.0207328" lon="13.7037474"><ele>852.0</ele><time>2026-03-24T13:03:26.961Z</time></trkpt><trkpt lat="42.0207335" lon="13.7034575"><ele>850.0</ele><time>2026-03-24T13:03:27.96Z</time></trkpt><trkpt lat="42.0207345" lon="13.7031694"><ele>848.0</ele><time>2026-03-24T13:03:28.96Z</time></trkpt><trkpt lat="42.0207422" lon="13.7028987"><ele>846.6666666666667</ele><time>2026-03-24T13:03:29.961Z</time></trkpt><trkpt lat="42.0207578" lon="13.7026397"><ele>845.3333333333333</ele><time>2026-03-24T13:03:30.961Z</time></trkpt><trkpt lat="42.0207912" lon="13.7023877"><ele>844.0</ele><time>2026-03-24T13:03:31.96Z</time></trkpt><trkpt lat="42.0208283" lon="13.7021357"><ele>849.6666666666666</ele><time>2026-03-24T13:03:32.96Z</time></trkpt><trkpt lat="42.0208662" lon="13.7018822"><ele>855.3333333333333</ele><time>2026-03-24T13:03:33.96Z</time></trkpt><trkpt lat="42.0209024" lon="13.7016252"><ele>861.0</ele><time>2026-03-24T13:03:34.96Z</time></trkpt><trkpt lat="42.0209411" lon="13.7013668"><ele>861.0</ele><time>2026-03-24T13:03:35.96Z</time></trkpt><trkpt lat="42.0209834" lon="13.7011115"><ele>861.0</ele><time>2026-03-24T13:03:36.961Z</time></trkpt><trkpt lat="42.0210195" lon="13.7008645"><ele>861.0</ele><time>2026-03-24T13:03:37.96Z</time></trkpt><trkpt lat="42.0210542" lon="13.7006223"><ele>859.6666666666667</ele><time>2026-03-24T13:03:38.96Z</time></trkpt><trkpt lat="42.0210898" lon="13.7003782"><ele>858.3333333333334</ele><time>2026-03-24T13:03:39.96Z</time></trkpt><trkpt lat="42.0211396" lon="13.70014"><ele>857.0</ele><time>2026-03-24T13:03:40.961Z</time></trkpt><trkpt lat="42.0212168" lon="13.6999181"><ele>853.6666666666667</ele><time>2026-03-24T13:03:41.96Z</time></trkpt><trkpt lat="42.0213159" lon="13.6997066"><ele>850.3333333333333</ele><time>2026-03-24T13:03:42.96Z</time></trkpt><trkpt lat="42.0214226" lon="13.6994944"><ele>847.0</ele><time>2026-03-24T13:03:43.961Z</time></trkpt><trkpt lat="42.0215317" lon="13.6992802"><ele>850.0</ele><time>2026-03-24T13:03:44.961Z</time></trkpt><trkpt lat="42.0216381" lon="13.6990696"><ele>853.0</ele><time>2026-03-24T13:03:45.96Z</time></trkpt><trkpt lat="42.0217403" lon="13.6988666"><ele>856.0</ele><time>2026-03-24T13:03:46.961Z</time></trkpt><trkpt lat="42.0218385" lon="13.6986747"><ele>853.0</ele><time>2026-03-24T13:03:47.96Z</time></trkpt><trkpt lat="42.0219373" lon="13.6984876"><ele>850.0</ele><time>2026-03-24T13:03:48.96Z</time></trkpt><trkpt lat="42.0220227" lon="13.6982971"><ele>847.0</ele><time>2026-03-24T13:03:49.961Z</time></trkpt><trkpt lat="42.0220931" lon="13.6980996"><ele>847.0</ele><time>2026-03-24T13:03:50.96Z</time></trkpt><trkpt lat="42.022135" lon="13.6978964"><ele>847.0</ele><time>2026-03-24T13:03:51.96Z</time></trkpt><trkpt lat="42.022156" lon="13.6976966"><ele>847.0</ele><time>2026-03-24T13:03:52.96Z</time></trkpt><trkpt lat="42.0221643" lon="13.6975027"><ele>843.75</ele><time>2026-03-24T13:03:53.96Z</time></trkpt><trkpt lat="42.022182" lon="13.6973214"><ele>840.5</ele><time>2026-03-24T13:03:54.961Z</time></trkpt><trkpt lat="42.0222217" lon="13.6971465"><ele>837.25</ele><time>2026-03-24T13:03:55.96Z</time></trkpt><trkpt lat="42.0222792" lon="13.6969808"><ele>834.0</ele><time>2026-03-24T13:03:56.961Z</time></trkpt><trkpt lat="42.0223543" lon="13.6968258"><ele>830.75</ele><time>2026-03-24T13:03:57.96Z</time></trkpt><trkpt lat="42.022439" lon="13.6966698"><ele>827.5</ele><time>2026-03-24T13:03:58.96Z</time></trkpt><trkpt lat="42.0225191" lon="13.6965212"><ele>824.25</ele><time>2026-03-24T13:03:59.96Z</time></trkpt><trkpt lat="42.022602" lon="13.6963766"><ele>821.0</ele><time>2026-03-24T13:04:00.96Z</time></trkpt><trkpt lat="42.0226776" lon="13.696235"><ele>823.75</ele><time>2026-03-24T13:04:01.961Z</time></trkpt><trkpt lat="42.0227528" lon="13.696097"><ele>826.5</ele><time>2026-03-24T13:04:02.961Z</time></trkpt><trkpt lat="42.0228278" lon="13.6959688"><ele>829.25</ele><time>2026-03-24T13:04:03.961Z</time></trkpt><trkpt lat="42.0229042" lon="13.6958453"><ele>832.0</ele><time>2026-03-24T13:04:04.961Z</time></trkpt><trkpt lat="42.0229921" lon="13.6957339"><ele>832.0</ele><time>2026-03-24T13:04:05.961Z</time></trkpt><trkpt lat="42.0230912" lon="13.6956281"><ele>832.0</ele><time>2026-03-24T13:04:06.961Z</time></trkpt><trkpt lat="42.0231947" lon="13.6955241"><ele>832.0</ele><time>2026-03-24T13:04:07.96Z</time></trkpt><trkpt lat="42.0233011" lon="13.6954194"><ele>832.0</ele><time>2026-03-24T13:04:08.96Z</time></trkpt><trkpt lat="42.0233965" lon="13.6953015"><ele>833.25</ele><time>2026-03-24T13:04:09.96Z</time></trkpt><trkpt lat="42.0234686" lon="13.6951701"><ele>834.5</ele><time>2026-03-24T13:04:10.96Z</time></trkpt><trkpt lat="42.0235146" lon="13.6950245"><ele>835.75</ele><time>2026-03-24T13:04:11.961Z</time></trkpt><trkpt lat="42.0235253" lon="13.6948722"><ele>837.0</ele><time>2026-03-24T13:04:12.961Z</time></trkpt><trkpt lat="42.0235151" lon="13.694714"><ele>837.0</ele><time>2026-03-24T13:04:13.96Z</time></trkpt><trkpt lat="42.0235038" lon="13.6945551"><ele>837.0</ele><time>2026-03-24T13:04:14.961Z</time></trkpt><trkpt lat="42.0235141" lon="13.694395"><ele>837.0</ele><time>2026-03-24T13:04:15.96Z</time></trkpt><trkpt lat="42.0235583" lon="13.6942352"><ele>837.0</ele><time>2026-03-24T13:04:16.96Z</time></trkpt><trkpt lat="42.0236331" lon="13.694081"><ele>834.6666666666667</ele><time>2026-03-24T13:04:17.961Z</time></trkpt><trkpt lat="42.0237256" lon="13.6939311"><ele>832.3333333333334</ele><time>2026-03-24T13:04:18.96Z</time></trkpt><trkpt lat="42.0238278" lon="13.69377"><ele>830.0</ele><time>2026-03-24T13:04:19.96Z</time></trkpt><trkpt lat="42.0239325" lon="13.6935967"><ele>831.6666666666667</ele><time>2026-03-24T13:04:20.96Z</time></trkpt><trkpt lat="42.0240449" lon="13.6934124"><ele>833.3333333333333</ele><time>2026-03-24T13:04:21.96Z</time></trkpt><trkpt lat="42.0241597" lon="13.6932275"><ele>835.0</ele><time>2026-03-24T13:04:22.96Z</time></trkpt><trkpt lat="42.0242694" lon="13.6930519"><ele>835.0</ele><time>2026-03-24T13:04:23.96Z</time></trkpt><trkpt lat="42.02438" lon="13.692889"><ele>835.0</ele><time>2026-03-24T13:04:24.96Z</time></trkpt><trkpt lat="42.0244928" lon="13.6927663"><ele>835.0</ele><time>2026-03-24T13:04:25.961Z</time></trkpt><trkpt lat="42.0246133" lon="13.6926657"><ele>833.75</ele><time>2026-03-24T13:04:26.96Z</time></trkpt><trkpt lat="42.0247243" lon="13.6925861"><ele>832.5</ele><time>2026-03-24T13:04:27.96Z</time></trkpt><trkpt lat="42.0248481" lon="13.6925293"><ele>831.25</ele><time>2026-03-24T13:04:28.961Z</time></trkpt><trkpt lat="42.0249563" lon="13.6924617"><ele>830.0</ele><time>2026-03-24T13:04:29.96Z</time></trkpt><trkpt lat="42.0250484" lon="13.6923553"><ele>830.0</ele><time>2026-03-24T13:04:30.96Z</time></trkpt><trkpt lat="42.0251137" lon="13.6922237"><ele>830.0</ele><time>2026-03-24T13:04:31.961Z</time></trkpt><trkpt lat="42.0251543" lon="13.6920734"><ele>830.0</ele><time>2026-03-24T13:04:32.96Z</time></trkpt><trkpt lat="42.0251863" lon="13.6919062"><ele>830.0</ele><time>2026-03-24T13:04:33.96Z</time></trkpt><trkpt lat="42.025231" lon="13.6917403"><ele>826.0</ele><time>2026-03-24T13:04:34.96Z</time></trkpt><trkpt lat="42.0252962" lon="13.6915868"><ele>822.0</ele><time>2026-03-24T13:04:35.96Z</time></trkpt><trkpt lat="42.0253867" lon="13.6914482"><ele>818.0</ele><time>2026-03-24T13:04:36.96Z</time></trkpt><trkpt lat="42.0254997" lon="13.6913101"><ele>814.0</ele><time>2026-03-24T13:04:37.96Z</time></trkpt><trkpt lat="42.0256126" lon="13.6911567"><ele>817.6666666666666</ele><time>2026-03-24T13:04:38.96Z</time></trkpt><trkpt lat="42.0257197" lon="13.6909881"><ele>821.3333333333333</ele><time>2026-03-24T13:04:39.96Z</time></trkpt><trkpt lat="42.0258182" lon="13.690805"><ele>825.0</ele><time>2026-03-24T13:04:40.96Z</time></trkpt><trkpt lat="42.0259103" lon="13.6906086"><ele>825.0</ele><time>2026-03-24T13:04:41.961Z</time></trkpt><trkpt lat="42.0259959" lon="13.6904085"><ele>825.0</ele><time>2026-03-24T13:04:42.961Z</time></trkpt><trkpt lat="42.0260629" lon="13.6901921"><ele>825.0</ele><time>2026-03-24T13:04:43.96Z</time></trkpt><trkpt lat="42.0260989" lon="13.6899699"><ele>819.3333333333333</ele><time>2026-03-24T13:04:44.961Z</time></trkpt><trkpt lat="42.0261193" lon="13.6897469"><ele>813.6666666666666</ele><time>2026-03-24T13:04:45.96Z</time></trkpt><trkpt lat="42.0261488" lon="13.6895357"><ele>808.0</ele><time>2026-03-24T13:04:46.96Z</time></trkpt><trkpt lat="42.0262096" lon="13.6893418"><ele>804.0</ele><time>2026-03-24T13:04:47.96Z</time></trkpt><trkpt lat="42.0262841" lon="13.6891576"><ele>800.0</ele><time>2026-03-24T13:04:48.96Z</time></trkpt><trkpt lat="42.0263753" lon="13.6889855"><ele>796.0</ele><time>2026-03-24T13:04:49.96Z</time></trkpt><trkpt lat="42.026467" lon="13.6888241"><ele>796.0</ele><time>2026-03-24T13:04:50.96Z</time></trkpt><trkpt lat="42.0265344" lon="13.6886543"><ele>796.0</ele><time>2026-03-24T13:04:51.96Z</time></trkpt><trkpt lat="42.0265691" lon="13.6884776"><ele>796.0</ele><time>2026-03-24T13:04:52.96Z</time></trkpt><trkpt lat="42.0265677" lon="13.6882967"><ele>796.0</ele><time>2026-03-24T13:04:53.96Z</time></trkpt><trkpt lat="42.02654" lon="13.6881012"><ele>793.0</ele><time>2026-03-24T13:04:54.96Z</time></trkpt><trkpt lat="42.0265048" lon="13.6878917"><ele>790.0</ele><time>2026-03-24T13:04:55.961Z</time></trkpt><trkpt lat="42.0264769" lon="13.6876632"><ele>787.0</ele><time>2026-03-24T13:04:56.96Z</time></trkpt><trkpt lat="42.0264704" lon="13.6874281"><ele>785.6666666666666</ele><time>2026-03-24T13:04:57.96Z</time></trkpt><trkpt lat="42.0264815" lon="13.6871809"><ele>784.3333333333333</ele><time>2026-03-24T13:04:58.961Z</time></trkpt><trkpt lat="42.0265163" lon="13.6869263"><ele>783.0</ele><time>2026-03-24T13:04:59.96Z</time></trkpt><trkpt lat="42.0265739" lon="13.6866714"><ele>789.0</ele><time>2026-03-24T13:05:00.96Z</time></trkpt><trkpt lat="42.0266486" lon="13.6864211"><ele>795.0</ele><time>2026-03-24T13:05:01.961Z</time></trkpt><trkpt lat="42.0267355" lon="13.6861905"><ele>801.0</ele><time>2026-03-24T13:05:02.96Z</time></trkpt><trkpt lat="42.0268315" lon="13.6859824"><ele>801.0</ele><time>2026-03-24T13:05:03.96Z</time></trkpt><trkpt lat="42.026921" lon="13.6857801"><ele>801.0</ele><time>2026-03-24T13:05:04.96Z</time></trkpt><trkpt lat="42.0269787" lon="13.6855635"><ele>801.0</ele><time>2026-03-24T13:05:05.96Z</time></trkpt><trkpt lat="42.0270107" lon="13.6853402"><ele>798.6666666666667</ele><time>2026-03-24T13:05:06.961Z</time></trkpt><trkpt lat="42.0270251" lon="13.6851025"><ele>796.3333333333334</ele><time>2026-03-24T13:05:07.961Z</time></trkpt><trkpt lat="42.0270419" lon="13.6848603"><ele>794.0</ele><time>2026-03-24T13:05:08.96Z</time></trkpt><trkpt lat="42.0270792" lon="13.6846256"><ele>791.6666666666667</ele><time>2026-03-24T13:05:09.96Z</time></trkpt><trkpt lat="42.0271438" lon="13.6844055"><ele>789.3333333333333</ele><time>2026-03-24T13:05:10.96Z</time></trkpt><trkpt lat="42.0272288" lon="13.6842034"><ele>787.0</ele><time>2026-03-24T13:05:11.96Z</time></trkpt><trkpt lat="42.0273156" lon="13.6839906"><ele>787.0</ele><time>2026-03-24T13:05:12.96Z</time></trkpt><trkpt lat="42.0273875" lon="13.683774"><ele>787.0</ele><time>2026-03-24T13:05:13.96Z</time></trkpt><trkpt lat="42.0274353" lon="13.6835481"><ele>787.0</ele><time>2026-03-24T13:05:14.96Z</time></trkpt><trkpt lat="42.0274575" lon="13.6833136"><ele>784.3333333333333</ele><time>2026-03-24T13:05:15.961Z</time></trkpt><trkpt lat="42.0274645" lon="13.6830878"><ele>781.6666666666667</ele><time>2026-03-24T13:05:16.96Z</time></trkpt><trkpt lat="42.0274664" lon="13.6828533"><ele>779.0</ele><time>2026-03-24T13:05:17.96Z</time></trkpt><trkpt lat="42.0274695" lon="13.6826225"><ele>785.0</ele><time>2026-03-24T13:05:18.96Z</time></trkpt><trkpt lat="42.0274904" lon="13.6823894"><ele>791.0</ele><time>2026-03-24T13:05:19.96Z</time></trkpt><trkpt lat="42.0275369" lon="13.6821664"><ele>797.0</ele><time>2026-03-24T13:05:20.96Z</time></trkpt><trkpt lat="42.0275925" lon="13.6819403"><ele>793.0</ele><time>2026-03-24T13:05:21.961Z</time></trkpt><trkpt lat="42.027654" lon="13.6817283"><ele>789.0</ele><time>2026-03-24T13:05:22.961Z</time></trkpt><trkpt lat="42.0277182" lon="13.6815296"><ele>785.0</ele><time>2026-03-24T13:05:23.961Z</time></trkpt><trkpt lat="42.0277822" lon="13.681338"><ele>785.0</ele><time>2026-03-24T13:05:24.96Z</time></trkpt><trkpt lat="42.0278583" lon="13.68116"><ele>785.0</ele><time>2026-03-24T13:05:25.96Z</time></trkpt><trkpt lat="42.0279552" lon="13.6810131"><ele>785.0</ele><time>2026-03-24T13:05:26.96Z</time></trkpt><trkpt lat="42.0280708" lon="13.6809015"><ele>785.0</ele><time>2026-03-24T13:05:27.96Z</time></trkpt><trkpt lat="42.0281945" lon="13.6808116"><ele>782.5</ele><time>2026-03-24T13:05:28.96Z</time></trkpt><trkpt lat="42.0283044" lon="13.6807171"><ele>780.0</ele><time>2026-03-24T13:05:29.96Z</time></trkpt><trkpt lat="42.0284053" lon="13.6806035"><ele>777.5</ele><time>2026-03-24T13:05:30.96Z</time></trkpt><trkpt lat="42.028464" lon="13.680456"><ele>775.0</ele><time>2026-03-24T13:05:31.961Z</time></trkpt><trkpt lat="42.0284941" lon="13.6802855"><ele>778.0</ele><time>2026-03-24T13:05:32.961Z</time></trkpt><trkpt lat="42.0285134" lon="13.680099"><ele>781.0</ele><time>2026-03-24T13:05:33.961Z</time></trkpt><trkpt lat="42.0285174" lon="13.6798984"><ele>784.0</ele><time>2026-03-24T13:05:34.96Z</time></trkpt><trkpt lat="42.02852" lon="13.6796856"><ele>787.0</ele><time>2026-03-24T13:05:35.961Z</time></trkpt><trkpt lat="42.028521" lon="13.6794857"><ele>785.25</ele><time>2026-03-24T13:05:36.961Z</time></trkpt><trkpt lat="42.0285326" lon="13.6792926"><ele>783.5</ele><time>2026-03-24T13:05:37.961Z</time></trkpt><trkpt lat="42.0285719" lon="13.6791085"><ele>781.75</ele><time>2026-03-24T13:05:38.96Z</time></trkpt><trkpt lat="42.0286271" lon="13.6789318"><ele>780.0</ele><time>2026-03-24T13:05:39.96Z</time></trkpt><trkpt lat="42.028706" lon="13.6787622"><ele>776.3333333333333</ele><time>2026-03-24T13:05:40.96Z</time></trkpt><trkpt lat="42.0287938" lon="13.6785898"><ele>772.6666666666666</ele><time>2026-03-24T13:05:41.96Z</time></trkpt><trkpt lat="42.0288829" lon="13.6784095"><ele>769.0</ele><time>2026-03-24T13:05:42.96Z</time></trkpt><trkpt lat="42.0289682" lon="13.6782221"><ele>769.0</ele><time>2026-03-24T13:05:43.961Z</time></trkpt><trkpt lat="42.0290507" lon="13.6780348"><ele>769.0</ele><time>2026-03-24T13:05:44.96Z</time></trkpt><trkpt lat="42.0291291" lon="13.6778437"><ele>769.0</ele><time>2026-03-24T13:05:45.96Z</time></trkpt><trkpt lat="42.0292038" lon="13.6776555"><ele>768.75</ele><time>2026-03-24T13:05:46.961Z</time></trkpt><trkpt lat="42.0292677" lon="13.6774687"><ele>768.5</ele><time>2026-03-24T13:05:47.961Z</time></trkpt><trkpt lat="42.0293144" lon="13.677282"><ele>768.25</ele><time>2026-03-24T13:05:48.96Z</time></trkpt><trkpt lat="42.02936" lon="13.6770963"><ele>768.0</ele><time>2026-03-24T13:05:49.96Z</time></trkpt><trkpt lat="42.0294059" lon="13.6769149"><ele>768.0</ele><time>2026-03-24T13:05:50.961Z</time></trkpt><trkpt lat="42.0294506" lon="13.6767399"><ele>768.0</ele><time>2026-03-24T13:05:51.961Z</time></trkpt><trkpt lat="42.0295116" lon="13.6765772"><ele>768.0</ele><time>2026-03-24T13:05:52.961Z</time></trkpt><trkpt lat="42.0295861" lon="13.6764187"><ele>768.0</ele><time>2026-03-24T13:05:53.96Z</time></trkpt><trkpt lat="42.0296827" lon="13.6762713"><ele>768.0</ele><time>2026-03-24T13:05:54.961Z</time></trkpt><trkpt lat="42.0297941" lon="13.6761242"><ele>768.0</ele><time>2026-03-24T13:05:55.96Z</time></trkpt><trkpt lat="42.0299075" lon="13.6759677"><ele>768.0</ele><time>2026-03-24T13:05:56.96Z</time></trkpt><trkpt lat="42.0300129" lon="13.6757951"><ele>767.6666666666666</ele><time>2026-03-24T13:05:57.96Z</time></trkpt><trkpt lat="42.0301097" lon="13.6756038"><ele>767.3333333333333</ele><time>2026-03-24T13:05:58.96Z</time></trkpt><trkpt lat="42.0301932" lon="13.6754012"><ele>767.0</ele><time>2026-03-24T13:05:59.96Z</time></trkpt><trkpt lat="42.0302492" lon="13.6751963"><ele>767.0</ele><time>2026-03-24T13:06:00.96Z</time></trkpt><trkpt lat="42.0302776" lon="13.6749776"><ele>767.0</ele><time>2026-03-24T13:06:01.96Z</time></trkpt><trkpt lat="42.0302862" lon="13.6747505"><ele>767.0</ele><time>2026-03-24T13:06:02.96Z</time></trkpt><trkpt lat="42.0302899" lon="13.6745175"><ele>764.6666666666666</ele><time>2026-03-24T13:06:03.96Z</time></trkpt><trkpt lat="42.0302896" lon="13.6742834"><ele>762.3333333333334</ele><time>2026-03-24T13:06:04.961Z</time></trkpt><trkpt lat="42.0302861" lon="13.6740483"><ele>760.0</ele><time>2026-03-24T13:06:05.961Z</time></trkpt><trkpt lat="42.030285" lon="13.6738188"><ele>760.0</ele><time>2026-03-24T13:06:06.96Z</time></trkpt><trkpt lat="42.0302834" lon="13.6736189"><ele>760.0</ele><time>2026-03-24T13:06:07.96Z</time></trkpt><trkpt lat="42.0302858" lon="13.673439"><ele>760.0</ele><time>2026-03-24T13:06:08.961Z</time></trkpt><trkpt lat="42.0303028" lon="13.673277"><ele>760.0</ele><time>2026-03-24T13:06:09.96Z</time></trkpt><trkpt lat="42.0303471" lon="13.6731327"><ele>759.0</ele><time>2026-03-24T13:06:10.96Z</time></trkpt><trkpt lat="42.0304188" lon="13.673018"><ele>758.0</ele><time>2026-03-24T13:06:11.96Z</time></trkpt><trkpt lat="42.0305096" lon="13.6729248"><ele>757.0</ele><time>2026-03-24T13:06:12.96Z</time></trkpt><trkpt lat="42.0306173" lon="13.6728446"><ele>756.0</ele><time>2026-03-24T13:06:13.96Z</time></trkpt><trkpt lat="42.0307299" lon="13.6727695"><ele>756.1999999999999</ele><time>2026-03-24T13:06:14.961Z</time></trkpt><trkpt lat="42.0308385" lon="13.6727"><ele>756.4</ele><time>2026-03-24T13:06:15.96Z</time></trkpt><trkpt lat="42.0309292" lon="13.6726168"><ele>756.6</ele><time>2026-03-24T13:06:16.96Z</time></trkpt><trkpt lat="42.0309925" lon="13.6725116"><ele>756.8</ele><time>2026-03-24T13:06:17.96Z</time></trkpt><trkpt lat="42.0310281" lon="13.6723834"><ele>757.0</ele><time>2026-03-24T13:06:18.96Z</time></trkpt><trkpt lat="42.0310242" lon="13.6722439"><ele>757.0</ele><time>2026-03-24T13:06:19.961Z</time></trkpt><trkpt lat="42.0309859" lon="13.6720966"><ele>757.0</ele><time>2026-03-24T13:06:20.96Z</time></trkpt><trkpt lat="42.0309179" lon="13.6719539"><ele>757.0</ele><time>2026-03-24T13:06:21.96Z</time></trkpt><trkpt lat="42.0308347" lon="13.6718087"><ele>757.0</ele><time>2026-03-24T13:06:22.96Z</time></trkpt><trkpt lat="42.0307464" lon="13.6716526"><ele>755.3333333333334</ele><time>2026-03-24T13:06:23.961Z</time></trkpt><trkpt lat="42.0306588" lon="13.6714841"><ele>753.6666666666666</ele><time>2026-03-24T13:06:24.96Z</time></trkpt><trkpt lat="42.0305711" lon="13.6713095"><ele>752.0</ele><time>2026-03-24T13:06:25.961Z</time></trkpt><trkpt lat="42.030488" lon="13.6711357"><ele>753.3333333333333</ele><time>2026-03-24T13:06:26.96Z</time></trkpt><trkpt lat="42.0304256" lon="13.6709514"><ele>754.6666666666666</ele><time>2026-03-24T13:06:27.961Z</time></trkpt><trkpt lat="42.0303713" lon="13.6707497"><ele>756.0</ele><time>2026-03-24T13:06:28.96Z</time></trkpt><trkpt lat="42.0303388" lon="13.6705266"><ele>756.0</ele><time>2026-03-24T13:06:29.961Z</time></trkpt><trkpt lat="42.0303074" lon="13.6702861"><ele>756.0</ele><time>2026-03-24T13:06:30.961Z</time></trkpt><trkpt lat="42.0302768" lon="13.6700337"><ele>756.0</ele><time>2026-03-24T13:06:31.96Z</time></trkpt><trkpt lat="42.0302439" lon="13.6697768"><ele>756.3333333333334</ele><time>2026-03-24T13:06:32.96Z</time></trkpt><trkpt lat="42.0302141" lon="13.6695248"><ele>756.6666666666667</ele><time>2026-03-24T13:06:33.96Z</time></trkpt><trkpt lat="42.0301837" lon="13.669287"><ele>757.0</ele><time>2026-03-24T13:06:34.961Z</time></trkpt><trkpt lat="42.0301544" lon="13.6690631"><ele>757.0</ele><time>2026-03-24T13:06:35.961Z</time></trkpt><trkpt lat="42.0301242" lon="13.6688515"><ele>757.0</ele><time>2026-03-24T13:06:36.96Z</time></trkpt><trkpt lat="42.0300921" lon="13.6686508"><ele>757.0</ele><time>2026-03-24T13:06:37.96Z</time></trkpt><trkpt lat="42.0300494" lon="13.6684704"><ele>756.5</ele><time>2026-03-24T13:06:38.96Z</time></trkpt><trkpt lat="42.0299863" lon="13.6683083"><ele>756.0</ele><time>2026-03-24T13:06:39.961Z</time></trkpt><trkpt lat="42.0299046" lon="13.6681705"><ele>755.5</ele><time>2026-03-24T13:06:40.961Z</time></trkpt><trkpt lat="42.0298327" lon="13.668036"><ele>755.0</ele><time>2026-03-24T13:06:41.96Z</time></trkpt><trkpt lat="42.0297649" lon="13.6679068"><ele>755.4</ele><time>2026-03-24T13:06:42.96Z</time></trkpt><trkpt lat="42.0297047" lon="13.6677812"><ele>755.8</ele><time>2026-03-24T13:06:43.96Z</time></trkpt><trkpt lat="42.0296381" lon="13.6676536"><ele>756.2</ele><time>2026-03-24T13:06:44.96Z</time></trkpt><trkpt lat="42.029594" lon="13.6675204"><ele>756.6</ele><time>2026-03-24T13:06:45.96Z</time></trkpt><trkpt lat="42.0295687" lon="13.6673805"><ele>757.0</ele><time>2026-03-24T13:06:46.961Z</time></trkpt><trkpt lat="42.0295843" lon="13.6672288"><ele>757.0</ele><time>2026-03-24T13:06:47.961Z</time></trkpt><trkpt lat="42.0296155" lon="13.6670687"><ele>757.0</ele><time>2026-03-24T13:06:48.96Z</time></trkpt><trkpt lat="42.0296455" lon="13.6668899"><ele>757.0</ele><time>2026-03-24T13:06:49.961Z</time></trkpt><trkpt lat="42.0296812" lon="13.6666927"><ele>757.0</ele><time>2026-03-24T13:06:50.96Z</time></trkpt><trkpt lat="42.0297029" lon="13.666485"><ele>756.6666666666667</ele><time>2026-03-24T13:06:51.961Z</time></trkpt><trkpt lat="42.0297083" lon="13.6662712"><ele>756.3333333333334</ele><time>2026-03-24T13:06:52.96Z</time></trkpt><trkpt lat="42.0297001" lon="13.6660538"><ele>756.0</ele><time>2026-03-24T13:06:53.961Z</time></trkpt><trkpt lat="42.029676" lon="13.6658356"><ele>756.0</ele><time>2026-03-24T13:06:54.96Z</time></trkpt><trkpt lat="42.0296423" lon="13.665626"><ele>756.0</ele><time>2026-03-24T13:06:55.961Z</time></trkpt><trkpt lat="42.029597" lon="13.6654321"><ele>756.0</ele><time>2026-03-24T13:06:56.96Z</time></trkpt><trkpt lat="42.0295404" lon="13.6652445"><ele>752.5</ele><time>2026-03-24T13:06:57.961Z</time></trkpt><trkpt lat="42.0294858" lon="13.66508"><ele>749.0</ele><time>2026-03-24T13:06:58.96Z</time></trkpt><trkpt lat="42.0294202" lon="13.6649226"><ele>745.5</ele><time>2026-03-24T13:06:59.961Z</time></trkpt><trkpt lat="42.0293488" lon="13.6647741"><ele>742.0</ele><time>2026-03-24T13:07:00.96Z</time></trkpt><trkpt lat="42.0292642" lon="13.6646366"><ele>742.0</ele><time>2026-03-24T13:07:01.96Z</time></trkpt><trkpt lat="42.0291626" lon="13.6645083"><ele>742.0</ele><time>2026-03-24T13:07:02.96Z</time></trkpt><trkpt lat="42.0290524" lon="13.6643844"><ele>742.0</ele><time>2026-03-24T13:07:03.961Z</time></trkpt><trkpt lat="42.0289423" lon="13.6642655"><ele>742.0</ele><time>2026-03-24T13:07:04.96Z</time></trkpt><trkpt lat="42.028833" lon="13.6641388"><ele>740.75</ele><time>2026-03-24T13:07:05.96Z</time></trkpt><trkpt lat="42.0287216" lon="13.6640106"><ele>739.5</ele><time>2026-03-24T13:07:06.961Z</time></trkpt><trkpt lat="42.0286136" lon="13.663877"><ele>738.25</ele><time>2026-03-24T13:07:07.961Z</time></trkpt><trkpt lat="42.0285068" lon="13.6637306"><ele>737.0</ele><time>2026-03-24T13:07:08.96Z</time></trkpt><trkpt lat="42.0284008" lon="13.6635889"><ele>738.0</ele><time>2026-03-24T13:07:09.96Z</time></trkpt><trkpt lat="42.0282966" lon="13.6634306"><ele>739.0</ele><time>2026-03-24T13:07:10.96Z</time></trkpt><trkpt lat="42.0281975" lon="13.6632644"><ele>740.0</ele><time>2026-03-24T13:07:11.96Z</time></trkpt><trkpt lat="42.0281053" lon="13.6630971"><ele>740.0</ele><time>2026-03-24T13:07:12.96Z</time></trkpt><trkpt lat="42.0280174" lon="13.6629243"><ele>740.0</ele><time>2026-03-24T13:07:13.96Z</time></trkpt><trkpt lat="42.0279297" lon="13.662761"><ele>740.0</ele><time>2026-03-24T13:07:14.96Z</time></trkpt><trkpt lat="42.0278491" lon="13.6626088"><ele>740.0</ele><time>2026-03-24T13:07:15.96Z</time></trkpt><trkpt lat="42.027769" lon="13.6624521"><ele>738.25</ele><time>2026-03-24T13:07:16.96Z</time></trkpt><trkpt lat="42.0276919" lon="13.6623093"><ele>736.5</ele><time>2026-03-24T13:07:17.96Z</time></trkpt><trkpt lat="42.0276281" lon="13.6621795"><ele>734.75</ele><time>2026-03-24T13:07:18.96Z</time></trkpt><trkpt lat="42.0275579" lon="13.6620608"><ele>733.0</ele><time>2026-03-24T13:07:19.96Z</time></trkpt><trkpt lat="42.0274805" lon="13.661932"><ele>733.25</ele><time>2026-03-24T13:07:20.96Z</time></trkpt><trkpt lat="42.0274073" lon="13.6617969"><ele>733.5</ele><time>2026-03-24T13:07:21.96Z</time></trkpt><trkpt lat="42.0273372" lon="13.6616646"><ele>733.75</ele><time>2026-03-24T13:07:22.96Z</time></trkpt><trkpt lat="42.0272629" lon="13.6615326"><ele>734.0</ele><time>2026-03-24T13:07:23.96Z</time></trkpt><trkpt lat="42.0271865" lon="13.6613935"><ele>734.0</ele><time>2026-03-24T13:07:24.96Z</time></trkpt><trkpt lat="42.0271098" lon="13.6612478"><ele>734.0</ele><time>2026-03-24T13:07:25.961Z</time></trkpt><trkpt lat="42.0270352" lon="13.6611055"><ele>734.0</ele><time>2026-03-24T13:07:26.96Z</time></trkpt><trkpt lat="42.0269635" lon="13.6609548"><ele>734.0</ele><time>2026-03-24T13:07:27.96Z</time></trkpt><trkpt lat="42.0268957" lon="13.6608214"><ele>733.0</ele><time>2026-03-24T13:07:28.96Z</time></trkpt><trkpt lat="42.0268278" lon="13.6606975"><ele>732.0</ele><time>2026-03-24T13:07:29.96Z</time></trkpt><trkpt lat="42.0267677" lon="13.6605824"><ele>731.0</ele><time>2026-03-24T13:07:30.961Z</time></trkpt><trkpt lat="42.0267075" lon="13.6604711"><ele>730.0</ele><time>2026-03-24T13:07:31.961Z</time></trkpt><trkpt lat="42.0266508" lon="13.6603593"><ele>729.0</ele><time>2026-03-24T13:07:32.96Z</time></trkpt><trkpt lat="42.0265936" lon="13.6602562"><ele>728.8333333333334</ele><time>2026-03-24T13:07:33.961Z</time></trkpt><trkpt lat="42.0265438" lon="13.6601681"><ele>728.6666666666666</ele><time>2026-03-24T13:07:34.96Z</time></trkpt><trkpt lat="42.0265059" lon="13.6600915"><ele>728.5</ele><time>2026-03-24T13:07:35.961Z</time></trkpt><trkpt lat="42.0264604" lon="13.6600079"><ele>728.3333333333333</ele><time>2026-03-24T13:07:37.96Z</time></trkpt><trkpt lat="42.0264864" lon="13.6599297"><ele>728.1666666666666</ele><time>2026-03-24T13:07:46.96Z</time></trkpt><trkpt lat="42.0266155" lon="13.6598911"><ele>728.0</ele><time>2026-03-24T13:07:49.96Z</time></trkpt><trkpt lat="42.0266945" lon="13.6598396"><ele>728.5</ele><time>2026-03-24T13:07:50.96Z</time></trkpt><trkpt lat="42.0267647" lon="13.6597879"><ele>729.0</ele><time>2026-03-24T13:07:51.961Z</time></trkpt><trkpt lat="42.0268332" lon="13.6597462"><ele>729.5</ele><time>2026-03-24T13:07:52.96Z</time></trkpt><trkpt lat="42.0269051" lon="13.6597089"><ele>730.0</ele><time>2026-03-24T13:07:53.961Z</time></trkpt><trkpt lat="42.0269872" lon="13.6596644"><ele>730.5</ele><time>2026-03-24T13:07:54.961Z</time></trkpt><trkpt lat="42.027065" lon="13.6596227"><ele>731.0</ele><time>2026-03-24T13:07:55.96Z</time></trkpt><trkpt lat="42.0271529" lon="13.659563"><ele>731.0</ele><time>2026-03-24T13:07:56.96Z</time></trkpt><trkpt lat="42.0272339" lon="13.6595056"><ele>731.0</ele><time>2026-03-24T13:07:57.96Z</time></trkpt><trkpt lat="42.0273215" lon="13.6594572"><ele>731.0</ele><time>2026-03-24T13:07:58.96Z</time></trkpt><trkpt lat="42.0274156" lon="13.6593623"><ele>731.0</ele><time>2026-03-24T13:07:59.96Z</time></trkpt><trkpt lat="42.0275047" lon="13.659286"><ele>731.0</ele><time>2026-03-24T13:08:00.96Z</time></trkpt><trkpt lat="42.0275656" lon="13.6592335"><ele>733.5</ele><time>2026-03-24T13:08:01.961Z</time></trkpt><trkpt lat="42.0276242" lon="13.6591738"><ele>736.0</ele><time>2026-03-24T13:08:02.96Z</time></trkpt><trkpt lat="42.0276723" lon="13.6591185"><ele>738.5</ele><time>2026-03-24T13:08:03.96Z</time></trkpt><trkpt lat="42.0277815" lon="13.6590194"><ele>741.0</ele><time>2026-03-24T13:08:05.96Z</time></trkpt><trkpt lat="42.027849" lon="13.6589675"><ele>743.5</ele><time>2026-03-24T13:08:06.961Z</time></trkpt><trkpt lat="42.0279251" lon="13.6589094"><ele>746.0</ele><time>2026-03-24T13:08:07.961Z</time></trkpt><trkpt lat="42.028009" lon="13.6588485"><ele>746.0</ele><time>2026-03-24T13:08:08.96Z</time></trkpt><trkpt lat="42.0281001" lon="13.6587784"><ele>746.0</ele><time>2026-03-24T13:08:09.96Z</time></trkpt><trkpt lat="42.0281935" lon="13.6587108"><ele>746.0</ele><time>2026-03-24T13:08:10.961Z</time></trkpt><trkpt lat="42.0282846" lon="13.658639"><ele>746.0</ele><time>2026-03-24T13:08:11.96Z</time></trkpt><trkpt lat="42.0283718" lon="13.6585578"><ele>746.0</ele><time>2026-03-24T13:08:12.961Z</time></trkpt><trkpt lat="42.0284586" lon="13.6584791"><ele>749.1999999999999</ele><time>2026-03-24T13:08:13.96Z</time></trkpt><trkpt lat="42.0285502" lon="13.6583895"><ele>752.4</ele><time>2026-03-24T13:08:14.96Z</time></trkpt><trkpt lat="42.0286334" lon="13.658309"><ele>755.6</ele><time>2026-03-24T13:08:15.961Z</time></trkpt><trkpt lat="42.0287097" lon="13.6582444"><ele>758.8</ele><time>2026-03-24T13:08:16.96Z</time></trkpt><trkpt lat="42.0287698" lon="13.6581917"><ele>762.0</ele><time>2026-03-24T13:08:17.96Z</time></trkpt><trkpt lat="42.0288638" lon="13.6581234"><ele>762.0</ele><time>2026-03-24T13:08:19.96Z</time></trkpt><trkpt lat="42.0289296" lon="13.6580805"><ele>762.0</ele><time>2026-03-24T13:08:22.96Z</time></trkpt><trkpt lat="42.0289938" lon="13.6580138"><ele>762.0</ele><time>2026-03-24T13:11:38.924Z</time></trkpt><trkpt lat="42.0290678" lon="13.6581294"><ele>762.0</ele><time>2026-03-24T13:11:40.924Z</time></trkpt><trkpt lat="42.0290778" lon="13.6582825"><ele>762.0</ele><time>2026-03-24T13:11:42.925Z</time></trkpt><trkpt lat="42.0290468" lon="13.6583667"><ele>762.0</ele><time>2026-03-24T13:11:43.924Z</time></trkpt><trkpt lat="42.0289992" lon="13.6584469"><ele>762.0</ele><time>2026-03-24T13:11:44.924Z</time></trkpt><trkpt lat="42.0289405" lon="13.6585384"><ele>762.0</ele><time>2026-03-24T13:11:45.924Z</time></trkpt><trkpt lat="42.0288801" lon="13.65863"><ele>762.0</ele><time>2026-03-24T13:11:46.924Z</time></trkpt><trkpt lat="42.0288101" lon="13.6587353"><ele>762.0</ele><time>2026-03-24T13:11:47.924Z</time></trkpt><trkpt lat="42.0287335" lon="13.6588515"><ele>762.0</ele><time>2026-03-24T13:11:48.925Z</time></trkpt><trkpt lat="42.0286559" lon="13.6589791"><ele>762.0</ele><time>2026-03-24T13:11:49.924Z</time></trkpt><trkpt lat="42.0285681" lon="13.6591042"><ele>762.0</ele><time>2026-03-24T13:11:50.924Z</time></trkpt><trkpt lat="42.0284816" lon="13.6592247"><ele>762.0</ele><time>2026-03-24T13:11:51.924Z</time></trkpt><trkpt lat="42.028405" lon="13.6593425"><ele>762.0</ele><time>2026-03-24T13:11:52.924Z</time></trkpt><trkpt lat="42.028344" lon="13.6594535"><ele>762.0</ele><time>2026-03-24T13:11:53.924Z</time></trkpt><trkpt lat="42.0283093" lon="13.6595709"><ele>762.0</ele><time>2026-03-24T13:11:54.925Z</time></trkpt><trkpt lat="42.0283122" lon="13.6596996"><ele>762.0</ele><time>2026-03-24T13:11:55.925Z</time></trkpt><trkpt lat="42.0283507" lon="13.6598247"><ele>762.0</ele><time>2026-03-24T13:11:56.924Z</time></trkpt><trkpt lat="42.0284223" lon="13.6599525"><ele>762.0</ele><time>2026-03-24T13:11:57.924Z</time></trkpt><trkpt lat="42.0285108" lon="13.6600838"><ele>762.0</ele><time>2026-03-24T13:11:58.925Z</time></trkpt><trkpt lat="42.0286137" lon="13.6602242"><ele>762.0</ele><time>2026-03-24T13:11:59.924Z</time></trkpt><trkpt lat="42.0287187" lon="13.6603667"><ele>762.0</ele><time>2026-03-24T13:12:00.924Z</time></trkpt><trkpt lat="42.0288294" lon="13.6605053"><ele>764.3333333333333</ele><time>2026-03-24T13:12:01.924Z</time></trkpt><trkpt lat="42.0289433" lon="13.6606392"><ele>766.6666666666666</ele><time>2026-03-24T13:12:02.924Z</time></trkpt><trkpt lat="42.0290692" lon="13.6607605"><ele>769.0</ele><time>2026-03-24T13:12:03.924Z</time></trkpt><trkpt lat="42.0292036" lon="13.6608551"><ele>769.0</ele><time>2026-03-24T13:12:04.924Z</time></trkpt><trkpt lat="42.029351" lon="13.6609231"><ele>769.0</ele><time>2026-03-24T13:12:05.925Z</time></trkpt><trkpt lat="42.0295092" lon="13.6609806"><ele>769.0</ele><time>2026-03-24T13:12:06.924Z</time></trkpt><trkpt lat="42.0296662" lon="13.6610399"><ele>769.0</ele><time>2026-03-24T13:12:07.924Z</time></trkpt><trkpt lat="42.0298253" lon="13.6611133"><ele>769.0</ele><time>2026-03-24T13:12:08.924Z</time></trkpt><trkpt lat="42.0299768" lon="13.6612049"><ele>769.0</ele><time>2026-03-24T13:12:09.925Z</time></trkpt><trkpt lat="42.0301221" lon="13.6613251"><ele>772.0</ele><time>2026-03-24T13:12:10.924Z</time></trkpt><trkpt lat="42.0302675" lon="13.6614563"><ele>775.0</ele><time>2026-03-24T13:12:11.924Z</time></trkpt><trkpt lat="42.0304131" lon="13.6615864"><ele>778.0</ele><time>2026-03-24T13:12:12.924Z</time></trkpt><trkpt lat="42.0305551" lon="13.661711"><ele>778.0</ele><time>2026-03-24T13:12:13.924Z</time></trkpt><trkpt lat="42.0306978" lon="13.6618328"><ele>778.0</ele><time>2026-03-24T13:12:14.924Z</time></trkpt><trkpt lat="42.0308165" lon="13.661942"><ele>778.0</ele><time>2026-03-24T13:12:15.924Z</time></trkpt><trkpt lat="42.0309177" lon="13.6620375"><ele>778.0</ele><time>2026-03-24T13:12:16.925Z</time></trkpt><trkpt lat="42.0310015" lon="13.6621357"><ele>780.0</ele><time>2026-03-24T13:12:17.925Z</time></trkpt><trkpt lat="42.0310544" lon="13.6622324"><ele>782.0</ele><time>2026-03-24T13:12:18.924Z</time></trkpt><trkpt lat="42.0310707" lon="13.6623452"><ele>784.0</ele><time>2026-03-24T13:12:19.925Z</time></trkpt><trkpt lat="42.0310722" lon="13.6624624"><ele>786.0</ele><time>2026-03-24T13:12:20.924Z</time></trkpt><trkpt lat="42.031027" lon="13.6625927"><ele>788.0</ele><time>2026-03-24T13:12:21.924Z</time></trkpt><trkpt lat="42.0309848" lon="13.6627278"><ele>789.25</ele><time>2026-03-24T13:12:22.925Z</time></trkpt><trkpt lat="42.0309469" lon="13.662875"><ele>790.5</ele><time>2026-03-24T13:12:23.924Z</time></trkpt><trkpt lat="42.0309241" lon="13.6630252"><ele>791.75</ele><time>2026-03-24T13:12:24.925Z</time></trkpt><trkpt lat="42.0309322" lon="13.6631795"><ele>793.0</ele><time>2026-03-24T13:12:25.924Z</time></trkpt><trkpt lat="42.0309687" lon="13.6633297"><ele>793.0</ele><time>2026-03-24T13:12:26.925Z</time></trkpt><trkpt lat="42.0310324" lon="13.6634811"><ele>793.0</ele><time>2026-03-24T13:12:27.925Z</time></trkpt><trkpt lat="42.0311085" lon="13.6636409"><ele>793.0</ele><time>2026-03-24T13:12:28.924Z</time></trkpt><trkpt lat="42.0311882" lon="13.6638093"><ele>793.0</ele><time>2026-03-24T13:12:29.924Z</time></trkpt><trkpt lat="42.0312511" lon="13.6639646"><ele>793.0</ele><time>2026-03-24T13:12:30.924Z</time></trkpt><trkpt lat="42.0313037" lon="13.6641152"><ele>793.0</ele><time>2026-03-24T13:12:31.924Z</time></trkpt><trkpt lat="42.0313298" lon="13.664275"><ele>793.0</ele><time>2026-03-24T13:12:32.924Z</time></trkpt><trkpt lat="42.0313316" lon="13.6644425"><ele>793.0</ele><time>2026-03-24T13:12:33.925Z</time></trkpt><trkpt lat="42.0313162" lon="13.6646113"><ele>793.0</ele><time>2026-03-24T13:12:34.924Z</time></trkpt><trkpt lat="42.0312786" lon="13.6647756"><ele>793.0</ele><time>2026-03-24T13:12:35.925Z</time></trkpt><trkpt lat="42.0312179" lon="13.6649247"><ele>793.0</ele><time>2026-03-24T13:12:36.924Z</time></trkpt><trkpt lat="42.0311344" lon="13.6650559"><ele>793.0</ele><time>2026-03-24T13:12:37.924Z</time></trkpt><trkpt lat="42.0310276" lon="13.6651788"><ele>796.25</ele><time>2026-03-24T13:12:38.925Z</time></trkpt><trkpt lat="42.0309207" lon="13.6653114"><ele>799.5</ele><time>2026-03-24T13:12:39.924Z</time></trkpt><trkpt lat="42.0308286" lon="13.6654666"><ele>802.75</ele><time>2026-03-24T13:12:40.924Z</time></trkpt><trkpt lat="42.0307519" lon="13.665641"><ele>806.0</ele><time>2026-03-24T13:12:41.925Z</time></trkpt><trkpt lat="42.0306928" lon="13.6658362"><ele>792.6666666666667</ele><time>2026-03-24T13:12:42.924Z</time></trkpt><trkpt lat="42.0306502" lon="13.6660348"><ele>779.3333333333334</ele><time>2026-03-24T13:12:43.924Z</time></trkpt><trkpt lat="42.0306179" lon="13.6662331"><ele>766.0</ele><time>2026-03-24T13:12:44.924Z</time></trkpt><trkpt lat="42.0305861" lon="13.6664298"><ele>766.0</ele><time>2026-03-24T13:12:45.924Z</time></trkpt><trkpt lat="42.0305492" lon="13.6666233"><ele>766.0</ele><time>2026-03-24T13:12:46.924Z</time></trkpt><trkpt lat="42.0305175" lon="13.6668209"><ele>766.0</ele><time>2026-03-24T13:12:47.925Z</time></trkpt><trkpt lat="42.0304927" lon="13.6670026"><ele>766.0</ele><time>2026-03-24T13:12:48.924Z</time></trkpt><trkpt lat="42.030493" lon="13.6671544"><ele>765.8</ele><time>2026-03-24T13:12:49.925Z</time></trkpt><trkpt lat="42.0305192" lon="13.6672797"><ele>765.5999999999999</ele><time>2026-03-24T13:12:50.924Z</time></trkpt><trkpt lat="42.0305781" lon="13.6673847"><ele>765.4</ele><time>2026-03-24T13:12:51.925Z</time></trkpt><trkpt lat="42.0306619" lon="13.6674671"><ele>765.2</ele><time>2026-03-24T13:12:52.924Z</time></trkpt><trkpt lat="42.0307691" lon="13.667527"><ele>765.0</ele><time>2026-03-24T13:12:53.924Z</time></trkpt><trkpt lat="42.0308895" lon="13.6675757"><ele>776.5</ele><time>2026-03-24T13:12:54.924Z</time></trkpt><trkpt lat="42.0310192" lon="13.6676018"><ele>788.0</ele><time>2026-03-24T13:12:55.925Z</time></trkpt><trkpt lat="42.0311483" lon="13.6675941"><ele>799.5</ele><time>2026-03-24T13:12:56.924Z</time></trkpt><trkpt lat="42.0312632" lon="13.6675644"><ele>811.0</ele><time>2026-03-24T13:12:57.924Z</time></trkpt><trkpt lat="42.0313651" lon="13.6675348"><ele>811.0</ele><time>2026-03-24T13:12:58.924Z</time></trkpt><trkpt lat="42.0314546" lon="13.667532"><ele>811.0</ele><time>2026-03-24T13:12:59.924Z</time></trkpt><trkpt lat="42.0315434" lon="13.6675594"><ele>811.0</ele><time>2026-03-24T13:13:00.925Z</time></trkpt><trkpt lat="42.0316179" lon="13.6676184"><ele>811.0</ele><time>2026-03-24T13:13:01.924Z</time></trkpt><trkpt lat="42.0316788" lon="13.6677102"><ele>811.0</ele><time>2026-03-24T13:13:02.925Z</time></trkpt><trkpt lat="42.0317208" lon="13.6678296"><ele>814.0</ele><time>2026-03-24T13:13:03.924Z</time></trkpt><trkpt lat="42.0317592" lon="13.6679975"><ele>817.0</ele><time>2026-03-24T13:13:04.924Z</time></trkpt><trkpt lat="42.0317953" lon="13.6681934"><ele>820.0</ele><time>2026-03-24T13:13:05.925Z</time></trkpt><trkpt lat="42.0318437" lon="13.6684141"><ele>816.6666666666666</ele><time>2026-03-24T13:13:06.924Z</time></trkpt><trkpt lat="42.0319042" lon="13.6686505"><ele>813.3333333333333</ele><time>2026-03-24T13:13:07.925Z</time></trkpt><trkpt lat="42.0319681" lon="13.6688812"><ele>810.0</ele><time>2026-03-24T13:13:08.925Z</time></trkpt><trkpt lat="42.03204" lon="13.6691159"><ele>810.0</ele><time>2026-03-24T13:13:09.924Z</time></trkpt><trkpt lat="42.0321076" lon="13.6693348"><ele>810.0</ele><time>2026-03-24T13:13:10.925Z</time></trkpt><trkpt lat="42.0321694" lon="13.6695214"><ele>810.0</ele><time>2026-03-24T13:13:11.924Z</time></trkpt><trkpt lat="42.0322278" lon="13.6696777"><ele>807.75</ele><time>2026-03-24T13:13:12.924Z</time></trkpt><trkpt lat="42.0322952" lon="13.6698033"><ele>805.5</ele><time>2026-03-24T13:13:13.924Z</time></trkpt><trkpt lat="42.0323837" lon="13.6698921"><ele>803.25</ele><time>2026-03-24T13:13:14.924Z</time></trkpt><trkpt lat="42.0324901" lon="13.6699406"><ele>801.0</ele><time>2026-03-24T13:13:15.924Z</time></trkpt><trkpt lat="42.0326158" lon="13.6699679"><ele>806.75</ele><time>2026-03-24T13:13:16.925Z</time></trkpt><trkpt lat="42.0327539" lon="13.6699891"><ele>812.5</ele><time>2026-03-24T13:13:17.924Z</time></trkpt><trkpt lat="42.0328967" lon="13.6700149"><ele>818.25</ele><time>2026-03-24T13:13:18.924Z</time></trkpt><trkpt lat="42.0330374" lon="13.6700654"><ele>824.0</ele><time>2026-03-24T13:13:19.925Z</time></trkpt><trkpt lat="42.0331685" lon="13.6701442"><ele>824.0</ele><time>2026-03-24T13:13:20.925Z</time></trkpt><trkpt lat="42.0332955" lon="13.6702501"><ele>824.0</ele><time>2026-03-24T13:13:21.925Z</time></trkpt><trkpt lat="42.0334139" lon="13.6703809"><ele>824.0</ele><time>2026-03-24T13:13:22.924Z</time></trkpt><trkpt lat="42.0335193" lon="13.6705402"><ele>824.6666666666667</ele><time>2026-03-24T13:13:23.925Z</time></trkpt><trkpt lat="42.0336241" lon="13.6707128"><ele>825.3333333333333</ele><time>2026-03-24T13:13:24.924Z</time></trkpt><trkpt lat="42.0337263" lon="13.6709027"><ele>826.0</ele><time>2026-03-24T13:13:25.924Z</time></trkpt><trkpt lat="42.0338273" lon="13.6710936"><ele>820.3333333333333</ele><time>2026-03-24T13:13:26.924Z</time></trkpt><trkpt lat="42.0339222" lon="13.6712852"><ele>814.6666666666667</ele><time>2026-03-24T13:13:27.924Z</time></trkpt><trkpt lat="42.0340113" lon="13.6714667"><ele>809.0</ele><time>2026-03-24T13:13:28.925Z</time></trkpt><trkpt lat="42.0340892" lon="13.6716386"><ele>813.5</ele><time>2026-03-24T13:13:29.924Z</time></trkpt><trkpt lat="42.034147" lon="13.6718052"><ele>818.0</ele><time>2026-03-24T13:13:30.925Z</time></trkpt><trkpt lat="42.0341884" lon="13.6719637"><ele>822.5</ele><time>2026-03-24T13:13:31.925Z</time></trkpt><trkpt lat="42.034224" lon="13.6721108"><ele>827.0</ele><time>2026-03-24T13:13:32.925Z</time></trkpt><trkpt lat="42.0342641" lon="13.672236"><ele>827.0000000000001</ele><time>2026-03-24T13:13:33.924Z</time></trkpt><trkpt lat="42.0343167" lon="13.6723301"><ele>827.0</ele><time>2026-03-24T13:13:34.924Z</time></trkpt><trkpt lat="42.0343882" lon="13.6723899"><ele>827.0</ele><time>2026-03-24T13:13:35.924Z</time></trkpt><trkpt lat="42.0344673" lon="13.6723987"><ele>827.0</ele><time>2026-03-24T13:13:36.925Z</time></trkpt><trkpt lat="42.0345428" lon="13.6723739"><ele>827.0000000000001</ele><time>2026-03-24T13:13:37.925Z</time></trkpt><trkpt lat="42.0346143" lon="13.6722576"><ele>827.0</ele><time>2026-03-24T13:13:38.925Z</time></trkpt><trkpt lat="42.0346741" lon="13.6721241"><ele>827.0</ele><time>2026-03-24T13:13:39.924Z</time></trkpt><trkpt lat="42.0347333" lon="13.6719583"><ele>827.0</ele><time>2026-03-24T13:13:40.924Z</time></trkpt><trkpt lat="42.0347976" lon="13.6717731"><ele>827.0</ele><time>2026-03-24T13:13:41.924Z</time></trkpt><trkpt lat="42.0348702" lon="13.671583"><ele>827.0</ele><time>2026-03-24T13:13:42.924Z</time></trkpt><trkpt lat="42.0349407" lon="13.6713882"><ele>829.6666666666667</ele><time>2026-03-24T13:13:43.924Z</time></trkpt><trkpt lat="42.0350175" lon="13.6711925"><ele>832.3333333333333</ele><time>2026-03-24T13:13:44.925Z</time></trkpt><trkpt lat="42.035097" lon="13.6709807"><ele>835.0</ele><time>2026-03-24T13:13:45.925Z</time></trkpt><trkpt lat="42.0351739" lon="13.6707663"><ele>837.0</ele><time>2026-03-24T13:13:46.925Z</time></trkpt><trkpt lat="42.035243" lon="13.6705536"><ele>839.0</ele><time>2026-03-24T13:13:47.925Z</time></trkpt><trkpt lat="42.0352893" lon="13.6703249"><ele>841.0</ele><time>2026-03-24T13:13:48.924Z</time></trkpt><trkpt lat="42.0353085" lon="13.6700851"><ele>841.6666666666666</ele><time>2026-03-24T13:13:49.924Z</time></trkpt><trkpt lat="42.0353116" lon="13.6698344"><ele>842.3333333333333</ele><time>2026-03-24T13:13:50.924Z</time></trkpt><trkpt lat="42.0353051" lon="13.6695781"><ele>843.0</ele><time>2026-03-24T13:13:51.924Z</time></trkpt><trkpt lat="42.0352998" lon="13.6693246"><ele>843.3333333333333</ele><time>2026-03-24T13:13:52.924Z</time></trkpt><trkpt lat="42.0352984" lon="13.6690881"><ele>843.6666666666666</ele><time>2026-03-24T13:13:53.924Z</time></trkpt><trkpt lat="42.0352988" lon="13.6688848"><ele>844.0</ele><time>2026-03-24T13:13:54.924Z</time></trkpt><trkpt lat="42.0353078" lon="13.6687041"><ele>844.8000000000001</ele><time>2026-03-24T13:13:55.924Z</time></trkpt><trkpt lat="42.0353347" lon="13.668545"><ele>845.6</ele><time>2026-03-24T13:13:56.925Z</time></trkpt><trkpt lat="42.035378" lon="13.6684146"><ele>846.4</ele><time>2026-03-24T13:13:57.924Z</time></trkpt><trkpt lat="42.0354375" lon="13.6683249"><ele>847.2</ele><time>2026-03-24T13:13:58.924Z</time></trkpt><trkpt lat="42.0355134" lon="13.6682889"><ele>848.0</ele><time>2026-03-24T13:13:59.925Z</time></trkpt><trkpt lat="42.0356018" lon="13.6682939"><ele>848.0</ele><time>2026-03-24T13:14:00.925Z</time></trkpt><trkpt lat="42.035696" lon="13.6683232"><ele>848.0</ele><time>2026-03-24T13:14:01.924Z</time></trkpt><trkpt lat="42.0358025" lon="13.6683684"><ele>848.0</ele><time>2026-03-24T13:14:02.925Z</time></trkpt><trkpt lat="42.0359244" lon="13.6684177"><ele>848.0</ele><time>2026-03-24T13:14:03.924Z</time></trkpt><trkpt lat="42.0360587" lon="13.6684641"><ele>846.75</ele><time>2026-03-24T13:14:04.924Z</time></trkpt><trkpt lat="42.0362035" lon="13.668517"><ele>845.5</ele><time>2026-03-24T13:14:05.924Z</time></trkpt><trkpt lat="42.0363495" lon="13.6685714"><ele>844.25</ele><time>2026-03-24T13:14:06.925Z</time></trkpt><trkpt lat="42.0364902" lon="13.66862"><ele>843.0</ele><time>2026-03-24T13:14:07.925Z</time></trkpt><trkpt lat="42.0366282" lon="13.668672"><ele>844.75</ele><time>2026-03-24T13:14:08.925Z</time></trkpt><trkpt lat="42.0367617" lon="13.6687206"><ele>846.5</ele><time>2026-03-24T13:14:09.924Z</time></trkpt><trkpt lat="42.0368889" lon="13.6687708"><ele>848.25</ele><time>2026-03-24T13:14:10.924Z</time></trkpt><trkpt lat="42.0369962" lon="13.6688119"><ele>850.0</ele><time>2026-03-24T13:14:11.925Z</time></trkpt><trkpt lat="42.0370843" lon="13.6688438"><ele>849.9999999999999</ele><time>2026-03-24T13:14:12.925Z</time></trkpt><trkpt lat="42.037178" lon="13.6688711"><ele>850.0</ele><time>2026-03-24T13:14:14.924Z</time></trkpt><trkpt lat="42.0372212" lon="13.6688069"><ele>850.0</ele><time>2026-03-24T13:14:16.925Z</time></trkpt><trkpt lat="42.037266" lon="13.6686903"><ele>850.0</ele><time>2026-03-24T13:14:18.924Z</time></trkpt><trkpt lat="42.0372874" lon="13.6686021"><ele>849.9999999999999</ele><time>2026-03-24T13:14:19.924Z</time></trkpt><trkpt lat="42.0373131" lon="13.6685073"><ele>850.0</ele><time>2026-03-24T13:14:20.924Z</time></trkpt><trkpt lat="42.037333" lon="13.6684068"><ele>850.2</ele><time>2026-03-24T13:14:21.925Z</time></trkpt><trkpt lat="42.0373551" lon="13.6682922"><ele>850.4</ele><time>2026-03-24T13:14:22.924Z</time></trkpt><trkpt lat="42.0373775" lon="13.6681612"><ele>850.5999999999999</ele><time>2026-03-24T13:14:23.925Z</time></trkpt><trkpt lat="42.0374059" lon="13.6680226"><ele>850.8</ele><time>2026-03-24T13:14:24.924Z</time></trkpt><trkpt lat="42.0374306" lon="13.6678849"><ele>851.0</ele><time>2026-03-24T13:14:25.925Z</time></trkpt><trkpt lat="42.0374517" lon="13.6677667"><ele>851.0000000000001</ele><time>2026-03-24T13:14:26.924Z</time></trkpt><trkpt lat="42.0374638" lon="13.6676574"><ele>851.0</ele><time>2026-03-24T13:14:27.924Z</time></trkpt><trkpt lat="42.0374746" lon="13.6675525"><ele>851.0</ele><time>2026-03-24T13:14:28.925Z</time></trkpt><trkpt lat="42.0374857" lon="13.6674502"><ele>851.0</ele><time>2026-03-24T13:14:29.924Z</time></trkpt><trkpt lat="42.0374981" lon="13.6673387"><ele>851.0000000000001</ele><time>2026-03-24T13:14:30.925Z</time></trkpt><trkpt lat="42.0375171" lon="13.6672203"><ele>851.0</ele><time>2026-03-24T13:14:31.924Z</time></trkpt><trkpt lat="42.0375384" lon="13.6671147"><ele>851.4</ele><time>2026-03-24T13:14:32.924Z</time></trkpt><trkpt lat="42.0375671" lon="13.6670093"><ele>851.8</ele><time>2026-03-24T13:14:33.924Z</time></trkpt><trkpt lat="42.0376076" lon="13.6669076"><ele>852.1999999999999</ele><time>2026-03-24T13:14:34.924Z</time></trkpt><trkpt lat="42.0376684" lon="13.6668052"><ele>852.5999999999999</ele><time>2026-03-24T13:14:35.925Z</time></trkpt><trkpt lat="42.0377308" lon="13.6666998"><ele>853.0</ele><time>2026-03-24T13:14:36.924Z</time></trkpt><trkpt lat="42.037787" lon="13.6665851"><ele>853.0</ele><time>2026-03-24T13:14:37.924Z</time></trkpt><trkpt lat="42.0378299" lon="13.6664473"><ele>853.0</ele><time>2026-03-24T13:14:38.924Z</time></trkpt><trkpt lat="42.0378767" lon="13.6662995"><ele>853.0</ele><time>2026-03-24T13:14:39.924Z</time></trkpt><trkpt lat="42.0379206" lon="13.6661355"><ele>853.0</ele><time>2026-03-24T13:14:40.924Z</time></trkpt><trkpt lat="42.0379555" lon="13.6659758"><ele>853.0</ele><time>2026-03-24T13:14:41.925Z</time></trkpt><trkpt lat="42.0379851" lon="13.6658055"><ele>853.0</ele><time>2026-03-24T13:14:42.925Z</time></trkpt><trkpt lat="42.0380106" lon="13.6656212"><ele>853.0</ele><time>2026-03-24T13:14:43.924Z</time></trkpt><trkpt lat="42.0380408" lon="13.6654283"><ele>853.0</ele><time>2026-03-24T13:14:44.925Z</time></trkpt><trkpt lat="42.0380723" lon="13.6652242"><ele>853.3333333333333</ele><time>2026-03-24T13:14:45.924Z</time></trkpt><trkpt lat="42.0381143" lon="13.6650175"><ele>853.6666666666667</ele><time>2026-03-24T13:14:46.924Z</time></trkpt><trkpt lat="42.0381575" lon="13.6648093"><ele>854.0</ele><time>2026-03-24T13:14:47.925Z</time></trkpt><trkpt lat="42.0382033" lon="13.6646154"><ele>854.5</ele><time>2026-03-24T13:14:48.924Z</time></trkpt><trkpt lat="42.038247" lon="13.6644382"><ele>855.0</ele><time>2026-03-24T13:14:49.924Z</time></trkpt><trkpt lat="42.0382876" lon="13.6642741"><ele>855.5</ele><time>2026-03-24T13:14:50.924Z</time></trkpt><trkpt lat="42.0383274" lon="13.6641261"><ele>856.0</ele><time>2026-03-24T13:14:51.924Z</time></trkpt><trkpt lat="42.0383558" lon="13.663989"><ele>856.0</ele><time>2026-03-24T13:14:52.924Z</time></trkpt><trkpt lat="42.0383813" lon="13.6638559"><ele>855.9999999999999</ele><time>2026-03-24T13:14:53.924Z</time></trkpt><trkpt lat="42.0383982" lon="13.6637153"><ele>855.9999999999999</ele><time>2026-03-24T13:14:54.925Z</time></trkpt><trkpt lat="42.0384194" lon="13.6635783"><ele>856.0</ele><time>2026-03-24T13:14:55.924Z</time></trkpt><trkpt lat="42.0384419" lon="13.6634368"><ele>856.0</ele><time>2026-03-24T13:14:56.925Z</time></trkpt><trkpt lat="42.0384739" lon="13.663289"><ele>856.25</ele><time>2026-03-24T13:14:57.924Z</time></trkpt><trkpt lat="42.0385199" lon="13.6631465"><ele>856.5</ele><time>2026-03-24T13:14:58.924Z</time></trkpt><trkpt lat="42.0385689" lon="13.6630037"><ele>856.75</ele><time>2026-03-24T13:14:59.925Z</time></trkpt><trkpt lat="42.0386208" lon="13.6628527"><ele>857.0</ele><time>2026-03-24T13:15:00.925Z</time></trkpt><trkpt lat="42.0386705" lon="13.6626954"><ele>857.75</ele><time>2026-03-24T13:15:01.925Z</time></trkpt><trkpt lat="42.0387172" lon="13.662532"><ele>858.5</ele><time>2026-03-24T13:15:02.924Z</time></trkpt><trkpt lat="42.038759" lon="13.662371"><ele>859.25</ele><time>2026-03-24T13:15:03.925Z</time></trkpt><trkpt lat="42.0387982" lon="13.6622042"><ele>860.0</ele><time>2026-03-24T13:15:04.925Z</time></trkpt><trkpt lat="42.0388333" lon="13.6620474"><ele>860.75</ele><time>2026-03-24T13:15:05.924Z</time></trkpt><trkpt lat="42.0388681" lon="13.6619055"><ele>861.5</ele><time>2026-03-24T13:15:06.925Z</time></trkpt><trkpt lat="42.0389072" lon="13.6617643"><ele>862.25</ele><time>2026-03-24T13:15:07.924Z</time></trkpt><trkpt lat="42.0389571" lon="13.6616236"><ele>863.0</ele><time>2026-03-24T13:15:08.924Z</time></trkpt><trkpt lat="42.0390115" lon="13.6614779"><ele>863.0</ele><time>2026-03-24T13:15:09.925Z</time></trkpt><trkpt lat="42.0390665" lon="13.6613233"><ele>863.0</ele><time>2026-03-24T13:15:10.924Z</time></trkpt><trkpt lat="42.0391248" lon="13.6611589"><ele>863.0</ele><time>2026-03-24T13:15:11.924Z</time></trkpt><trkpt lat="42.039182" lon="13.6609814"><ele>863.0</ele><time>2026-03-24T13:15:12.924Z</time></trkpt><trkpt lat="42.0392432" lon="13.6607946"><ele>861.6666666666667</ele><time>2026-03-24T13:15:13.924Z</time></trkpt><trkpt lat="42.0393039" lon="13.6606037"><ele>860.3333333333333</ele><time>2026-03-24T13:15:14.924Z</time></trkpt><trkpt lat="42.0393611" lon="13.6604009"><ele>859.0</ele><time>2026-03-24T13:15:15.924Z</time></trkpt><trkpt lat="42.0394189" lon="13.6601962"><ele>859.0</ele><time>2026-03-24T13:15:16.924Z</time></trkpt><trkpt lat="42.0394794" lon="13.6599917"><ele>859.0</ele><time>2026-03-24T13:15:17.924Z</time></trkpt><trkpt lat="42.0395406" lon="13.659801"><ele>859.0</ele><time>2026-03-24T13:15:18.924Z</time></trkpt><trkpt lat="42.0396028" lon="13.6596204"><ele>859.25</ele><time>2026-03-24T13:15:19.924Z</time></trkpt><trkpt lat="42.0396673" lon="13.6594502"><ele>859.5</ele><time>2026-03-24T13:15:20.925Z</time></trkpt><trkpt lat="42.039733" lon="13.6592926"><ele>859.75</ele><time>2026-03-24T13:15:21.925Z</time></trkpt><trkpt lat="42.0397982" lon="13.6591444"><ele>860.0</ele><time>2026-03-24T13:15:22.924Z</time></trkpt><trkpt lat="42.0398597" lon="13.6590095"><ele>860.0</ele><time>2026-03-24T13:15:23.924Z</time></trkpt><trkpt lat="42.0399297" lon="13.6588903"><ele>860.0</ele><time>2026-03-24T13:15:24.925Z</time></trkpt><trkpt lat="42.0400005" lon="13.6587899"><ele>860.0</ele><time>2026-03-24T13:15:25.925Z</time></trkpt><trkpt lat="42.0400761" lon="13.6587035"><ele>860.0</ele><time>2026-03-24T13:15:26.924Z</time></trkpt><trkpt lat="42.0401666" lon="13.658615"><ele>860.0</ele><time>2026-03-24T13:15:27.924Z</time></trkpt><trkpt lat="42.0402754" lon="13.6585284"><ele>859.0</ele><time>2026-03-24T13:15:28.924Z</time></trkpt><trkpt lat="42.0404036" lon="13.658439"><ele>858.0</ele><time>2026-03-24T13:15:29.925Z</time></trkpt><trkpt lat="42.0405415" lon="13.6583416"><ele>857.0</ele><time>2026-03-24T13:15:30.924Z</time></trkpt><trkpt lat="42.040684" lon="13.6582398"><ele>858.0</ele><time>2026-03-24T13:15:31.924Z</time></trkpt><trkpt lat="42.0408364" lon="13.6581351"><ele>859.0</ele><time>2026-03-24T13:15:32.924Z</time></trkpt><trkpt lat="42.0410007" lon="13.658017"><ele>860.0</ele><time>2026-03-24T13:15:33.925Z</time></trkpt><trkpt lat="42.0411483" lon="13.6579101"><ele>860.0</ele><time>2026-03-24T13:15:34.925Z</time></trkpt><trkpt lat="42.0412863" lon="13.6578111"><ele>860.0</ele><time>2026-03-24T13:15:35.924Z</time></trkpt><trkpt lat="42.0414194" lon="13.657722"><ele>860.0</ele><time>2026-03-24T13:15:36.924Z</time></trkpt><trkpt lat="42.0415565" lon="13.657637"><ele>860.0</ele><time>2026-03-24T13:15:37.925Z</time></trkpt><trkpt lat="42.0416978" lon="13.657556"><ele>860.0</ele><time>2026-03-24T13:15:38.924Z</time></trkpt><trkpt lat="42.0418452" lon="13.6574798"><ele>860.0</ele><time>2026-03-24T13:15:39.925Z</time></trkpt><trkpt lat="42.0419772" lon="13.657408"><ele>860.0</ele><time>2026-03-24T13:15:40.924Z</time></trkpt><trkpt lat="42.042089" lon="13.6573508"><ele>860.0</ele><time>2026-03-24T13:15:41.924Z</time></trkpt><trkpt lat="42.0421828" lon="13.6573026"><ele>860.0</ele><time>2026-03-24T13:15:42.924Z</time></trkpt><trkpt lat="42.0422523" lon="13.657267"><ele>860.0</ele><time>2026-03-24T13:15:43.924Z</time></trkpt><trkpt lat="42.0423428" lon="13.6572385"><ele>860.0</ele><time>2026-03-24T13:15:45.925Z</time></trkpt><trkpt lat="42.0424269" lon="13.6572615"><ele>859.8</ele><time>2026-03-24T13:15:47.924Z</time></trkpt><trkpt lat="42.0424914" lon="13.6573563"><ele>859.6</ele><time>2026-03-24T13:15:49.924Z</time></trkpt><trkpt lat="42.0425285" lon="13.6574695"><ele>859.4000000000001</ele><time>2026-03-24T13:15:51.925Z</time></trkpt><trkpt lat="42.0425463" lon="13.6575923"><ele>859.2</ele><time>2026-03-24T13:15:55.924Z</time></trkpt><trkpt lat="42.0425787" lon="13.6577295"><ele>859.0</ele><time>2026-03-24T13:15:57.924Z</time></trkpt><trkpt lat="42.0426089" lon="13.657832"><ele>858.9999999999999</ele><time>2026-03-24T13:15:58.924Z</time></trkpt><trkpt lat="42.0426366" lon="13.6579342"><ele>859.0</ele><time>2026-03-24T13:15:59.924Z</time></trkpt><trkpt lat="42.0426582" lon="13.6580248"><ele>859.0</ele><time>2026-03-24T13:16:00.925Z</time></trkpt><trkpt lat="42.0426783" lon="13.6581173"><ele>859.0</ele><time>2026-03-24T13:16:01.924Z</time></trkpt><trkpt lat="42.0426992" lon="13.6582124"><ele>859.0</ele><time>2026-03-24T13:16:02.924Z</time></trkpt><trkpt lat="42.042719" lon="13.6583101"><ele>858.9999999999999</ele><time>2026-03-24T13:16:03.924Z</time></trkpt><trkpt lat="42.0427394" lon="13.6584082"><ele>859.0</ele><time>2026-03-24T13:16:04.924Z</time></trkpt><trkpt lat="42.0427614" lon="13.65851"><ele>858.9999999999999</ele><time>2026-03-24T13:16:05.924Z</time></trkpt><trkpt lat="42.0427829" lon="13.6586164"><ele>859.0</ele><time>2026-03-24T13:16:06.925Z</time></trkpt><trkpt lat="42.0428098" lon="13.6587285"><ele>859.0</ele><time>2026-03-24T13:16:07.925Z</time></trkpt><trkpt lat="42.0428379" lon="13.6588277"><ele>859.0</ele><time>2026-03-24T13:16:08.924Z</time></trkpt><trkpt lat="42.0428731" lon="13.6589434"><ele>858.9999999999999</ele><time>2026-03-24T13:16:10.925Z</time></trkpt><trkpt lat="42.0428831" lon="13.659032"><ele>859.0</ele><time>2026-03-24T13:16:14.925Z</time></trkpt><trkpt lat="42.0428842" lon="13.6589354"><ele>858.9999999999999</ele><time>2026-03-24T13:16:27.924Z</time></trkpt><trkpt lat="42.0428353" lon="13.6588005"><ele>859.0</ele><time>2026-03-24T13:16:29.925Z</time></trkpt><trkpt lat="42.0428005" lon="13.6586313"><ele>859.0</ele><time>2026-03-24T13:16:31.924Z</time></trkpt><trkpt lat="42.0427861" lon="13.6585356"><ele>859.0</ele><time>2026-03-24T13:16:32.925Z</time></trkpt><trkpt lat="42.0427707" lon="13.6584466"><ele>858.9999999999999</ele><time>2026-03-24T13:16:33.925Z</time></trkpt><trkpt lat="42.0427492" lon="13.6583645"><ele>859.0</ele><time>2026-03-24T13:16:34.924Z</time></trkpt><trkpt lat="42.0427264" lon="13.658238"><ele>859.0</ele><time>2026-03-24T13:16:36.924Z</time></trkpt><trkpt lat="42.0427695" lon="13.6581637"><ele>859.0000000000001</ele><time>2026-03-24T13:16:40.924Z</time></trkpt><trkpt lat="42.0428511" lon="13.6581375"><ele>859.0000000000001</ele><time>2026-03-24T13:16:42.924Z</time></trkpt><trkpt lat="42.0429714" lon="13.6580543"><ele>859.0</ele><time>2026-03-24T13:16:44.924Z</time></trkpt><trkpt lat="42.043046" lon="13.6580053"><ele>859.0</ele><time>2026-03-24T13:16:45.925Z</time></trkpt><trkpt lat="42.0431329" lon="13.6579491"><ele>859.0</ele><time>2026-03-24T13:16:46.924Z</time></trkpt><trkpt lat="42.0432214" lon="13.6578993"><ele>859.0000000000001</ele><time>2026-03-24T13:16:47.924Z</time></trkpt><trkpt lat="42.043313" lon="13.65785"><ele>859.0000000000001</ele><time>2026-03-24T13:16:48.924Z</time></trkpt><trkpt lat="42.043411" lon="13.6577936"><ele>859.0</ele><time>2026-03-24T13:16:49.924Z</time></trkpt><trkpt lat="42.0435075" lon="13.6577376"><ele>859.0</ele><time>2026-03-24T13:16:50.925Z</time></trkpt><trkpt lat="42.0436046" lon="13.6576864"><ele>858.8000000000001</ele><time>2026-03-24T13:16:51.925Z</time></trkpt><trkpt lat="42.0436974" lon="13.6576392"><ele>858.6000000000001</ele><time>2026-03-24T13:16:52.924Z</time></trkpt><trkpt lat="42.0437811" lon="13.6575986"><ele>858.4</ele><time>2026-03-24T13:16:53.924Z</time></trkpt><trkpt lat="42.0438533" lon="13.6575621"><ele>858.2</ele><time>2026-03-24T13:16:54.924Z</time></trkpt><trkpt lat="42.043961" lon="13.6575209"><ele>858.0</ele><time>2026-03-24T13:16:56.924Z</time></trkpt><trkpt lat="42.0440816" lon="13.6575371"><ele>858.5999999999999</ele><time>2026-03-24T13:16:58.925Z</time></trkpt><trkpt lat="42.0441445" lon="13.6575563"><ele>859.1999999999999</ele><time>2026-03-24T13:16:59.924Z</time></trkpt><trkpt lat="42.0442518" lon="13.6575698"><ele>859.8</ele><time>2026-03-24T13:17:01.925Z</time></trkpt><trkpt lat="42.0443476" lon="13.657554"><ele>860.4</ele><time>2026-03-24T13:17:03.924Z</time></trkpt><trkpt lat="42.0444481" lon="13.6575195"><ele>861.0</ele><time>2026-03-24T13:17:05.925Z</time></trkpt><trkpt lat="42.0445454" lon="13.657488"><ele>861.0</ele><time>2026-03-24T13:17:07.925Z</time></trkpt><trkpt lat="42.0446348" lon="13.6574487"><ele>860.9999999999999</ele><time>2026-03-24T13:17:09.924Z</time></trkpt><trkpt lat="42.044744" lon="13.6573933"><ele>860.9999999999999</ele><time>2026-03-24T13:17:11.924Z</time></trkpt><trkpt lat="42.0448095" lon="13.6573704"><ele>861.0</ele><time>2026-03-24T13:17:12.924Z</time></trkpt><trkpt lat="42.0448879" lon="13.6573446"><ele>861.0</ele><time>2026-03-24T13:17:13.924Z</time></trkpt><trkpt lat="42.0449785" lon="13.6573256"><ele>861.4</ele><time>2026-03-24T13:17:14.925Z</time></trkpt><trkpt lat="42.0450624" lon="13.6573043"><ele>861.8</ele><time>2026-03-24T13:17:15.924Z</time></trkpt><trkpt lat="42.0451472" lon="13.6572857"><ele>862.1999999999999</ele><time>2026-03-24T13:17:16.925Z</time></trkpt><trkpt lat="42.0452372" lon="13.6572673"><ele>862.5999999999999</ele><time>2026-03-24T13:17:17.925Z</time></trkpt><trkpt lat="42.0453344" lon="13.657256"><ele>863.0</ele><time>2026-03-24T13:17:18.925Z</time></trkpt><trkpt lat="42.0454364" lon="13.6572314"><ele>863.0</ele><time>2026-03-24T13:17:19.924Z</time></trkpt><trkpt lat="42.0455471" lon="13.6571953"><ele>863.0</ele><time>2026-03-24T13:17:20.924Z</time></trkpt><trkpt lat="42.0456451" lon="13.6571535"><ele>863.0</ele><time>2026-03-24T13:17:21.924Z</time></trkpt><trkpt lat="42.0457362" lon="13.6571118"><ele>863.0</ele><time>2026-03-24T13:17:22.925Z</time></trkpt><trkpt lat="42.0458261" lon="13.6570678"><ele>863.0</ele><time>2026-03-24T13:17:23.924Z</time></trkpt><trkpt lat="42.0459097" lon="13.657022"><ele>863.0</ele><time>2026-03-24T13:17:24.924Z</time></trkpt><trkpt lat="42.0459952" lon="13.6569583"><ele>863.0</ele><time>2026-03-24T13:17:25.924Z</time></trkpt><trkpt lat="42.0460728" lon="13.6568866"><ele>863.0</ele><time>2026-03-24T13:17:26.925Z</time></trkpt><trkpt lat="42.0461499" lon="13.6568182"><ele>863.0</ele><time>2026-03-24T13:17:27.924Z</time></trkpt><trkpt lat="42.0462342" lon="13.6567514"><ele>863.0</ele><time>2026-03-24T13:17:28.924Z</time></trkpt><trkpt lat="42.0463305" lon="13.6566894"><ele>863.2</ele><time>2026-03-24T13:17:29.924Z</time></trkpt><trkpt lat="42.0464186" lon="13.6566198"><ele>863.4</ele><time>2026-03-24T13:17:30.924Z</time></trkpt><trkpt lat="42.046502" lon="13.6565377"><ele>863.6000000000001</ele><time>2026-03-24T13:17:31.924Z</time></trkpt><trkpt lat="42.0465853" lon="13.65645"><ele>863.8000000000001</ele><time>2026-03-24T13:17:32.924Z</time></trkpt><trkpt lat="42.0466625" lon="13.6563794"><ele>864.0</ele><time>2026-03-24T13:17:33.924Z</time></trkpt><trkpt lat="42.0467374" lon="13.6563137"><ele>864.0</ele><time>2026-03-24T13:17:34.924Z</time></trkpt><trkpt lat="42.0468237" lon="13.6562539"><ele>864.0000000000001</ele><time>2026-03-24T13:17:35.925Z</time></trkpt><trkpt lat="42.0469161" lon="13.6562017"><ele>864.0000000000001</ele><time>2026-03-24T13:17:36.925Z</time></trkpt><trkpt lat="42.0470173" lon="13.6561462"><ele>864.0</ele><time>2026-03-24T13:17:37.925Z</time></trkpt><trkpt lat="42.04712" lon="13.6560859"><ele>864.0</ele><time>2026-03-24T13:17:38.924Z</time></trkpt><trkpt lat="42.0472203" lon="13.6560053"><ele>863.5</ele><time>2026-03-24T13:17:39.924Z</time></trkpt><trkpt lat="42.0473162" lon="13.6559175"><ele>863.0</ele><time>2026-03-24T13:17:40.924Z</time></trkpt><trkpt lat="42.0474101" lon="13.6558289"><ele>862.5</ele><time>2026-03-24T13:17:41.925Z</time></trkpt><trkpt lat="42.0475023" lon="13.6557381"><ele>862.0</ele><time>2026-03-24T13:17:42.924Z</time></trkpt><trkpt lat="42.0475895" lon="13.6556599"><ele>862.0</ele><time>2026-03-24T13:17:43.924Z</time></trkpt><trkpt lat="42.0476676" lon="13.6555917"><ele>862.0</ele><time>2026-03-24T13:17:44.924Z</time></trkpt><trkpt lat="42.0477465" lon="13.6555097"><ele>862.0</ele><time>2026-03-24T13:17:45.924Z</time></trkpt><trkpt lat="42.0478266" lon="13.6554105"><ele>862.0</ele><time>2026-03-24T13:17:46.924Z</time></trkpt><trkpt lat="42.0479107" lon="13.6552894"><ele>862.0</ele><time>2026-03-24T13:17:47.924Z</time></trkpt><trkpt lat="42.0480017" lon="13.6551583"><ele>861.75</ele><time>2026-03-24T13:17:48.924Z</time></trkpt><trkpt lat="42.0480924" lon="13.6550267"><ele>861.5</ele><time>2026-03-24T13:17:49.925Z</time></trkpt><trkpt lat="42.0481792" lon="13.6549119"><ele>861.25</ele><time>2026-03-24T13:17:50.924Z</time></trkpt><trkpt lat="42.048252" lon="13.6548006"><ele>861.0</ele><time>2026-03-24T13:17:51.924Z</time></trkpt><trkpt lat="42.0483173" lon="13.654687"><ele>861.0</ele><time>2026-03-24T13:17:52.924Z</time></trkpt><trkpt lat="42.0483745" lon="13.6545705"><ele>861.0</ele><time>2026-03-24T13:17:53.924Z</time></trkpt><trkpt lat="42.0484341" lon="13.654466"><ele>861.0</ele><time>2026-03-24T13:17:54.925Z</time></trkpt><trkpt lat="42.0484966" lon="13.6543839"><ele>861.0</ele><time>2026-03-24T13:17:55.925Z</time></trkpt><trkpt lat="42.0485552" lon="13.6543157"><ele>861.0</ele><time>2026-03-24T13:17:56.924Z</time></trkpt><trkpt lat="42.0486188" lon="13.6542505"><ele>861.0</ele><time>2026-03-24T13:17:57.925Z</time></trkpt><trkpt lat="42.0486889" lon="13.6541855"><ele>860.5999999999999</ele><time>2026-03-24T13:17:58.924Z</time></trkpt><trkpt lat="42.048757" lon="13.6541099"><ele>860.1999999999999</ele><time>2026-03-24T13:17:59.924Z</time></trkpt><trkpt lat="42.0488292" lon="13.6540162"><ele>859.8000000000001</ele><time>2026-03-24T13:18:00.925Z</time></trkpt><trkpt lat="42.048897" lon="13.6539328"><ele>859.4000000000001</ele><time>2026-03-24T13:18:01.925Z</time></trkpt><trkpt lat="42.0489658" lon="13.65386"><ele>859.0</ele><time>2026-03-24T13:18:02.924Z</time></trkpt><trkpt lat="42.0490427" lon="13.6537877"><ele>858.6</ele><time>2026-03-24T13:18:03.925Z</time></trkpt><trkpt lat="42.0491294" lon="13.6537109"><ele>858.2</ele><time>2026-03-24T13:18:04.925Z</time></trkpt><trkpt lat="42.0492033" lon="13.6536325"><ele>857.8000000000001</ele><time>2026-03-24T13:18:05.925Z</time></trkpt><trkpt lat="42.0492752" lon="13.6535432"><ele>857.4000000000001</ele><time>2026-03-24T13:18:06.925Z</time></trkpt><trkpt lat="42.0493355" lon="13.6534497"><ele>857.0</ele><time>2026-03-24T13:18:07.924Z</time></trkpt><trkpt lat="42.0493973" lon="13.6533587"><ele>857.0000000000001</ele><time>2026-03-24T13:18:08.925Z</time></trkpt><trkpt lat="42.0494612" lon="13.6532662"><ele>857.0</ele><time>2026-03-24T13:18:09.925Z</time></trkpt><trkpt lat="42.0495253" lon="13.6531939"><ele>857.0</ele><time>2026-03-24T13:18:10.924Z</time></trkpt><trkpt lat="42.0495825" lon="13.6531239"><ele>857.0</ele><time>2026-03-24T13:18:11.924Z</time></trkpt><trkpt lat="42.0496277" lon="13.653058"><ele>857.0000000000001</ele><time>2026-03-24T13:18:12.924Z</time></trkpt><trkpt lat="42.0496791" lon="13.6529258"><ele>857.0</ele><time>2026-03-24T13:18:14.925Z</time></trkpt><trkpt lat="42.0497186" lon="13.6528353"><ele>857.1666666666667</ele><time>2026-03-24T13:18:15.924Z</time></trkpt><trkpt lat="42.049762" lon="13.6527304"><ele>857.3333333333334</ele><time>2026-03-24T13:18:16.925Z</time></trkpt><trkpt lat="42.0498055" lon="13.6526376"><ele>857.5</ele><time>2026-03-24T13:18:17.924Z</time></trkpt><trkpt lat="42.0498536" lon="13.6525492"><ele>857.6666666666667</ele><time>2026-03-24T13:18:18.924Z</time></trkpt><trkpt lat="42.0499136" lon="13.6524613"><ele>857.8333333333334</ele><time>2026-03-24T13:18:19.925Z</time></trkpt><trkpt lat="42.0499754" lon="13.6523761"><ele>858.0</ele><time>2026-03-24T13:18:20.924Z</time></trkpt><trkpt lat="42.0500439" lon="13.6522957"><ele>858.0</ele><time>2026-03-24T13:18:21.925Z</time></trkpt><trkpt lat="42.0501031" lon="13.6522261"><ele>858.0</ele><time>2026-03-24T13:18:22.924Z</time></trkpt><trkpt lat="42.0501603" lon="13.6521671"><ele>858.0</ele><time>2026-03-24T13:18:23.924Z</time></trkpt><trkpt lat="42.0502247" lon="13.6521086"><ele>858.0</ele><time>2026-03-24T13:18:24.924Z</time></trkpt><trkpt lat="42.0502923" lon="13.6520519"><ele>858.0</ele><time>2026-03-24T13:18:25.924Z</time></trkpt><trkpt lat="42.0503553" lon="13.6519956"><ele>858.0</ele><time>2026-03-24T13:18:26.925Z</time></trkpt><trkpt lat="42.0504098" lon="13.6519483"><ele>858.0</ele><time>2026-03-24T13:18:27.924Z</time></trkpt><trkpt lat="42.0505112" lon="13.6518906"><ele>857.5</ele><time>2026-03-24T13:18:29.924Z</time></trkpt><trkpt lat="42.0505728" lon="13.6518556"><ele>857.0</ele><time>2026-03-24T13:18:30.924Z</time></trkpt><trkpt lat="42.0506476" lon="13.6518143"><ele>856.5</ele><time>2026-03-24T13:18:31.925Z</time></trkpt><trkpt lat="42.0507102" lon="13.6517675"><ele>856.0</ele><time>2026-03-24T13:18:32.925Z</time></trkpt><trkpt lat="42.0507708" lon="13.6517207"><ele>855.5</ele><time>2026-03-24T13:18:33.924Z</time></trkpt><trkpt lat="42.0508327" lon="13.6516165"><ele>855.0</ele><time>2026-03-24T13:18:35.924Z</time></trkpt><trkpt lat="42.0509006" lon="13.6514512"><ele>855.5</ele><time>2026-03-24T13:18:37.925Z</time></trkpt><trkpt lat="42.0509344" lon="13.6513482"><ele>856.0</ele><time>2026-03-24T13:18:38.924Z</time></trkpt><trkpt lat="42.0509606" lon="13.651254"><ele>856.5</ele><time>2026-03-24T13:18:39.925Z</time></trkpt><trkpt lat="42.050973" lon="13.6511574"><ele>857.0</ele><time>2026-03-24T13:18:40.924Z</time></trkpt><trkpt lat="42.0509668" lon="13.6510593"><ele>857.5</ele><time>2026-03-24T13:18:41.924Z</time></trkpt><trkpt lat="42.0509475" lon="13.6509504"><ele>858.0</ele><time>2026-03-24T13:18:42.924Z</time></trkpt><trkpt lat="42.0509235" lon="13.6508273"><ele>858.0</ele><time>2026-03-24T13:18:43.925Z</time></trkpt><trkpt lat="42.0508966" lon="13.6507065"><ele>858.0</ele><time>2026-03-24T13:18:44.924Z</time></trkpt><trkpt lat="42.0508715" lon="13.650595"><ele>858.0</ele><time>2026-03-24T13:18:45.925Z</time></trkpt><trkpt lat="42.0508597" lon="13.650504"><ele>858.0</ele><time>2026-03-24T13:18:46.924Z</time></trkpt><trkpt lat="42.0508869" lon="13.6503484"><ele>858.0</ele><time>2026-03-24T13:18:48.925Z</time></trkpt><trkpt lat="42.0509279" lon="13.650263"><ele>858.0</ele><time>2026-03-24T13:18:49.925Z</time></trkpt><trkpt lat="42.050994" lon="13.6501573"><ele>856.75</ele><time>2026-03-24T13:18:50.924Z</time></trkpt><trkpt lat="42.0510831" lon="13.6500208"><ele>855.5</ele><time>2026-03-24T13:18:51.924Z</time></trkpt><trkpt lat="42.0511802" lon="13.6498783"><ele>854.25</ele><time>2026-03-24T13:18:52.925Z</time></trkpt><trkpt lat="42.0512764" lon="13.6497277"><ele>853.0</ele><time>2026-03-24T13:18:53.925Z</time></trkpt><trkpt lat="42.051364" lon="13.64959"><ele>852.75</ele><time>2026-03-24T13:18:54.925Z</time></trkpt><trkpt lat="42.0514464" lon="13.6494587"><ele>852.5</ele><time>2026-03-24T13:18:55.924Z</time></trkpt><trkpt lat="42.051521" lon="13.6493022"><ele>852.25</ele><time>2026-03-24T13:18:56.924Z</time></trkpt><trkpt lat="42.0515809" lon="13.6491363"><ele>852.0</ele><time>2026-03-24T13:18:57.924Z</time></trkpt><trkpt lat="42.0516253" lon="13.6489783"><ele>852.0</ele><time>2026-03-24T13:18:58.925Z</time></trkpt><trkpt lat="42.0516722" lon="13.6488396"><ele>852.0</ele><time>2026-03-24T13:18:59.924Z</time></trkpt><trkpt lat="42.0517353" lon="13.6487058"><ele>852.0</ele><time>2026-03-24T13:19:00.924Z</time></trkpt><trkpt lat="42.051811" lon="13.6485877"><ele>852.0</ele><time>2026-03-24T13:19:01.924Z</time></trkpt><trkpt lat="42.0519081" lon="13.6484646"><ele>852.0</ele><time>2026-03-24T13:19:02.924Z</time></trkpt><trkpt lat="42.052014" lon="13.6483296"><ele>852.0</ele><time>2026-03-24T13:19:03.925Z</time></trkpt><trkpt lat="42.0521312" lon="13.6481981"><ele>852.0</ele><time>2026-03-24T13:19:04.925Z</time></trkpt><trkpt lat="42.0522394" lon="13.6480699"><ele>852.0</ele><time>2026-03-24T13:19:05.924Z</time></trkpt><trkpt lat="42.0523463" lon="13.6479499"><ele>852.0</ele><time>2026-03-24T13:19:06.924Z</time></trkpt><trkpt lat="42.0524499" lon="13.6478296"><ele>852.0</ele><time>2026-03-24T13:19:07.925Z</time></trkpt><trkpt lat="42.0525521" lon="13.6477091"><ele>852.0</ele><time>2026-03-24T13:19:08.925Z</time></trkpt><trkpt lat="42.0526445" lon="13.647586"><ele>852.0</ele><time>2026-03-24T13:19:09.924Z</time></trkpt><trkpt lat="42.0527359" lon="13.6474602"><ele>852.25</ele><time>2026-03-24T13:19:10.924Z</time></trkpt><trkpt lat="42.052842" lon="13.6473312"><ele>852.5</ele><time>2026-03-24T13:19:11.925Z</time></trkpt><trkpt lat="42.0529581" lon="13.647198"><ele>852.75</ele><time>2026-03-24T13:19:12.924Z</time></trkpt><trkpt lat="42.0530735" lon="13.647098"><ele>853.0</ele><time>2026-03-24T13:19:13.925Z</time></trkpt><trkpt lat="42.0531843" lon="13.6470005"><ele>853.6666666666666</ele><time>2026-03-24T13:19:14.924Z</time></trkpt><trkpt lat="42.0533016" lon="13.6468893"><ele>854.3333333333333</ele><time>2026-03-24T13:19:15.925Z</time></trkpt><trkpt lat="42.0534316" lon="13.6467614"><ele>855.0</ele><time>2026-03-24T13:19:16.924Z</time></trkpt><trkpt lat="42.0535723" lon="13.6466176"><ele>855.0</ele><time>2026-03-24T13:19:17.924Z</time></trkpt><trkpt lat="42.0537154" lon="13.6464609"><ele>855.0</ele><time>2026-03-24T13:19:18.925Z</time></trkpt><trkpt lat="42.0538461" lon="13.6463127"><ele>855.0</ele><time>2026-03-24T13:19:19.924Z</time></trkpt><trkpt lat="42.0539689" lon="13.6461659"><ele>854.3333333333333</ele><time>2026-03-24T13:19:20.925Z</time></trkpt><trkpt lat="42.0540806" lon="13.646032"><ele>853.6666666666666</ele><time>2026-03-24T13:19:21.925Z</time></trkpt><trkpt lat="42.05421" lon="13.6458814"><ele>853.0</ele><time>2026-03-24T13:19:22.924Z</time></trkpt><trkpt lat="42.0543435" lon="13.6457386"><ele>853.0</ele><time>2026-03-24T13:19:23.924Z</time></trkpt><trkpt lat="42.0544654" lon="13.6456008"><ele>853.0</ele><time>2026-03-24T13:19:24.925Z</time></trkpt><trkpt lat="42.0545791" lon="13.6454662"><ele>853.0</ele><time>2026-03-24T13:19:25.924Z</time></trkpt><trkpt lat="42.0546826" lon="13.6453267"><ele>853.25</ele><time>2026-03-24T13:19:26.925Z</time></trkpt><trkpt lat="42.0547704" lon="13.6451873"><ele>853.5</ele><time>2026-03-24T13:19:27.925Z</time></trkpt><trkpt lat="42.054848" lon="13.6450542"><ele>853.75</ele><time>2026-03-24T13:19:28.924Z</time></trkpt><trkpt lat="42.0549071" lon="13.6449106"><ele>854.0</ele><time>2026-03-24T13:19:29.924Z</time></trkpt><trkpt lat="42.0549583" lon="13.6447514"><ele>854.0</ele><time>2026-03-24T13:19:30.924Z</time></trkpt><trkpt lat="42.0550019" lon="13.6445756"><ele>854.0000000000001</ele><time>2026-03-24T13:19:31.924Z</time></trkpt><trkpt lat="42.0550267" lon="13.6444134"><ele>854.0000000000001</ele><time>2026-03-24T13:19:32.925Z</time></trkpt><trkpt lat="42.055049" lon="13.6442818"><ele>854.0</ele><time>2026-03-24T13:19:33.924Z</time></trkpt><trkpt lat="42.0550773" lon="13.6441774"><ele>854.0</ele><time>2026-03-24T13:19:34.924Z</time></trkpt><trkpt lat="42.055115" lon="13.6440765"><ele>853.5</ele><time>2026-03-24T13:19:35.925Z</time></trkpt><trkpt lat="42.0551598" lon="13.6439561"><ele>853.0</ele><time>2026-03-24T13:19:36.924Z</time></trkpt><trkpt lat="42.0552032" lon="13.6438121"><ele>852.5</ele><time>2026-03-24T13:19:37.925Z</time></trkpt><trkpt lat="42.055242" lon="13.6436343"><ele>852.0</ele><time>2026-03-24T13:19:38.924Z</time></trkpt><trkpt lat="42.0552785" lon="13.6434322"><ele>852.0</ele><time>2026-03-24T13:19:39.925Z</time></trkpt><trkpt lat="42.0553091" lon="13.6432337"><ele>852.0</ele><time>2026-03-24T13:19:40.925Z</time></trkpt><trkpt lat="42.0553444" lon="13.6430589"><ele>852.0</ele><time>2026-03-24T13:19:41.924Z</time></trkpt><trkpt lat="42.0553937" lon="13.6428795"><ele>852.0</ele><time>2026-03-24T13:19:42.925Z</time></trkpt><trkpt lat="42.0554505" lon="13.6427102"><ele>851.8</ele><time>2026-03-24T13:19:43.924Z</time></trkpt><trkpt lat="42.0555015" lon="13.6425776"><ele>851.6</ele><time>2026-03-24T13:19:44.925Z</time></trkpt><trkpt lat="42.0555503" lon="13.6424688"><ele>851.4</ele><time>2026-03-24T13:19:45.925Z</time></trkpt><trkpt lat="42.0555924" lon="13.6423868"><ele>851.1999999999999</ele><time>2026-03-24T13:19:46.924Z</time></trkpt><trkpt lat="42.0556508" lon="13.6423136"><ele>851.0</ele><time>2026-03-24T13:19:47.924Z</time></trkpt><trkpt lat="42.055734" lon="13.6422449"><ele>852.5</ele><time>2026-03-24T13:19:48.924Z</time></trkpt><trkpt lat="42.0558485" lon="13.6421835"><ele>854.0</ele><time>2026-03-24T13:19:49.924Z</time></trkpt><trkpt lat="42.0559904" lon="13.6421276"><ele>855.5</ele><time>2026-03-24T13:19:50.924Z</time></trkpt><trkpt lat="42.0561465" lon="13.6420603"><ele>857.0</ele><time>2026-03-24T13:19:51.924Z</time></trkpt><trkpt lat="42.0563119" lon="13.641986"><ele>855.6666666666667</ele><time>2026-03-24T13:19:52.924Z</time></trkpt><trkpt lat="42.0564823" lon="13.641911"><ele>854.3333333333333</ele><time>2026-03-24T13:19:53.924Z</time></trkpt><trkpt lat="42.0566426" lon="13.6418483"><ele>853.0</ele><time>2026-03-24T13:19:54.924Z</time></trkpt><trkpt lat="42.0567776" lon="13.6418022"><ele>853.0</ele><time>2026-03-24T13:19:55.924Z</time></trkpt><trkpt lat="42.0568976" lon="13.6417606"><ele>853.0</ele><time>2026-03-24T13:19:56.924Z</time></trkpt><trkpt lat="42.0570137" lon="13.6417437"><ele>853.0</ele><time>2026-03-24T13:19:57.925Z</time></trkpt><trkpt lat="42.057121" lon="13.6417532"><ele>853.0</ele><time>2026-03-24T13:19:58.924Z</time></trkpt><trkpt lat="42.0572413" lon="13.6417762"><ele>853.0</ele><time>2026-03-24T13:19:59.924Z</time></trkpt><trkpt lat="42.0573715" lon="13.6417931"><ele>853.0</ele><time>2026-03-24T13:20:00.925Z</time></trkpt><trkpt lat="42.0574952" lon="13.6417913"><ele>853.0</ele><time>2026-03-24T13:20:01.925Z</time></trkpt><trkpt lat="42.0576204" lon="13.6417709"><ele>853.0</ele><time>2026-03-24T13:20:02.924Z</time></trkpt><trkpt lat="42.0577438" lon="13.6417346"><ele>853.6666666666666</ele><time>2026-03-24T13:20:03.925Z</time></trkpt><trkpt lat="42.0578883" lon="13.6416501"><ele>854.3333333333333</ele><time>2026-03-24T13:20:04.925Z</time></trkpt><trkpt lat="42.0580329" lon="13.6415776"><ele>855.0</ele><time>2026-03-24T13:20:05.925Z</time></trkpt><trkpt lat="42.0581673" lon="13.6415044"><ele>855.5</ele><time>2026-03-24T13:20:06.924Z</time></trkpt><trkpt lat="42.058293" lon="13.6414452"><ele>856.0</ele><time>2026-03-24T13:20:07.924Z</time></trkpt><trkpt lat="42.0584234" lon="13.641388"><ele>856.5</ele><time>2026-03-24T13:20:08.925Z</time></trkpt><trkpt lat="42.0585486" lon="13.641347"><ele>857.0</ele><time>2026-03-24T13:20:09.924Z</time></trkpt><trkpt lat="42.0586904" lon="13.6413015"><ele>857.0</ele><time>2026-03-24T13:20:10.924Z</time></trkpt><trkpt lat="42.0588329" lon="13.6412417"><ele>857.0</ele><time>2026-03-24T13:20:11.925Z</time></trkpt><trkpt lat="42.0589885" lon="13.6412068"><ele>857.0</ele><time>2026-03-24T13:20:12.924Z</time></trkpt><trkpt lat="42.0591596" lon="13.6411858"><ele>857.6666666666667</ele><time>2026-03-24T13:20:13.925Z</time></trkpt><trkpt lat="42.0593408" lon="13.6411654"><ele>858.3333333333333</ele><time>2026-03-24T13:20:14.924Z</time></trkpt><trkpt lat="42.0595293" lon="13.6411591"><ele>859.0</ele><time>2026-03-24T13:20:15.924Z</time></trkpt><trkpt lat="42.0597179" lon="13.6411564"><ele>859.0</ele><time>2026-03-24T13:20:16.924Z</time></trkpt><trkpt lat="42.059897" lon="13.6411589"><ele>859.0</ele><time>2026-03-24T13:20:17.924Z</time></trkpt><trkpt lat="42.060061" lon="13.6411698"><ele>859.0</ele><time>2026-03-24T13:20:18.924Z</time></trkpt><trkpt lat="42.060206" lon="13.6411928"><ele>859.25</ele><time>2026-03-24T13:20:19.925Z</time></trkpt><trkpt lat="42.0603467" lon="13.6412076"><ele>859.5</ele><time>2026-03-24T13:20:20.924Z</time></trkpt><trkpt lat="42.0604866" lon="13.6412123"><ele>859.75</ele><time>2026-03-24T13:20:21.924Z</time></trkpt><trkpt lat="42.0606285" lon="13.6412043"><ele>860.0</ele><time>2026-03-24T13:20:22.924Z</time></trkpt><trkpt lat="42.0607825" lon="13.6411917"><ele>860.0</ele><time>2026-03-24T13:20:23.924Z</time></trkpt><trkpt lat="42.0609368" lon="13.6411696"><ele>860.0</ele><time>2026-03-24T13:20:24.924Z</time></trkpt><trkpt lat="42.0610904" lon="13.6411358"><ele>860.0</ele><time>2026-03-24T13:20:25.925Z</time></trkpt><trkpt lat="42.0612374" lon="13.6410953"><ele>860.0</ele><time>2026-03-24T13:20:26.925Z</time></trkpt><trkpt lat="42.0613807" lon="13.6410565"><ele>860.0</ele><time>2026-03-24T13:20:27.924Z</time></trkpt><trkpt lat="42.0615137" lon="13.6410134"><ele>860.0</ele><time>2026-03-24T13:20:28.924Z</time></trkpt><trkpt lat="42.0616327" lon="13.6409623"><ele>860.0</ele><time>2026-03-24T13:20:29.925Z</time></trkpt><trkpt lat="42.061751" lon="13.6408971"><ele>861.75</ele><time>2026-03-24T13:20:30.925Z</time></trkpt><trkpt lat="42.0618699" lon="13.6408129"><ele>863.5</ele><time>2026-03-24T13:20:31.924Z</time></trkpt><trkpt lat="42.0619914" lon="13.6407082"><ele>865.25</ele><time>2026-03-24T13:20:32.924Z</time></trkpt><trkpt lat="42.06211" lon="13.6405843"><ele>867.0</ele><time>2026-03-24T13:20:33.925Z</time></trkpt><trkpt lat="42.0622333" lon="13.6404551"><ele>867.0</ele><time>2026-03-24T13:20:34.925Z</time></trkpt><trkpt lat="42.0623498" lon="13.6403219"><ele>867.0</ele><time>2026-03-24T13:20:35.924Z</time></trkpt><trkpt lat="42.0624495" lon="13.6401969"><ele>867.0</ele><time>2026-03-24T13:20:36.924Z</time></trkpt><trkpt lat="42.0625368" lon="13.6400931"><ele>867.0</ele><time>2026-03-24T13:20:37.924Z</time></trkpt><trkpt lat="42.0626204" lon="13.6399928"><ele>867.0</ele><time>2026-03-24T13:20:38.924Z</time></trkpt><trkpt lat="42.0627133" lon="13.6398978"><ele>867.0</ele><time>2026-03-24T13:20:39.924Z</time></trkpt><trkpt lat="42.0628245" lon="13.6398052"><ele>867.0</ele><time>2026-03-24T13:20:40.924Z</time></trkpt><trkpt lat="42.062952" lon="13.6397152"><ele>867.0</ele><time>2026-03-24T13:20:41.924Z</time></trkpt><trkpt lat="42.0630919" lon="13.6396164"><ele>867.0</ele><time>2026-03-24T13:20:42.925Z</time></trkpt><trkpt lat="42.0632375" lon="13.6395069"><ele>867.0</ele><time>2026-03-24T13:20:43.924Z</time></trkpt><trkpt lat="42.0633757" lon="13.6394067"><ele>867.0</ele><time>2026-03-24T13:20:44.924Z</time></trkpt><trkpt lat="42.0635025" lon="13.6393088"><ele>866.5</ele><time>2026-03-24T13:20:45.924Z</time></trkpt><trkpt lat="42.0636283" lon="13.6392122"><ele>866.0</ele><time>2026-03-24T13:20:46.924Z</time></trkpt><trkpt lat="42.063748" lon="13.6391048"><ele>865.5</ele><time>2026-03-24T13:20:47.925Z</time></trkpt><trkpt lat="42.063872" lon="13.6389771"><ele>865.0</ele><time>2026-03-24T13:20:48.925Z</time></trkpt><trkpt lat="42.0640079" lon="13.6388491"><ele>864.6666666666666</ele><time>2026-03-24T13:20:49.924Z</time></trkpt><trkpt lat="42.0641458" lon="13.6387279"><ele>864.3333333333333</ele><time>2026-03-24T13:20:50.924Z</time></trkpt><trkpt lat="42.0642752" lon="13.6386003"><ele>864.0</ele><time>2026-03-24T13:20:51.924Z</time></trkpt><trkpt lat="42.0643946" lon="13.6384889"><ele>864.0</ele><time>2026-03-24T13:20:52.925Z</time></trkpt><trkpt lat="42.0645223" lon="13.6383717"><ele>864.0</ele><time>2026-03-24T13:20:53.925Z</time></trkpt><trkpt lat="42.0646553" lon="13.6382405"><ele>864.0</ele><time>2026-03-24T13:20:54.925Z</time></trkpt><trkpt lat="42.0647854" lon="13.6381055"><ele>864.0</ele><time>2026-03-24T13:20:55.925Z</time></trkpt><trkpt lat="42.0649173" lon="13.6379614"><ele>864.0</ele><time>2026-03-24T13:20:56.924Z</time></trkpt><trkpt lat="42.0650349" lon="13.6378283"><ele>864.0</ele><time>2026-03-24T13:20:57.925Z</time></trkpt><trkpt lat="42.0651478" lon="13.6376985"><ele>864.25</ele><time>2026-03-24T13:20:58.924Z</time></trkpt><trkpt lat="42.0652475" lon="13.637579"><ele>864.5</ele><time>2026-03-24T13:20:59.924Z</time></trkpt><trkpt lat="42.0653392" lon="13.6374668"><ele>864.75</ele><time>2026-03-24T13:21:00.924Z</time></trkpt><trkpt lat="42.0654237" lon="13.6373693"><ele>865.0</ele><time>2026-03-24T13:21:01.924Z</time></trkpt><trkpt lat="42.0655111" lon="13.6372928"><ele>865.0</ele><time>2026-03-24T13:21:02.925Z</time></trkpt><trkpt lat="42.0655962" lon="13.6372162"><ele>865.0</ele><time>2026-03-24T13:21:03.924Z</time></trkpt><trkpt lat="42.0656786" lon="13.6371496"><ele>865.0</ele><time>2026-03-24T13:21:04.924Z</time></trkpt><trkpt lat="42.0657523" lon="13.6370987"><ele>865.0</ele><time>2026-03-24T13:21:05.924Z</time></trkpt><trkpt lat="42.0658436" lon="13.6370344"><ele>865.0</ele><time>2026-03-24T13:21:06.924Z</time></trkpt><trkpt lat="42.0659433" lon="13.6369441"><ele>865.25</ele><time>2026-03-24T13:21:07.924Z</time></trkpt><trkpt lat="42.0660561" lon="13.6368485"><ele>865.5</ele><time>2026-03-24T13:21:08.925Z</time></trkpt><trkpt lat="42.0661874" lon="13.6367438"><ele>865.75</ele><time>2026-03-24T13:21:09.924Z</time></trkpt><trkpt lat="42.066318" lon="13.6366407"><ele>866.0</ele><time>2026-03-24T13:21:10.924Z</time></trkpt><trkpt lat="42.0664349" lon="13.6365456"><ele>866.0</ele><time>2026-03-24T13:21:11.924Z</time></trkpt><trkpt lat="42.066542" lon="13.636458"><ele>865.9999999999999</ele><time>2026-03-24T13:21:12.925Z</time></trkpt><trkpt lat="42.0666384" lon="13.6363788"><ele>865.9999999999999</ele><time>2026-03-24T13:21:13.925Z</time></trkpt><trkpt lat="42.0667261" lon="13.6363009"><ele>866.0</ele><time>2026-03-24T13:21:14.925Z</time></trkpt><trkpt lat="42.066809" lon="13.6362339"><ele>866.0</ele><time>2026-03-24T13:21:15.924Z</time></trkpt><trkpt lat="42.0668763" lon="13.6361773"><ele>866.8333333333334</ele><time>2026-03-24T13:21:16.924Z</time></trkpt><trkpt lat="42.0669499" lon="13.6361228"><ele>867.6666666666667</ele><time>2026-03-24T13:21:17.924Z</time></trkpt><trkpt lat="42.0670154" lon="13.6360635"><ele>868.5</ele><time>2026-03-24T13:21:18.924Z</time></trkpt><trkpt lat="42.0670724" lon="13.6360076"><ele>869.3333333333333</ele><time>2026-03-24T13:21:19.924Z</time></trkpt><trkpt lat="42.0671524" lon="13.6359174"><ele>870.1666666666666</ele><time>2026-03-24T13:21:21.925Z</time></trkpt><trkpt lat="42.0671857" lon="13.6358121"><ele>871.0</ele><time>2026-03-24T13:21:23.925Z</time></trkpt><trkpt lat="42.0671897" lon="13.635647"><ele>870.9999999999999</ele><time>2026-03-24T13:21:25.924Z</time></trkpt><trkpt lat="42.0671796" lon="13.6355467"><ele>871.0</ele><time>2026-03-24T13:21:26.924Z</time></trkpt><trkpt lat="42.0671618" lon="13.63544"><ele>871.0</ele><time>2026-03-24T13:21:27.925Z</time></trkpt><trkpt lat="42.0671369" lon="13.6353241"><ele>871.0</ele><time>2026-03-24T13:21:28.924Z</time></trkpt><trkpt lat="42.0671085" lon="13.6352033"><ele>870.9999999999999</ele><time>2026-03-24T13:21:29.924Z</time></trkpt><trkpt lat="42.0670675" lon="13.6350778"><ele>871.0</ele><time>2026-03-24T13:21:30.924Z</time></trkpt><trkpt lat="42.067023" lon="13.634951"><ele>870.5999999999999</ele><time>2026-03-24T13:21:31.924Z</time></trkpt><trkpt lat="42.0669673" lon="13.634834"><ele>870.1999999999999</ele><time>2026-03-24T13:21:32.924Z</time></trkpt><trkpt lat="42.0669021" lon="13.6347184"><ele>869.8000000000001</ele><time>2026-03-24T13:21:33.924Z</time></trkpt><trkpt lat="42.0668408" lon="13.6346117"><ele>869.4000000000001</ele><time>2026-03-24T13:21:34.924Z</time></trkpt><trkpt lat="42.0667817" lon="13.6345122"><ele>869.0</ele><time>2026-03-24T13:21:35.924Z</time></trkpt><trkpt lat="42.0667232" lon="13.6344243"><ele>869.0000000000001</ele><time>2026-03-24T13:21:36.924Z</time></trkpt><trkpt lat="42.0666614" lon="13.6343411"><ele>869.0</ele><time>2026-03-24T13:21:37.924Z</time></trkpt><trkpt lat="42.0665984" lon="13.6342617"><ele>869.0</ele><time>2026-03-24T13:21:38.925Z</time></trkpt><trkpt lat="42.0665364" lon="13.6341891"><ele>869.0</ele><time>2026-03-24T13:21:39.924Z</time></trkpt><trkpt lat="42.0664744" lon="13.6341223"><ele>869.0000000000001</ele><time>2026-03-24T13:21:40.924Z</time></trkpt><trkpt lat="42.0664085" lon="13.6340538"><ele>869.0</ele><time>2026-03-24T13:21:41.925Z</time></trkpt><trkpt lat="42.0663404" lon="13.6339791"><ele>868.2</ele><time>2026-03-24T13:21:42.925Z</time></trkpt><trkpt lat="42.0662719" lon="13.6338965"><ele>867.4000000000001</ele><time>2026-03-24T13:21:43.924Z</time></trkpt><trkpt lat="42.0661951" lon="13.6338138"><ele>866.6</ele><time>2026-03-24T13:21:44.924Z</time></trkpt><trkpt lat="42.0661146" lon="13.6337458"><ele>865.8</ele><time>2026-03-24T13:21:45.925Z</time></trkpt><trkpt lat="42.0660389" lon="13.633686"><ele>865.0</ele><time>2026-03-24T13:21:46.924Z</time></trkpt><trkpt lat="42.0659594" lon="13.633621"><ele>865.0</ele><time>2026-03-24T13:21:47.925Z</time></trkpt><trkpt lat="42.0658826" lon="13.6335672"><ele>865.0</ele><time>2026-03-24T13:21:48.924Z</time></trkpt><trkpt lat="42.0658095" lon="13.6335194"><ele>865.0</ele><time>2026-03-24T13:21:49.925Z</time></trkpt><trkpt lat="42.0657421" lon="13.6334766"><ele>865.0</ele><time>2026-03-24T13:21:50.925Z</time></trkpt><trkpt lat="42.0656778" lon="13.6334311"><ele>865.0</ele><time>2026-03-24T13:21:51.925Z</time></trkpt><trkpt lat="42.0656212" lon="13.6333813"><ele>865.0</ele><time>2026-03-24T13:21:52.924Z</time></trkpt><trkpt lat="42.0655749" lon="13.6333194"><ele>865.0</ele><time>2026-03-24T13:21:53.924Z</time></trkpt><trkpt lat="42.0655356" lon="13.6332476"><ele>863.0</ele><time>2026-03-24T13:21:54.924Z</time></trkpt><trkpt lat="42.0654998" lon="13.6331526"><ele>861.0</ele><time>2026-03-24T13:21:55.924Z</time></trkpt><trkpt lat="42.0654698" lon="13.6330395"><ele>859.0</ele><time>2026-03-24T13:21:56.924Z</time></trkpt><trkpt lat="42.0654368" lon="13.6329116"><ele>857.0</ele><time>2026-03-24T13:21:57.925Z</time></trkpt><trkpt lat="42.0653982" lon="13.6327802"><ele>855.0</ele><time>2026-03-24T13:21:58.924Z</time></trkpt><trkpt lat="42.0653572" lon="13.6326377"><ele>854.0</ele><time>2026-03-24T13:21:59.924Z</time></trkpt><trkpt lat="42.0653162" lon="13.6324929"><ele>853.0</ele><time>2026-03-24T13:22:00.924Z</time></trkpt><trkpt lat="42.0652745" lon="13.6323511"><ele>852.0</ele><time>2026-03-24T13:22:01.924Z</time></trkpt><trkpt lat="42.0652229" lon="13.6322087"><ele>851.0</ele><time>2026-03-24T13:22:02.924Z</time></trkpt><trkpt lat="42.0651698" lon="13.6320576"><ele>850.75</ele><time>2026-03-24T13:22:03.925Z</time></trkpt><trkpt lat="42.0651161" lon="13.6319145"><ele>850.5</ele><time>2026-03-24T13:22:04.924Z</time></trkpt><trkpt lat="42.0650581" lon="13.6317718"><ele>850.25</ele><time>2026-03-24T13:22:05.924Z</time></trkpt><trkpt lat="42.0650011" lon="13.6316344"><ele>850.0</ele><time>2026-03-24T13:22:06.924Z</time></trkpt><trkpt lat="42.0649455" lon="13.6315088"><ele>848.0</ele><time>2026-03-24T13:22:07.924Z</time></trkpt><trkpt lat="42.0648898" lon="13.6313827"><ele>846.0</ele><time>2026-03-24T13:22:08.924Z</time></trkpt><trkpt lat="42.0648342" lon="13.6312488"><ele>844.0</ele><time>2026-03-24T13:22:09.924Z</time></trkpt><trkpt lat="42.064783" lon="13.6310962"><ele>842.0</ele><time>2026-03-24T13:22:10.924Z</time></trkpt><trkpt lat="42.064743" lon="13.6309311"><ele>842.0</ele><time>2026-03-24T13:22:11.924Z</time></trkpt><trkpt lat="42.0647055" lon="13.6307486"><ele>842.0</ele><time>2026-03-24T13:22:12.924Z</time></trkpt><trkpt lat="42.0646649" lon="13.6305602"><ele>842.0</ele><time>2026-03-24T13:22:13.924Z</time></trkpt><trkpt lat="42.0646265" lon="13.6303621"><ele>842.0</ele><time>2026-03-24T13:22:14.924Z</time></trkpt><trkpt lat="42.0645856" lon="13.6301719"><ele>841.75</ele><time>2026-03-24T13:22:15.924Z</time></trkpt><trkpt lat="42.0645411" lon="13.6299963"><ele>841.5</ele><time>2026-03-24T13:22:16.924Z</time></trkpt><trkpt lat="42.0644936" lon="13.6298324"><ele>841.25</ele><time>2026-03-24T13:22:17.924Z</time></trkpt><trkpt lat="42.0644432" lon="13.62968"><ele>841.0</ele><time>2026-03-24T13:22:18.924Z</time></trkpt><trkpt lat="42.0643873" lon="13.6295453"><ele>841.8</ele><time>2026-03-24T13:22:19.924Z</time></trkpt><trkpt lat="42.0643239" lon="13.6294288"><ele>842.5999999999999</ele><time>2026-03-24T13:22:20.925Z</time></trkpt><trkpt lat="42.0642569" lon="13.6293304"><ele>843.4</ele><time>2026-03-24T13:22:21.924Z</time></trkpt><trkpt lat="42.0642005" lon="13.6292551"><ele>844.2</ele><time>2026-03-24T13:22:22.924Z</time></trkpt><trkpt lat="42.064134" lon="13.629155"><ele>845.0</ele><time>2026-03-24T13:22:24.924Z</time></trkpt><trkpt lat="42.0641737" lon="13.6290838"><ele>845.0</ele><time>2026-03-24T13:22:27.925Z</time></trkpt><trkpt lat="42.0642963" lon="13.6291209"><ele>845.0</ele><time>2026-03-24T13:22:29.924Z</time></trkpt><trkpt lat="42.0643702" lon="13.6291438"><ele>845.0</ele><time>2026-03-24T13:22:30.924Z</time></trkpt><trkpt lat="42.0644507" lon="13.6291663"><ele>845.0</ele><time>2026-03-24T13:22:31.924Z</time></trkpt><trkpt lat="42.0645377" lon="13.6291935"><ele>845.0</ele><time>2026-03-24T13:22:32.924Z</time></trkpt><trkpt lat="42.0646236" lon="13.6292224"><ele>845.0000000000001</ele><time>2026-03-24T13:22:33.925Z</time></trkpt><trkpt lat="42.0646903" lon="13.6292394"><ele>845.0</ele><time>2026-03-24T13:22:34.924Z</time></trkpt><trkpt lat="42.0647655" lon="13.6292661"><ele>845.0</ele><time>2026-03-24T13:22:36.925Z</time></trkpt><trkpt lat="42.0648597" lon="13.6293692"><ele>845.0</ele><time>2026-03-24T13:22:39.924Z</time></trkpt><trkpt lat="42.0649015" lon="13.629448"><ele>845.0000000000001</ele><time>2026-03-24T13:22:40.924Z</time></trkpt><trkpt lat="42.0649777" lon="13.6295542"><ele>845.0</ele><time>2026-03-24T13:22:42.925Z</time></trkpt><trkpt lat="42.0650695" lon="13.6296299"><ele>845.4285714285713</ele><time>2026-03-24T13:22:44.925Z</time></trkpt><trkpt lat="42.0651235" lon="13.6296844"><ele>845.8571428571429</ele><time>2026-03-24T13:22:45.924Z</time></trkpt><trkpt lat="42.0651771" lon="13.6297339"><ele>846.2857142857142</ele><time>2026-03-24T13:22:46.924Z</time></trkpt><trkpt lat="42.0652362" lon="13.6297738"><ele>846.7142857142857</ele><time>2026-03-24T13:22:47.925Z</time></trkpt><trkpt lat="42.0653028" lon="13.6298018"><ele>847.1428571428571</ele><time>2026-03-24T13:22:48.924Z</time></trkpt><trkpt lat="42.0653752" lon="13.6298119"><ele>847.5714285714286</ele><time>2026-03-24T13:22:49.924Z</time></trkpt><trkpt lat="42.0654432" lon="13.6298131"><ele>848.0</ele><time>2026-03-24T13:22:50.924Z</time></trkpt><trkpt lat="42.0655093" lon="13.6298092"><ele>848.0</ele><time>2026-03-24T13:22:51.925Z</time></trkpt><trkpt lat="42.0656264" lon="13.6297853"><ele>848.0</ele><time>2026-03-24T13:22:53.924Z</time></trkpt><trkpt lat="42.0657502" lon="13.6297608"><ele>848.0</ele><time>2026-03-24T13:22:55.925Z</time></trkpt><trkpt lat="42.0658189" lon="13.6297537"><ele>848.0</ele><time>2026-03-24T13:22:56.925Z</time></trkpt><trkpt lat="42.0658974" lon="13.629735"><ele>848.0</ele><time>2026-03-24T13:22:57.925Z</time></trkpt><trkpt lat="42.0659792" lon="13.6297043"><ele>848.2</ele><time>2026-03-24T13:22:58.924Z</time></trkpt><trkpt lat="42.0660679" lon="13.6296793"><ele>848.4</ele><time>2026-03-24T13:22:59.925Z</time></trkpt><trkpt lat="42.0661649" lon="13.6296618"><ele>848.6</ele><time>2026-03-24T13:23:00.924Z</time></trkpt><trkpt lat="42.0662567" lon="13.629651"><ele>848.8000000000001</ele><time>2026-03-24T13:23:01.924Z</time></trkpt><trkpt lat="42.066352" lon="13.6296379"><ele>849.0</ele><time>2026-03-24T13:23:02.924Z</time></trkpt><trkpt lat="42.0664501" lon="13.6296176"><ele>849.0</ele><time>2026-03-24T13:23:03.925Z</time></trkpt><trkpt lat="42.0665409" lon="13.6295941"><ele>849.0</ele><time>2026-03-24T13:23:04.925Z</time></trkpt><trkpt lat="42.0666306" lon="13.6295693"><ele>849.0</ele><time>2026-03-24T13:23:05.924Z</time></trkpt><trkpt lat="42.0667197" lon="13.6295372"><ele>849.0</ele><time>2026-03-24T13:23:06.924Z</time></trkpt><trkpt lat="42.066818" lon="13.6294935"><ele>849.0</ele><time>2026-03-24T13:23:07.924Z</time></trkpt><trkpt lat="42.0669338" lon="13.6294335"><ele>845.5</ele><time>2026-03-24T13:23:08.925Z</time></trkpt><trkpt lat="42.0670531" lon="13.6293629"><ele>842.0</ele><time>2026-03-24T13:23:09.925Z</time></trkpt><trkpt lat="42.0671631" lon="13.6292934"><ele>838.5</ele><time>2026-03-24T13:23:10.924Z</time></trkpt><trkpt lat="42.0672579" lon="13.6292197"><ele>835.0</ele><time>2026-03-24T13:23:11.925Z</time></trkpt><trkpt lat="42.0673431" lon="13.629165"><ele>833.75</ele><time>2026-03-24T13:23:12.924Z</time></trkpt><trkpt lat="42.0674549" lon="13.6291243"><ele>832.5</ele><time>2026-03-24T13:23:13.924Z</time></trkpt><trkpt lat="42.0675897" lon="13.6290892"><ele>831.25</ele><time>2026-03-24T13:23:14.924Z</time></trkpt><trkpt lat="42.0677174" lon="13.6290462"><ele>830.0</ele><time>2026-03-24T13:23:15.924Z</time></trkpt><trkpt lat="42.0678291" lon="13.6289963"><ele>830.0</ele><time>2026-03-24T13:23:16.924Z</time></trkpt><trkpt lat="42.0679308" lon="13.6289518"><ele>830.0</ele><time>2026-03-24T13:23:17.925Z</time></trkpt><trkpt lat="42.0680189" lon="13.6289064"><ele>830.0</ele><time>2026-03-24T13:23:18.925Z</time></trkpt><trkpt lat="42.0680884" lon="13.6288682"><ele>830.0</ele><time>2026-03-24T13:23:19.925Z</time></trkpt><trkpt lat="42.0681824" lon="13.6287921"><ele>830.0</ele><time>2026-03-24T13:23:21.925Z</time></trkpt><trkpt lat="42.0681944" lon="13.628683"><ele>828.2</ele><time>2026-03-24T13:23:23.924Z</time></trkpt><trkpt lat="42.0681347" lon="13.6285182"><ele>826.4</ele><time>2026-03-24T13:23:25.924Z</time></trkpt><trkpt lat="42.0680838" lon="13.6283954"><ele>824.5999999999999</ele><time>2026-03-24T13:23:26.924Z</time></trkpt><trkpt lat="42.0680292" lon="13.628288"><ele>822.8</ele><time>2026-03-24T13:23:27.924Z</time></trkpt><trkpt lat="42.0679561" lon="13.6281772"><ele>821.0</ele><time>2026-03-24T13:23:28.925Z</time></trkpt><trkpt lat="42.0678676" lon="13.6280536"><ele>821.0</ele><time>2026-03-24T13:23:29.925Z</time></trkpt><trkpt lat="42.0677623" lon="13.6279293"><ele>821.0</ele><time>2026-03-24T13:23:30.924Z</time></trkpt><trkpt lat="42.067634" lon="13.6277963"><ele>821.0</ele><time>2026-03-24T13:23:31.925Z</time></trkpt><trkpt lat="42.0675137" lon="13.6276674"><ele>819.0</ele><time>2026-03-24T13:23:32.924Z</time></trkpt><trkpt lat="42.0673999" lon="13.6275324"><ele>817.0</ele><time>2026-03-24T13:23:33.924Z</time></trkpt><trkpt lat="42.0672937" lon="13.6273921"><ele>815.0</ele><time>2026-03-24T13:23:34.924Z</time></trkpt><trkpt lat="42.0671903" lon="13.6272571"><ele>813.0</ele><time>2026-03-24T13:23:35.924Z</time></trkpt><trkpt lat="42.0670903" lon="13.6271325"><ele>813.0</ele><time>2026-03-24T13:23:36.925Z</time></trkpt><trkpt lat="42.0669911" lon="13.6270136"><ele>813.0</ele><time>2026-03-24T13:23:37.924Z</time></trkpt><trkpt lat="42.0668895" lon="13.6268992"><ele>813.0</ele><time>2026-03-24T13:23:38.924Z</time></trkpt><trkpt lat="42.0667879" lon="13.6267798"><ele>813.0</ele><time>2026-03-24T13:23:39.925Z</time></trkpt><trkpt lat="42.0666996" lon="13.6266704"><ele>811.25</ele><time>2026-03-24T13:23:40.924Z</time></trkpt><trkpt lat="42.0666274" lon="13.6265454"><ele>809.5</ele><time>2026-03-24T13:23:41.924Z</time></trkpt><trkpt lat="42.0665453" lon="13.6264041"><ele>807.75</ele><time>2026-03-24T13:23:42.924Z</time></trkpt><trkpt lat="42.0664575" lon="13.6262607"><ele>806.0</ele><time>2026-03-24T13:23:43.924Z</time></trkpt><trkpt lat="42.0663658" lon="13.6261137"><ele>805.0</ele><time>2026-03-24T13:23:44.924Z</time></trkpt><trkpt lat="42.0662831" lon="13.6259656"><ele>804.0</ele><time>2026-03-24T13:23:45.924Z</time></trkpt><trkpt lat="42.0662102" lon="13.6258319"><ele>803.0</ele><time>2026-03-24T13:23:46.925Z</time></trkpt><trkpt lat="42.0661416" lon="13.6257229"><ele>802.0</ele><time>2026-03-24T13:23:47.924Z</time></trkpt><trkpt lat="42.0660648" lon="13.6256372"><ele>802.0</ele><time>2026-03-24T13:23:48.924Z</time></trkpt><trkpt lat="42.0659764" lon="13.625579"><ele>802.0</ele><time>2026-03-24T13:23:49.924Z</time></trkpt><trkpt lat="42.0658859" lon="13.6255435"><ele>802.0</ele><time>2026-03-24T13:23:50.925Z</time></trkpt><trkpt lat="42.0657952" lon="13.6255218"><ele>802.0</ele><time>2026-03-24T13:23:51.924Z</time></trkpt><trkpt lat="42.0657083" lon="13.6254786"><ele>802.0</ele><time>2026-03-24T13:23:52.924Z</time></trkpt><trkpt lat="42.0656172" lon="13.6254122"><ele>802.2</ele><time>2026-03-24T13:23:53.924Z</time></trkpt><trkpt lat="42.0655455" lon="13.6253404"><ele>802.4000000000001</ele><time>2026-03-24T13:23:54.925Z</time></trkpt><trkpt lat="42.0654942" lon="13.6252557"><ele>802.5999999999999</ele><time>2026-03-24T13:23:55.924Z</time></trkpt><trkpt lat="42.0654546" lon="13.625149"><ele>802.8</ele><time>2026-03-24T13:23:56.925Z</time></trkpt><trkpt lat="42.0654117" lon="13.6250289"><ele>803.0</ele><time>2026-03-24T13:23:57.924Z</time></trkpt><trkpt lat="42.065372" lon="13.624897"><ele>802.0</ele><time>2026-03-24T13:23:58.924Z</time></trkpt><trkpt lat="42.0653283" lon="13.6247647"><ele>801.0</ele><time>2026-03-24T13:23:59.924Z</time></trkpt><trkpt lat="42.0652799" lon="13.6246435"><ele>800.0</ele><time>2026-03-24T13:24:00.924Z</time></trkpt><trkpt lat="42.0652268" lon="13.624506"><ele>799.0</ele><time>2026-03-24T13:24:01.925Z</time></trkpt><trkpt lat="42.0651737" lon="13.6243831"><ele>798.0</ele><time>2026-03-24T13:24:02.924Z</time></trkpt><trkpt lat="42.0651096" lon="13.6242722"><ele>798.25</ele><time>2026-03-24T13:24:03.924Z</time></trkpt><trkpt lat="42.0650468" lon="13.62415"><ele>798.5</ele><time>2026-03-24T13:24:04.924Z</time></trkpt><trkpt lat="42.0649796" lon="13.624006"><ele>798.75</ele><time>2026-03-24T13:24:05.925Z</time></trkpt><trkpt lat="42.0649114" lon="13.623868"><ele>799.0</ele><time>2026-03-24T13:24:06.924Z</time></trkpt><trkpt lat="42.0648549" lon="13.6237345"><ele>797.25</ele><time>2026-03-24T13:24:07.924Z</time></trkpt><trkpt lat="42.0648066" lon="13.6235967"><ele>795.5</ele><time>2026-03-24T13:24:08.925Z</time></trkpt><trkpt lat="42.0647511" lon="13.6234634"><ele>793.75</ele><time>2026-03-24T13:24:09.925Z</time></trkpt><trkpt lat="42.0646871" lon="13.623326"><ele>792.0</ele><time>2026-03-24T13:24:10.924Z</time></trkpt><trkpt lat="42.064623" lon="13.6231881"><ele>792.0</ele><time>2026-03-24T13:24:11.924Z</time></trkpt><trkpt lat="42.0645553" lon="13.6230418"><ele>792.0</ele><time>2026-03-24T13:24:12.925Z</time></trkpt><trkpt lat="42.0644849" lon="13.6228804"><ele>792.0</ele><time>2026-03-24T13:24:13.925Z</time></trkpt><trkpt lat="42.0644121" lon="13.6227192"><ele>792.0</ele><time>2026-03-24T13:24:14.925Z</time></trkpt><trkpt lat="42.0643529" lon="13.6225819"><ele>791.6</ele><time>2026-03-24T13:24:15.924Z</time></trkpt><trkpt lat="42.064302" lon="13.6224621"><ele>791.2</ele><time>2026-03-24T13:24:16.925Z</time></trkpt><trkpt lat="42.0642581" lon="13.6223673"><ele>790.8</ele><time>2026-03-24T13:24:17.925Z</time></trkpt><trkpt lat="42.0642204" lon="13.6222949"><ele>790.4</ele><time>2026-03-24T13:24:18.925Z</time></trkpt><trkpt lat="42.064138" lon="13.6222026"><ele>790.0</ele><time>2026-03-24T13:24:20.924Z</time></trkpt><trkpt lat="42.0640224" lon="13.6221944"><ele>790.8</ele><time>2026-03-24T13:24:22.925Z</time></trkpt><trkpt lat="42.0639408" lon="13.622208"><ele>791.6</ele><time>2026-03-24T13:24:24.924Z</time></trkpt><trkpt lat="42.063863" lon="13.6222179"><ele>792.4000000000001</ele><time>2026-03-24T13:24:37.924Z</time></trkpt><trkpt lat="42.0637722" lon="13.6222501"><ele>793.2</ele><time>2026-03-24T13:24:40.924Z</time></trkpt><trkpt lat="42.0636402" lon="13.6222591"><ele>794.0</ele><time>2026-03-24T13:24:42.925Z</time></trkpt><trkpt lat="42.0635607" lon="13.6222389"><ele>794.0</ele><time>2026-03-24T13:24:43.924Z</time></trkpt><trkpt lat="42.0634912" lon="13.6221988"><ele>794.0</ele><time>2026-03-24T13:24:44.924Z</time></trkpt><trkpt lat="42.0634237" lon="13.6221355"><ele>794.0</ele><time>2026-03-24T13:24:45.924Z</time></trkpt><trkpt lat="42.0633458" lon="13.6220433"><ele>794.0</ele><time>2026-03-24T13:24:46.924Z</time></trkpt><trkpt lat="42.0632557" lon="13.621941"><ele>794.0</ele><time>2026-03-24T13:24:47.924Z</time></trkpt><trkpt lat="42.0631399" lon="13.6218262"><ele>796.5</ele><time>2026-03-24T13:24:48.925Z</time></trkpt><trkpt lat="42.0630219" lon="13.6217095"><ele>799.0</ele><time>2026-03-24T13:24:49.924Z</time></trkpt><trkpt lat="42.0629128" lon="13.6215993"><ele>801.5</ele><time>2026-03-24T13:24:50.924Z</time></trkpt><trkpt lat="42.0628289" lon="13.6214975"><ele>804.0</ele><time>2026-03-24T13:24:51.924Z</time></trkpt><trkpt lat="42.0627581" lon="13.6214204"><ele>804.0</ele><time>2026-03-24T13:24:52.925Z</time></trkpt><trkpt lat="42.0626894" lon="13.6213542"><ele>804.0</ele><time>2026-03-24T13:24:53.924Z</time></trkpt><trkpt lat="42.0626108" lon="13.621302"><ele>804.0</ele><time>2026-03-24T13:24:54.925Z</time></trkpt><trkpt lat="42.0625224" lon="13.6212478"><ele>804.0</ele><time>2026-03-24T13:24:55.925Z</time></trkpt><trkpt lat="42.0624353" lon="13.6211858"><ele>804.0</ele><time>2026-03-24T13:24:56.925Z</time></trkpt><trkpt lat="42.06236" lon="13.6211154"><ele>804.8333333333334</ele><time>2026-03-24T13:24:57.925Z</time></trkpt><trkpt lat="42.0622997" lon="13.6210471"><ele>805.6666666666667</ele><time>2026-03-24T13:24:58.925Z</time></trkpt><trkpt lat="42.0622403" lon="13.6209987"><ele>806.5</ele><time>2026-03-24T13:24:59.924Z</time></trkpt><trkpt lat="42.0621716" lon="13.6209495"><ele>807.3333333333334</ele><time>2026-03-24T13:25:00.924Z</time></trkpt><trkpt lat="42.0620904" lon="13.6209041"><ele>808.1666666666667</ele><time>2026-03-24T13:25:01.924Z</time></trkpt><trkpt lat="42.0620037" lon="13.6208488"><ele>809.0</ele><time>2026-03-24T13:25:02.924Z</time></trkpt><trkpt lat="42.0619246" lon="13.6207809"><ele>809.0</ele><time>2026-03-24T13:25:03.924Z</time></trkpt><trkpt lat="42.0618484" lon="13.6206985"><ele>809.0</ele><time>2026-03-24T13:25:04.924Z</time></trkpt><trkpt lat="42.0617736" lon="13.6205934"><ele>809.0</ele><time>2026-03-24T13:25:05.924Z</time></trkpt><trkpt lat="42.0616994" lon="13.6204739"><ele>809.0</ele><time>2026-03-24T13:25:06.924Z</time></trkpt><trkpt lat="42.061615" lon="13.6203442"><ele>809.0</ele><time>2026-03-24T13:25:07.924Z</time></trkpt><trkpt lat="42.0615449" lon="13.6202358"><ele>809.0</ele><time>2026-03-24T13:25:08.925Z</time></trkpt><trkpt lat="42.0614905" lon="13.6201546"><ele>809.0</ele><time>2026-03-24T13:25:09.924Z</time></trkpt><trkpt lat="42.0614159" lon="13.6200571"><ele>809.0</ele><time>2026-03-24T13:25:11.924Z</time></trkpt><trkpt lat="42.0613231" lon="13.6199774"><ele>809.0</ele><time>2026-03-24T13:25:13.925Z</time></trkpt><trkpt lat="42.0612603" lon="13.6199234"><ele>809.0</ele><time>2026-03-24T13:25:14.924Z</time></trkpt><trkpt lat="42.0611856" lon="13.6198653"><ele>809.0</ele><time>2026-03-24T13:25:15.924Z</time></trkpt><trkpt lat="42.0611057" lon="13.6197969"><ele>809.0</ele><time>2026-03-24T13:25:16.924Z</time></trkpt><trkpt lat="42.0610309" lon="13.6197313"><ele>809.0</ele><time>2026-03-24T13:25:17.924Z</time></trkpt><trkpt lat="42.0609605" lon="13.6196637"><ele>809.0</ele><time>2026-03-24T13:25:18.924Z</time></trkpt><trkpt lat="42.0609026" lon="13.6195822"><ele>809.0</ele><time>2026-03-24T13:25:19.925Z</time></trkpt><trkpt lat="42.0608493" lon="13.6194711"><ele>810.0</ele><time>2026-03-24T13:25:20.924Z</time></trkpt><trkpt lat="42.0607879" lon="13.619327"><ele>811.0</ele><time>2026-03-24T13:25:21.925Z</time></trkpt><trkpt lat="42.0607256" lon="13.6191827"><ele>812.0</ele><time>2026-03-24T13:25:22.924Z</time></trkpt><trkpt lat="42.0606678" lon="13.6190541"><ele>813.0</ele><time>2026-03-24T13:25:23.924Z</time></trkpt><trkpt lat="42.0606298" lon="13.6189608"><ele>814.0</ele><time>2026-03-24T13:25:24.925Z</time></trkpt><trkpt lat="42.0606029" lon="13.6188732"><ele>813.9999999999999</ele><time>2026-03-24T13:25:25.924Z</time></trkpt><trkpt lat="42.0606155" lon="13.6187421"><ele>814.0</ele><time>2026-03-24T13:25:27.925Z</time></trkpt><trkpt lat="42.0606848" lon="13.6186931"><ele>814.0</ele><time>2026-03-24T13:25:29.924Z</time></trkpt><trkpt lat="42.060765" lon="13.6187109"><ele>814.0</ele><time>2026-03-24T13:25:31.924Z</time></trkpt><trkpt lat="42.0608509" lon="13.618738"><ele>813.9999999999999</ele><time>2026-03-24T13:25:33.925Z</time></trkpt><trkpt lat="42.0609273" lon="13.618735"><ele>814.0</ele><time>2026-03-24T13:25:35.924Z</time></trkpt><trkpt lat="42.0609732" lon="13.6186728"><ele>810.2</ele><time>2026-03-24T13:25:37.925Z</time></trkpt><trkpt lat="42.0610069" lon="13.6185373"><ele>806.4000000000001</ele><time>2026-03-24T13:25:39.925Z</time></trkpt><trkpt lat="42.0610336" lon="13.6184038"><ele>802.6</ele><time>2026-03-24T13:25:41.925Z</time></trkpt><trkpt lat="42.0610989" lon="13.6183226"><ele>798.8</ele><time>2026-03-24T13:25:43.924Z</time></trkpt><trkpt lat="42.0611644" lon="13.6182744"><ele>795.0</ele><time>2026-03-24T13:25:45.925Z</time></trkpt><trkpt lat="42.0612396" lon="13.6182419"><ele>795.0</ele><time>2026-03-24T13:25:47.924Z</time></trkpt><trkpt lat="42.0613046" lon="13.6182117"><ele>795.0</ele><time>2026-03-24T13:25:49.924Z</time></trkpt><trkpt lat="42.0613786" lon="13.6181802"><ele>795.0</ele><time>2026-03-24T13:25:51.924Z</time></trkpt><trkpt lat="42.0614665" lon="13.6181171"><ele>795.0</ele><time>2026-03-24T13:25:53.924Z</time></trkpt><trkpt lat="42.0615404" lon="13.6180223"><ele>795.0</ele><time>2026-03-24T13:25:55.924Z</time></trkpt><trkpt lat="42.0615549" lon="13.6179042"><ele>795.0</ele><time>2026-03-24T13:25:57.924Z</time></trkpt><trkpt lat="42.0615493" lon="13.6177712"><ele>792.6</ele><time>2026-03-24T13:25:59.924Z</time></trkpt><trkpt lat="42.0614964" lon="13.61762"><ele>790.2</ele><time>2026-03-24T13:26:01.924Z</time></trkpt><trkpt lat="42.0614556" lon="13.6175377"><ele>787.8</ele><time>2026-03-24T13:26:02.924Z</time></trkpt><trkpt lat="42.0614195" lon="13.6174658"><ele>785.4</ele><time>2026-03-24T13:26:03.924Z</time></trkpt><trkpt lat="42.0613648" lon="13.617336"><ele>783.0</ele><time>2026-03-24T13:26:05.925Z</time></trkpt><trkpt lat="42.0613208" lon="13.6171906"><ele>783.0</ele><time>2026-03-24T13:26:07.925Z</time></trkpt><trkpt lat="42.0613191" lon="13.6170419"><ele>783.0</ele><time>2026-03-24T13:26:09.924Z</time></trkpt><trkpt lat="42.0613256" lon="13.616853"><ele>783.0</ele><time>2026-03-24T13:26:11.924Z</time></trkpt><trkpt lat="42.0613246" lon="13.6167574"><ele>783.0</ele><time>2026-03-24T13:26:12.924Z</time></trkpt><trkpt lat="42.0613233" lon="13.6165918"><ele>783.0</ele><time>2026-03-24T13:26:14.925Z</time></trkpt><trkpt lat="42.0613027" lon="13.616434"><ele>780.2</ele><time>2026-03-24T13:26:16.924Z</time></trkpt><trkpt lat="42.0612957" lon="13.6162978"><ele>777.4</ele><time>2026-03-24T13:26:18.924Z</time></trkpt><trkpt lat="42.0613063" lon="13.6161741"><ele>774.6</ele><time>2026-03-24T13:26:20.924Z</time></trkpt><trkpt lat="42.0613031" lon="13.6160844"><ele>771.8000000000001</ele><time>2026-03-24T13:26:21.924Z</time></trkpt><trkpt lat="42.0612987" lon="13.615964"><ele>769.0</ele><time>2026-03-24T13:26:22.924Z</time></trkpt><trkpt lat="42.0612841" lon="13.6158218"><ele>768.6</ele><time>2026-03-24T13:26:23.924Z</time></trkpt><trkpt lat="42.0612663" lon="13.6156667"><ele>768.2</ele><time>2026-03-24T13:26:24.924Z</time></trkpt><trkpt lat="42.0612455" lon="13.6155074"><ele>767.8000000000001</ele><time>2026-03-24T13:26:25.924Z</time></trkpt><trkpt lat="42.0612314" lon="13.6153629"><ele>767.4000000000001</ele><time>2026-03-24T13:26:26.924Z</time></trkpt><trkpt lat="42.0612207" lon="13.6152559"><ele>767.0</ele><time>2026-03-24T13:26:27.924Z</time></trkpt><trkpt lat="42.0612195" lon="13.6151405"><ele>766.2</ele><time>2026-03-24T13:26:29.924Z</time></trkpt><trkpt lat="42.0612149" lon="13.6149892"><ele>765.4000000000001</ele><time>2026-03-24T13:26:31.924Z</time></trkpt><trkpt lat="42.0612065" lon="13.6148783"><ele>764.5999999999999</ele><time>2026-03-24T13:26:32.924Z</time></trkpt><trkpt lat="42.0611901" lon="13.6147553"><ele>763.8</ele><time>2026-03-24T13:26:33.924Z</time></trkpt><trkpt lat="42.0611689" lon="13.6146388"><ele>763.0</ele><time>2026-03-24T13:26:34.924Z</time></trkpt><trkpt lat="42.0611463" lon="13.614534"><ele>762.8</ele><time>2026-03-24T13:26:35.925Z</time></trkpt><trkpt lat="42.0611149" lon="13.614428"><ele>762.5999999999999</ele><time>2026-03-24T13:26:36.924Z</time></trkpt><trkpt lat="42.0610826" lon="13.6143251"><ele>762.4000000000001</ele><time>2026-03-24T13:26:37.924Z</time></trkpt><trkpt lat="42.0610438" lon="13.6142195"><ele>762.2</ele><time>2026-03-24T13:26:38.924Z</time></trkpt><trkpt lat="42.0609895" lon="13.6140922"><ele>762.0</ele><time>2026-03-24T13:26:39.924Z</time></trkpt><trkpt lat="42.0609295" lon="13.6139659"><ele>762.0</ele><time>2026-03-24T13:26:40.924Z</time></trkpt><trkpt lat="42.06087" lon="13.6138636"><ele>762.0</ele><time>2026-03-24T13:26:41.924Z</time></trkpt><trkpt lat="42.060824" lon="13.6137843"><ele>762.0</ele><time>2026-03-24T13:26:42.925Z</time></trkpt><trkpt lat="42.0607393" lon="13.6136504"><ele>762.0</ele><time>2026-03-24T13:26:44.924Z</time></trkpt><trkpt lat="42.0606795" lon="13.6135571"><ele>762.0</ele><time>2026-03-24T13:26:45.925Z</time></trkpt><trkpt lat="42.0606107" lon="13.61345"><ele>761.25</ele><time>2026-03-24T13:26:46.924Z</time></trkpt><trkpt lat="42.0605392" lon="13.6133184"><ele>760.5</ele><time>2026-03-24T13:26:47.924Z</time></trkpt><trkpt lat="42.0604722" lon="13.6131731"><ele>759.75</ele><time>2026-03-24T13:26:48.924Z</time></trkpt><trkpt lat="42.0604175" lon="13.6130174"><ele>759.0</ele><time>2026-03-24T13:26:49.925Z</time></trkpt><trkpt lat="42.060367" lon="13.612866"><ele>759.75</ele><time>2026-03-24T13:26:50.924Z</time></trkpt><trkpt lat="42.0603157" lon="13.6127376"><ele>760.5</ele><time>2026-03-24T13:26:51.924Z</time></trkpt><trkpt lat="42.0602485" lon="13.6126321"><ele>761.25</ele><time>2026-03-24T13:26:52.924Z</time></trkpt><trkpt lat="42.060154" lon="13.6125517"><ele>762.0</ele><time>2026-03-24T13:26:53.925Z</time></trkpt><trkpt lat="42.0600479" lon="13.6124584"><ele>760.8</ele><time>2026-03-24T13:26:54.924Z</time></trkpt><trkpt lat="42.0599499" lon="13.6123581"><ele>759.6</ele><time>2026-03-24T13:26:55.924Z</time></trkpt><trkpt lat="42.0598599" lon="13.6122633"><ele>758.4</ele><time>2026-03-24T13:26:56.924Z</time></trkpt><trkpt lat="42.0597909" lon="13.6121789"><ele>757.1999999999999</ele><time>2026-03-24T13:26:57.924Z</time></trkpt><trkpt lat="42.0597255" lon="13.6120846"><ele>756.0</ele><time>2026-03-24T13:26:58.925Z</time></trkpt><trkpt lat="42.0596822" lon="13.6119927"><ele>755.75</ele><time>2026-03-24T13:26:59.925Z</time></trkpt><trkpt lat="42.0596454" lon="13.6118843"><ele>755.5</ele><time>2026-03-24T13:27:00.924Z</time></trkpt><trkpt lat="42.0596149" lon="13.6117347"><ele>755.25</ele><time>2026-03-24T13:27:01.925Z</time></trkpt><trkpt lat="42.0595805" lon="13.6115718"><ele>755.0</ele><time>2026-03-24T13:27:02.925Z</time></trkpt><trkpt lat="42.0595264" lon="13.6114188"><ele>755.0</ele><time>2026-03-24T13:27:03.925Z</time></trkpt><trkpt lat="42.0594586" lon="13.6112761"><ele>755.0</ele><time>2026-03-24T13:27:04.925Z</time></trkpt><trkpt lat="42.0593765" lon="13.6111424"><ele>755.0</ele><time>2026-03-24T13:27:05.924Z</time></trkpt><trkpt lat="42.0592992" lon="13.6110034"><ele>755.0</ele><time>2026-03-24T13:27:06.924Z</time></trkpt><trkpt lat="42.05923" lon="13.6108698"><ele>754.2</ele><time>2026-03-24T13:27:07.924Z</time></trkpt><trkpt lat="42.0591659" lon="13.6107658"><ele>753.4</ele><time>2026-03-24T13:27:08.924Z</time></trkpt><trkpt lat="42.059094" lon="13.610682"><ele>752.5999999999999</ele><time>2026-03-24T13:27:09.924Z</time></trkpt><trkpt lat="42.0590132" lon="13.6106127"><ele>751.8</ele><time>2026-03-24T13:27:10.924Z</time></trkpt><trkpt lat="42.058934" lon="13.6105317"><ele>751.0</ele><time>2026-03-24T13:27:11.924Z</time></trkpt><trkpt lat="42.0588628" lon="13.6104316"><ele>752.75</ele><time>2026-03-24T13:27:12.924Z</time></trkpt><trkpt lat="42.0587845" lon="13.6103066"><ele>754.5</ele><time>2026-03-24T13:27:13.924Z</time></trkpt><trkpt lat="42.0587033" lon="13.6102053"><ele>756.25</ele><time>2026-03-24T13:27:14.925Z</time></trkpt><trkpt lat="42.0586341" lon="13.6101065"><ele>758.0</ele><time>2026-03-24T13:27:15.925Z</time></trkpt><trkpt lat="42.0585669" lon="13.6099721"><ele>758.0</ele><time>2026-03-24T13:27:16.924Z</time></trkpt><trkpt lat="42.0585169" lon="13.6098394"><ele>758.0</ele><time>2026-03-24T13:27:17.924Z</time></trkpt><trkpt lat="42.0584819" lon="13.6097079"><ele>758.0</ele><time>2026-03-24T13:27:18.924Z</time></trkpt><trkpt lat="42.0584608" lon="13.609607"><ele>758.0</ele><time>2026-03-24T13:27:19.924Z</time></trkpt><trkpt lat="42.0584313" lon="13.6094694"><ele>758.0</ele><time>2026-03-24T13:27:21.924Z</time></trkpt><trkpt lat="42.0583498" lon="13.6093482"><ele>757.1666666666666</ele><time>2026-03-24T13:27:23.924Z</time></trkpt><trkpt lat="42.0582826" lon="13.6092926"><ele>756.3333333333333</ele><time>2026-03-24T13:27:24.925Z</time></trkpt><trkpt lat="42.0581849" lon="13.6092386"><ele>755.5</ele><time>2026-03-24T13:27:25.924Z</time></trkpt><trkpt lat="42.0580968" lon="13.6091853"><ele>754.6666666666666</ele><time>2026-03-24T13:27:26.924Z</time></trkpt><trkpt lat="42.0580165" lon="13.609139"><ele>753.8333333333334</ele><time>2026-03-24T13:27:27.925Z</time></trkpt><trkpt lat="42.0579466" lon="13.6090836"><ele>753.0</ele><time>2026-03-24T13:27:28.924Z</time></trkpt><trkpt lat="42.0578771" lon="13.6089959"><ele>753.0</ele><time>2026-03-24T13:27:29.925Z</time></trkpt><trkpt lat="42.0578178" lon="13.608906"><ele>753.0</ele><time>2026-03-24T13:27:30.924Z</time></trkpt><trkpt lat="42.0577621" lon="13.6087953"><ele>753.0</ele><time>2026-03-24T13:27:31.925Z</time></trkpt><trkpt lat="42.0577089" lon="13.6086648"><ele>753.0</ele><time>2026-03-24T13:27:32.925Z</time></trkpt><trkpt lat="42.0576594" lon="13.6085044"><ele>753.0</ele><time>2026-03-24T13:27:33.924Z</time></trkpt><trkpt lat="42.0576225" lon="13.6083518"><ele>753.2</ele><time>2026-03-24T13:27:34.924Z</time></trkpt><trkpt lat="42.0575862" lon="13.6082323"><ele>753.4</ele><time>2026-03-24T13:27:35.924Z</time></trkpt><trkpt lat="42.0575515" lon="13.6081364"><ele>753.6</ele><time>2026-03-24T13:27:36.924Z</time></trkpt><trkpt lat="42.0574931" lon="13.608023"><ele>753.8000000000001</ele><time>2026-03-24T13:27:37.924Z</time></trkpt><trkpt lat="42.0574387" lon="13.6079062"><ele>754.0</ele><time>2026-03-24T13:27:38.924Z</time></trkpt><trkpt lat="42.0573971" lon="13.6078106"><ele>754.0</ele><time>2026-03-24T13:27:39.924Z</time></trkpt><trkpt lat="42.0573672" lon="13.607713"><ele>754.0</ele><time>2026-03-24T13:27:40.924Z</time></trkpt><trkpt lat="42.0573511" lon="13.6075968"><ele>754.0</ele><time>2026-03-24T13:27:41.924Z</time></trkpt><trkpt lat="42.0573228" lon="13.607458"><ele>754.0</ele><time>2026-03-24T13:27:42.924Z</time></trkpt><trkpt lat="42.0572827" lon="13.6072894"><ele>754.0</ele><time>2026-03-24T13:27:43.924Z</time></trkpt><trkpt lat="42.0572433" lon="13.6071012"><ele>753.3333333333334</ele><time>2026-03-24T13:27:44.925Z</time></trkpt><trkpt lat="42.0572225" lon="13.6068954"><ele>752.6666666666666</ele><time>2026-03-24T13:27:45.924Z</time></trkpt><trkpt lat="42.0572066" lon="13.6066602"><ele>752.0</ele><time>2026-03-24T13:27:46.924Z</time></trkpt><trkpt lat="42.0571817" lon="13.6064189"><ele>752.0</ele><time>2026-03-24T13:27:47.924Z</time></trkpt><trkpt lat="42.0571576" lon="13.6062014"><ele>752.0</ele><time>2026-03-24T13:27:48.925Z</time></trkpt><trkpt lat="42.0571368" lon="13.606002"><ele>752.0</ele><time>2026-03-24T13:27:49.924Z</time></trkpt><trkpt lat="42.0571189" lon="13.6058206"><ele>752.0</ele><time>2026-03-24T13:27:50.925Z</time></trkpt><trkpt lat="42.0570959" lon="13.6056491"><ele>751.25</ele><time>2026-03-24T13:27:51.925Z</time></trkpt><trkpt lat="42.0570699" lon="13.6054835"><ele>750.5</ele><time>2026-03-24T13:27:52.925Z</time></trkpt><trkpt lat="42.0570513" lon="13.605324"><ele>749.75</ele><time>2026-03-24T13:27:53.925Z</time></trkpt><trkpt lat="42.0570307" lon="13.6051675"><ele>749.0</ele><time>2026-03-24T13:27:54.925Z</time></trkpt><trkpt lat="42.057016" lon="13.6050134"><ele>748.2</ele><time>2026-03-24T13:27:55.925Z</time></trkpt><trkpt lat="42.0570078" lon="13.6048637"><ele>747.4000000000001</ele><time>2026-03-24T13:27:56.924Z</time></trkpt><trkpt lat="42.0570013" lon="13.6047186"><ele>746.6</ele><time>2026-03-24T13:27:57.924Z</time></trkpt><trkpt lat="42.0569952" lon="13.6045773"><ele>745.8</ele><time>2026-03-24T13:27:58.924Z</time></trkpt><trkpt lat="42.056992" lon="13.6044396"><ele>745.0</ele><time>2026-03-24T13:27:59.924Z</time></trkpt><trkpt lat="42.056985" lon="13.6043059"><ele>744.4</ele><time>2026-03-24T13:28:00.924Z</time></trkpt><trkpt lat="42.0569726" lon="13.6041765"><ele>743.8</ele><time>2026-03-24T13:28:01.924Z</time></trkpt><trkpt lat="42.0569638" lon="13.6040521"><ele>743.2</ele><time>2026-03-24T13:28:02.924Z</time></trkpt><trkpt lat="42.0569506" lon="13.6039292"><ele>742.6</ele><time>2026-03-24T13:28:03.924Z</time></trkpt><trkpt lat="42.0569426" lon="13.6038113"><ele>742.0</ele><time>2026-03-24T13:28:04.924Z</time></trkpt><trkpt lat="42.0569413" lon="13.6036932"><ele>741.5</ele><time>2026-03-24T13:28:05.924Z</time></trkpt><trkpt lat="42.0569466" lon="13.6035817"><ele>741.0</ele><time>2026-03-24T13:28:06.924Z</time></trkpt><trkpt lat="42.0569604" lon="13.6034689"><ele>740.5</ele><time>2026-03-24T13:28:07.924Z</time></trkpt><trkpt lat="42.0569692" lon="13.6033602"><ele>740.0</ele><time>2026-03-24T13:28:08.924Z</time></trkpt><trkpt lat="42.0569716" lon="13.6032682"><ele>739.5</ele><time>2026-03-24T13:28:09.924Z</time></trkpt><trkpt lat="42.0569731" lon="13.6031185"><ele>739.0</ele><time>2026-03-24T13:28:11.924Z</time></trkpt><trkpt lat="42.0570122" lon="13.6029352"><ele>737.75</ele><time>2026-03-24T13:28:13.925Z</time></trkpt><trkpt lat="42.057036" lon="13.6028037"><ele>736.5</ele><time>2026-03-24T13:28:14.925Z</time></trkpt><trkpt lat="42.0570458" lon="13.6026439"><ele>735.25</ele><time>2026-03-24T13:28:15.924Z</time></trkpt><trkpt lat="42.0570417" lon="13.602461"><ele>734.0</ele><time>2026-03-24T13:28:16.924Z</time></trkpt><trkpt lat="42.0570284" lon="13.6022523"><ele>734.0</ele><time>2026-03-24T13:28:17.924Z</time></trkpt><trkpt lat="42.0570064" lon="13.6020232"><ele>734.0</ele><time>2026-03-24T13:28:18.924Z</time></trkpt><trkpt lat="42.056981" lon="13.6017651"><ele>734.0</ele><time>2026-03-24T13:28:19.924Z</time></trkpt><trkpt lat="42.0569491" lon="13.601487"><ele>733.0</ele><time>2026-03-24T13:28:20.924Z</time></trkpt><trkpt lat="42.0569148" lon="13.6011941"><ele>732.0</ele><time>2026-03-24T13:28:21.924Z</time></trkpt><trkpt lat="42.0568766" lon="13.6008846"><ele>731.0</ele><time>2026-03-24T13:28:22.925Z</time></trkpt><trkpt lat="42.0568417" lon="13.6005686"><ele>730.0</ele><time>2026-03-24T13:28:23.924Z</time></trkpt><trkpt lat="42.0568044" lon="13.600242"><ele>729.5</ele><time>2026-03-24T13:28:24.925Z</time></trkpt><trkpt lat="42.0567693" lon="13.5999109"><ele>729.0</ele><time>2026-03-24T13:28:25.925Z</time></trkpt><trkpt lat="42.0567349" lon="13.5995804"><ele>727.0</ele><time>2026-03-24T13:28:26.924Z</time></trkpt><trkpt lat="42.0566997" lon="13.5992491"><ele>725.0</ele><time>2026-03-24T13:28:27.925Z</time></trkpt><trkpt lat="42.0566674" lon="13.5989215"><ele>724.0</ele><time>2026-03-24T13:28:28.924Z</time></trkpt><trkpt lat="42.0566301" lon="13.5986004"><ele>723.0</ele><time>2026-03-24T13:28:29.924Z</time></trkpt><trkpt lat="42.0565962" lon="13.5982794"><ele>723.0</ele><time>2026-03-24T13:28:30.925Z</time></trkpt><trkpt lat="42.0565598" lon="13.597964"><ele>723.0</ele><time>2026-03-24T13:28:31.924Z</time></trkpt><trkpt lat="42.0565214" lon="13.5976515"><ele>722.0</ele><time>2026-03-24T13:28:32.924Z</time></trkpt><trkpt lat="42.0564876" lon="13.5973405"><ele>721.0</ele><time>2026-03-24T13:28:33.925Z</time></trkpt><trkpt lat="42.0564534" lon="13.5970332"><ele>720.5</ele><time>2026-03-24T13:28:34.925Z</time></trkpt><trkpt lat="42.0564226" lon="13.5967267"><ele>720.0</ele><time>2026-03-24T13:28:35.924Z</time></trkpt><trkpt lat="42.0563926" lon="13.5964263"><ele>720.5</ele><time>2026-03-24T13:28:36.925Z</time></trkpt><trkpt lat="42.0563614" lon="13.5961255"><ele>721.0</ele><time>2026-03-24T13:28:37.924Z</time></trkpt><trkpt lat="42.0563287" lon="13.5958258"><ele>721.0</ele><time>2026-03-24T13:28:38.924Z</time></trkpt><trkpt lat="42.0562988" lon="13.5955307"><ele>721.0</ele><time>2026-03-24T13:28:39.925Z</time></trkpt><trkpt lat="42.0562682" lon="13.5952387"><ele>721.0</ele><time>2026-03-24T13:28:40.924Z</time></trkpt><trkpt lat="42.0562379" lon="13.5949619"><ele>720.6666666666667</ele><time>2026-03-24T13:28:41.924Z</time></trkpt><trkpt lat="42.0562076" lon="13.5946974"><ele>720.3333333333334</ele><time>2026-03-24T13:28:42.924Z</time></trkpt><trkpt lat="42.0561829" lon="13.5944452"><ele>720.0</ele><time>2026-03-24T13:28:43.924Z</time></trkpt><trkpt lat="42.0561606" lon="13.5941987"><ele>720.0</ele><time>2026-03-24T13:28:44.924Z</time></trkpt><trkpt lat="42.0561423" lon="13.5939562"><ele>720.0</ele><time>2026-03-24T13:28:45.924Z</time></trkpt><trkpt lat="42.0561227" lon="13.5937159"><ele>720.0</ele><time>2026-03-24T13:28:46.924Z</time></trkpt><trkpt lat="42.0561093" lon="13.5934761"><ele>719.6666666666666</ele><time>2026-03-24T13:28:47.924Z</time></trkpt><trkpt lat="42.0560977" lon="13.5932296"><ele>719.3333333333333</ele><time>2026-03-24T13:28:48.924Z</time></trkpt><trkpt lat="42.0560918" lon="13.5929919"><ele>719.0</ele><time>2026-03-24T13:28:49.924Z</time></trkpt><trkpt lat="42.0560944" lon="13.5927639"><ele>718.6666666666666</ele><time>2026-03-24T13:28:50.924Z</time></trkpt><trkpt lat="42.0561034" lon="13.5925452"><ele>718.3333333333334</ele><time>2026-03-24T13:28:51.925Z</time></trkpt><trkpt lat="42.056117" lon="13.5923387"><ele>718.0</ele><time>2026-03-24T13:28:52.924Z</time></trkpt><trkpt lat="42.056132" lon="13.5921335"><ele>717.5</ele><time>2026-03-24T13:28:53.925Z</time></trkpt><trkpt lat="42.0561481" lon="13.5919285"><ele>717.0</ele><time>2026-03-24T13:28:54.924Z</time></trkpt><trkpt lat="42.056161" lon="13.5917287"><ele>716.5</ele><time>2026-03-24T13:28:55.925Z</time></trkpt><trkpt lat="42.0561749" lon="13.5915388"><ele>716.0</ele><time>2026-03-24T13:28:56.924Z</time></trkpt><trkpt lat="42.0561858" lon="13.5913566"><ele>716.0</ele><time>2026-03-24T13:28:57.924Z</time></trkpt><trkpt lat="42.0561993" lon="13.5911888"><ele>716.0</ele><time>2026-03-24T13:28:58.924Z</time></trkpt><trkpt lat="42.0562085" lon="13.5910507"><ele>716.0</ele><time>2026-03-24T13:28:59.924Z</time></trkpt><trkpt lat="42.0562164" lon="13.5909458"><ele>716.0</ele><time>2026-03-24T13:29:00.925Z</time></trkpt><trkpt lat="42.0562392" lon="13.5908036"><ele>716.0</ele><time>2026-03-24T13:29:02.924Z</time></trkpt><trkpt lat="42.056318" lon="13.5907607"><ele>716.0</ele><time>2026-03-24T13:29:04.924Z</time></trkpt><trkpt lat="42.0563806" lon="13.5907804"><ele>716.0</ele><time>2026-03-24T13:29:05.924Z</time></trkpt><trkpt lat="42.0564478" lon="13.590832"><ele>716.0</ele><time>2026-03-24T13:29:06.925Z</time></trkpt><trkpt lat="42.0565166" lon="13.5908972"><ele>716.0</ele><time>2026-03-24T13:29:07.924Z</time></trkpt><trkpt lat="42.0565856" lon="13.5909588"><ele>716.0</ele><time>2026-03-24T13:29:08.924Z</time></trkpt><trkpt lat="42.0566537" lon="13.5910158"><ele>716.0</ele><time>2026-03-24T13:29:09.924Z</time></trkpt><trkpt lat="42.0567206" lon="13.5910549"><ele>716.4285714285714</ele><time>2026-03-24T13:29:10.924Z</time></trkpt><trkpt lat="42.0567863" lon="13.5910776"><ele>716.8571428571429</ele><time>2026-03-24T13:29:11.925Z</time></trkpt><trkpt lat="42.0568497" lon="13.5910727"><ele>717.2857142857142</ele><time>2026-03-24T13:29:12.924Z</time></trkpt><trkpt lat="42.0569078" lon="13.5910376"><ele>717.7142857142858</ele><time>2026-03-24T13:29:13.924Z</time></trkpt><trkpt lat="42.0569621" lon="13.5909704"><ele>718.1428571428571</ele><time>2026-03-24T13:29:14.924Z</time></trkpt><trkpt lat="42.0570105" lon="13.5908982"><ele>718.5714285714286</ele><time>2026-03-24T13:29:15.925Z</time></trkpt><trkpt lat="42.0570619" lon="13.5908376"><ele>719.0</ele><time>2026-03-24T13:29:16.924Z</time></trkpt><trkpt lat="42.0571362" lon="13.5907747"><ele>719.0</ele><time>2026-03-24T13:29:18.924Z</time></trkpt><trkpt lat="42.057195" lon="13.5906758"><ele>719.0</ele><time>2026-03-24T13:29:20.924Z</time></trkpt><trkpt lat="42.0572252" lon="13.5905944"><ele>719.0</ele><time>2026-03-24T13:29:21.925Z</time></trkpt><trkpt lat="42.0572581" lon="13.5904801"><ele>719.0</ele><time>2026-03-24T13:29:22.924Z</time></trkpt><trkpt lat="42.057295" lon="13.5903385"><ele>719.0</ele><time>2026-03-24T13:29:23.925Z</time></trkpt><trkpt lat="42.0573343" lon="13.5901636"><ele>718.6666666666666</ele><time>2026-03-24T13:29:24.924Z</time></trkpt><trkpt lat="42.057376" lon="13.5899784"><ele>718.3333333333334</ele><time>2026-03-24T13:29:25.925Z</time></trkpt><trkpt lat="42.0574242" lon="13.5897843"><ele>718.0</ele><time>2026-03-24T13:29:26.925Z</time></trkpt><trkpt lat="42.0574757" lon="13.5895769"><ele>718.6666666666667</ele><time>2026-03-24T13:29:27.925Z</time></trkpt><trkpt lat="42.0575276" lon="13.5893682"><ele>719.3333333333334</ele><time>2026-03-24T13:29:28.924Z</time></trkpt><trkpt lat="42.0575739" lon="13.589161"><ele>720.0</ele><time>2026-03-24T13:29:29.924Z</time></trkpt><trkpt lat="42.0576192" lon="13.5889576"><ele>720.0</ele><time>2026-03-24T13:29:30.924Z</time></trkpt><trkpt lat="42.0576615" lon="13.5887603"><ele>720.0</ele><time>2026-03-24T13:29:31.924Z</time></trkpt><trkpt lat="42.0577042" lon="13.5885744"><ele>720.0</ele><time>2026-03-24T13:29:32.925Z</time></trkpt><trkpt lat="42.0577436" lon="13.5883985"><ele>720.0</ele><time>2026-03-24T13:29:33.924Z</time></trkpt><trkpt lat="42.0577823" lon="13.5882271"><ele>719.0</ele><time>2026-03-24T13:29:34.924Z</time></trkpt><trkpt lat="42.0578219" lon="13.5880655"><ele>718.0</ele><time>2026-03-24T13:29:35.924Z</time></trkpt><trkpt lat="42.057861" lon="13.5879126"><ele>717.0</ele><time>2026-03-24T13:29:36.925Z</time></trkpt><trkpt lat="42.0579012" lon="13.5877789"><ele>716.0</ele><time>2026-03-24T13:29:37.924Z</time></trkpt><trkpt lat="42.0579487" lon="13.5876547"><ele>715.25</ele><time>2026-03-24T13:29:38.924Z</time></trkpt><trkpt lat="42.0580082" lon="13.5875287"><ele>714.5</ele><time>2026-03-24T13:29:39.924Z</time></trkpt><trkpt lat="42.0580812" lon="13.5874043"><ele>713.75</ele><time>2026-03-24T13:29:40.925Z</time></trkpt><trkpt lat="42.0581493" lon="13.5872756"><ele>713.0</ele><time>2026-03-24T13:29:41.924Z</time></trkpt><trkpt lat="42.0582121" lon="13.5871513"><ele>713.0</ele><time>2026-03-24T13:29:42.925Z</time></trkpt><trkpt lat="42.058269" lon="13.587023"><ele>713.0</ele><time>2026-03-24T13:29:43.925Z</time></trkpt><trkpt lat="42.0583147" lon="13.5868846"><ele>713.0</ele><time>2026-03-24T13:29:44.924Z</time></trkpt><trkpt lat="42.0583537" lon="13.5867543"><ele>713.0</ele><time>2026-03-24T13:29:45.924Z</time></trkpt><trkpt lat="42.0583888" lon="13.586621"><ele>713.0</ele><time>2026-03-24T13:29:46.925Z</time></trkpt><trkpt lat="42.0584209" lon="13.5864955"><ele>713.0</ele><time>2026-03-24T13:29:47.925Z</time></trkpt><trkpt lat="42.0584476" lon="13.5863622"><ele>713.0</ele><time>2026-03-24T13:29:48.925Z</time></trkpt><trkpt lat="42.0584731" lon="13.586217"><ele>713.0</ele><time>2026-03-24T13:29:49.925Z</time></trkpt><trkpt lat="42.0584981" lon="13.5860631"><ele>713.0</ele><time>2026-03-24T13:29:50.924Z</time></trkpt><trkpt lat="42.0585198" lon="13.5859048"><ele>713.0</ele><time>2026-03-24T13:29:51.924Z</time></trkpt><trkpt lat="42.0585409" lon="13.5857432"><ele>713.0</ele><time>2026-03-24T13:29:52.925Z</time></trkpt><trkpt lat="42.0585602" lon="13.5855868"><ele>713.0</ele><time>2026-03-24T13:29:53.925Z</time></trkpt><trkpt lat="42.0585783" lon="13.5854369"><ele>713.0</ele><time>2026-03-24T13:29:54.924Z</time></trkpt><trkpt lat="42.0585988" lon="13.5852999"><ele>712.75</ele><time>2026-03-24T13:29:55.925Z</time></trkpt><trkpt lat="42.0586179" lon="13.5851458"><ele>712.5</ele><time>2026-03-24T13:29:56.924Z</time></trkpt><trkpt lat="42.0586328" lon="13.5849908"><ele>712.25</ele><time>2026-03-24T13:29:57.924Z</time></trkpt><trkpt lat="42.0586444" lon="13.5848342"><ele>712.0</ele><time>2026-03-24T13:29:58.924Z</time></trkpt><trkpt lat="42.0586504" lon="13.5846846"><ele>712.0</ele><time>2026-03-24T13:29:59.925Z</time></trkpt><trkpt lat="42.0586578" lon="13.5845437"><ele>712.0</ele><time>2026-03-24T13:30:00.924Z</time></trkpt><trkpt lat="42.0586666" lon="13.5844117"><ele>712.0</ele><time>2026-03-24T13:30:01.925Z</time></trkpt><trkpt lat="42.0586721" lon="13.5842908"><ele>712.0</ele><time>2026-03-24T13:30:02.925Z</time></trkpt><trkpt lat="42.0586816" lon="13.584172"><ele>712.0</ele><time>2026-03-24T13:30:03.924Z</time></trkpt><trkpt lat="42.0586866" lon="13.5840521"><ele>711.2</ele><time>2026-03-24T13:30:04.924Z</time></trkpt><trkpt lat="42.0586951" lon="13.5839214"><ele>710.4000000000001</ele><time>2026-03-24T13:30:05.924Z</time></trkpt><trkpt lat="42.0587067" lon="13.583785"><ele>709.5999999999999</ele><time>2026-03-24T13:30:06.924Z</time></trkpt><trkpt lat="42.0587261" lon="13.583641"><ele>708.8</ele><time>2026-03-24T13:30:07.924Z</time></trkpt><trkpt lat="42.0587458" lon="13.5834979"><ele>708.0</ele><time>2026-03-24T13:30:08.924Z</time></trkpt><trkpt lat="42.05877" lon="13.5833553"><ele>707.6666666666666</ele><time>2026-03-24T13:30:09.925Z</time></trkpt><trkpt lat="42.0587913" lon="13.5832363"><ele>707.3333333333334</ele><time>2026-03-24T13:30:10.925Z</time></trkpt><trkpt lat="42.0588108" lon="13.5831404"><ele>707.0</ele><time>2026-03-24T13:30:11.924Z</time></trkpt><trkpt lat="42.0588346" lon="13.5830297"><ele>706.6666666666667</ele><time>2026-03-24T13:30:13.924Z</time></trkpt><trkpt lat="42.0588556" lon="13.5828651"><ele>706.3333333333334</ele><time>2026-03-24T13:30:18.924Z</time></trkpt><trkpt lat="42.0588726" lon="13.5827729"><ele>706.0</ele><time>2026-03-24T13:30:19.924Z</time></trkpt><trkpt lat="42.0589003" lon="13.582646"><ele>705.75</ele><time>2026-03-24T13:30:20.925Z</time></trkpt><trkpt lat="42.0589443" lon="13.5824925"><ele>705.5</ele><time>2026-03-24T13:30:21.924Z</time></trkpt><trkpt lat="42.0589982" lon="13.5823291"><ele>705.25</ele><time>2026-03-24T13:30:22.924Z</time></trkpt><trkpt lat="42.0590583" lon="13.5821695"><ele>705.0</ele><time>2026-03-24T13:30:23.924Z</time></trkpt><trkpt lat="42.0591099" lon="13.5819925"><ele>705.3333333333334</ele><time>2026-03-24T13:30:24.925Z</time></trkpt><trkpt lat="42.0591488" lon="13.5817919"><ele>705.6666666666667</ele><time>2026-03-24T13:30:25.924Z</time></trkpt><trkpt lat="42.0591782" lon="13.5815697"><ele>706.0</ele><time>2026-03-24T13:30:26.924Z</time></trkpt><trkpt lat="42.0592055" lon="13.58133"><ele>705.0</ele><time>2026-03-24T13:30:27.925Z</time></trkpt><trkpt lat="42.0592338" lon="13.5810896"><ele>704.0</ele><time>2026-03-24T13:30:28.925Z</time></trkpt><trkpt lat="42.0592713" lon="13.5808387"><ele>703.0</ele><time>2026-03-24T13:30:29.925Z</time></trkpt><trkpt lat="42.0593078" lon="13.5805761"><ele>702.3333333333334</ele><time>2026-03-24T13:30:30.925Z</time></trkpt><trkpt lat="42.0593408" lon="13.5803124"><ele>701.6666666666666</ele><time>2026-03-24T13:30:31.924Z</time></trkpt><trkpt lat="42.0593737" lon="13.5800604"><ele>701.0</ele><time>2026-03-24T13:30:32.924Z</time></trkpt><trkpt lat="42.0594029" lon="13.5798161"><ele>701.0</ele><time>2026-03-24T13:30:33.924Z</time></trkpt><trkpt lat="42.0594307" lon="13.5795853"><ele>701.0</ele><time>2026-03-24T13:30:34.924Z</time></trkpt><trkpt lat="42.0594599" lon="13.5793635"><ele>701.0</ele><time>2026-03-24T13:30:35.925Z</time></trkpt><trkpt lat="42.0594902" lon="13.5791462"><ele>700.6666666666666</ele><time>2026-03-24T13:30:36.924Z</time></trkpt><trkpt lat="42.0595261" lon="13.5789264"><ele>700.3333333333334</ele><time>2026-03-24T13:30:37.925Z</time></trkpt><trkpt lat="42.0595587" lon="13.5787078"><ele>700.0</ele><time>2026-03-24T13:30:38.924Z</time></trkpt><trkpt lat="42.0595948" lon="13.5784937"><ele>699.5</ele><time>2026-03-24T13:30:39.924Z</time></trkpt><trkpt lat="42.0596279" lon="13.5783002"><ele>699.0</ele><time>2026-03-24T13:30:40.924Z</time></trkpt><trkpt lat="42.059656" lon="13.5781297"><ele>698.5</ele><time>2026-03-24T13:30:41.924Z</time></trkpt><trkpt lat="42.0596818" lon="13.5779745"><ele>698.0</ele><time>2026-03-24T13:30:42.925Z</time></trkpt><trkpt lat="42.0597091" lon="13.5778143"><ele>697.5</ele><time>2026-03-24T13:30:43.924Z</time></trkpt><trkpt lat="42.059743" lon="13.5776484"><ele>697.0</ele><time>2026-03-24T13:30:44.924Z</time></trkpt><trkpt lat="42.0597804" lon="13.5774698"><ele>696.5</ele><time>2026-03-24T13:30:45.925Z</time></trkpt><trkpt lat="42.0598324" lon="13.5772881"><ele>696.0</ele><time>2026-03-24T13:30:46.924Z</time></trkpt><trkpt lat="42.0598922" lon="13.5771046"><ele>697.25</ele><time>2026-03-24T13:30:47.924Z</time></trkpt><trkpt lat="42.0599562" lon="13.576916"><ele>698.5</ele><time>2026-03-24T13:30:48.924Z</time></trkpt><trkpt lat="42.0600245" lon="13.5767368"><ele>699.75</ele><time>2026-03-24T13:30:49.925Z</time></trkpt><trkpt lat="42.0600847" lon="13.5765577"><ele>701.0</ele><time>2026-03-24T13:30:50.925Z</time></trkpt><trkpt lat="42.0601347" lon="13.5763697"><ele>700.6666666666666</ele><time>2026-03-24T13:30:51.925Z</time></trkpt><trkpt lat="42.0601734" lon="13.5761613"><ele>700.3333333333334</ele><time>2026-03-24T13:30:52.924Z</time></trkpt><trkpt lat="42.060213" lon="13.5759353"><ele>700.0</ele><time>2026-03-24T13:30:53.924Z</time></trkpt><trkpt lat="42.0602591" lon="13.5757081"><ele>700.0</ele><time>2026-03-24T13:30:54.924Z</time></trkpt><trkpt lat="42.060308" lon="13.5754657"><ele>700.0</ele><time>2026-03-24T13:30:55.924Z</time></trkpt><trkpt lat="42.0603609" lon="13.5752258"><ele>700.0</ele><time>2026-03-24T13:30:56.924Z</time></trkpt><trkpt lat="42.0604147" lon="13.5749954"><ele>699.75</ele><time>2026-03-24T13:30:57.924Z</time></trkpt><trkpt lat="42.0604662" lon="13.5747813"><ele>699.5</ele><time>2026-03-24T13:30:58.924Z</time></trkpt><trkpt lat="42.0605147" lon="13.5745973"><ele>699.25</ele><time>2026-03-24T13:30:59.924Z</time></trkpt><trkpt lat="42.0605568" lon="13.5744447"><ele>699.0</ele><time>2026-03-24T13:31:00.925Z</time></trkpt><trkpt lat="42.0606038" lon="13.5742999"><ele>699.0</ele><time>2026-03-24T13:31:01.924Z</time></trkpt><trkpt lat="42.0606505" lon="13.5741461"><ele>699.0</ele><time>2026-03-24T13:31:02.924Z</time></trkpt><trkpt lat="42.0607035" lon="13.5739849"><ele>699.0</ele><time>2026-03-24T13:31:03.925Z</time></trkpt><trkpt lat="42.0607565" lon="13.5738127"><ele>699.0</ele><time>2026-03-24T13:31:04.925Z</time></trkpt><trkpt lat="42.0608173" lon="13.5736348"><ele>699.0</ele><time>2026-03-24T13:31:05.925Z</time></trkpt><trkpt lat="42.0608857" lon="13.5734548"><ele>699.0</ele><time>2026-03-24T13:31:06.925Z</time></trkpt><trkpt lat="42.0609577" lon="13.5732801"><ele>699.0</ele><time>2026-03-24T13:31:07.924Z</time></trkpt><trkpt lat="42.0610312" lon="13.5731173"><ele>699.0</ele><time>2026-03-24T13:31:08.924Z</time></trkpt><trkpt lat="42.0611076" lon="13.5729525"><ele>699.25</ele><time>2026-03-24T13:31:09.924Z</time></trkpt><trkpt lat="42.0611726" lon="13.5727971"><ele>699.5</ele><time>2026-03-24T13:31:10.925Z</time></trkpt><trkpt lat="42.0612257" lon="13.5726464"><ele>699.75</ele><time>2026-03-24T13:31:11.925Z</time></trkpt><trkpt lat="42.0612717" lon="13.5725115"><ele>700.0</ele><time>2026-03-24T13:31:12.924Z</time></trkpt><trkpt lat="42.0613052" lon="13.5723861"><ele>700.0</ele><time>2026-03-24T13:31:13.924Z</time></trkpt><trkpt lat="42.0613207" lon="13.5722554"><ele>700.0</ele><time>2026-03-24T13:31:14.924Z</time></trkpt><trkpt lat="42.0613283" lon="13.5721073"><ele>700.0</ele><time>2026-03-24T13:31:15.924Z</time></trkpt><trkpt lat="42.0613265" lon="13.5719376"><ele>700.0</ele><time>2026-03-24T13:31:16.924Z</time></trkpt><trkpt lat="42.0613126" lon="13.5717438"><ele>700.0</ele><time>2026-03-24T13:31:17.924Z</time></trkpt><trkpt lat="42.0612934" lon="13.5715633"><ele>700.0</ele><time>2026-03-24T13:31:18.924Z</time></trkpt><trkpt lat="42.0612639" lon="13.5713943"><ele>700.0</ele><time>2026-03-24T13:31:19.925Z</time></trkpt><trkpt lat="42.0612244" lon="13.5712367"><ele>700.0</ele><time>2026-03-24T13:31:20.925Z</time></trkpt><trkpt lat="42.0612131" lon="13.5711188"><ele>699.6</ele><time>2026-03-24T13:31:21.924Z</time></trkpt><trkpt lat="42.061213" lon="13.5710008"><ele>699.2</ele><time>2026-03-24T13:31:22.924Z</time></trkpt><trkpt lat="42.0612188" lon="13.5708778"><ele>698.8</ele><time>2026-03-24T13:31:23.925Z</time></trkpt><trkpt lat="42.0612469" lon="13.5707452"><ele>698.4</ele><time>2026-03-24T13:31:24.924Z</time></trkpt><trkpt lat="42.0612879" lon="13.5705886"><ele>698.0</ele><time>2026-03-24T13:31:25.924Z</time></trkpt><trkpt lat="42.0613309" lon="13.5704445"><ele>698.2</ele><time>2026-03-24T13:31:26.924Z</time></trkpt><trkpt lat="42.0613612" lon="13.5702912"><ele>698.4</ele><time>2026-03-24T13:31:27.924Z</time></trkpt><trkpt lat="42.0613879" lon="13.5701389"><ele>698.6</ele><time>2026-03-24T13:31:28.924Z</time></trkpt><trkpt lat="42.0614066" lon="13.5700106"><ele>698.8000000000001</ele><time>2026-03-24T13:31:29.924Z</time></trkpt><trkpt lat="42.0614073" lon="13.5699049"><ele>699.0</ele><time>2026-03-24T13:31:30.925Z</time></trkpt><trkpt lat="42.0613643" lon="13.5697502"><ele>699.0</ele><time>2026-03-24T13:31:32.925Z</time></trkpt><trkpt lat="42.0612576" lon="13.5696764"><ele>699.0</ele><time>2026-03-24T13:31:34.924Z</time></trkpt><trkpt lat="42.0611837" lon="13.5696616"><ele>699.0</ele><time>2026-03-24T13:31:35.924Z</time></trkpt><trkpt lat="42.0611159" lon="13.5696388"><ele>699.0</ele><time>2026-03-24T13:31:36.925Z</time></trkpt><trkpt lat="42.0610584" lon="13.5695852"><ele>699.0</ele><time>2026-03-24T13:31:37.924Z</time></trkpt><trkpt lat="42.0610084" lon="13.5694995"><ele>699.0</ele><time>2026-03-24T13:31:38.925Z</time></trkpt><trkpt lat="42.0609632" lon="13.5693765"><ele>699.25</ele><time>2026-03-24T13:31:39.925Z</time></trkpt><trkpt lat="42.0609085" lon="13.569213"><ele>699.5</ele><time>2026-03-24T13:31:40.924Z</time></trkpt><trkpt lat="42.0608533" lon="13.5690436"><ele>699.75</ele><time>2026-03-24T13:31:41.924Z</time></trkpt><trkpt lat="42.060805" lon="13.568886"><ele>700.0</ele><time>2026-03-24T13:31:42.924Z</time></trkpt><trkpt lat="42.0607681" lon="13.568757"><ele>700.0</ele><time>2026-03-24T13:31:43.925Z</time></trkpt><trkpt lat="42.0607408" lon="13.5686572"><ele>700.0</ele><time>2026-03-24T13:31:44.925Z</time></trkpt><trkpt lat="42.0607365" lon="13.568521"><ele>700.0</ele><time>2026-03-24T13:31:46.924Z</time></trkpt><trkpt lat="42.0607871" lon="13.5684421"><ele>700.0</ele><time>2026-03-24T13:31:49.925Z</time></trkpt><trkpt lat="42.0608692" lon="13.5684313"><ele>700.0</ele><time>2026-03-24T13:31:51.924Z</time></trkpt><trkpt lat="42.0610051" lon="13.5684338"><ele>700.0</ele><time>2026-03-24T13:31:53.925Z</time></trkpt><trkpt lat="42.0610846" lon="13.5684294"><ele>700.0</ele><time>2026-03-24T13:31:54.924Z</time></trkpt><trkpt lat="42.0611716" lon="13.5684279"><ele>700.0</ele><time>2026-03-24T13:31:55.924Z</time></trkpt><trkpt lat="42.0612612" lon="13.5684243"><ele>700.0</ele><time>2026-03-24T13:31:56.925Z</time></trkpt><trkpt lat="42.0613502" lon="13.5684238"><ele>700.0</ele><time>2026-03-24T13:31:57.924Z</time></trkpt><trkpt lat="42.0614584" lon="13.5684199"><ele>700.0</ele><time>2026-03-24T13:31:58.925Z</time></trkpt><trkpt lat="42.0615573" lon="13.5684121"><ele>700.0</ele><time>2026-03-24T13:31:59.925Z</time></trkpt><trkpt lat="42.0616603" lon="13.5684079"><ele>700.0</ele><time>2026-03-24T13:32:00.924Z</time></trkpt><trkpt lat="42.0617531" lon="13.5684088"><ele>700.0</ele><time>2026-03-24T13:32:01.925Z</time></trkpt><trkpt lat="42.0618312" lon="13.5684046"><ele>700.0</ele><time>2026-03-24T13:32:02.924Z</time></trkpt><trkpt lat="42.0619229" lon="13.5683691"><ele>701.0</ele><time>2026-03-24T13:32:04.925Z</time></trkpt><trkpt lat="42.0619564" lon="13.5682896"><ele>702.0</ele><time>2026-03-24T13:32:06.925Z</time></trkpt><trkpt lat="42.0619573" lon="13.5681545"><ele>703.0</ele><time>2026-03-24T13:32:08.924Z</time></trkpt><trkpt lat="42.0619648" lon="13.56806"><ele>704.0</ele><time>2026-03-24T13:32:09.924Z</time></trkpt><trkpt lat="42.0619804" lon="13.567966"><ele>705.0</ele><time>2026-03-24T13:32:10.924Z</time></trkpt><trkpt lat="42.0620043" lon="13.56787"><ele>706.0</ele><time>2026-03-24T13:32:11.924Z</time></trkpt><trkpt lat="42.0620267" lon="13.5677575"><ele>706.1999999999999</ele><time>2026-03-24T13:32:12.925Z</time></trkpt><trkpt lat="42.0620478" lon="13.5676274"><ele>706.4</ele><time>2026-03-24T13:32:13.924Z</time></trkpt><trkpt lat="42.0620664" lon="13.5674893"><ele>706.6</ele><time>2026-03-24T13:32:14.925Z</time></trkpt><trkpt lat="42.0620894" lon="13.5673456"><ele>706.8</ele><time>2026-03-24T13:32:15.925Z</time></trkpt><trkpt lat="42.062116" lon="13.5672028"><ele>707.0</ele><time>2026-03-24T13:32:16.925Z</time></trkpt><trkpt lat="42.0621407" lon="13.5670701"><ele>706.6666666666666</ele><time>2026-03-24T13:32:17.924Z</time></trkpt><trkpt lat="42.0621611" lon="13.5669425"><ele>706.3333333333333</ele><time>2026-03-24T13:32:18.924Z</time></trkpt><trkpt lat="42.0621819" lon="13.5668334"><ele>706.0</ele><time>2026-03-24T13:32:19.924Z</time></trkpt><trkpt lat="42.0622127" lon="13.5667322"><ele>705.6666666666666</ele><time>2026-03-24T13:32:20.924Z</time></trkpt><trkpt lat="42.0622439" lon="13.5666286"><ele>705.3333333333334</ele><time>2026-03-24T13:32:21.924Z</time></trkpt><trkpt lat="42.0622736" lon="13.5665154"><ele>705.0</ele><time>2026-03-24T13:32:22.924Z</time></trkpt><trkpt lat="42.0623087" lon="13.5663892"><ele>705.0</ele><time>2026-03-24T13:32:23.924Z</time></trkpt><trkpt lat="42.0623566" lon="13.5662485"><ele>705.0</ele><time>2026-03-24T13:32:24.924Z</time></trkpt><trkpt lat="42.0624132" lon="13.5661041"><ele>705.0</ele><time>2026-03-24T13:32:25.925Z</time></trkpt><trkpt lat="42.0624739" lon="13.5659512"><ele>705.0</ele><time>2026-03-24T13:32:26.924Z</time></trkpt><trkpt lat="42.0625439" lon="13.5657836"><ele>704.6666666666666</ele><time>2026-03-24T13:32:27.925Z</time></trkpt><trkpt lat="42.0626137" lon="13.5656093"><ele>704.3333333333333</ele><time>2026-03-24T13:32:28.924Z</time></trkpt><trkpt lat="42.0626802" lon="13.565422"><ele>704.0</ele><time>2026-03-24T13:32:29.924Z</time></trkpt><trkpt lat="42.0627414" lon="13.565231"><ele>704.0</ele><time>2026-03-24T13:32:30.925Z</time></trkpt><trkpt lat="42.0627993" lon="13.5650372"><ele>704.0</ele><time>2026-03-24T13:32:31.925Z</time></trkpt><trkpt lat="42.0628583" lon="13.564852"><ele>704.0</ele><time>2026-03-24T13:32:32.924Z</time></trkpt><trkpt lat="42.0629185" lon="13.564665"><ele>703.5</ele><time>2026-03-24T13:32:33.924Z</time></trkpt><trkpt lat="42.0629759" lon="13.5644789"><ele>703.0</ele><time>2026-03-24T13:32:34.925Z</time></trkpt><trkpt lat="42.0630327" lon="13.5642856"><ele>702.5</ele><time>2026-03-24T13:32:35.924Z</time></trkpt><trkpt lat="42.0630816" lon="13.5641061"><ele>702.0</ele><time>2026-03-24T13:32:36.925Z</time></trkpt><trkpt lat="42.0631217" lon="13.5639567"><ele>702.0</ele><time>2026-03-24T13:32:37.924Z</time></trkpt><trkpt lat="42.0631581" lon="13.5638117"><ele>702.0</ele><time>2026-03-24T13:32:38.924Z</time></trkpt><trkpt lat="42.0631998" lon="13.5636543"><ele>702.0</ele><time>2026-03-24T13:32:39.925Z</time></trkpt><trkpt lat="42.0632364" lon="13.5634846"><ele>702.0</ele><time>2026-03-24T13:32:40.924Z</time></trkpt><trkpt lat="42.0632634" lon="13.5633099"><ele>702.6</ele><time>2026-03-24T13:32:41.924Z</time></trkpt><trkpt lat="42.0632811" lon="13.5631605"><ele>703.2</ele><time>2026-03-24T13:32:42.924Z</time></trkpt><trkpt lat="42.0632949" lon="13.563037"><ele>703.8</ele><time>2026-03-24T13:32:43.924Z</time></trkpt><trkpt lat="42.0633061" lon="13.5629104"><ele>704.4</ele><time>2026-03-24T13:32:44.924Z</time></trkpt><trkpt lat="42.0633339" lon="13.5627543"><ele>705.0</ele><time>2026-03-24T13:32:45.925Z</time></trkpt><trkpt lat="42.0633722" lon="13.5625837"><ele>705.0</ele><time>2026-03-24T13:32:46.925Z</time></trkpt><trkpt lat="42.0634189" lon="13.5624056"><ele>705.0</ele><time>2026-03-24T13:32:47.925Z</time></trkpt><trkpt lat="42.0634653" lon="13.5622338"><ele>705.0</ele><time>2026-03-24T13:32:48.924Z</time></trkpt><trkpt lat="42.0635124" lon="13.5620779"><ele>705.0</ele><time>2026-03-24T13:32:49.924Z</time></trkpt><trkpt lat="42.0635687" lon="13.5619294"><ele>704.0</ele><time>2026-03-24T13:32:50.924Z</time></trkpt><trkpt lat="42.0636236" lon="13.5617934"><ele>703.0</ele><time>2026-03-24T13:32:51.924Z</time></trkpt><trkpt lat="42.0636776" lon="13.5616698"><ele>702.0</ele><time>2026-03-24T13:32:52.924Z</time></trkpt><trkpt lat="42.063735" lon="13.5615461"><ele>701.0</ele><time>2026-03-24T13:32:53.925Z</time></trkpt><trkpt lat="42.0638121" lon="13.561414"><ele>701.0</ele><time>2026-03-24T13:32:54.924Z</time></trkpt><trkpt lat="42.0638947" lon="13.5612692"><ele>701.0</ele><time>2026-03-24T13:32:55.924Z</time></trkpt><trkpt lat="42.0639725" lon="13.5611111"><ele>701.0</ele><time>2026-03-24T13:32:56.924Z</time></trkpt><trkpt lat="42.0640449" lon="13.5609396"><ele>701.0</ele><time>2026-03-24T13:32:57.924Z</time></trkpt><trkpt lat="42.0641202" lon="13.5607684"><ele>701.6666666666666</ele><time>2026-03-24T13:32:58.924Z</time></trkpt><trkpt lat="42.0642032" lon="13.5605959"><ele>702.3333333333334</ele><time>2026-03-24T13:32:59.925Z</time></trkpt><trkpt lat="42.06429" lon="13.5604148"><ele>703.0</ele><time>2026-03-24T13:33:00.925Z</time></trkpt><trkpt lat="42.0643732" lon="13.5602273"><ele>703.0</ele><time>2026-03-24T13:33:01.925Z</time></trkpt><trkpt lat="42.0644521" lon="13.5600378"><ele>703.0</ele><time>2026-03-24T13:33:02.924Z</time></trkpt><trkpt lat="42.0645239" lon="13.5598503"><ele>703.0</ele><time>2026-03-24T13:33:03.924Z</time></trkpt><trkpt lat="42.0645973" lon="13.5596647"><ele>703.25</ele><time>2026-03-24T13:33:04.924Z</time></trkpt><trkpt lat="42.0646686" lon="13.5594785"><ele>703.5</ele><time>2026-03-24T13:33:05.924Z</time></trkpt><trkpt lat="42.064736" lon="13.5593038"><ele>703.75</ele><time>2026-03-24T13:33:06.924Z</time></trkpt><trkpt lat="42.0648051" lon="13.5591449"><ele>704.0</ele><time>2026-03-24T13:33:07.925Z</time></trkpt><trkpt lat="42.0648716" lon="13.5589987"><ele>704.0</ele><time>2026-03-24T13:33:08.925Z</time></trkpt><trkpt lat="42.0649376" lon="13.5588547"><ele>704.0</ele><time>2026-03-24T13:33:09.924Z</time></trkpt><trkpt lat="42.0650084" lon="13.5587139"><ele>704.0</ele><time>2026-03-24T13:33:10.924Z</time></trkpt><trkpt lat="42.0650759" lon="13.5585655"><ele>704.0</ele><time>2026-03-24T13:33:11.924Z</time></trkpt><trkpt lat="42.0651473" lon="13.5584162"><ele>704.5</ele><time>2026-03-24T13:33:12.924Z</time></trkpt><trkpt lat="42.0652143" lon="13.5582729"><ele>705.0</ele><time>2026-03-24T13:33:13.924Z</time></trkpt><trkpt lat="42.0652785" lon="13.5581348"><ele>705.5</ele><time>2026-03-24T13:33:14.924Z</time></trkpt><trkpt lat="42.0653442" lon="13.5580068"><ele>706.0</ele><time>2026-03-24T13:33:15.925Z</time></trkpt><trkpt lat="42.0654081" lon="13.5578844"><ele>706.0</ele><time>2026-03-24T13:33:16.924Z</time></trkpt><trkpt lat="42.0654698" lon="13.5577687"><ele>706.0</ele><time>2026-03-24T13:33:17.925Z</time></trkpt><trkpt lat="42.065534" lon="13.557662"><ele>706.0</ele><time>2026-03-24T13:33:18.924Z</time></trkpt><trkpt lat="42.0656102" lon="13.557556"><ele>706.0</ele><time>2026-03-24T13:33:19.924Z</time></trkpt><trkpt lat="42.0656955" lon="13.5574485"><ele>706.0</ele><time>2026-03-24T13:33:20.925Z</time></trkpt><trkpt lat="42.0657804" lon="13.5573382"><ele>706.25</ele><time>2026-03-24T13:33:21.924Z</time></trkpt><trkpt lat="42.0658665" lon="13.5572144"><ele>706.5</ele><time>2026-03-24T13:33:22.924Z</time></trkpt><trkpt lat="42.0659573" lon="13.557085"><ele>706.75</ele><time>2026-03-24T13:33:23.924Z</time></trkpt><trkpt lat="42.0660445" lon="13.5569529"><ele>707.0</ele><time>2026-03-24T13:33:24.925Z</time></trkpt><trkpt lat="42.0661342" lon="13.556822"><ele>707.25</ele><time>2026-03-24T13:33:25.924Z</time></trkpt><trkpt lat="42.0662191" lon="13.5566964"><ele>707.5</ele><time>2026-03-24T13:33:26.924Z</time></trkpt><trkpt lat="42.066304" lon="13.5565727"><ele>707.75</ele><time>2026-03-24T13:33:27.925Z</time></trkpt><trkpt lat="42.0663848" lon="13.5564571"><ele>708.0</ele><time>2026-03-24T13:33:28.924Z</time></trkpt><trkpt lat="42.0664642" lon="13.5563448"><ele>708.0</ele><time>2026-03-24T13:33:29.924Z</time></trkpt><trkpt lat="42.0665415" lon="13.5562299"><ele>708.0</ele><time>2026-03-24T13:33:30.925Z</time></trkpt><trkpt lat="42.0666184" lon="13.5561167"><ele>708.0</ele><time>2026-03-24T13:33:31.925Z</time></trkpt><trkpt lat="42.0667003" lon="13.5559998"><ele>708.0</ele><time>2026-03-24T13:33:32.925Z</time></trkpt><trkpt lat="42.06678" lon="13.5558836"><ele>708.8</ele><time>2026-03-24T13:33:33.925Z</time></trkpt><trkpt lat="42.0668659" lon="13.5557707"><ele>709.5999999999999</ele><time>2026-03-24T13:33:34.925Z</time></trkpt><trkpt lat="42.0669493" lon="13.5556652"><ele>710.4000000000001</ele><time>2026-03-24T13:33:35.924Z</time></trkpt><trkpt lat="42.0670322" lon="13.5555651"><ele>711.2</ele><time>2026-03-24T13:33:36.924Z</time></trkpt><trkpt lat="42.0671093" lon="13.5554843"><ele>712.0</ele><time>2026-03-24T13:33:37.924Z</time></trkpt><trkpt lat="42.0671899" lon="13.5553999"><ele>712.0</ele><time>2026-03-24T13:33:38.925Z</time></trkpt><trkpt lat="42.0672748" lon="13.5553154"><ele>712.0</ele><time>2026-03-24T13:33:39.925Z</time></trkpt><trkpt lat="42.0673644" lon="13.5552303"><ele>712.0</ele><time>2026-03-24T13:33:40.925Z</time></trkpt><trkpt lat="42.0674562" lon="13.5551425"><ele>712.0</ele><time>2026-03-24T13:33:41.925Z</time></trkpt><trkpt lat="42.0675515" lon="13.5550503"><ele>712.0</ele><time>2026-03-24T13:33:42.924Z</time></trkpt><trkpt lat="42.0676464" lon="13.5549622"><ele>712.4000000000001</ele><time>2026-03-24T13:33:43.924Z</time></trkpt><trkpt lat="42.0677367" lon="13.5548744"><ele>712.8000000000001</ele><time>2026-03-24T13:33:44.925Z</time></trkpt><trkpt lat="42.0678097" lon="13.5548011"><ele>713.2</ele><time>2026-03-24T13:33:45.925Z</time></trkpt><trkpt lat="42.0678697" lon="13.5547456"><ele>713.6</ele><time>2026-03-24T13:33:46.924Z</time></trkpt><trkpt lat="42.0679461" lon="13.5546689"><ele>714.0</ele><time>2026-03-24T13:33:48.925Z</time></trkpt><trkpt lat="42.0680383" lon="13.5546173"><ele>714.0</ele><time>2026-03-24T13:33:53.925Z</time></trkpt><trkpt lat="42.0680928" lon="13.5545747"><ele>714.0</ele><time>2026-03-24T13:33:54.924Z</time></trkpt><trkpt lat="42.0681492" lon="13.554519"><ele>714.0</ele><time>2026-03-24T13:33:55.925Z</time></trkpt><trkpt lat="42.068214" lon="13.5544655"><ele>714.0</ele><time>2026-03-24T13:33:56.924Z</time></trkpt><trkpt lat="42.0682907" lon="13.5543979"><ele>714.0</ele><time>2026-03-24T13:33:57.924Z</time></trkpt><trkpt lat="42.0683653" lon="13.5543282"><ele>714.0</ele><time>2026-03-24T13:33:58.925Z</time></trkpt><trkpt lat="42.068439" lon="13.5542621"><ele>714.4000000000001</ele><time>2026-03-24T13:33:59.924Z</time></trkpt><trkpt lat="42.0685047" lon="13.5541984"><ele>714.8</ele><time>2026-03-24T13:34:00.924Z</time></trkpt><trkpt lat="42.0685766" lon="13.554119"><ele>715.2</ele><time>2026-03-24T13:34:01.925Z</time></trkpt><trkpt lat="42.0686563" lon="13.5540235"><ele>715.5999999999999</ele><time>2026-03-24T13:34:02.925Z</time></trkpt><trkpt lat="42.0687381" lon="13.5539114"><ele>716.0</ele><time>2026-03-24T13:34:03.925Z</time></trkpt><trkpt lat="42.0688177" lon="13.5537918"><ele>715.8</ele><time>2026-03-24T13:34:04.924Z</time></trkpt><trkpt lat="42.0688908" lon="13.5536794"><ele>715.5999999999999</ele><time>2026-03-24T13:34:05.924Z</time></trkpt><trkpt lat="42.0689711" lon="13.5535724"><ele>715.4</ele><time>2026-03-24T13:34:06.924Z</time></trkpt><trkpt lat="42.0690483" lon="13.5534609"><ele>715.2</ele><time>2026-03-24T13:34:07.924Z</time></trkpt><trkpt lat="42.0691227" lon="13.5533485"><ele>715.0</ele><time>2026-03-24T13:34:08.924Z</time></trkpt><trkpt lat="42.0691785" lon="13.5532335"><ele>715.4</ele><time>2026-03-24T13:34:09.924Z</time></trkpt><trkpt lat="42.0692237" lon="13.5531247"><ele>715.8</ele><time>2026-03-24T13:34:10.924Z</time></trkpt><trkpt lat="42.0692664" lon="13.5530263"><ele>716.2</ele><time>2026-03-24T13:34:11.924Z</time></trkpt><trkpt lat="42.0693061" lon="13.552946"><ele>716.6</ele><time>2026-03-24T13:34:12.925Z</time></trkpt><trkpt lat="42.0693662" lon="13.5528638"><ele>717.0</ele><time>2026-03-24T13:34:14.924Z</time></trkpt><trkpt lat="42.0692823" lon="13.5529789"><ele>717.0</ele><time>2026-03-24T13:34:22.925Z</time></trkpt><trkpt lat="42.0692313" lon="13.553094"><ele>717.0</ele><time>2026-03-24T13:34:23.924Z</time></trkpt><trkpt lat="42.0691816" lon="13.5532045"><ele>717.0</ele><time>2026-03-24T13:34:24.924Z</time></trkpt><trkpt lat="42.0691137" lon="13.5533312"><ele>717.0</ele><time>2026-03-24T13:34:25.925Z</time></trkpt><trkpt lat="42.0690325" lon="13.5534579"><ele>717.0</ele><time>2026-03-24T13:34:26.924Z</time></trkpt><trkpt lat="42.0689482" lon="13.5535847"><ele>716.8</ele><time>2026-03-24T13:34:27.924Z</time></trkpt><trkpt lat="42.0688635" lon="13.5536966"><ele>716.6</ele><time>2026-03-24T13:34:28.924Z</time></trkpt><trkpt lat="42.0687865" lon="13.5538015"><ele>716.4</ele><time>2026-03-24T13:34:29.925Z</time></trkpt><trkpt lat="42.0687151" lon="13.5538954"><ele>716.1999999999999</ele><time>2026-03-24T13:34:30.924Z</time></trkpt><trkpt lat="42.0686417" lon="13.5539962"><ele>716.0</ele><time>2026-03-24T13:34:31.925Z</time></trkpt><trkpt lat="42.0685556" lon="13.5540966"><ele>716.0</ele><time>2026-03-24T13:34:32.925Z</time></trkpt><trkpt lat="42.0684627" lon="13.5541939"><ele>716.0</ele><time>2026-03-24T13:34:33.925Z</time></trkpt><trkpt lat="42.0683686" lon="13.5542823"><ele>716.0</ele><time>2026-03-24T13:34:34.924Z</time></trkpt><trkpt lat="42.0682791" lon="13.5543618"><ele>716.0</ele><time>2026-03-24T13:34:35.925Z</time></trkpt><trkpt lat="42.0681992" lon="13.5544323"><ele>716.0</ele><time>2026-03-24T13:34:36.925Z</time></trkpt><trkpt lat="42.0681428" lon="13.5544869"><ele>716.0</ele><time>2026-03-24T13:34:37.925Z</time></trkpt><trkpt lat="42.0680867" lon="13.5545568"><ele>716.0</ele><time>2026-03-24T13:34:39.924Z</time></trkpt><trkpt lat="42.068122" lon="13.5546859"><ele>716.0</ele><time>2026-03-24T13:34:42.925Z</time></trkpt><trkpt lat="42.0681815" lon="13.5547261"><ele>716.0</ele><time>2026-03-24T13:34:43.924Z</time></trkpt><trkpt lat="42.0682629" lon="13.5547564"><ele>716.0</ele><time>2026-03-24T13:34:44.924Z</time></trkpt><trkpt lat="42.068361" lon="13.5547806"><ele>716.0</ele><time>2026-03-24T13:34:45.924Z</time></trkpt><trkpt lat="42.0684803" lon="13.5547882"><ele>716.0</ele><time>2026-03-24T13:34:46.924Z</time></trkpt><trkpt lat="42.0686028" lon="13.5547658"><ele>716.0</ele><time>2026-03-24T13:34:47.924Z</time></trkpt><trkpt lat="42.068726" lon="13.5547118"><ele>716.0</ele><time>2026-03-24T13:34:48.925Z</time></trkpt><trkpt lat="42.068846" lon="13.5546176"><ele>716.0</ele><time>2026-03-24T13:34:49.925Z</time></trkpt><trkpt lat="42.0689682" lon="13.5544964"><ele>716.0</ele><time>2026-03-24T13:34:50.924Z</time></trkpt><trkpt lat="42.069098" lon="13.5543611"><ele>716.0</ele><time>2026-03-24T13:34:51.924Z</time></trkpt><trkpt lat="42.0692267" lon="13.5542259"><ele>716.0</ele><time>2026-03-24T13:34:52.925Z</time></trkpt><trkpt lat="42.0693533" lon="13.5540827"><ele>716.3333333333333</ele><time>2026-03-24T13:34:53.925Z</time></trkpt><trkpt lat="42.0694827" lon="13.5539454"><ele>716.6666666666666</ele><time>2026-03-24T13:34:54.924Z</time></trkpt><trkpt lat="42.0696139" lon="13.5538108"><ele>717.0</ele><time>2026-03-24T13:34:55.925Z</time></trkpt><trkpt lat="42.0697442" lon="13.5536952"><ele>717.0</ele><time>2026-03-24T13:34:56.925Z</time></trkpt><trkpt lat="42.0698794" lon="13.5536016"><ele>717.0</ele><time>2026-03-24T13:34:57.925Z</time></trkpt><trkpt lat="42.0700253" lon="13.5535296"><ele>717.0</ele><time>2026-03-24T13:34:58.924Z</time></trkpt><trkpt lat="42.0701932" lon="13.5534723"><ele>718.6666666666666</ele><time>2026-03-24T13:34:59.924Z</time></trkpt><trkpt lat="42.0703781" lon="13.553423"><ele>720.3333333333333</ele><time>2026-03-24T13:35:00.924Z</time></trkpt><trkpt lat="42.0705761" lon="13.5533652"><ele>722.0</ele><time>2026-03-24T13:35:01.925Z</time></trkpt><trkpt lat="42.070778" lon="13.5533065"><ele>724.6666666666666</ele><time>2026-03-24T13:35:02.925Z</time></trkpt><trkpt lat="42.0709763" lon="13.5532487"><ele>727.3333333333334</ele><time>2026-03-24T13:35:03.924Z</time></trkpt><trkpt lat="42.0711623" lon="13.5531818"><ele>730.0</ele><time>2026-03-24T13:35:04.924Z</time></trkpt><trkpt lat="42.0713357" lon="13.5530816"><ele>730.0</ele><time>2026-03-24T13:35:05.925Z</time></trkpt><trkpt lat="42.0714961" lon="13.5529661"><ele>730.0</ele><time>2026-03-24T13:35:06.925Z</time></trkpt><trkpt lat="42.0716375" lon="13.5528615"><ele>730.0</ele><time>2026-03-24T13:35:07.924Z</time></trkpt><trkpt lat="42.071753" lon="13.55278"><ele>729.2</ele><time>2026-03-24T13:35:08.924Z</time></trkpt><trkpt lat="42.0718528" lon="13.5527205"><ele>728.4</ele><time>2026-03-24T13:35:09.924Z</time></trkpt><trkpt lat="42.0719463" lon="13.5526945"><ele>727.5999999999999</ele><time>2026-03-24T13:35:10.924Z</time></trkpt><trkpt lat="42.0720448" lon="13.5527121"><ele>726.8</ele><time>2026-03-24T13:35:11.925Z</time></trkpt><trkpt lat="42.0721538" lon="13.5527456"><ele>726.0</ele><time>2026-03-24T13:35:12.924Z</time></trkpt><trkpt lat="42.0722726" lon="13.5527671"><ele>726.0</ele><time>2026-03-24T13:35:13.925Z</time></trkpt><trkpt lat="42.0724092" lon="13.5527616"><ele>726.0</ele><time>2026-03-24T13:35:14.925Z</time></trkpt><trkpt lat="42.0725585" lon="13.5527206"><ele>726.0</ele><time>2026-03-24T13:35:15.924Z</time></trkpt><trkpt lat="42.0727249" lon="13.5526582"><ele>727.6666666666666</ele><time>2026-03-24T13:35:16.925Z</time></trkpt><trkpt lat="42.0729033" lon="13.5525855"><ele>729.3333333333333</ele><time>2026-03-24T13:35:17.925Z</time></trkpt><trkpt lat="42.0730873" lon="13.552504"><ele>731.0</ele><time>2026-03-24T13:35:18.925Z</time></trkpt><trkpt lat="42.0732779" lon="13.5524227"><ele>733.3333333333333</ele><time>2026-03-24T13:35:19.924Z</time></trkpt><trkpt lat="42.0734593" lon="13.5523514"><ele>735.6666666666666</ele><time>2026-03-24T13:35:20.925Z</time></trkpt><trkpt lat="42.0736295" lon="13.5522814"><ele>738.0</ele><time>2026-03-24T13:35:21.925Z</time></trkpt><trkpt lat="42.0737952" lon="13.5522314"><ele>738.0</ele><time>2026-03-24T13:35:22.924Z</time></trkpt><trkpt lat="42.073965" lon="13.5522059"><ele>738.0</ele><time>2026-03-24T13:35:23.924Z</time></trkpt><trkpt lat="42.0741399" lon="13.5521987"><ele>738.0</ele><time>2026-03-24T13:35:24.925Z</time></trkpt><trkpt lat="42.0743168" lon="13.5522169"><ele>740.0</ele><time>2026-03-24T13:35:25.924Z</time></trkpt><trkpt lat="42.074492" lon="13.5522622"><ele>742.0</ele><time>2026-03-24T13:35:26.925Z</time></trkpt><trkpt lat="42.0746655" lon="13.5523305"><ele>744.0</ele><time>2026-03-24T13:35:27.925Z</time></trkpt><trkpt lat="42.074828" lon="13.5524013"><ele>743.6666666666666</ele><time>2026-03-24T13:35:28.924Z</time></trkpt><trkpt lat="42.0749807" lon="13.5524694"><ele>743.3333333333333</ele><time>2026-03-24T13:35:29.925Z</time></trkpt><trkpt lat="42.0751223" lon="13.5525415"><ele>743.0</ele><time>2026-03-24T13:35:30.924Z</time></trkpt><trkpt lat="42.0752721" lon="13.5526319"><ele>743.0</ele><time>2026-03-24T13:35:31.924Z</time></trkpt><trkpt lat="42.0754174" lon="13.5527399"><ele>743.0</ele><time>2026-03-24T13:35:32.924Z</time></trkpt><trkpt lat="42.0755669" lon="13.5528659"><ele>743.0</ele><time>2026-03-24T13:35:33.925Z</time></trkpt><trkpt lat="42.075721" lon="13.5530083"><ele>745.0</ele><time>2026-03-24T13:35:34.925Z</time></trkpt><trkpt lat="42.0758828" lon="13.5531635"><ele>747.0</ele><time>2026-03-24T13:35:35.925Z</time></trkpt><trkpt lat="42.0760388" lon="13.5533076"><ele>749.0</ele><time>2026-03-24T13:35:36.924Z</time></trkpt><trkpt lat="42.0761756" lon="13.5534224"><ele>749.0</ele><time>2026-03-24T13:35:37.924Z</time></trkpt><trkpt lat="42.0763041" lon="13.5535052"><ele>749.0</ele><time>2026-03-24T13:35:38.924Z</time></trkpt><trkpt lat="42.076431" lon="13.5535514"><ele>749.0</ele><time>2026-03-24T13:35:39.924Z</time></trkpt><trkpt lat="42.0765629" lon="13.5535578"><ele>749.0</ele><time>2026-03-24T13:35:40.924Z</time></trkpt><trkpt lat="42.0766965" lon="13.5535384"><ele>748.0</ele><time>2026-03-24T13:35:41.925Z</time></trkpt><trkpt lat="42.0768392" lon="13.5534953"><ele>747.0</ele><time>2026-03-24T13:35:42.924Z</time></trkpt><trkpt lat="42.0769835" lon="13.5534419"><ele>746.0</ele><time>2026-03-24T13:35:43.925Z</time></trkpt><trkpt lat="42.0771209" lon="13.5533911"><ele>745.0</ele><time>2026-03-24T13:35:44.924Z</time></trkpt><trkpt lat="42.0772455" lon="13.5533451"><ele>745.0</ele><time>2026-03-24T13:35:45.924Z</time></trkpt><trkpt lat="42.0773703" lon="13.5532924"><ele>745.0</ele><time>2026-03-24T13:35:46.924Z</time></trkpt><trkpt lat="42.0774742" lon="13.5532225"><ele>745.0</ele><time>2026-03-24T13:35:47.925Z</time></trkpt><trkpt lat="42.0775474" lon="13.5531153"><ele>745.0</ele><time>2026-03-24T13:35:48.924Z</time></trkpt><trkpt lat="42.07758" lon="13.5529739"><ele>747.25</ele><time>2026-03-24T13:35:49.925Z</time></trkpt><trkpt lat="42.0775855" lon="13.5528118"><ele>749.5</ele><time>2026-03-24T13:35:50.924Z</time></trkpt><trkpt lat="42.0775567" lon="13.552627"><ele>751.75</ele><time>2026-03-24T13:35:51.925Z</time></trkpt><trkpt lat="42.0775066" lon="13.5524283"><ele>754.0</ele><time>2026-03-24T13:35:52.924Z</time></trkpt><trkpt lat="42.0774486" lon="13.5522188"><ele>751.6666666666667</ele><time>2026-03-24T13:35:53.924Z</time></trkpt><trkpt lat="42.0773992" lon="13.5520116"><ele>749.3333333333334</ele><time>2026-03-24T13:35:54.925Z</time></trkpt><trkpt lat="42.0773395" lon="13.5518074"><ele>747.0</ele><time>2026-03-24T13:35:55.924Z</time></trkpt><trkpt lat="42.0772585" lon="13.5516187"><ele>747.0</ele><time>2026-03-24T13:35:56.925Z</time></trkpt><trkpt lat="42.077165" lon="13.5514404"><ele>747.0</ele><time>2026-03-24T13:35:57.925Z</time></trkpt><trkpt lat="42.0770598" lon="13.5512868"><ele>747.0</ele><time>2026-03-24T13:35:58.925Z</time></trkpt><trkpt lat="42.0769503" lon="13.5511677"><ele>748.6</ele><time>2026-03-24T13:35:59.924Z</time></trkpt><trkpt lat="42.0768476" lon="13.5510792"><ele>750.2</ele><time>2026-03-24T13:36:00.924Z</time></trkpt><trkpt lat="42.0767582" lon="13.5510092"><ele>751.8</ele><time>2026-03-24T13:36:01.924Z</time></trkpt><trkpt lat="42.0766821" lon="13.5509438"><ele>753.4</ele><time>2026-03-24T13:36:02.924Z</time></trkpt><trkpt lat="42.076637" lon="13.5508494"><ele>755.0</ele><time>2026-03-24T13:36:03.925Z</time></trkpt><trkpt lat="42.0766076" lon="13.5507472"><ele>755.0</ele><time>2026-03-24T13:36:04.924Z</time></trkpt><trkpt lat="42.0766036" lon="13.5506418"><ele>755.0</ele><time>2026-03-24T13:36:05.924Z</time></trkpt><trkpt lat="42.076631" lon="13.5505438"><ele>755.0</ele><time>2026-03-24T13:36:06.924Z</time></trkpt><trkpt lat="42.0766914" lon="13.5504546"><ele>755.0</ele><time>2026-03-24T13:36:07.924Z</time></trkpt><trkpt lat="42.0767729" lon="13.5503932"><ele>755.0</ele><time>2026-03-24T13:36:08.925Z</time></trkpt><trkpt lat="42.0768861" lon="13.5503424"><ele>753.75</ele><time>2026-03-24T13:36:09.924Z</time></trkpt><trkpt lat="42.077015" lon="13.5502865"><ele>752.5</ele><time>2026-03-24T13:36:10.924Z</time></trkpt><trkpt lat="42.077148" lon="13.5502265"><ele>751.25</ele><time>2026-03-24T13:36:11.925Z</time></trkpt><trkpt lat="42.0772743" lon="13.5501726"><ele>750.0</ele><time>2026-03-24T13:36:12.924Z</time></trkpt><trkpt lat="42.077394" lon="13.5501287"><ele>752.1666666666666</ele><time>2026-03-24T13:36:13.924Z</time></trkpt><trkpt lat="42.077499" lon="13.5500854"><ele>754.3333333333334</ele><time>2026-03-24T13:36:14.924Z</time></trkpt><trkpt lat="42.0775896" lon="13.5500485"><ele>756.5</ele><time>2026-03-24T13:36:15.925Z</time></trkpt><trkpt lat="42.0776748" lon="13.5500153"><ele>758.6666666666667</ele><time>2026-03-24T13:36:16.925Z</time></trkpt><trkpt lat="42.077762" lon="13.5499784"><ele>760.8333333333334</ele><time>2026-03-24T13:36:17.925Z</time></trkpt><trkpt lat="42.077823" lon="13.5499544"><ele>763.0</ele><time>2026-03-24T13:36:18.925Z</time></trkpt><trkpt lat="42.0779247" lon="13.5499285"><ele>763.0</ele><time>2026-03-24T13:36:20.924Z</time></trkpt><trkpt lat="42.0778369" lon="13.5499078"><ele>763.0</ele><time>2026-03-24T13:36:26.924Z</time></trkpt><trkpt lat="42.0777706" lon="13.5499538"><ele>763.0</ele><time>2026-03-24T13:36:27.925Z</time></trkpt><trkpt lat="42.0776808" lon="13.5499893"><ele>763.0</ele><time>2026-03-24T13:36:28.925Z</time></trkpt><trkpt lat="42.0775882" lon="13.5500245"><ele>763.0</ele><time>2026-03-24T13:36:29.924Z</time></trkpt><trkpt lat="42.0774846" lon="13.5500732"><ele>759.75</ele><time>2026-03-24T13:36:30.924Z</time></trkpt><trkpt lat="42.0773692" lon="13.5501235"><ele>756.5</ele><time>2026-03-24T13:36:31.924Z</time></trkpt><trkpt lat="42.077255" lon="13.5501672"><ele>753.25</ele><time>2026-03-24T13:36:32.924Z</time></trkpt><trkpt lat="42.0771367" lon="13.5501992"><ele>750.0</ele><time>2026-03-24T13:36:33.924Z</time></trkpt><trkpt lat="42.0770216" lon="13.5502404"><ele>750.0</ele><time>2026-03-24T13:36:34.925Z</time></trkpt><trkpt lat="42.0769086" lon="13.5502747"><ele>750.0</ele><time>2026-03-24T13:36:35.924Z</time></trkpt><trkpt lat="42.0768091" lon="13.5503233"><ele>750.0</ele><time>2026-03-24T13:36:36.924Z</time></trkpt><trkpt lat="42.0767296" lon="13.5503672"><ele>750.0</ele><time>2026-03-24T13:36:37.924Z</time></trkpt><trkpt lat="42.0766284" lon="13.5504472"><ele>750.0</ele><time>2026-03-24T13:36:39.924Z</time></trkpt><trkpt lat="42.0766065" lon="13.5503667"><ele>750.0</ele><time>2026-03-24T13:36:44.925Z</time></trkpt><trkpt lat="42.0766812" lon="13.5502866"><ele>750.0</ele><time>2026-03-24T13:36:46.924Z</time></trkpt><trkpt lat="42.0767353" lon="13.5502307"><ele>750.0</ele><time>2026-03-24T13:36:47.925Z</time></trkpt><trkpt lat="42.0767889" lon="13.5501343"><ele>750.0</ele><time>2026-03-24T13:36:48.924Z</time></trkpt><trkpt lat="42.0768562" lon="13.550033"><ele>750.0</ele><time>2026-03-24T13:36:49.925Z</time></trkpt><trkpt lat="42.0769406" lon="13.5499353"><ele>750.0</ele><time>2026-03-24T13:36:50.924Z</time></trkpt><trkpt lat="42.0770104" lon="13.5498224"><ele>750.0</ele><time>2026-03-24T13:36:51.924Z</time></trkpt><trkpt lat="42.0770887" lon="13.549715"><ele>750.0</ele><time>2026-03-24T13:36:52.924Z</time></trkpt><trkpt lat="42.0771671" lon="13.5496109"><ele>750.0</ele><time>2026-03-24T13:36:53.924Z</time></trkpt><trkpt lat="42.077227" lon="13.5495198"><ele>750.0</ele><time>2026-03-24T13:36:54.925Z</time></trkpt><trkpt lat="42.0772797" lon="13.5494342"><ele>747.8</ele><time>2026-03-24T13:36:55.925Z</time></trkpt><trkpt lat="42.0773174" lon="13.5493537"><ele>745.6</ele><time>2026-03-24T13:36:56.924Z</time></trkpt><trkpt lat="42.077349" lon="13.5492183"><ele>743.4000000000001</ele><time>2026-03-24T13:36:58.924Z</time></trkpt><trkpt lat="42.0773005" lon="13.549109"><ele>741.2</ele><time>2026-03-24T13:37:00.924Z</time></trkpt><trkpt lat="42.0772237" lon="13.5490845"><ele>739.0</ele><time>2026-03-24T13:37:01.925Z</time></trkpt><trkpt lat="42.0771006" lon="13.5490457"><ele>739.0</ele><time>2026-03-24T13:37:03.924Z</time></trkpt><trkpt lat="42.0770161" lon="13.5489373"><ele>739.0</ele><time>2026-03-24T13:37:05.925Z</time></trkpt><trkpt lat="42.0769807" lon="13.5487874"><ele>739.0</ele><time>2026-03-24T13:37:07.924Z</time></trkpt><trkpt lat="42.0769504" lon="13.5486352"><ele>739.0</ele><time>2026-03-24T13:37:09.925Z</time></trkpt><trkpt lat="42.076897" lon="13.5485547"><ele>739.0</ele><time>2026-03-24T13:37:13.925Z</time></trkpt><trkpt lat="42.0768288" lon="13.5485884"><ele>739.0</ele><time>2026-03-24T13:37:15.924Z</time></trkpt><trkpt lat="42.0767487" lon="13.5486651"><ele>739.0</ele><time>2026-03-24T13:37:17.924Z</time></trkpt><trkpt lat="42.0766577" lon="13.5487623"><ele>739.0</ele><time>2026-03-24T13:37:19.925Z</time></trkpt><trkpt lat="42.0765877" lon="13.5488567"><ele>739.0</ele><time>2026-03-24T13:37:21.925Z</time></trkpt><trkpt lat="42.0765454" lon="13.5489449"><ele>739.0</ele><time>2026-03-24T13:37:23.924Z</time></trkpt><trkpt lat="42.0764809" lon="13.5490182"><ele>737.5</ele><time>2026-03-24T13:37:26.924Z</time></trkpt><trkpt lat="42.0763934" lon="13.5490087"><ele>736.0</ele><time>2026-03-24T13:37:28.924Z</time></trkpt><trkpt lat="42.0763339" lon="13.5489788"><ele>734.5</ele><time>2026-03-24T13:37:29.924Z</time></trkpt><trkpt lat="42.0762691" lon="13.5489376"><ele>733.0</ele><time>2026-03-24T13:37:30.924Z</time></trkpt><trkpt lat="42.0762005" lon="13.5488878"><ele>731.5</ele><time>2026-03-24T13:37:31.924Z</time></trkpt><trkpt lat="42.0761291" lon="13.5488299"><ele>730.0</ele><time>2026-03-24T13:37:32.925Z</time></trkpt><trkpt lat="42.0760582" lon="13.5487789"><ele>730.0</ele><time>2026-03-24T13:37:33.925Z</time></trkpt><trkpt lat="42.0759902" lon="13.5487339"><ele>730.0</ele><time>2026-03-24T13:37:34.925Z</time></trkpt><trkpt lat="42.0759273" lon="13.5487071"><ele>730.0</ele><time>2026-03-24T13:37:35.925Z</time></trkpt><trkpt lat="42.0758227" lon="13.5486816"><ele>730.0</ele><time>2026-03-24T13:37:37.924Z</time></trkpt><trkpt lat="42.0757402" lon="13.5486659"><ele>730.0</ele><time>2026-03-24T13:37:39.925Z</time></trkpt><trkpt lat="42.0756474" lon="13.5486708"><ele>730.0</ele><time>2026-03-24T13:37:42.924Z</time></trkpt><trkpt lat="42.0755362" lon="13.548726"><ele>729.5</ele><time>2026-03-24T13:37:44.924Z</time></trkpt><trkpt lat="42.0754714" lon="13.5487684"><ele>729.0</ele><time>2026-03-24T13:37:45.924Z</time></trkpt><trkpt lat="42.0754003" lon="13.5488133"><ele>728.5</ele><time>2026-03-24T13:37:46.924Z</time></trkpt><trkpt lat="42.0753187" lon="13.5488532"><ele>728.0</ele><time>2026-03-24T13:37:47.924Z</time></trkpt><trkpt lat="42.0752334" lon="13.5488969"><ele>727.5</ele><time>2026-03-24T13:37:48.924Z</time></trkpt><trkpt lat="42.0751441" lon="13.5489451"><ele>727.0</ele><time>2026-03-24T13:37:49.925Z</time></trkpt><trkpt lat="42.075051" lon="13.5489974"><ele>727.0</ele><time>2026-03-24T13:37:50.924Z</time></trkpt><trkpt lat="42.0749602" lon="13.5490561"><ele>727.0</ele><time>2026-03-24T13:37:51.924Z</time></trkpt><trkpt lat="42.0748684" lon="13.5491203"><ele>727.0</ele><time>2026-03-24T13:37:52.924Z</time></trkpt><trkpt lat="42.0747814" lon="13.5491794"><ele>727.0</ele><time>2026-03-24T13:37:53.924Z</time></trkpt><trkpt lat="42.0746981" lon="13.5492287"><ele>727.0</ele><time>2026-03-24T13:37:54.924Z</time></trkpt><trkpt lat="42.0746249" lon="13.5492735"><ele>726.7142857142857</ele><time>2026-03-24T13:37:55.925Z</time></trkpt><trkpt lat="42.074557" lon="13.5493175"><ele>726.4285714285714</ele><time>2026-03-24T13:37:56.924Z</time></trkpt><trkpt lat="42.0744973" lon="13.5493507"><ele>726.1428571428571</ele><time>2026-03-24T13:37:57.924Z</time></trkpt><trkpt lat="42.0744077" lon="13.5493732"><ele>725.8571428571429</ele><time>2026-03-24T13:37:59.925Z</time></trkpt><trkpt lat="42.0743491" lon="13.5493113"><ele>725.5714285714287</ele><time>2026-03-24T13:38:03.924Z</time></trkpt><trkpt lat="42.0742963" lon="13.5492592"><ele>725.2857142857143</ele><time>2026-03-24T13:38:05.924Z</time></trkpt><trkpt lat="42.0743225" lon="13.5491692"><ele>725.0</ele><time>2026-03-24T13:38:08.924Z</time></trkpt><trkpt lat="42.0744559" lon="13.5490518"><ele>725.0</ele><time>2026-03-24T13:38:10.924Z</time></trkpt><trkpt lat="42.0745437" lon="13.5489693"><ele>725.0</ele><time>2026-03-24T13:38:11.924Z</time></trkpt><trkpt lat="42.0746363" lon="13.5488744"><ele>725.0</ele><time>2026-03-24T13:38:12.924Z</time></trkpt><trkpt lat="42.0747448" lon="13.5487714"><ele>725.0</ele><time>2026-03-24T13:38:13.925Z</time></trkpt><trkpt lat="42.0748595" lon="13.5486615"><ele>725.25</ele><time>2026-03-24T13:38:14.925Z</time></trkpt><trkpt lat="42.0749829" lon="13.5485503"><ele>725.5</ele><time>2026-03-24T13:38:15.925Z</time></trkpt><trkpt lat="42.0751085" lon="13.5484371"><ele>725.75</ele><time>2026-03-24T13:38:16.924Z</time></trkpt><trkpt lat="42.075232" lon="13.5483279"><ele>726.0</ele><time>2026-03-24T13:38:17.924Z</time></trkpt><trkpt lat="42.0753492" lon="13.5482206"><ele>726.0</ele><time>2026-03-24T13:38:18.925Z</time></trkpt><trkpt lat="42.0754541" lon="13.5481058"><ele>726.0</ele><time>2026-03-24T13:38:19.924Z</time></trkpt><trkpt lat="42.0755449" lon="13.5480018"><ele>726.0</ele><time>2026-03-24T13:38:20.925Z</time></trkpt><trkpt lat="42.0756252" lon="13.5479095"><ele>726.0</ele><time>2026-03-24T13:38:21.924Z</time></trkpt><trkpt lat="42.075697" lon="13.5478204"><ele>726.0</ele><time>2026-03-24T13:38:22.924Z</time></trkpt><trkpt lat="42.0757593" lon="13.5477251"><ele>726.0</ele><time>2026-03-24T13:38:23.924Z</time></trkpt><trkpt lat="42.0758103" lon="13.5476184"><ele>726.0</ele><time>2026-03-24T13:38:24.924Z</time></trkpt><trkpt lat="42.0758509" lon="13.5474964"><ele>726.0</ele><time>2026-03-24T13:38:25.924Z</time></trkpt><trkpt lat="42.0758785" lon="13.5473519"><ele>726.0</ele><time>2026-03-24T13:38:26.924Z</time></trkpt><trkpt lat="42.0758972" lon="13.5471893"><ele>725.5</ele><time>2026-03-24T13:38:27.924Z</time></trkpt><trkpt lat="42.0759139" lon="13.5470086"><ele>725.0</ele><time>2026-03-24T13:38:28.925Z</time></trkpt><trkpt lat="42.0759306" lon="13.5468236"><ele>724.5</ele><time>2026-03-24T13:38:29.925Z</time></trkpt><trkpt lat="42.0759413" lon="13.5466408"><ele>724.0</ele><time>2026-03-24T13:38:30.924Z</time></trkpt><trkpt lat="42.0759448" lon="13.5464518"><ele>724.0</ele><time>2026-03-24T13:38:31.924Z</time></trkpt><trkpt lat="42.0759487" lon="13.5462599"><ele>724.0</ele><time>2026-03-24T13:38:32.924Z</time></trkpt><trkpt lat="42.0759459" lon="13.5460777"><ele>724.0</ele><time>2026-03-24T13:38:33.925Z</time></trkpt><trkpt lat="42.0759443" lon="13.5458954"><ele>724.0</ele><time>2026-03-24T13:38:34.924Z</time></trkpt><trkpt lat="42.0759439" lon="13.5457161"><ele>723.75</ele><time>2026-03-24T13:38:35.924Z</time></trkpt><trkpt lat="42.0759397" lon="13.5455401"><ele>723.5</ele><time>2026-03-24T13:38:36.924Z</time></trkpt><trkpt lat="42.0759363" lon="13.5453699"><ele>723.25</ele><time>2026-03-24T13:38:37.925Z</time></trkpt><trkpt lat="42.0759328" lon="13.5452009"><ele>723.0</ele><time>2026-03-24T13:38:38.925Z</time></trkpt><trkpt lat="42.0759299" lon="13.5450533"><ele>722.6666666666666</ele><time>2026-03-24T13:38:39.925Z</time></trkpt><trkpt lat="42.0759327" lon="13.5449314"><ele>722.3333333333334</ele><time>2026-03-24T13:38:40.924Z</time></trkpt><trkpt lat="42.0759361" lon="13.5448251"><ele>722.0</ele><time>2026-03-24T13:38:41.924Z</time></trkpt><trkpt lat="42.0759268" lon="13.5446729"><ele>721.6666666666667</ele><time>2026-03-24T13:38:43.924Z</time></trkpt><trkpt lat="42.0759041" lon="13.544593"><ele>721.3333333333334</ele><time>2026-03-24T13:38:44.924Z</time></trkpt><trkpt lat="42.07587" lon="13.5444924"><ele>721.0</ele><time>2026-03-24T13:38:45.924Z</time></trkpt><trkpt lat="42.0758269" lon="13.5443713"><ele>720.75</ele><time>2026-03-24T13:38:46.924Z</time></trkpt><trkpt lat="42.0757816" lon="13.5442296"><ele>720.5</ele><time>2026-03-24T13:38:47.925Z</time></trkpt><trkpt lat="42.0757374" lon="13.5440863"><ele>720.25</ele><time>2026-03-24T13:38:48.925Z</time></trkpt><trkpt lat="42.0756927" lon="13.5439468"><ele>720.0</ele><time>2026-03-24T13:38:49.925Z</time></trkpt><trkpt lat="42.075649" lon="13.5438124"><ele>720.0</ele><time>2026-03-24T13:38:50.924Z</time></trkpt><trkpt lat="42.0756083" lon="13.5436918"><ele>720.0</ele><time>2026-03-24T13:38:51.924Z</time></trkpt><trkpt lat="42.0755701" lon="13.5435819"><ele>720.0</ele><time>2026-03-24T13:38:52.924Z</time></trkpt><trkpt lat="42.075534" lon="13.5434776"><ele>720.0</ele><time>2026-03-24T13:38:53.924Z</time></trkpt><trkpt lat="42.0755032" lon="13.5433774"><ele>720.0</ele><time>2026-03-24T13:38:54.924Z</time></trkpt><trkpt lat="42.0754745" lon="13.5432772"><ele>720.0</ele><time>2026-03-24T13:38:56.925Z</time></trkpt><trkpt lat="42.0754283" lon="13.5431405"><ele>720.0</ele><time>2026-03-24T13:38:59.925Z</time></trkpt><trkpt lat="42.0754109" lon="13.5430481"><ele>720.0</ele><time>2026-03-24T13:39:00.924Z</time></trkpt><trkpt lat="42.075375" lon="13.5429442"><ele>720.0</ele><time>2026-03-24T13:39:01.924Z</time></trkpt><trkpt lat="42.0753198" lon="13.5428308"><ele>720.0</ele><time>2026-03-24T13:39:02.924Z</time></trkpt><trkpt lat="42.0752481" lon="13.5427068"><ele>720.0</ele><time>2026-03-24T13:39:03.924Z</time></trkpt><trkpt lat="42.0751777" lon="13.5425726"><ele>720.0</ele><time>2026-03-24T13:39:04.924Z</time></trkpt><trkpt lat="42.0751083" lon="13.542432"><ele>720.0</ele><time>2026-03-24T13:39:05.924Z</time></trkpt><trkpt lat="42.0750307" lon="13.5422845"><ele>720.0</ele><time>2026-03-24T13:39:06.924Z</time></trkpt><trkpt lat="42.0749541" lon="13.5421344"><ele>720.0</ele><time>2026-03-24T13:39:07.924Z</time></trkpt><trkpt lat="42.0748813" lon="13.5419761"><ele>719.5</ele><time>2026-03-24T13:39:08.925Z</time></trkpt><trkpt lat="42.0748124" lon="13.5418124"><ele>719.0</ele><time>2026-03-24T13:39:09.925Z</time></trkpt><trkpt lat="42.0747452" lon="13.5416473"><ele>718.5</ele><time>2026-03-24T13:39:10.925Z</time></trkpt><trkpt lat="42.0746737" lon="13.5414764"><ele>718.0</ele><time>2026-03-24T13:39:11.924Z</time></trkpt><trkpt lat="42.074603" lon="13.541306"><ele>718.25</ele><time>2026-03-24T13:39:12.925Z</time></trkpt><trkpt lat="42.0745274" lon="13.5411281"><ele>718.5</ele><time>2026-03-24T13:39:13.924Z</time></trkpt><trkpt lat="42.0744573" lon="13.5409531"><ele>718.75</ele><time>2026-03-24T13:39:14.924Z</time></trkpt><trkpt lat="42.0743915" lon="13.5407799"><ele>719.0</ele><time>2026-03-24T13:39:15.924Z</time></trkpt><trkpt lat="42.074328" lon="13.5406058"><ele>719.0</ele><time>2026-03-24T13:39:16.925Z</time></trkpt><trkpt lat="42.0742672" lon="13.5404324"><ele>719.0</ele><time>2026-03-24T13:39:17.924Z</time></trkpt><trkpt lat="42.0742109" lon="13.5402678"><ele>719.0</ele><time>2026-03-24T13:39:18.925Z</time></trkpt><trkpt lat="42.07416" lon="13.5401159"><ele>719.0</ele><time>2026-03-24T13:39:19.925Z</time></trkpt><trkpt lat="42.0741146" lon="13.539975"><ele>718.6666666666666</ele><time>2026-03-24T13:39:20.924Z</time></trkpt><trkpt lat="42.0740756" lon="13.5398526"><ele>718.3333333333333</ele><time>2026-03-24T13:39:21.925Z</time></trkpt><trkpt lat="42.0740515" lon="13.53975"><ele>718.0</ele><time>2026-03-24T13:39:22.924Z</time></trkpt><trkpt lat="42.0740332" lon="13.5396118"><ele>717.6666666666666</ele><time>2026-03-24T13:39:24.924Z</time></trkpt><trkpt lat="42.0740538" lon="13.5395095"><ele>717.3333333333334</ele><time>2026-03-24T13:39:31.925Z</time></trkpt><trkpt lat="42.0740257" lon="13.5393977"><ele>717.0</ele><time>2026-03-24T13:39:34.924Z</time></trkpt><trkpt lat="42.0739696" lon="13.5393383"><ele>717.0</ele><time>2026-03-24T13:39:35.924Z</time></trkpt><trkpt lat="42.0739167" lon="13.5392709"><ele>717.0</ele><time>2026-03-24T13:39:36.924Z</time></trkpt><trkpt lat="42.0738741" lon="13.5391959"><ele>717.0</ele><time>2026-03-24T13:39:37.925Z</time></trkpt><trkpt lat="42.0738349" lon="13.5391057"><ele>717.0</ele><time>2026-03-24T13:39:38.924Z</time></trkpt><trkpt lat="42.0737938" lon="13.5389976"><ele>717.0</ele><time>2026-03-24T13:39:39.924Z</time></trkpt><trkpt lat="42.0737539" lon="13.5388872"><ele>717.0</ele><time>2026-03-24T13:39:40.924Z</time></trkpt><trkpt lat="42.0737196" lon="13.5387729"><ele>717.2</ele><time>2026-03-24T13:39:41.924Z</time></trkpt><trkpt lat="42.0736877" lon="13.5386657"><ele>717.4000000000001</ele><time>2026-03-24T13:39:42.925Z</time></trkpt><trkpt lat="42.0736378" lon="13.5385584"><ele>717.5999999999999</ele><time>2026-03-24T13:39:43.924Z</time></trkpt><trkpt lat="42.0735778" lon="13.5384412"><ele>717.8</ele><time>2026-03-24T13:39:44.924Z</time></trkpt><trkpt lat="42.0735138" lon="13.538312"><ele>718.0</ele><time>2026-03-24T13:39:45.925Z</time></trkpt><trkpt lat="42.0734567" lon="13.5381646"><ele>718.0</ele><time>2026-03-24T13:39:46.924Z</time></trkpt><trkpt lat="42.0733989" lon="13.5379997"><ele>718.0</ele><time>2026-03-24T13:39:47.924Z</time></trkpt><trkpt lat="42.0733287" lon="13.5378309"><ele>718.0</ele><time>2026-03-24T13:39:48.924Z</time></trkpt><trkpt lat="42.0732496" lon="13.5376625"><ele>718.0</ele><time>2026-03-24T13:39:49.924Z</time></trkpt><trkpt lat="42.0731678" lon="13.53749"><ele>717.0</ele><time>2026-03-24T13:39:50.924Z</time></trkpt><trkpt lat="42.0730899" lon="13.5373106"><ele>716.0</ele><time>2026-03-24T13:39:51.924Z</time></trkpt><trkpt lat="42.0730123" lon="13.5371302"><ele>715.0</ele><time>2026-03-24T13:39:52.925Z</time></trkpt><trkpt lat="42.0729365" lon="13.5369572"><ele>715.0</ele><time>2026-03-24T13:39:53.924Z</time></trkpt><trkpt lat="42.0728618" lon="13.5367853"><ele>715.0</ele><time>2026-03-24T13:39:54.924Z</time></trkpt><trkpt lat="42.0727824" lon="13.5366179"><ele>715.0</ele><time>2026-03-24T13:39:55.925Z</time></trkpt><trkpt lat="42.0727072" lon="13.5364528"><ele>715.0</ele><time>2026-03-24T13:39:56.925Z</time></trkpt><trkpt lat="42.0726296" lon="13.5362943"><ele>715.25</ele><time>2026-03-24T13:39:57.924Z</time></trkpt><trkpt lat="42.0725496" lon="13.5361406"><ele>715.5</ele><time>2026-03-24T13:39:58.925Z</time></trkpt><trkpt lat="42.0724707" lon="13.5359795"><ele>715.75</ele><time>2026-03-24T13:39:59.925Z</time></trkpt><trkpt lat="42.0723976" lon="13.5358266"><ele>716.0</ele><time>2026-03-24T13:40:00.924Z</time></trkpt><trkpt lat="42.0723321" lon="13.5356784"><ele>714.25</ele><time>2026-03-24T13:40:01.924Z</time></trkpt><trkpt lat="42.0722663" lon="13.5355396"><ele>712.5</ele><time>2026-03-24T13:40:02.924Z</time></trkpt><trkpt lat="42.0721992" lon="13.5354025"><ele>710.75</ele><time>2026-03-24T13:40:03.924Z</time></trkpt><trkpt lat="42.0721383" lon="13.5352575"><ele>709.0</ele><time>2026-03-24T13:40:04.924Z</time></trkpt><trkpt lat="42.0720796" lon="13.5351021"><ele>709.0</ele><time>2026-03-24T13:40:05.924Z</time></trkpt><trkpt lat="42.0720258" lon="13.5349382"><ele>709.0</ele><time>2026-03-24T13:40:06.924Z</time></trkpt><trkpt lat="42.0719692" lon="13.5347623"><ele>709.0</ele><time>2026-03-24T13:40:07.924Z</time></trkpt><trkpt lat="42.0719033" lon="13.5345849"><ele>709.0</ele><time>2026-03-24T13:40:08.924Z</time></trkpt><trkpt lat="42.0718275" lon="13.5344019"><ele>709.0</ele><time>2026-03-24T13:40:09.924Z</time></trkpt><trkpt lat="42.0717556" lon="13.5342149"><ele>709.0</ele><time>2026-03-24T13:40:10.924Z</time></trkpt><trkpt lat="42.0716843" lon="13.5340267"><ele>709.0</ele><time>2026-03-24T13:40:11.925Z</time></trkpt><trkpt lat="42.0716138" lon="13.5338535"><ele>709.0</ele><time>2026-03-24T13:40:12.924Z</time></trkpt><trkpt lat="42.0715485" lon="13.5336873"><ele>709.0</ele><time>2026-03-24T13:40:13.924Z</time></trkpt><trkpt lat="42.0714811" lon="13.5335101"><ele>709.0</ele><time>2026-03-24T13:40:14.924Z</time></trkpt><trkpt lat="42.0714153" lon="13.5333274"><ele>709.0</ele><time>2026-03-24T13:40:15.924Z</time></trkpt><trkpt lat="42.071341" lon="13.5331434"><ele>709.0</ele><time>2026-03-24T13:40:16.925Z</time></trkpt><trkpt lat="42.0712689" lon="13.5329632"><ele>709.0</ele><time>2026-03-24T13:40:17.924Z</time></trkpt><trkpt lat="42.0712031" lon="13.5327907"><ele>709.0</ele><time>2026-03-24T13:40:18.924Z</time></trkpt><trkpt lat="42.0711353" lon="13.5326187"><ele>709.0</ele><time>2026-03-24T13:40:19.924Z</time></trkpt><trkpt lat="42.0710681" lon="13.5324421"><ele>708.75</ele><time>2026-03-24T13:40:20.925Z</time></trkpt><trkpt lat="42.0710029" lon="13.5322715"><ele>708.5</ele><time>2026-03-24T13:40:21.924Z</time></trkpt><trkpt lat="42.0709461" lon="13.5321096"><ele>708.25</ele><time>2026-03-24T13:40:22.925Z</time></trkpt><trkpt lat="42.070891" lon="13.5319462"><ele>708.0</ele><time>2026-03-24T13:40:23.924Z</time></trkpt><trkpt lat="42.0708383" lon="13.5317881"><ele>707.75</ele><time>2026-03-24T13:40:24.925Z</time></trkpt><trkpt lat="42.0707901" lon="13.531636"><ele>707.5</ele><time>2026-03-24T13:40:25.924Z</time></trkpt><trkpt lat="42.0707398" lon="13.5314812"><ele>707.25</ele><time>2026-03-24T13:40:26.925Z</time></trkpt><trkpt lat="42.0706933" lon="13.5313205"><ele>707.0</ele><time>2026-03-24T13:40:27.925Z</time></trkpt><trkpt lat="42.0706478" lon="13.5311578"><ele>706.0</ele><time>2026-03-24T13:40:28.925Z</time></trkpt><trkpt lat="42.0706055" lon="13.531009"><ele>705.0</ele><time>2026-03-24T13:40:29.925Z</time></trkpt><trkpt lat="42.0705552" lon="13.5308614"><ele>704.0</ele><time>2026-03-24T13:40:30.924Z</time></trkpt><trkpt lat="42.0705025" lon="13.5307155"><ele>703.0</ele><time>2026-03-24T13:40:31.924Z</time></trkpt><trkpt lat="42.0704523" lon="13.5305749"><ele>703.0</ele><time>2026-03-24T13:40:32.925Z</time></trkpt><trkpt lat="42.0704018" lon="13.5304383"><ele>703.0</ele><time>2026-03-24T13:40:33.925Z</time></trkpt><trkpt lat="42.070349" lon="13.5302929"><ele>703.0</ele><time>2026-03-24T13:40:34.925Z</time></trkpt><trkpt lat="42.0702873" lon="13.5301428"><ele>703.0</ele><time>2026-03-24T13:40:35.924Z</time></trkpt><trkpt lat="42.0702169" lon="13.5299884"><ele>703.0</ele><time>2026-03-24T13:40:36.924Z</time></trkpt><trkpt lat="42.0701501" lon="13.5298438"><ele>703.0</ele><time>2026-03-24T13:40:37.925Z</time></trkpt><trkpt lat="42.0700862" lon="13.5297056"><ele>703.0</ele><time>2026-03-24T13:40:38.924Z</time></trkpt><trkpt lat="42.0700266" lon="13.5295666"><ele>703.0</ele><time>2026-03-24T13:40:39.925Z</time></trkpt><trkpt lat="42.0699716" lon="13.5294338"><ele>702.4</ele><time>2026-03-24T13:40:40.924Z</time></trkpt><trkpt lat="42.0699261" lon="13.5293107"><ele>701.8</ele><time>2026-03-24T13:40:41.924Z</time></trkpt><trkpt lat="42.0698743" lon="13.5291877"><ele>701.2</ele><time>2026-03-24T13:40:42.924Z</time></trkpt><trkpt lat="42.0698202" lon="13.5290635"><ele>700.6</ele><time>2026-03-24T13:40:43.925Z</time></trkpt><trkpt lat="42.0697637" lon="13.5289349"><ele>700.0</ele><time>2026-03-24T13:40:44.925Z</time></trkpt><trkpt lat="42.0697032" lon="13.5288053"><ele>700.4</ele><time>2026-03-24T13:40:45.924Z</time></trkpt><trkpt lat="42.0696424" lon="13.5286864"><ele>700.8</ele><time>2026-03-24T13:40:46.925Z</time></trkpt><trkpt lat="42.0695845" lon="13.5285629"><ele>701.2</ele><time>2026-03-24T13:40:47.925Z</time></trkpt><trkpt lat="42.0695295" lon="13.5284368"><ele>701.6</ele><time>2026-03-24T13:40:48.924Z</time></trkpt><trkpt lat="42.0694822" lon="13.5282919"><ele>702.0</ele><time>2026-03-24T13:40:49.924Z</time></trkpt><trkpt lat="42.0694254" lon="13.5281391"><ele>702.0</ele><time>2026-03-24T13:40:50.924Z</time></trkpt><trkpt lat="42.0693627" lon="13.527985"><ele>702.0</ele><time>2026-03-24T13:40:51.924Z</time></trkpt><trkpt lat="42.0692908" lon="13.527831"><ele>702.0</ele><time>2026-03-24T13:40:52.924Z</time></trkpt><trkpt lat="42.0692188" lon="13.5276676"><ele>702.0</ele><time>2026-03-24T13:40:53.925Z</time></trkpt><trkpt lat="42.0691533" lon="13.5274991"><ele>701.25</ele><time>2026-03-24T13:40:54.924Z</time></trkpt><trkpt lat="42.0690938" lon="13.5273388"><ele>700.5</ele><time>2026-03-24T13:40:55.924Z</time></trkpt><trkpt lat="42.0690294" lon="13.5271722"><ele>699.75</ele><time>2026-03-24T13:40:56.924Z</time></trkpt><trkpt lat="42.0689713" lon="13.5270079"><ele>699.0</ele><time>2026-03-24T13:40:57.924Z</time></trkpt><trkpt lat="42.0689121" lon="13.5268524"><ele>699.0</ele><time>2026-03-24T13:40:58.924Z</time></trkpt><trkpt lat="42.0688489" lon="13.5266907"><ele>699.0</ele><time>2026-03-24T13:40:59.925Z</time></trkpt><trkpt lat="42.0687938" lon="13.5265327"><ele>699.0</ele><time>2026-03-24T13:41:00.924Z</time></trkpt><trkpt lat="42.068733" lon="13.5263658"><ele>699.0</ele><time>2026-03-24T13:41:01.925Z</time></trkpt><trkpt lat="42.0686797" lon="13.5262157"><ele>699.0</ele><time>2026-03-24T13:41:02.924Z</time></trkpt><trkpt lat="42.0686257" lon="13.5260684"><ele>699.0</ele><time>2026-03-24T13:41:03.924Z</time></trkpt><trkpt lat="42.0685778" lon="13.5259486"><ele>699.0</ele><time>2026-03-24T13:41:04.925Z</time></trkpt><trkpt lat="42.0685406" lon="13.5258339"><ele>699.0</ele><time>2026-03-24T13:41:05.924Z</time></trkpt><trkpt lat="42.0685093" lon="13.525724"><ele>699.0</ele><time>2026-03-24T13:41:06.925Z</time></trkpt><trkpt lat="42.0684877" lon="13.525624"><ele>699.0</ele><time>2026-03-24T13:41:07.924Z</time></trkpt><trkpt lat="42.0684769" lon="13.5255339"><ele>699.0</ele><time>2026-03-24T13:41:08.924Z</time></trkpt><trkpt lat="42.0684811" lon="13.5254013"><ele>699.0</ele><time>2026-03-24T13:41:10.925Z</time></trkpt><trkpt lat="42.0684537" lon="13.5252917"><ele>699.0</ele><time>2026-03-24T13:41:12.925Z</time></trkpt><trkpt lat="42.0684122" lon="13.5252156"><ele>699.0</ele><time>2026-03-24T13:41:13.925Z</time></trkpt><trkpt lat="42.0683541" lon="13.5251071"><ele>699.0</ele><time>2026-03-24T13:41:14.925Z</time></trkpt><trkpt lat="42.0682918" lon="13.5249669"><ele>698.75</ele><time>2026-03-24T13:41:15.924Z</time></trkpt><trkpt lat="42.0682258" lon="13.5248181"><ele>698.5</ele><time>2026-03-24T13:41:16.925Z</time></trkpt><trkpt lat="42.0681574" lon="13.5246618"><ele>698.25</ele><time>2026-03-24T13:41:17.925Z</time></trkpt><trkpt lat="42.0680859" lon="13.5244917"><ele>698.0</ele><time>2026-03-24T13:41:18.925Z</time></trkpt><trkpt lat="42.068012" lon="13.5243132"><ele>698.0</ele><time>2026-03-24T13:41:19.925Z</time></trkpt><trkpt lat="42.0679309" lon="13.524138"><ele>698.0</ele><time>2026-03-24T13:41:20.925Z</time></trkpt><trkpt lat="42.0678581" lon="13.5239518"><ele>698.0</ele><time>2026-03-24T13:41:21.925Z</time></trkpt><trkpt lat="42.0677813" lon="13.523771"><ele>698.0</ele><time>2026-03-24T13:41:22.925Z</time></trkpt><trkpt lat="42.0677047" lon="13.5235857"><ele>698.0</ele><time>2026-03-24T13:41:23.924Z</time></trkpt><trkpt lat="42.0676272" lon="13.5234082"><ele>698.0</ele><time>2026-03-24T13:41:24.924Z</time></trkpt><trkpt lat="42.0675562" lon="13.5232407"><ele>698.0</ele><time>2026-03-24T13:41:25.924Z</time></trkpt><trkpt lat="42.067479" lon="13.523084"><ele>698.0</ele><time>2026-03-24T13:41:26.925Z</time></trkpt><trkpt lat="42.0673955" lon="13.5229288"><ele>698.0</ele><time>2026-03-24T13:41:27.924Z</time></trkpt><trkpt lat="42.0672981" lon="13.5227675"><ele>698.0</ele><time>2026-03-24T13:41:28.925Z</time></trkpt><trkpt lat="42.0671947" lon="13.5225946"><ele>696.3333333333333</ele><time>2026-03-24T13:41:29.924Z</time></trkpt><trkpt lat="42.0670891" lon="13.5224106"><ele>694.6666666666666</ele><time>2026-03-24T13:41:30.924Z</time></trkpt><trkpt lat="42.0669852" lon="13.5222448"><ele>693.0</ele><time>2026-03-24T13:41:31.924Z</time></trkpt><trkpt lat="42.0668813" lon="13.5220912"><ele>693.25</ele><time>2026-03-24T13:41:32.925Z</time></trkpt><trkpt lat="42.0667892" lon="13.5219429"><ele>693.5</ele><time>2026-03-24T13:41:33.925Z</time></trkpt><trkpt lat="42.0667067" lon="13.5217967"><ele>693.75</ele><time>2026-03-24T13:41:34.924Z</time></trkpt><trkpt lat="42.0666352" lon="13.5216384"><ele>694.0</ele><time>2026-03-24T13:41:35.924Z</time></trkpt><trkpt lat="42.0665716" lon="13.5214611"><ele>694.0</ele><time>2026-03-24T13:41:36.924Z</time></trkpt><trkpt lat="42.0665292" lon="13.5212681"><ele>694.0</ele><time>2026-03-24T13:41:37.925Z</time></trkpt><trkpt lat="42.0664814" lon="13.5210646"><ele>694.0</ele><time>2026-03-24T13:41:38.925Z</time></trkpt><trkpt lat="42.0664265" lon="13.5208543"><ele>694.0</ele><time>2026-03-24T13:41:39.924Z</time></trkpt><trkpt lat="42.0663587" lon="13.5206378"><ele>694.0</ele><time>2026-03-24T13:41:40.924Z</time></trkpt><trkpt lat="42.0662858" lon="13.5204303"><ele>694.0</ele><time>2026-03-24T13:41:41.924Z</time></trkpt><trkpt lat="42.0662114" lon="13.5202359"><ele>693.0</ele><time>2026-03-24T13:41:42.924Z</time></trkpt><trkpt lat="42.0661334" lon="13.5200581"><ele>692.0</ele><time>2026-03-24T13:41:43.924Z</time></trkpt><trkpt lat="42.0660588" lon="13.5198953"><ele>691.0</ele><time>2026-03-24T13:41:44.924Z</time></trkpt><trkpt lat="42.0659869" lon="13.5197443"><ele>690.0</ele><time>2026-03-24T13:41:45.925Z</time></trkpt><trkpt lat="42.0659227" lon="13.5196067"><ele>690.2</ele><time>2026-03-24T13:41:46.924Z</time></trkpt><trkpt lat="42.0658729" lon="13.5194893"><ele>690.4</ele><time>2026-03-24T13:41:47.925Z</time></trkpt><trkpt lat="42.0658321" lon="13.5193808"><ele>690.5999999999999</ele><time>2026-03-24T13:41:48.924Z</time></trkpt><trkpt lat="42.0658152" lon="13.5192722"><ele>690.8</ele><time>2026-03-24T13:41:49.925Z</time></trkpt><trkpt lat="42.0658099" lon="13.5191557"><ele>691.0</ele><time>2026-03-24T13:41:50.925Z</time></trkpt><trkpt lat="42.0658228" lon="13.5190262"><ele>691.0</ele><time>2026-03-24T13:41:51.924Z</time></trkpt><trkpt lat="42.0658431" lon="13.5189015"><ele>691.0</ele><time>2026-03-24T13:41:52.924Z</time></trkpt><trkpt lat="42.0658546" lon="13.5187877"><ele>691.0</ele><time>2026-03-24T13:41:53.924Z</time></trkpt><trkpt lat="42.0658652" lon="13.5186966"><ele>691.0</ele><time>2026-03-24T13:41:54.925Z</time></trkpt><trkpt lat="42.0658643" lon="13.518573"><ele>691.0</ele><time>2026-03-24T13:41:56.924Z</time></trkpt><trkpt lat="42.0658628" lon="13.5184877"><ele>691.0</ele><time>2026-03-24T13:41:59.924Z</time></trkpt><trkpt lat="42.0659732" lon="13.5184567"><ele>691.1999999999999</ele><time>2026-03-24T13:42:03.924Z</time></trkpt><trkpt lat="42.0660462" lon="13.5184661"><ele>691.4</ele><time>2026-03-24T13:42:04.924Z</time></trkpt><trkpt lat="42.0661317" lon="13.5184848"><ele>691.6</ele><time>2026-03-24T13:42:05.924Z</time></trkpt><trkpt lat="42.0662405" lon="13.5184972"><ele>691.8</ele><time>2026-03-24T13:42:06.924Z</time></trkpt><trkpt lat="42.0663636" lon="13.5185041"><ele>692.0</ele><time>2026-03-24T13:42:07.925Z</time></trkpt><trkpt lat="42.0664977" lon="13.5185211"><ele>692.0</ele><time>2026-03-24T13:42:08.924Z</time></trkpt><trkpt lat="42.0666379" lon="13.5185334"><ele>692.0</ele><time>2026-03-24T13:42:09.924Z</time></trkpt><trkpt lat="42.0667766" lon="13.5185462"><ele>692.0</ele><time>2026-03-24T13:42:10.924Z</time></trkpt><trkpt lat="42.0669177" lon="13.5185613"><ele>692.0</ele><time>2026-03-24T13:42:11.924Z</time></trkpt><trkpt lat="42.067066" lon="13.5185779"><ele>692.0</ele><time>2026-03-24T13:42:12.924Z</time></trkpt><trkpt lat="42.0672253" lon="13.5185987"><ele>692.0</ele><time>2026-03-24T13:42:13.924Z</time></trkpt><trkpt lat="42.0673967" lon="13.518619"><ele>692.0</ele><time>2026-03-24T13:42:14.924Z</time></trkpt><trkpt lat="42.0675728" lon="13.5186368"><ele>693.6666666666666</ele><time>2026-03-24T13:42:15.924Z</time></trkpt><trkpt lat="42.0677569" lon="13.5186516"><ele>695.3333333333334</ele><time>2026-03-24T13:42:16.924Z</time></trkpt><trkpt lat="42.0679468" lon="13.5186684"><ele>697.0</ele><time>2026-03-24T13:42:17.924Z</time></trkpt><trkpt lat="42.0681401" lon="13.5186891"><ele>697.3333333333334</ele><time>2026-03-24T13:42:18.924Z</time></trkpt><trkpt lat="42.0683304" lon="13.5187175"><ele>697.6666666666666</ele><time>2026-03-24T13:42:19.924Z</time></trkpt><trkpt lat="42.0685177" lon="13.5187493"><ele>698.0</ele><time>2026-03-24T13:42:20.925Z</time></trkpt><trkpt lat="42.068702" lon="13.5187807"><ele>698.3333333333333</ele><time>2026-03-24T13:42:21.924Z</time></trkpt><trkpt lat="42.0688889" lon="13.5188123"><ele>698.6666666666666</ele><time>2026-03-24T13:42:22.925Z</time></trkpt><trkpt lat="42.0690726" lon="13.5188404"><ele>699.0</ele><time>2026-03-24T13:42:23.924Z</time></trkpt><trkpt lat="42.0692547" lon="13.5188692"><ele>699.3333333333334</ele><time>2026-03-24T13:42:24.924Z</time></trkpt><trkpt lat="42.0694316" lon="13.5188984"><ele>699.6666666666667</ele><time>2026-03-24T13:42:25.924Z</time></trkpt><trkpt lat="42.0696126" lon="13.5189249"><ele>700.0</ele><time>2026-03-24T13:42:26.925Z</time></trkpt><trkpt lat="42.0697919" lon="13.5189508"><ele>700.3333333333334</ele><time>2026-03-24T13:42:27.925Z</time></trkpt><trkpt lat="42.069972" lon="13.5189741"><ele>700.6666666666666</ele><time>2026-03-24T13:42:28.925Z</time></trkpt><trkpt lat="42.0701508" lon="13.5189909"><ele>701.0</ele><time>2026-03-24T13:42:29.924Z</time></trkpt><trkpt lat="42.0703355" lon="13.5189974"><ele>701.0</ele><time>2026-03-24T13:42:30.925Z</time></trkpt><trkpt lat="42.0705182" lon="13.5190028"><ele>701.0</ele><time>2026-03-24T13:42:31.924Z</time></trkpt><trkpt lat="42.0707036" lon="13.5190135"><ele>701.0</ele><time>2026-03-24T13:42:32.925Z</time></trkpt><trkpt lat="42.0708892" lon="13.5190205"><ele>702.0</ele><time>2026-03-24T13:42:33.924Z</time></trkpt><trkpt lat="42.0710731" lon="13.519025"><ele>703.0</ele><time>2026-03-24T13:42:34.924Z</time></trkpt><trkpt lat="42.0712585" lon="13.5190344"><ele>704.0</ele><time>2026-03-24T13:42:35.925Z</time></trkpt><trkpt lat="42.0714412" lon="13.5190536"><ele>704.3333333333333</ele><time>2026-03-24T13:42:36.925Z</time></trkpt><trkpt lat="42.0716199" lon="13.5190751"><ele>704.6666666666666</ele><time>2026-03-24T13:42:37.925Z</time></trkpt><trkpt lat="42.0717851" lon="13.5191013"><ele>705.0</ele><time>2026-03-24T13:42:38.924Z</time></trkpt><trkpt lat="42.0719405" lon="13.5191283"><ele>705.0</ele><time>2026-03-24T13:42:39.924Z</time></trkpt><trkpt lat="42.0720928" lon="13.5191452"><ele>705.0</ele><time>2026-03-24T13:42:40.924Z</time></trkpt><trkpt lat="42.0722446" lon="13.5191762"><ele>705.0</ele><time>2026-03-24T13:42:41.925Z</time></trkpt><trkpt lat="42.0723905" lon="13.5192138"><ele>706.0</ele><time>2026-03-24T13:42:42.924Z</time></trkpt><trkpt lat="42.0725305" lon="13.5192544"><ele>707.0</ele><time>2026-03-24T13:42:43.924Z</time></trkpt><trkpt lat="42.0726644" lon="13.5192989"><ele>708.0</ele><time>2026-03-24T13:42:44.924Z</time></trkpt><trkpt lat="42.0727879" lon="13.5193375"><ele>709.0</ele><time>2026-03-24T13:42:45.924Z</time></trkpt><trkpt lat="42.0728974" lon="13.5193615"><ele>709.0</ele><time>2026-03-24T13:42:46.924Z</time></trkpt><trkpt lat="42.0729923" lon="13.5193749"><ele>709.0</ele><time>2026-03-24T13:42:47.925Z</time></trkpt><trkpt lat="42.0730703" lon="13.5193761"><ele>709.0</ele><time>2026-03-24T13:42:48.924Z</time></trkpt><trkpt lat="42.0731524" lon="13.5193772"><ele>709.0</ele><time>2026-03-24T13:42:49.924Z</time></trkpt><trkpt lat="42.0732377" lon="13.5193711"><ele>709.0</ele><time>2026-03-24T13:42:50.924Z</time></trkpt><trkpt lat="42.073334" lon="13.5193628"><ele>709.0</ele><time>2026-03-24T13:42:51.924Z</time></trkpt><trkpt lat="42.0734472" lon="13.5193553"><ele>709.25</ele><time>2026-03-24T13:42:52.925Z</time></trkpt><trkpt lat="42.0735654" lon="13.5193587"><ele>709.5</ele><time>2026-03-24T13:42:53.925Z</time></trkpt><trkpt lat="42.0736891" lon="13.5193634"><ele>709.75</ele><time>2026-03-24T13:42:54.925Z</time></trkpt><trkpt lat="42.0738044" lon="13.5193688"><ele>710.0</ele><time>2026-03-24T13:42:55.924Z</time></trkpt><trkpt lat="42.0739012" lon="13.5193749"><ele>710.0</ele><time>2026-03-24T13:42:56.925Z</time></trkpt><trkpt lat="42.0739799" lon="13.519382"><ele>710.0</ele><time>2026-03-24T13:42:57.925Z</time></trkpt><trkpt lat="42.0740544" lon="13.5193855"><ele>710.0</ele><time>2026-03-24T13:42:58.924Z</time></trkpt><trkpt lat="42.0741275" lon="13.5193878"><ele>710.0</ele><time>2026-03-24T13:42:59.925Z</time></trkpt><trkpt lat="42.0742055" lon="13.519394"><ele>710.0</ele><time>2026-03-24T13:43:00.924Z</time></trkpt><trkpt lat="42.0742825" lon="13.5193939"><ele>710.0</ele><time>2026-03-24T13:43:01.925Z</time></trkpt><trkpt lat="42.0743545" lon="13.5193917"><ele>710.4</ele><time>2026-03-24T13:43:02.924Z</time></trkpt><trkpt lat="42.0744367" lon="13.5193424"><ele>710.8</ele><time>2026-03-24T13:43:04.924Z</time></trkpt><trkpt lat="42.0744365" lon="13.519247"><ele>711.2</ele><time>2026-03-24T13:43:06.924Z</time></trkpt><trkpt lat="42.0743773" lon="13.5190673"><ele>711.6</ele><time>2026-03-24T13:43:08.925Z</time></trkpt><trkpt lat="42.0743251" lon="13.5189452"><ele>712.0</ele><time>2026-03-24T13:43:09.925Z</time></trkpt><trkpt lat="42.0742664" lon="13.5188017"><ele>711.0</ele><time>2026-03-24T13:43:10.924Z</time></trkpt><trkpt lat="42.0742021" lon="13.5186387"><ele>710.0</ele><time>2026-03-24T13:43:11.924Z</time></trkpt><trkpt lat="42.0741317" lon="13.518456"><ele>709.0</ele><time>2026-03-24T13:43:12.925Z</time></trkpt><trkpt lat="42.0740534" lon="13.5182616"><ele>709.0</ele><time>2026-03-24T13:43:13.924Z</time></trkpt><trkpt lat="42.073984" lon="13.5180732"><ele>709.0</ele><time>2026-03-24T13:43:14.925Z</time></trkpt><trkpt lat="42.0739184" lon="13.5178761"><ele>709.0</ele><time>2026-03-24T13:43:15.924Z</time></trkpt><trkpt lat="42.0738462" lon="13.5176803"><ele>708.75</ele><time>2026-03-24T13:43:16.925Z</time></trkpt><trkpt lat="42.0737764" lon="13.5174994"><ele>708.5</ele><time>2026-03-24T13:43:17.924Z</time></trkpt><trkpt lat="42.0737109" lon="13.5173259"><ele>708.25</ele><time>2026-03-24T13:43:18.924Z</time></trkpt><trkpt lat="42.0736537" lon="13.5171534"><ele>708.0</ele><time>2026-03-24T13:43:19.925Z</time></trkpt><trkpt lat="42.0736035" lon="13.5169747"><ele>707.75</ele><time>2026-03-24T13:43:20.925Z</time></trkpt><trkpt lat="42.0735539" lon="13.5167991"><ele>707.5</ele><time>2026-03-24T13:43:21.925Z</time></trkpt><trkpt lat="42.0734971" lon="13.516627"><ele>707.25</ele><time>2026-03-24T13:43:22.924Z</time></trkpt><trkpt lat="42.0734421" lon="13.5164667"><ele>707.0</ele><time>2026-03-24T13:43:23.924Z</time></trkpt><trkpt lat="42.0733811" lon="13.5163271"><ele>707.0</ele><time>2026-03-24T13:43:24.925Z</time></trkpt><trkpt lat="42.0733111" lon="13.5161891"><ele>707.0</ele><time>2026-03-24T13:43:25.925Z</time></trkpt><trkpt lat="42.0732189" lon="13.5160506"><ele>707.0</ele><time>2026-03-24T13:43:26.924Z</time></trkpt><trkpt lat="42.0731244" lon="13.5159125"><ele>707.0</ele><time>2026-03-24T13:43:27.924Z</time></trkpt><trkpt lat="42.0730369" lon="13.5157753"><ele>706.0</ele><time>2026-03-24T13:43:28.925Z</time></trkpt><trkpt lat="42.0729479" lon="13.5156132"><ele>705.0</ele><time>2026-03-24T13:43:29.925Z</time></trkpt><trkpt lat="42.0728573" lon="13.515427"><ele>704.0</ele><time>2026-03-24T13:43:30.924Z</time></trkpt><trkpt lat="42.0727653" lon="13.5152408"><ele>704.0</ele><time>2026-03-24T13:43:31.924Z</time></trkpt><trkpt lat="42.0726804" lon="13.5150661"><ele>704.0</ele><time>2026-03-24T13:43:32.924Z</time></trkpt><trkpt lat="42.0726011" lon="13.514905"><ele>704.0</ele><time>2026-03-24T13:43:33.925Z</time></trkpt><trkpt lat="42.0725251" lon="13.5147522"><ele>704.0</ele><time>2026-03-24T13:43:34.924Z</time></trkpt><trkpt lat="42.072452" lon="13.5146061"><ele>703.5</ele><time>2026-03-24T13:43:35.925Z</time></trkpt><trkpt lat="42.0723809" lon="13.5144697"><ele>703.0</ele><time>2026-03-24T13:43:36.925Z</time></trkpt><trkpt lat="42.0723069" lon="13.5143425"><ele>702.5</ele><time>2026-03-24T13:43:37.924Z</time></trkpt><trkpt lat="42.0722223" lon="13.5142227"><ele>702.0</ele><time>2026-03-24T13:43:38.925Z</time></trkpt><trkpt lat="42.0721337" lon="13.5141144"><ele>702.0</ele><time>2026-03-24T13:43:39.925Z</time></trkpt><trkpt lat="42.0720469" lon="13.5140187"><ele>702.0</ele><time>2026-03-24T13:43:40.924Z</time></trkpt><trkpt lat="42.071962" lon="13.513927"><ele>702.0</ele><time>2026-03-24T13:43:41.924Z</time></trkpt><trkpt lat="42.0718861" lon="13.5138334"><ele>702.0</ele><time>2026-03-24T13:43:42.924Z</time></trkpt><trkpt lat="42.0718218" lon="13.5137452"><ele>702.0</ele><time>2026-03-24T13:43:43.924Z</time></trkpt><trkpt lat="42.0717713" lon="13.5136498"><ele>702.0</ele><time>2026-03-24T13:43:44.924Z</time></trkpt><trkpt lat="42.0717228" lon="13.5135472"><ele>702.0</ele><time>2026-03-24T13:43:45.924Z</time></trkpt><trkpt lat="42.0716965" lon="13.5134086"><ele>702.0</ele><time>2026-03-24T13:43:46.924Z</time></trkpt><trkpt lat="42.0716693" lon="13.5132801"><ele>702.0</ele><time>2026-03-24T13:43:47.924Z</time></trkpt><trkpt lat="42.0716449" lon="13.5131601"><ele>702.0</ele><time>2026-03-24T13:43:48.924Z</time></trkpt><trkpt lat="42.0716263" lon="13.5130594"><ele>702.0</ele><time>2026-03-24T13:43:49.924Z</time></trkpt><trkpt lat="42.0716108" lon="13.5129737"><ele>702.0</ele><time>2026-03-24T13:43:50.924Z</time></trkpt><trkpt lat="42.0715994" lon="13.5128061"><ele>702.0</ele><time>2026-03-24T13:43:52.925Z</time></trkpt><trkpt lat="42.071604" lon="13.5126985"><ele>702.0</ele><time>2026-03-24T13:43:53.925Z</time></trkpt><trkpt lat="42.0716051" lon="13.5125818"><ele>702.0</ele><time>2026-03-24T13:43:54.924Z</time></trkpt><trkpt lat="42.071608" lon="13.5124678"><ele>702.0</ele><time>2026-03-24T13:43:55.924Z</time></trkpt><trkpt lat="42.071601" lon="13.5123639"><ele>701.6666666666666</ele><time>2026-03-24T13:43:56.925Z</time></trkpt><trkpt lat="42.0715814" lon="13.5122663"><ele>701.3333333333334</ele><time>2026-03-24T13:43:57.924Z</time></trkpt><trkpt lat="42.0715542" lon="13.5121566"><ele>701.0</ele><time>2026-03-24T13:43:58.924Z</time></trkpt><trkpt lat="42.0715199" lon="13.5120378"><ele>700.6666666666667</ele><time>2026-03-24T13:43:59.924Z</time></trkpt><trkpt lat="42.0714805" lon="13.5119122"><ele>700.3333333333334</ele><time>2026-03-24T13:44:00.924Z</time></trkpt><trkpt lat="42.0714462" lon="13.5117984"><ele>700.0</ele><time>2026-03-24T13:44:01.924Z</time></trkpt><trkpt lat="42.0714122" lon="13.5116925"><ele>699.8</ele><time>2026-03-24T13:44:02.925Z</time></trkpt><trkpt lat="42.0713797" lon="13.5115902"><ele>699.6</ele><time>2026-03-24T13:44:03.924Z</time></trkpt><trkpt lat="42.0713369" lon="13.5114828"><ele>699.4000000000001</ele><time>2026-03-24T13:44:04.925Z</time></trkpt><trkpt lat="42.0712923" lon="13.511367"><ele>699.2</ele><time>2026-03-24T13:44:05.924Z</time></trkpt><trkpt lat="42.0712488" lon="13.5112427"><ele>699.0</ele><time>2026-03-24T13:44:06.925Z</time></trkpt><trkpt lat="42.0712079" lon="13.5111131"><ele>699.0</ele><time>2026-03-24T13:44:07.924Z</time></trkpt><trkpt lat="42.0711701" lon="13.5109875"><ele>699.0</ele><time>2026-03-24T13:44:08.924Z</time></trkpt><trkpt lat="42.0711308" lon="13.5108662"><ele>699.0</ele><time>2026-03-24T13:44:09.925Z</time></trkpt><trkpt lat="42.0710894" lon="13.51074"><ele>699.0</ele><time>2026-03-24T13:44:10.924Z</time></trkpt><trkpt lat="42.0710373" lon="13.5106252"><ele>699.0</ele><time>2026-03-24T13:44:11.924Z</time></trkpt><trkpt lat="42.0709892" lon="13.5105256"><ele>699.0</ele><time>2026-03-24T13:44:12.924Z</time></trkpt><trkpt lat="42.0709338" lon="13.5104457"><ele>699.0</ele><time>2026-03-24T13:44:13.924Z</time></trkpt><trkpt lat="42.0708898" lon="13.5103774"><ele>699.0</ele><time>2026-03-24T13:44:14.925Z</time></trkpt><trkpt lat="42.0708189" lon="13.5102578"><ele>699.0</ele><time>2026-03-24T13:44:16.924Z</time></trkpt><trkpt lat="42.0707499" lon="13.5101183"><ele>699.0</ele><time>2026-03-24T13:44:18.925Z</time></trkpt><trkpt lat="42.0707179" lon="13.5100423"><ele>698.8333333333334</ele><time>2026-03-24T13:44:19.925Z</time></trkpt><trkpt lat="42.0706665" lon="13.5099055"><ele>698.6666666666666</ele><time>2026-03-24T13:44:21.924Z</time></trkpt><trkpt lat="42.0706032" lon="13.5097667"><ele>698.5</ele><time>2026-03-24T13:44:23.924Z</time></trkpt><trkpt lat="42.0705666" lon="13.5096935"><ele>698.3333333333333</ele><time>2026-03-24T13:44:24.924Z</time></trkpt><trkpt lat="42.0705338" lon="13.5096144"><ele>698.1666666666666</ele><time>2026-03-24T13:44:25.924Z</time></trkpt><trkpt lat="42.0704962" lon="13.5095236"><ele>698.0</ele><time>2026-03-24T13:44:26.925Z</time></trkpt><trkpt lat="42.0704616" lon="13.5094343"><ele>698.0</ele><time>2026-03-24T13:44:27.924Z</time></trkpt><trkpt lat="42.0704317" lon="13.5093562"><ele>698.0</ele><time>2026-03-24T13:44:28.924Z</time></trkpt><trkpt lat="42.0703851" lon="13.5092267"><ele>698.0</ele><time>2026-03-24T13:44:30.924Z</time></trkpt><trkpt lat="42.0703419" lon="13.5091235"><ele>698.0</ele><time>2026-03-24T13:44:32.924Z</time></trkpt><trkpt lat="42.0702908" lon="13.5090192"><ele>698.0</ele><time>2026-03-24T13:44:34.924Z</time></trkpt><trkpt lat="42.0702327" lon="13.5088784"><ele>698.0</ele><time>2026-03-24T13:44:36.924Z</time></trkpt><trkpt lat="42.0701926" lon="13.5087827"><ele>698.0</ele><time>2026-03-24T13:44:37.924Z</time></trkpt><trkpt lat="42.070144" lon="13.5086634"><ele>698.0</ele><time>2026-03-24T13:44:38.924Z</time></trkpt><trkpt lat="42.0700829" lon="13.5085212"><ele>698.0</ele><time>2026-03-24T13:44:39.925Z</time></trkpt><trkpt lat="42.0700201" lon="13.5083689"><ele>698.0</ele><time>2026-03-24T13:44:40.925Z</time></trkpt><trkpt lat="42.0699526" lon="13.508236"><ele>697.5999999999999</ele><time>2026-03-24T13:44:41.925Z</time></trkpt><trkpt lat="42.0698962" lon="13.5081119"><ele>697.1999999999999</ele><time>2026-03-24T13:44:42.925Z</time></trkpt><trkpt lat="42.0698326" lon="13.5079888"><ele>696.8</ele><time>2026-03-24T13:44:43.924Z</time></trkpt><trkpt lat="42.0697658" lon="13.5078646"><ele>696.4</ele><time>2026-03-24T13:44:44.924Z</time></trkpt><trkpt lat="42.0697062" lon="13.5077486"><ele>696.0</ele><time>2026-03-24T13:44:45.925Z</time></trkpt><trkpt lat="42.0696596" lon="13.5076443"><ele>695.4</ele><time>2026-03-24T13:44:46.924Z</time></trkpt><trkpt lat="42.0696132" lon="13.5075447"><ele>694.8</ele><time>2026-03-24T13:44:47.924Z</time></trkpt><trkpt lat="42.0695659" lon="13.5074396"><ele>694.1999999999999</ele><time>2026-03-24T13:44:48.924Z</time></trkpt><trkpt lat="42.0695164" lon="13.5073242"><ele>693.5999999999999</ele><time>2026-03-24T13:44:49.924Z</time></trkpt><trkpt lat="42.0694519" lon="13.507191"><ele>693.0</ele><time>2026-03-24T13:44:50.924Z</time></trkpt><trkpt lat="42.0693973" lon="13.5070649"><ele>693.0</ele><time>2026-03-24T13:44:51.924Z</time></trkpt><trkpt lat="42.0693406" lon="13.5069485"><ele>693.0</ele><time>2026-03-24T13:44:52.924Z</time></trkpt><trkpt lat="42.0692941" lon="13.5068242"><ele>693.0</ele><time>2026-03-24T13:44:53.924Z</time></trkpt><trkpt lat="42.0692491" lon="13.5066923"><ele>693.0</ele><time>2026-03-24T13:44:54.924Z</time></trkpt><trkpt lat="42.0692119" lon="13.5065729"><ele>693.0</ele><time>2026-03-24T13:44:55.925Z</time></trkpt><trkpt lat="42.0691771" lon="13.5064714"><ele>693.0</ele><time>2026-03-24T13:44:56.924Z</time></trkpt><trkpt lat="42.0691538" lon="13.5063898"><ele>693.0</ele><time>2026-03-24T13:44:57.925Z</time></trkpt><trkpt lat="42.0691447" lon="13.5062826"><ele>693.0</ele><time>2026-03-24T13:45:00.925Z</time></trkpt><trkpt lat="42.0691933" lon="13.5062213"><ele>693.0</ele><time>2026-03-24T13:45:02.924Z</time></trkpt><trkpt lat="42.0691506" lon="13.5061146"><ele>693.0</ele><time>2026-03-24T13:45:17.924Z</time></trkpt><trkpt lat="42.0691104" lon="13.5060268"><ele>693.0</ele><time>2026-03-24T13:45:19.925Z</time></trkpt><trkpt lat="42.0690717" lon="13.50594"><ele>692.8</ele><time>2026-03-24T13:45:21.924Z</time></trkpt><trkpt lat="42.0690319" lon="13.5058526"><ele>692.5999999999999</ele><time>2026-03-24T13:45:23.924Z</time></trkpt><trkpt lat="42.0689818" lon="13.5057574"><ele>692.4000000000001</ele><time>2026-03-24T13:45:25.924Z</time></trkpt><trkpt lat="42.0689361" lon="13.5056436"><ele>692.2</ele><time>2026-03-24T13:45:27.924Z</time></trkpt><trkpt lat="42.0688948" lon="13.5055206"><ele>692.0</ele><time>2026-03-24T13:45:29.924Z</time></trkpt><trkpt lat="42.0688477" lon="13.5053888"><ele>692.0</ele><time>2026-03-24T13:45:31.924Z</time></trkpt><trkpt lat="42.0688054" lon="13.5052511"><ele>692.0</ele><time>2026-03-24T13:45:33.924Z</time></trkpt><trkpt lat="42.0687524" lon="13.5051042"><ele>692.0</ele><time>2026-03-24T13:45:35.925Z</time></trkpt><trkpt lat="42.0687192" lon="13.5050196"><ele>692.0</ele><time>2026-03-24T13:45:36.924Z</time></trkpt><trkpt lat="42.0686881" lon="13.5049365"><ele>692.0</ele><time>2026-03-24T13:45:37.924Z</time></trkpt><trkpt lat="42.0686562" lon="13.504848"><ele>692.0</ele><time>2026-03-24T13:45:38.924Z</time></trkpt><trkpt lat="42.0686266" lon="13.5047653"><ele>692.0</ele><time>2026-03-24T13:45:39.925Z</time></trkpt><trkpt lat="42.0686007" lon="13.5046833"><ele>692.0</ele><time>2026-03-24T13:45:40.925Z</time></trkpt><trkpt lat="42.0685829" lon="13.5046017"><ele>692.0</ele><time>2026-03-24T13:45:41.925Z</time></trkpt><trkpt lat="42.0685587" lon="13.5045207"><ele>692.0</ele><time>2026-03-24T13:45:42.924Z</time></trkpt><trkpt lat="42.0684883" lon="13.5043918"><ele>692.0</ele><time>2026-03-24T13:45:44.924Z</time></trkpt><trkpt lat="42.0683957" lon="13.5042855"><ele>692.0</ele><time>2026-03-24T13:45:46.924Z</time></trkpt><trkpt lat="42.0683218" lon="13.5041421"><ele>691.6</ele><time>2026-03-24T13:45:48.925Z</time></trkpt><trkpt lat="42.0682694" lon="13.5039841"><ele>691.2</ele><time>2026-03-24T13:45:50.924Z</time></trkpt><trkpt lat="42.0682446" lon="13.5039034"><ele>690.8</ele><time>2026-03-24T13:45:51.925Z</time></trkpt><trkpt lat="42.0682181" lon="13.5038128"><ele>690.4</ele><time>2026-03-24T13:45:52.924Z</time></trkpt><trkpt lat="42.0681542" lon="13.5036705"><ele>690.0</ele><time>2026-03-24T13:45:54.924Z</time></trkpt><trkpt lat="42.0681213" lon="13.5035968"><ele>690.0</ele><time>2026-03-24T13:45:55.925Z</time></trkpt><trkpt lat="42.0680873" lon="13.5035106"><ele>690.0</ele><time>2026-03-24T13:45:56.924Z</time></trkpt><trkpt lat="42.0680525" lon="13.5034166"><ele>690.0</ele><time>2026-03-24T13:45:57.924Z</time></trkpt><trkpt lat="42.0679811" lon="13.5032799"><ele>690.0</ele><time>2026-03-24T13:45:59.924Z</time></trkpt><trkpt lat="42.0679324" lon="13.503215"><ele>690.0</ele><time>2026-03-24T13:46:00.924Z</time></trkpt><trkpt lat="42.0678819" lon="13.5031393"><ele>690.0</ele><time>2026-03-24T13:46:01.925Z</time></trkpt><trkpt lat="42.0678259" lon="13.5030577"><ele>690.0</ele><time>2026-03-24T13:46:02.924Z</time></trkpt><trkpt lat="42.0677785" lon="13.5029701"><ele>690.0</ele><time>2026-03-24T13:46:03.924Z</time></trkpt><trkpt lat="42.0677374" lon="13.5028766"><ele>690.0</ele><time>2026-03-24T13:46:04.924Z</time></trkpt><trkpt lat="42.0677001" lon="13.5027676"><ele>690.0</ele><time>2026-03-24T13:46:05.924Z</time></trkpt><trkpt lat="42.0676598" lon="13.502659"><ele>690.0</ele><time>2026-03-24T13:46:06.924Z</time></trkpt><trkpt lat="42.0676115" lon="13.5025413"><ele>690.0</ele><time>2026-03-24T13:46:07.924Z</time></trkpt><trkpt lat="42.0675662" lon="13.5024169"><ele>689.8</ele><time>2026-03-24T13:46:08.925Z</time></trkpt><trkpt lat="42.0675209" lon="13.5022822"><ele>689.6</ele><time>2026-03-24T13:46:09.924Z</time></trkpt><trkpt lat="42.0674709" lon="13.5021435"><ele>689.4000000000001</ele><time>2026-03-24T13:46:10.925Z</time></trkpt><trkpt lat="42.0674231" lon="13.5020067"><ele>689.2</ele><time>2026-03-24T13:46:11.924Z</time></trkpt><trkpt lat="42.0673808" lon="13.5018804"><ele>689.0</ele><time>2026-03-24T13:46:12.924Z</time></trkpt><trkpt lat="42.0673461" lon="13.5017581"><ele>689.0</ele><time>2026-03-24T13:46:13.925Z</time></trkpt><trkpt lat="42.0673221" lon="13.5016378"><ele>689.0</ele><time>2026-03-24T13:46:14.925Z</time></trkpt><trkpt lat="42.0673143" lon="13.5015229"><ele>689.0</ele><time>2026-03-24T13:46:15.924Z</time></trkpt><trkpt lat="42.067317" lon="13.5013965"><ele>689.0</ele><time>2026-03-24T13:46:16.924Z</time></trkpt><trkpt lat="42.0673222" lon="13.5012607"><ele>689.0</ele><time>2026-03-24T13:46:17.924Z</time></trkpt><trkpt lat="42.067326" lon="13.5011171"><ele>689.0</ele><time>2026-03-24T13:46:18.925Z</time></trkpt><trkpt lat="42.067336" lon="13.5009878"><ele>689.0</ele><time>2026-03-24T13:46:19.924Z</time></trkpt><trkpt lat="42.0673487" lon="13.5008623"><ele>689.0</ele><time>2026-03-24T13:46:20.925Z</time></trkpt><trkpt lat="42.0673604" lon="13.500732"><ele>689.0</ele><time>2026-03-24T13:46:21.925Z</time></trkpt><trkpt lat="42.0673715" lon="13.5005986"><ele>689.0</ele><time>2026-03-24T13:46:22.925Z</time></trkpt><trkpt lat="42.0673781" lon="13.5004776"><ele>689.0</ele><time>2026-03-24T13:46:23.925Z</time></trkpt><trkpt lat="42.0673811" lon="13.5003851"><ele>689.0</ele><time>2026-03-24T13:46:24.925Z</time></trkpt><trkpt lat="42.0673771" lon="13.5002996"><ele>689.0</ele><time>2026-03-24T13:46:26.925Z</time></trkpt><trkpt lat="42.0673288" lon="13.5002416"><ele>689.0</ele><time>2026-03-24T13:46:29.924Z</time></trkpt><trkpt lat="42.0672708" lon="13.5001994"><ele>689.0</ele><time>2026-03-24T13:46:32.924Z</time></trkpt><trkpt lat="42.0672667" lon="13.5001089"><ele>689.0</ele><time>2026-03-24T13:46:35.924Z</time></trkpt><trkpt lat="42.0673063" lon="13.5000256"><ele>689.0</ele><time>2026-03-24T13:46:37.925Z</time></trkpt><trkpt lat="42.0673762" lon="13.4999053"><ele>689.0</ele><time>2026-03-24T13:46:39.925Z</time></trkpt><trkpt lat="42.0674272" lon="13.4997689"><ele>689.0</ele><time>2026-03-24T13:46:41.924Z</time></trkpt><trkpt lat="42.0674538" lon="13.4996206"><ele>689.0</ele><time>2026-03-24T13:46:43.924Z</time></trkpt><trkpt lat="42.0674645" lon="13.4994624"><ele>689.0</ele><time>2026-03-24T13:46:45.924Z</time></trkpt><trkpt lat="42.0674638" lon="13.4993672"><ele>689.0</ele><time>2026-03-24T13:46:46.924Z</time></trkpt><trkpt lat="42.0674679" lon="13.4992575"><ele>689.4000000000001</ele><time>2026-03-24T13:46:47.924Z</time></trkpt><trkpt lat="42.0674675" lon="13.4991247"><ele>689.8</ele><time>2026-03-24T13:46:48.925Z</time></trkpt><trkpt lat="42.0674671" lon="13.4989928"><ele>690.2</ele><time>2026-03-24T13:46:49.925Z</time></trkpt><trkpt lat="42.0674639" lon="13.4988424"><ele>690.5999999999999</ele><time>2026-03-24T13:46:50.925Z</time></trkpt><trkpt lat="42.067456" lon="13.4986874"><ele>691.0</ele><time>2026-03-24T13:46:51.924Z</time></trkpt><trkpt lat="42.0674545" lon="13.498535"><ele>691.1999999999999</ele><time>2026-03-24T13:46:52.925Z</time></trkpt><trkpt lat="42.0674513" lon="13.4983939"><ele>691.4</ele><time>2026-03-24T13:46:53.924Z</time></trkpt><trkpt lat="42.0674455" lon="13.4982443"><ele>691.6</ele><time>2026-03-24T13:46:54.925Z</time></trkpt><trkpt lat="42.0674416" lon="13.4980918"><ele>691.8</ele><time>2026-03-24T13:46:55.925Z</time></trkpt><trkpt lat="42.0674345" lon="13.4979395"><ele>692.0</ele><time>2026-03-24T13:46:56.925Z</time></trkpt><trkpt lat="42.067422" lon="13.4977813"><ele>691.25</ele><time>2026-03-24T13:46:57.925Z</time></trkpt><trkpt lat="42.0674094" lon="13.4976202"><ele>690.5</ele><time>2026-03-24T13:46:58.925Z</time></trkpt><trkpt lat="42.067398" lon="13.4974487"><ele>689.75</ele><time>2026-03-24T13:46:59.924Z</time></trkpt><trkpt lat="42.067382" lon="13.4972723"><ele>689.0</ele><time>2026-03-24T13:47:00.925Z</time></trkpt><trkpt lat="42.0673635" lon="13.4970948"><ele>688.75</ele><time>2026-03-24T13:47:01.924Z</time></trkpt><trkpt lat="42.0673436" lon="13.4969107"><ele>688.5</ele><time>2026-03-24T13:47:02.924Z</time></trkpt><trkpt lat="42.067327" lon="13.4967271"><ele>688.25</ele><time>2026-03-24T13:47:03.925Z</time></trkpt><trkpt lat="42.0673084" lon="13.4965504"><ele>688.0</ele><time>2026-03-24T13:47:04.924Z</time></trkpt><trkpt lat="42.0672883" lon="13.4963716"><ele>688.5</ele><time>2026-03-24T13:47:05.925Z</time></trkpt><trkpt lat="42.0672647" lon="13.496194"><ele>689.0</ele><time>2026-03-24T13:47:06.924Z</time></trkpt><trkpt lat="42.0672413" lon="13.4960128"><ele>689.5</ele><time>2026-03-24T13:47:07.924Z</time></trkpt><trkpt lat="42.0672167" lon="13.4958399"><ele>690.0</ele><time>2026-03-24T13:47:08.924Z</time></trkpt><trkpt lat="42.0671898" lon="13.4956603"><ele>690.0</ele><time>2026-03-24T13:47:09.924Z</time></trkpt><trkpt lat="42.0671579" lon="13.4954727"><ele>690.0</ele><time>2026-03-24T13:47:10.924Z</time></trkpt><trkpt lat="42.0671288" lon="13.4953056"><ele>690.0</ele><time>2026-03-24T13:47:11.924Z</time></trkpt><trkpt lat="42.0671" lon="13.495124"><ele>690.0</ele><time>2026-03-24T13:47:12.924Z</time></trkpt><trkpt lat="42.0670668" lon="13.4949398"><ele>690.5</ele><time>2026-03-24T13:47:13.925Z</time></trkpt><trkpt lat="42.0670322" lon="13.4947536"><ele>691.0</ele><time>2026-03-24T13:47:14.924Z</time></trkpt><trkpt lat="42.0669979" lon="13.4945734"><ele>691.5</ele><time>2026-03-24T13:47:15.924Z</time></trkpt><trkpt lat="42.0669659" lon="13.4944116"><ele>692.0</ele><time>2026-03-24T13:47:16.924Z</time></trkpt><trkpt lat="42.066933" lon="13.4942504"><ele>692.5</ele><time>2026-03-24T13:47:17.925Z</time></trkpt><trkpt lat="42.0668988" lon="13.4940909"><ele>693.0</ele><time>2026-03-24T13:47:18.924Z</time></trkpt><trkpt lat="42.0668636" lon="13.4939241"><ele>693.5</ele><time>2026-03-24T13:47:19.925Z</time></trkpt><trkpt lat="42.0668292" lon="13.4937501"><ele>694.0</ele><time>2026-03-24T13:47:20.924Z</time></trkpt><trkpt lat="42.066797" lon="13.4935722"><ele>694.75</ele><time>2026-03-24T13:47:21.925Z</time></trkpt><trkpt lat="42.0667582" lon="13.4933889"><ele>695.5</ele><time>2026-03-24T13:47:22.925Z</time></trkpt><trkpt lat="42.0667238" lon="13.4932181"><ele>696.25</ele><time>2026-03-24T13:47:23.925Z</time></trkpt><trkpt lat="42.0666899" lon="13.4930604"><ele>697.0</ele><time>2026-03-24T13:47:24.924Z</time></trkpt><trkpt lat="42.0666515" lon="13.4929036"><ele>696.25</ele><time>2026-03-24T13:47:25.924Z</time></trkpt><trkpt lat="42.0666095" lon="13.4927336"><ele>695.5</ele><time>2026-03-24T13:47:26.924Z</time></trkpt><trkpt lat="42.0665734" lon="13.4925699"><ele>694.75</ele><time>2026-03-24T13:47:27.924Z</time></trkpt><trkpt lat="42.0665413" lon="13.4924206"><ele>694.0</ele><time>2026-03-24T13:47:28.924Z</time></trkpt><trkpt lat="42.0665053" lon="13.4922726"><ele>694.0</ele><time>2026-03-24T13:47:29.925Z</time></trkpt><trkpt lat="42.06647" lon="13.4921337"><ele>694.0</ele><time>2026-03-24T13:47:30.924Z</time></trkpt><trkpt lat="42.0664396" lon="13.4919999"><ele>694.0</ele><time>2026-03-24T13:47:31.924Z</time></trkpt><trkpt lat="42.0664052" lon="13.4918643"><ele>694.0</ele><time>2026-03-24T13:47:32.924Z</time></trkpt><trkpt lat="42.0663674" lon="13.4917376"><ele>694.0</ele><time>2026-03-24T13:47:33.924Z</time></trkpt><trkpt lat="42.0663265" lon="13.4916029"><ele>694.5</ele><time>2026-03-24T13:47:34.925Z</time></trkpt><trkpt lat="42.0662845" lon="13.4914609"><ele>695.0</ele><time>2026-03-24T13:47:35.925Z</time></trkpt><trkpt lat="42.0662388" lon="13.4913116"><ele>695.5</ele><time>2026-03-24T13:47:36.924Z</time></trkpt><trkpt lat="42.0661944" lon="13.4911592"><ele>696.0</ele><time>2026-03-24T13:47:37.925Z</time></trkpt><trkpt lat="42.0661512" lon="13.4910058"><ele>696.75</ele><time>2026-03-24T13:47:38.925Z</time></trkpt><trkpt lat="42.0661069" lon="13.4908645"><ele>697.5</ele><time>2026-03-24T13:47:39.924Z</time></trkpt><trkpt lat="42.06606" lon="13.4907244"><ele>698.25</ele><time>2026-03-24T13:47:40.924Z</time></trkpt><trkpt lat="42.066012" lon="13.4905881"><ele>699.0</ele><time>2026-03-24T13:47:41.925Z</time></trkpt><trkpt lat="42.0659664" lon="13.4904441"><ele>698.0</ele><time>2026-03-24T13:47:42.924Z</time></trkpt><trkpt lat="42.0659225" lon="13.4903092"><ele>697.0</ele><time>2026-03-24T13:47:43.924Z</time></trkpt><trkpt lat="42.0658822" lon="13.4901736"><ele>696.0</ele><time>2026-03-24T13:47:44.925Z</time></trkpt><trkpt lat="42.0658388" lon="13.4900377"><ele>695.0</ele><time>2026-03-24T13:47:45.925Z</time></trkpt><trkpt lat="42.065787" lon="13.4898895"><ele>694.0</ele><time>2026-03-24T13:47:46.924Z</time></trkpt><trkpt lat="42.0657308" lon="13.4897339"><ele>695.75</ele><time>2026-03-24T13:47:47.924Z</time></trkpt><trkpt lat="42.0656725" lon="13.4895787"><ele>697.5</ele><time>2026-03-24T13:47:48.924Z</time></trkpt><trkpt lat="42.0656078" lon="13.4894105"><ele>699.25</ele><time>2026-03-24T13:47:49.925Z</time></trkpt><trkpt lat="42.0655479" lon="13.4892619"><ele>701.0</ele><time>2026-03-24T13:47:50.924Z</time></trkpt><trkpt lat="42.0654954" lon="13.4891353"><ele>701.0</ele><time>2026-03-24T13:47:51.924Z</time></trkpt><trkpt lat="42.0654483" lon="13.4890358"><ele>701.0</ele><time>2026-03-24T13:47:52.924Z</time></trkpt><trkpt lat="42.0654204" lon="13.4889589"><ele>701.0</ele><time>2026-03-24T13:47:53.924Z</time></trkpt><trkpt lat="42.0654085" lon="13.4888296"><ele>701.0</ele><time>2026-03-24T13:47:55.924Z</time></trkpt><trkpt lat="42.0654301" lon="13.4887097"><ele>701.0</ele><time>2026-03-24T13:47:57.925Z</time></trkpt><trkpt lat="42.0655007" lon="13.488643"><ele>701.0</ele><time>2026-03-24T13:47:59.924Z</time></trkpt><trkpt lat="42.0655577" lon="13.4885548"><ele>702.4</ele><time>2026-03-24T13:48:06.924Z</time></trkpt><trkpt lat="42.0655464" lon="13.4884638"><ele>703.8</ele><time>2026-03-24T13:48:07.924Z</time></trkpt><trkpt lat="42.0655099" lon="13.4883583"><ele>705.1999999999999</ele><time>2026-03-24T13:48:08.924Z</time></trkpt><trkpt lat="42.0654586" lon="13.4882397"><ele>706.5999999999999</ele><time>2026-03-24T13:48:09.924Z</time></trkpt><trkpt lat="42.0653947" lon="13.488098"><ele>708.0</ele><time>2026-03-24T13:48:10.924Z</time></trkpt><trkpt lat="42.0653236" lon="13.4879395"><ele>706.5</ele><time>2026-03-24T13:48:11.925Z</time></trkpt><trkpt lat="42.0652436" lon="13.4877758"><ele>705.0</ele><time>2026-03-24T13:48:12.925Z</time></trkpt><trkpt lat="42.0651445" lon="13.4876227"><ele>703.5</ele><time>2026-03-24T13:48:13.925Z</time></trkpt><trkpt lat="42.0650348" lon="13.4874832"><ele>702.0</ele><time>2026-03-24T13:48:14.924Z</time></trkpt><trkpt lat="42.0648899" lon="13.4873813"><ele>702.0</ele><time>2026-03-24T13:48:15.925Z</time></trkpt><trkpt lat="42.064739" lon="13.487299"><ele>702.0</ele><time>2026-03-24T13:48:16.925Z</time></trkpt><trkpt lat="42.0645843" lon="13.4872282"><ele>702.0</ele><time>2026-03-24T13:48:17.924Z</time></trkpt><trkpt lat="42.0644226" lon="13.4871641"><ele>700.6666666666666</ele><time>2026-03-24T13:48:18.924Z</time></trkpt><trkpt lat="42.0642671" lon="13.4870868"><ele>699.3333333333333</ele><time>2026-03-24T13:48:19.924Z</time></trkpt><trkpt lat="42.0641304" lon="13.4869799"><ele>698.0</ele><time>2026-03-24T13:48:20.925Z</time></trkpt><trkpt lat="42.0639806" lon="13.4868499"><ele>698.0</ele><time>2026-03-24T13:48:21.925Z</time></trkpt><trkpt lat="42.0638367" lon="13.4866914"><ele>698.0</ele><time>2026-03-24T13:48:22.924Z</time></trkpt><trkpt lat="42.0636799" lon="13.4865229"><ele>698.0</ele><time>2026-03-24T13:48:23.924Z</time></trkpt><trkpt lat="42.0635149" lon="13.4863447"><ele>696.6666666666666</ele><time>2026-03-24T13:48:24.924Z</time></trkpt><trkpt lat="42.0633471" lon="13.4861705"><ele>695.3333333333334</ele><time>2026-03-24T13:48:25.924Z</time></trkpt><trkpt lat="42.0631769" lon="13.4859869"><ele>694.0</ele><time>2026-03-24T13:48:26.925Z</time></trkpt><trkpt lat="42.063006" lon="13.4858037"><ele>694.0</ele><time>2026-03-24T13:48:27.925Z</time></trkpt><trkpt lat="42.062831" lon="13.4856143"><ele>694.0</ele><time>2026-03-24T13:48:28.925Z</time></trkpt><trkpt lat="42.0626611" lon="13.4854307"><ele>694.0</ele><time>2026-03-24T13:48:29.924Z</time></trkpt><trkpt lat="42.0624974" lon="13.4852532"><ele>693.0</ele><time>2026-03-24T13:48:30.924Z</time></trkpt><trkpt lat="42.0623349" lon="13.4850804"><ele>692.0</ele><time>2026-03-24T13:48:31.924Z</time></trkpt><trkpt lat="42.0621742" lon="13.4849032"><ele>691.0</ele><time>2026-03-24T13:48:32.924Z</time></trkpt><trkpt lat="42.0620217" lon="13.4847361"><ele>692.6666666666667</ele><time>2026-03-24T13:48:33.924Z</time></trkpt><trkpt lat="42.0618754" lon="13.484578"><ele>694.3333333333334</ele><time>2026-03-24T13:48:34.924Z</time></trkpt><trkpt lat="42.0617397" lon="13.4844383"><ele>696.0</ele><time>2026-03-24T13:48:35.924Z</time></trkpt><trkpt lat="42.0616199" lon="13.484298"><ele>693.3333333333334</ele><time>2026-03-24T13:48:36.924Z</time></trkpt><trkpt lat="42.0615006" lon="13.4841415"><ele>690.6666666666667</ele><time>2026-03-24T13:48:37.924Z</time></trkpt><trkpt lat="42.0613933" lon="13.483964"><ele>688.0</ele><time>2026-03-24T13:48:38.925Z</time></trkpt><trkpt lat="42.0612952" lon="13.4837729"><ele>689.6666666666667</ele><time>2026-03-24T13:48:39.925Z</time></trkpt><trkpt lat="42.0612114" lon="13.4835608"><ele>691.3333333333334</ele><time>2026-03-24T13:48:40.925Z</time></trkpt><trkpt lat="42.0611321" lon="13.4833319"><ele>693.0</ele><time>2026-03-24T13:48:41.924Z</time></trkpt><trkpt lat="42.061055" lon="13.4831064"><ele>694.3333333333334</ele><time>2026-03-24T13:48:42.924Z</time></trkpt><trkpt lat="42.0609818" lon="13.4828922"><ele>695.6666666666667</ele><time>2026-03-24T13:48:43.924Z</time></trkpt><trkpt lat="42.0609129" lon="13.4826977"><ele>697.0</ele><time>2026-03-24T13:48:44.924Z</time></trkpt><trkpt lat="42.0608469" lon="13.4825037"><ele>697.0</ele><time>2026-03-24T13:48:45.924Z</time></trkpt><trkpt lat="42.0607829" lon="13.4823061"><ele>697.0</ele><time>2026-03-24T13:48:46.924Z</time></trkpt><trkpt lat="42.0607189" lon="13.482105"><ele>697.0</ele><time>2026-03-24T13:48:47.925Z</time></trkpt><trkpt lat="42.0606518" lon="13.4819001"><ele>695.3333333333334</ele><time>2026-03-24T13:48:48.924Z</time></trkpt><trkpt lat="42.0605817" lon="13.481693"><ele>693.6666666666666</ele><time>2026-03-24T13:48:49.924Z</time></trkpt><trkpt lat="42.0605144" lon="13.4814957"><ele>692.0</ele><time>2026-03-24T13:48:50.925Z</time></trkpt><trkpt lat="42.0604541" lon="13.481311"><ele>693.0</ele><time>2026-03-24T13:48:51.924Z</time></trkpt><trkpt lat="42.0603954" lon="13.4811331"><ele>694.0</ele><time>2026-03-24T13:48:52.924Z</time></trkpt><trkpt lat="42.0603396" lon="13.4809655"><ele>695.0</ele><time>2026-03-24T13:48:53.925Z</time></trkpt><trkpt lat="42.0602839" lon="13.4807917"><ele>696.0</ele><time>2026-03-24T13:48:54.925Z</time></trkpt><trkpt lat="42.0602282" lon="13.4806195"><ele>696.0</ele><time>2026-03-24T13:48:55.924Z</time></trkpt><trkpt lat="42.0601684" lon="13.4804432"><ele>696.0</ele><time>2026-03-24T13:48:56.924Z</time></trkpt><trkpt lat="42.0601095" lon="13.4802645"><ele>696.0</ele><time>2026-03-24T13:48:57.925Z</time></trkpt><trkpt lat="42.0600492" lon="13.4800939"><ele>696.0</ele><time>2026-03-24T13:48:58.924Z</time></trkpt><trkpt lat="42.0599895" lon="13.4799245"><ele>694.75</ele><time>2026-03-24T13:48:59.924Z</time></trkpt><trkpt lat="42.0599338" lon="13.4797535"><ele>693.5</ele><time>2026-03-24T13:49:00.924Z</time></trkpt><trkpt lat="42.0598784" lon="13.4795873"><ele>692.25</ele><time>2026-03-24T13:49:01.924Z</time></trkpt><trkpt lat="42.0598248" lon="13.4794219"><ele>691.0</ele><time>2026-03-24T13:49:02.924Z</time></trkpt><trkpt lat="42.059769" lon="13.479255"><ele>691.0</ele><time>2026-03-24T13:49:03.924Z</time></trkpt><trkpt lat="42.0597117" lon="13.4790923"><ele>691.0</ele><time>2026-03-24T13:49:04.925Z</time></trkpt><trkpt lat="42.0596577" lon="13.4789291"><ele>691.0</ele><time>2026-03-24T13:49:05.924Z</time></trkpt><trkpt lat="42.0596044" lon="13.4787698"><ele>691.0</ele><time>2026-03-24T13:49:06.924Z</time></trkpt><trkpt lat="42.0595523" lon="13.4786144"><ele>692.25</ele><time>2026-03-24T13:49:07.924Z</time></trkpt><trkpt lat="42.0595021" lon="13.478459"><ele>693.5</ele><time>2026-03-24T13:49:08.924Z</time></trkpt><trkpt lat="42.059447" lon="13.4783052"><ele>694.75</ele><time>2026-03-24T13:49:09.925Z</time></trkpt><trkpt lat="42.0593965" lon="13.4781586"><ele>696.0</ele><time>2026-03-24T13:49:10.925Z</time></trkpt><trkpt lat="42.0593476" lon="13.4780099"><ele>696.75</ele><time>2026-03-24T13:49:11.924Z</time></trkpt><trkpt lat="42.0592987" lon="13.4778633"><ele>697.5</ele><time>2026-03-24T13:49:12.925Z</time></trkpt><trkpt lat="42.0592484" lon="13.4777107"><ele>698.25</ele><time>2026-03-24T13:49:13.924Z</time></trkpt><trkpt lat="42.0592039" lon="13.4775592"><ele>699.0</ele><time>2026-03-24T13:49:14.924Z</time></trkpt><trkpt lat="42.0591578" lon="13.4774098"><ele>697.25</ele><time>2026-03-24T13:49:15.924Z</time></trkpt><trkpt lat="42.0591094" lon="13.4772612"><ele>695.5</ele><time>2026-03-24T13:49:16.924Z</time></trkpt><trkpt lat="42.0590611" lon="13.4771155"><ele>693.75</ele><time>2026-03-24T13:49:17.924Z</time></trkpt><trkpt lat="42.0590116" lon="13.4769739"><ele>692.0</ele><time>2026-03-24T13:49:18.924Z</time></trkpt><trkpt lat="42.05896" lon="13.4768317"><ele>692.0</ele><time>2026-03-24T13:49:19.924Z</time></trkpt><trkpt lat="42.0589095" lon="13.4766892"><ele>692.0</ele><time>2026-03-24T13:49:20.924Z</time></trkpt><trkpt lat="42.0588607" lon="13.4765426"><ele>692.0</ele><time>2026-03-24T13:49:21.924Z</time></trkpt><trkpt lat="42.0588115" lon="13.4763967"><ele>692.0</ele><time>2026-03-24T13:49:22.925Z</time></trkpt><trkpt lat="42.0587629" lon="13.4762476"><ele>693.5</ele><time>2026-03-24T13:49:23.925Z</time></trkpt><trkpt lat="42.0587095" lon="13.4761002"><ele>695.0</ele><time>2026-03-24T13:49:24.924Z</time></trkpt><trkpt lat="42.0586588" lon="13.4759462"><ele>696.5</ele><time>2026-03-24T13:49:25.925Z</time></trkpt><trkpt lat="42.0586054" lon="13.4757885"><ele>698.0</ele><time>2026-03-24T13:49:26.924Z</time></trkpt><trkpt lat="42.058551" lon="13.4756371"><ele>698.0</ele><time>2026-03-24T13:49:27.924Z</time></trkpt><trkpt lat="42.0584974" lon="13.4754815"><ele>698.0</ele><time>2026-03-24T13:49:28.924Z</time></trkpt><trkpt lat="42.0584448" lon="13.4753256"><ele>698.0</ele><time>2026-03-24T13:49:29.924Z</time></trkpt><trkpt lat="42.0583934" lon="13.4751679"><ele>698.0</ele><time>2026-03-24T13:49:30.925Z</time></trkpt><trkpt lat="42.0583403" lon="13.4750088"><ele>697.25</ele><time>2026-03-24T13:49:31.924Z</time></trkpt><trkpt lat="42.05829" lon="13.4748482"><ele>696.5</ele><time>2026-03-24T13:49:32.924Z</time></trkpt><trkpt lat="42.0582346" lon="13.4746932"><ele>695.75</ele><time>2026-03-24T13:49:33.925Z</time></trkpt><trkpt lat="42.0581771" lon="13.4745321"><ele>695.0</ele><time>2026-03-24T13:49:34.925Z</time></trkpt><trkpt lat="42.0581234" lon="13.4743855"><ele>695.0</ele><time>2026-03-24T13:49:35.924Z</time></trkpt><trkpt lat="42.0580583" lon="13.474247"><ele>695.0</ele><time>2026-03-24T13:49:36.924Z</time></trkpt><trkpt lat="42.0579929" lon="13.4741178"><ele>695.0</ele><time>2026-03-24T13:49:37.924Z</time></trkpt><trkpt lat="42.0579285" lon="13.4739918"><ele>695.0</ele><time>2026-03-24T13:49:38.925Z</time></trkpt><trkpt lat="42.0578775" lon="13.4738768"><ele>695.0000000000001</ele><time>2026-03-24T13:49:39.925Z</time></trkpt><trkpt lat="42.0578275" lon="13.4737743"><ele>695.0</ele><time>2026-03-24T13:49:40.924Z</time></trkpt><trkpt lat="42.0577916" lon="13.4736856"><ele>695.0</ele><time>2026-03-24T13:49:42.925Z</time></trkpt><trkpt lat="42.0577856" lon="13.4735921"><ele>695.0</ele><time>2026-03-24T13:49:45.925Z</time></trkpt><trkpt lat="42.057865" lon="13.4735499"><ele>695.0</ele><time>2026-03-24T13:49:47.924Z</time></trkpt><trkpt lat="42.0579284" lon="13.4735308"><ele>695.0000000000001</ele><time>2026-03-24T13:49:48.925Z</time></trkpt><trkpt lat="42.0579865" lon="13.4734972"><ele>695.0</ele><time>2026-03-24T13:49:49.925Z</time></trkpt><trkpt lat="42.0580533" lon="13.4734717"><ele>695.5</ele><time>2026-03-24T13:49:50.925Z</time></trkpt><trkpt lat="42.0581135" lon="13.4734402"><ele>696.0</ele><time>2026-03-24T13:49:51.925Z</time></trkpt><trkpt lat="42.058192" lon="13.4733927"><ele>696.5</ele><time>2026-03-24T13:49:53.925Z</time></trkpt><trkpt lat="42.058309" lon="13.4733458"><ele>697.0</ele><time>2026-03-24T13:49:55.924Z</time></trkpt><trkpt lat="42.0583774" lon="13.4733468"><ele>697.5</ele><time>2026-03-24T13:49:56.924Z</time></trkpt><trkpt lat="42.0584666" lon="13.4733488"><ele>698.0</ele><time>2026-03-24T13:49:57.925Z</time></trkpt><trkpt lat="42.0585517" lon="13.4733702"><ele>699.5999999999999</ele><time>2026-03-24T13:49:58.924Z</time></trkpt><trkpt lat="42.0586334" lon="13.4733912"><ele>701.1999999999999</ele><time>2026-03-24T13:49:59.924Z</time></trkpt><trkpt lat="42.0587077" lon="13.473405"><ele>702.8</ele><time>2026-03-24T13:50:00.925Z</time></trkpt><trkpt lat="42.0588101" lon="13.4734544"><ele>704.4</ele><time>2026-03-24T13:50:02.924Z</time></trkpt><trkpt lat="42.0588792" lon="13.4736023"><ele>706.0</ele><time>2026-03-24T13:50:04.924Z</time></trkpt><trkpt lat="42.0589074" lon="13.4737032"><ele>705.8</ele><time>2026-03-24T13:50:05.925Z</time></trkpt><trkpt lat="42.0589338" lon="13.4738107"><ele>705.5999999999999</ele><time>2026-03-24T13:50:06.924Z</time></trkpt><trkpt lat="42.0589597" lon="13.4739264"><ele>705.4</ele><time>2026-03-24T13:50:07.925Z</time></trkpt><trkpt lat="42.0589841" lon="13.4740498"><ele>705.2</ele><time>2026-03-24T13:50:08.924Z</time></trkpt><trkpt lat="42.0590217" lon="13.4741761"><ele>705.0</ele><time>2026-03-24T13:50:09.925Z</time></trkpt><trkpt lat="42.059062" lon="13.4743139"><ele>705.0</ele><time>2026-03-24T13:50:10.924Z</time></trkpt><trkpt lat="42.0591057" lon="13.4744505"><ele>705.0</ele><time>2026-03-24T13:50:11.924Z</time></trkpt><trkpt lat="42.0591494" lon="13.4745786"><ele>705.0</ele><time>2026-03-24T13:50:12.925Z</time></trkpt><trkpt lat="42.0592116" lon="13.4746995"><ele>705.0</ele><time>2026-03-24T13:50:13.924Z</time></trkpt><trkpt lat="42.0592926" lon="13.4748183"><ele>705.0</ele><time>2026-03-24T13:50:14.925Z</time></trkpt><trkpt lat="42.0593792" lon="13.4749477"><ele>708.6666666666666</ele><time>2026-03-24T13:50:15.925Z</time></trkpt><trkpt lat="42.0594731" lon="13.4750874"><ele>712.3333333333333</ele><time>2026-03-24T13:50:16.925Z</time></trkpt><trkpt lat="42.0595763" lon="13.4752398"><ele>716.0</ele><time>2026-03-24T13:50:17.924Z</time></trkpt><trkpt lat="42.0596839" lon="13.4753933"><ele>713.3333333333333</ele><time>2026-03-24T13:50:18.924Z</time></trkpt><trkpt lat="42.0597953" lon="13.4755472"><ele>710.6666666666666</ele><time>2026-03-24T13:50:19.924Z</time></trkpt><trkpt lat="42.0599041" lon="13.4756982"><ele>708.0</ele><time>2026-03-24T13:50:20.924Z</time></trkpt><trkpt lat="42.0600032" lon="13.4758369"><ele>710.2</ele><time>2026-03-24T13:50:21.924Z</time></trkpt><trkpt lat="42.0600908" lon="13.4759601"><ele>712.4</ele><time>2026-03-24T13:50:22.924Z</time></trkpt><trkpt lat="42.0601699" lon="13.4760652"><ele>714.6</ele><time>2026-03-24T13:50:23.924Z</time></trkpt><trkpt lat="42.0602361" lon="13.4761679"><ele>716.8000000000001</ele><time>2026-03-24T13:50:24.924Z</time></trkpt><trkpt lat="42.0602918" lon="13.4762471"><ele>719.0</ele><time>2026-03-24T13:50:25.924Z</time></trkpt><trkpt lat="42.0603372" lon="13.4763394"><ele>719.0</ele><time>2026-03-24T13:50:26.924Z</time></trkpt><trkpt lat="42.0603754" lon="13.4764428"><ele>719.0</ele><time>2026-03-24T13:50:27.925Z</time></trkpt><trkpt lat="42.0604105" lon="13.4765457"><ele>719.0</ele><time>2026-03-24T13:50:28.924Z</time></trkpt><trkpt lat="42.0604436" lon="13.4766416"><ele>719.0</ele><time>2026-03-24T13:50:29.925Z</time></trkpt><trkpt lat="42.0604808" lon="13.4767276"><ele>719.0</ele><time>2026-03-24T13:50:30.925Z</time></trkpt><trkpt lat="42.0605204" lon="13.4768061"><ele>719.0</ele><time>2026-03-24T13:50:31.924Z</time></trkpt><trkpt lat="42.0605686" lon="13.4768822"><ele>719.0</ele><time>2026-03-24T13:50:32.925Z</time></trkpt><trkpt lat="42.0606301" lon="13.4769598"><ele>719.0</ele><time>2026-03-24T13:50:33.924Z</time></trkpt><trkpt lat="42.0606982" lon="13.4770413"><ele>719.0</ele><time>2026-03-24T13:50:34.924Z</time></trkpt><trkpt lat="42.0607752" lon="13.4771101"><ele>719.0</ele><time>2026-03-24T13:50:35.925Z</time></trkpt><trkpt lat="42.0608362" lon="13.4771639"><ele>719.0</ele><time>2026-03-24T13:50:36.924Z</time></trkpt><trkpt lat="42.0609343" lon="13.4771635"><ele>719.0</ele><time>2026-03-24T13:50:38.925Z</time></trkpt><trkpt lat="42.060982" lon="13.4770516"><ele>722.8000000000001</ele><time>2026-03-24T13:50:40.924Z</time></trkpt><trkpt lat="42.0609659" lon="13.4769559"><ele>726.6</ele><time>2026-03-24T13:50:41.924Z</time></trkpt><trkpt lat="42.0609334" lon="13.4768341"><ele>730.4</ele><time>2026-03-24T13:50:42.924Z</time></trkpt><trkpt lat="42.0608928" lon="13.4766858"><ele>734.2</ele><time>2026-03-24T13:50:43.925Z</time></trkpt><trkpt lat="42.0608461" lon="13.476518"><ele>738.0</ele><time>2026-03-24T13:50:44.925Z</time></trkpt><trkpt lat="42.0607946" lon="13.4763357"><ele>735.0</ele><time>2026-03-24T13:50:45.925Z</time></trkpt><trkpt lat="42.0607319" lon="13.4761249"><ele>732.0</ele><time>2026-03-24T13:50:46.925Z</time></trkpt><trkpt lat="42.0606684" lon="13.4759076"><ele>729.0</ele><time>2026-03-24T13:50:47.924Z</time></trkpt><trkpt lat="42.0606098" lon="13.4757019"><ele>729.0</ele><time>2026-03-24T13:50:48.924Z</time></trkpt><trkpt lat="42.0605525" lon="13.4755211"><ele>729.0</ele><time>2026-03-24T13:50:49.924Z</time></trkpt><trkpt lat="42.0605018" lon="13.4753658"><ele>729.0</ele><time>2026-03-24T13:50:50.924Z</time></trkpt><trkpt lat="42.0604388" lon="13.4752316"><ele>729.0</ele><time>2026-03-24T13:50:51.924Z</time></trkpt><trkpt lat="42.0603711" lon="13.4751135"><ele>732.0</ele><time>2026-03-24T13:50:52.924Z</time></trkpt><trkpt lat="42.060291" lon="13.475012"><ele>735.0</ele><time>2026-03-24T13:50:53.925Z</time></trkpt><trkpt lat="42.0602243" lon="13.4749199"><ele>738.0</ele><time>2026-03-24T13:50:54.924Z</time></trkpt><trkpt lat="42.0601769" lon="13.4748326"><ele>741.0</ele><time>2026-03-24T13:50:55.925Z</time></trkpt><trkpt lat="42.060164" lon="13.4747491"><ele>744.0</ele><time>2026-03-24T13:50:56.924Z</time></trkpt><trkpt lat="42.0602221" lon="13.4746062"><ele>744.8333333333334</ele><time>2026-03-24T13:50:58.924Z</time></trkpt><trkpt lat="42.0602777" lon="13.4745292"><ele>745.6666666666666</ele><time>2026-03-24T13:50:59.924Z</time></trkpt><trkpt lat="42.0603462" lon="13.474441"><ele>746.5</ele><time>2026-03-24T13:51:00.924Z</time></trkpt><trkpt lat="42.0604132" lon="13.4743566"><ele>747.3333333333333</ele><time>2026-03-24T13:51:01.924Z</time></trkpt><trkpt lat="42.0604687" lon="13.474283"><ele>748.1666666666666</ele><time>2026-03-24T13:51:02.924Z</time></trkpt><trkpt lat="42.0605039" lon="13.4741997"><ele>749.0</ele><time>2026-03-24T13:51:03.925Z</time></trkpt><trkpt lat="42.0605057" lon="13.4740361"><ele>749.0</ele><time>2026-03-24T13:51:05.924Z</time></trkpt><trkpt lat="42.0604775" lon="13.4739456"><ele>749.0</ele><time>2026-03-24T13:51:06.924Z</time></trkpt><trkpt lat="42.0604443" lon="13.4738471"><ele>749.0</ele><time>2026-03-24T13:51:07.924Z</time></trkpt><trkpt lat="42.0604274" lon="13.4737544"><ele>749.0</ele><time>2026-03-24T13:51:08.924Z</time></trkpt><trkpt lat="42.0604485" lon="13.4736417"><ele>749.0</ele><time>2026-03-24T13:51:10.924Z</time></trkpt><trkpt lat="42.0605118" lon="13.4736715"><ele>749.0</ele><time>2026-03-24T13:51:12.924Z</time></trkpt><trkpt lat="42.0605487" lon="13.4737405"><ele>749.0</ele><time>2026-03-24T13:51:13.925Z</time></trkpt><trkpt lat="42.0605893" lon="13.4738479"><ele>749.0</ele><time>2026-03-24T13:51:14.924Z</time></trkpt><trkpt lat="42.0606364" lon="13.4739732"><ele>749.0</ele><time>2026-03-24T13:51:15.925Z</time></trkpt><trkpt lat="42.0606951" lon="13.4741068"><ele>749.0</ele><time>2026-03-24T13:51:16.924Z</time></trkpt><trkpt lat="42.0607455" lon="13.4742359"><ele>749.0</ele><time>2026-03-24T13:51:17.924Z</time></trkpt><trkpt lat="42.0607862" lon="13.4743467"><ele>749.0</ele><time>2026-03-24T13:51:18.924Z</time></trkpt><trkpt lat="42.0608173" lon="13.474434"><ele>751.3333333333333</ele><time>2026-03-24T13:51:19.925Z</time></trkpt><trkpt lat="42.0608488" lon="13.4745103"><ele>753.6666666666666</ele><time>2026-03-24T13:51:20.924Z</time></trkpt><trkpt lat="42.0608904" lon="13.4745869"><ele>756.0</ele><time>2026-03-24T13:51:21.924Z</time></trkpt><trkpt lat="42.0609404" lon="13.4746602"><ele>758.3333333333334</ele><time>2026-03-24T13:51:22.925Z</time></trkpt><trkpt lat="42.0609977" lon="13.4747292"><ele>760.6666666666667</ele><time>2026-03-24T13:51:23.925Z</time></trkpt><trkpt lat="42.061055" lon="13.4747891"><ele>763.0</ele><time>2026-03-24T13:51:24.924Z</time></trkpt><trkpt lat="42.0611439" lon="13.4748659"><ele>763.0</ele><time>2026-03-24T13:51:26.924Z</time></trkpt><trkpt lat="42.0612194" lon="13.4748891"><ele>763.0</ele><time>2026-03-24T13:51:29.924Z</time></trkpt><trkpt lat="42.0611564" lon="13.4748266"><ele>763.0</ele><time>2026-03-24T13:51:33.924Z</time></trkpt><trkpt lat="42.0610356" lon="13.4747496"><ele>763.0</ele><time>2026-03-24T13:51:35.924Z</time></trkpt><trkpt lat="42.0609714" lon="13.4746742"><ele>763.0</ele><time>2026-03-24T13:51:36.925Z</time></trkpt><trkpt lat="42.0609125" lon="13.4745825"><ele>764.1666666666667</ele><time>2026-03-24T13:51:37.925Z</time></trkpt><trkpt lat="42.060864" lon="13.4744896"><ele>765.3333333333334</ele><time>2026-03-24T13:51:38.925Z</time></trkpt><trkpt lat="42.0608254" lon="13.4744055"><ele>766.5</ele><time>2026-03-24T13:51:39.924Z</time></trkpt><trkpt lat="42.0608051" lon="13.4742733"><ele>767.6666666666667</ele><time>2026-03-24T13:51:41.924Z</time></trkpt><trkpt lat="42.0608262" lon="13.4741083"><ele>768.8333333333334</ele><time>2026-03-24T13:51:43.924Z</time></trkpt><trkpt lat="42.0608504" lon="13.4740245"><ele>770.0</ele><time>2026-03-24T13:51:44.925Z</time></trkpt><trkpt lat="42.0608856" lon="13.4739426"><ele>770.0000000000001</ele><time>2026-03-24T13:51:45.925Z</time></trkpt><trkpt lat="42.0609241" lon="13.47387"><ele>770.0</ele><time>2026-03-24T13:51:46.924Z</time></trkpt><trkpt lat="42.0609594" lon="13.4737967"><ele>770.0</ele><time>2026-03-24T13:51:47.925Z</time></trkpt><trkpt lat="42.0609948" lon="13.4737137"><ele>770.0</ele><time>2026-03-24T13:51:48.924Z</time></trkpt><trkpt lat="42.0610294" lon="13.4735631"><ele>770.0000000000001</ele><time>2026-03-24T13:51:50.924Z</time></trkpt><trkpt lat="42.061028" lon="13.473471"><ele>770.0</ele><time>2026-03-24T13:51:51.924Z</time></trkpt><trkpt lat="42.0610285" lon="13.473374"><ele>771.3333333333334</ele><time>2026-03-24T13:51:52.924Z</time></trkpt><trkpt lat="42.061032" lon="13.473279"><ele>772.6666666666667</ele><time>2026-03-24T13:51:53.924Z</time></trkpt><trkpt lat="42.0610304" lon="13.4731832"><ele>774.0</ele><time>2026-03-24T13:51:54.924Z</time></trkpt><trkpt lat="42.0610228" lon="13.4730853"><ele>775.3333333333333</ele><time>2026-03-24T13:51:55.925Z</time></trkpt><trkpt lat="42.061009" lon="13.4729738"><ele>776.6666666666666</ele><time>2026-03-24T13:51:56.925Z</time></trkpt><trkpt lat="42.0610041" lon="13.4728535"><ele>778.0</ele><time>2026-03-24T13:51:57.924Z</time></trkpt><trkpt lat="42.0609993" lon="13.4727106"><ele>779.8</ele><time>2026-03-24T13:51:58.924Z</time></trkpt><trkpt lat="42.0609888" lon="13.4725803"><ele>781.5999999999999</ele><time>2026-03-24T13:51:59.925Z</time></trkpt><trkpt lat="42.0609746" lon="13.4724546"><ele>783.4000000000001</ele><time>2026-03-24T13:52:00.924Z</time></trkpt><trkpt lat="42.0609597" lon="13.472336"><ele>785.2</ele><time>2026-03-24T13:52:01.924Z</time></trkpt><trkpt lat="42.0609397" lon="13.4722254"><ele>787.0</ele><time>2026-03-24T13:52:02.925Z</time></trkpt><trkpt lat="42.060919" lon="13.4721104"><ele>788.1666666666666</ele><time>2026-03-24T13:52:03.924Z</time></trkpt><trkpt lat="42.0608971" lon="13.4720126"><ele>789.3333333333333</ele><time>2026-03-24T13:52:04.924Z</time></trkpt><trkpt lat="42.0608942" lon="13.4719177"><ele>790.5</ele><time>2026-03-24T13:52:05.925Z</time></trkpt><trkpt lat="42.0608965" lon="13.4718117"><ele>791.6666666666667</ele><time>2026-03-24T13:52:06.925Z</time></trkpt><trkpt lat="42.0609095" lon="13.4716904"><ele>792.8333333333334</ele><time>2026-03-24T13:52:07.924Z</time></trkpt><trkpt lat="42.0609255" lon="13.4715925"><ele>794.0</ele><time>2026-03-24T13:52:08.925Z</time></trkpt><trkpt lat="42.0609319" lon="13.4714881"><ele>794.0</ele><time>2026-03-24T13:52:09.924Z</time></trkpt><trkpt lat="42.0609241" lon="13.4713666"><ele>794.0</ele><time>2026-03-24T13:52:10.925Z</time></trkpt><trkpt lat="42.0609177" lon="13.4712353"><ele>794.0</ele><time>2026-03-24T13:52:11.924Z</time></trkpt><trkpt lat="42.0609005" lon="13.4710879"><ele>794.0</ele><time>2026-03-24T13:52:12.925Z</time></trkpt><trkpt lat="42.0608851" lon="13.4709334"><ele>794.0</ele><time>2026-03-24T13:52:13.924Z</time></trkpt><trkpt lat="42.0608717" lon="13.4707994"><ele>794.4000000000001</ele><time>2026-03-24T13:52:14.925Z</time></trkpt><trkpt lat="42.0608472" lon="13.4706664"><ele>794.8</ele><time>2026-03-24T13:52:15.924Z</time></trkpt><trkpt lat="42.0608298" lon="13.4705303"><ele>795.2</ele><time>2026-03-24T13:52:16.924Z</time></trkpt><trkpt lat="42.0608036" lon="13.4704085"><ele>795.5999999999999</ele><time>2026-03-24T13:52:17.925Z</time></trkpt><trkpt lat="42.0607699" lon="13.4702849"><ele>796.0</ele><time>2026-03-24T13:52:18.924Z</time></trkpt><trkpt lat="42.0607336" lon="13.4701503"><ele>793.8</ele><time>2026-03-24T13:52:19.924Z</time></trkpt><trkpt lat="42.0607089" lon="13.4700287"><ele>791.5999999999999</ele><time>2026-03-24T13:52:20.925Z</time></trkpt><trkpt lat="42.0606675" lon="13.4699137"><ele>789.4</ele><time>2026-03-24T13:52:21.924Z</time></trkpt><trkpt lat="42.0606164" lon="13.4698065"><ele>787.2</ele><time>2026-03-24T13:52:22.924Z</time></trkpt><trkpt lat="42.0605135" lon="13.4697202"><ele>785.0</ele><time>2026-03-24T13:52:23.924Z</time></trkpt><trkpt lat="42.0604793" lon="13.4696202"><ele>786.6</ele><time>2026-03-24T13:52:24.924Z</time></trkpt><trkpt lat="42.0604163" lon="13.4694868"><ele>788.2</ele><time>2026-03-24T13:52:25.924Z</time></trkpt><trkpt lat="42.0603597" lon="13.4693579"><ele>789.8</ele><time>2026-03-24T13:52:26.924Z</time></trkpt><trkpt lat="42.0603218" lon="13.4692386"><ele>791.4</ele><time>2026-03-24T13:52:27.924Z</time></trkpt><trkpt lat="42.0602837" lon="13.4691021"><ele>793.0</ele><time>2026-03-24T13:52:29.925Z</time></trkpt><trkpt lat="42.0602608" lon="13.4690192"><ele>792.9999999999999</ele><time>2026-03-24T13:52:31.924Z</time></trkpt><trkpt lat="42.0602353" lon="13.468919"><ele>793.0</ele><time>2026-03-24T13:52:47.924Z</time></trkpt><trkpt lat="42.0602163" lon="13.4688328"><ele>793.0</ele><time>2026-03-24T13:52:48.924Z</time></trkpt><trkpt lat="42.0601995" lon="13.4687078"><ele>793.0</ele><time>2026-03-24T13:52:49.925Z</time></trkpt><trkpt lat="42.0601859" lon="13.4685965"><ele>792.9999999999999</ele><time>2026-03-24T13:52:50.924Z</time></trkpt><trkpt lat="42.0601703" lon="13.4684928"><ele>793.0</ele><time>2026-03-24T13:52:51.924Z</time></trkpt><trkpt lat="42.0601353" lon="13.4683875"><ele>794.2</ele><time>2026-03-24T13:52:52.924Z</time></trkpt><trkpt lat="42.060091" lon="13.4682839"><ele>795.4</ele><time>2026-03-24T13:52:53.925Z</time></trkpt><trkpt lat="42.0600431" lon="13.468183"><ele>796.6</ele><time>2026-03-24T13:52:54.925Z</time></trkpt><trkpt lat="42.0600035" lon="13.4680766"><ele>797.8000000000001</ele><time>2026-03-24T13:52:55.925Z</time></trkpt><trkpt lat="42.0599603" lon="13.4679548"><ele>799.0</ele><time>2026-03-24T13:52:56.924Z</time></trkpt><trkpt lat="42.0599131" lon="13.467826"><ele>795.6</ele><time>2026-03-24T13:52:57.924Z</time></trkpt><trkpt lat="42.059871" lon="13.467702"><ele>792.2</ele><time>2026-03-24T13:52:58.924Z</time></trkpt><trkpt lat="42.059838" lon="13.4675589"><ele>788.8000000000001</ele><time>2026-03-24T13:52:59.924Z</time></trkpt><trkpt lat="42.0598043" lon="13.4674386"><ele>785.4000000000001</ele><time>2026-03-24T13:53:00.924Z</time></trkpt><trkpt lat="42.059788" lon="13.4673024"><ele>782.0</ele><time>2026-03-24T13:53:01.924Z</time></trkpt><trkpt lat="42.0597776" lon="13.4671713"><ele>783.75</ele><time>2026-03-24T13:53:02.924Z</time></trkpt><trkpt lat="42.0597506" lon="13.4670238"><ele>785.5</ele><time>2026-03-24T13:53:03.925Z</time></trkpt><trkpt lat="42.0597126" lon="13.4668699"><ele>787.25</ele><time>2026-03-24T13:53:04.924Z</time></trkpt><trkpt lat="42.0596763" lon="13.4667046"><ele>789.0</ele><time>2026-03-24T13:53:05.924Z</time></trkpt><trkpt lat="42.0596433" lon="13.4665457"><ele>789.0</ele><time>2026-03-24T13:53:06.924Z</time></trkpt><trkpt lat="42.0596213" lon="13.466386"><ele>789.0</ele><time>2026-03-24T13:53:07.924Z</time></trkpt><trkpt lat="42.059597" lon="13.4662351"><ele>789.0</ele><time>2026-03-24T13:53:08.925Z</time></trkpt><trkpt lat="42.0595655" lon="13.4660909"><ele>789.0</ele><time>2026-03-24T13:53:09.925Z</time></trkpt><trkpt lat="42.0595425" lon="13.4659956"><ele>789.0</ele><time>2026-03-24T13:53:10.925Z</time></trkpt><trkpt lat="42.0595054" lon="13.465887"><ele>790.2</ele><time>2026-03-24T13:53:11.925Z</time></trkpt><trkpt lat="42.059473" lon="13.4658135"><ele>791.4000000000001</ele><time>2026-03-24T13:53:12.925Z</time></trkpt><trkpt lat="42.059398" lon="13.4658276"><ele>792.6</ele><time>2026-03-24T13:53:13.925Z</time></trkpt><trkpt lat="42.0592969" lon="13.4658284"><ele>793.8</ele><time>2026-03-24T13:53:15.924Z</time></trkpt><trkpt lat="42.0592334" lon="13.4657529"><ele>795.0</ele><time>2026-03-24T13:53:17.924Z</time></trkpt><trkpt lat="42.0591874" lon="13.4655161"><ele>795.25</ele><time>2026-03-24T13:53:19.924Z</time></trkpt><trkpt lat="42.0591421" lon="13.4653334"><ele>795.5</ele><time>2026-03-24T13:53:20.924Z</time></trkpt><trkpt lat="42.0591058" lon="13.4651713"><ele>795.75</ele><time>2026-03-24T13:53:21.924Z</time></trkpt><trkpt lat="42.0590641" lon="13.4650113"><ele>796.0</ele><time>2026-03-24T13:53:22.924Z</time></trkpt><trkpt lat="42.0590046" lon="13.46485"><ele>790.0</ele><time>2026-03-24T13:53:23.925Z</time></trkpt><trkpt lat="42.0589282" lon="13.4646687"><ele>784.0</ele><time>2026-03-24T13:53:24.925Z</time></trkpt><trkpt lat="42.0588544" lon="13.464504"><ele>778.0</ele><time>2026-03-24T13:53:25.925Z</time></trkpt><trkpt lat="42.0587908" lon="13.4643668"><ele>772.0</ele><time>2026-03-24T13:53:26.925Z</time></trkpt><trkpt lat="42.0587342" lon="13.4642305"><ele>772.0</ele><time>2026-03-24T13:53:27.925Z</time></trkpt><trkpt lat="42.0586849" lon="13.464088"><ele>772.0</ele><time>2026-03-24T13:53:28.924Z</time></trkpt><trkpt lat="42.0586475" lon="13.4639329"><ele>772.0</ele><time>2026-03-24T13:53:29.924Z</time></trkpt><trkpt lat="42.0585986" lon="13.4637719"><ele>772.0</ele><time>2026-03-24T13:53:30.924Z</time></trkpt><trkpt lat="42.058554" lon="13.4635958"><ele>774.0</ele><time>2026-03-24T13:53:31.925Z</time></trkpt><trkpt lat="42.0585156" lon="13.463416"><ele>776.0</ele><time>2026-03-24T13:53:32.924Z</time></trkpt><trkpt lat="42.058478" lon="13.4632335"><ele>778.0</ele><time>2026-03-24T13:53:33.925Z</time></trkpt><trkpt lat="42.0584342" lon="13.4630446"><ele>780.0</ele><time>2026-03-24T13:53:34.925Z</time></trkpt><trkpt lat="42.0583949" lon="13.4628864"><ele>781.0</ele><time>2026-03-24T13:53:35.924Z</time></trkpt><trkpt lat="42.0583597" lon="13.4627272"><ele>782.0</ele><time>2026-03-24T13:53:36.924Z</time></trkpt><trkpt lat="42.0583349" lon="13.4625692"><ele>783.0</ele><time>2026-03-24T13:53:37.924Z</time></trkpt><trkpt lat="42.0583299" lon="13.4624061"><ele>784.0</ele><time>2026-03-24T13:53:38.924Z</time></trkpt><trkpt lat="42.0583205" lon="13.4622438"><ele>784.4000000000001</ele><time>2026-03-24T13:53:39.925Z</time></trkpt><trkpt lat="42.0583407" lon="13.4620877"><ele>784.8</ele><time>2026-03-24T13:53:40.924Z</time></trkpt><trkpt lat="42.0583338" lon="13.4619139"><ele>785.2</ele><time>2026-03-24T13:53:41.924Z</time></trkpt><trkpt lat="42.0583386" lon="13.4617975"><ele>785.5999999999999</ele><time>2026-03-24T13:53:42.925Z</time></trkpt><trkpt lat="42.0583224" lon="13.4616785"><ele>786.0</ele><time>2026-03-24T13:53:43.925Z</time></trkpt><trkpt lat="42.0583033" lon="13.4615393"><ele>780.5</ele><time>2026-03-24T13:53:44.924Z</time></trkpt><trkpt lat="42.0582687" lon="13.4613867"><ele>775.0</ele><time>2026-03-24T13:53:45.925Z</time></trkpt><trkpt lat="42.058229" lon="13.4612234"><ele>769.5</ele><time>2026-03-24T13:53:46.924Z</time></trkpt><trkpt lat="42.0581911" lon="13.461058"><ele>764.0</ele><time>2026-03-24T13:53:47.925Z</time></trkpt><trkpt lat="42.0581503" lon="13.4608824"><ele>764.0</ele><time>2026-03-24T13:53:48.924Z</time></trkpt><trkpt lat="42.0581132" lon="13.4606997"><ele>764.0</ele><time>2026-03-24T13:53:49.925Z</time></trkpt><trkpt lat="42.0580785" lon="13.4605122"><ele>764.0</ele><time>2026-03-24T13:53:50.924Z</time></trkpt><trkpt lat="42.0580389" lon="13.4603204"><ele>764.0</ele><time>2026-03-24T13:53:51.924Z</time></trkpt><trkpt lat="42.0579941" lon="13.4601274"><ele>765.0</ele><time>2026-03-24T13:53:52.924Z</time></trkpt><trkpt lat="42.0579461" lon="13.4599451"><ele>766.0</ele><time>2026-03-24T13:53:53.924Z</time></trkpt><trkpt lat="42.0578938" lon="13.4597612"><ele>767.0</ele><time>2026-03-24T13:53:54.924Z</time></trkpt><trkpt lat="42.0578427" lon="13.4595939"><ele>768.0</ele><time>2026-03-24T13:53:55.924Z</time></trkpt><trkpt lat="42.0577877" lon="13.4594357"><ele>770.5</ele><time>2026-03-24T13:53:56.924Z</time></trkpt><trkpt lat="42.0577305" lon="13.4592759"><ele>773.0</ele><time>2026-03-24T13:53:57.925Z</time></trkpt><trkpt lat="42.0576737" lon="13.4591297"><ele>775.5</ele><time>2026-03-24T13:53:58.924Z</time></trkpt><trkpt lat="42.0576243" lon="13.4589938"><ele>778.0</ele><time>2026-03-24T13:53:59.925Z</time></trkpt><trkpt lat="42.0575844" lon="13.4588789"><ele>779.1666666666666</ele><time>2026-03-24T13:54:00.924Z</time></trkpt><trkpt lat="42.0575553" lon="13.4587728"><ele>780.3333333333333</ele><time>2026-03-24T13:54:01.924Z</time></trkpt><trkpt lat="42.0575183" lon="13.4586733"><ele>781.5</ele><time>2026-03-24T13:54:02.925Z</time></trkpt><trkpt lat="42.0574836" lon="13.4585855"><ele>782.6666666666667</ele><time>2026-03-24T13:54:03.924Z</time></trkpt><trkpt lat="42.0574418" lon="13.4585008"><ele>783.8333333333334</ele><time>2026-03-24T13:54:04.924Z</time></trkpt><trkpt lat="42.0573847" lon="13.4584243"><ele>785.0</ele><time>2026-03-24T13:54:05.924Z</time></trkpt><trkpt lat="42.0573169" lon="13.4583438"><ele>780.75</ele><time>2026-03-24T13:54:06.925Z</time></trkpt><trkpt lat="42.0572396" lon="13.4582544"><ele>776.5</ele><time>2026-03-24T13:54:07.924Z</time></trkpt><trkpt lat="42.0571471" lon="13.4581493"><ele>772.25</ele><time>2026-03-24T13:54:08.924Z</time></trkpt><trkpt lat="42.0570515" lon="13.4580292"><ele>768.0</ele><time>2026-03-24T13:54:09.924Z</time></trkpt><trkpt lat="42.0569478" lon="13.4579035"><ele>768.0</ele><time>2026-03-24T13:54:10.924Z</time></trkpt><trkpt lat="42.0568428" lon="13.4577774"><ele>768.0</ele><time>2026-03-24T13:54:11.924Z</time></trkpt><trkpt lat="42.0567403" lon="13.4576495"><ele>768.0</ele><time>2026-03-24T13:54:12.925Z</time></trkpt><trkpt lat="42.0566421" lon="13.4575275"><ele>768.0</ele><time>2026-03-24T13:54:13.924Z</time></trkpt><trkpt lat="42.056551" lon="13.4574024"><ele>764.5</ele><time>2026-03-24T13:54:14.925Z</time></trkpt><trkpt lat="42.0564654" lon="13.4572752"><ele>761.0</ele><time>2026-03-24T13:54:15.925Z</time></trkpt><trkpt lat="42.0563832" lon="13.4571491"><ele>757.5</ele><time>2026-03-24T13:54:16.924Z</time></trkpt><trkpt lat="42.0563032" lon="13.4570309"><ele>754.0</ele><time>2026-03-24T13:54:17.925Z</time></trkpt><trkpt lat="42.0562249" lon="13.4569098"><ele>754.0</ele><time>2026-03-24T13:54:18.924Z</time></trkpt><trkpt lat="42.0561627" lon="13.4567902"><ele>754.0</ele><time>2026-03-24T13:54:19.925Z</time></trkpt><trkpt lat="42.0561135" lon="13.4566749"><ele>754.0</ele><time>2026-03-24T13:54:20.924Z</time></trkpt><trkpt lat="42.0560807" lon="13.4565559"><ele>754.0</ele><time>2026-03-24T13:54:21.924Z</time></trkpt><trkpt lat="42.0560622" lon="13.4564195"><ele>754.0</ele><time>2026-03-24T13:54:22.924Z</time></trkpt><trkpt lat="42.0560598" lon="13.4562675"><ele>753.75</ele><time>2026-03-24T13:54:23.924Z</time></trkpt><trkpt lat="42.0560617" lon="13.4560999"><ele>753.5</ele><time>2026-03-24T13:54:24.925Z</time></trkpt><trkpt lat="42.0560669" lon="13.4559316"><ele>753.25</ele><time>2026-03-24T13:54:25.925Z</time></trkpt><trkpt lat="42.056073" lon="13.4557713"><ele>753.0</ele><time>2026-03-24T13:54:26.924Z</time></trkpt><trkpt lat="42.0560873" lon="13.4556187"><ele>753.0</ele><time>2026-03-24T13:54:27.925Z</time></trkpt><trkpt lat="42.0561105" lon="13.4554599"><ele>753.0</ele><time>2026-03-24T13:54:28.924Z</time></trkpt><trkpt lat="42.0561484" lon="13.455298"><ele>753.0</ele><time>2026-03-24T13:54:29.925Z</time></trkpt><trkpt lat="42.0561838" lon="13.4551433"><ele>753.0</ele><time>2026-03-24T13:54:30.924Z</time></trkpt><trkpt lat="42.0562207" lon="13.4550045"><ele>751.8</ele><time>2026-03-24T13:54:31.924Z</time></trkpt><trkpt lat="42.0562639" lon="13.4548846"><ele>750.5999999999999</ele><time>2026-03-24T13:54:32.924Z</time></trkpt><trkpt lat="42.0563097" lon="13.4547946"><ele>749.4000000000001</ele><time>2026-03-24T13:54:33.924Z</time></trkpt><trkpt lat="42.0563442" lon="13.4547182"><ele>748.2</ele><time>2026-03-24T13:54:34.925Z</time></trkpt><trkpt lat="42.0563605" lon="13.4545681"><ele>747.0</ele><time>2026-03-24T13:54:36.925Z</time></trkpt><trkpt lat="42.0562532" lon="13.454515"><ele>747.0</ele><time>2026-03-24T13:54:38.925Z</time></trkpt><trkpt lat="42.0561765" lon="13.4545399"><ele>747.0</ele><time>2026-03-24T13:54:39.925Z</time></trkpt><trkpt lat="42.0560961" lon="13.4545926"><ele>747.0</ele><time>2026-03-24T13:54:40.924Z</time></trkpt><trkpt lat="42.0560178" lon="13.454672"><ele>747.0</ele><time>2026-03-24T13:54:41.925Z</time></trkpt><trkpt lat="42.0559365" lon="13.454762"><ele>747.0</ele><time>2026-03-24T13:54:42.924Z</time></trkpt><trkpt lat="42.0558444" lon="13.4548545"><ele>743.5</ele><time>2026-03-24T13:54:43.924Z</time></trkpt><trkpt lat="42.0557441" lon="13.454957"><ele>740.0</ele><time>2026-03-24T13:54:44.925Z</time></trkpt><trkpt lat="42.05565" lon="13.4550815"><ele>736.5</ele><time>2026-03-24T13:54:45.925Z</time></trkpt><trkpt lat="42.0555702" lon="13.4552176"><ele>733.0</ele><time>2026-03-24T13:54:46.924Z</time></trkpt><trkpt lat="42.055506" lon="13.455359"><ele>733.75</ele><time>2026-03-24T13:54:47.924Z</time></trkpt><trkpt lat="42.0554482" lon="13.4554933"><ele>734.5</ele><time>2026-03-24T13:54:48.924Z</time></trkpt><trkpt lat="42.0553791" lon="13.4556104"><ele>735.25</ele><time>2026-03-24T13:54:49.925Z</time></trkpt><trkpt lat="42.0552986" lon="13.4557135"><ele>736.0</ele><time>2026-03-24T13:54:50.924Z</time></trkpt><trkpt lat="42.0551997" lon="13.4558049"><ele>736.0</ele><time>2026-03-24T13:54:51.924Z</time></trkpt><trkpt lat="42.0550908" lon="13.4558867"><ele>736.0</ele><time>2026-03-24T13:54:52.924Z</time></trkpt><trkpt lat="42.0549685" lon="13.4559506"><ele>736.0</ele><time>2026-03-24T13:54:53.924Z</time></trkpt><trkpt lat="42.0548527" lon="13.4560083"><ele>736.0</ele><time>2026-03-24T13:54:54.925Z</time></trkpt><trkpt lat="42.0547583" lon="13.4560695"><ele>734.1999999999999</ele><time>2026-03-24T13:54:55.924Z</time></trkpt><trkpt lat="42.0546841" lon="13.4561383"><ele>732.4</ele><time>2026-03-24T13:54:56.924Z</time></trkpt><trkpt lat="42.0546271" lon="13.4562265"><ele>730.6</ele><time>2026-03-24T13:54:57.925Z</time></trkpt><trkpt lat="42.0545935" lon="13.4563336"><ele>728.8</ele><time>2026-03-24T13:54:58.924Z</time></trkpt><trkpt lat="42.0545849" lon="13.4564675"><ele>727.0</ele><time>2026-03-24T13:54:59.925Z</time></trkpt><trkpt lat="42.054593" lon="13.4566228"><ele>727.0</ele><time>2026-03-24T13:55:00.925Z</time></trkpt><trkpt lat="42.0546073" lon="13.4568036"><ele>727.0</ele><time>2026-03-24T13:55:01.925Z</time></trkpt><trkpt lat="42.0546147" lon="13.4569891"><ele>727.0</ele><time>2026-03-24T13:55:02.924Z</time></trkpt><trkpt lat="42.0546168" lon="13.4571481"><ele>727.0</ele><time>2026-03-24T13:55:03.924Z</time></trkpt><trkpt lat="42.0546103" lon="13.4572802"><ele>727.0</ele><time>2026-03-24T13:55:04.924Z</time></trkpt><trkpt lat="42.0545997" lon="13.4573895"><ele>727.0</ele><time>2026-03-24T13:55:05.925Z</time></trkpt><trkpt lat="42.054595" lon="13.4574773"><ele>727.0</ele><time>2026-03-24T13:55:06.924Z</time></trkpt><trkpt lat="42.0545851" lon="13.4575615"><ele>727.0</ele><time>2026-03-24T13:55:08.925Z</time></trkpt><trkpt lat="42.0545631" lon="13.4574368"><ele>727.0</ele><time>2026-03-24T13:55:17.925Z</time></trkpt><trkpt lat="42.0545563" lon="13.4573015"><ele>727.0</ele><time>2026-03-24T13:55:19.925Z</time></trkpt><trkpt lat="42.0545361" lon="13.4572053"><ele>727.0</ele><time>2026-03-24T13:55:20.924Z</time></trkpt><trkpt lat="42.0545184" lon="13.4570957"><ele>727.0</ele><time>2026-03-24T13:55:21.924Z</time></trkpt><trkpt lat="42.0544984" lon="13.4569679"><ele>727.0</ele><time>2026-03-24T13:55:22.924Z</time></trkpt><trkpt lat="42.0544779" lon="13.4568403"><ele>727.0</ele><time>2026-03-24T13:55:23.925Z</time></trkpt><trkpt lat="42.0544627" lon="13.4567075"><ele>727.0</ele><time>2026-03-24T13:55:24.925Z</time></trkpt><trkpt lat="42.0544352" lon="13.4565603"><ele>727.0</ele><time>2026-03-24T13:55:26.925Z</time></trkpt><trkpt lat="42.0544313" lon="13.456388"><ele>727.0</ele><time>2026-03-24T13:55:28.925Z</time></trkpt><trkpt lat="42.054431" lon="13.4562734"><ele>727.0</ele><time>2026-03-24T13:55:29.925Z</time></trkpt><trkpt lat="42.0544367" lon="13.456159"><ele>727.0</ele><time>2026-03-24T13:55:30.924Z</time></trkpt><trkpt lat="42.0544444" lon="13.4560619"><ele>727.0</ele><time>2026-03-24T13:55:31.924Z</time></trkpt><trkpt lat="42.0544541" lon="13.455977"><ele>727.0</ele><time>2026-03-24T13:55:32.925Z</time></trkpt><trkpt lat="42.0544661" lon="13.4558897"><ele>726.5</ele><time>2026-03-24T13:55:33.924Z</time></trkpt><trkpt lat="42.0544936" lon="13.4557956"><ele>726.0</ele><time>2026-03-24T13:55:34.925Z</time></trkpt><trkpt lat="42.054514" lon="13.4557005"><ele>725.5</ele><time>2026-03-24T13:55:35.924Z</time></trkpt><trkpt lat="42.0545357" lon="13.4556067"><ele>725.0</ele><time>2026-03-24T13:55:36.925Z</time></trkpt><trkpt lat="42.0545453" lon="13.4554476"><ele>724.5</ele><time>2026-03-24T13:55:38.924Z</time></trkpt><trkpt lat="42.0545274" lon="13.4553607"><ele>724.0</ele><time>2026-03-24T13:55:39.924Z</time></trkpt><trkpt lat="42.0544944" lon="13.4552566"><ele>724.0</ele><time>2026-03-24T13:55:40.924Z</time></trkpt><trkpt lat="42.0544534" lon="13.4551562"><ele>724.0</ele><time>2026-03-24T13:55:41.924Z</time></trkpt><trkpt lat="42.0544096" lon="13.4550452"><ele>724.0</ele><time>2026-03-24T13:55:42.924Z</time></trkpt><trkpt lat="42.0543646" lon="13.4549221"><ele>724.0</ele><time>2026-03-24T13:55:43.924Z</time></trkpt><trkpt lat="42.0543195" lon="13.4547945"><ele>724.0</ele><time>2026-03-24T13:55:44.924Z</time></trkpt><trkpt lat="42.0542724" lon="13.4546627"><ele>724.6</ele><time>2026-03-24T13:55:45.924Z</time></trkpt><trkpt lat="42.0542254" lon="13.454529"><ele>725.2</ele><time>2026-03-24T13:55:46.924Z</time></trkpt><trkpt lat="42.0541825" lon="13.4544074"><ele>725.8000000000001</ele><time>2026-03-24T13:55:47.924Z</time></trkpt><trkpt lat="42.0541343" lon="13.4542942"><ele>726.4000000000001</ele><time>2026-03-24T13:55:48.924Z</time></trkpt><trkpt lat="42.0540931" lon="13.4541999"><ele>727.0</ele><time>2026-03-24T13:55:49.924Z</time></trkpt><trkpt lat="42.0540357" lon="13.4540979"><ele>727.0</ele><time>2026-03-24T13:55:51.925Z</time></trkpt><trkpt lat="42.0540432" lon="13.4539969"><ele>727.0</ele><time>2026-03-24T13:55:54.924Z</time></trkpt><trkpt lat="42.0541169" lon="13.4539417"><ele>727.0</ele><time>2026-03-24T13:55:57.924Z</time></trkpt><trkpt lat="42.0542539" lon="13.4538755"><ele>727.0</ele><time>2026-03-24T13:56:02.925Z</time></trkpt><trkpt lat="42.0543312" lon="13.453744"><ele>727.0</ele><time>2026-03-24T13:56:03.924Z</time></trkpt><trkpt lat="42.0545586" lon="13.4537086"><ele>727.6666666666667</ele><time>2026-03-24T13:56:04.924Z</time></trkpt><trkpt lat="42.0546348" lon="13.4536722"><ele>728.3333333333334</ele><time>2026-03-24T13:56:05.924Z</time></trkpt><trkpt lat="42.0547124" lon="13.4536446"><ele>729.0</ele><time>2026-03-24T13:56:06.924Z</time></trkpt><trkpt lat="42.0547782" lon="13.4535946"><ele>729.6666666666666</ele><time>2026-03-24T13:56:07.924Z</time></trkpt><trkpt lat="42.0548418" lon="13.4535345"><ele>730.3333333333333</ele><time>2026-03-24T13:56:08.925Z</time></trkpt><trkpt lat="42.0548907" lon="13.453461"><ele>731.0</ele><time>2026-03-24T13:56:09.925Z</time></trkpt><trkpt lat="42.0549428" lon="13.4533679"><ele>730.5</ele><time>2026-03-24T13:56:10.924Z</time></trkpt><trkpt lat="42.0549804" lon="13.4532798"><ele>730.0</ele><time>2026-03-24T13:56:11.924Z</time></trkpt><trkpt lat="42.055001" lon="13.4531953"><ele>729.5</ele><time>2026-03-24T13:56:12.924Z</time></trkpt><trkpt lat="42.0550362" lon="13.4530494"><ele>729.0</ele><time>2026-03-24T13:56:14.924Z</time></trkpt><trkpt lat="42.0550439" lon="13.452961"><ele>728.5</ele><time>2026-03-24T13:56:15.924Z</time></trkpt><trkpt lat="42.0550695" lon="13.4528584"><ele>728.0</ele><time>2026-03-24T13:56:16.925Z</time></trkpt><trkpt lat="42.0550984" lon="13.4527506"><ele>728.0</ele><time>2026-03-24T13:56:17.924Z</time></trkpt><trkpt lat="42.0551186" lon="13.4526553"><ele>728.0</ele><time>2026-03-24T13:56:18.924Z</time></trkpt><trkpt lat="42.055125" lon="13.4525562"><ele>728.0</ele><time>2026-03-24T13:56:19.924Z</time></trkpt><trkpt lat="42.0551189" lon="13.4524581"><ele>728.0</ele><time>2026-03-24T13:56:20.924Z</time></trkpt><trkpt lat="42.0551044" lon="13.452372"><ele>728.0</ele><time>2026-03-24T13:56:21.924Z</time></trkpt><trkpt lat="42.055094" lon="13.4522819"><ele>728.0</ele><time>2026-03-24T13:56:22.924Z</time></trkpt><trkpt lat="42.0550921" lon="13.4521867"><ele>728.0</ele><time>2026-03-24T13:56:23.924Z</time></trkpt><trkpt lat="42.0550873" lon="13.4520888"><ele>729.5</ele><time>2026-03-24T13:56:24.924Z</time></trkpt><trkpt lat="42.0550739" lon="13.4519957"><ele>731.0</ele><time>2026-03-24T13:56:25.925Z</time></trkpt><trkpt lat="42.0550618" lon="13.4518099"><ele>732.5</ele><time>2026-03-24T13:56:27.925Z</time></trkpt><trkpt lat="42.0550508" lon="13.4517067"><ele>734.0</ele><time>2026-03-24T13:56:28.924Z</time></trkpt><trkpt lat="42.0550354" lon="13.45161"><ele>735.5</ele><time>2026-03-24T13:56:29.924Z</time></trkpt><trkpt lat="42.0550248" lon="13.4515066"><ele>737.0</ele><time>2026-03-24T13:56:30.924Z</time></trkpt><trkpt lat="42.0550184" lon="13.4513966"><ele>738.0</ele><time>2026-03-24T13:56:31.924Z</time></trkpt><trkpt lat="42.0550125" lon="13.4512806"><ele>739.0</ele><time>2026-03-24T13:56:32.924Z</time></trkpt><trkpt lat="42.0550089" lon="13.4511655"><ele>740.0</ele><time>2026-03-24T13:56:33.924Z</time></trkpt><trkpt lat="42.0549927" lon="13.4510479"><ele>741.0</ele><time>2026-03-24T13:56:34.925Z</time></trkpt><trkpt lat="42.0549748" lon="13.4509142"><ele>742.0</ele><time>2026-03-24T13:56:35.924Z</time></trkpt><trkpt lat="42.0549622" lon="13.4507792"><ele>741.6</ele><time>2026-03-24T13:56:36.924Z</time></trkpt><trkpt lat="42.0549499" lon="13.450643"><ele>741.2</ele><time>2026-03-24T13:56:37.924Z</time></trkpt><trkpt lat="42.0549387" lon="13.4505043"><ele>740.8</ele><time>2026-03-24T13:56:38.924Z</time></trkpt><trkpt lat="42.0549259" lon="13.4503817"><ele>740.4</ele><time>2026-03-24T13:56:39.924Z</time></trkpt><trkpt lat="42.0549144" lon="13.4502845"><ele>740.0</ele><time>2026-03-24T13:56:40.924Z</time></trkpt><trkpt lat="42.0548965" lon="13.4501298"><ele>740.8</ele><time>2026-03-24T13:56:42.924Z</time></trkpt><trkpt lat="42.0548848" lon="13.4500377"><ele>741.6</ele><time>2026-03-24T13:56:43.925Z</time></trkpt><trkpt lat="42.0548729" lon="13.4499276"><ele>742.4000000000001</ele><time>2026-03-24T13:56:44.925Z</time></trkpt><trkpt lat="42.0548641" lon="13.4498021"><ele>743.2</ele><time>2026-03-24T13:56:45.924Z</time></trkpt><trkpt lat="42.0548577" lon="13.4496618"><ele>744.0</ele><time>2026-03-24T13:56:46.924Z</time></trkpt><trkpt lat="42.0548472" lon="13.4495102"><ele>744.0</ele><time>2026-03-24T13:56:47.924Z</time></trkpt><trkpt lat="42.0548462" lon="13.4493517"><ele>744.0</ele><time>2026-03-24T13:56:48.925Z</time></trkpt><trkpt lat="42.0548388" lon="13.4491848"><ele>744.0</ele><time>2026-03-24T13:56:49.925Z</time></trkpt><trkpt lat="42.0548365" lon="13.4490398"><ele>744.0</ele><time>2026-03-24T13:56:50.924Z</time></trkpt><trkpt lat="42.0548359" lon="13.4489234"><ele>744.0</ele><time>2026-03-24T13:56:51.925Z</time></trkpt><trkpt lat="42.054836" lon="13.4488302"><ele>744.3333333333334</ele><time>2026-03-24T13:56:52.925Z</time></trkpt><trkpt lat="42.0548377" lon="13.4487067"><ele>744.6666666666666</ele><time>2026-03-24T13:56:54.924Z</time></trkpt><trkpt lat="42.054837" lon="13.4485615"><ele>745.0</ele><time>2026-03-24T13:56:56.924Z</time></trkpt><trkpt lat="42.0548382" lon="13.4484626"><ele>745.3333333333333</ele><time>2026-03-24T13:56:57.924Z</time></trkpt><trkpt lat="42.0548411" lon="13.4483546"><ele>745.6666666666666</ele><time>2026-03-24T13:56:58.924Z</time></trkpt><trkpt lat="42.0548435" lon="13.4482576"><ele>746.0</ele><time>2026-03-24T13:56:59.924Z</time></trkpt><trkpt lat="42.0548521" lon="13.4481138"><ele>746.0</ele><time>2026-03-24T13:57:01.925Z</time></trkpt><trkpt lat="42.0548468" lon="13.4479907"><ele>746.0</ele><time>2026-03-24T13:57:03.925Z</time></trkpt><trkpt lat="42.054848" lon="13.4479016"><ele>746.0</ele><time>2026-03-24T13:57:05.924Z</time></trkpt><trkpt lat="42.0549106" lon="13.4478205"><ele>746.0</ele><time>2026-03-24T13:57:09.924Z</time></trkpt><trkpt lat="42.0550282" lon="13.4478088"><ele>746.0</ele><time>2026-03-24T13:57:11.924Z</time></trkpt><trkpt lat="42.0551026" lon="13.4477927"><ele>746.0</ele><time>2026-03-24T13:57:12.924Z</time></trkpt><trkpt lat="42.0551806" lon="13.4477755"><ele>746.6666666666666</ele><time>2026-03-24T13:57:13.924Z</time></trkpt><trkpt lat="42.0552576" lon="13.4477447"><ele>747.3333333333333</ele><time>2026-03-24T13:57:14.924Z</time></trkpt><trkpt lat="42.0553312" lon="13.4477176"><ele>748.0</ele><time>2026-03-24T13:57:15.925Z</time></trkpt><trkpt lat="42.0553953" lon="13.4476745"><ele>748.6666666666666</ele><time>2026-03-24T13:57:16.925Z</time></trkpt><trkpt lat="42.0554737" lon="13.4476133"><ele>749.3333333333334</ele><time>2026-03-24T13:57:17.924Z</time></trkpt><trkpt lat="42.0555565" lon="13.4475533"><ele>750.0</ele><time>2026-03-24T13:57:18.924Z</time></trkpt><trkpt lat="42.0556575" lon="13.4475023"><ele>750.0</ele><time>2026-03-24T13:57:19.924Z</time></trkpt><trkpt lat="42.0557552" lon="13.4474611"><ele>750.0</ele><time>2026-03-24T13:57:20.925Z</time></trkpt><trkpt lat="42.0558391" lon="13.4474328"><ele>750.0</ele><time>2026-03-24T13:57:21.925Z</time></trkpt><trkpt lat="42.0559174" lon="13.4474288"><ele>750.0</ele><time>2026-03-24T13:57:22.925Z</time></trkpt><trkpt lat="42.0559876" lon="13.4474512"><ele>750.0</ele><time>2026-03-24T13:57:23.924Z</time></trkpt><trkpt lat="42.056054" lon="13.4474828"><ele>750.0</ele><time>2026-03-24T13:57:24.924Z</time></trkpt><trkpt lat="42.0561214" lon="13.4474966"><ele>750.6666666666666</ele><time>2026-03-24T13:57:25.924Z</time></trkpt><trkpt lat="42.0561862" lon="13.4474846"><ele>751.3333333333334</ele><time>2026-03-24T13:57:26.924Z</time></trkpt><trkpt lat="42.0562536" lon="13.4474514"><ele>752.0</ele><time>2026-03-24T13:57:27.924Z</time></trkpt><trkpt lat="42.0563213" lon="13.4474006"><ele>752.6666666666667</ele><time>2026-03-24T13:57:28.925Z</time></trkpt><trkpt lat="42.0563801" lon="13.4473302"><ele>753.3333333333334</ele><time>2026-03-24T13:57:29.924Z</time></trkpt><trkpt lat="42.0564495" lon="13.4472419"><ele>754.0</ele><time>2026-03-24T13:57:30.925Z</time></trkpt><trkpt lat="42.0565258" lon="13.4471489"><ele>754.2</ele><time>2026-03-24T13:57:31.925Z</time></trkpt><trkpt lat="42.0565975" lon="13.4470592"><ele>754.4000000000001</ele><time>2026-03-24T13:57:32.924Z</time></trkpt><trkpt lat="42.0566743" lon="13.4469823"><ele>754.6</ele><time>2026-03-24T13:57:33.925Z</time></trkpt><trkpt lat="42.0567476" lon="13.4469"><ele>754.8</ele><time>2026-03-24T13:57:34.925Z</time></trkpt><trkpt lat="42.0568182" lon="13.4468138"><ele>755.0</ele><time>2026-03-24T13:57:35.925Z</time></trkpt><trkpt lat="42.0568923" lon="13.4467265"><ele>755.5</ele><time>2026-03-24T13:57:36.925Z</time></trkpt><trkpt lat="42.0569569" lon="13.4466586"><ele>756.0</ele><time>2026-03-24T13:57:37.925Z</time></trkpt><trkpt lat="42.0570266" lon="13.4466073"><ele>756.5</ele><time>2026-03-24T13:57:38.924Z</time></trkpt><trkpt lat="42.0571109" lon="13.4465585"><ele>757.0</ele><time>2026-03-24T13:57:39.924Z</time></trkpt><trkpt lat="42.0571893" lon="13.4465239"><ele>757.5</ele><time>2026-03-24T13:57:40.924Z</time></trkpt><trkpt lat="42.0572614" lon="13.4464927"><ele>758.0</ele><time>2026-03-24T13:57:41.924Z</time></trkpt><trkpt lat="42.0573582" lon="13.4463965"><ele>758.0</ele><time>2026-03-24T13:57:43.924Z</time></trkpt><trkpt lat="42.0574055" lon="13.4463118"><ele>758.0</ele><time>2026-03-24T13:57:44.924Z</time></trkpt><trkpt lat="42.0574537" lon="13.4462007"><ele>758.0</ele><time>2026-03-24T13:57:45.924Z</time></trkpt><trkpt lat="42.0575086" lon="13.4460694"><ele>758.0</ele><time>2026-03-24T13:57:46.925Z</time></trkpt><trkpt lat="42.0575648" lon="13.4459099"><ele>758.0</ele><time>2026-03-24T13:57:47.924Z</time></trkpt><trkpt lat="42.057628" lon="13.4457449"><ele>758.75</ele><time>2026-03-24T13:57:48.925Z</time></trkpt><trkpt lat="42.0576867" lon="13.445594"><ele>759.5</ele><time>2026-03-24T13:57:49.924Z</time></trkpt><trkpt lat="42.057736" lon="13.4454597"><ele>760.25</ele><time>2026-03-24T13:57:50.924Z</time></trkpt><trkpt lat="42.0577815" lon="13.4453322"><ele>761.0</ele><time>2026-03-24T13:57:51.925Z</time></trkpt><trkpt lat="42.0578352" lon="13.4451909"><ele>761.75</ele><time>2026-03-24T13:57:52.925Z</time></trkpt><trkpt lat="42.057895" lon="13.4450338"><ele>762.5</ele><time>2026-03-24T13:57:53.925Z</time></trkpt><trkpt lat="42.0579597" lon="13.4448653"><ele>763.25</ele><time>2026-03-24T13:57:54.924Z</time></trkpt><trkpt lat="42.058022" lon="13.4446977"><ele>764.0</ele><time>2026-03-24T13:57:55.924Z</time></trkpt><trkpt lat="42.0580806" lon="13.4445479"><ele>764.25</ele><time>2026-03-24T13:57:56.924Z</time></trkpt><trkpt lat="42.0581344" lon="13.4443998"><ele>764.5</ele><time>2026-03-24T13:57:57.924Z</time></trkpt><trkpt lat="42.0581917" lon="13.4442478"><ele>764.75</ele><time>2026-03-24T13:57:58.925Z</time></trkpt><trkpt lat="42.0582461" lon="13.4440954"><ele>765.0</ele><time>2026-03-24T13:57:59.924Z</time></trkpt><trkpt lat="42.0582976" lon="13.4439561"><ele>765.0</ele><time>2026-03-24T13:58:00.925Z</time></trkpt><trkpt lat="42.0583431" lon="13.4438401"><ele>765.0</ele><time>2026-03-24T13:58:01.924Z</time></trkpt><trkpt lat="42.058377" lon="13.4437432"><ele>765.0</ele><time>2026-03-24T13:58:02.924Z</time></trkpt><trkpt lat="42.0584252" lon="13.4436046"><ele>765.0</ele><time>2026-03-24T13:58:04.925Z</time></trkpt><trkpt lat="42.0583626" lon="13.4435137"><ele>765.0</ele><time>2026-03-24T13:58:06.924Z</time></trkpt><trkpt lat="42.058267" lon="13.4434092"><ele>765.4</ele><time>2026-03-24T13:58:08.924Z</time></trkpt><trkpt lat="42.0581963" lon="13.44335"><ele>765.8</ele><time>2026-03-24T13:58:09.924Z</time></trkpt><trkpt lat="42.0581189" lon="13.4432748"><ele>766.2</ele><time>2026-03-24T13:58:10.924Z</time></trkpt><trkpt lat="42.058034" lon="13.4431864"><ele>766.6</ele><time>2026-03-24T13:58:11.924Z</time></trkpt><trkpt lat="42.0579543" lon="13.4431116"><ele>767.0</ele><time>2026-03-24T13:58:12.925Z</time></trkpt><trkpt lat="42.0578828" lon="13.4430436"><ele>767.0</ele><time>2026-03-24T13:58:13.924Z</time></trkpt><trkpt lat="42.0578181" lon="13.4429816"><ele>767.0</ele><time>2026-03-24T13:58:14.925Z</time></trkpt><trkpt lat="42.0577585" lon="13.4429202"><ele>767.0</ele><time>2026-03-24T13:58:15.924Z</time></trkpt><trkpt lat="42.0577093" lon="13.442851"><ele>767.0</ele><time>2026-03-24T13:58:16.924Z</time></trkpt><trkpt lat="42.057663" lon="13.4427889"><ele>767.0</ele><time>2026-03-24T13:58:17.924Z</time></trkpt><trkpt lat="42.0576046" lon="13.4427311"><ele>767.0</ele><time>2026-03-24T13:58:18.924Z</time></trkpt><trkpt lat="42.0575327" lon="13.4426638"><ele>766.2</ele><time>2026-03-24T13:58:19.924Z</time></trkpt><trkpt lat="42.0574521" lon="13.4425925"><ele>765.4000000000001</ele><time>2026-03-24T13:58:20.925Z</time></trkpt><trkpt lat="42.0573635" lon="13.4425066"><ele>764.5999999999999</ele><time>2026-03-24T13:58:21.924Z</time></trkpt><trkpt lat="42.0572718" lon="13.4424164"><ele>763.8</ele><time>2026-03-24T13:58:22.925Z</time></trkpt><trkpt lat="42.0571759" lon="13.4423204"><ele>763.0</ele><time>2026-03-24T13:58:23.924Z</time></trkpt><trkpt lat="42.0570828" lon="13.4422283"><ele>763.0</ele><time>2026-03-24T13:58:24.924Z</time></trkpt><trkpt lat="42.0569917" lon="13.4421348"><ele>763.0</ele><time>2026-03-24T13:58:25.924Z</time></trkpt><trkpt lat="42.0568974" lon="13.442044"><ele>763.0</ele><time>2026-03-24T13:58:26.924Z</time></trkpt><trkpt lat="42.0568015" lon="13.4419491"><ele>763.0</ele><time>2026-03-24T13:58:27.925Z</time></trkpt><trkpt lat="42.0567046" lon="13.4418454"><ele>763.0</ele><time>2026-03-24T13:58:28.925Z</time></trkpt><trkpt lat="42.0566169" lon="13.441748"><ele>763.0</ele><time>2026-03-24T13:58:29.924Z</time></trkpt><trkpt lat="42.0565306" lon="13.44166"><ele>763.0</ele><time>2026-03-24T13:58:30.925Z</time></trkpt><trkpt lat="42.0564609" lon="13.4415851"><ele>763.0</ele><time>2026-03-24T13:58:31.924Z</time></trkpt><trkpt lat="42.0564036" lon="13.4415238"><ele>763.0</ele><time>2026-03-24T13:58:32.924Z</time></trkpt><trkpt lat="42.056351" lon="13.4414727"><ele>763.0</ele><time>2026-03-24T13:58:33.924Z</time></trkpt><trkpt lat="42.0562259" lon="13.4414069"><ele>763.0</ele><time>2026-03-24T13:58:35.924Z</time></trkpt><trkpt lat="42.0561518" lon="13.4413776"><ele>763.0</ele><time>2026-03-24T13:58:36.925Z</time></trkpt><trkpt lat="42.0560817" lon="13.4413604"><ele>763.0</ele><time>2026-03-24T13:58:37.925Z</time></trkpt><trkpt lat="42.0560181" lon="13.4413394"><ele>763.0</ele><time>2026-03-24T13:58:38.925Z</time></trkpt><trkpt lat="42.0559212" lon="13.4412751"><ele>763.0</ele><time>2026-03-24T13:58:40.924Z</time></trkpt><trkpt lat="42.0558791" lon="13.4411795"><ele>763.0</ele><time>2026-03-24T13:58:42.924Z</time></trkpt><trkpt lat="42.05588" lon="13.4410172"><ele>763.0</ele><time>2026-03-24T13:58:44.925Z</time></trkpt><trkpt lat="42.0558971" lon="13.4409084"><ele>763.0</ele><time>2026-03-24T13:58:45.924Z</time></trkpt><trkpt lat="42.0559147" lon="13.4407893"><ele>763.0</ele><time>2026-03-24T13:58:46.924Z</time></trkpt><trkpt lat="42.0559391" lon="13.4406543"><ele>763.0</ele><time>2026-03-24T13:58:47.924Z</time></trkpt><trkpt lat="42.0559618" lon="13.440518"><ele>763.0</ele><time>2026-03-24T13:58:48.924Z</time></trkpt><trkpt lat="42.0559879" lon="13.4403977"><ele>763.0</ele><time>2026-03-24T13:58:49.925Z</time></trkpt><trkpt lat="42.0560126" lon="13.440292"><ele>763.0</ele><time>2026-03-24T13:58:50.925Z</time></trkpt><trkpt lat="42.0560312" lon="13.4401997"><ele>763.0</ele><time>2026-03-24T13:58:51.925Z</time></trkpt><trkpt lat="42.0560895" lon="13.4400608"><ele>763.0</ele><time>2026-03-24T13:58:53.925Z</time></trkpt><trkpt lat="42.0561871" lon="13.4399549"><ele>763.0</ele><time>2026-03-24T13:58:55.924Z</time></trkpt><trkpt lat="42.0562599" lon="13.4399041"><ele>763.0</ele><time>2026-03-24T13:58:56.925Z</time></trkpt><trkpt lat="42.0563326" lon="13.4398423"><ele>763.0</ele><time>2026-03-24T13:58:57.924Z</time></trkpt><trkpt lat="42.0564029" lon="13.4397792"><ele>763.0</ele><time>2026-03-24T13:58:58.924Z</time></trkpt><trkpt lat="42.0564722" lon="13.4397404"><ele>763.0</ele><time>2026-03-24T13:58:59.924Z</time></trkpt><trkpt lat="42.0565508" lon="13.4397015"><ele>763.0</ele><time>2026-03-24T13:59:00.924Z</time></trkpt><trkpt lat="42.0566138" lon="13.4396398"><ele>763.0</ele><time>2026-03-24T13:59:01.925Z</time></trkpt><trkpt lat="42.0566699" lon="13.4395735"><ele>763.6666666666667</ele><time>2026-03-24T13:59:02.925Z</time></trkpt><trkpt lat="42.0567158" lon="13.4395107"><ele>764.3333333333334</ele><time>2026-03-24T13:59:03.925Z</time></trkpt><trkpt lat="42.0568248" lon="13.4394315"><ele>765.0</ele><time>2026-03-24T13:59:05.924Z</time></trkpt><trkpt lat="42.0568863" lon="13.439408"><ele>765.6666666666666</ele><time>2026-03-24T13:59:06.925Z</time></trkpt><trkpt lat="42.0569476" lon="13.4393853"><ele>766.3333333333333</ele><time>2026-03-24T13:59:07.924Z</time></trkpt><trkpt lat="42.0570124" lon="13.4393481"><ele>767.0</ele><time>2026-03-24T13:59:08.924Z</time></trkpt><trkpt lat="42.0570766" lon="13.4392982"><ele>767.0</ele><time>2026-03-24T13:59:09.924Z</time></trkpt><trkpt lat="42.0571366" lon="13.4392234"><ele>767.0</ele><time>2026-03-24T13:59:10.924Z</time></trkpt><trkpt lat="42.057186" lon="13.4391232"><ele>767.0</ele><time>2026-03-24T13:59:11.924Z</time></trkpt><trkpt lat="42.0572309" lon="13.4390031"><ele>767.0</ele><time>2026-03-24T13:59:12.924Z</time></trkpt><trkpt lat="42.0572845" lon="13.4388721"><ele>767.0</ele><time>2026-03-24T13:59:13.924Z</time></trkpt><trkpt lat="42.0573316" lon="13.4387385"><ele>767.25</ele><time>2026-03-24T13:59:14.925Z</time></trkpt><trkpt lat="42.0573682" lon="13.4385866"><ele>767.5</ele><time>2026-03-24T13:59:15.925Z</time></trkpt><trkpt lat="42.0574007" lon="13.4384279"><ele>767.75</ele><time>2026-03-24T13:59:16.924Z</time></trkpt><trkpt lat="42.0574318" lon="13.4382769"><ele>768.0</ele><time>2026-03-24T13:59:17.924Z</time></trkpt><trkpt lat="42.0574591" lon="13.4381218"><ele>769.0</ele><time>2026-03-24T13:59:18.925Z</time></trkpt><trkpt lat="42.0574968" lon="13.4379899"><ele>770.0</ele><time>2026-03-24T13:59:19.924Z</time></trkpt><trkpt lat="42.0575318" lon="13.437876"><ele>771.0</ele><time>2026-03-24T13:59:20.925Z</time></trkpt><trkpt lat="42.0575761" lon="13.4377465"><ele>772.0</ele><time>2026-03-24T13:59:21.924Z</time></trkpt><trkpt lat="42.0576277" lon="13.4376273"><ele>773.0</ele><time>2026-03-24T13:59:22.924Z</time></trkpt><trkpt lat="42.0576922" lon="13.4375175"><ele>773.0</ele><time>2026-03-24T13:59:23.925Z</time></trkpt><trkpt lat="42.0577668" lon="13.4373853"><ele>773.0</ele><time>2026-03-24T13:59:24.925Z</time></trkpt><trkpt lat="42.0578395" lon="13.4372528"><ele>773.0</ele><time>2026-03-24T13:59:25.924Z</time></trkpt><trkpt lat="42.0579026" lon="13.4371435"><ele>773.0</ele><time>2026-03-24T13:59:26.924Z</time></trkpt><trkpt lat="42.0579735" lon="13.4370568"><ele>773.0</ele><time>2026-03-24T13:59:27.924Z</time></trkpt><trkpt lat="42.0580537" lon="13.4369805"><ele>773.1428571428571</ele><time>2026-03-24T13:59:28.924Z</time></trkpt><trkpt lat="42.0581316" lon="13.4369348"><ele>773.2857142857142</ele><time>2026-03-24T13:59:29.924Z</time></trkpt><trkpt lat="42.0582142" lon="13.4368985"><ele>773.4285714285714</ele><time>2026-03-24T13:59:30.924Z</time></trkpt><trkpt lat="42.0582836" lon="13.4368695"><ele>773.5714285714286</ele><time>2026-03-24T13:59:31.924Z</time></trkpt><trkpt lat="42.0583418" lon="13.4368275"><ele>773.7142857142858</ele><time>2026-03-24T13:59:33.924Z</time></trkpt><trkpt lat="42.0583576" lon="13.4367425"><ele>773.8571428571429</ele><time>2026-03-24T13:59:35.924Z</time></trkpt><trkpt lat="42.0583383" lon="13.4366578"><ele>774.0</ele><time>2026-03-24T13:59:36.924Z</time></trkpt><trkpt lat="42.0582986" lon="13.4365231"><ele>774.0</ele><time>2026-03-24T13:59:37.925Z</time></trkpt><trkpt lat="42.0582529" lon="13.4363795"><ele>774.0</ele><time>2026-03-24T13:59:38.924Z</time></trkpt><trkpt lat="42.058211" lon="13.4362278"><ele>774.0</ele><time>2026-03-24T13:59:39.925Z</time></trkpt><trkpt lat="42.0581742" lon="13.4360845"><ele>774.0</ele><time>2026-03-24T13:59:40.924Z</time></trkpt><trkpt lat="42.0581382" lon="13.4359586"><ele>774.0</ele><time>2026-03-24T13:59:41.924Z</time></trkpt><trkpt lat="42.058106" lon="13.4358544"><ele>773.8000000000001</ele><time>2026-03-24T13:59:42.925Z</time></trkpt><trkpt lat="42.0580746" lon="13.4357664"><ele>773.6</ele><time>2026-03-24T13:59:43.924Z</time></trkpt><trkpt lat="42.0580508" lon="13.435684"><ele>773.4</ele><time>2026-03-24T13:59:44.924Z</time></trkpt><trkpt lat="42.0580084" lon="13.4355293"><ele>773.2</ele><time>2026-03-24T13:59:46.924Z</time></trkpt><trkpt lat="42.0579469" lon="13.4353807"><ele>773.0</ele><time>2026-03-24T13:59:48.924Z</time></trkpt><trkpt lat="42.0579167" lon="13.4353017"><ele>772.8571428571429</ele><time>2026-03-24T13:59:49.924Z</time></trkpt><trkpt lat="42.0578873" lon="13.4352139"><ele>772.7142857142857</ele><time>2026-03-24T13:59:50.924Z</time></trkpt><trkpt lat="42.0578553" lon="13.435128"><ele>772.5714285714287</ele><time>2026-03-24T13:59:51.924Z</time></trkpt><trkpt lat="42.0578314" lon="13.4350432"><ele>772.4285714285714</ele><time>2026-03-24T13:59:52.925Z</time></trkpt><trkpt lat="42.0577996" lon="13.4349536"><ele>772.2857142857143</ele><time>2026-03-24T13:59:53.925Z</time></trkpt><trkpt lat="42.0577757" lon="13.4348704"><ele>772.1428571428572</ele><time>2026-03-24T13:59:54.924Z</time></trkpt><trkpt lat="42.0577569" lon="13.4347882"><ele>772.0</ele><time>2026-03-24T13:59:55.925Z</time></trkpt><trkpt lat="42.057744" lon="13.434657"><ele>771.9999999999999</ele><time>2026-03-24T13:59:57.925Z</time></trkpt><trkpt lat="42.0577757" lon="13.4345779"><ele>772.0</ele><time>2026-03-24T14:00:00.925Z</time></trkpt><trkpt lat="42.0577257" lon="13.4346315"><ele>772.0</ele><time>2026-03-24T14:00:05.925Z</time></trkpt><trkpt lat="42.0577646" lon="13.4347829"><ele>772.0</ele><time>2026-03-24T14:00:07.924Z</time></trkpt><trkpt lat="42.0577867" lon="13.4348848"><ele>771.9999999999999</ele><time>2026-03-24T14:00:08.924Z</time></trkpt><trkpt lat="42.0578133" lon="13.4349928"><ele>772.0</ele><time>2026-03-24T14:00:09.924Z</time></trkpt><trkpt lat="42.0578487" lon="13.4351096"><ele>772.0</ele><time>2026-03-24T14:00:10.924Z</time></trkpt><trkpt lat="42.0578919" lon="13.4352341"><ele>772.0</ele><time>2026-03-24T14:00:11.925Z</time></trkpt><trkpt lat="42.0579337" lon="13.4353468"><ele>772.0</ele><time>2026-03-24T14:00:12.925Z</time></trkpt><trkpt lat="42.0579716" lon="13.4354519"><ele>772.0</ele><time>2026-03-24T14:00:13.925Z</time></trkpt><trkpt lat="42.0580079" lon="13.4355526"><ele>772.0</ele><time>2026-03-24T14:00:14.924Z</time></trkpt><trkpt lat="42.0580406" lon="13.4356601"><ele>772.2</ele><time>2026-03-24T14:00:15.925Z</time></trkpt><trkpt lat="42.0580804" lon="13.4357757"><ele>772.4000000000001</ele><time>2026-03-24T14:00:16.924Z</time></trkpt><trkpt lat="42.0581189" lon="13.4359008"><ele>772.5999999999999</ele><time>2026-03-24T14:00:17.924Z</time></trkpt><trkpt lat="42.0581599" lon="13.4360288"><ele>772.8</ele><time>2026-03-24T14:00:18.925Z</time></trkpt><trkpt lat="42.0581966" lon="13.4361641"><ele>773.0</ele><time>2026-03-24T14:00:19.924Z</time></trkpt><trkpt lat="42.0582357" lon="13.4363052"><ele>773.1666666666667</ele><time>2026-03-24T14:00:20.925Z</time></trkpt><trkpt lat="42.0582739" lon="13.4364393"><ele>773.3333333333334</ele><time>2026-03-24T14:00:21.925Z</time></trkpt><trkpt lat="42.0583109" lon="13.4365641"><ele>773.5</ele><time>2026-03-24T14:00:22.924Z</time></trkpt><trkpt lat="42.058343" lon="13.4366763"><ele>773.6666666666667</ele><time>2026-03-24T14:00:23.924Z</time></trkpt><trkpt lat="42.0583683" lon="13.4367655"><ele>773.8333333333334</ele><time>2026-03-24T14:00:24.925Z</time></trkpt><trkpt lat="42.0583892" lon="13.4368488"><ele>774.0</ele><time>2026-03-24T14:00:26.925Z</time></trkpt><trkpt lat="42.0584112" lon="13.4369365"><ele>774.1666666666666</ele><time>2026-03-24T14:00:29.924Z</time></trkpt><trkpt lat="42.0584493" lon="13.4370454"><ele>774.3333333333333</ele><time>2026-03-24T14:00:31.924Z</time></trkpt><trkpt lat="42.0584785" lon="13.4371295"><ele>774.5</ele><time>2026-03-24T14:00:32.924Z</time></trkpt><trkpt lat="42.0585065" lon="13.4372218"><ele>774.6666666666666</ele><time>2026-03-24T14:00:33.924Z</time></trkpt><trkpt lat="42.0585347" lon="13.4373331"><ele>774.8333333333333</ele><time>2026-03-24T14:00:34.925Z</time></trkpt><trkpt lat="42.0585678" lon="13.4374559"><ele>775.0</ele><time>2026-03-24T14:00:35.924Z</time></trkpt><trkpt lat="42.0586025" lon="13.437575"><ele>774.9999999999999</ele><time>2026-03-24T14:00:36.924Z</time></trkpt><trkpt lat="42.0586314" lon="13.4376729"><ele>775.0</ele><time>2026-03-24T14:00:37.925Z</time></trkpt><trkpt lat="42.0586548" lon="13.4377561"><ele>775.0</ele><time>2026-03-24T14:00:38.924Z</time></trkpt><trkpt lat="42.0586862" lon="13.4378919"><ele>775.0</ele><time>2026-03-24T14:00:40.924Z</time></trkpt><trkpt lat="42.0587124" lon="13.4380053"><ele>774.9999999999999</ele><time>2026-03-24T14:00:42.925Z</time></trkpt><trkpt lat="42.0587779" lon="13.4380273"><ele>775.0</ele><time>2026-03-24T14:01:05.925Z</time></trkpt><trkpt lat="42.0588681" lon="13.4380587"><ele>774.9999999999999</ele><time>2026-03-24T14:01:07.925Z</time></trkpt><trkpt lat="42.0589897" lon="13.4380891"><ele>775.0</ele><time>2026-03-24T14:01:09.924Z</time></trkpt><trkpt lat="42.0590598" lon="13.4381056"><ele>775.0</ele><time>2026-03-24T14:01:10.924Z</time></trkpt><trkpt lat="42.0591333" lon="13.4381182"><ele>775.0</ele><time>2026-03-24T14:01:11.924Z</time></trkpt><trkpt lat="42.0592116" lon="13.4381298"><ele>774.9999999999999</ele><time>2026-03-24T14:01:12.925Z</time></trkpt><trkpt lat="42.0592942" lon="13.4381416"><ele>775.0</ele><time>2026-03-24T14:01:13.924Z</time></trkpt><trkpt lat="42.0593822" lon="13.4381521"><ele>775.1666666666666</ele><time>2026-03-24T14:01:14.925Z</time></trkpt><trkpt lat="42.0594685" lon="13.4381598"><ele>775.3333333333333</ele><time>2026-03-24T14:01:15.925Z</time></trkpt><trkpt lat="42.0595487" lon="13.4381707"><ele>775.5</ele><time>2026-03-24T14:01:16.925Z</time></trkpt><trkpt lat="42.0596192" lon="13.4381748"><ele>775.6666666666667</ele><time>2026-03-24T14:01:17.924Z</time></trkpt><trkpt lat="42.0597341" lon="13.4381729"><ele>775.8333333333334</ele><time>2026-03-24T14:01:19.925Z</time></trkpt><trkpt lat="42.0598162" lon="13.4381803"><ele>776.0</ele><time>2026-03-24T14:01:22.924Z</time></trkpt><trkpt lat="42.0598612" lon="13.4382421"><ele>776.0000000000001</ele><time>2026-03-24T14:01:24.924Z</time></trkpt><trkpt lat="42.0598881" lon="13.4383482"><ele>776.0</ele><time>2026-03-24T14:01:26.924Z</time></trkpt><trkpt lat="42.0599186" lon="13.4384878"><ele>776.0</ele><time>2026-03-24T14:01:28.925Z</time></trkpt><trkpt lat="42.0599422" lon="13.4385822"><ele>776.0</ele><time>2026-03-24T14:01:30.925Z</time></trkpt><trkpt lat="42.0600001" lon="13.4386373"><ele>776.0000000000001</ele><time>2026-03-24T14:01:32.924Z</time></trkpt><trkpt lat="42.060097" lon="13.4386488"><ele>776.0</ele><time>2026-03-24T14:01:34.924Z</time></trkpt><trkpt lat="42.0602108" lon="13.4386133"><ele>776.7142857142857</ele><time>2026-03-24T14:01:36.924Z</time></trkpt><trkpt lat="42.0602718" lon="13.4385919"><ele>777.4285714285714</ele><time>2026-03-24T14:01:37.925Z</time></trkpt><trkpt lat="42.0603359" lon="13.4385674"><ele>778.1428571428571</ele><time>2026-03-24T14:01:38.924Z</time></trkpt><trkpt lat="42.0604055" lon="13.438546"><ele>778.8571428571429</ele><time>2026-03-24T14:01:39.924Z</time></trkpt><trkpt lat="42.0604753" lon="13.4385254"><ele>779.5714285714287</ele><time>2026-03-24T14:01:40.925Z</time></trkpt><trkpt lat="42.0605384" lon="13.4385061"><ele>780.2857142857143</ele><time>2026-03-24T14:01:41.924Z</time></trkpt><trkpt lat="42.060647" lon="13.4384755"><ele>781.0</ele><time>2026-03-24T14:01:43.925Z</time></trkpt><trkpt lat="42.060745" lon="13.4384366"><ele>781.8333333333333</ele><time>2026-03-24T14:01:45.924Z</time></trkpt><trkpt lat="42.0608306" lon="13.438397"><ele>782.6666666666666</ele><time>2026-03-24T14:01:47.925Z</time></trkpt><trkpt lat="42.0608952" lon="13.4383681"><ele>783.5</ele><time>2026-03-24T14:01:49.925Z</time></trkpt><trkpt lat="42.0609627" lon="13.4382895"><ele>784.3333333333333</ele><time>2026-03-24T14:01:51.924Z</time></trkpt><trkpt lat="42.0610609" lon="13.4381927"><ele>785.1666666666666</ele><time>2026-03-24T14:01:53.924Z</time></trkpt><trkpt lat="42.0611109" lon="13.4381363"><ele>786.0</ele><time>2026-03-24T14:01:54.924Z</time></trkpt><trkpt lat="42.0611624" lon="13.4380785"><ele>786.0</ele><time>2026-03-24T14:01:55.924Z</time></trkpt><trkpt lat="42.0612527" lon="13.4380066"><ele>786.0</ele><time>2026-03-24T14:01:57.924Z</time></trkpt><trkpt lat="42.0613476" lon="13.4380103"><ele>786.0</ele><time>2026-03-24T14:01:59.925Z</time></trkpt><trkpt lat="42.0614559" lon="13.4380375"><ele>786.0</ele><time>2026-03-24T14:02:01.925Z</time></trkpt><trkpt lat="42.061541" lon="13.438083"><ele>786.0</ele><time>2026-03-24T14:02:03.924Z</time></trkpt><trkpt lat="42.0616147" lon="13.4381121"><ele>786.5999999999999</ele><time>2026-03-24T14:02:05.925Z</time></trkpt><trkpt lat="42.0616656" lon="13.4380514"><ele>787.2</ele><time>2026-03-24T14:02:07.924Z</time></trkpt><trkpt lat="42.0617432" lon="13.4378888"><ele>787.8</ele><time>2026-03-24T14:02:09.925Z</time></trkpt><trkpt lat="42.0618015" lon="13.4377871"><ele>788.4000000000001</ele><time>2026-03-24T14:02:10.924Z</time></trkpt><trkpt lat="42.0618661" lon="13.4376824"><ele>789.0</ele><time>2026-03-24T14:02:11.924Z</time></trkpt><trkpt lat="42.0619325" lon="13.4375732"><ele>789.0</ele><time>2026-03-24T14:02:12.924Z</time></trkpt><trkpt lat="42.0620049" lon="13.4374563"><ele>789.0</ele><time>2026-03-24T14:02:13.925Z</time></trkpt><trkpt lat="42.0620809" lon="13.4373368"><ele>789.0</ele><time>2026-03-24T14:02:14.924Z</time></trkpt><trkpt lat="42.0621582" lon="13.4372145"><ele>789.0</ele><time>2026-03-24T14:02:15.924Z</time></trkpt><trkpt lat="42.0622366" lon="13.4370918"><ele>789.0</ele><time>2026-03-24T14:02:16.924Z</time></trkpt><trkpt lat="42.0623171" lon="13.4369657"><ele>789.0</ele><time>2026-03-24T14:02:17.924Z</time></trkpt><trkpt lat="42.0623959" lon="13.4368396"><ele>789.0</ele><time>2026-03-24T14:02:18.924Z</time></trkpt><trkpt lat="42.0624739" lon="13.4367156"><ele>789.0</ele><time>2026-03-24T14:02:19.924Z</time></trkpt><trkpt lat="42.0625508" lon="13.4365969"><ele>789.6</ele><time>2026-03-24T14:02:20.924Z</time></trkpt><trkpt lat="42.0626265" lon="13.4364783"><ele>790.2</ele><time>2026-03-24T14:02:21.924Z</time></trkpt><trkpt lat="42.0627039" lon="13.4363652"><ele>790.8000000000001</ele><time>2026-03-24T14:02:22.924Z</time></trkpt><trkpt lat="42.0627728" lon="13.4362609"><ele>791.4000000000001</ele><time>2026-03-24T14:02:23.925Z</time></trkpt><trkpt lat="42.0628402" lon="13.4361636"><ele>792.0</ele><time>2026-03-24T14:02:24.924Z</time></trkpt><trkpt lat="42.0629047" lon="13.4360662"><ele>792.2</ele><time>2026-03-24T14:02:25.924Z</time></trkpt><trkpt lat="42.062968" lon="13.4359685"><ele>792.4000000000001</ele><time>2026-03-24T14:02:26.925Z</time></trkpt><trkpt lat="42.0630338" lon="13.4358834"><ele>792.5999999999999</ele><time>2026-03-24T14:02:27.924Z</time></trkpt><trkpt lat="42.0630896" lon="13.4357991"><ele>792.8</ele><time>2026-03-24T14:02:28.925Z</time></trkpt><trkpt lat="42.0631505" lon="13.4357073"><ele>793.0</ele><time>2026-03-24T14:02:29.924Z</time></trkpt><trkpt lat="42.063213" lon="13.4356151"><ele>792.9999999999999</ele><time>2026-03-24T14:02:30.924Z</time></trkpt><trkpt lat="42.0632713" lon="13.4355231"><ele>793.0</ele><time>2026-03-24T14:02:31.924Z</time></trkpt><trkpt lat="42.0633259" lon="13.4354449"><ele>793.0</ele><time>2026-03-24T14:02:32.924Z</time></trkpt><trkpt lat="42.0633681" lon="13.435379"><ele>793.0</ele><time>2026-03-24T14:02:33.924Z</time></trkpt><trkpt lat="42.0634476" lon="13.435266"><ele>792.9999999999999</ele><time>2026-03-24T14:02:35.925Z</time></trkpt><trkpt lat="42.0634993" lon="13.4351945"><ele>793.0</ele><time>2026-03-24T14:02:37.924Z</time></trkpt><trkpt lat="42.0635565" lon="13.4351121"><ele>794.0</ele><time>2026-03-24T14:02:40.924Z</time></trkpt><trkpt lat="42.0636479" lon="13.4349841"><ele>795.0</ele><time>2026-03-24T14:02:42.925Z</time></trkpt><trkpt lat="42.0637004" lon="13.4349034"><ele>796.0</ele><time>2026-03-24T14:02:43.925Z</time></trkpt><trkpt lat="42.0637636" lon="13.434811"><ele>797.0</ele><time>2026-03-24T14:02:44.924Z</time></trkpt><trkpt lat="42.0638375" lon="13.4347101"><ele>798.0</ele><time>2026-03-24T14:02:45.925Z</time></trkpt><trkpt lat="42.0639118" lon="13.4346081"><ele>798.0</ele><time>2026-03-24T14:02:46.924Z</time></trkpt><trkpt lat="42.063986" lon="13.4344941"><ele>798.0</ele><time>2026-03-24T14:02:47.924Z</time></trkpt><trkpt lat="42.0640664" lon="13.4343741"><ele>798.0</ele><time>2026-03-24T14:02:48.925Z</time></trkpt><trkpt lat="42.0641463" lon="13.4342577"><ele>798.0</ele><time>2026-03-24T14:02:49.925Z</time></trkpt><trkpt lat="42.0642278" lon="13.4341301"><ele>799.0</ele><time>2026-03-24T14:02:50.925Z</time></trkpt><trkpt lat="42.0643157" lon="13.4340096"><ele>800.0</ele><time>2026-03-24T14:02:51.924Z</time></trkpt><trkpt lat="42.0643957" lon="13.4338862"><ele>801.0</ele><time>2026-03-24T14:02:52.924Z</time></trkpt><trkpt lat="42.0644767" lon="13.4337703"><ele>802.0</ele><time>2026-03-24T14:02:53.924Z</time></trkpt><trkpt lat="42.0645537" lon="13.4336522"><ele>802.0</ele><time>2026-03-24T14:02:54.924Z</time></trkpt><trkpt lat="42.0646389" lon="13.433534"><ele>802.0</ele><time>2026-03-24T14:02:55.924Z</time></trkpt><trkpt lat="42.0647245" lon="13.4334133"><ele>802.0</ele><time>2026-03-24T14:02:56.924Z</time></trkpt><trkpt lat="42.0648091" lon="13.4332942"><ele>802.0</ele><time>2026-03-24T14:02:57.924Z</time></trkpt><trkpt lat="42.0648965" lon="13.4331687"><ele>802.5</ele><time>2026-03-24T14:02:58.924Z</time></trkpt><trkpt lat="42.0649828" lon="13.4330413"><ele>803.0</ele><time>2026-03-24T14:02:59.924Z</time></trkpt><trkpt lat="42.0650741" lon="13.4329127"><ele>803.5</ele><time>2026-03-24T14:03:00.924Z</time></trkpt><trkpt lat="42.0651643" lon="13.4327853"><ele>804.0</ele><time>2026-03-24T14:03:01.925Z</time></trkpt><trkpt lat="42.0652543" lon="13.4326592"><ele>804.0</ele><time>2026-03-24T14:03:02.924Z</time></trkpt><trkpt lat="42.0653372" lon="13.4325369"><ele>804.0</ele><time>2026-03-24T14:03:03.924Z</time></trkpt><trkpt lat="42.0654044" lon="13.4324504"><ele>804.0</ele><time>2026-03-24T14:03:04.924Z</time></trkpt><trkpt lat="42.0654706" lon="13.4323559"><ele>804.0</ele><time>2026-03-24T14:03:06.925Z</time></trkpt><trkpt lat="42.0655367" lon="13.4322415"><ele>804.0</ele><time>2026-03-24T14:03:09.924Z</time></trkpt><trkpt lat="42.0655753" lon="13.4321718"><ele>804.1666666666666</ele><time>2026-03-24T14:03:10.924Z</time></trkpt><trkpt lat="42.0656242" lon="13.4321019"><ele>804.3333333333333</ele><time>2026-03-24T14:03:11.924Z</time></trkpt><trkpt lat="42.0656728" lon="13.4320328"><ele>804.5</ele><time>2026-03-24T14:03:12.924Z</time></trkpt><trkpt lat="42.0657226" lon="13.4319517"><ele>804.6666666666666</ele><time>2026-03-24T14:03:13.924Z</time></trkpt><trkpt lat="42.0657781" lon="13.4318572"><ele>804.8333333333333</ele><time>2026-03-24T14:03:14.924Z</time></trkpt><trkpt lat="42.0658467" lon="13.4317564"><ele>805.0</ele><time>2026-03-24T14:03:15.924Z</time></trkpt><trkpt lat="42.0659193" lon="13.431663"><ele>805.0</ele><time>2026-03-24T14:03:16.924Z</time></trkpt><trkpt lat="42.0659988" lon="13.431551"><ele>805.0</ele><time>2026-03-24T14:03:17.924Z</time></trkpt><trkpt lat="42.0660802" lon="13.4314387"><ele>805.0</ele><time>2026-03-24T14:03:18.924Z</time></trkpt><trkpt lat="42.0661619" lon="13.4313305"><ele>805.0</ele><time>2026-03-24T14:03:19.924Z</time></trkpt><trkpt lat="42.0662391" lon="13.4312182"><ele>804.75</ele><time>2026-03-24T14:03:20.925Z</time></trkpt><trkpt lat="42.0663168" lon="13.4311013"><ele>804.5</ele><time>2026-03-24T14:03:21.924Z</time></trkpt><trkpt lat="42.0663971" lon="13.4309797"><ele>804.25</ele><time>2026-03-24T14:03:22.924Z</time></trkpt><trkpt lat="42.0664763" lon="13.4308554"><ele>804.0</ele><time>2026-03-24T14:03:23.924Z</time></trkpt><trkpt lat="42.0665607" lon="13.4307322"><ele>804.5</ele><time>2026-03-24T14:03:24.924Z</time></trkpt><trkpt lat="42.0666473" lon="13.4306079"><ele>805.0</ele><time>2026-03-24T14:03:25.925Z</time></trkpt><trkpt lat="42.066737" lon="13.4304736"><ele>805.5</ele><time>2026-03-24T14:03:26.924Z</time></trkpt><trkpt lat="42.0668348" lon="13.4303423"><ele>806.0</ele><time>2026-03-24T14:03:27.925Z</time></trkpt><trkpt lat="42.0669305" lon="13.4302279"><ele>806.0</ele><time>2026-03-24T14:03:28.925Z</time></trkpt><trkpt lat="42.0670348" lon="13.4301166"><ele>806.0</ele><time>2026-03-24T14:03:29.924Z</time></trkpt><trkpt lat="42.0671336" lon="13.4299975"><ele>806.0</ele><time>2026-03-24T14:03:30.924Z</time></trkpt><trkpt lat="42.067229" lon="13.4298714"><ele>806.0</ele><time>2026-03-24T14:03:31.925Z</time></trkpt><trkpt lat="42.0673222" lon="13.4297415"><ele>805.75</ele><time>2026-03-24T14:03:32.924Z</time></trkpt><trkpt lat="42.06742" lon="13.4296134"><ele>805.5</ele><time>2026-03-24T14:03:33.924Z</time></trkpt><trkpt lat="42.0675159" lon="13.4294897"><ele>805.25</ele><time>2026-03-24T14:03:34.924Z</time></trkpt><trkpt lat="42.0675974" lon="13.4293732"><ele>805.0</ele><time>2026-03-24T14:03:35.924Z</time></trkpt><trkpt lat="42.0676742" lon="13.4292631"><ele>806.0</ele><time>2026-03-24T14:03:36.924Z</time></trkpt><trkpt lat="42.0677414" lon="13.4291318"><ele>807.0</ele><time>2026-03-24T14:03:37.924Z</time></trkpt><trkpt lat="42.0678076" lon="13.4289888"><ele>808.0</ele><time>2026-03-24T14:03:38.924Z</time></trkpt><trkpt lat="42.0678836" lon="13.4288563"><ele>809.0</ele><time>2026-03-24T14:03:39.924Z</time></trkpt><trkpt lat="42.0679589" lon="13.4287225"><ele>809.0</ele><time>2026-03-24T14:03:40.924Z</time></trkpt><trkpt lat="42.0680381" lon="13.4285968"><ele>809.0</ele><time>2026-03-24T14:03:41.924Z</time></trkpt><trkpt lat="42.0681216" lon="13.4284727"><ele>809.0</ele><time>2026-03-24T14:03:42.925Z</time></trkpt><trkpt lat="42.0681989" lon="13.4283325"><ele>809.0</ele><time>2026-03-24T14:03:43.924Z</time></trkpt><trkpt lat="42.068265" lon="13.428182"><ele>809.75</ele><time>2026-03-24T14:03:44.925Z</time></trkpt><trkpt lat="42.0683267" lon="13.4280325"><ele>810.5</ele><time>2026-03-24T14:03:45.924Z</time></trkpt><trkpt lat="42.0683828" lon="13.4278797"><ele>811.25</ele><time>2026-03-24T14:03:46.924Z</time></trkpt><trkpt lat="42.0684456" lon="13.4277354"><ele>812.0</ele><time>2026-03-24T14:03:47.924Z</time></trkpt><trkpt lat="42.0685216" lon="13.4275913"><ele>812.0</ele><time>2026-03-24T14:03:48.924Z</time></trkpt><trkpt lat="42.0686159" lon="13.4274472"><ele>812.0</ele><time>2026-03-24T14:03:49.925Z</time></trkpt><trkpt lat="42.0687198" lon="13.4272979"><ele>812.0</ele><time>2026-03-24T14:03:50.925Z</time></trkpt><trkpt lat="42.0688317" lon="13.4271406"><ele>812.0</ele><time>2026-03-24T14:03:51.924Z</time></trkpt><trkpt lat="42.0689377" lon="13.4269981"><ele>812.0</ele><time>2026-03-24T14:03:52.924Z</time></trkpt><trkpt lat="42.0690423" lon="13.4268615"><ele>812.0</ele><time>2026-03-24T14:03:53.924Z</time></trkpt><trkpt lat="42.0691467" lon="13.4267255"><ele>812.0</ele><time>2026-03-24T14:03:54.924Z</time></trkpt><trkpt lat="42.0692475" lon="13.4265905"><ele>812.75</ele><time>2026-03-24T14:03:55.924Z</time></trkpt><trkpt lat="42.0693474" lon="13.4264533"><ele>813.5</ele><time>2026-03-24T14:03:56.925Z</time></trkpt><trkpt lat="42.0694486" lon="13.4263153"><ele>814.25</ele><time>2026-03-24T14:03:57.925Z</time></trkpt><trkpt lat="42.0695549" lon="13.4261867"><ele>815.0</ele><time>2026-03-24T14:03:58.924Z</time></trkpt><trkpt lat="42.0696634" lon="13.4260511"><ele>815.6666666666667</ele><time>2026-03-24T14:03:59.924Z</time></trkpt><trkpt lat="42.0697754" lon="13.4259108"><ele>816.3333333333333</ele><time>2026-03-24T14:04:00.924Z</time></trkpt><trkpt lat="42.069894" lon="13.4257682"><ele>817.0</ele><time>2026-03-24T14:04:01.924Z</time></trkpt><trkpt lat="42.0700163" lon="13.4256299"><ele>817.6666666666666</ele><time>2026-03-24T14:04:02.924Z</time></trkpt><trkpt lat="42.0701376" lon="13.4254965"><ele>818.3333333333333</ele><time>2026-03-24T14:04:03.924Z</time></trkpt><trkpt lat="42.070266" lon="13.4253776"><ele>819.0</ele><time>2026-03-24T14:04:04.924Z</time></trkpt><trkpt lat="42.070391" lon="13.4252646"><ele>819.6</ele><time>2026-03-24T14:04:05.924Z</time></trkpt><trkpt lat="42.0705079" lon="13.4251584"><ele>820.2</ele><time>2026-03-24T14:04:06.924Z</time></trkpt><trkpt lat="42.0705938" lon="13.4250738"><ele>820.8000000000001</ele><time>2026-03-24T14:04:07.924Z</time></trkpt><trkpt lat="42.0706711" lon="13.4250109"><ele>821.4000000000001</ele><time>2026-03-24T14:04:08.924Z</time></trkpt><trkpt lat="42.0707567" lon="13.4249395"><ele>822.0</ele><time>2026-03-24T14:04:09.924Z</time></trkpt><trkpt lat="42.0708455" lon="13.4248508"><ele>823.0</ele><time>2026-03-24T14:04:10.924Z</time></trkpt><trkpt lat="42.0709377" lon="13.4247503"><ele>824.0</ele><time>2026-03-24T14:04:11.924Z</time></trkpt><trkpt lat="42.0710394" lon="13.4246355"><ele>825.0</ele><time>2026-03-24T14:04:12.924Z</time></trkpt><trkpt lat="42.0711434" lon="13.4245326"><ele>826.0</ele><time>2026-03-24T14:04:13.924Z</time></trkpt><trkpt lat="42.0712527" lon="13.4244467"><ele>826.25</ele><time>2026-03-24T14:04:14.925Z</time></trkpt><trkpt lat="42.0713533" lon="13.4243535"><ele>826.5</ele><time>2026-03-24T14:04:15.924Z</time></trkpt><trkpt lat="42.0714421" lon="13.4242533"><ele>826.75</ele><time>2026-03-24T14:04:16.924Z</time></trkpt><trkpt lat="42.0715256" lon="13.4241534"><ele>827.0</ele><time>2026-03-24T14:04:17.924Z</time></trkpt><trkpt lat="42.0716074" lon="13.4240567"><ele>827.75</ele><time>2026-03-24T14:04:18.925Z</time></trkpt><trkpt lat="42.0716908" lon="13.4239632"><ele>828.5</ele><time>2026-03-24T14:04:19.924Z</time></trkpt><trkpt lat="42.0717851" lon="13.4238663"><ele>829.25</ele><time>2026-03-24T14:04:20.924Z</time></trkpt><trkpt lat="42.0718844" lon="13.4237575"><ele>830.0</ele><time>2026-03-24T14:04:21.924Z</time></trkpt><trkpt lat="42.0719935" lon="13.4236507"><ele>830.0</ele><time>2026-03-24T14:04:22.924Z</time></trkpt><trkpt lat="42.0721028" lon="13.4235288"><ele>830.0</ele><time>2026-03-24T14:04:23.924Z</time></trkpt><trkpt lat="42.072215" lon="13.423409"><ele>830.0</ele><time>2026-03-24T14:04:24.925Z</time></trkpt><trkpt lat="42.0723231" lon="13.4232879"><ele>830.0</ele><time>2026-03-24T14:04:25.924Z</time></trkpt><trkpt lat="42.0724295" lon="13.4231728"><ele>830.4</ele><time>2026-03-24T14:04:26.924Z</time></trkpt><trkpt lat="42.0725333" lon="13.4230716"><ele>830.8</ele><time>2026-03-24T14:04:27.924Z</time></trkpt><trkpt lat="42.0726268" lon="13.4229805"><ele>831.2</ele><time>2026-03-24T14:04:28.925Z</time></trkpt><trkpt lat="42.0727098" lon="13.4228985"><ele>831.6</ele><time>2026-03-24T14:04:29.924Z</time></trkpt><trkpt lat="42.0727838" lon="13.4228391"><ele>832.0</ele><time>2026-03-24T14:04:30.924Z</time></trkpt><trkpt lat="42.0728474" lon="13.4227934"><ele>832.0</ele><time>2026-03-24T14:04:31.924Z</time></trkpt><trkpt lat="42.0729019" lon="13.4227393"><ele>832.0</ele><time>2026-03-24T14:04:32.925Z</time></trkpt><trkpt lat="42.0729572" lon="13.4226758"><ele>832.0</ele><time>2026-03-24T14:04:33.924Z</time></trkpt><trkpt lat="42.0730157" lon="13.4226269"><ele>832.0</ele><time>2026-03-24T14:04:34.924Z</time></trkpt><trkpt lat="42.0730789" lon="13.4225878"><ele>832.0</ele><time>2026-03-24T14:04:35.924Z</time></trkpt><trkpt lat="42.0731529" lon="13.4225508"><ele>832.0</ele><time>2026-03-24T14:04:36.924Z</time></trkpt><trkpt lat="42.0732286" lon="13.4225129"><ele>832.0</ele><time>2026-03-24T14:04:37.924Z</time></trkpt><trkpt lat="42.0733094" lon="13.4224552"><ele>832.4999999999999</ele><time>2026-03-24T14:04:38.924Z</time></trkpt><trkpt lat="42.0733983" lon="13.4223891"><ele>833.0</ele><time>2026-03-24T14:04:39.925Z</time></trkpt><trkpt lat="42.0734925" lon="13.4223265"><ele>833.5</ele><time>2026-03-24T14:04:40.924Z</time></trkpt><trkpt lat="42.0735792" lon="13.4222814"><ele>834.0</ele><time>2026-03-24T14:04:41.924Z</time></trkpt><trkpt lat="42.0736501" lon="13.4222616"><ele>834.4999999999999</ele><time>2026-03-24T14:04:42.925Z</time></trkpt><trkpt lat="42.0737165" lon="13.422255"><ele>835.0</ele><time>2026-03-24T14:04:43.925Z</time></trkpt><trkpt lat="42.0737861" lon="13.4222629"><ele>834.9999999999999</ele><time>2026-03-24T14:04:44.925Z</time></trkpt><trkpt lat="42.0738454" lon="13.4223001"><ele>835.0</ele><time>2026-03-24T14:04:45.925Z</time></trkpt><trkpt lat="42.0739044" lon="13.4223335"><ele>835.0</ele><time>2026-03-24T14:04:46.924Z</time></trkpt><trkpt lat="42.0739664" lon="13.4223721"><ele>835.0</ele><time>2026-03-24T14:04:47.924Z</time></trkpt><trkpt lat="42.0740689" lon="13.4224142"><ele>834.9999999999999</ele><time>2026-03-24T14:04:49.925Z</time></trkpt><trkpt lat="42.0741695" lon="13.4223785"><ele>835.0</ele><time>2026-03-24T14:04:51.924Z</time></trkpt><trkpt lat="42.0742904" lon="13.4223227"><ele>834.8333333333333</ele><time>2026-03-24T14:04:53.924Z</time></trkpt><trkpt lat="42.0743912" lon="13.4222888"><ele>834.6666666666666</ele><time>2026-03-24T14:04:55.925Z</time></trkpt><trkpt lat="42.0744888" lon="13.4222579"><ele>834.5</ele><time>2026-03-24T14:04:57.924Z</time></trkpt><trkpt lat="42.0745693" lon="13.422261"><ele>834.3333333333333</ele><time>2026-03-24T14:05:01.925Z</time></trkpt><trkpt lat="42.0746326" lon="13.42229"><ele>834.1666666666666</ele><time>2026-03-24T14:05:03.925Z</time></trkpt><trkpt lat="42.0747191" lon="13.4222908"><ele>834.0</ele><time>2026-03-24T14:05:05.924Z</time></trkpt><trkpt lat="42.0748195" lon="13.4222525"><ele>834.0</ele><time>2026-03-24T14:05:07.925Z</time></trkpt><trkpt lat="42.0748824" lon="13.4222401"><ele>834.0</ele><time>2026-03-24T14:05:08.924Z</time></trkpt><trkpt lat="42.074955" lon="13.4222468"><ele>834.0</ele><time>2026-03-24T14:05:09.924Z</time></trkpt><trkpt lat="42.0750336" lon="13.4222692"><ele>834.0</ele><time>2026-03-24T14:05:10.924Z</time></trkpt><trkpt lat="42.0751122" lon="13.4223015"><ele>834.0</ele><time>2026-03-24T14:05:11.924Z</time></trkpt><trkpt lat="42.075212" lon="13.4223703"><ele>834.0</ele><time>2026-03-24T14:05:12.924Z</time></trkpt><trkpt lat="42.0753132" lon="13.4224334"><ele>833.6</ele><time>2026-03-24T14:05:13.924Z</time></trkpt><trkpt lat="42.0754142" lon="13.4224838"><ele>833.2</ele><time>2026-03-24T14:05:14.924Z</time></trkpt><trkpt lat="42.0755112" lon="13.4225343"><ele>832.8000000000001</ele><time>2026-03-24T14:05:15.924Z</time></trkpt><trkpt lat="42.0756132" lon="13.4225851"><ele>832.4000000000001</ele><time>2026-03-24T14:05:16.925Z</time></trkpt><trkpt lat="42.0757244" lon="13.4226234"><ele>832.0</ele><time>2026-03-24T14:05:17.924Z</time></trkpt><trkpt lat="42.0758474" lon="13.4226614"><ele>833.75</ele><time>2026-03-24T14:05:18.924Z</time></trkpt><trkpt lat="42.0759669" lon="13.4226972"><ele>835.5</ele><time>2026-03-24T14:05:19.924Z</time></trkpt><trkpt lat="42.0760976" lon="13.4227244"><ele>837.25</ele><time>2026-03-24T14:05:20.925Z</time></trkpt><trkpt lat="42.0762426" lon="13.4227531"><ele>839.0</ele><time>2026-03-24T14:05:21.925Z</time></trkpt><trkpt lat="42.0763675" lon="13.4227756"><ele>839.0</ele><time>2026-03-24T14:05:22.925Z</time></trkpt><trkpt lat="42.0764907" lon="13.422783"><ele>839.0</ele><time>2026-03-24T14:05:23.924Z</time></trkpt><trkpt lat="42.0766273" lon="13.4227667"><ele>839.0</ele><time>2026-03-24T14:05:24.925Z</time></trkpt><trkpt lat="42.0767858" lon="13.4227579"><ele>839.0</ele><time>2026-03-24T14:05:25.924Z</time></trkpt><trkpt lat="42.076949" lon="13.4227548"><ele>840.3333333333334</ele><time>2026-03-24T14:05:26.924Z</time></trkpt><trkpt lat="42.0771283" lon="13.4227644"><ele>841.6666666666667</ele><time>2026-03-24T14:05:27.924Z</time></trkpt><trkpt lat="42.0773134" lon="13.4227886"><ele>843.0</ele><time>2026-03-24T14:05:28.925Z</time></trkpt><trkpt lat="42.0774987" lon="13.4228037"><ele>844.6666666666667</ele><time>2026-03-24T14:05:29.925Z</time></trkpt><trkpt lat="42.0776904" lon="13.4228133"><ele>846.3333333333334</ele><time>2026-03-24T14:05:30.925Z</time></trkpt><trkpt lat="42.0778677" lon="13.4228233"><ele>848.0</ele><time>2026-03-24T14:05:31.925Z</time></trkpt><trkpt lat="42.0780294" lon="13.4228385"><ele>848.0</ele><time>2026-03-24T14:05:32.924Z</time></trkpt><trkpt lat="42.0781827" lon="13.4228668"><ele>848.0</ele><time>2026-03-24T14:05:33.924Z</time></trkpt><trkpt lat="42.0783214" lon="13.4228816"><ele>848.0</ele><time>2026-03-24T14:05:34.925Z</time></trkpt><trkpt lat="42.0784413" lon="13.4228892"><ele>848.0</ele><time>2026-03-24T14:05:35.924Z</time></trkpt><trkpt lat="42.0785524" lon="13.4228836"><ele>849.0</ele><time>2026-03-24T14:05:36.924Z</time></trkpt><trkpt lat="42.0786394" lon="13.4228762"><ele>850.0</ele><time>2026-03-24T14:05:37.924Z</time></trkpt><trkpt lat="42.0787043" lon="13.4228743"><ele>851.0</ele><time>2026-03-24T14:05:38.924Z</time></trkpt><trkpt lat="42.0788002" lon="13.422872"><ele>852.0</ele><time>2026-03-24T14:05:40.925Z</time></trkpt><trkpt lat="42.0788704" lon="13.4227948"><ele>853.0</ele><time>2026-03-24T14:05:42.924Z</time></trkpt><trkpt lat="42.0789434" lon="13.4226417"><ele>853.0</ele><time>2026-03-24T14:05:44.924Z</time></trkpt><trkpt lat="42.0790071" lon="13.4225482"><ele>853.0</ele><time>2026-03-24T14:05:45.924Z</time></trkpt><trkpt lat="42.0790763" lon="13.422447"><ele>853.0</ele><time>2026-03-24T14:05:46.924Z</time></trkpt><trkpt lat="42.0791192" lon="13.4223468"><ele>853.0</ele><time>2026-03-24T14:05:47.925Z</time></trkpt><trkpt lat="42.0791691" lon="13.4222518"><ele>853.0</ele><time>2026-03-24T14:05:48.924Z</time></trkpt><trkpt lat="42.0792462" lon="13.4221551"><ele>855.0</ele><time>2026-03-24T14:05:49.924Z</time></trkpt><trkpt lat="42.079343" lon="13.4220375"><ele>857.0</ele><time>2026-03-24T14:05:50.924Z</time></trkpt><trkpt lat="42.0794507" lon="13.421906"><ele>859.0</ele><time>2026-03-24T14:05:51.925Z</time></trkpt><trkpt lat="42.0795353" lon="13.4218013"><ele>861.0</ele><time>2026-03-24T14:05:52.925Z</time></trkpt><trkpt lat="42.0796087" lon="13.4217159"><ele>861.0</ele><time>2026-03-24T14:05:53.924Z</time></trkpt><trkpt lat="42.0796924" lon="13.4216484"><ele>861.0</ele><time>2026-03-24T14:05:54.924Z</time></trkpt><trkpt lat="42.0797797" lon="13.421602"><ele>861.0</ele><time>2026-03-24T14:05:55.924Z</time></trkpt><trkpt lat="42.0798752" lon="13.4215665"><ele>861.0</ele><time>2026-03-24T14:05:56.924Z</time></trkpt><trkpt lat="42.0799605" lon="13.4215416"><ele>861.0</ele><time>2026-03-24T14:05:57.924Z</time></trkpt><trkpt lat="42.0800302" lon="13.4215367"><ele>861.0</ele><time>2026-03-24T14:05:58.924Z</time></trkpt><trkpt lat="42.0801074" lon="13.4215576"><ele>861.0</ele><time>2026-03-24T14:05:59.924Z</time></trkpt><trkpt lat="42.0801865" lon="13.4216021"><ele>861.0</ele><time>2026-03-24T14:06:00.924Z</time></trkpt><trkpt lat="42.0802582" lon="13.4216623"><ele>861.0</ele><time>2026-03-24T14:06:01.924Z</time></trkpt><trkpt lat="42.0803126" lon="13.4217317"><ele>861.0</ele><time>2026-03-24T14:06:02.924Z</time></trkpt><trkpt lat="42.0803455" lon="13.4218249"><ele>861.0</ele><time>2026-03-24T14:06:03.924Z</time></trkpt><trkpt lat="42.08038" lon="13.4219589"><ele>861.0</ele><time>2026-03-24T14:06:04.924Z</time></trkpt><trkpt lat="42.0804201" lon="13.4221338"><ele>861.75</ele><time>2026-03-24T14:06:05.925Z</time></trkpt><trkpt lat="42.0804613" lon="13.4223334"><ele>862.5</ele><time>2026-03-24T14:06:06.925Z</time></trkpt><trkpt lat="42.0805028" lon="13.4225104"><ele>863.25</ele><time>2026-03-24T14:06:07.925Z</time></trkpt><trkpt lat="42.0805339" lon="13.4226507"><ele>864.0</ele><time>2026-03-24T14:06:08.924Z</time></trkpt><trkpt lat="42.0805804" lon="13.4227611"><ele>864.0</ele><time>2026-03-24T14:06:09.924Z</time></trkpt><trkpt lat="42.0806238" lon="13.4228635"><ele>864.0000000000001</ele><time>2026-03-24T14:06:10.924Z</time></trkpt><trkpt lat="42.0806547" lon="13.4229932"><ele>864.0000000000001</ele><time>2026-03-24T14:06:11.924Z</time></trkpt><trkpt lat="42.0806932" lon="13.4231507"><ele>864.0</ele><time>2026-03-24T14:06:12.924Z</time></trkpt><trkpt lat="42.0807231" lon="13.4232893"><ele>864.0</ele><time>2026-03-24T14:06:13.924Z</time></trkpt><trkpt lat="42.0807534" lon="13.4233966"><ele>864.6666666666666</ele><time>2026-03-24T14:06:14.924Z</time></trkpt><trkpt lat="42.0807912" lon="13.4234764"><ele>865.3333333333333</ele><time>2026-03-24T14:06:15.924Z</time></trkpt><trkpt lat="42.0808461" lon="13.4235361"><ele>866.0</ele><time>2026-03-24T14:06:16.924Z</time></trkpt><trkpt lat="42.080923" lon="13.423568"><ele>866.6666666666666</ele><time>2026-03-24T14:06:17.925Z</time></trkpt><trkpt lat="42.0810191" lon="13.4235782"><ele>867.3333333333333</ele><time>2026-03-24T14:06:18.925Z</time></trkpt><trkpt lat="42.0811416" lon="13.4235741"><ele>868.0</ele><time>2026-03-24T14:06:19.924Z</time></trkpt><trkpt lat="42.0812854" lon="13.4235601"><ele>868.0</ele><time>2026-03-24T14:06:20.924Z</time></trkpt><trkpt lat="42.0814485" lon="13.4235448"><ele>868.0</ele><time>2026-03-24T14:06:21.924Z</time></trkpt><trkpt lat="42.0816209" lon="13.4235283"><ele>868.0</ele><time>2026-03-24T14:06:22.924Z</time></trkpt><trkpt lat="42.0817695" lon="13.4235114"><ele>869.0</ele><time>2026-03-24T14:06:23.924Z</time></trkpt><trkpt lat="42.0819007" lon="13.4234841"><ele>870.0</ele><time>2026-03-24T14:06:24.924Z</time></trkpt><trkpt lat="42.0820386" lon="13.4234376"><ele>871.0</ele><time>2026-03-24T14:06:25.924Z</time></trkpt><trkpt lat="42.0821898" lon="13.4233971"><ele>872.0</ele><time>2026-03-24T14:06:26.924Z</time></trkpt><trkpt lat="42.0823372" lon="13.4233716"><ele>873.25</ele><time>2026-03-24T14:06:27.925Z</time></trkpt><trkpt lat="42.0824619" lon="13.4233537"><ele>874.5</ele><time>2026-03-24T14:06:28.924Z</time></trkpt><trkpt lat="42.0825943" lon="13.4233102"><ele>875.75</ele><time>2026-03-24T14:06:29.924Z</time></trkpt><trkpt lat="42.0827449" lon="13.4232687"><ele>877.0</ele><time>2026-03-24T14:06:30.924Z</time></trkpt><trkpt lat="42.0828631" lon="13.4232322"><ele>876.9999999999999</ele><time>2026-03-24T14:06:31.924Z</time></trkpt><trkpt lat="42.082957" lon="13.4231898"><ele>877.0</ele><time>2026-03-24T14:06:32.924Z</time></trkpt><trkpt lat="42.0830278" lon="13.4231869"><ele>877.0</ele><time>2026-03-24T14:06:33.924Z</time></trkpt><trkpt lat="42.0831028" lon="13.4231683"><ele>877.0</ele><time>2026-03-24T14:06:34.925Z</time></trkpt><trkpt lat="42.083139" lon="13.4232737"><ele>876.9999999999999</ele><time>2026-03-24T14:06:35.925Z</time></trkpt><trkpt lat="42.0831705" lon="13.4233553"><ele>877.0</ele><time>2026-03-24T14:06:36.924Z</time></trkpt><trkpt lat="42.0832199" lon="13.4234939"><ele>876.9999999999999</ele><time>2026-03-24T14:06:37.924Z</time></trkpt><trkpt lat="42.0832639" lon="13.4236308"><ele>877.0</ele><time>2026-03-24T14:06:38.924Z</time></trkpt><trkpt lat="42.0832968" lon="13.4237348"><ele>877.0</ele><time>2026-03-24T14:06:39.924Z</time></trkpt><trkpt lat="42.0833244" lon="13.4238122"><ele>877.0</ele><time>2026-03-24T14:06:40.924Z</time></trkpt><trkpt lat="42.0833721" lon="13.4239186"><ele>876.9999999999999</ele><time>2026-03-24T14:06:42.925Z</time></trkpt><trkpt lat="42.0834328" lon="13.4239659"><ele>877.0</ele><time>2026-03-24T14:06:44.924Z</time></trkpt><trkpt lat="42.0835653" lon="13.424006"><ele>877.1666666666666</ele><time>2026-03-24T14:06:46.925Z</time></trkpt><trkpt lat="42.0836522" lon="13.4240105"><ele>877.3333333333333</ele><time>2026-03-24T14:06:47.924Z</time></trkpt><trkpt lat="42.0837436" lon="13.4240134"><ele>877.5</ele><time>2026-03-24T14:06:48.924Z</time></trkpt><trkpt lat="42.0838179" lon="13.424019"><ele>877.6666666666667</ele><time>2026-03-24T14:06:49.925Z</time></trkpt><trkpt lat="42.0839228" lon="13.4240265"><ele>877.8333333333334</ele><time>2026-03-24T14:06:51.925Z</time></trkpt><trkpt lat="42.0840069" lon="13.4240139"><ele>878.0</ele><time>2026-03-24T14:06:54.924Z</time></trkpt><trkpt lat="42.0840822" lon="13.4239882"><ele>878.0000000000001</ele><time>2026-03-24T14:06:56.924Z</time></trkpt><trkpt lat="42.084153" lon="13.4239349"><ele>878.0</ele><time>2026-03-24T14:06:59.925Z</time></trkpt><trkpt lat="42.0841619" lon="13.4238434"><ele>878.0</ele><time>2026-03-24T14:07:01.925Z</time></trkpt><trkpt lat="42.0841351" lon="13.4237661"><ele>878.0</ele><time>2026-03-24T14:07:04.925Z</time></trkpt><trkpt lat="42.0841496" lon="13.42388"><ele>878.0000000000001</ele><time>2026-03-24T14:07:08.924Z</time></trkpt><trkpt lat="42.0840956" lon="13.4239516"><ele>878.0</ele><time>2026-03-24T14:07:10.924Z</time></trkpt><trkpt lat="42.0840036" lon="13.423989"><ele>878.0000000000001</ele><time>2026-03-24T14:07:12.924Z</time></trkpt><trkpt lat="42.0839312" lon="13.4240008"><ele>878.0</ele><time>2026-03-24T14:07:13.924Z</time></trkpt><trkpt lat="42.0838528" lon="13.4239996"><ele>878.0</ele><time>2026-03-24T14:07:14.924Z</time></trkpt><trkpt lat="42.0837548" lon="13.4239954"><ele>878.0</ele><time>2026-03-24T14:07:15.924Z</time></trkpt><trkpt lat="42.0836693" lon="13.4239935"><ele>878.0000000000001</ele><time>2026-03-24T14:07:16.924Z</time></trkpt><trkpt lat="42.0835864" lon="13.423987"><ele>878.0</ele><time>2026-03-24T14:07:17.925Z</time></trkpt><trkpt lat="42.0835117" lon="13.4239798"><ele>878.0</ele><time>2026-03-24T14:07:18.925Z</time></trkpt><trkpt lat="42.0833984" lon="13.4239686"><ele>878.0</ele><time>2026-03-24T14:07:20.925Z</time></trkpt><trkpt lat="42.083285" lon="13.4240076"><ele>878.0</ele><time>2026-03-24T14:07:22.924Z</time></trkpt><trkpt lat="42.0832047" lon="13.4240434"><ele>878.0</ele><time>2026-03-24T14:07:23.924Z</time></trkpt><trkpt lat="42.0831357" lon="13.4240749"><ele>878.0</ele><time>2026-03-24T14:07:24.924Z</time></trkpt><trkpt lat="42.0830813" lon="13.4241614"><ele>878.0</ele><time>2026-03-24T14:07:26.924Z</time></trkpt><trkpt lat="42.0831311" lon="13.4242446"><ele>878.0</ele><time>2026-03-24T14:07:28.924Z</time></trkpt><trkpt lat="42.0832005" lon="13.4242562"><ele>878.0</ele><time>2026-03-24T14:07:29.925Z</time></trkpt><trkpt lat="42.0832757" lon="13.4242673"><ele>878.0</ele><time>2026-03-24T14:07:30.925Z</time></trkpt><trkpt lat="42.0833611" lon="13.4243609"><ele>878.0</ele><time>2026-03-24T14:07:32.925Z</time></trkpt><trkpt lat="42.0833792" lon="13.4245242"><ele>878.0</ele><time>2026-03-24T14:07:34.924Z</time></trkpt><trkpt lat="42.0833655" lon="13.4246461"><ele>878.0</ele><time>2026-03-24T14:07:35.924Z</time></trkpt><trkpt lat="42.0833472" lon="13.4247881"><ele>878.0</ele><time>2026-03-24T14:07:36.924Z</time></trkpt><trkpt lat="42.0833386" lon="13.4249492"><ele>878.0</ele><time>2026-03-24T14:07:37.924Z</time></trkpt><trkpt lat="42.0833436" lon="13.4251236"><ele>878.0</ele><time>2026-03-24T14:07:38.924Z</time></trkpt><trkpt lat="42.0833602" lon="13.4253063"><ele>879.0</ele><time>2026-03-24T14:07:39.924Z</time></trkpt><trkpt lat="42.0833813" lon="13.4254827"><ele>880.0</ele><time>2026-03-24T14:07:40.924Z</time></trkpt><trkpt lat="42.0833979" lon="13.4256488"><ele>881.0</ele><time>2026-03-24T14:07:41.925Z</time></trkpt><trkpt lat="42.0834107" lon="13.4257955"><ele>882.0</ele><time>2026-03-24T14:07:42.924Z</time></trkpt><trkpt lat="42.0834139" lon="13.4259398"><ele>882.0</ele><time>2026-03-24T14:07:43.924Z</time></trkpt><trkpt lat="42.0834017" lon="13.4260732"><ele>882.0</ele><time>2026-03-24T14:07:44.925Z</time></trkpt><trkpt lat="42.0833804" lon="13.4262116"><ele>882.0</ele><time>2026-03-24T14:07:45.925Z</time></trkpt><trkpt lat="42.0833773" lon="13.4263381"><ele>882.0</ele><time>2026-03-24T14:07:46.924Z</time></trkpt><trkpt lat="42.0833879" lon="13.426478"><ele>882.0</ele><time>2026-03-24T14:07:47.925Z</time></trkpt><trkpt lat="42.0834007" lon="13.4266017"><ele>881.6666666666666</ele><time>2026-03-24T14:07:48.924Z</time></trkpt><trkpt lat="42.0834125" lon="13.4267131"><ele>881.3333333333333</ele><time>2026-03-24T14:07:49.925Z</time></trkpt><trkpt lat="42.0834069" lon="13.4268043"><ele>881.0</ele><time>2026-03-24T14:07:50.924Z</time></trkpt><trkpt lat="42.0833906" lon="13.4269016"><ele>880.6666666666666</ele><time>2026-03-24T14:07:51.924Z</time></trkpt><trkpt lat="42.0833509" lon="13.4270104"><ele>880.3333333333333</ele><time>2026-03-24T14:07:52.925Z</time></trkpt><trkpt lat="42.0832912" lon="13.4271387"><ele>880.0</ele><time>2026-03-24T14:07:53.925Z</time></trkpt><trkpt lat="42.0832325" lon="13.4272778"><ele>877.8</ele><time>2026-03-24T14:07:54.924Z</time></trkpt><trkpt lat="42.0831904" lon="13.4274382"><ele>875.6</ele><time>2026-03-24T14:07:55.924Z</time></trkpt><trkpt lat="42.0831521" lon="13.4275745"><ele>873.4000000000001</ele><time>2026-03-24T14:07:56.924Z</time></trkpt><trkpt lat="42.0831278" lon="13.4277078"><ele>871.2</ele><time>2026-03-24T14:07:57.924Z</time></trkpt><trkpt lat="42.0831075" lon="13.4278251"><ele>869.0</ele><time>2026-03-24T14:07:58.924Z</time></trkpt><trkpt lat="42.0830987" lon="13.4279178"><ele>869.3333333333334</ele><time>2026-03-24T14:07:59.925Z</time></trkpt><trkpt lat="42.0830971" lon="13.4280033"><ele>869.6666666666667</ele><time>2026-03-24T14:08:00.925Z</time></trkpt><trkpt lat="42.083124" lon="13.4281511"><ele>870.0</ele><time>2026-03-24T14:08:02.924Z</time></trkpt><trkpt lat="42.0831647" lon="13.4282336"><ele>870.3333333333333</ele><time>2026-03-24T14:08:03.925Z</time></trkpt><trkpt lat="42.0832065" lon="13.4283156"><ele>870.6666666666666</ele><time>2026-03-24T14:08:04.924Z</time></trkpt><trkpt lat="42.0832438" lon="13.428386"><ele>871.0</ele><time>2026-03-24T14:08:05.924Z</time></trkpt><trkpt lat="42.08328" lon="13.4284599"><ele>872.8333333333333</ele><time>2026-03-24T14:08:06.924Z</time></trkpt><trkpt lat="42.083317" lon="13.4285326"><ele>874.6666666666666</ele><time>2026-03-24T14:08:07.925Z</time></trkpt><trkpt lat="42.0833532" lon="13.4286071"><ele>876.5</ele><time>2026-03-24T14:08:08.924Z</time></trkpt><trkpt lat="42.0834169" lon="13.4287512"><ele>878.3333333333333</ele><time>2026-03-24T14:08:10.925Z</time></trkpt><trkpt lat="42.0834549" lon="13.4288594"><ele>880.1666666666666</ele><time>2026-03-24T14:08:12.924Z</time></trkpt><trkpt lat="42.0834678" lon="13.428969"><ele>882.0</ele><time>2026-03-24T14:08:15.924Z</time></trkpt><trkpt lat="42.0835143" lon="13.4290618"><ele>882.2</ele><time>2026-03-24T14:08:18.925Z</time></trkpt><trkpt lat="42.0835902" lon="13.4291084"><ele>882.4000000000001</ele><time>2026-03-24T14:08:20.924Z</time></trkpt><trkpt lat="42.0836641" lon="13.4291224"><ele>882.5999999999999</ele><time>2026-03-24T14:08:21.924Z</time></trkpt><trkpt lat="42.0837508" lon="13.4291241"><ele>882.8</ele><time>2026-03-24T14:08:22.925Z</time></trkpt><trkpt lat="42.0838682" lon="13.4291068"><ele>883.0</ele><time>2026-03-24T14:08:23.924Z</time></trkpt><trkpt lat="42.0840167" lon="13.4290775"><ele>884.0</ele><time>2026-03-24T14:08:24.925Z</time></trkpt><trkpt lat="42.0841892" lon="13.4290414"><ele>885.0</ele><time>2026-03-24T14:08:25.925Z</time></trkpt><trkpt lat="42.0843895" lon="13.4290018"><ele>886.0</ele><time>2026-03-24T14:08:26.924Z</time></trkpt><trkpt lat="42.0846061" lon="13.4289508"><ele>886.0</ele><time>2026-03-24T14:08:27.925Z</time></trkpt><trkpt lat="42.0848291" lon="13.4288807"><ele>886.0</ele><time>2026-03-24T14:08:28.924Z</time></trkpt><trkpt lat="42.0850649" lon="13.4287903"><ele>889.5</ele><time>2026-03-24T14:08:29.924Z</time></trkpt><trkpt lat="42.0853063" lon="13.4286726"><ele>893.0</ele><time>2026-03-24T14:08:30.925Z</time></trkpt><trkpt lat="42.0855583" lon="13.4285397"><ele>897.5</ele><time>2026-03-24T14:08:31.924Z</time></trkpt><trkpt lat="42.0858056" lon="13.4283989"><ele>902.0</ele><time>2026-03-24T14:08:32.924Z</time></trkpt><trkpt lat="42.0860476" lon="13.4282627"><ele>902.0</ele><time>2026-03-24T14:08:33.924Z</time></trkpt><trkpt lat="42.086279" lon="13.4281245"><ele>902.0</ele><time>2026-03-24T14:08:34.925Z</time></trkpt><trkpt lat="42.0865041" lon="13.4279949"><ele>904.5</ele><time>2026-03-24T14:08:35.925Z</time></trkpt><trkpt lat="42.086721" lon="13.4278706"><ele>907.0</ele><time>2026-03-24T14:08:36.925Z</time></trkpt><trkpt lat="42.086933" lon="13.4277503"><ele>907.0</ele><time>2026-03-24T14:08:37.925Z</time></trkpt><trkpt lat="42.0871298" lon="13.4276377"><ele>907.0</ele><time>2026-03-24T14:08:38.924Z</time></trkpt><trkpt lat="42.0873184" lon="13.427526"><ele>907.0</ele><time>2026-03-24T14:08:39.924Z</time></trkpt><trkpt lat="42.0875079" lon="13.4274148"><ele>908.3333333333333</ele><time>2026-03-24T14:08:40.924Z</time></trkpt><trkpt lat="42.0876987" lon="13.4273049"><ele>909.6666666666667</ele><time>2026-03-24T14:08:41.924Z</time></trkpt><trkpt lat="42.0878902" lon="13.4271992"><ele>911.0</ele><time>2026-03-24T14:08:42.924Z</time></trkpt><trkpt lat="42.088083" lon="13.4270937"><ele>912.3333333333334</ele><time>2026-03-24T14:08:43.924Z</time></trkpt><trkpt lat="42.0882779" lon="13.4269874"><ele>913.6666666666667</ele><time>2026-03-24T14:08:44.925Z</time></trkpt><trkpt lat="42.0884756" lon="13.4268757"><ele>915.0</ele><time>2026-03-24T14:08:45.925Z</time></trkpt><trkpt lat="42.0886794" lon="13.426771"><ele>915.0</ele><time>2026-03-24T14:08:46.924Z</time></trkpt><trkpt lat="42.0888859" lon="13.4266731"><ele>915.0</ele><time>2026-03-24T14:08:47.925Z</time></trkpt><trkpt lat="42.089096" lon="13.4265777"><ele>915.0</ele><time>2026-03-24T14:08:48.924Z</time></trkpt><trkpt lat="42.0893109" lon="13.4264849"><ele>918.5</ele><time>2026-03-24T14:08:49.925Z</time></trkpt><trkpt lat="42.089531" lon="13.4264069"><ele>922.0</ele><time>2026-03-24T14:08:50.924Z</time></trkpt><trkpt lat="42.08975" lon="13.4263367"><ele>923.0</ele><time>2026-03-24T14:08:51.925Z</time></trkpt><trkpt lat="42.0899751" lon="13.4262768"><ele>924.0</ele><time>2026-03-24T14:08:52.924Z</time></trkpt><trkpt lat="42.0902016" lon="13.4262256"><ele>924.0</ele><time>2026-03-24T14:08:53.925Z</time></trkpt><trkpt lat="42.0904301" lon="13.4261724"><ele>924.0</ele><time>2026-03-24T14:08:54.924Z</time></trkpt><trkpt lat="42.0906506" lon="13.4261116"><ele>926.0</ele><time>2026-03-24T14:08:55.925Z</time></trkpt><trkpt lat="42.0908611" lon="13.4260312"><ele>928.0</ele><time>2026-03-24T14:08:56.924Z</time></trkpt><trkpt lat="42.0910573" lon="13.4259263"><ele>930.0</ele><time>2026-03-24T14:08:57.924Z</time></trkpt><trkpt lat="42.0912485" lon="13.4258049"><ele>930.0</ele><time>2026-03-24T14:08:58.924Z</time></trkpt><trkpt lat="42.09143" lon="13.4256748"><ele>930.0</ele><time>2026-03-24T14:08:59.924Z</time></trkpt><trkpt lat="42.0915901" lon="13.4255323"><ele>930.0</ele><time>2026-03-24T14:09:00.925Z</time></trkpt><trkpt lat="42.0917344" lon="13.4253886"><ele>931.0</ele><time>2026-03-24T14:09:01.925Z</time></trkpt><trkpt lat="42.0918706" lon="13.4252395"><ele>932.0</ele><time>2026-03-24T14:09:02.925Z</time></trkpt><trkpt lat="42.0919831" lon="13.4250953"><ele>933.0</ele><time>2026-03-24T14:09:03.924Z</time></trkpt><trkpt lat="42.0920729" lon="13.4249484"><ele>933.0</ele><time>2026-03-24T14:09:04.925Z</time></trkpt><trkpt lat="42.0921539" lon="13.4247906"><ele>933.0</ele><time>2026-03-24T14:09:05.924Z</time></trkpt><trkpt lat="42.0922393" lon="13.4246227"><ele>933.0</ele><time>2026-03-24T14:09:06.924Z</time></trkpt><trkpt lat="42.0923266" lon="13.4244475"><ele>934.3333333333333</ele><time>2026-03-24T14:09:07.924Z</time></trkpt><trkpt lat="42.092426" lon="13.4242542"><ele>935.6666666666666</ele><time>2026-03-24T14:09:08.924Z</time></trkpt><trkpt lat="42.092534" lon="13.4240505"><ele>937.0</ele><time>2026-03-24T14:09:09.924Z</time></trkpt><trkpt lat="42.0926479" lon="13.4238427"><ele>936.0</ele><time>2026-03-24T14:09:10.924Z</time></trkpt><trkpt lat="42.0927673" lon="13.4236265"><ele>935.0</ele><time>2026-03-24T14:09:11.924Z</time></trkpt><trkpt lat="42.0928877" lon="13.4234028"><ele>934.0</ele><time>2026-03-24T14:09:12.925Z</time></trkpt><trkpt lat="42.09301" lon="13.4231728"><ele>933.6666666666666</ele><time>2026-03-24T14:09:13.924Z</time></trkpt><trkpt lat="42.0931278" lon="13.4229267"><ele>933.3333333333333</ele><time>2026-03-24T14:09:14.924Z</time></trkpt><trkpt lat="42.0932368" lon="13.422673"><ele>933.0</ele><time>2026-03-24T14:09:15.925Z</time></trkpt><trkpt lat="42.0933379" lon="13.4224029"><ele>932.3333333333333</ele><time>2026-03-24T14:09:16.925Z</time></trkpt><trkpt lat="42.093426" lon="13.4221268"><ele>931.6666666666666</ele><time>2026-03-24T14:09:17.924Z</time></trkpt><trkpt lat="42.0935155" lon="13.4218563"><ele>931.0</ele><time>2026-03-24T14:09:18.925Z</time></trkpt><trkpt lat="42.0936058" lon="13.4215801"><ele>929.0</ele><time>2026-03-24T14:09:19.924Z</time></trkpt><trkpt lat="42.0936987" lon="13.4213007"><ele>927.0</ele><time>2026-03-24T14:09:20.925Z</time></trkpt><trkpt lat="42.093793" lon="13.4210268"><ele>927.0</ele><time>2026-03-24T14:09:21.924Z</time></trkpt><trkpt lat="42.0938816" lon="13.4207529"><ele>927.0</ele><time>2026-03-24T14:09:22.925Z</time></trkpt><trkpt lat="42.0939605" lon="13.4204773"><ele>927.0</ele><time>2026-03-24T14:09:23.924Z</time></trkpt><trkpt lat="42.0940221" lon="13.4201914"><ele>926.3333333333333</ele><time>2026-03-24T14:09:24.925Z</time></trkpt><trkpt lat="42.0940633" lon="13.4199001"><ele>925.6666666666666</ele><time>2026-03-24T14:09:25.925Z</time></trkpt><trkpt lat="42.0940971" lon="13.41961"><ele>925.0</ele><time>2026-03-24T14:09:26.924Z</time></trkpt><trkpt lat="42.094126" lon="13.4193193"><ele>924.3333333333333</ele><time>2026-03-24T14:09:27.924Z</time></trkpt><trkpt lat="42.0941515" lon="13.4190333"><ele>923.6666666666667</ele><time>2026-03-24T14:09:28.924Z</time></trkpt><trkpt lat="42.0941752" lon="13.4187659"><ele>923.0</ele><time>2026-03-24T14:09:29.925Z</time></trkpt><trkpt lat="42.0941867" lon="13.4185225"><ele>922.2</ele><time>2026-03-24T14:09:30.925Z</time></trkpt><trkpt lat="42.0941796" lon="13.4183242"><ele>921.4</ele><time>2026-03-24T14:09:31.924Z</time></trkpt><trkpt lat="42.094163" lon="13.4181713"><ele>920.6000000000001</ele><time>2026-03-24T14:09:32.925Z</time></trkpt><trkpt lat="42.0941479" lon="13.4180594"><ele>919.8000000000001</ele><time>2026-03-24T14:09:33.924Z</time></trkpt><trkpt lat="42.0941361" lon="13.4179259"><ele>919.0</ele><time>2026-03-24T14:09:35.925Z</time></trkpt><trkpt lat="42.094084" lon="13.4178069"><ele>918.25</ele><time>2026-03-24T14:10:35.924Z</time></trkpt><trkpt lat="42.0940239" lon="13.4176288"><ele>917.5</ele><time>2026-03-24T14:10:37.924Z</time></trkpt><trkpt lat="42.0939813" lon="13.4174955"><ele>916.75</ele><time>2026-03-24T14:10:38.925Z</time></trkpt><trkpt lat="42.0939418" lon="13.4173406"><ele>916.0</ele><time>2026-03-24T14:10:39.924Z</time></trkpt><trkpt lat="42.0938972" lon="13.4171629"><ele>915.0</ele><time>2026-03-24T14:10:40.924Z</time></trkpt><trkpt lat="42.0938491" lon="13.4169777"><ele>914.0</ele><time>2026-03-24T14:10:41.924Z</time></trkpt><trkpt lat="42.0937975" lon="13.4167805"><ele>913.0</ele><time>2026-03-24T14:10:42.924Z</time></trkpt><trkpt lat="42.0937423" lon="13.4165749"><ele>913.0</ele><time>2026-03-24T14:10:43.924Z</time></trkpt><trkpt lat="42.0936843" lon="13.4163557"><ele>913.0</ele><time>2026-03-24T14:10:44.925Z</time></trkpt><trkpt lat="42.0936269" lon="13.4161316"><ele>913.0</ele><time>2026-03-24T14:10:45.924Z</time></trkpt><trkpt lat="42.0935753" lon="13.4159133"><ele>911.6666666666666</ele><time>2026-03-24T14:10:46.925Z</time></trkpt><trkpt lat="42.0935206" lon="13.4156916"><ele>910.3333333333333</ele><time>2026-03-24T14:10:47.925Z</time></trkpt><trkpt lat="42.0934628" lon="13.4154652"><ele>909.0</ele><time>2026-03-24T14:10:48.924Z</time></trkpt><trkpt lat="42.0934062" lon="13.4152336"><ele>908.3333333333333</ele><time>2026-03-24T14:10:49.925Z</time></trkpt><trkpt lat="42.0933531" lon="13.4149948"><ele>907.6666666666666</ele><time>2026-03-24T14:10:50.924Z</time></trkpt><trkpt lat="42.0933012" lon="13.4147517"><ele>907.0</ele><time>2026-03-24T14:10:51.924Z</time></trkpt><trkpt lat="42.0932554" lon="13.414502"><ele>905.6666666666666</ele><time>2026-03-24T14:10:52.925Z</time></trkpt><trkpt lat="42.0932153" lon="13.4142441"><ele>904.3333333333333</ele><time>2026-03-24T14:10:53.924Z</time></trkpt><trkpt lat="42.0931792" lon="13.4139789"><ele>903.0</ele><time>2026-03-24T14:10:54.924Z</time></trkpt><trkpt lat="42.0931413" lon="13.4137007"><ele>901.6666666666667</ele><time>2026-03-24T14:10:55.924Z</time></trkpt><trkpt lat="42.0931064" lon="13.4134125"><ele>900.3333333333334</ele><time>2026-03-24T14:10:56.924Z</time></trkpt><trkpt lat="42.09307" lon="13.4131182"><ele>899.0</ele><time>2026-03-24T14:10:57.924Z</time></trkpt><trkpt lat="42.0930336" lon="13.4128187"><ele>899.0</ele><time>2026-03-24T14:10:58.924Z</time></trkpt><trkpt lat="42.0929942" lon="13.4125106"><ele>899.0</ele><time>2026-03-24T14:10:59.924Z</time></trkpt><trkpt lat="42.0929556" lon="13.4121939"><ele>896.5</ele><time>2026-03-24T14:11:00.924Z</time></trkpt><trkpt lat="42.0929136" lon="13.4118683"><ele>894.0</ele><time>2026-03-24T14:11:01.925Z</time></trkpt><trkpt lat="42.0928712" lon="13.4115375"><ele>891.0</ele><time>2026-03-24T14:11:02.924Z</time></trkpt><trkpt lat="42.0928282" lon="13.4111992"><ele>888.0</ele><time>2026-03-24T14:11:03.924Z</time></trkpt><trkpt lat="42.092788" lon="13.4108585"><ele>888.0</ele><time>2026-03-24T14:11:04.924Z</time></trkpt><trkpt lat="42.0927461" lon="13.41052"><ele>888.0</ele><time>2026-03-24T14:11:05.925Z</time></trkpt><trkpt lat="42.0927021" lon="13.4101685"><ele>885.5</ele><time>2026-03-24T14:11:06.925Z</time></trkpt><trkpt lat="42.0926591" lon="13.4098155"><ele>883.0</ele><time>2026-03-24T14:11:07.925Z</time></trkpt><trkpt lat="42.0926155" lon="13.4094588"><ele>883.0</ele><time>2026-03-24T14:11:08.925Z</time></trkpt><trkpt lat="42.0925738" lon="13.4091062"><ele>883.0</ele><time>2026-03-24T14:11:09.924Z</time></trkpt><trkpt lat="42.0925298" lon="13.4087621"><ele>880.5</ele><time>2026-03-24T14:11:10.924Z</time></trkpt><trkpt lat="42.0924837" lon="13.4084265"><ele>878.0</ele><time>2026-03-24T14:11:11.925Z</time></trkpt><trkpt lat="42.0924323" lon="13.4080944"><ele>876.0</ele><time>2026-03-24T14:11:12.924Z</time></trkpt><trkpt lat="42.0923717" lon="13.4077665"><ele>874.0</ele><time>2026-03-24T14:11:13.925Z</time></trkpt><trkpt lat="42.0923103" lon="13.4074433"><ele>871.0</ele><time>2026-03-24T14:11:14.925Z</time></trkpt><trkpt lat="42.092246" lon="13.4071373"><ele>868.0</ele><time>2026-03-24T14:11:15.925Z</time></trkpt><trkpt lat="42.092185" lon="13.4068554"><ele>868.0</ele><time>2026-03-24T14:11:16.925Z</time></trkpt><trkpt lat="42.0921316" lon="13.4066077"><ele>868.0</ele><time>2026-03-24T14:11:17.925Z</time></trkpt><trkpt lat="42.0920846" lon="13.4063831"><ele>868.0</ele><time>2026-03-24T14:11:18.924Z</time></trkpt><trkpt lat="42.0920562" lon="13.4061749"><ele>866.6666666666666</ele><time>2026-03-24T14:11:19.924Z</time></trkpt><trkpt lat="42.0920558" lon="13.4059707"><ele>865.3333333333333</ele><time>2026-03-24T14:11:20.925Z</time></trkpt><trkpt lat="42.092086" lon="13.4057703"><ele>864.0</ele><time>2026-03-24T14:11:21.924Z</time></trkpt><trkpt lat="42.0921496" lon="13.4055684"><ele>863.0</ele><time>2026-03-24T14:11:22.924Z</time></trkpt><trkpt lat="42.0922328" lon="13.4053649"><ele>862.0</ele><time>2026-03-24T14:11:23.925Z</time></trkpt><trkpt lat="42.0923462" lon="13.4051723"><ele>861.0</ele><time>2026-03-24T14:11:24.924Z</time></trkpt><trkpt lat="42.0924811" lon="13.4049875"><ele>861.0</ele><time>2026-03-24T14:11:25.925Z</time></trkpt><trkpt lat="42.0926294" lon="13.40481"><ele>861.0</ele><time>2026-03-24T14:11:26.925Z</time></trkpt><trkpt lat="42.0927859" lon="13.4046353"><ele>861.0</ele><time>2026-03-24T14:11:27.924Z</time></trkpt><trkpt lat="42.0929345" lon="13.4044613"><ele>860.3333333333333</ele><time>2026-03-24T14:11:28.924Z</time></trkpt><trkpt lat="42.0930768" lon="13.4042925"><ele>859.6666666666666</ele><time>2026-03-24T14:11:29.924Z</time></trkpt><trkpt lat="42.0932246" lon="13.4041139"><ele>859.0</ele><time>2026-03-24T14:11:30.924Z</time></trkpt><trkpt lat="42.0933412" lon="13.4039831"><ele>859.0</ele><time>2026-03-24T14:11:31.925Z</time></trkpt><trkpt lat="42.0934674" lon="13.4038469"><ele>859.0</ele><time>2026-03-24T14:11:32.925Z</time></trkpt><trkpt lat="42.093594" lon="13.403729"><ele>859.0</ele><time>2026-03-24T14:11:33.924Z</time></trkpt><trkpt lat="42.0937321" lon="13.4036223"><ele>857.6666666666666</ele><time>2026-03-24T14:11:34.924Z</time></trkpt><trkpt lat="42.0938759" lon="13.4035306"><ele>856.3333333333333</ele><time>2026-03-24T14:11:35.924Z</time></trkpt><trkpt lat="42.0940189" lon="13.4034492"><ele>855.0</ele><time>2026-03-24T14:11:36.924Z</time></trkpt><trkpt lat="42.0941589" lon="13.4033688"><ele>855.0</ele><time>2026-03-24T14:11:37.925Z</time></trkpt><trkpt lat="42.0942916" lon="13.403289"><ele>855.0</ele><time>2026-03-24T14:11:38.924Z</time></trkpt><trkpt lat="42.0944203" lon="13.4032184"><ele>855.0</ele><time>2026-03-24T14:11:39.924Z</time></trkpt><trkpt lat="42.0945412" lon="13.4031412"><ele>855.0</ele><time>2026-03-24T14:11:40.924Z</time></trkpt><trkpt lat="42.0946597" lon="13.4030713"><ele>855.0</ele><time>2026-03-24T14:11:41.925Z</time></trkpt><trkpt lat="42.0947623" lon="13.4030032"><ele>855.0</ele><time>2026-03-24T14:11:42.925Z</time></trkpt><trkpt lat="42.0948643" lon="13.4029404"><ele>855.0</ele><time>2026-03-24T14:11:43.924Z</time></trkpt><trkpt lat="42.0949428" lon="13.4029126"><ele>855.0</ele><time>2026-03-24T14:11:45.924Z</time></trkpt><trkpt lat="42.0948844" lon="13.4028775"><ele>855.0</ele><time>2026-03-24T14:11:51.924Z</time></trkpt><trkpt lat="42.0947994" lon="13.4029293"><ele>855.0</ele><time>2026-03-24T14:11:52.924Z</time></trkpt><trkpt lat="42.0947094" lon="13.4029882"><ele>855.0</ele><time>2026-03-24T14:11:53.924Z</time></trkpt><trkpt lat="42.0945994" lon="13.4030531"><ele>855.0</ele><time>2026-03-24T14:11:54.925Z</time></trkpt><trkpt lat="42.0944792" lon="13.4031323"><ele>855.0</ele><time>2026-03-24T14:11:55.925Z</time></trkpt><trkpt lat="42.094341" lon="13.4032202"><ele>855.0</ele><time>2026-03-24T14:11:56.924Z</time></trkpt><trkpt lat="42.0941951" lon="13.4033088"><ele>855.0</ele><time>2026-03-24T14:11:57.924Z</time></trkpt><trkpt lat="42.094051" lon="13.4033991"><ele>855.0</ele><time>2026-03-24T14:11:58.925Z</time></trkpt><trkpt lat="42.0939018" lon="13.4034917"><ele>854.75</ele><time>2026-03-24T14:11:59.925Z</time></trkpt><trkpt lat="42.0937624" lon="13.4035777"><ele>854.5</ele><time>2026-03-24T14:12:00.924Z</time></trkpt><trkpt lat="42.0936373" lon="13.4036658"><ele>854.25</ele><time>2026-03-24T14:12:01.924Z</time></trkpt><trkpt lat="42.0935211" lon="13.4037502"><ele>854.0</ele><time>2026-03-24T14:12:02.924Z</time></trkpt><trkpt lat="42.093439" lon="13.4038277"><ele>854.0000000000001</ele><time>2026-03-24T14:12:03.924Z</time></trkpt><trkpt lat="42.093384" lon="13.4038736"><ele>854.0</ele><time>2026-03-24T14:12:04.924Z</time></trkpt><trkpt lat="42.0933111" lon="13.4038802"><ele>854.0</ele><time>2026-03-24T14:12:06.924Z</time></trkpt><trkpt lat="42.093291" lon="13.4037654"><ele>854.0</ele><time>2026-03-24T14:12:09.924Z</time></trkpt><trkpt lat="42.0932839" lon="13.4036492"><ele>854.0000000000001</ele><time>2026-03-24T14:12:11.924Z</time></trkpt><trkpt lat="42.0932899" lon="13.4035296"><ele>854.0</ele><time>2026-03-24T14:12:13.925Z</time></trkpt><trkpt lat="42.0932714" lon="13.4034338"><ele>854.0000000000001</ele><time>2026-03-24T14:12:16.925Z</time></trkpt><trkpt lat="42.0932065" lon="13.4034428"><ele>854.0</ele><time>2026-03-24T14:12:48.924Z</time></trkpt><trkpt lat="42.0932149" lon="13.4035655"><ele>854.0</ele><time>2026-03-24T14:12:50.925Z</time></trkpt><trkpt lat="42.0932402" lon="13.4036798"><ele>854.0</ele><time>2026-03-24T14:12:51.925Z</time></trkpt><trkpt lat="42.0932557" lon="13.4037813"><ele>854.0000000000001</ele><time>2026-03-24T14:12:52.925Z</time></trkpt><trkpt lat="42.0932622" lon="13.4039116"><ele>854.0</ele><time>2026-03-24T14:12:54.924Z</time></trkpt><trkpt lat="42.0932416" lon="13.4040014"><ele>855.0</ele><time>2026-03-24T14:12:56.924Z</time></trkpt><trkpt lat="42.0931655" lon="13.4041317"><ele>856.0</ele><time>2026-03-24T14:12:58.925Z</time></trkpt><trkpt lat="42.0930953" lon="13.4042183"><ele>857.0</ele><time>2026-03-24T14:12:59.924Z</time></trkpt><trkpt lat="42.093009" lon="13.4043189"><ele>858.0</ele><time>2026-03-24T14:13:00.925Z</time></trkpt><trkpt lat="42.0929162" lon="13.4044335"><ele>858.0</ele><time>2026-03-24T14:13:01.924Z</time></trkpt><trkpt lat="42.0928086" lon="13.4045411"><ele>858.0</ele><time>2026-03-24T14:13:02.924Z</time></trkpt><trkpt lat="42.0926918" lon="13.4046983"><ele>858.0</ele><time>2026-03-24T14:13:03.924Z</time></trkpt><trkpt lat="42.0925668" lon="13.40484"><ele>858.6666666666667</ele><time>2026-03-24T14:13:04.924Z</time></trkpt><trkpt lat="42.0924451" lon="13.4049938"><ele>859.3333333333334</ele><time>2026-03-24T14:13:05.925Z</time></trkpt><trkpt lat="42.0923248" lon="13.4051593"><ele>860.0</ele><time>2026-03-24T14:13:06.925Z</time></trkpt><trkpt lat="42.0922164" lon="13.4053443"><ele>861.3333333333334</ele><time>2026-03-24T14:13:07.924Z</time></trkpt><trkpt lat="42.0921233" lon="13.4055479"><ele>862.6666666666667</ele><time>2026-03-24T14:13:08.924Z</time></trkpt><trkpt lat="42.0920588" lon="13.4057612"><ele>864.0</ele><time>2026-03-24T14:13:09.924Z</time></trkpt><trkpt lat="42.0920216" lon="13.4059701"><ele>864.0</ele><time>2026-03-24T14:13:10.925Z</time></trkpt><trkpt lat="42.0920193" lon="13.4061859"><ele>864.0</ele><time>2026-03-24T14:13:11.924Z</time></trkpt><trkpt lat="42.0920534" lon="13.4064178"><ele>864.0</ele><time>2026-03-24T14:13:12.925Z</time></trkpt><trkpt lat="42.0921054" lon="13.40666"><ele>865.3333333333333</ele><time>2026-03-24T14:13:13.924Z</time></trkpt><trkpt lat="42.092166" lon="13.4069259"><ele>866.6666666666666</ele><time>2026-03-24T14:13:14.924Z</time></trkpt><trkpt lat="42.092229" lon="13.4072067"><ele>868.0</ele><time>2026-03-24T14:13:15.924Z</time></trkpt><trkpt lat="42.0922909" lon="13.4075019"><ele>871.0</ele><time>2026-03-24T14:13:16.924Z</time></trkpt><trkpt lat="42.0923507" lon="13.4078091"><ele>874.0</ele><time>2026-03-24T14:13:17.925Z</time></trkpt><trkpt lat="42.0924026" lon="13.4081065"><ele>876.0</ele><time>2026-03-24T14:13:18.925Z</time></trkpt><trkpt lat="42.0924499" lon="13.4084147"><ele>878.0</ele><time>2026-03-24T14:13:19.925Z</time></trkpt><trkpt lat="42.0924953" lon="13.4087286"><ele>880.5</ele><time>2026-03-24T14:13:20.925Z</time></trkpt><trkpt lat="42.0925406" lon="13.4090428"><ele>883.0</ele><time>2026-03-24T14:13:21.924Z</time></trkpt><trkpt lat="42.0925839" lon="13.4093619"><ele>883.0</ele><time>2026-03-24T14:13:22.924Z</time></trkpt><trkpt lat="42.0926195" lon="13.4096833"><ele>883.0</ele><time>2026-03-24T14:13:23.925Z</time></trkpt><trkpt lat="42.0926601" lon="13.4100083"><ele>883.0</ele><time>2026-03-24T14:13:24.924Z</time></trkpt><trkpt lat="42.0927003" lon="13.4103322"><ele>883.0</ele><time>2026-03-24T14:13:25.924Z</time></trkpt><trkpt lat="42.0927417" lon="13.4106579"><ele>885.5</ele><time>2026-03-24T14:13:26.925Z</time></trkpt><trkpt lat="42.0927844" lon="13.410984"><ele>888.0</ele><time>2026-03-24T14:13:27.924Z</time></trkpt><trkpt lat="42.0928252" lon="13.4113161"><ele>891.0</ele><time>2026-03-24T14:13:28.924Z</time></trkpt><trkpt lat="42.0928648" lon="13.411645"><ele>894.0</ele><time>2026-03-24T14:13:29.925Z</time></trkpt><trkpt lat="42.0929027" lon="13.4119808"><ele>896.5</ele><time>2026-03-24T14:13:30.924Z</time></trkpt><trkpt lat="42.0929449" lon="13.4123077"><ele>899.0</ele><time>2026-03-24T14:13:31.924Z</time></trkpt><trkpt lat="42.0929846" lon="13.4126373"><ele>899.0</ele><time>2026-03-24T14:13:32.925Z</time></trkpt><trkpt lat="42.0930291" lon="13.4129722"><ele>899.0</ele><time>2026-03-24T14:13:33.925Z</time></trkpt><trkpt lat="42.0930726" lon="13.4133063"><ele>899.0</ele><time>2026-03-24T14:13:34.924Z</time></trkpt><trkpt lat="42.0931154" lon="13.413641"><ele>899.0</ele><time>2026-03-24T14:13:35.924Z</time></trkpt><trkpt lat="42.093162" lon="13.4139788"><ele>901.0</ele><time>2026-03-24T14:13:36.925Z</time></trkpt><trkpt lat="42.0932086" lon="13.4143074"><ele>903.0</ele><time>2026-03-24T14:13:37.925Z</time></trkpt><trkpt lat="42.0932608" lon="13.4146322"><ele>905.0</ele><time>2026-03-24T14:13:38.924Z</time></trkpt><trkpt lat="42.0933235" lon="13.4149532"><ele>907.0</ele><time>2026-03-24T14:13:39.924Z</time></trkpt><trkpt lat="42.0933962" lon="13.415277"><ele>908.0</ele><time>2026-03-24T14:13:40.924Z</time></trkpt><trkpt lat="42.0934749" lon="13.4155982"><ele>909.0</ele><time>2026-03-24T14:13:41.925Z</time></trkpt><trkpt lat="42.0935593" lon="13.4159211"><ele>909.0</ele><time>2026-03-24T14:13:42.924Z</time></trkpt><trkpt lat="42.093644" lon="13.4162451"><ele>909.0</ele><time>2026-03-24T14:13:43.925Z</time></trkpt><trkpt lat="42.0937315" lon="13.4165736"><ele>911.0</ele><time>2026-03-24T14:13:44.925Z</time></trkpt><trkpt lat="42.0938156" lon="13.4169011"><ele>913.0</ele><time>2026-03-24T14:13:45.925Z</time></trkpt><trkpt lat="42.0938964" lon="13.4172162"><ele>914.5</ele><time>2026-03-24T14:13:46.925Z</time></trkpt><trkpt lat="42.0939737" lon="13.4175174"><ele>916.0</ele><time>2026-03-24T14:13:47.924Z</time></trkpt><trkpt lat="42.0940434" lon="13.4177958"><ele>917.0</ele><time>2026-03-24T14:13:48.925Z</time></trkpt><trkpt lat="42.0940975" lon="13.4180553"><ele>918.0</ele><time>2026-03-24T14:13:49.925Z</time></trkpt><trkpt lat="42.0941316" lon="13.4183102"><ele>919.0</ele><time>2026-03-24T14:13:50.924Z</time></trkpt><trkpt lat="42.0941432" lon="13.4185761"><ele>920.3333333333333</ele><time>2026-03-24T14:13:51.925Z</time></trkpt><trkpt lat="42.0941402" lon="13.4188536"><ele>921.6666666666667</ele><time>2026-03-24T14:13:52.924Z</time></trkpt><trkpt lat="42.094118" lon="13.4191366"><ele>923.0</ele><time>2026-03-24T14:13:53.924Z</time></trkpt><trkpt lat="42.0940932" lon="13.4194235"><ele>923.6666666666667</ele><time>2026-03-24T14:13:54.924Z</time></trkpt><trkpt lat="42.0940632" lon="13.4197129"><ele>924.3333333333333</ele><time>2026-03-24T14:13:55.925Z</time></trkpt><trkpt lat="42.0940233" lon="13.4200033"><ele>925.0</ele><time>2026-03-24T14:13:56.924Z</time></trkpt><trkpt lat="42.0939754" lon="13.4202901"><ele>925.6666666666666</ele><time>2026-03-24T14:13:57.924Z</time></trkpt><trkpt lat="42.093908" lon="13.420567"><ele>926.3333333333333</ele><time>2026-03-24T14:13:58.925Z</time></trkpt><trkpt lat="42.0938244" lon="13.4208372"><ele>927.0</ele><time>2026-03-24T14:13:59.925Z</time></trkpt><trkpt lat="42.0937307" lon="13.4211086"><ele>928.3333333333333</ele><time>2026-03-24T14:14:00.925Z</time></trkpt><trkpt lat="42.093641" lon="13.4213783"><ele>929.6666666666666</ele><time>2026-03-24T14:14:01.924Z</time></trkpt><trkpt lat="42.0935472" lon="13.4216521"><ele>931.0</ele><time>2026-03-24T14:14:02.924Z</time></trkpt><trkpt lat="42.0934561" lon="13.4219242"><ele>931.6666666666666</ele><time>2026-03-24T14:14:03.924Z</time></trkpt><trkpt lat="42.0933705" lon="13.4221858"><ele>932.3333333333333</ele><time>2026-03-24T14:14:04.924Z</time></trkpt><trkpt lat="42.0932851" lon="13.4224413"><ele>933.0</ele><time>2026-03-24T14:14:05.925Z</time></trkpt><trkpt lat="42.0931972" lon="13.4226881"><ele>933.0</ele><time>2026-03-24T14:14:06.925Z</time></trkpt><trkpt lat="42.0931018" lon="13.4229199"><ele>933.0</ele><time>2026-03-24T14:14:07.924Z</time></trkpt><trkpt lat="42.0929921" lon="13.4231375"><ele>933.0</ele><time>2026-03-24T14:14:08.924Z</time></trkpt><trkpt lat="42.0928773" lon="13.4233492"><ele>933.3333333333333</ele><time>2026-03-24T14:14:09.925Z</time></trkpt><trkpt lat="42.0927598" lon="13.4235647"><ele>933.6666666666666</ele><time>2026-03-24T14:14:10.924Z</time></trkpt><trkpt lat="42.092647" lon="13.4237721"><ele>934.0</ele><time>2026-03-24T14:14:11.924Z</time></trkpt><trkpt lat="42.0925409" lon="13.4239699"><ele>934.0</ele><time>2026-03-24T14:14:12.924Z</time></trkpt><trkpt lat="42.092438" lon="13.4241561"><ele>934.0</ele><time>2026-03-24T14:14:13.925Z</time></trkpt><trkpt lat="42.0923473" lon="13.4243214"><ele>934.0</ele><time>2026-03-24T14:14:14.924Z</time></trkpt><trkpt lat="42.0922706" lon="13.4244635"><ele>934.0</ele><time>2026-03-24T14:14:15.925Z</time></trkpt><trkpt lat="42.0922126" lon="13.4245791"><ele>934.0000000000001</ele><time>2026-03-24T14:14:16.924Z</time></trkpt><trkpt lat="42.092173" lon="13.4246682"><ele>934.0000000000001</ele><time>2026-03-24T14:14:17.924Z</time></trkpt><trkpt lat="42.0921764" lon="13.4248352"><ele>934.0</ele><time>2026-03-24T14:14:19.924Z</time></trkpt><trkpt lat="42.0922267" lon="13.4249227"><ele>934.0</ele><time>2026-03-24T14:14:20.924Z</time></trkpt><trkpt lat="42.0923" lon="13.4250151"><ele>933.75</ele><time>2026-03-24T14:14:21.924Z</time></trkpt><trkpt lat="42.0923943" lon="13.4251185"><ele>933.5</ele><time>2026-03-24T14:14:22.924Z</time></trkpt><trkpt lat="42.0925004" lon="13.4252401"><ele>933.25</ele><time>2026-03-24T14:14:23.924Z</time></trkpt><trkpt lat="42.0926152" lon="13.425387"><ele>933.0</ele><time>2026-03-24T14:14:24.924Z</time></trkpt><trkpt lat="42.0927395" lon="13.4255529"><ele>934.6666666666667</ele><time>2026-03-24T14:14:25.925Z</time></trkpt><trkpt lat="42.0928608" lon="13.4257223"><ele>936.3333333333334</ele><time>2026-03-24T14:14:26.925Z</time></trkpt><trkpt lat="42.0929875" lon="13.4259005"><ele>938.0</ele><time>2026-03-24T14:14:27.924Z</time></trkpt><trkpt lat="42.0931203" lon="13.4260856"><ele>939.0</ele><time>2026-03-24T14:14:28.925Z</time></trkpt><trkpt lat="42.0932566" lon="13.426277"><ele>940.0</ele><time>2026-03-24T14:14:29.925Z</time></trkpt><trkpt lat="42.0933945" lon="13.4264705"><ele>941.0</ele><time>2026-03-24T14:14:30.924Z</time></trkpt><trkpt lat="42.0935343" lon="13.4266686"><ele>942.3333333333334</ele><time>2026-03-24T14:14:31.924Z</time></trkpt><trkpt lat="42.093675" lon="13.4268672"><ele>943.6666666666667</ele><time>2026-03-24T14:14:32.924Z</time></trkpt><trkpt lat="42.0938235" lon="13.4270688"><ele>945.0</ele><time>2026-03-24T14:14:33.924Z</time></trkpt><trkpt lat="42.0939744" lon="13.4272729"><ele>946.6666666666667</ele><time>2026-03-24T14:14:34.925Z</time></trkpt><trkpt lat="42.094128" lon="13.4274836"><ele>948.3333333333334</ele><time>2026-03-24T14:14:35.924Z</time></trkpt><trkpt lat="42.0942859" lon="13.4276955"><ele>950.0</ele><time>2026-03-24T14:14:36.925Z</time></trkpt><trkpt lat="42.0944421" lon="13.4279094"><ele>950.3333333333334</ele><time>2026-03-24T14:14:37.924Z</time></trkpt><trkpt lat="42.0945966" lon="13.4281222"><ele>950.6666666666667</ele><time>2026-03-24T14:14:38.924Z</time></trkpt><trkpt lat="42.0947494" lon="13.4283279"><ele>951.0</ele><time>2026-03-24T14:14:39.924Z</time></trkpt><trkpt lat="42.0948989" lon="13.4285321"><ele>951.0</ele><time>2026-03-24T14:14:40.924Z</time></trkpt><trkpt lat="42.0950439" lon="13.4287294"><ele>951.0</ele><time>2026-03-24T14:14:41.925Z</time></trkpt><trkpt lat="42.0951849" lon="13.4289265"><ele>951.0</ele><time>2026-03-24T14:14:42.924Z</time></trkpt><trkpt lat="42.095326" lon="13.4291177"><ele>952.0</ele><time>2026-03-24T14:14:43.925Z</time></trkpt><trkpt lat="42.0954638" lon="13.429303"><ele>953.0</ele><time>2026-03-24T14:14:44.924Z</time></trkpt><trkpt lat="42.0955987" lon="13.429489"><ele>954.0</ele><time>2026-03-24T14:14:45.925Z</time></trkpt><trkpt lat="42.0957299" lon="13.4296721"><ele>955.3333333333333</ele><time>2026-03-24T14:14:46.924Z</time></trkpt><trkpt lat="42.0958556" lon="13.4298515"><ele>956.6666666666666</ele><time>2026-03-24T14:14:47.924Z</time></trkpt><trkpt lat="42.0959836" lon="13.4300248"><ele>958.0</ele><time>2026-03-24T14:14:48.924Z</time></trkpt><trkpt lat="42.0961113" lon="13.4301999"><ele>958.0</ele><time>2026-03-24T14:14:49.925Z</time></trkpt><trkpt lat="42.0962434" lon="13.4303796"><ele>958.0</ele><time>2026-03-24T14:14:50.925Z</time></trkpt><trkpt lat="42.0963781" lon="13.4305632"><ele>958.0</ele><time>2026-03-24T14:14:51.924Z</time></trkpt><trkpt lat="42.0965139" lon="13.4307505"><ele>959.6666666666666</ele><time>2026-03-24T14:14:52.924Z</time></trkpt><trkpt lat="42.0966512" lon="13.4309394"><ele>961.3333333333333</ele><time>2026-03-24T14:14:53.924Z</time></trkpt><trkpt lat="42.0967865" lon="13.4311035"><ele>963.0</ele><time>2026-03-24T14:14:54.924Z</time></trkpt><trkpt lat="42.0969188" lon="13.4312906"><ele>963.0</ele><time>2026-03-24T14:14:55.924Z</time></trkpt><trkpt lat="42.0970449" lon="13.4314744"><ele>963.0</ele><time>2026-03-24T14:14:56.924Z</time></trkpt><trkpt lat="42.0971759" lon="13.4316529"><ele>963.0</ele><time>2026-03-24T14:14:57.924Z</time></trkpt><trkpt lat="42.0973122" lon="13.4318267"><ele>962.3333333333333</ele><time>2026-03-24T14:14:58.924Z</time></trkpt><trkpt lat="42.0974553" lon="13.4319903"><ele>961.6666666666666</ele><time>2026-03-24T14:14:59.924Z</time></trkpt><trkpt lat="42.0976009" lon="13.4321466"><ele>961.0</ele><time>2026-03-24T14:15:00.925Z</time></trkpt><trkpt lat="42.0977439" lon="13.4323083"><ele>963.6666666666666</ele><time>2026-03-24T14:15:01.925Z</time></trkpt><trkpt lat="42.0978918" lon="13.4324698"><ele>966.3333333333333</ele><time>2026-03-24T14:15:02.924Z</time></trkpt><trkpt lat="42.0980449" lon="13.4326303"><ele>969.0</ele><time>2026-03-24T14:15:03.924Z</time></trkpt><trkpt lat="42.0982004" lon="13.4327888"><ele>970.0</ele><time>2026-03-24T14:15:04.924Z</time></trkpt><trkpt lat="42.0983584" lon="13.4329496"><ele>971.0</ele><time>2026-03-24T14:15:05.925Z</time></trkpt><trkpt lat="42.0985189" lon="13.4331127"><ele>972.0</ele><time>2026-03-24T14:15:06.925Z</time></trkpt><trkpt lat="42.0986793" lon="13.4332757"><ele>972.0</ele><time>2026-03-24T14:15:07.924Z</time></trkpt><trkpt lat="42.0988414" lon="13.4334428"><ele>972.0</ele><time>2026-03-24T14:15:08.924Z</time></trkpt><trkpt lat="42.0990099" lon="13.433606"><ele>972.0</ele><time>2026-03-24T14:15:09.924Z</time></trkpt><trkpt lat="42.0991785" lon="13.4337684"><ele>973.0</ele><time>2026-03-24T14:15:10.925Z</time></trkpt><trkpt lat="42.0993415" lon="13.4339306"><ele>974.0</ele><time>2026-03-24T14:15:11.925Z</time></trkpt><trkpt lat="42.0994921" lon="13.4340858"><ele>975.0</ele><time>2026-03-24T14:15:12.924Z</time></trkpt><trkpt lat="42.0996343" lon="13.4342292"><ele>975.0</ele><time>2026-03-24T14:15:13.925Z</time></trkpt><trkpt lat="42.0997764" lon="13.434374"><ele>975.0</ele><time>2026-03-24T14:15:14.924Z</time></trkpt><trkpt lat="42.0999208" lon="13.4345195"><ele>975.0</ele><time>2026-03-24T14:15:15.924Z</time></trkpt><trkpt lat="42.1000677" lon="13.4346671"><ele>975.3333333333333</ele><time>2026-03-24T14:15:16.924Z</time></trkpt><trkpt lat="42.100221" lon="13.4348194"><ele>975.6666666666666</ele><time>2026-03-24T14:15:17.924Z</time></trkpt><trkpt lat="42.1003741" lon="13.4349748"><ele>976.0</ele><time>2026-03-24T14:15:18.924Z</time></trkpt><trkpt lat="42.1005329" lon="13.4351336"><ele>976.0</ele><time>2026-03-24T14:15:19.924Z</time></trkpt><trkpt lat="42.1006963" lon="13.4353001"><ele>976.0</ele><time>2026-03-24T14:15:20.924Z</time></trkpt><trkpt lat="42.1008614" lon="13.4354657"><ele>976.0</ele><time>2026-03-24T14:15:21.924Z</time></trkpt><trkpt lat="42.1010267" lon="13.4356356"><ele>977.0</ele><time>2026-03-24T14:15:22.924Z</time></trkpt><trkpt lat="42.1011965" lon="13.4358086"><ele>978.0</ele><time>2026-03-24T14:15:23.924Z</time></trkpt><trkpt lat="42.1013709" lon="13.4359813"><ele>979.0</ele><time>2026-03-24T14:15:24.925Z</time></trkpt><trkpt lat="42.101546" lon="13.4361594"><ele>980.0</ele><time>2026-03-24T14:15:25.924Z</time></trkpt><trkpt lat="42.1017247" lon="13.4363373"><ele>981.0</ele><time>2026-03-24T14:15:26.925Z</time></trkpt><trkpt lat="42.101904" lon="13.436515"><ele>982.0</ele><time>2026-03-24T14:15:27.924Z</time></trkpt><trkpt lat="42.1020835" lon="13.4366979"><ele>982.0</ele><time>2026-03-24T14:15:28.924Z</time></trkpt><trkpt lat="42.1022607" lon="13.4368764"><ele>982.0</ele><time>2026-03-24T14:15:29.924Z</time></trkpt><trkpt lat="42.1024297" lon="13.4370481"><ele>982.0</ele><time>2026-03-24T14:15:30.925Z</time></trkpt><trkpt lat="42.1025951" lon="13.4372148"><ele>982.6666666666666</ele><time>2026-03-24T14:15:31.924Z</time></trkpt><trkpt lat="42.1027578" lon="13.4373771"><ele>983.3333333333333</ele><time>2026-03-24T14:15:32.924Z</time></trkpt><trkpt lat="42.1029189" lon="13.4375335"><ele>984.0</ele><time>2026-03-24T14:15:33.924Z</time></trkpt><trkpt lat="42.1030782" lon="13.4376841"><ele>984.0</ele><time>2026-03-24T14:15:34.924Z</time></trkpt><trkpt lat="42.1032402" lon="13.4378245"><ele>984.0</ele><time>2026-03-24T14:15:35.924Z</time></trkpt><trkpt lat="42.103408" lon="13.4379547"><ele>984.0</ele><time>2026-03-24T14:15:36.924Z</time></trkpt><trkpt lat="42.1035795" lon="13.4380857"><ele>984.0</ele><time>2026-03-24T14:15:37.924Z</time></trkpt><trkpt lat="42.1037539" lon="13.4382133"><ele>984.0</ele><time>2026-03-24T14:15:38.925Z</time></trkpt><trkpt lat="42.1039335" lon="13.4383343"><ele>984.0</ele><time>2026-03-24T14:15:39.924Z</time></trkpt><trkpt lat="42.1041102" lon="13.4384534"><ele>985.3333333333333</ele><time>2026-03-24T14:15:40.924Z</time></trkpt><trkpt lat="42.1042886" lon="13.4385747"><ele>986.6666666666666</ele><time>2026-03-24T14:15:41.924Z</time></trkpt><trkpt lat="42.1044679" lon="13.4386904"><ele>988.0</ele><time>2026-03-24T14:15:42.925Z</time></trkpt><trkpt lat="42.1046534" lon="13.4387977"><ele>987.3333333333333</ele><time>2026-03-24T14:15:43.925Z</time></trkpt><trkpt lat="42.1048404" lon="13.4388909"><ele>986.6666666666667</ele><time>2026-03-24T14:15:44.925Z</time></trkpt><trkpt lat="42.1050238" lon="13.4389784"><ele>986.0</ele><time>2026-03-24T14:15:45.924Z</time></trkpt><trkpt lat="42.105204" lon="13.4390613"><ele>986.0</ele><time>2026-03-24T14:15:46.925Z</time></trkpt><trkpt lat="42.1053792" lon="13.4391417"><ele>986.0</ele><time>2026-03-24T14:15:47.925Z</time></trkpt><trkpt lat="42.1055504" lon="13.4392155"><ele>986.0</ele><time>2026-03-24T14:15:48.924Z</time></trkpt><trkpt lat="42.1057147" lon="13.439291"><ele>988.0</ele><time>2026-03-24T14:15:49.924Z</time></trkpt><trkpt lat="42.1058745" lon="13.4393626"><ele>990.0</ele><time>2026-03-24T14:15:50.924Z</time></trkpt><trkpt lat="42.106033" lon="13.439427"><ele>992.0</ele><time>2026-03-24T14:15:51.924Z</time></trkpt><trkpt lat="42.1061884" lon="13.439491"><ele>992.0</ele><time>2026-03-24T14:15:52.924Z</time></trkpt><trkpt lat="42.1063442" lon="13.4395527"><ele>992.0</ele><time>2026-03-24T14:15:53.925Z</time></trkpt><trkpt lat="42.106501" lon="13.4396135"><ele>992.0</ele><time>2026-03-24T14:15:54.924Z</time></trkpt><trkpt lat="42.1066647" lon="13.4396682"><ele>992.3333333333334</ele><time>2026-03-24T14:15:55.924Z</time></trkpt><trkpt lat="42.1068285" lon="13.4397184"><ele>992.6666666666667</ele><time>2026-03-24T14:15:56.924Z</time></trkpt><trkpt lat="42.1069928" lon="13.4397681"><ele>993.0</ele><time>2026-03-24T14:15:57.925Z</time></trkpt><trkpt lat="42.1071606" lon="13.4398178"><ele>993.0</ele><time>2026-03-24T14:15:58.925Z</time></trkpt><trkpt lat="42.1073176" lon="13.4398613"><ele>993.0</ele><time>2026-03-24T14:15:59.924Z</time></trkpt><trkpt lat="42.1074595" lon="13.4399054"><ele>993.0</ele><time>2026-03-24T14:16:00.925Z</time></trkpt><trkpt lat="42.1075865" lon="13.4399388"><ele>993.0</ele><time>2026-03-24T14:16:01.925Z</time></trkpt><trkpt lat="42.1076768" lon="13.4399728"><ele>994.0</ele><time>2026-03-24T14:16:02.924Z</time></trkpt><trkpt lat="42.1077403" lon="13.4400001"><ele>995.0</ele><time>2026-03-24T14:16:03.924Z</time></trkpt><trkpt lat="42.1078049" lon="13.4400435"><ele>996.0</ele><time>2026-03-24T14:16:05.924Z</time></trkpt><trkpt lat="42.1078735" lon="13.4400605"><ele>997.0</ele><time>2026-03-24T14:16:30.925Z</time></trkpt><trkpt lat="42.1079458" lon="13.4400656"><ele>998.0</ele><time>2026-03-24T14:16:31.925Z</time></trkpt><trkpt lat="42.1080378" lon="13.4400745"><ele>999.0</ele><time>2026-03-24T14:16:32.925Z</time></trkpt><trkpt lat="42.108152" lon="13.4401036"><ele>1000.25</ele><time>2026-03-24T14:16:33.924Z</time></trkpt><trkpt lat="42.1082737" lon="13.4401413"><ele>1001.5</ele><time>2026-03-24T14:16:34.924Z</time></trkpt><trkpt lat="42.1083869" lon="13.4401756"><ele>1002.75</ele><time>2026-03-24T14:16:35.925Z</time></trkpt><trkpt lat="42.108506" lon="13.4402124"><ele>1004.0</ele><time>2026-03-24T14:16:36.924Z</time></trkpt><trkpt lat="42.1086313" lon="13.4402548"><ele>1004.0</ele><time>2026-03-24T14:16:37.925Z</time></trkpt><trkpt lat="42.1087624" lon="13.4402968"><ele>1004.0</ele><time>2026-03-24T14:16:38.925Z</time></trkpt><trkpt lat="42.1088823" lon="13.440334"><ele>1004.0</ele><time>2026-03-24T14:16:39.924Z</time></trkpt><trkpt lat="42.1089878" lon="13.440369"><ele>1004.0</ele><time>2026-03-24T14:16:40.924Z</time></trkpt><trkpt lat="42.1090927" lon="13.4404015"><ele>1004.25</ele><time>2026-03-24T14:16:41.924Z</time></trkpt><trkpt lat="42.1092059" lon="13.4404421"><ele>1004.5</ele><time>2026-03-24T14:16:42.925Z</time></trkpt><trkpt lat="42.1093233" lon="13.4404893"><ele>1004.75</ele><time>2026-03-24T14:16:43.924Z</time></trkpt><trkpt lat="42.1094361" lon="13.4405554"><ele>1005.0</ele><time>2026-03-24T14:16:44.924Z</time></trkpt><trkpt lat="42.1095486" lon="13.4406448"><ele>1005.0</ele><time>2026-03-24T14:16:45.924Z</time></trkpt><trkpt lat="42.1096636" lon="13.4407556"><ele>1005.0</ele><time>2026-03-24T14:16:46.924Z</time></trkpt><trkpt lat="42.1097727" lon="13.4408783"><ele>1005.0</ele><time>2026-03-24T14:16:47.924Z</time></trkpt><trkpt lat="42.1098764" lon="13.4410048"><ele>1005.0</ele><time>2026-03-24T14:16:48.924Z</time></trkpt><trkpt lat="42.1099795" lon="13.4411397"><ele>1005.5</ele><time>2026-03-24T14:16:49.924Z</time></trkpt><trkpt lat="42.110087" lon="13.4412746"><ele>1006.0</ele><time>2026-03-24T14:16:50.924Z</time></trkpt><trkpt lat="42.1101916" lon="13.4414096"><ele>1006.5</ele><time>2026-03-24T14:16:51.925Z</time></trkpt><trkpt lat="42.1102857" lon="13.4415302"><ele>1007.0</ele><time>2026-03-24T14:16:52.925Z</time></trkpt><trkpt lat="42.1103934" lon="13.4416756"><ele>1007.0</ele><time>2026-03-24T14:16:53.924Z</time></trkpt><trkpt lat="42.110511" lon="13.4418198"><ele>1007.0</ele><time>2026-03-24T14:16:54.925Z</time></trkpt><trkpt lat="42.110621" lon="13.4419585"><ele>1007.0</ele><time>2026-03-24T14:16:55.924Z</time></trkpt><trkpt lat="42.1107286" lon="13.4420914"><ele>1007.5</ele><time>2026-03-24T14:16:56.924Z</time></trkpt><trkpt lat="42.1108272" lon="13.4422102"><ele>1008.0</ele><time>2026-03-24T14:16:57.924Z</time></trkpt><trkpt lat="42.1109241" lon="13.4423316"><ele>1008.5</ele><time>2026-03-24T14:16:58.925Z</time></trkpt><trkpt lat="42.1110208" lon="13.4424602"><ele>1009.0</ele><time>2026-03-24T14:16:59.924Z</time></trkpt><trkpt lat="42.1111186" lon="13.4425897"><ele>1009.0</ele><time>2026-03-24T14:17:00.925Z</time></trkpt><trkpt lat="42.1112179" lon="13.4427231"><ele>1009.0</ele><time>2026-03-24T14:17:01.924Z</time></trkpt><trkpt lat="42.1113223" lon="13.4428532"><ele>1009.0</ele><time>2026-03-24T14:17:02.924Z</time></trkpt><trkpt lat="42.1114318" lon="13.4429861"><ele>1009.0</ele><time>2026-03-24T14:17:03.924Z</time></trkpt><trkpt lat="42.1115431" lon="13.4431225"><ele>1009.75</ele><time>2026-03-24T14:17:04.925Z</time></trkpt><trkpt lat="42.1116437" lon="13.4432732"><ele>1010.5</ele><time>2026-03-24T14:17:05.924Z</time></trkpt><trkpt lat="42.111747" lon="13.4434266"><ele>1011.25</ele><time>2026-03-24T14:17:06.925Z</time></trkpt><trkpt lat="42.1118419" lon="13.4435635"><ele>1012.0</ele><time>2026-03-24T14:17:07.924Z</time></trkpt><trkpt lat="42.1119255" lon="13.4436946"><ele>1012.0</ele><time>2026-03-24T14:17:08.924Z</time></trkpt><trkpt lat="42.1120156" lon="13.4438303"><ele>1012.0</ele><time>2026-03-24T14:17:09.925Z</time></trkpt><trkpt lat="42.1121052" lon="13.4439654"><ele>1012.0</ele><time>2026-03-24T14:17:10.924Z</time></trkpt><trkpt lat="42.1121949" lon="13.4440965"><ele>1012.0</ele><time>2026-03-24T14:17:11.924Z</time></trkpt><trkpt lat="42.1122743" lon="13.4442281"><ele>1011.9999999999999</ele><time>2026-03-24T14:17:12.924Z</time></trkpt><trkpt lat="42.1123462" lon="13.4443454"><ele>1012.0</ele><time>2026-03-24T14:17:13.924Z</time></trkpt><trkpt lat="42.1123996" lon="13.4444377"><ele>1012.0</ele><time>2026-03-24T14:17:14.924Z</time></trkpt><trkpt lat="42.1124349" lon="13.4445118"><ele>1012.0</ele><time>2026-03-24T14:17:15.924Z</time></trkpt><trkpt lat="42.1124728" lon="13.4446576"><ele>1011.9999999999999</ele><time>2026-03-24T14:17:17.924Z</time></trkpt><trkpt lat="42.1124768" lon="13.4447433"><ele>1012.0</ele><time>2026-03-24T14:17:18.924Z</time></trkpt><trkpt lat="42.1124787" lon="13.4448355"><ele>1013.9999999999999</ele><time>2026-03-24T14:17:19.925Z</time></trkpt><trkpt lat="42.1124876" lon="13.4449385"><ele>1016.0</ele><time>2026-03-24T14:17:20.924Z</time></trkpt><trkpt lat="42.1125034" lon="13.4450488"><ele>1018.0</ele><time>2026-03-24T14:17:21.924Z</time></trkpt><trkpt lat="42.1125243" lon="13.4451561"><ele>1020.0</ele><time>2026-03-24T14:17:22.924Z</time></trkpt><trkpt lat="42.1125477" lon="13.4452674"><ele>1021.9999999999999</ele><time>2026-03-24T14:17:23.925Z</time></trkpt><trkpt lat="42.1125716" lon="13.4453817"><ele>1024.0</ele><time>2026-03-24T14:17:24.924Z</time></trkpt><trkpt lat="42.1125931" lon="13.4454789"><ele>1025.0</ele><time>2026-03-24T14:17:25.924Z</time></trkpt><trkpt lat="42.1126126" lon="13.4455809"><ele>1026.0</ele><time>2026-03-24T14:17:27.924Z</time></trkpt><trkpt lat="42.1125632" lon="13.4456981"><ele>1027.0</ele><time>2026-03-24T14:17:29.924Z</time></trkpt><trkpt lat="42.1125257" lon="13.4457793"><ele>1028.0</ele><time>2026-03-24T14:17:30.924Z</time></trkpt><trkpt lat="42.1124702" lon="13.445868"><ele>1029.0</ele><time>2026-03-24T14:17:31.924Z</time></trkpt><trkpt lat="42.1124299" lon="13.4459775"><ele>1030.0</ele><time>2026-03-24T14:17:32.925Z</time></trkpt><trkpt lat="42.1123952" lon="13.4460985"><ele>1030.8</ele><time>2026-03-24T14:17:33.925Z</time></trkpt><trkpt lat="42.1123657" lon="13.4462242"><ele>1031.6</ele><time>2026-03-24T14:17:34.924Z</time></trkpt><trkpt lat="42.112359" lon="13.4463592"><ele>1032.4</ele><time>2026-03-24T14:17:35.924Z</time></trkpt><trkpt lat="42.1123671" lon="13.446495"><ele>1033.2</ele><time>2026-03-24T14:17:36.925Z</time></trkpt><trkpt lat="42.1123913" lon="13.4466396"><ele>1034.0</ele><time>2026-03-24T14:17:37.925Z</time></trkpt><trkpt lat="42.1124339" lon="13.4467775"><ele>1034.0</ele><time>2026-03-24T14:17:38.924Z</time></trkpt><trkpt lat="42.1124674" lon="13.4469263"><ele>1034.0</ele><time>2026-03-24T14:17:39.924Z</time></trkpt><trkpt lat="42.1125" lon="13.4470836"><ele>1034.0</ele><time>2026-03-24T14:17:40.925Z</time></trkpt><trkpt lat="42.1125262" lon="13.4472505"><ele>1034.0</ele><time>2026-03-24T14:17:41.924Z</time></trkpt><trkpt lat="42.11254" lon="13.4474192"><ele>1034.4</ele><time>2026-03-24T14:17:42.924Z</time></trkpt><trkpt lat="42.1125503" lon="13.4475822"><ele>1034.8000000000002</ele><time>2026-03-24T14:17:43.924Z</time></trkpt><trkpt lat="42.1125755" lon="13.4477211"><ele>1035.1999999999998</ele><time>2026-03-24T14:17:44.924Z</time></trkpt><trkpt lat="42.112621" lon="13.447821"><ele>1035.6</ele><time>2026-03-24T14:17:45.924Z</time></trkpt><trkpt lat="42.1126899" lon="13.4478608"><ele>1036.0</ele><time>2026-03-24T14:17:46.924Z</time></trkpt><trkpt lat="42.1127653" lon="13.4478481"><ele>1036.0</ele><time>2026-03-24T14:17:47.924Z</time></trkpt><trkpt lat="42.1128234" lon="13.4477703"><ele>1036.0</ele><time>2026-03-24T14:17:48.924Z</time></trkpt><trkpt lat="42.1128604" lon="13.4476478"><ele>1036.0</ele><time>2026-03-24T14:17:49.924Z</time></trkpt><trkpt lat="42.1128887" lon="13.4475025"><ele>1036.0</ele><time>2026-03-24T14:17:50.924Z</time></trkpt><trkpt lat="42.1129216" lon="13.4473782"><ele>1036.0</ele><time>2026-03-24T14:17:51.924Z</time></trkpt><trkpt lat="42.1129689" lon="13.4472933"><ele>1036.0</ele><time>2026-03-24T14:17:52.925Z</time></trkpt><trkpt lat="42.1130308" lon="13.4472529"><ele>1036.0</ele><time>2026-03-24T14:17:53.924Z</time></trkpt><trkpt lat="42.1130972" lon="13.4472714"><ele>1036.0</ele><time>2026-03-24T14:17:54.924Z</time></trkpt><trkpt lat="42.1131544" lon="13.4473389"><ele>1036.0</ele><time>2026-03-24T14:17:55.925Z</time></trkpt><trkpt lat="42.1131912" lon="13.4474489"><ele>1036.0</ele><time>2026-03-24T14:17:56.925Z</time></trkpt><trkpt lat="42.11321" lon="13.447592"><ele>1036.0</ele><time>2026-03-24T14:17:57.924Z</time></trkpt><trkpt lat="42.1132147" lon="13.4477626"><ele>1036.0</ele><time>2026-03-24T14:17:58.924Z</time></trkpt><trkpt lat="42.1131902" lon="13.4479487"><ele>1036.0</ele><time>2026-03-24T14:17:59.925Z</time></trkpt><trkpt lat="42.1131406" lon="13.4481468"><ele>1036.0</ele><time>2026-03-24T14:18:00.925Z</time></trkpt><trkpt lat="42.1130882" lon="13.4483581"><ele>1038.0</ele><time>2026-03-24T14:18:01.924Z</time></trkpt><trkpt lat="42.1130344" lon="13.4485679"><ele>1040.0</ele><time>2026-03-24T14:18:02.924Z</time></trkpt><trkpt lat="42.1129772" lon="13.448787"><ele>1042.0</ele><time>2026-03-24T14:18:03.924Z</time></trkpt><trkpt lat="42.1129174" lon="13.449012"><ele>1044.0</ele><time>2026-03-24T14:18:04.924Z</time></trkpt><trkpt lat="42.1128543" lon="13.4492502"><ele>1046.0</ele><time>2026-03-24T14:18:05.924Z</time></trkpt><trkpt lat="42.1127871" lon="13.4494972"><ele>1048.0</ele><time>2026-03-24T14:18:06.925Z</time></trkpt><trkpt lat="42.1127196" lon="13.4497512"><ele>1049.6666666666665</ele><time>2026-03-24T14:18:07.924Z</time></trkpt><trkpt lat="42.112652" lon="13.4499893"><ele>1051.3333333333333</ele><time>2026-03-24T14:18:08.924Z</time></trkpt><trkpt lat="42.1125869" lon="13.4502515"><ele>1053.0</ele><time>2026-03-24T14:18:09.924Z</time></trkpt><trkpt lat="42.1125227" lon="13.4505045"><ele>1053.0</ele><time>2026-03-24T14:18:10.924Z</time></trkpt><trkpt lat="42.1124566" lon="13.4507522"><ele>1053.0</ele><time>2026-03-24T14:18:11.924Z</time></trkpt><trkpt lat="42.1123891" lon="13.4509971"><ele>1053.0</ele><time>2026-03-24T14:18:12.925Z</time></trkpt><trkpt lat="42.1123115" lon="13.4512361"><ele>1055.0</ele><time>2026-03-24T14:18:13.924Z</time></trkpt><trkpt lat="42.1122275" lon="13.4514678"><ele>1057.0</ele><time>2026-03-24T14:18:14.924Z</time></trkpt><trkpt lat="42.112131" lon="13.4516917"><ele>1059.0</ele><time>2026-03-24T14:18:15.924Z</time></trkpt><trkpt lat="42.1120318" lon="13.4519084"><ele>1061.6666666666667</ele><time>2026-03-24T14:18:16.924Z</time></trkpt><trkpt lat="42.1119372" lon="13.4521276"><ele>1064.3333333333335</ele><time>2026-03-24T14:18:17.925Z</time></trkpt><trkpt lat="42.1118452" lon="13.4523491"><ele>1067.0</ele><time>2026-03-24T14:18:18.924Z</time></trkpt><trkpt lat="42.1117532" lon="13.4525681"><ele>1067.0</ele><time>2026-03-24T14:18:19.924Z</time></trkpt><trkpt lat="42.1116592" lon="13.4527907"><ele>1067.0</ele><time>2026-03-24T14:18:20.924Z</time></trkpt><trkpt lat="42.1115636" lon="13.4530073"><ele>1067.0</ele><time>2026-03-24T14:18:21.925Z</time></trkpt><trkpt lat="42.1114684" lon="13.4532262"><ele>1067.0</ele><time>2026-03-24T14:18:22.925Z</time></trkpt><trkpt lat="42.1113812" lon="13.4534472"><ele>1067.0</ele><time>2026-03-24T14:18:23.924Z</time></trkpt><trkpt lat="42.1113054" lon="13.4536849"><ele>1067.0</ele><time>2026-03-24T14:18:24.925Z</time></trkpt><trkpt lat="42.111244" lon="13.4539307"><ele>1069.6666666666667</ele><time>2026-03-24T14:18:25.924Z</time></trkpt><trkpt lat="42.1111938" lon="13.4541877"><ele>1072.3333333333333</ele><time>2026-03-24T14:18:26.925Z</time></trkpt><trkpt lat="42.1111519" lon="13.4544456"><ele>1075.0</ele><time>2026-03-24T14:18:27.924Z</time></trkpt><trkpt lat="42.1111187" lon="13.4547099"><ele>1075.3333333333333</ele><time>2026-03-24T14:18:28.925Z</time></trkpt><trkpt lat="42.1110835" lon="13.4549775"><ele>1075.6666666666667</ele><time>2026-03-24T14:18:29.925Z</time></trkpt><trkpt lat="42.1110346" lon="13.4552451"><ele>1076.0</ele><time>2026-03-24T14:18:30.924Z</time></trkpt><trkpt lat="42.1109522" lon="13.4554983"><ele>1075.3333333333335</ele><time>2026-03-24T14:18:31.924Z</time></trkpt><trkpt lat="42.1108568" lon="13.455741"><ele>1074.6666666666667</ele><time>2026-03-24T14:18:32.924Z</time></trkpt><trkpt lat="42.1107623" lon="13.4559763"><ele>1074.0</ele><time>2026-03-24T14:18:33.925Z</time></trkpt><trkpt lat="42.1106672" lon="13.4562003"><ele>1076.6666666666667</ele><time>2026-03-24T14:18:34.924Z</time></trkpt><trkpt lat="42.1105746" lon="13.4564174"><ele>1079.3333333333335</ele><time>2026-03-24T14:18:35.924Z</time></trkpt><trkpt lat="42.1104886" lon="13.4566404"><ele>1082.0</ele><time>2026-03-24T14:18:36.924Z</time></trkpt><trkpt lat="42.1104105" lon="13.4568672"><ele>1082.0</ele><time>2026-03-24T14:18:37.925Z</time></trkpt><trkpt lat="42.1103397" lon="13.4570945"><ele>1082.0</ele><time>2026-03-24T14:18:38.925Z</time></trkpt><trkpt lat="42.1102921" lon="13.4573233"><ele>1082.0</ele><time>2026-03-24T14:18:39.925Z</time></trkpt><trkpt lat="42.1102657" lon="13.4575568"><ele>1083.6666666666667</ele><time>2026-03-24T14:18:40.924Z</time></trkpt><trkpt lat="42.1102659" lon="13.4577947"><ele>1085.3333333333333</ele><time>2026-03-24T14:18:41.924Z</time></trkpt><trkpt lat="42.1102754" lon="13.4580331"><ele>1087.0</ele><time>2026-03-24T14:18:42.924Z</time></trkpt><trkpt lat="42.1102896" lon="13.4582802"><ele>1088.3333333333333</ele><time>2026-03-24T14:18:43.924Z</time></trkpt><trkpt lat="42.1103014" lon="13.4585222"><ele>1089.6666666666667</ele><time>2026-03-24T14:18:44.924Z</time></trkpt><trkpt lat="42.1103035" lon="13.4587589"><ele>1091.0</ele><time>2026-03-24T14:18:45.924Z</time></trkpt><trkpt lat="42.1102832" lon="13.4589859"><ele>1092.3333333333335</ele><time>2026-03-24T14:18:46.924Z</time></trkpt><trkpt lat="42.1102383" lon="13.4592015"><ele>1093.6666666666667</ele><time>2026-03-24T14:18:47.924Z</time></trkpt><trkpt lat="42.1101628" lon="13.4593807"><ele>1095.0</ele><time>2026-03-24T14:18:48.924Z</time></trkpt><trkpt lat="42.1100579" lon="13.4595395"><ele>1096.6666666666667</ele><time>2026-03-24T14:18:49.924Z</time></trkpt><trkpt lat="42.1099395" lon="13.4596925"><ele>1098.3333333333335</ele><time>2026-03-24T14:18:50.924Z</time></trkpt><trkpt lat="42.1098155" lon="13.4598487"><ele>1100.0</ele><time>2026-03-24T14:18:51.925Z</time></trkpt><trkpt lat="42.1096898" lon="13.4600054"><ele>1100.0</ele><time>2026-03-24T14:18:52.924Z</time></trkpt><trkpt lat="42.10956" lon="13.4601682"><ele>1100.0</ele><time>2026-03-24T14:18:53.925Z</time></trkpt><trkpt lat="42.109432" lon="13.4603296"><ele>1100.0</ele><time>2026-03-24T14:18:54.924Z</time></trkpt><trkpt lat="42.1093051" lon="13.4604924"><ele>1101.6666666666667</ele><time>2026-03-24T14:18:55.924Z</time></trkpt><trkpt lat="42.1091807" lon="13.460656"><ele>1103.3333333333333</ele><time>2026-03-24T14:18:56.924Z</time></trkpt><trkpt lat="42.1090651" lon="13.4608322"><ele>1105.0</ele><time>2026-03-24T14:18:57.925Z</time></trkpt><trkpt lat="42.1089628" lon="13.4610205"><ele>1105.0</ele><time>2026-03-24T14:18:58.925Z</time></trkpt><trkpt lat="42.1088888" lon="13.4612279"><ele>1105.0</ele><time>2026-03-24T14:18:59.924Z</time></trkpt><trkpt lat="42.1088338" lon="13.4614373"><ele>1105.0</ele><time>2026-03-24T14:19:00.924Z</time></trkpt><trkpt lat="42.1087855" lon="13.461642"><ele>1107.0</ele><time>2026-03-24T14:19:01.924Z</time></trkpt><trkpt lat="42.1087379" lon="13.4618438"><ele>1109.0</ele><time>2026-03-24T14:19:02.925Z</time></trkpt><trkpt lat="42.1086898" lon="13.4620436"><ele>1111.0</ele><time>2026-03-24T14:19:03.925Z</time></trkpt><trkpt lat="42.1086401" lon="13.4622449"><ele>1111.0</ele><time>2026-03-24T14:19:04.924Z</time></trkpt><trkpt lat="42.1085854" lon="13.4624488"><ele>1111.0</ele><time>2026-03-24T14:19:05.924Z</time></trkpt><trkpt lat="42.1085258" lon="13.4626539"><ele>1111.0</ele><time>2026-03-24T14:19:06.924Z</time></trkpt><trkpt lat="42.1084563" lon="13.4628605"><ele>1109.6666666666665</ele><time>2026-03-24T14:19:07.924Z</time></trkpt><trkpt lat="42.1083745" lon="13.463072"><ele>1108.3333333333333</ele><time>2026-03-24T14:19:08.924Z</time></trkpt><trkpt lat="42.1082766" lon="13.4632844"><ele>1107.0</ele><time>2026-03-24T14:19:09.925Z</time></trkpt><trkpt lat="42.1081654" lon="13.4634948"><ele>1104.3333333333333</ele><time>2026-03-24T14:19:10.924Z</time></trkpt><trkpt lat="42.1080513" lon="13.4637052"><ele>1101.6666666666665</ele><time>2026-03-24T14:19:11.924Z</time></trkpt><trkpt lat="42.1079356" lon="13.4639105"><ele>1099.0</ele><time>2026-03-24T14:19:12.924Z</time></trkpt><trkpt lat="42.1078291" lon="13.4641035"><ele>1099.0</ele><time>2026-03-24T14:19:13.925Z</time></trkpt><trkpt lat="42.10773" lon="13.4642895"><ele>1099.0</ele><time>2026-03-24T14:19:14.924Z</time></trkpt><trkpt lat="42.1076355" lon="13.4644683"><ele>1099.0</ele><time>2026-03-24T14:19:15.924Z</time></trkpt><trkpt lat="42.1075485" lon="13.4646451"><ele>1098.0</ele><time>2026-03-24T14:19:16.925Z</time></trkpt><trkpt lat="42.1074708" lon="13.4648349"><ele>1097.0</ele><time>2026-03-24T14:19:17.924Z</time></trkpt><trkpt lat="42.1074155" lon="13.4650334"><ele>1096.0</ele><time>2026-03-24T14:19:18.924Z</time></trkpt><trkpt lat="42.1073791" lon="13.4652391"><ele>1098.0</ele><time>2026-03-24T14:19:19.924Z</time></trkpt><trkpt lat="42.1073677" lon="13.4654483"><ele>1100.0</ele><time>2026-03-24T14:19:20.924Z</time></trkpt><trkpt lat="42.1073788" lon="13.4656654"><ele>1102.0</ele><time>2026-03-24T14:19:21.925Z</time></trkpt><trkpt lat="42.1074102" lon="13.465887"><ele>1101.3333333333333</ele><time>2026-03-24T14:19:22.925Z</time></trkpt><trkpt lat="42.1074634" lon="13.4661167"><ele>1100.6666666666667</ele><time>2026-03-24T14:19:23.924Z</time></trkpt><trkpt lat="42.1075403" lon="13.4663537"><ele>1100.0</ele><time>2026-03-24T14:19:24.924Z</time></trkpt><trkpt lat="42.107629" lon="13.4665965"><ele>1097.6666666666667</ele><time>2026-03-24T14:19:25.924Z</time></trkpt><trkpt lat="42.107721" lon="13.4668484"><ele>1095.3333333333333</ele><time>2026-03-24T14:19:26.925Z</time></trkpt><trkpt lat="42.1078128" lon="13.467115"><ele>1093.0</ele><time>2026-03-24T14:19:27.925Z</time></trkpt><trkpt lat="42.1079111" lon="13.4673848"><ele>1090.5</ele><time>2026-03-24T14:19:28.924Z</time></trkpt><trkpt lat="42.1080169" lon="13.4676619"><ele>1088.0</ele><time>2026-03-24T14:19:29.925Z</time></trkpt><trkpt lat="42.10812" lon="13.4679442"><ele>1089.5</ele><time>2026-03-24T14:19:30.924Z</time></trkpt><trkpt lat="42.1082256" lon="13.468237"><ele>1091.0</ele><time>2026-03-24T14:19:31.925Z</time></trkpt><trkpt lat="42.1083321" lon="13.4685268"><ele>1088.5</ele><time>2026-03-24T14:19:32.924Z</time></trkpt><trkpt lat="42.1084349" lon="13.4688125"><ele>1086.0</ele><time>2026-03-24T14:19:33.924Z</time></trkpt><trkpt lat="42.1085306" lon="13.4690834"><ele>1086.0</ele><time>2026-03-24T14:19:34.924Z</time></trkpt><trkpt lat="42.1086188" lon="13.4693443"><ele>1086.0</ele><time>2026-03-24T14:19:35.924Z</time></trkpt><trkpt lat="42.1087051" lon="13.4695952"><ele>1086.0</ele><time>2026-03-24T14:19:36.925Z</time></trkpt><trkpt lat="42.1087827" lon="13.4698464"><ele>1086.3333333333333</ele><time>2026-03-24T14:19:37.924Z</time></trkpt><trkpt lat="42.1088178" lon="13.4700815"><ele>1086.6666666666665</ele><time>2026-03-24T14:19:38.925Z</time></trkpt><trkpt lat="42.1088266" lon="13.4703264"><ele>1087.0</ele><time>2026-03-24T14:19:39.924Z</time></trkpt><trkpt lat="42.108827" lon="13.4705759"><ele>1088.0</ele><time>2026-03-24T14:19:40.924Z</time></trkpt><trkpt lat="42.1088185" lon="13.4708271"><ele>1089.0</ele><time>2026-03-24T14:19:41.924Z</time></trkpt><trkpt lat="42.1088231" lon="13.4710771"><ele>1090.0</ele><time>2026-03-24T14:19:42.924Z</time></trkpt><trkpt lat="42.1088335" lon="13.4713264"><ele>1090.0</ele><time>2026-03-24T14:19:43.925Z</time></trkpt><trkpt lat="42.1088879" lon="13.4715727"><ele>1090.0</ele><time>2026-03-24T14:19:44.924Z</time></trkpt><trkpt lat="42.1089405" lon="13.4718177"><ele>1090.0</ele><time>2026-03-24T14:19:45.924Z</time></trkpt><trkpt lat="42.1090011" lon="13.4720701"><ele>1092.3333333333333</ele><time>2026-03-24T14:19:46.924Z</time></trkpt><trkpt lat="42.1090606" lon="13.472328"><ele>1094.6666666666667</ele><time>2026-03-24T14:19:47.925Z</time></trkpt><trkpt lat="42.1091312" lon="13.4725908"><ele>1097.0</ele><time>2026-03-24T14:19:48.924Z</time></trkpt><trkpt lat="42.1092048" lon="13.4728503"><ele>1096.0</ele><time>2026-03-24T14:19:49.924Z</time></trkpt><trkpt lat="42.1092927" lon="13.473113"><ele>1095.0</ele><time>2026-03-24T14:19:50.924Z</time></trkpt><trkpt lat="42.1093943" lon="13.4733582"><ele>1094.0</ele><time>2026-03-24T14:19:51.925Z</time></trkpt><trkpt lat="42.1095026" lon="13.4736024"><ele>1092.3333333333335</ele><time>2026-03-24T14:19:52.924Z</time></trkpt><trkpt lat="42.1096103" lon="13.4738512"><ele>1090.6666666666667</ele><time>2026-03-24T14:19:53.925Z</time></trkpt><trkpt lat="42.1097171" lon="13.4741036"><ele>1089.0</ele><time>2026-03-24T14:19:54.924Z</time></trkpt><trkpt lat="42.1098244" lon="13.4743587"><ele>1093.0</ele><time>2026-03-24T14:19:55.924Z</time></trkpt><trkpt lat="42.1099245" lon="13.4746003"><ele>1097.0</ele><time>2026-03-24T14:19:56.925Z</time></trkpt><trkpt lat="42.1100136" lon="13.4748408"><ele>1101.0</ele><time>2026-03-24T14:19:57.924Z</time></trkpt><trkpt lat="42.1100782" lon="13.4750781"><ele>1101.0</ele><time>2026-03-24T14:19:58.925Z</time></trkpt><trkpt lat="42.1101248" lon="13.4753155"><ele>1101.0</ele><time>2026-03-24T14:19:59.925Z</time></trkpt><trkpt lat="42.1101582" lon="13.4755515"><ele>1101.0</ele><time>2026-03-24T14:20:00.924Z</time></trkpt><trkpt lat="42.1102017" lon="13.4757834"><ele>1101.3333333333333</ele><time>2026-03-24T14:20:01.924Z</time></trkpt><trkpt lat="42.1102615" lon="13.4760115"><ele>1101.6666666666665</ele><time>2026-03-24T14:20:02.924Z</time></trkpt><trkpt lat="42.1103332" lon="13.476235"><ele>1102.0</ele><time>2026-03-24T14:20:03.925Z</time></trkpt><trkpt lat="42.1104239" lon="13.4764465"><ele>1100.3333333333333</ele><time>2026-03-24T14:20:04.924Z</time></trkpt><trkpt lat="42.1105328" lon="13.4766453"><ele>1098.6666666666667</ele><time>2026-03-24T14:20:05.924Z</time></trkpt><trkpt lat="42.1106456" lon="13.4768331"><ele>1097.0</ele><time>2026-03-24T14:20:06.924Z</time></trkpt><trkpt lat="42.1107477" lon="13.4770268"><ele>1101.3333333333335</ele><time>2026-03-24T14:20:07.924Z</time></trkpt><trkpt lat="42.1108257" lon="13.4772394"><ele>1105.6666666666667</ele><time>2026-03-24T14:20:08.924Z</time></trkpt><trkpt lat="42.110888" lon="13.4774662"><ele>1110.0</ele><time>2026-03-24T14:20:09.924Z</time></trkpt><trkpt lat="42.1109253" lon="13.4777034"><ele>1110.3333333333333</ele><time>2026-03-24T14:20:10.924Z</time></trkpt><trkpt lat="42.1109503" lon="13.4779442"><ele>1110.6666666666665</ele><time>2026-03-24T14:20:11.924Z</time></trkpt><trkpt lat="42.1109657" lon="13.4781826"><ele>1111.0</ele><time>2026-03-24T14:20:12.925Z</time></trkpt><trkpt lat="42.1109885" lon="13.4784178"><ele>1111.0</ele><time>2026-03-24T14:20:13.925Z</time></trkpt><trkpt lat="42.1110222" lon="13.4786444"><ele>1111.0</ele><time>2026-03-24T14:20:14.925Z</time></trkpt><trkpt lat="42.1110928" lon="13.4788882"><ele>1111.0</ele><time>2026-03-24T14:20:15.924Z</time></trkpt><trkpt lat="42.1111547" lon="13.4791248"><ele>1110.0</ele><time>2026-03-24T14:20:16.925Z</time></trkpt><trkpt lat="42.1112121" lon="13.4793611"><ele>1109.0</ele><time>2026-03-24T14:20:17.924Z</time></trkpt><trkpt lat="42.1112649" lon="13.4795923"><ele>1108.0</ele><time>2026-03-24T14:20:18.924Z</time></trkpt><trkpt lat="42.1113004" lon="13.4798262"><ele>1105.0</ele><time>2026-03-24T14:20:19.924Z</time></trkpt><trkpt lat="42.1113128" lon="13.4800583"><ele>1102.0</ele><time>2026-03-24T14:20:20.924Z</time></trkpt><trkpt lat="42.1113012" lon="13.4803002"><ele>1099.0</ele><time>2026-03-24T14:20:21.924Z</time></trkpt><trkpt lat="42.1112723" lon="13.4805447"><ele>1098.3333333333333</ele><time>2026-03-24T14:20:22.925Z</time></trkpt><trkpt lat="42.1112364" lon="13.4807943"><ele>1097.6666666666667</ele><time>2026-03-24T14:20:23.925Z</time></trkpt><trkpt lat="42.1111904" lon="13.4810464"><ele>1097.0</ele><time>2026-03-24T14:20:24.924Z</time></trkpt><trkpt lat="42.1111449" lon="13.4812887"><ele>1096.6666666666667</ele><time>2026-03-24T14:20:25.924Z</time></trkpt><trkpt lat="42.1111019" lon="13.4815211"><ele>1096.3333333333333</ele><time>2026-03-24T14:20:26.924Z</time></trkpt><trkpt lat="42.1110505" lon="13.4817363"><ele>1096.0</ele><time>2026-03-24T14:20:27.924Z</time></trkpt><trkpt lat="42.1109867" lon="13.4819296"><ele>1098.0</ele><time>2026-03-24T14:20:28.924Z</time></trkpt><trkpt lat="42.1108955" lon="13.4821083"><ele>1100.0</ele><time>2026-03-24T14:20:29.924Z</time></trkpt><trkpt lat="42.1107901" lon="13.4822761"><ele>1102.0</ele><time>2026-03-24T14:20:30.924Z</time></trkpt><trkpt lat="42.1106709" lon="13.4824326"><ele>1097.3333333333333</ele><time>2026-03-24T14:20:31.924Z</time></trkpt><trkpt lat="42.1105403" lon="13.4825894"><ele>1092.6666666666667</ele><time>2026-03-24T14:20:32.924Z</time></trkpt><trkpt lat="42.1104016" lon="13.4827541"><ele>1088.0</ele><time>2026-03-24T14:20:33.924Z</time></trkpt><trkpt lat="42.1102748" lon="13.4829332"><ele>1088.0</ele><time>2026-03-24T14:20:34.924Z</time></trkpt><trkpt lat="42.1101585" lon="13.4831163"><ele>1088.0</ele><time>2026-03-24T14:20:35.925Z</time></trkpt><trkpt lat="42.1100637" lon="13.4833147"><ele>1088.0</ele><time>2026-03-24T14:20:36.924Z</time></trkpt><trkpt lat="42.1099894" lon="13.4835276"><ele>1088.0</ele><time>2026-03-24T14:20:37.924Z</time></trkpt><trkpt lat="42.1099368" lon="13.4837584"><ele>1088.0</ele><time>2026-03-24T14:20:38.924Z</time></trkpt><trkpt lat="42.1099119" lon="13.4839989"><ele>1088.0</ele><time>2026-03-24T14:20:39.925Z</time></trkpt><trkpt lat="42.1099119" lon="13.484244"><ele>1088.3333333333335</ele><time>2026-03-24T14:20:40.924Z</time></trkpt><trkpt lat="42.1099365" lon="13.4844903"><ele>1088.6666666666667</ele><time>2026-03-24T14:20:41.924Z</time></trkpt><trkpt lat="42.1099631" lon="13.4847308"><ele>1089.0</ele><time>2026-03-24T14:20:42.924Z</time></trkpt><trkpt lat="42.1099852" lon="13.4849596"><ele>1087.0</ele><time>2026-03-24T14:20:43.925Z</time></trkpt><trkpt lat="42.1099912" lon="13.485176"><ele>1085.0</ele><time>2026-03-24T14:20:44.924Z</time></trkpt><trkpt lat="42.1099753" lon="13.4853867"><ele>1083.0</ele><time>2026-03-24T14:20:45.924Z</time></trkpt><trkpt lat="42.1099316" lon="13.485594"><ele>1076.6666666666667</ele><time>2026-03-24T14:20:46.925Z</time></trkpt><trkpt lat="42.1098567" lon="13.4857973"><ele>1070.3333333333335</ele><time>2026-03-24T14:20:47.924Z</time></trkpt><trkpt lat="42.1097558" lon="13.4860057"><ele>1064.0</ele><time>2026-03-24T14:20:48.924Z</time></trkpt><trkpt lat="42.1096482" lon="13.4862266"><ele>1065.6666666666667</ele><time>2026-03-24T14:20:49.924Z</time></trkpt><trkpt lat="42.109536" lon="13.4864581"><ele>1067.3333333333333</ele><time>2026-03-24T14:20:50.925Z</time></trkpt><trkpt lat="42.1094184" lon="13.4867035"><ele>1069.0</ele><time>2026-03-24T14:20:51.924Z</time></trkpt><trkpt lat="42.1093003" lon="13.4869443"><ele>1070.3333333333333</ele><time>2026-03-24T14:20:52.924Z</time></trkpt><trkpt lat="42.1091862" lon="13.4871753"><ele>1071.6666666666667</ele><time>2026-03-24T14:20:53.925Z</time></trkpt><trkpt lat="42.1090735" lon="13.4874014"><ele>1073.0</ele><time>2026-03-24T14:20:54.924Z</time></trkpt><trkpt lat="42.1089597" lon="13.4876172"><ele>1070.0</ele><time>2026-03-24T14:20:55.924Z</time></trkpt><trkpt lat="42.1088345" lon="13.4878192"><ele>1067.0</ele><time>2026-03-24T14:20:56.924Z</time></trkpt><trkpt lat="42.1086996" lon="13.4879971"><ele>1064.0</ele><time>2026-03-24T14:20:57.924Z</time></trkpt><trkpt lat="42.1085552" lon="13.4881483"><ele>1064.0</ele><time>2026-03-24T14:20:58.924Z</time></trkpt><trkpt lat="42.1084064" lon="13.4882639"><ele>1064.0</ele><time>2026-03-24T14:20:59.924Z</time></trkpt><trkpt lat="42.1082461" lon="13.48835"><ele>1064.0</ele><time>2026-03-24T14:21:00.925Z</time></trkpt><trkpt lat="42.1080769" lon="13.4884132"><ele>1058.3333333333335</ele><time>2026-03-24T14:21:01.925Z</time></trkpt><trkpt lat="42.1079075" lon="13.4884799"><ele>1052.6666666666667</ele><time>2026-03-24T14:21:02.924Z</time></trkpt><trkpt lat="42.1077563" lon="13.4885665"><ele>1047.0</ele><time>2026-03-24T14:21:03.925Z</time></trkpt><trkpt lat="42.1076244" lon="13.4886775"><ele>1049.0</ele><time>2026-03-24T14:21:04.925Z</time></trkpt><trkpt lat="42.1075132" lon="13.4888187"><ele>1051.0</ele><time>2026-03-24T14:21:05.925Z</time></trkpt><trkpt lat="42.107433" lon="13.4889795"><ele>1053.0</ele><time>2026-03-24T14:21:06.924Z</time></trkpt><trkpt lat="42.1073769" lon="13.4891709"><ele>1055.0</ele><time>2026-03-24T14:21:07.924Z</time></trkpt><trkpt lat="42.1073288" lon="13.4893839"><ele>1047.6666666666667</ele><time>2026-03-24T14:21:08.924Z</time></trkpt><trkpt lat="42.1072834" lon="13.4896182"><ele>1040.3333333333333</ele><time>2026-03-24T14:21:09.924Z</time></trkpt><trkpt lat="42.1072333" lon="13.4898615"><ele>1033.0</ele><time>2026-03-24T14:21:10.924Z</time></trkpt><trkpt lat="42.1071829" lon="13.4901079"><ele>1033.0</ele><time>2026-03-24T14:21:11.925Z</time></trkpt><trkpt lat="42.1071364" lon="13.4903428"><ele>1033.0</ele><time>2026-03-24T14:21:12.924Z</time></trkpt><trkpt lat="42.1070954" lon="13.4905646"><ele>1033.0</ele><time>2026-03-24T14:21:13.924Z</time></trkpt><trkpt lat="42.107068" lon="13.4907738"><ele>1032.0</ele><time>2026-03-24T14:21:14.925Z</time></trkpt><trkpt lat="42.1070587" lon="13.4909738"><ele>1031.0</ele><time>2026-03-24T14:21:15.925Z</time></trkpt><trkpt lat="42.1070696" lon="13.4911552"><ele>1030.0</ele><time>2026-03-24T14:21:16.924Z</time></trkpt><trkpt lat="42.1071107" lon="13.4913236"><ele>1029.0</ele><time>2026-03-24T14:21:17.924Z</time></trkpt><trkpt lat="42.1071811" lon="13.4914724"><ele>1030.75</ele><time>2026-03-24T14:21:18.924Z</time></trkpt><trkpt lat="42.1072741" lon="13.4916185"><ele>1032.5</ele><time>2026-03-24T14:21:19.925Z</time></trkpt><trkpt lat="42.107364" lon="13.4917798"><ele>1034.25</ele><time>2026-03-24T14:21:20.924Z</time></trkpt><trkpt lat="42.1074349" lon="13.4919681"><ele>1036.0</ele><time>2026-03-24T14:21:21.924Z</time></trkpt><trkpt lat="42.1074949" lon="13.4921651"><ele>1036.0</ele><time>2026-03-24T14:21:22.925Z</time></trkpt><trkpt lat="42.1075437" lon="13.4923761"><ele>1036.0</ele><time>2026-03-24T14:21:23.925Z</time></trkpt><trkpt lat="42.1075893" lon="13.4925814"><ele>1036.0</ele><time>2026-03-24T14:21:24.925Z</time></trkpt><trkpt lat="42.1076317" lon="13.4927686"><ele>1034.5</ele><time>2026-03-24T14:21:25.925Z</time></trkpt><trkpt lat="42.1076507" lon="13.4929438"><ele>1033.0</ele><time>2026-03-24T14:21:26.925Z</time></trkpt><trkpt lat="42.1076469" lon="13.4931224"><ele>1031.5</ele><time>2026-03-24T14:21:27.925Z</time></trkpt><trkpt lat="42.1076071" lon="13.4932831"><ele>1030.0</ele><time>2026-03-24T14:21:28.924Z</time></trkpt><trkpt lat="42.1075473" lon="13.493435"><ele>1030.0</ele><time>2026-03-24T14:21:29.924Z</time></trkpt><trkpt lat="42.1074553" lon="13.4935764"><ele>1030.0</ele><time>2026-03-24T14:21:30.925Z</time></trkpt><trkpt lat="42.1073477" lon="13.4937271"><ele>1030.0</ele><time>2026-03-24T14:21:31.924Z</time></trkpt><trkpt lat="42.1072123" lon="13.4939039"><ele>1025.3333333333333</ele><time>2026-03-24T14:21:32.924Z</time></trkpt><trkpt lat="42.1070824" lon="13.4940861"><ele>1020.6666666666667</ele><time>2026-03-24T14:21:33.925Z</time></trkpt><trkpt lat="42.106971" lon="13.4942678"><ele>1016.0</ele><time>2026-03-24T14:21:34.925Z</time></trkpt><trkpt lat="42.106884" lon="13.4944682"><ele>1016.6666666666667</ele><time>2026-03-24T14:21:35.925Z</time></trkpt><trkpt lat="42.1068234" lon="13.4946936"><ele>1017.3333333333333</ele><time>2026-03-24T14:21:36.925Z</time></trkpt><trkpt lat="42.1067754" lon="13.4949415"><ele>1018.0</ele><time>2026-03-24T14:21:37.924Z</time></trkpt><trkpt lat="42.1067275" lon="13.4952046"><ele>1018.6666666666666</ele><time>2026-03-24T14:21:38.924Z</time></trkpt><trkpt lat="42.1066815" lon="13.4954552"><ele>1019.3333333333333</ele><time>2026-03-24T14:21:39.924Z</time></trkpt><trkpt lat="42.1066231" lon="13.4956923"><ele>1020.0</ele><time>2026-03-24T14:21:40.924Z</time></trkpt><trkpt lat="42.1065422" lon="13.4959166"><ele>1016.6666666666667</ele><time>2026-03-24T14:21:41.925Z</time></trkpt><trkpt lat="42.1064422" lon="13.4961275"><ele>1013.3333333333334</ele><time>2026-03-24T14:21:42.924Z</time></trkpt><trkpt lat="42.1063144" lon="13.4963189"><ele>1010.0</ele><time>2026-03-24T14:21:43.924Z</time></trkpt><trkpt lat="42.1061671" lon="13.4964834"><ele>1010.0</ele><time>2026-03-24T14:21:44.924Z</time></trkpt><trkpt lat="42.106002" lon="13.4966306"><ele>1010.0</ele><time>2026-03-24T14:21:45.924Z</time></trkpt><trkpt lat="42.105823" lon="13.4967803"><ele>1010.0</ele><time>2026-03-24T14:21:46.925Z</time></trkpt><trkpt lat="42.1056381" lon="13.4969329"><ele>1009.0</ele><time>2026-03-24T14:21:47.925Z</time></trkpt><trkpt lat="42.1054553" lon="13.4970803"><ele>1008.0</ele><time>2026-03-24T14:21:48.924Z</time></trkpt><trkpt lat="42.1052757" lon="13.4972292"><ele>1007.0</ele><time>2026-03-24T14:21:49.924Z</time></trkpt><trkpt lat="42.1051048" lon="13.4973697"><ele>1007.0</ele><time>2026-03-24T14:21:50.924Z</time></trkpt><trkpt lat="42.1049471" lon="13.497504"><ele>1007.0</ele><time>2026-03-24T14:21:51.924Z</time></trkpt><trkpt lat="42.1048074" lon="13.4976393"><ele>1007.0</ele><time>2026-03-24T14:21:52.925Z</time></trkpt><trkpt lat="42.1046833" lon="13.4977881"><ele>1004.75</ele><time>2026-03-24T14:21:53.924Z</time></trkpt><trkpt lat="42.1045846" lon="13.4979518"><ele>1002.5</ele><time>2026-03-24T14:21:54.924Z</time></trkpt><trkpt lat="42.1045243" lon="13.4981335"><ele>1000.25</ele><time>2026-03-24T14:21:55.924Z</time></trkpt><trkpt lat="42.1045059" lon="13.4983239"><ele>998.0</ele><time>2026-03-24T14:21:56.924Z</time></trkpt><trkpt lat="42.1045247" lon="13.4985216"><ele>998.0</ele><time>2026-03-24T14:21:57.925Z</time></trkpt><trkpt lat="42.1045741" lon="13.498713"><ele>998.0</ele><time>2026-03-24T14:21:58.925Z</time></trkpt><trkpt lat="42.1046521" lon="13.4988875"><ele>998.0</ele><time>2026-03-24T14:21:59.924Z</time></trkpt><trkpt lat="42.1047584" lon="13.4990515"><ele>999.6666666666667</ele><time>2026-03-24T14:22:00.925Z</time></trkpt><trkpt lat="42.1048793" lon="13.4991973"><ele>1001.3333333333333</ele><time>2026-03-24T14:22:01.924Z</time></trkpt><trkpt lat="42.104999" lon="13.4993435"><ele>1003.0</ele><time>2026-03-24T14:22:02.924Z</time></trkpt><trkpt lat="42.1051124" lon="13.4994848"><ele>999.3333333333333</ele><time>2026-03-24T14:22:03.925Z</time></trkpt><trkpt lat="42.1052205" lon="13.4996339"><ele>995.6666666666667</ele><time>2026-03-24T14:22:04.925Z</time></trkpt><trkpt lat="42.1053168" lon="13.4997861"><ele>992.0</ele><time>2026-03-24T14:22:05.924Z</time></trkpt><trkpt lat="42.1053916" lon="13.499958"><ele>992.0</ele><time>2026-03-24T14:22:06.924Z</time></trkpt><trkpt lat="42.1054315" lon="13.5001304"><ele>992.0</ele><time>2026-03-24T14:22:07.924Z</time></trkpt><trkpt lat="42.1054007" lon="13.5003595"><ele>992.0</ele><time>2026-03-24T14:22:08.924Z</time></trkpt><trkpt lat="42.1053809" lon="13.5005819"><ele>989.6666666666667</ele><time>2026-03-24T14:22:09.924Z</time></trkpt><trkpt lat="42.1053583" lon="13.5008282"><ele>987.3333333333333</ele><time>2026-03-24T14:22:10.924Z</time></trkpt><trkpt lat="42.1053175" lon="13.5010805"><ele>985.0</ele><time>2026-03-24T14:22:11.924Z</time></trkpt><trkpt lat="42.1052623" lon="13.5013397"><ele>985.0</ele><time>2026-03-24T14:22:12.924Z</time></trkpt><trkpt lat="42.1051964" lon="13.5016076"><ele>985.0</ele><time>2026-03-24T14:22:13.925Z</time></trkpt><trkpt lat="42.1051248" lon="13.5018815"><ele>985.0</ele><time>2026-03-24T14:22:14.925Z</time></trkpt><trkpt lat="42.1050557" lon="13.5021528"><ele>986.0</ele><time>2026-03-24T14:22:15.925Z</time></trkpt><trkpt lat="42.1049859" lon="13.5024223"><ele>987.0</ele><time>2026-03-24T14:22:16.925Z</time></trkpt><trkpt lat="42.1049146" lon="13.5026712"><ele>988.0</ele><time>2026-03-24T14:22:17.925Z</time></trkpt><trkpt lat="42.1048326" lon="13.5029104"><ele>981.3333333333333</ele><time>2026-03-24T14:22:18.925Z</time></trkpt><trkpt lat="42.1047504" lon="13.503138"><ele>974.6666666666667</ele><time>2026-03-24T14:22:19.924Z</time></trkpt><trkpt lat="42.1046549" lon="13.5033625"><ele>968.0</ele><time>2026-03-24T14:22:20.924Z</time></trkpt><trkpt lat="42.1045578" lon="13.5035774"><ele>969.0</ele><time>2026-03-24T14:22:21.925Z</time></trkpt><trkpt lat="42.1044516" lon="13.5037898"><ele>970.0</ele><time>2026-03-24T14:22:22.924Z</time></trkpt><trkpt lat="42.1043392" lon="13.5039961"><ele>971.0</ele><time>2026-03-24T14:22:23.925Z</time></trkpt><trkpt lat="42.1042091" lon="13.5041955"><ele>969.6666666666667</ele><time>2026-03-24T14:22:24.924Z</time></trkpt><trkpt lat="42.104061" lon="13.5043727"><ele>968.3333333333333</ele><time>2026-03-24T14:22:25.924Z</time></trkpt><trkpt lat="42.1038979" lon="13.5045222"><ele>967.0</ele><time>2026-03-24T14:22:26.924Z</time></trkpt><trkpt lat="42.1037259" lon="13.504642"><ele>967.0</ele><time>2026-03-24T14:22:27.924Z</time></trkpt><trkpt lat="42.1035509" lon="13.5047444"><ele>967.0</ele><time>2026-03-24T14:22:28.924Z</time></trkpt><trkpt lat="42.103394" lon="13.5048396"><ele>967.0</ele><time>2026-03-24T14:22:29.925Z</time></trkpt><trkpt lat="42.1032504" lon="13.5049536"><ele>961.6666666666666</ele><time>2026-03-24T14:22:30.925Z</time></trkpt><trkpt lat="42.1031297" lon="13.5051102"><ele>956.3333333333333</ele><time>2026-03-24T14:22:31.924Z</time></trkpt><trkpt lat="42.1030316" lon="13.5053121"><ele>951.0</ele><time>2026-03-24T14:22:32.925Z</time></trkpt><trkpt lat="42.102949" lon="13.5055416"><ele>951.0</ele><time>2026-03-24T14:22:33.924Z</time></trkpt><trkpt lat="42.1028753" lon="13.5058015"><ele>951.0</ele><time>2026-03-24T14:22:34.924Z</time></trkpt><trkpt lat="42.1027971" lon="13.5060683"><ele>951.0</ele><time>2026-03-24T14:22:35.924Z</time></trkpt><trkpt lat="42.1027209" lon="13.5063227"><ele>953.6666666666667</ele><time>2026-03-24T14:22:36.924Z</time></trkpt><trkpt lat="42.1026429" lon="13.5065613"><ele>956.3333333333334</ele><time>2026-03-24T14:22:37.924Z</time></trkpt><trkpt lat="42.1025602" lon="13.5067869"><ele>959.0</ele><time>2026-03-24T14:22:38.925Z</time></trkpt><trkpt lat="42.1024776" lon="13.5069993"><ele>955.0</ele><time>2026-03-24T14:22:39.925Z</time></trkpt><trkpt lat="42.1023967" lon="13.5072025"><ele>951.0</ele><time>2026-03-24T14:22:40.924Z</time></trkpt><trkpt lat="42.1022997" lon="13.5074074"><ele>947.0</ele><time>2026-03-24T14:22:41.924Z</time></trkpt><trkpt lat="42.1021902" lon="13.5076107"><ele>947.0</ele><time>2026-03-24T14:22:42.924Z</time></trkpt><trkpt lat="42.1020692" lon="13.5078177"><ele>947.0</ele><time>2026-03-24T14:22:43.924Z</time></trkpt><trkpt lat="42.1019325" lon="13.5080157"><ele>947.0</ele><time>2026-03-24T14:22:44.925Z</time></trkpt><trkpt lat="42.1017885" lon="13.5082093"><ele>946.6666666666667</ele><time>2026-03-24T14:22:45.924Z</time></trkpt><trkpt lat="42.1016391" lon="13.5083963"><ele>946.3333333333333</ele><time>2026-03-24T14:22:46.925Z</time></trkpt><trkpt lat="42.1014882" lon="13.5085822"><ele>946.0</ele><time>2026-03-24T14:22:47.924Z</time></trkpt><trkpt lat="42.1013468" lon="13.5087618"><ele>949.3333333333333</ele><time>2026-03-24T14:22:48.924Z</time></trkpt><trkpt lat="42.1012101" lon="13.5089349"><ele>952.6666666666667</ele><time>2026-03-24T14:22:49.924Z</time></trkpt><trkpt lat="42.1010876" lon="13.5091009"><ele>956.0</ele><time>2026-03-24T14:22:50.924Z</time></trkpt><trkpt lat="42.1009783" lon="13.5092562"><ele>956.0</ele><time>2026-03-24T14:22:51.925Z</time></trkpt><trkpt lat="42.1008934" lon="13.5093951"><ele>955.9999999999999</ele><time>2026-03-24T14:22:52.925Z</time></trkpt><trkpt lat="42.1008322" lon="13.5095175"><ele>955.9999999999999</ele><time>2026-03-24T14:22:53.925Z</time></trkpt><trkpt lat="42.1007889" lon="13.5096187"><ele>956.0</ele><time>2026-03-24T14:22:54.925Z</time></trkpt><trkpt lat="42.1007621" lon="13.5096961"><ele>956.0</ele><time>2026-03-24T14:22:55.925Z</time></trkpt><trkpt lat="42.1007791" lon="13.5098056"><ele>956.25</ele><time>2026-03-24T14:22:57.925Z</time></trkpt><trkpt lat="42.1008274" lon="13.5098775"><ele>956.5</ele><time>2026-03-24T14:22:58.924Z</time></trkpt><trkpt lat="42.1009116" lon="13.5099742"><ele>956.75</ele><time>2026-03-24T14:22:59.924Z</time></trkpt><trkpt lat="42.1010363" lon="13.5101193"><ele>957.0</ele><time>2026-03-24T14:23:00.924Z</time></trkpt><trkpt lat="42.1011593" lon="13.5103124"><ele>955.0</ele><time>2026-03-24T14:23:01.924Z</time></trkpt><trkpt lat="42.1012971" lon="13.5105252"><ele>953.0</ele><time>2026-03-24T14:23:02.924Z</time></trkpt><trkpt lat="42.1014338" lon="13.5107319"><ele>951.0</ele><time>2026-03-24T14:23:03.924Z</time></trkpt><trkpt lat="42.1015661" lon="13.5109219"><ele>954.3333333333333</ele><time>2026-03-24T14:23:04.925Z</time></trkpt><trkpt lat="42.1016951" lon="13.5110995"><ele>957.6666666666666</ele><time>2026-03-24T14:23:05.925Z</time></trkpt><trkpt lat="42.1018211" lon="13.5112633"><ele>961.0</ele><time>2026-03-24T14:23:06.924Z</time></trkpt><trkpt lat="42.1019408" lon="13.5114294"><ele>961.0</ele><time>2026-03-24T14:23:07.924Z</time></trkpt><trkpt lat="42.1020524" lon="13.5115957"><ele>961.0</ele><time>2026-03-24T14:23:08.924Z</time></trkpt><trkpt lat="42.1021166" lon="13.5117961"><ele>961.0</ele><time>2026-03-24T14:23:09.924Z</time></trkpt><trkpt lat="42.1021849" lon="13.5120062"><ele>959.3333333333333</ele><time>2026-03-24T14:23:10.924Z</time></trkpt><trkpt lat="42.1022123" lon="13.5122276"><ele>957.6666666666667</ele><time>2026-03-24T14:23:11.924Z</time></trkpt><trkpt lat="42.1022257" lon="13.5124651"><ele>956.0</ele><time>2026-03-24T14:23:12.924Z</time></trkpt><trkpt lat="42.102216" lon="13.5127218"><ele>956.0</ele><time>2026-03-24T14:23:13.924Z</time></trkpt><trkpt lat="42.1021931" lon="13.513002"><ele>956.0</ele><time>2026-03-24T14:23:14.924Z</time></trkpt><trkpt lat="42.1021663" lon="13.5132918"><ele>956.0</ele><time>2026-03-24T14:23:15.924Z</time></trkpt><trkpt lat="42.102133" lon="13.5135986"><ele>957.0</ele><time>2026-03-24T14:23:16.924Z</time></trkpt><trkpt lat="42.1021006" lon="13.5139168"><ele>958.0</ele><time>2026-03-24T14:23:17.924Z</time></trkpt><trkpt lat="42.1020851" lon="13.5142386"><ele>960.0</ele><time>2026-03-24T14:23:18.925Z</time></trkpt><trkpt lat="42.1020787" lon="13.5145818"><ele>962.0</ele><time>2026-03-24T14:23:19.924Z</time></trkpt><trkpt lat="42.1020845" lon="13.5149426"><ele>962.0</ele><time>2026-03-24T14:23:20.924Z</time></trkpt><trkpt lat="42.1020889" lon="13.5153197"><ele>962.0</ele><time>2026-03-24T14:23:21.924Z</time></trkpt><trkpt lat="42.1020968" lon="13.5156952"><ele>963.5</ele><time>2026-03-24T14:23:22.924Z</time></trkpt><trkpt lat="42.1021196" lon="13.5160594"><ele>965.0</ele><time>2026-03-24T14:23:23.924Z</time></trkpt><trkpt lat="42.1021623" lon="13.5163965"><ele>965.0</ele><time>2026-03-24T14:23:24.924Z</time></trkpt><trkpt lat="42.1022197" lon="13.516708"><ele>965.0</ele><time>2026-03-24T14:23:25.925Z</time></trkpt><trkpt lat="42.1022563" lon="13.5170052"><ele>965.0</ele><time>2026-03-24T14:23:26.925Z</time></trkpt><trkpt lat="42.1022539" lon="13.5172782"><ele>965.0</ele><time>2026-03-24T14:23:27.925Z</time></trkpt><trkpt lat="42.1022411" lon="13.5175292"><ele>965.0</ele><time>2026-03-24T14:23:28.925Z</time></trkpt><trkpt lat="42.1022388" lon="13.5177712"><ele>965.0</ele><time>2026-03-24T14:23:29.924Z</time></trkpt><trkpt lat="42.1022622" lon="13.5179897"><ele>965.0</ele><time>2026-03-24T14:23:30.925Z</time></trkpt><trkpt lat="42.1023266" lon="13.5181776"><ele>965.0</ele><time>2026-03-24T14:23:31.924Z</time></trkpt><trkpt lat="42.1024095" lon="13.5183382"><ele>972.6666666666667</ele><time>2026-03-24T14:23:32.925Z</time></trkpt><trkpt lat="42.1025265" lon="13.5184465"><ele>980.3333333333333</ele><time>2026-03-24T14:23:33.924Z</time></trkpt><trkpt lat="42.1026977" lon="13.5184385"><ele>988.0</ele><time>2026-03-24T14:23:34.925Z</time></trkpt><trkpt lat="42.1028807" lon="13.5184006"><ele>988.0</ele><time>2026-03-24T14:23:35.924Z</time></trkpt><trkpt lat="42.10307" lon="13.5183819"><ele>988.0</ele><time>2026-03-24T14:23:36.925Z</time></trkpt><trkpt lat="42.1032677" lon="13.5184169"><ele>988.0</ele><time>2026-03-24T14:23:37.924Z</time></trkpt><trkpt lat="42.1034807" lon="13.5185063"><ele>988.3333333333333</ele><time>2026-03-24T14:23:38.924Z</time></trkpt><trkpt lat="42.1036888" lon="13.5186153"><ele>988.6666666666667</ele><time>2026-03-24T14:23:39.924Z</time></trkpt><trkpt lat="42.1038879" lon="13.5187391"><ele>989.0</ele><time>2026-03-24T14:23:40.924Z</time></trkpt><trkpt lat="42.1040722" lon="13.5188713"><ele>993.0</ele><time>2026-03-24T14:23:41.924Z</time></trkpt><trkpt lat="42.1042173" lon="13.5190642"><ele>997.0</ele><time>2026-03-24T14:23:42.924Z</time></trkpt><trkpt lat="42.1043377" lon="13.5192825"><ele>1001.0</ele><time>2026-03-24T14:23:43.925Z</time></trkpt><trkpt lat="42.1044191" lon="13.5195185"><ele>1000.0</ele><time>2026-03-24T14:23:44.924Z</time></trkpt><trkpt lat="42.1044811" lon="13.5197332"><ele>999.0</ele><time>2026-03-24T14:23:45.924Z</time></trkpt><trkpt lat="42.1045629" lon="13.5199385"><ele>998.0</ele><time>2026-03-24T14:23:46.924Z</time></trkpt><trkpt lat="42.1046719" lon="13.5201355"><ele>998.0</ele><time>2026-03-24T14:23:47.924Z</time></trkpt><trkpt lat="42.104811" lon="13.5203264"><ele>998.0</ele><time>2026-03-24T14:23:48.925Z</time></trkpt><trkpt lat="42.1049618" lon="13.5205265"><ele>998.0</ele><time>2026-03-24T14:23:49.925Z</time></trkpt><trkpt lat="42.1051129" lon="13.5207107"><ele>999.75</ele><time>2026-03-24T14:23:50.924Z</time></trkpt><trkpt lat="42.1052334" lon="13.5208686"><ele>1001.5</ele><time>2026-03-24T14:23:51.925Z</time></trkpt><trkpt lat="42.1053409" lon="13.520998"><ele>1003.25</ele><time>2026-03-24T14:23:52.924Z</time></trkpt><trkpt lat="42.1054575" lon="13.5210706"><ele>1005.0</ele><time>2026-03-24T14:23:53.924Z</time></trkpt><trkpt lat="42.1055916" lon="13.5210736"><ele>1005.0</ele><time>2026-03-24T14:23:54.924Z</time></trkpt><trkpt lat="42.1057395" lon="13.5210106"><ele>1005.0</ele><time>2026-03-24T14:23:55.925Z</time></trkpt><trkpt lat="42.105888" lon="13.5208899"><ele>1005.0</ele><time>2026-03-24T14:23:56.924Z</time></trkpt><trkpt lat="42.1060358" lon="13.5207312"><ele>1004.3333333333333</ele><time>2026-03-24T14:23:57.924Z</time></trkpt><trkpt lat="42.1061905" lon="13.5205573"><ele>1003.6666666666666</ele><time>2026-03-24T14:23:58.924Z</time></trkpt><trkpt lat="42.10636" lon="13.5204069"><ele>1003.0</ele><time>2026-03-24T14:23:59.924Z</time></trkpt><trkpt lat="42.1065346" lon="13.5203138"><ele>1003.6666666666666</ele><time>2026-03-24T14:24:00.925Z</time></trkpt><trkpt lat="42.1067032" lon="13.5202422"><ele>1004.3333333333333</ele><time>2026-03-24T14:24:01.925Z</time></trkpt><trkpt lat="42.1068507" lon="13.5201441"><ele>1005.0</ele><time>2026-03-24T14:24:02.924Z</time></trkpt><trkpt lat="42.1069721" lon="13.5199902"><ele>1005.0</ele><time>2026-03-24T14:24:03.925Z</time></trkpt><trkpt lat="42.1070746" lon="13.5197746"><ele>1005.0</ele><time>2026-03-24T14:24:04.925Z</time></trkpt><trkpt lat="42.1071931" lon="13.5195253"><ele>1005.0</ele><time>2026-03-24T14:24:05.925Z</time></trkpt><trkpt lat="42.1073176" lon="13.5192463"><ele>1001.5</ele><time>2026-03-24T14:24:06.925Z</time></trkpt><trkpt lat="42.1074347" lon="13.5189716"><ele>998.0</ele><time>2026-03-24T14:24:07.925Z</time></trkpt><trkpt lat="42.1075289" lon="13.5187081"><ele>998.0</ele><time>2026-03-24T14:24:08.924Z</time></trkpt><trkpt lat="42.1076036" lon="13.5184537"><ele>998.0</ele><time>2026-03-24T14:24:09.924Z</time></trkpt><trkpt lat="42.1076387" lon="13.5182217"><ele>998.0</ele><time>2026-03-24T14:24:10.924Z</time></trkpt><trkpt lat="42.107676" lon="13.5180534"><ele>998.0</ele><time>2026-03-24T14:24:11.925Z</time></trkpt><trkpt lat="42.1077856" lon="13.5179077"><ele>998.0</ele><time>2026-03-24T14:24:12.925Z</time></trkpt><trkpt lat="42.1079155" lon="13.5177572"><ele>998.0</ele><time>2026-03-24T14:24:13.925Z</time></trkpt><trkpt lat="42.1080715" lon="13.5176171"><ele>997.3333333333334</ele><time>2026-03-24T14:24:14.924Z</time></trkpt><trkpt lat="42.108221" lon="13.5174904"><ele>996.6666666666667</ele><time>2026-03-24T14:24:15.925Z</time></trkpt><trkpt lat="42.1083497" lon="13.5173831"><ele>996.0</ele><time>2026-03-24T14:24:16.925Z</time></trkpt><trkpt lat="42.1084647" lon="13.5173233"><ele>996.0</ele><time>2026-03-24T14:24:17.924Z</time></trkpt><trkpt lat="42.1085896" lon="13.517314"><ele>996.0</ele><time>2026-03-24T14:24:18.924Z</time></trkpt><trkpt lat="42.1087104" lon="13.5173734"><ele>996.0</ele><time>2026-03-24T14:24:19.925Z</time></trkpt><trkpt lat="42.1088124" lon="13.5174979"><ele>996.0</ele><time>2026-03-24T14:24:20.924Z</time></trkpt><trkpt lat="42.108903" lon="13.5176535"><ele>996.0</ele><time>2026-03-24T14:24:21.924Z</time></trkpt><trkpt lat="42.1089905" lon="13.5178562"><ele>996.0</ele><time>2026-03-24T14:24:22.924Z</time></trkpt><trkpt lat="42.1090797" lon="13.5180745"><ele>996.0</ele><time>2026-03-24T14:24:23.925Z</time></trkpt><trkpt lat="42.1091657" lon="13.5182755"><ele>996.0</ele><time>2026-03-24T14:24:24.924Z</time></trkpt><trkpt lat="42.1092296" lon="13.5184707"><ele>996.0</ele><time>2026-03-24T14:24:25.925Z</time></trkpt><trkpt lat="42.1092512" lon="13.518653"><ele>996.0</ele><time>2026-03-24T14:24:26.925Z</time></trkpt><trkpt lat="42.1092406" lon="13.5188299"><ele>996.0</ele><time>2026-03-24T14:24:27.924Z</time></trkpt><trkpt lat="42.1091806" lon="13.518993"><ele>995.6666666666667</ele><time>2026-03-24T14:24:28.924Z</time></trkpt><trkpt lat="42.1090947" lon="13.5191551"><ele>995.3333333333334</ele><time>2026-03-24T14:24:29.924Z</time></trkpt><trkpt lat="42.1089911" lon="13.5193068"><ele>995.0</ele><time>2026-03-24T14:24:30.924Z</time></trkpt><trkpt lat="42.1088885" lon="13.5194731"><ele>996.0</ele><time>2026-03-24T14:24:31.924Z</time></trkpt><trkpt lat="42.1087999" lon="13.519665"><ele>997.0</ele><time>2026-03-24T14:24:32.925Z</time></trkpt><trkpt lat="42.1087222" lon="13.5198711"><ele>998.0</ele><time>2026-03-24T14:24:33.924Z</time></trkpt><trkpt lat="42.1086533" lon="13.5200886"><ele>998.0</ele><time>2026-03-24T14:24:34.924Z</time></trkpt><trkpt lat="42.1085731" lon="13.5203132"><ele>998.0</ele><time>2026-03-24T14:24:35.924Z</time></trkpt><trkpt lat="42.1084922" lon="13.5205386"><ele>998.0</ele><time>2026-03-24T14:24:36.925Z</time></trkpt><trkpt lat="42.1084156" lon="13.5207714"><ele>999.6666666666667</ele><time>2026-03-24T14:24:37.925Z</time></trkpt><trkpt lat="42.1083368" lon="13.5209956"><ele>1001.3333333333333</ele><time>2026-03-24T14:24:38.924Z</time></trkpt><trkpt lat="42.1082626" lon="13.5212174"><ele>1003.0</ele><time>2026-03-24T14:24:39.924Z</time></trkpt><trkpt lat="42.108192" lon="13.5214323"><ele>1003.0</ele><time>2026-03-24T14:24:40.925Z</time></trkpt><trkpt lat="42.1081261" lon="13.5216295"><ele>1003.0</ele><time>2026-03-24T14:24:41.924Z</time></trkpt><trkpt lat="42.1080656" lon="13.5218089"><ele>1003.0</ele><time>2026-03-24T14:24:42.924Z</time></trkpt><trkpt lat="42.1080084" lon="13.5219659"><ele>1003.0</ele><time>2026-03-24T14:24:43.924Z</time></trkpt><trkpt lat="42.1079372" lon="13.5221268"><ele>1004.6666666666666</ele><time>2026-03-24T14:24:44.924Z</time></trkpt><trkpt lat="42.1078941" lon="13.5222163"><ele>1006.3333333333333</ele><time>2026-03-24T14:24:45.924Z</time></trkpt><trkpt lat="42.1078545" lon="13.5222961"><ele>1008.0</ele><time>2026-03-24T14:24:46.924Z</time></trkpt><trkpt lat="42.1078287" lon="13.5223922"><ele>1009.6666666666667</ele><time>2026-03-24T14:24:48.924Z</time></trkpt><trkpt lat="42.1079334" lon="13.5224303"><ele>1011.3333333333334</ele><time>2026-03-24T14:24:51.924Z</time></trkpt><trkpt lat="42.1080048" lon="13.5223838"><ele>1013.0</ele><time>2026-03-24T14:24:52.924Z</time></trkpt><trkpt lat="42.1080942" lon="13.5223166"><ele>1013.0</ele><time>2026-03-24T14:24:53.924Z</time></trkpt><trkpt lat="42.1082029" lon="13.5222219"><ele>1013.0</ele><time>2026-03-24T14:24:54.924Z</time></trkpt><trkpt lat="42.1083256" lon="13.5221243"><ele>1013.0</ele><time>2026-03-24T14:24:55.924Z</time></trkpt><trkpt lat="42.1084622" lon="13.5220151"><ele>1013.0</ele><time>2026-03-24T14:24:56.924Z</time></trkpt><trkpt lat="42.1085992" lon="13.5219068"><ele>1013.6666666666667</ele><time>2026-03-24T14:24:57.924Z</time></trkpt><trkpt lat="42.1087439" lon="13.5218001"><ele>1014.3333333333333</ele><time>2026-03-24T14:24:58.925Z</time></trkpt><trkpt lat="42.1088977" lon="13.5217043"><ele>1015.0</ele><time>2026-03-24T14:24:59.924Z</time></trkpt><trkpt lat="42.1090703" lon="13.5216256"><ele>1018.3333333333333</ele><time>2026-03-24T14:25:00.924Z</time></trkpt><trkpt lat="42.1092572" lon="13.5215792"><ele>1021.6666666666667</ele><time>2026-03-24T14:25:01.924Z</time></trkpt><trkpt lat="42.1094606" lon="13.5215402"><ele>1025.0</ele><time>2026-03-24T14:25:02.924Z</time></trkpt><trkpt lat="42.1096689" lon="13.5214976"><ele>1025.0</ele><time>2026-03-24T14:25:03.924Z</time></trkpt><trkpt lat="42.1098797" lon="13.5214463"><ele>1025.0</ele><time>2026-03-24T14:25:04.924Z</time></trkpt><trkpt lat="42.1100828" lon="13.5213705"><ele>1025.0</ele><time>2026-03-24T14:25:05.924Z</time></trkpt><trkpt lat="42.1102841" lon="13.5212655"><ele>1024.0</ele><time>2026-03-24T14:25:06.924Z</time></trkpt><trkpt lat="42.1104771" lon="13.5210967"><ele>1023.0</ele><time>2026-03-24T14:25:07.924Z</time></trkpt><trkpt lat="42.1106695" lon="13.5209618"><ele>1022.0</ele><time>2026-03-24T14:25:08.924Z</time></trkpt><trkpt lat="42.1108461" lon="13.5208235"><ele>1025.3333333333335</ele><time>2026-03-24T14:25:09.924Z</time></trkpt><trkpt lat="42.1110152" lon="13.5206962"><ele>1028.6666666666667</ele><time>2026-03-24T14:25:10.924Z</time></trkpt><trkpt lat="42.1111832" lon="13.5205949"><ele>1032.0</ele><time>2026-03-24T14:25:11.924Z</time></trkpt><trkpt lat="42.1113614" lon="13.5205267"><ele>1032.0</ele><time>2026-03-24T14:25:12.924Z</time></trkpt><trkpt lat="42.1115303" lon="13.5204613"><ele>1032.0</ele><time>2026-03-24T14:25:13.924Z</time></trkpt><trkpt lat="42.1117436" lon="13.5204588"><ele>1032.0</ele><time>2026-03-24T14:25:14.925Z</time></trkpt><trkpt lat="42.1119705" lon="13.5204864"><ele>1036.3333333333333</ele><time>2026-03-24T14:25:15.924Z</time></trkpt><trkpt lat="42.1121876" lon="13.5205024"><ele>1040.6666666666665</ele><time>2026-03-24T14:25:16.924Z</time></trkpt><trkpt lat="42.1124059" lon="13.5204937"><ele>1045.0</ele><time>2026-03-24T14:25:17.924Z</time></trkpt><trkpt lat="42.1126237" lon="13.5204592"><ele>1041.6666666666665</ele><time>2026-03-24T14:25:18.924Z</time></trkpt><trkpt lat="42.1128364" lon="13.5203889"><ele>1038.3333333333333</ele><time>2026-03-24T14:25:19.925Z</time></trkpt><trkpt lat="42.1130402" lon="13.5202806"><ele>1035.0</ele><time>2026-03-24T14:25:20.924Z</time></trkpt><trkpt lat="42.1132362" lon="13.5201405"><ele>1040.5</ele><time>2026-03-24T14:25:21.925Z</time></trkpt><trkpt lat="42.113441" lon="13.52"><ele>1046.0</ele><time>2026-03-24T14:25:22.924Z</time></trkpt><trkpt lat="42.1136345" lon="13.5198197"><ele>1046.0</ele><time>2026-03-24T14:25:23.925Z</time></trkpt><trkpt lat="42.1138356" lon="13.5196538"><ele>1046.0</ele><time>2026-03-24T14:25:24.924Z</time></trkpt><trkpt lat="42.114046" lon="13.5194945"><ele>1047.0</ele><time>2026-03-24T14:25:25.924Z</time></trkpt><trkpt lat="42.1142691" lon="13.5193518"><ele>1048.0</ele><time>2026-03-24T14:25:26.925Z</time></trkpt><trkpt lat="42.1144956" lon="13.519218"><ele>1048.0</ele><time>2026-03-24T14:25:27.924Z</time></trkpt><trkpt lat="42.1147246" lon="13.5190812"><ele>1048.0</ele><time>2026-03-24T14:25:28.925Z</time></trkpt><trkpt lat="42.1149545" lon="13.5189433"><ele>1046.5</ele><time>2026-03-24T14:25:29.925Z</time></trkpt><trkpt lat="42.115172" lon="13.5188038"><ele>1045.0</ele><time>2026-03-24T14:25:30.925Z</time></trkpt><trkpt lat="42.1153835" lon="13.5186727"><ele>1045.0</ele><time>2026-03-24T14:25:31.925Z</time></trkpt><trkpt lat="42.1155852" lon="13.5185609"><ele>1045.0</ele><time>2026-03-24T14:25:32.925Z</time></trkpt><trkpt lat="42.1157882" lon="13.5184631"><ele>1045.0</ele><time>2026-03-24T14:25:33.924Z</time></trkpt><trkpt lat="42.1159944" lon="13.5183867"><ele>1050.3333333333333</ele><time>2026-03-24T14:25:34.924Z</time></trkpt><trkpt lat="42.1162052" lon="13.5183218"><ele>1055.6666666666667</ele><time>2026-03-24T14:25:35.924Z</time></trkpt><trkpt lat="42.116413" lon="13.5182586"><ele>1061.0</ele><time>2026-03-24T14:25:36.925Z</time></trkpt><trkpt lat="42.1166131" lon="13.5182034"><ele>1063.3333333333335</ele><time>2026-03-24T14:25:37.924Z</time></trkpt><trkpt lat="42.1167998" lon="13.5181501"><ele>1065.6666666666667</ele><time>2026-03-24T14:25:38.924Z</time></trkpt><trkpt lat="42.1169866" lon="13.5180914"><ele>1068.0</ele><time>2026-03-24T14:25:39.925Z</time></trkpt><trkpt lat="42.1171649" lon="13.5180227"><ele>1068.0</ele><time>2026-03-24T14:25:40.924Z</time></trkpt><trkpt lat="42.1173362" lon="13.5179456"><ele>1068.0</ele><time>2026-03-24T14:25:41.924Z</time></trkpt><trkpt lat="42.1175074" lon="13.5178741"><ele>1068.0</ele><time>2026-03-24T14:25:42.924Z</time></trkpt><trkpt lat="42.1176891" lon="13.5178103"><ele>1069.0</ele><time>2026-03-24T14:25:43.924Z</time></trkpt><trkpt lat="42.1178686" lon="13.5177624"><ele>1070.0</ele><time>2026-03-24T14:25:44.924Z</time></trkpt><trkpt lat="42.118055" lon="13.5177165"><ele>1071.0</ele><time>2026-03-24T14:25:45.924Z</time></trkpt><trkpt lat="42.1182423" lon="13.5176722"><ele>1071.0</ele><time>2026-03-24T14:25:46.924Z</time></trkpt><trkpt lat="42.1184161" lon="13.5176311"><ele>1071.0</ele><time>2026-03-24T14:25:47.924Z</time></trkpt><trkpt lat="42.1185626" lon="13.5175973"><ele>1071.0</ele><time>2026-03-24T14:25:48.925Z</time></trkpt><trkpt lat="42.1187012" lon="13.5175873"><ele>1071.0</ele><time>2026-03-24T14:25:49.925Z</time></trkpt><trkpt lat="42.1188266" lon="13.5176139"><ele>1071.0</ele><time>2026-03-24T14:25:50.924Z</time></trkpt><trkpt lat="42.1189506" lon="13.5176863"><ele>1071.0</ele><time>2026-03-24T14:25:51.924Z</time></trkpt><trkpt lat="42.119066" lon="13.5177705"><ele>1071.0</ele><time>2026-03-24T14:25:52.924Z</time></trkpt><trkpt lat="42.1191526" lon="13.5179367"><ele>1078.25</ele><time>2026-03-24T14:25:53.924Z</time></trkpt><trkpt lat="42.1192361" lon="13.5180906"><ele>1085.5</ele><time>2026-03-24T14:25:54.924Z</time></trkpt><trkpt lat="42.1193027" lon="13.5182132"><ele>1092.75</ele><time>2026-03-24T14:25:55.924Z</time></trkpt><trkpt lat="42.119405" lon="13.5182968"><ele>1100.0</ele><time>2026-03-24T14:25:56.924Z</time></trkpt><trkpt lat="42.119479" lon="13.5183295"><ele>1100.0</ele><time>2026-03-24T14:25:57.924Z</time></trkpt><trkpt lat="42.1195587" lon="13.5183027"><ele>1100.0</ele><time>2026-03-24T14:25:58.924Z</time></trkpt><trkpt lat="42.1196125" lon="13.5182096"><ele>1100.0</ele><time>2026-03-24T14:25:59.925Z</time></trkpt><trkpt lat="42.1196114" lon="13.5180979"><ele>1100.0</ele><time>2026-03-24T14:26:00.924Z</time></trkpt><trkpt lat="42.1195711" lon="13.5179526"><ele>1100.0</ele><time>2026-03-24T14:26:01.924Z</time></trkpt><trkpt lat="42.1195326" lon="13.5177879"><ele>1094.75</ele><time>2026-03-24T14:26:02.924Z</time></trkpt><trkpt lat="42.1195117" lon="13.5175974"><ele>1089.5</ele><time>2026-03-24T14:26:03.924Z</time></trkpt><trkpt lat="42.1194876" lon="13.517417"><ele>1084.25</ele><time>2026-03-24T14:26:04.925Z</time></trkpt><trkpt lat="42.1194708" lon="13.5172531"><ele>1079.0</ele><time>2026-03-24T14:26:05.925Z</time></trkpt><trkpt lat="42.119455" lon="13.5171004"><ele>1077.0</ele><time>2026-03-24T14:26:06.924Z</time></trkpt><trkpt lat="42.119458" lon="13.5169698"><ele>1075.0</ele><time>2026-03-24T14:26:07.925Z</time></trkpt><trkpt lat="42.1194724" lon="13.5168509"><ele>1073.0</ele><time>2026-03-24T14:26:08.925Z</time></trkpt><trkpt lat="42.1195084" lon="13.5167347"><ele>1071.0</ele><time>2026-03-24T14:26:09.925Z</time></trkpt><trkpt lat="42.1195971" lon="13.516628"><ele>1069.0</ele><time>2026-03-24T14:26:10.924Z</time></trkpt><trkpt lat="42.1197364" lon="13.5165275"><ele>1069.0</ele><time>2026-03-24T14:26:11.925Z</time></trkpt><trkpt lat="42.1198483" lon="13.5163977"><ele>1069.0</ele><time>2026-03-24T14:26:12.924Z</time></trkpt><trkpt lat="42.1199575" lon="13.5162544"><ele>1069.0</ele><time>2026-03-24T14:26:13.925Z</time></trkpt><trkpt lat="42.120064" lon="13.5161271"><ele>1069.0</ele><time>2026-03-24T14:26:14.924Z</time></trkpt><trkpt lat="42.12017" lon="13.5160128"><ele>1072.25</ele><time>2026-03-24T14:26:15.924Z</time></trkpt><trkpt lat="42.1202851" lon="13.5159076"><ele>1075.5</ele><time>2026-03-24T14:26:16.924Z</time></trkpt><trkpt lat="42.1204045" lon="13.5158163"><ele>1078.75</ele><time>2026-03-24T14:26:17.925Z</time></trkpt><trkpt lat="42.1205185" lon="13.5157336"><ele>1082.0</ele><time>2026-03-24T14:26:18.925Z</time></trkpt><trkpt lat="42.1206281" lon="13.5156563"><ele>1082.75</ele><time>2026-03-24T14:26:19.924Z</time></trkpt><trkpt lat="42.1207358" lon="13.515575"><ele>1083.5</ele><time>2026-03-24T14:26:20.924Z</time></trkpt><trkpt lat="42.1208439" lon="13.5154976"><ele>1084.25</ele><time>2026-03-24T14:26:21.925Z</time></trkpt><trkpt lat="42.1209473" lon="13.5154132"><ele>1085.0</ele><time>2026-03-24T14:26:22.925Z</time></trkpt><trkpt lat="42.1210528" lon="13.515326"><ele>1085.0</ele><time>2026-03-24T14:26:23.924Z</time></trkpt><trkpt lat="42.1211486" lon="13.5152242"><ele>1085.0</ele><time>2026-03-24T14:26:24.925Z</time></trkpt><trkpt lat="42.1212423" lon="13.5151203"><ele>1085.0</ele><time>2026-03-24T14:26:25.924Z</time></trkpt><trkpt lat="42.1213448" lon="13.5150291"><ele>1085.0</ele><time>2026-03-24T14:26:26.924Z</time></trkpt><trkpt lat="42.1214575" lon="13.514965"><ele>1089.5</ele><time>2026-03-24T14:26:27.924Z</time></trkpt><trkpt lat="42.1215705" lon="13.5148976"><ele>1094.0</ele><time>2026-03-24T14:26:28.924Z</time></trkpt><trkpt lat="42.1216864" lon="13.5148429"><ele>1098.5</ele><time>2026-03-24T14:26:29.924Z</time></trkpt><trkpt lat="42.121801" lon="13.5147976"><ele>1103.0</ele><time>2026-03-24T14:26:30.924Z</time></trkpt><trkpt lat="42.1219293" lon="13.5147505"><ele>1103.0</ele><time>2026-03-24T14:26:31.925Z</time></trkpt><trkpt lat="42.1220531" lon="13.5147147"><ele>1103.0</ele><time>2026-03-24T14:26:32.925Z</time></trkpt><trkpt lat="42.1221964" lon="13.5146849"><ele>1103.0</ele><time>2026-03-24T14:26:33.925Z</time></trkpt><trkpt lat="42.1223374" lon="13.5146669"><ele>1103.0</ele><time>2026-03-24T14:26:34.925Z</time></trkpt><trkpt lat="42.1224836" lon="13.5146366"><ele>1100.6666666666667</ele><time>2026-03-24T14:26:35.924Z</time></trkpt><trkpt lat="42.1226215" lon="13.5145479"><ele>1098.3333333333333</ele><time>2026-03-24T14:26:36.924Z</time></trkpt><trkpt lat="42.1227412" lon="13.5144246"><ele>1096.0</ele><time>2026-03-24T14:26:37.925Z</time></trkpt><trkpt lat="42.1228579" lon="13.5142882"><ele>1096.0</ele><time>2026-03-24T14:26:38.924Z</time></trkpt><trkpt lat="42.1229784" lon="13.5141456"><ele>1096.0</ele><time>2026-03-24T14:26:39.924Z</time></trkpt><trkpt lat="42.1230879" lon="13.5139946"><ele>1096.0</ele><time>2026-03-24T14:26:40.925Z</time></trkpt><trkpt lat="42.1231736" lon="13.5138395"><ele>1098.5</ele><time>2026-03-24T14:26:41.925Z</time></trkpt><trkpt lat="42.1232385" lon="13.5136882"><ele>1101.0</ele><time>2026-03-24T14:26:42.924Z</time></trkpt><trkpt lat="42.1233001" lon="13.5135528"><ele>1103.5</ele><time>2026-03-24T14:26:43.925Z</time></trkpt><trkpt lat="42.1233775" lon="13.5134424"><ele>1106.0</ele><time>2026-03-24T14:26:44.924Z</time></trkpt><trkpt lat="42.1234647" lon="13.5133769"><ele>1106.0</ele><time>2026-03-24T14:26:45.924Z</time></trkpt><trkpt lat="42.1235615" lon="13.5133596"><ele>1106.0</ele><time>2026-03-24T14:26:46.924Z</time></trkpt><trkpt lat="42.1236621" lon="13.5133876"><ele>1106.0</ele><time>2026-03-24T14:26:47.924Z</time></trkpt><trkpt lat="42.1237656" lon="13.5134355"><ele>1106.0</ele><time>2026-03-24T14:26:48.925Z</time></trkpt><trkpt lat="42.1238721" lon="13.5134797"><ele>1106.0</ele><time>2026-03-24T14:26:49.924Z</time></trkpt><trkpt lat="42.1239883" lon="13.5134827"><ele>1108.25</ele><time>2026-03-24T14:26:50.924Z</time></trkpt><trkpt lat="42.124112" lon="13.5134739"><ele>1110.5</ele><time>2026-03-24T14:26:51.925Z</time></trkpt><trkpt lat="42.1242319" lon="13.513464"><ele>1112.75</ele><time>2026-03-24T14:26:52.924Z</time></trkpt><trkpt lat="42.1243464" lon="13.5134585"><ele>1115.0</ele><time>2026-03-24T14:26:53.925Z</time></trkpt><trkpt lat="42.124463" lon="13.5134477"><ele>1115.0</ele><time>2026-03-24T14:26:54.925Z</time></trkpt><trkpt lat="42.1245824" lon="13.5134274"><ele>1115.0</ele><time>2026-03-24T14:26:55.925Z</time></trkpt><trkpt lat="42.1247001" lon="13.5133836"><ele>1115.0</ele><time>2026-03-24T14:26:56.924Z</time></trkpt><trkpt lat="42.1248299" lon="13.5133206"><ele>1115.0</ele><time>2026-03-24T14:26:57.924Z</time></trkpt><trkpt lat="42.1249782" lon="13.5132258"><ele>1116.3333333333335</ele><time>2026-03-24T14:26:58.924Z</time></trkpt><trkpt lat="42.1251275" lon="13.513105"><ele>1117.6666666666667</ele><time>2026-03-24T14:26:59.925Z</time></trkpt><trkpt lat="42.1252781" lon="13.5129828"><ele>1119.0</ele><time>2026-03-24T14:27:00.924Z</time></trkpt><trkpt lat="42.1254308" lon="13.512859"><ele>1119.0</ele><time>2026-03-24T14:27:01.924Z</time></trkpt><trkpt lat="42.1255967" lon="13.5127243"><ele>1119.0</ele><time>2026-03-24T14:27:02.924Z</time></trkpt><trkpt lat="42.1257702" lon="13.5125828"><ele>1119.0</ele><time>2026-03-24T14:27:03.924Z</time></trkpt><trkpt lat="42.1259455" lon="13.5124378"><ele>1123.6666666666667</ele><time>2026-03-24T14:27:04.925Z</time></trkpt><trkpt lat="42.126119" lon="13.5122888"><ele>1128.3333333333335</ele><time>2026-03-24T14:27:05.925Z</time></trkpt><trkpt lat="42.1262854" lon="13.5121423"><ele>1133.0</ele><time>2026-03-24T14:27:06.924Z</time></trkpt><trkpt lat="42.126444" lon="13.5120036"><ele>1136.6666666666667</ele><time>2026-03-24T14:27:07.924Z</time></trkpt><trkpt lat="42.1265922" lon="13.5118699"><ele>1140.3333333333333</ele><time>2026-03-24T14:27:08.924Z</time></trkpt><trkpt lat="42.1267183" lon="13.5117553"><ele>1144.0</ele><time>2026-03-24T14:27:09.924Z</time></trkpt><trkpt lat="42.1268227" lon="13.5116575"><ele>1144.0</ele><time>2026-03-24T14:27:10.925Z</time></trkpt><trkpt lat="42.1269085" lon="13.5115883"><ele>1144.0</ele><time>2026-03-24T14:27:11.924Z</time></trkpt><trkpt lat="42.1269823" lon="13.5115614"><ele>1144.0</ele><time>2026-03-24T14:27:12.924Z</time></trkpt><trkpt lat="42.1270431" lon="13.5115985"><ele>1144.0</ele><time>2026-03-24T14:27:13.925Z</time></trkpt><trkpt lat="42.1270674" lon="13.5116857"><ele>1144.0</ele><time>2026-03-24T14:27:14.925Z</time></trkpt><trkpt lat="42.1270709" lon="13.511778"><ele>1144.0</ele><time>2026-03-24T14:27:15.924Z</time></trkpt><trkpt lat="42.1269703" lon="13.5118277"><ele>1144.0</ele><time>2026-03-24T14:27:16.925Z</time></trkpt><trkpt lat="42.1268606" lon="13.5118684"><ele>1144.0</ele><time>2026-03-24T14:27:17.924Z</time></trkpt><trkpt lat="42.1267321" lon="13.51193"><ele>1144.0</ele><time>2026-03-24T14:27:18.924Z</time></trkpt><trkpt lat="42.1266049" lon="13.5120401"><ele>1144.0</ele><time>2026-03-24T14:27:19.925Z</time></trkpt><trkpt lat="42.1264778" lon="13.5121908"><ele>1140.3333333333333</ele><time>2026-03-24T14:27:20.924Z</time></trkpt><trkpt lat="42.1263609" lon="13.5123767"><ele>1136.6666666666667</ele><time>2026-03-24T14:27:21.924Z</time></trkpt><trkpt lat="42.126258" lon="13.5125963"><ele>1133.0</ele><time>2026-03-24T14:27:22.925Z</time></trkpt><trkpt lat="42.1261547" lon="13.5128126"><ele>1132.0</ele><time>2026-03-24T14:27:23.925Z</time></trkpt><trkpt lat="42.126015" lon="13.5129967"><ele>1131.0</ele><time>2026-03-24T14:27:24.925Z</time></trkpt><trkpt lat="42.1258588" lon="13.5131763"><ele>1130.0</ele><time>2026-03-24T14:27:25.924Z</time></trkpt><trkpt lat="42.1257071" lon="13.5133545"><ele>1130.0</ele><time>2026-03-24T14:27:26.924Z</time></trkpt><trkpt lat="42.1255796" lon="13.5135335"><ele>1130.0</ele><time>2026-03-24T14:27:27.924Z</time></trkpt><trkpt lat="42.125473" lon="13.5137258"><ele>1130.0</ele><time>2026-03-24T14:27:28.925Z</time></trkpt><trkpt lat="42.1253833" lon="13.5139052"><ele>1137.0</ele><time>2026-03-24T14:27:29.924Z</time></trkpt><trkpt lat="42.1252895" lon="13.5140558"><ele>1144.0</ele><time>2026-03-24T14:27:30.924Z</time></trkpt><trkpt lat="42.1251867" lon="13.5141507"><ele>1151.0</ele><time>2026-03-24T14:27:31.925Z</time></trkpt><trkpt lat="42.1250728" lon="13.5141803"><ele>1158.0</ele><time>2026-03-24T14:27:32.924Z</time></trkpt><trkpt lat="42.1249573" lon="13.5141917"><ele>1155.25</ele><time>2026-03-24T14:27:33.924Z</time></trkpt><trkpt lat="42.124847" lon="13.514219"><ele>1152.5</ele><time>2026-03-24T14:27:34.924Z</time></trkpt><trkpt lat="42.1247515" lon="13.5142669"><ele>1149.75</ele><time>2026-03-24T14:27:35.924Z</time></trkpt><trkpt lat="42.1246699" lon="13.5143957"><ele>1147.0</ele><time>2026-03-24T14:27:36.925Z</time></trkpt><trkpt lat="42.1245828" lon="13.5144886"><ele>1151.6666666666665</ele><time>2026-03-24T14:27:37.924Z</time></trkpt><trkpt lat="42.1245268" lon="13.5145757"><ele>1156.3333333333333</ele><time>2026-03-24T14:27:38.925Z</time></trkpt><trkpt lat="42.1245353" lon="13.5146924"><ele>1161.0</ele><time>2026-03-24T14:27:39.924Z</time></trkpt><trkpt lat="42.1245817" lon="13.5147819"><ele>1165.6666666666667</ele><time>2026-03-24T14:27:40.924Z</time></trkpt><trkpt lat="42.1246453" lon="13.5148198"><ele>1170.3333333333335</ele><time>2026-03-24T14:27:41.925Z</time></trkpt><trkpt lat="42.1247422" lon="13.5148004"><ele>1175.0</ele><time>2026-03-24T14:27:42.924Z</time></trkpt><trkpt lat="42.1248275" lon="13.5147598"><ele>1175.0</ele><time>2026-03-24T14:27:43.925Z</time></trkpt><trkpt lat="42.124895" lon="13.5146192"><ele>1175.0</ele><time>2026-03-24T14:27:44.924Z</time></trkpt><trkpt lat="42.1249814" lon="13.514561"><ele>1175.0</ele><time>2026-03-24T14:27:45.924Z</time></trkpt><trkpt lat="42.125083" lon="13.5145447"><ele>1175.0</ele><time>2026-03-24T14:27:46.925Z</time></trkpt><trkpt lat="42.1251767" lon="13.5145458"><ele>1175.0</ele><time>2026-03-24T14:27:47.924Z</time></trkpt><trkpt lat="42.1252885" lon="13.5145618"><ele>1169.3333333333335</ele><time>2026-03-24T14:27:48.924Z</time></trkpt><trkpt lat="42.1254521" lon="13.5145023"><ele>1163.6666666666667</ele><time>2026-03-24T14:27:49.925Z</time></trkpt><trkpt lat="42.1255788" lon="13.5144638"><ele>1158.0</ele><time>2026-03-24T14:27:50.924Z</time></trkpt><trkpt lat="42.1257069" lon="13.5143484"><ele>1164.6666666666667</ele><time>2026-03-24T14:27:51.925Z</time></trkpt><trkpt lat="42.125843" lon="13.5141096"><ele>1171.3333333333335</ele><time>2026-03-24T14:27:52.924Z</time></trkpt><trkpt lat="42.1259731" lon="13.5140011"><ele>1178.0</ele><time>2026-03-24T14:27:53.924Z</time></trkpt><trkpt lat="42.1261412" lon="13.5138866"><ele>1178.0</ele><time>2026-03-24T14:27:54.925Z</time></trkpt><trkpt lat="42.126327" lon="13.5137914"><ele>1178.0</ele><time>2026-03-24T14:27:55.925Z</time></trkpt><trkpt lat="42.1265371" lon="13.5136904"><ele>1178.0</ele><time>2026-03-24T14:27:56.925Z</time></trkpt><trkpt lat="42.1267543" lon="13.5135811"><ele>1177.0</ele><time>2026-03-24T14:27:57.924Z</time></trkpt><trkpt lat="42.1269734" lon="13.513389"><ele>1176.0</ele><time>2026-03-24T14:27:58.924Z</time></trkpt><trkpt lat="42.1272015" lon="13.5132504"><ele>1186.0</ele><time>2026-03-24T14:27:59.924Z</time></trkpt><trkpt lat="42.1274339" lon="13.5131127"><ele>1196.0</ele><time>2026-03-24T14:28:00.924Z</time></trkpt><trkpt lat="42.1276778" lon="13.5129885"><ele>1182.5</ele><time>2026-03-24T14:28:01.924Z</time></trkpt><trkpt lat="42.1279098" lon="13.5128737"><ele>1169.0</ele><time>2026-03-24T14:28:02.924Z</time></trkpt><trkpt lat="42.1281391" lon="13.5128161"><ele>1174.0</ele><time>2026-03-24T14:28:03.924Z</time></trkpt><trkpt lat="42.1283656" lon="13.5127652"><ele>1179.0</ele><time>2026-03-24T14:28:04.925Z</time></trkpt><trkpt lat="42.1286272" lon="13.5128196"><ele>1179.0</ele><time>2026-03-24T14:28:05.924Z</time></trkpt><trkpt lat="42.128878" lon="13.5128333"><ele>1179.0</ele><time>2026-03-24T14:28:06.925Z</time></trkpt><trkpt lat="42.1291282" lon="13.5128143"><ele>1182.0</ele><time>2026-03-24T14:28:07.924Z</time></trkpt><trkpt lat="42.1294119" lon="13.5127586"><ele>1185.0</ele><time>2026-03-24T14:28:08.924Z</time></trkpt><trkpt lat="42.1296802" lon="13.5127209"><ele>1192.0</ele><time>2026-03-24T14:28:09.924Z</time></trkpt><trkpt lat="42.1299619" lon="13.5126907"><ele>1199.0</ele><time>2026-03-24T14:28:10.924Z</time></trkpt><trkpt lat="42.1302942" lon="13.5126289"><ele>1199.0</ele><time>2026-03-24T14:28:11.924Z</time></trkpt><trkpt lat="42.1306087" lon="13.5125746"><ele>1199.0</ele><time>2026-03-24T14:28:12.924Z</time></trkpt><trkpt lat="42.1308983" lon="13.5125271"><ele>1204.5</ele><time>2026-03-24T14:28:13.924Z</time></trkpt><trkpt lat="42.1311646" lon="13.512471"><ele>1210.0</ele><time>2026-03-24T14:28:14.925Z</time></trkpt><trkpt lat="42.1314148" lon="13.512401"><ele>1213.6666666666665</ele><time>2026-03-24T14:28:15.924Z</time></trkpt><trkpt lat="42.131564" lon="13.5123423"><ele>1217.3333333333333</ele><time>2026-03-24T14:28:16.924Z</time></trkpt><trkpt lat="42.1317234" lon="13.5122681"><ele>1221.0</ele><time>2026-03-24T14:28:17.924Z</time></trkpt><trkpt lat="42.1318649" lon="13.5122068"><ele>1221.0</ele><time>2026-03-24T14:28:18.925Z</time></trkpt><trkpt lat="42.1319395" lon="13.5121735"><ele>1221.0</ele><time>2026-03-24T14:28:19.924Z</time></trkpt><trkpt lat="42.1320451" lon="13.5121555"><ele>1221.0</ele><time>2026-03-24T14:28:20.924Z</time></trkpt><trkpt lat="42.132117" lon="13.5121789"><ele>1221.0</ele><time>2026-03-24T14:28:21.924Z</time></trkpt><trkpt lat="42.1320459" lon="13.5123717"><ele>1221.0</ele><time>2026-03-24T14:28:22.925Z</time></trkpt><trkpt lat="42.1319934" lon="13.5124301"><ele>1221.0</ele><time>2026-03-24T14:28:23.925Z</time></trkpt><trkpt lat="42.131849" lon="13.5124814"><ele>1221.0</ele><time>2026-03-24T14:28:25.925Z</time></trkpt><trkpt lat="42.1317526" lon="13.512488"><ele>1221.0</ele><time>2026-03-24T14:28:26.925Z</time></trkpt><trkpt lat="42.1316765" lon="13.5124953"><ele>1221.0</ele><time>2026-03-24T14:28:27.925Z</time></trkpt><trkpt lat="42.1315939" lon="13.5125167"><ele>1221.0</ele><time>2026-03-24T14:28:28.925Z</time></trkpt><trkpt lat="42.1315014" lon="13.5125435"><ele>1218.25</ele><time>2026-03-24T14:28:29.924Z</time></trkpt><trkpt lat="42.1314073" lon="13.5125906"><ele>1215.5</ele><time>2026-03-24T14:28:30.924Z</time></trkpt><trkpt lat="42.1312906" lon="13.512648"><ele>1212.75</ele><time>2026-03-24T14:28:31.924Z</time></trkpt><trkpt lat="42.1311574" lon="13.5127172"><ele>1210.0</ele><time>2026-03-24T14:28:32.924Z</time></trkpt><trkpt lat="42.1310091" lon="13.5128022"><ele>1210.0</ele><time>2026-03-24T14:28:33.924Z</time></trkpt><trkpt lat="42.1308379" lon="13.5128996"><ele>1210.0</ele><time>2026-03-24T14:28:34.924Z</time></trkpt><trkpt lat="42.1306311" lon="13.5130066"><ele>1210.0</ele><time>2026-03-24T14:28:35.924Z</time></trkpt><trkpt lat="42.1304153" lon="13.5131066"><ele>1219.0</ele><time>2026-03-24T14:28:36.924Z</time></trkpt><trkpt lat="42.1301773" lon="13.5132115"><ele>1228.0</ele><time>2026-03-24T14:28:37.924Z</time></trkpt><trkpt lat="42.1299291" lon="13.5133381"><ele>1225.0</ele><time>2026-03-24T14:28:38.924Z</time></trkpt><trkpt lat="42.1296694" lon="13.5134543"><ele>1222.0</ele><time>2026-03-24T14:28:39.924Z</time></trkpt><trkpt lat="42.1294205" lon="13.5135676"><ele>1222.0</ele><time>2026-03-24T14:28:40.925Z</time></trkpt><trkpt lat="42.1291891" lon="13.5136585"><ele>1222.0</ele><time>2026-03-24T14:28:41.924Z</time></trkpt><trkpt lat="42.128996" lon="13.5137231"><ele>1222.0</ele><time>2026-03-24T14:28:42.924Z</time></trkpt><trkpt lat="42.1288198" lon="13.5137528"><ele>1225.0</ele><time>2026-03-24T14:28:43.924Z</time></trkpt><trkpt lat="42.1286714" lon="13.5137667"><ele>1228.0</ele><time>2026-03-24T14:28:44.924Z</time></trkpt><trkpt lat="42.1285615" lon="13.5137832"><ele>1231.0</ele><time>2026-03-24T14:28:45.924Z</time></trkpt><trkpt lat="42.128473" lon="13.5138372"><ele>1234.0</ele><time>2026-03-24T14:28:46.924Z</time></trkpt><trkpt lat="42.128429" lon="13.5139338"><ele>1237.0</ele><time>2026-03-24T14:28:47.924Z</time></trkpt><trkpt lat="42.1284355" lon="13.5140411"><ele>1237.0</ele><time>2026-03-24T14:28:48.924Z</time></trkpt><trkpt lat="42.1284837" lon="13.5141233"><ele>1237.0</ele><time>2026-03-24T14:28:49.925Z</time></trkpt><trkpt lat="42.1285796" lon="13.5141565"><ele>1237.0</ele><time>2026-03-24T14:28:50.925Z</time></trkpt><trkpt lat="42.128696" lon="13.5141236"><ele>1237.0</ele><time>2026-03-24T14:28:51.924Z</time></trkpt><trkpt lat="42.1288449" lon="13.5140596"><ele>1237.0</ele><time>2026-03-24T14:28:52.924Z</time></trkpt><trkpt lat="42.1290269" lon="13.5139889"><ele>1237.0</ele><time>2026-03-24T14:28:53.924Z</time></trkpt><trkpt lat="42.1292306" lon="13.5139279"><ele>1237.0</ele><time>2026-03-24T14:28:54.924Z</time></trkpt><trkpt lat="42.1294487" lon="13.5138619"><ele>1246.5</ele><time>2026-03-24T14:28:55.924Z</time></trkpt><trkpt lat="42.1296826" lon="13.5137997"><ele>1256.0</ele><time>2026-03-24T14:28:56.924Z</time></trkpt><trkpt lat="42.1299252" lon="13.5137408"><ele>1242.0</ele><time>2026-03-24T14:28:57.924Z</time></trkpt><trkpt lat="42.1301724" lon="13.5136733"><ele>1228.0</ele><time>2026-03-24T14:28:58.924Z</time></trkpt><trkpt lat="42.1304229" lon="13.5136182"><ele>1228.0</ele><time>2026-03-24T14:28:59.925Z</time></trkpt><trkpt lat="42.1306787" lon="13.5135708"><ele>1228.0</ele><time>2026-03-24T14:29:00.924Z</time></trkpt><trkpt lat="42.1309428" lon="13.5135215"><ele>1238.5</ele><time>2026-03-24T14:29:01.924Z</time></trkpt><trkpt lat="42.1312027" lon="13.5134728"><ele>1249.0</ele><time>2026-03-24T14:29:02.924Z</time></trkpt><trkpt lat="42.1314651" lon="13.5134155"><ele>1254.0</ele><time>2026-03-24T14:29:03.924Z</time></trkpt><trkpt lat="42.1317308" lon="13.5133382"><ele>1259.0</ele><time>2026-03-24T14:29:04.925Z</time></trkpt><trkpt lat="42.1319846" lon="13.5132496"><ele>1259.0</ele><time>2026-03-24T14:29:05.925Z</time></trkpt><trkpt lat="42.132229" lon="13.5131633"><ele>1259.0</ele><time>2026-03-24T14:29:06.924Z</time></trkpt><trkpt lat="42.1324605" lon="13.5130894"><ele>1264.6666666666667</ele><time>2026-03-24T14:29:07.925Z</time></trkpt><trkpt lat="42.1326835" lon="13.5130054"><ele>1270.3333333333333</ele><time>2026-03-24T14:29:08.924Z</time></trkpt><trkpt lat="42.1328783" lon="13.5129047"><ele>1276.0</ele><time>2026-03-24T14:29:09.924Z</time></trkpt><trkpt lat="42.1330737" lon="13.5127413"><ele>1272.5</ele><time>2026-03-24T14:29:10.924Z</time></trkpt><trkpt lat="42.1332653" lon="13.5125685"><ele>1269.0</ele><time>2026-03-24T14:29:11.924Z</time></trkpt><trkpt lat="42.1334692" lon="13.5123816"><ele>1269.0</ele><time>2026-03-24T14:29:12.924Z</time></trkpt><trkpt lat="42.1336694" lon="13.5121944"><ele>1269.0</ele><time>2026-03-24T14:29:13.925Z</time></trkpt><trkpt lat="42.1339035" lon="13.5120316"><ele>1270.0</ele><time>2026-03-24T14:29:14.924Z</time></trkpt><trkpt lat="42.1341134" lon="13.5118189"><ele>1271.0</ele><time>2026-03-24T14:29:15.924Z</time></trkpt><trkpt lat="42.134334" lon="13.5116198"><ele>1271.0</ele><time>2026-03-24T14:29:16.925Z</time></trkpt><trkpt lat="42.13456" lon="13.5114141"><ele>1271.0</ele><time>2026-03-24T14:29:17.924Z</time></trkpt><trkpt lat="42.1347909" lon="13.5112075"><ele>1274.5</ele><time>2026-03-24T14:29:18.924Z</time></trkpt><trkpt lat="42.1350062" lon="13.5110066"><ele>1278.0</ele><time>2026-03-24T14:29:19.924Z</time></trkpt><trkpt lat="42.1352092" lon="13.5108125"><ele>1278.0</ele><time>2026-03-24T14:29:20.924Z</time></trkpt><trkpt lat="42.1353984" lon="13.5106333"><ele>1278.0</ele><time>2026-03-24T14:29:21.925Z</time></trkpt><trkpt lat="42.1355981" lon="13.5104726"><ele>1278.5</ele><time>2026-03-24T14:29:22.924Z</time></trkpt><trkpt lat="42.1358053" lon="13.5103383"><ele>1279.0</ele><time>2026-03-24T14:29:23.924Z</time></trkpt><trkpt lat="42.1360273" lon="13.5102125"><ele>1279.0</ele><time>2026-03-24T14:29:24.925Z</time></trkpt><trkpt lat="42.1362506" lon="13.510084"><ele>1279.0</ele><time>2026-03-24T14:29:25.925Z</time></trkpt><trkpt lat="42.1364746" lon="13.5099458"><ele>1289.5</ele><time>2026-03-24T14:29:26.924Z</time></trkpt><trkpt lat="42.1367005" lon="13.5098082"><ele>1300.0</ele><time>2026-03-24T14:29:27.925Z</time></trkpt><trkpt lat="42.1369111" lon="13.5096749"><ele>1296.3333333333333</ele><time>2026-03-24T14:29:28.924Z</time></trkpt><trkpt lat="42.1371121" lon="13.5095533"><ele>1292.6666666666667</ele><time>2026-03-24T14:29:29.925Z</time></trkpt><trkpt lat="42.1373076" lon="13.5094459"><ele>1289.0</ele><time>2026-03-24T14:29:30.924Z</time></trkpt><trkpt lat="42.1375132" lon="13.5093666"><ele>1289.0</ele><time>2026-03-24T14:29:31.925Z</time></trkpt><trkpt lat="42.1377129" lon="13.5093024"><ele>1289.0</ele><time>2026-03-24T14:29:32.924Z</time></trkpt><trkpt lat="42.13791" lon="13.5092589"><ele>1289.0</ele><time>2026-03-24T14:29:33.925Z</time></trkpt><trkpt lat="42.1380904" lon="13.5092206"><ele>1293.3333333333335</ele><time>2026-03-24T14:29:34.924Z</time></trkpt><trkpt lat="42.138259" lon="13.509156"><ele>1297.6666666666667</ele><time>2026-03-24T14:29:35.924Z</time></trkpt><trkpt lat="42.1384061" lon="13.5090359"><ele>1302.0</ele><time>2026-03-24T14:29:36.924Z</time></trkpt><trkpt lat="42.1385406" lon="13.5088689"><ele>1297.3333333333333</ele><time>2026-03-24T14:29:37.925Z</time></trkpt><trkpt lat="42.1386711" lon="13.5086933"><ele>1292.6666666666665</ele><time>2026-03-24T14:29:38.924Z</time></trkpt><trkpt lat="42.1387792" lon="13.5084595"><ele>1288.0</ele><time>2026-03-24T14:29:39.924Z</time></trkpt><trkpt lat="42.1388854" lon="13.5082633"><ele>1288.0</ele><time>2026-03-24T14:29:40.924Z</time></trkpt><trkpt lat="42.1389669" lon="13.5080703"><ele>1288.0</ele><time>2026-03-24T14:29:41.924Z</time></trkpt><trkpt lat="42.1390283" lon="13.5078923"><ele>1288.0</ele><time>2026-03-24T14:29:42.924Z</time></trkpt><trkpt lat="42.1390766" lon="13.5077439"><ele>1288.0</ele><time>2026-03-24T14:29:43.925Z</time></trkpt><trkpt lat="42.1391121" lon="13.5076286"><ele>1290.3333333333333</ele><time>2026-03-24T14:29:44.924Z</time></trkpt><trkpt lat="42.1391667" lon="13.5075402"><ele>1292.6666666666665</ele><time>2026-03-24T14:29:45.924Z</time></trkpt><trkpt lat="42.1392423" lon="13.5075047"><ele>1295.0</ele><time>2026-03-24T14:29:46.924Z</time></trkpt><trkpt lat="42.1393339" lon="13.507627"><ele>1297.3333333333333</ele><time>2026-03-24T14:29:48.924Z</time></trkpt><trkpt lat="42.139327" lon="13.5077131"><ele>1299.6666666666667</ele><time>2026-03-24T14:29:49.925Z</time></trkpt><trkpt lat="42.1392876" lon="13.5077978"><ele>1302.0</ele><time>2026-03-24T14:29:50.925Z</time></trkpt><trkpt lat="42.139211" lon="13.5079014"><ele>1305.5</ele><time>2026-03-24T14:29:51.925Z</time></trkpt><trkpt lat="42.1391452" lon="13.5080235"><ele>1309.0</ele><time>2026-03-24T14:29:52.924Z</time></trkpt><trkpt lat="42.1390749" lon="13.5081779"><ele>1312.5</ele><time>2026-03-24T14:29:53.924Z</time></trkpt><trkpt lat="42.1390098" lon="13.508356"><ele>1316.0</ele><time>2026-03-24T14:29:54.925Z</time></trkpt><trkpt lat="42.1389409" lon="13.5085449"><ele>1312.5</ele><time>2026-03-24T14:29:55.924Z</time></trkpt><trkpt lat="42.1388687" lon="13.508728"><ele>1309.0</ele><time>2026-03-24T14:29:56.924Z</time></trkpt><trkpt lat="42.1388026" lon="13.5088948"><ele>1305.5</ele><time>2026-03-24T14:29:57.925Z</time></trkpt><trkpt lat="42.138739" lon="13.5090488"><ele>1302.0</ele><time>2026-03-24T14:29:58.924Z</time></trkpt><trkpt lat="42.1386866" lon="13.5091688"><ele>1302.0</ele><time>2026-03-24T14:29:59.924Z</time></trkpt><trkpt lat="42.1386425" lon="13.5092619"><ele>1302.0</ele><time>2026-03-24T14:30:00.925Z</time></trkpt><trkpt lat="42.1386276" lon="13.5093743"><ele>1302.0</ele><time>2026-03-24T14:30:01.924Z</time></trkpt><trkpt lat="42.1386345" lon="13.509501"><ele>1302.0</ele><time>2026-03-24T14:30:02.924Z</time></trkpt><trkpt lat="42.1386653" lon="13.5096541"><ele>1302.0</ele><time>2026-03-24T14:30:03.924Z</time></trkpt><trkpt lat="42.1386957" lon="13.5098273"><ele>1309.0</ele><time>2026-03-24T14:30:04.925Z</time></trkpt><trkpt lat="42.1387154" lon="13.5100251"><ele>1316.0</ele><time>2026-03-24T14:30:05.924Z</time></trkpt><trkpt lat="42.1387409" lon="13.510234"><ele>1323.0</ele><time>2026-03-24T14:30:06.924Z</time></trkpt><trkpt lat="42.1387657" lon="13.510447"><ele>1325.0</ele><time>2026-03-24T14:30:07.924Z</time></trkpt><trkpt lat="42.138785" lon="13.5106469"><ele>1327.0</ele><time>2026-03-24T14:30:08.924Z</time></trkpt><trkpt lat="42.1388171" lon="13.51083"><ele>1329.0</ele><time>2026-03-24T14:30:09.924Z</time></trkpt><trkpt lat="42.1388694" lon="13.5109939"><ele>1331.0</ele><time>2026-03-24T14:30:10.924Z</time></trkpt><trkpt lat="42.1389356" lon="13.5111284"><ele>1331.0</ele><time>2026-03-24T14:30:11.925Z</time></trkpt><trkpt lat="42.1390322" lon="13.5112362"><ele>1331.0</ele><time>2026-03-24T14:30:12.925Z</time></trkpt><trkpt lat="42.1391411" lon="13.5113206"><ele>1331.0</ele><time>2026-03-24T14:30:13.924Z</time></trkpt><trkpt lat="42.1392695" lon="13.5113641"><ele>1331.0</ele><time>2026-03-24T14:30:14.924Z</time></trkpt><trkpt lat="42.1393937" lon="13.5113588"><ele>1332.0</ele><time>2026-03-24T14:30:15.925Z</time></trkpt><trkpt lat="42.139511" lon="13.511315"><ele>1333.0</ele><time>2026-03-24T14:30:16.924Z</time></trkpt><trkpt lat="42.1396162" lon="13.5112351"><ele>1334.0</ele><time>2026-03-24T14:30:17.924Z</time></trkpt><trkpt lat="42.1396962" lon="13.5111122"><ele>1335.0</ele><time>2026-03-24T14:30:18.924Z</time></trkpt><trkpt lat="42.1397524" lon="13.5109571"><ele>1332.6666666666667</ele><time>2026-03-24T14:30:19.925Z</time></trkpt><trkpt lat="42.1397978" lon="13.5107723"><ele>1330.3333333333335</ele><time>2026-03-24T14:30:20.924Z</time></trkpt><trkpt lat="42.1398356" lon="13.5105721"><ele>1328.0</ele><time>2026-03-24T14:30:21.924Z</time></trkpt><trkpt lat="42.1398797" lon="13.5103548"><ele>1330.3333333333335</ele><time>2026-03-24T14:30:22.924Z</time></trkpt><trkpt lat="42.1399171" lon="13.5101345"><ele>1332.6666666666667</ele><time>2026-03-24T14:30:23.924Z</time></trkpt><trkpt lat="42.1399442" lon="13.5099296"><ele>1335.0</ele><time>2026-03-24T14:30:24.924Z</time></trkpt><trkpt lat="42.13997" lon="13.5097456"><ele>1337.0</ele><time>2026-03-24T14:30:25.924Z</time></trkpt><trkpt lat="42.139999" lon="13.509575"><ele>1339.0</ele><time>2026-03-24T14:30:26.924Z</time></trkpt><trkpt lat="42.1400345" lon="13.5094187"><ele>1341.0</ele><time>2026-03-24T14:30:27.924Z</time></trkpt><trkpt lat="42.1401004" lon="13.509288"><ele>1343.0</ele><time>2026-03-24T14:30:28.925Z</time></trkpt><trkpt lat="42.1401841" lon="13.5091793"><ele>1343.0</ele><time>2026-03-24T14:30:29.924Z</time></trkpt><trkpt lat="42.1402959" lon="13.5091035"><ele>1343.0</ele><time>2026-03-24T14:30:30.925Z</time></trkpt><trkpt lat="42.140418" lon="13.5090561"><ele>1343.0</ele><time>2026-03-24T14:30:31.925Z</time></trkpt><trkpt lat="42.1405412" lon="13.5090468"><ele>1343.0</ele><time>2026-03-24T14:30:32.924Z</time></trkpt><trkpt lat="42.1406618" lon="13.5090785"><ele>1345.0</ele><time>2026-03-24T14:30:33.924Z</time></trkpt><trkpt lat="42.1407745" lon="13.5091521"><ele>1347.0</ele><time>2026-03-24T14:30:34.924Z</time></trkpt><trkpt lat="42.1408677" lon="13.5092625"><ele>1349.0</ele><time>2026-03-24T14:30:35.925Z</time></trkpt><trkpt lat="42.1409467" lon="13.5093988"><ele>1351.0</ele><time>2026-03-24T14:30:36.924Z</time></trkpt><trkpt lat="42.1409989" lon="13.5095583"><ele>1350.75</ele><time>2026-03-24T14:30:37.924Z</time></trkpt><trkpt lat="42.1410143" lon="13.5097131"><ele>1350.5</ele><time>2026-03-24T14:30:38.924Z</time></trkpt><trkpt lat="42.1409918" lon="13.5098651"><ele>1350.25</ele><time>2026-03-24T14:30:39.924Z</time></trkpt><trkpt lat="42.1409531" lon="13.510009"><ele>1350.0</ele><time>2026-03-24T14:30:40.925Z</time></trkpt><trkpt lat="42.1408582" lon="13.5101179"><ele>1350.0</ele><time>2026-03-24T14:30:41.925Z</time></trkpt><trkpt lat="42.1407474" lon="13.5102144"><ele>1350.0</ele><time>2026-03-24T14:30:42.924Z</time></trkpt><trkpt lat="42.1406406" lon="13.510315"><ele>1350.0</ele><time>2026-03-24T14:30:43.925Z</time></trkpt><trkpt lat="42.1405599" lon="13.5104251"><ele>1350.0</ele><time>2026-03-24T14:30:44.924Z</time></trkpt><trkpt lat="42.1404844" lon="13.5105341"><ele>1348.0</ele><time>2026-03-24T14:30:45.924Z</time></trkpt><trkpt lat="42.1404948" lon="13.5107382"><ele>1346.0</ele><time>2026-03-24T14:30:46.924Z</time></trkpt><trkpt lat="42.14049" lon="13.5109241"><ele>1344.0</ele><time>2026-03-24T14:30:47.924Z</time></trkpt><trkpt lat="42.1404956" lon="13.5111338"><ele>1342.0</ele><time>2026-03-24T14:30:48.924Z</time></trkpt><trkpt lat="42.1405031" lon="13.5113661"><ele>1342.0</ele><time>2026-03-24T14:30:49.924Z</time></trkpt><trkpt lat="42.140498" lon="13.5115984"><ele>1342.0</ele><time>2026-03-24T14:30:50.924Z</time></trkpt><trkpt lat="42.1405008" lon="13.5118237"><ele>1342.0</ele><time>2026-03-24T14:30:51.925Z</time></trkpt><trkpt lat="42.1405002" lon="13.5120391"><ele>1345.5</ele><time>2026-03-24T14:30:52.924Z</time></trkpt><trkpt lat="42.1405007" lon="13.5122349"><ele>1349.0</ele><time>2026-03-24T14:30:53.925Z</time></trkpt><trkpt lat="42.1405074" lon="13.5124141"><ele>1352.5</ele><time>2026-03-24T14:30:54.925Z</time></trkpt><trkpt lat="42.1405095" lon="13.5125795"><ele>1356.0</ele><time>2026-03-24T14:30:55.924Z</time></trkpt><trkpt lat="42.1405124" lon="13.5127258"><ele>1356.0</ele><time>2026-03-24T14:30:56.925Z</time></trkpt><trkpt lat="42.1405145" lon="13.512838"><ele>1356.0</ele><time>2026-03-24T14:30:57.924Z</time></trkpt><trkpt lat="42.140528" lon="13.51296"><ele>1356.0</ele><time>2026-03-24T14:30:59.924Z</time></trkpt><trkpt lat="42.140565" lon="13.5130452"><ele>1356.0</ele><time>2026-03-24T14:31:02.924Z</time></trkpt><trkpt lat="42.1405254" lon="13.5131264"><ele>1356.0</ele><time>2026-03-24T14:31:05.924Z</time></trkpt><trkpt lat="42.1404226" lon="13.5132101"><ele>1356.0</ele><time>2026-03-24T14:31:07.924Z</time></trkpt><trkpt lat="42.1404165" lon="13.5133558"><ele>1356.8</ele><time>2026-03-24T14:31:09.924Z</time></trkpt><trkpt lat="42.1404567" lon="13.5134436"><ele>1357.6</ele><time>2026-03-24T14:31:10.925Z</time></trkpt><trkpt lat="42.1405237" lon="13.5135387"><ele>1358.4</ele><time>2026-03-24T14:31:11.925Z</time></trkpt><trkpt lat="42.1406137" lon="13.513638"><ele>1359.2</ele><time>2026-03-24T14:31:12.925Z</time></trkpt><trkpt lat="42.1407177" lon="13.5137507"><ele>1360.0</ele><time>2026-03-24T14:31:13.924Z</time></trkpt><trkpt lat="42.1408228" lon="13.5138707"><ele>1360.0</ele><time>2026-03-24T14:31:14.924Z</time></trkpt><trkpt lat="42.1409353" lon="13.5139958"><ele>1360.0</ele><time>2026-03-24T14:31:15.924Z</time></trkpt><trkpt lat="42.1410497" lon="13.5141261"><ele>1360.0</ele><time>2026-03-24T14:31:16.924Z</time></trkpt><trkpt lat="42.1411652" lon="13.5142525"><ele>1360.0</ele><time>2026-03-24T14:31:17.924Z</time></trkpt><trkpt lat="42.1412754" lon="13.5143736"><ele>1360.0</ele><time>2026-03-24T14:31:18.925Z</time></trkpt><trkpt lat="42.1413852" lon="13.514488"><ele>1360.0</ele><time>2026-03-24T14:31:19.924Z</time></trkpt><trkpt lat="42.1414829" lon="13.5145898"><ele>1360.0</ele><time>2026-03-24T14:31:20.924Z</time></trkpt><trkpt lat="42.1415659" lon="13.5146722"><ele>1360.0</ele><time>2026-03-24T14:31:21.924Z</time></trkpt><trkpt lat="42.1416314" lon="13.5147396"><ele>1360.0</ele><time>2026-03-24T14:31:22.925Z</time></trkpt><trkpt lat="42.1416999" lon="13.5148093"><ele>1358.6</ele><time>2026-03-24T14:31:23.924Z</time></trkpt><trkpt lat="42.1418232" lon="13.5148292"><ele>1357.2</ele><time>2026-03-24T14:31:25.925Z</time></trkpt><trkpt lat="42.1418973" lon="13.5148185"><ele>1355.8000000000002</ele><time>2026-03-24T14:31:26.924Z</time></trkpt><trkpt lat="42.1419914" lon="13.5148037"><ele>1354.4</ele><time>2026-03-24T14:31:27.924Z</time></trkpt><trkpt lat="42.1420852" lon="13.5147922"><ele>1353.0</ele><time>2026-03-24T14:31:28.924Z</time></trkpt><trkpt lat="42.1421821" lon="13.5147873"><ele>1353.0</ele><time>2026-03-24T14:31:29.924Z</time></trkpt><trkpt lat="42.1422843" lon="13.5147737"><ele>1353.0</ele><time>2026-03-24T14:31:30.924Z</time></trkpt><trkpt lat="42.1423872" lon="13.5147391"><ele>1353.0</ele><time>2026-03-24T14:31:31.925Z</time></trkpt><trkpt lat="42.142481" lon="13.5146879"><ele>1353.0</ele><time>2026-03-24T14:31:32.924Z</time></trkpt><trkpt lat="42.1425683" lon="13.5146328"><ele>1353.0</ele><time>2026-03-24T14:31:33.924Z</time></trkpt><trkpt lat="42.1426376" lon="13.5145895"><ele>1353.0</ele><time>2026-03-24T14:31:34.924Z</time></trkpt><trkpt lat="42.1427536" lon="13.5145663"><ele>1353.0</ele><time>2026-03-24T14:31:36.925Z</time></trkpt><trkpt lat="42.1428772" lon="13.5146186"><ele>1353.0</ele><time>2026-03-24T14:31:38.924Z</time></trkpt><trkpt lat="42.1429386" lon="13.5146571"><ele>1353.0</ele><time>2026-03-24T14:31:39.924Z</time></trkpt><trkpt lat="42.142997" lon="13.514714"><ele>1353.0</ele><time>2026-03-24T14:31:41.924Z</time></trkpt><trkpt lat="42.1430683" lon="13.5147244"><ele>1353.0</ele><time>2026-03-24T14:32:30.925Z</time></trkpt><trkpt lat="42.1431675" lon="13.514607"><ele>1353.0</ele><time>2026-03-24T14:32:32.924Z</time></trkpt><trkpt lat="42.1432324" lon="13.5145272"><ele>1353.0</ele><time>2026-03-24T14:32:33.924Z</time></trkpt><trkpt lat="42.1433096" lon="13.5144259"><ele>1353.0</ele><time>2026-03-24T14:32:34.924Z</time></trkpt><trkpt lat="42.143394" lon="13.5143185"><ele>1353.0</ele><time>2026-03-24T14:32:35.924Z</time></trkpt><trkpt lat="42.1434881" lon="13.5142022"><ele>1352.75</ele><time>2026-03-24T14:32:36.925Z</time></trkpt><trkpt lat="42.1435863" lon="13.514083"><ele>1352.5</ele><time>2026-03-24T14:32:37.924Z</time></trkpt><trkpt lat="42.143689" lon="13.5139606"><ele>1352.25</ele><time>2026-03-24T14:32:38.925Z</time></trkpt><trkpt lat="42.1437995" lon="13.5138335"><ele>1352.0</ele><time>2026-03-24T14:32:39.924Z</time></trkpt><trkpt lat="42.1439121" lon="13.513701"><ele>1352.0</ele><time>2026-03-24T14:32:40.924Z</time></trkpt><trkpt lat="42.1440277" lon="13.51356"><ele>1352.0</ele><time>2026-03-24T14:32:41.925Z</time></trkpt><trkpt lat="42.1441478" lon="13.5134112"><ele>1352.0</ele><time>2026-03-24T14:32:42.924Z</time></trkpt><trkpt lat="42.1442682" lon="13.5132592"><ele>1352.0</ele><time>2026-03-24T14:32:43.924Z</time></trkpt><trkpt lat="42.1443913" lon="13.5131023"><ele>1352.0</ele><time>2026-03-24T14:32:44.925Z</time></trkpt><trkpt lat="42.1445175" lon="13.5129461"><ele>1352.0</ele><time>2026-03-24T14:32:45.925Z</time></trkpt><trkpt lat="42.1446466" lon="13.5127846"><ele>1352.6666666666667</ele><time>2026-03-24T14:32:46.924Z</time></trkpt><trkpt lat="42.144779" lon="13.5126204"><ele>1353.3333333333333</ele><time>2026-03-24T14:32:47.924Z</time></trkpt><trkpt lat="42.1449155" lon="13.5124525"><ele>1354.0</ele><time>2026-03-24T14:32:48.924Z</time></trkpt><trkpt lat="42.1450546" lon="13.5122855"><ele>1354.0</ele><time>2026-03-24T14:32:49.925Z</time></trkpt><trkpt lat="42.1451899" lon="13.5121185"><ele>1354.0</ele><time>2026-03-24T14:32:50.924Z</time></trkpt><trkpt lat="42.1453303" lon="13.5119409"><ele>1354.0</ele><time>2026-03-24T14:32:51.924Z</time></trkpt><trkpt lat="42.1454694" lon="13.5117679"><ele>1355.0</ele><time>2026-03-24T14:32:52.925Z</time></trkpt><trkpt lat="42.1456112" lon="13.5115899"><ele>1356.0</ele><time>2026-03-24T14:32:53.924Z</time></trkpt><trkpt lat="42.1457542" lon="13.5114082"><ele>1357.0</ele><time>2026-03-24T14:32:54.925Z</time></trkpt><trkpt lat="42.1458989" lon="13.5112242"><ele>1358.0</ele><time>2026-03-24T14:32:55.924Z</time></trkpt><trkpt lat="42.1460472" lon="13.5110429"><ele>1359.0</ele><time>2026-03-24T14:32:56.924Z</time></trkpt><trkpt lat="42.1461937" lon="13.5108601"><ele>1360.0</ele><time>2026-03-24T14:32:57.924Z</time></trkpt><trkpt lat="42.1463408" lon="13.5106814"><ele>1360.0</ele><time>2026-03-24T14:32:58.924Z</time></trkpt><trkpt lat="42.1464852" lon="13.5105043"><ele>1360.0</ele><time>2026-03-24T14:32:59.924Z</time></trkpt><trkpt lat="42.1466389" lon="13.5103301"><ele>1360.0</ele><time>2026-03-24T14:33:00.924Z</time></trkpt><trkpt lat="42.1467921" lon="13.5101563"><ele>1361.0</ele><time>2026-03-24T14:33:01.924Z</time></trkpt><trkpt lat="42.1469453" lon="13.5099829"><ele>1362.0</ele><time>2026-03-24T14:33:02.924Z</time></trkpt><trkpt lat="42.1470971" lon="13.5098106"><ele>1363.0</ele><time>2026-03-24T14:33:03.924Z</time></trkpt><trkpt lat="42.1472493" lon="13.5096342"><ele>1364.6666666666665</ele><time>2026-03-24T14:33:04.924Z</time></trkpt><trkpt lat="42.1473972" lon="13.5094562"><ele>1366.3333333333333</ele><time>2026-03-24T14:33:05.924Z</time></trkpt><trkpt lat="42.1475422" lon="13.5092791"><ele>1368.0</ele><time>2026-03-24T14:33:06.925Z</time></trkpt><trkpt lat="42.1476844" lon="13.5091027"><ele>1368.0</ele><time>2026-03-24T14:33:07.924Z</time></trkpt><trkpt lat="42.147822" lon="13.5089237"><ele>1368.0</ele><time>2026-03-24T14:33:08.924Z</time></trkpt><trkpt lat="42.1479533" lon="13.5087482"><ele>1368.0</ele><time>2026-03-24T14:33:09.924Z</time></trkpt><trkpt lat="42.1480683" lon="13.5085773"><ele>1369.3333333333333</ele><time>2026-03-24T14:33:10.925Z</time></trkpt><trkpt lat="42.1481704" lon="13.5084013"><ele>1370.6666666666665</ele><time>2026-03-24T14:33:11.924Z</time></trkpt><trkpt lat="42.1482642" lon="13.5082112"><ele>1372.0</ele><time>2026-03-24T14:33:12.924Z</time></trkpt><trkpt lat="42.1483506" lon="13.5080207"><ele>1373.3333333333333</ele><time>2026-03-24T14:33:13.924Z</time></trkpt><trkpt lat="42.1484361" lon="13.5078326"><ele>1374.6666666666667</ele><time>2026-03-24T14:33:14.924Z</time></trkpt><trkpt lat="42.1485182" lon="13.5076401"><ele>1376.0</ele><time>2026-03-24T14:33:15.924Z</time></trkpt><trkpt lat="42.1486005" lon="13.507443"><ele>1376.0</ele><time>2026-03-24T14:33:16.924Z</time></trkpt><trkpt lat="42.1486779" lon="13.50725"><ele>1376.0</ele><time>2026-03-24T14:33:17.925Z</time></trkpt><trkpt lat="42.1487482" lon="13.5070735"><ele>1376.0</ele><time>2026-03-24T14:33:18.924Z</time></trkpt><trkpt lat="42.1488174" lon="13.5069084"><ele>1377.6</ele><time>2026-03-24T14:33:19.924Z</time></trkpt><trkpt lat="42.1488805" lon="13.5068316"><ele>1379.1999999999998</ele><time>2026-03-24T14:33:20.924Z</time></trkpt><trkpt lat="42.1489599" lon="13.5067725"><ele>1380.8000000000002</ele><time>2026-03-24T14:33:21.925Z</time></trkpt><trkpt lat="42.1490572" lon="13.5067269"><ele>1382.4</ele><time>2026-03-24T14:33:22.924Z</time></trkpt><trkpt lat="42.1491608" lon="13.5066883"><ele>1384.0</ele><time>2026-03-24T14:33:23.924Z</time></trkpt><trkpt lat="42.1492604" lon="13.5066474"><ele>1385.0</ele><time>2026-03-24T14:33:24.924Z</time></trkpt><trkpt lat="42.1493528" lon="13.5066007"><ele>1386.0</ele><time>2026-03-24T14:33:25.924Z</time></trkpt><trkpt lat="42.1494307" lon="13.5065418"><ele>1387.0</ele><time>2026-03-24T14:33:26.924Z</time></trkpt><trkpt lat="42.1495014" lon="13.5064939"><ele>1388.0</ele><time>2026-03-24T14:33:27.925Z</time></trkpt><trkpt lat="42.149571" lon="13.5064526"><ele>1389.0</ele><time>2026-03-24T14:33:28.924Z</time></trkpt><trkpt lat="42.1496487" lon="13.5064449"><ele>1390.0</ele><time>2026-03-24T14:33:29.924Z</time></trkpt><trkpt lat="42.1497247" lon="13.5064558"><ele>1390.0</ele><time>2026-03-24T14:33:30.924Z</time></trkpt><trkpt lat="42.1498019" lon="13.506483"><ele>1390.0</ele><time>2026-03-24T14:33:31.925Z</time></trkpt><trkpt lat="42.1498783" lon="13.5065202"><ele>1390.0</ele><time>2026-03-24T14:33:32.925Z</time></trkpt><trkpt lat="42.1499667" lon="13.5065588"><ele>1390.0</ele><time>2026-03-24T14:33:33.925Z</time></trkpt><trkpt lat="42.1500619" lon="13.5065976"><ele>1390.0</ele><time>2026-03-24T14:33:34.925Z</time></trkpt><trkpt lat="42.1501657" lon="13.5066378"><ele>1391.0</ele><time>2026-03-24T14:33:35.924Z</time></trkpt><trkpt lat="42.1502738" lon="13.5066836"><ele>1392.0</ele><time>2026-03-24T14:33:36.924Z</time></trkpt><trkpt lat="42.1503784" lon="13.5067302"><ele>1393.0</ele><time>2026-03-24T14:33:37.924Z</time></trkpt><trkpt lat="42.1504861" lon="13.5067854"><ele>1394.0</ele><time>2026-03-24T14:33:38.925Z</time></trkpt><trkpt lat="42.1505997" lon="13.5068473"><ele>1394.0</ele><time>2026-03-24T14:33:39.925Z</time></trkpt><trkpt lat="42.1507197" lon="13.5069135"><ele>1394.0</ele><time>2026-03-24T14:33:40.924Z</time></trkpt><trkpt lat="42.1508376" lon="13.5069886"><ele>1394.0</ele><time>2026-03-24T14:33:41.924Z</time></trkpt><trkpt lat="42.1509612" lon="13.5070778"><ele>1394.0</ele><time>2026-03-24T14:33:42.924Z</time></trkpt><trkpt lat="42.1510806" lon="13.5071768"><ele>1394.0</ele><time>2026-03-24T14:33:43.925Z</time></trkpt><trkpt lat="42.1512023" lon="13.50729"><ele>1394.0</ele><time>2026-03-24T14:33:44.925Z</time></trkpt><trkpt lat="42.1513299" lon="13.5074143"><ele>1394.0</ele><time>2026-03-24T14:33:45.925Z</time></trkpt><trkpt lat="42.151457" lon="13.5075384"><ele>1393.75</ele><time>2026-03-24T14:33:46.925Z</time></trkpt><trkpt lat="42.1515722" lon="13.5076575"><ele>1393.5</ele><time>2026-03-24T14:33:47.924Z</time></trkpt><trkpt lat="42.1516777" lon="13.5077741"><ele>1393.25</ele><time>2026-03-24T14:33:48.924Z</time></trkpt><trkpt lat="42.1517765" lon="13.5078928"><ele>1393.0</ele><time>2026-03-24T14:33:49.924Z</time></trkpt><trkpt lat="42.1518733" lon="13.5080141"><ele>1392.25</ele><time>2026-03-24T14:33:50.925Z</time></trkpt><trkpt lat="42.1519682" lon="13.5081495"><ele>1391.5</ele><time>2026-03-24T14:33:51.924Z</time></trkpt><trkpt lat="42.1520564" lon="13.508293"><ele>1390.75</ele><time>2026-03-24T14:33:52.924Z</time></trkpt><trkpt lat="42.1521303" lon="13.50843"><ele>1390.0</ele><time>2026-03-24T14:33:53.925Z</time></trkpt><trkpt lat="42.1522002" lon="13.5085692"><ele>1390.0</ele><time>2026-03-24T14:33:54.925Z</time></trkpt><trkpt lat="42.1522584" lon="13.5086978"><ele>1390.0</ele><time>2026-03-24T14:33:55.924Z</time></trkpt><trkpt lat="42.1523042" lon="13.5088059"><ele>1390.0</ele><time>2026-03-24T14:33:56.925Z</time></trkpt><trkpt lat="42.1523416" lon="13.5088907"><ele>1390.0</ele><time>2026-03-24T14:33:57.925Z</time></trkpt><trkpt lat="42.152393" lon="13.5089829"><ele>1390.0</ele><time>2026-03-24T14:33:59.925Z</time></trkpt><trkpt lat="42.1524735" lon="13.508945"><ele>1390.0</ele><time>2026-03-24T14:34:02.925Z</time></trkpt><trkpt lat="42.1525136" lon="13.5087715"><ele>1390.0</ele><time>2026-03-24T14:34:04.925Z</time></trkpt><trkpt lat="42.1525415" lon="13.5086442"><ele>1390.0</ele><time>2026-03-24T14:34:05.924Z</time></trkpt><trkpt lat="42.1525872" lon="13.5084991"><ele>1390.0</ele><time>2026-03-24T14:34:06.924Z</time></trkpt><trkpt lat="42.1526397" lon="13.5083618"><ele>1390.0</ele><time>2026-03-24T14:34:07.925Z</time></trkpt><trkpt lat="42.1526924" lon="13.5082312"><ele>1390.0</ele><time>2026-03-24T14:34:08.924Z</time></trkpt><trkpt lat="42.1527447" lon="13.5081213"><ele>1390.0</ele><time>2026-03-24T14:34:09.924Z</time></trkpt><trkpt lat="42.1527963" lon="13.5080311"><ele>1390.0</ele><time>2026-03-24T14:34:10.925Z</time></trkpt><trkpt lat="42.1528386" lon="13.5079145"><ele>1390.0</ele><time>2026-03-24T14:34:12.925Z</time></trkpt><trkpt lat="42.1527761" lon="13.5079528"><ele>1390.0</ele><time>2026-03-24T14:34:15.924Z</time></trkpt><trkpt lat="42.1527384" lon="13.5080469"><ele>1390.0</ele><time>2026-03-24T14:34:16.924Z</time></trkpt><trkpt lat="42.1526869" lon="13.5082058"><ele>1390.0</ele><time>2026-03-24T14:34:17.924Z</time></trkpt><trkpt lat="42.1526422" lon="13.5083568"><ele>1390.0</ele><time>2026-03-24T14:34:18.924Z</time></trkpt><trkpt lat="42.1526069" lon="13.5084743"><ele>1390.0</ele><time>2026-03-24T14:34:19.924Z</time></trkpt><trkpt lat="42.152591" lon="13.5085605"><ele>1390.0</ele><time>2026-03-24T14:34:20.924Z</time></trkpt><trkpt lat="42.1526036" lon="13.5086883"><ele>1390.0</ele><time>2026-03-24T14:34:22.925Z</time></trkpt><trkpt lat="42.152688" lon="13.5088391"><ele>1389.25</ele><time>2026-03-24T14:34:24.924Z</time></trkpt><trkpt lat="42.1527587" lon="13.5089423"><ele>1388.5</ele><time>2026-03-24T14:34:25.924Z</time></trkpt><trkpt lat="42.1528549" lon="13.5090619"><ele>1387.75</ele><time>2026-03-24T14:34:26.925Z</time></trkpt><trkpt lat="42.1529612" lon="13.5091952"><ele>1387.0</ele><time>2026-03-24T14:34:27.925Z</time></trkpt><trkpt lat="42.15308" lon="13.5093467"><ele>1387.0</ele><time>2026-03-24T14:34:28.925Z</time></trkpt><trkpt lat="42.1532038" lon="13.509506"><ele>1387.0</ele><time>2026-03-24T14:34:29.925Z</time></trkpt><trkpt lat="42.153332" lon="13.5096708"><ele>1387.0</ele><time>2026-03-24T14:34:30.925Z</time></trkpt><trkpt lat="42.1534552" lon="13.5098242"><ele>1385.75</ele><time>2026-03-24T14:34:31.924Z</time></trkpt><trkpt lat="42.1535672" lon="13.50997"><ele>1384.5</ele><time>2026-03-24T14:34:32.925Z</time></trkpt><trkpt lat="42.1536793" lon="13.5101052"><ele>1383.25</ele><time>2026-03-24T14:34:33.925Z</time></trkpt><trkpt lat="42.1537747" lon="13.5102265"><ele>1382.0</ele><time>2026-03-24T14:34:34.924Z</time></trkpt><trkpt lat="42.1538666" lon="13.5103443"><ele>1381.5</ele><time>2026-03-24T14:34:35.924Z</time></trkpt><trkpt lat="42.1539565" lon="13.5104589"><ele>1381.0</ele><time>2026-03-24T14:34:36.924Z</time></trkpt><trkpt lat="42.1540394" lon="13.5105642"><ele>1380.5</ele><time>2026-03-24T14:34:37.924Z</time></trkpt><trkpt lat="42.1541201" lon="13.5106639"><ele>1380.0</ele><time>2026-03-24T14:34:38.924Z</time></trkpt><trkpt lat="42.154198" lon="13.5107584"><ele>1379.6</ele><time>2026-03-24T14:34:39.924Z</time></trkpt><trkpt lat="42.1542734" lon="13.5108503"><ele>1379.2</ele><time>2026-03-24T14:34:40.924Z</time></trkpt><trkpt lat="42.1543484" lon="13.5109415"><ele>1378.8000000000002</ele><time>2026-03-24T14:34:41.924Z</time></trkpt><trkpt lat="42.1544228" lon="13.5110365"><ele>1378.4</ele><time>2026-03-24T14:34:42.924Z</time></trkpt><trkpt lat="42.1544903" lon="13.5111341"><ele>1378.0</ele><time>2026-03-24T14:34:43.925Z</time></trkpt><trkpt lat="42.1545544" lon="13.5112357"><ele>1377.6000000000001</ele><time>2026-03-24T14:34:44.924Z</time></trkpt><trkpt lat="42.1546142" lon="13.5113441"><ele>1377.2</ele><time>2026-03-24T14:34:45.925Z</time></trkpt><trkpt lat="42.1546739" lon="13.5114538"><ele>1376.8</ele><time>2026-03-24T14:34:46.924Z</time></trkpt><trkpt lat="42.1547318" lon="13.5115661"><ele>1376.4</ele><time>2026-03-24T14:34:47.924Z</time></trkpt><trkpt lat="42.1547922" lon="13.5116778"><ele>1376.0</ele><time>2026-03-24T14:34:48.924Z</time></trkpt><trkpt lat="42.154856" lon="13.5117838"><ele>1376.0</ele><time>2026-03-24T14:34:49.924Z</time></trkpt><trkpt lat="42.154903" lon="13.5118609"><ele>1376.0</ele><time>2026-03-24T14:34:50.924Z</time></trkpt><trkpt lat="42.1549574" lon="13.51195"><ele>1376.0</ele><time>2026-03-24T14:34:52.924Z</time></trkpt><trkpt lat="42.1550196" lon="13.5119358"><ele>1376.0</ele><time>2026-03-24T14:34:57.924Z</time></trkpt><trkpt lat="42.154948" lon="13.5118237"><ele>1376.0</ele><time>2026-03-24T14:35:00.924Z</time></trkpt><trkpt lat="42.1548547" lon="13.511701"><ele>1376.0</ele><time>2026-03-24T14:35:02.924Z</time></trkpt><trkpt lat="42.1548027" lon="13.511632"><ele>1376.0</ele><time>2026-03-24T14:35:03.925Z</time></trkpt><trkpt lat="42.1547502" lon="13.5115544"><ele>1376.0</ele><time>2026-03-24T14:35:04.924Z</time></trkpt><trkpt lat="42.1546968" lon="13.5114675"><ele>1376.0</ele><time>2026-03-24T14:35:05.925Z</time></trkpt><trkpt lat="42.1546448" lon="13.5113756"><ele>1376.0</ele><time>2026-03-24T14:35:06.925Z</time></trkpt><trkpt lat="42.1545909" lon="13.5112915"><ele>1376.0</ele><time>2026-03-24T14:35:07.924Z</time></trkpt><trkpt lat="42.1545435" lon="13.5112005"><ele>1376.4</ele><time>2026-03-24T14:35:08.924Z</time></trkpt><trkpt lat="42.1544872" lon="13.5111122"><ele>1376.8</ele><time>2026-03-24T14:35:09.924Z</time></trkpt><trkpt lat="42.1544262" lon="13.5110249"><ele>1377.2</ele><time>2026-03-24T14:35:10.924Z</time></trkpt><trkpt lat="42.1543597" lon="13.5109413"><ele>1377.6000000000001</ele><time>2026-03-24T14:35:11.925Z</time></trkpt><trkpt lat="42.1542879" lon="13.5108507"><ele>1378.0</ele><time>2026-03-24T14:35:12.925Z</time></trkpt><trkpt lat="42.1542134" lon="13.5107642"><ele>1378.0</ele><time>2026-03-24T14:35:13.925Z</time></trkpt><trkpt lat="42.154141" lon="13.5106937"><ele>1378.0</ele><time>2026-03-24T14:35:14.925Z</time></trkpt><trkpt lat="42.154052" lon="13.5105731"><ele>1378.0</ele><time>2026-03-24T14:35:15.924Z</time></trkpt><trkpt lat="42.1539665" lon="13.5104622"><ele>1378.0</ele><time>2026-03-24T14:35:16.924Z</time></trkpt><trkpt lat="42.1538752" lon="13.5103429"><ele>1379.0</ele><time>2026-03-24T14:35:17.924Z</time></trkpt><trkpt lat="42.1537821" lon="13.5102214"><ele>1380.0</ele><time>2026-03-24T14:35:18.925Z</time></trkpt><trkpt lat="42.1536832" lon="13.5101007"><ele>1381.0</ele><time>2026-03-24T14:35:19.925Z</time></trkpt><trkpt lat="42.1535784" lon="13.509982"><ele>1382.0</ele><time>2026-03-24T14:35:20.925Z</time></trkpt><trkpt lat="42.1534849" lon="13.5098565"><ele>1382.0</ele><time>2026-03-24T14:35:21.924Z</time></trkpt><trkpt lat="42.1533813" lon="13.5097269"><ele>1382.0</ele><time>2026-03-24T14:35:22.924Z</time></trkpt><trkpt lat="42.1532809" lon="13.5095998"><ele>1382.0</ele><time>2026-03-24T14:35:23.924Z</time></trkpt><trkpt lat="42.1531794" lon="13.5094763"><ele>1382.0</ele><time>2026-03-24T14:35:24.924Z</time></trkpt><trkpt lat="42.1530778" lon="13.509351"><ele>1383.25</ele><time>2026-03-24T14:35:25.924Z</time></trkpt><trkpt lat="42.1529835" lon="13.5092307"><ele>1384.5</ele><time>2026-03-24T14:35:26.924Z</time></trkpt><trkpt lat="42.1528988" lon="13.5091194"><ele>1385.75</ele><time>2026-03-24T14:35:27.924Z</time></trkpt><trkpt lat="42.1528228" lon="13.5090163"><ele>1387.0</ele><time>2026-03-24T14:35:28.925Z</time></trkpt><trkpt lat="42.1527548" lon="13.5089236"><ele>1387.0</ele><time>2026-03-24T14:35:29.924Z</time></trkpt><trkpt lat="42.1526974" lon="13.5088439"><ele>1387.0</ele><time>2026-03-24T14:35:30.924Z</time></trkpt><trkpt lat="42.1526082" lon="13.5087628"><ele>1387.0</ele><time>2026-03-24T14:35:32.924Z</time></trkpt><trkpt lat="42.1525108" lon="13.5087548"><ele>1387.0</ele><time>2026-03-24T14:35:35.925Z</time></trkpt><trkpt lat="42.1524587" lon="13.5088891"><ele>1387.0</ele><time>2026-03-24T14:35:37.925Z</time></trkpt><trkpt lat="42.1524444" lon="13.5089972"><ele>1387.0</ele><time>2026-03-24T14:35:38.925Z</time></trkpt><trkpt lat="42.1524312" lon="13.5091265"><ele>1387.0</ele><time>2026-03-24T14:35:39.924Z</time></trkpt><trkpt lat="42.1524294" lon="13.5092836"><ele>1387.0</ele><time>2026-03-24T14:35:40.924Z</time></trkpt><trkpt lat="42.1524424" lon="13.5094478"><ele>1387.0</ele><time>2026-03-24T14:35:41.924Z</time></trkpt><trkpt lat="42.152477" lon="13.5096212"><ele>1385.6666666666665</ele><time>2026-03-24T14:35:42.925Z</time></trkpt><trkpt lat="42.1525316" lon="13.5097994"><ele>1384.3333333333333</ele><time>2026-03-24T14:35:43.924Z</time></trkpt><trkpt lat="42.1526019" lon="13.5099827"><ele>1383.0</ele><time>2026-03-24T14:35:44.924Z</time></trkpt><trkpt lat="42.1526827" lon="13.5101612"><ele>1383.0</ele><time>2026-03-24T14:35:45.924Z</time></trkpt><trkpt lat="42.1527706" lon="13.5103355"><ele>1383.0</ele><time>2026-03-24T14:35:46.924Z</time></trkpt><trkpt lat="42.1528528" lon="13.5104997"><ele>1383.0</ele><time>2026-03-24T14:35:47.924Z</time></trkpt><trkpt lat="42.1529265" lon="13.5106504"><ele>1383.0</ele><time>2026-03-24T14:35:48.924Z</time></trkpt><trkpt lat="42.1529914" lon="13.5108077"><ele>1382.25</ele><time>2026-03-24T14:35:49.924Z</time></trkpt><trkpt lat="42.1530476" lon="13.5109826"><ele>1381.5</ele><time>2026-03-24T14:35:50.924Z</time></trkpt><trkpt lat="42.1530965" lon="13.5111675"><ele>1380.75</ele><time>2026-03-24T14:35:51.924Z</time></trkpt><trkpt lat="42.1531447" lon="13.5113605"><ele>1380.0</ele><time>2026-03-24T14:35:52.924Z</time></trkpt><trkpt lat="42.1531865" lon="13.5115645"><ele>1379.3333333333333</ele><time>2026-03-24T14:35:53.924Z</time></trkpt><trkpt lat="42.1532337" lon="13.5117767"><ele>1378.6666666666665</ele><time>2026-03-24T14:35:54.924Z</time></trkpt><trkpt lat="42.1532806" lon="13.5119997"><ele>1378.0</ele><time>2026-03-24T14:35:55.924Z</time></trkpt><trkpt lat="42.1533304" lon="13.5122293"><ele>1377.0</ele><time>2026-03-24T14:35:56.924Z</time></trkpt><trkpt lat="42.1533799" lon="13.5124632"><ele>1376.0</ele><time>2026-03-24T14:35:57.924Z</time></trkpt><trkpt lat="42.15343" lon="13.5126994"><ele>1375.0</ele><time>2026-03-24T14:35:58.924Z</time></trkpt><trkpt lat="42.1534797" lon="13.5129376"><ele>1375.0</ele><time>2026-03-24T14:35:59.925Z</time></trkpt><trkpt lat="42.1535239" lon="13.5131831"><ele>1375.0</ele><time>2026-03-24T14:36:00.924Z</time></trkpt><trkpt lat="42.1535628" lon="13.5134368"><ele>1375.0</ele><time>2026-03-24T14:36:01.924Z</time></trkpt><trkpt lat="42.1535856" lon="13.5136916"><ele>1373.6666666666665</ele><time>2026-03-24T14:36:02.924Z</time></trkpt><trkpt lat="42.1535989" lon="13.5139551"><ele>1372.3333333333333</ele><time>2026-03-24T14:36:03.924Z</time></trkpt><trkpt lat="42.1536017" lon="13.5142184"><ele>1371.0</ele><time>2026-03-24T14:36:04.924Z</time></trkpt><trkpt lat="42.1535983" lon="13.5144797"><ele>1370.6666666666667</ele><time>2026-03-24T14:36:05.925Z</time></trkpt><trkpt lat="42.1535932" lon="13.5147442"><ele>1370.3333333333335</ele><time>2026-03-24T14:36:06.924Z</time></trkpt><trkpt lat="42.1535883" lon="13.5150145"><ele>1370.0</ele><time>2026-03-24T14:36:07.924Z</time></trkpt><trkpt lat="42.1535812" lon="13.5152722"><ele>1368.6666666666667</ele><time>2026-03-24T14:36:08.924Z</time></trkpt><trkpt lat="42.1535679" lon="13.5155158"><ele>1367.3333333333333</ele><time>2026-03-24T14:36:09.925Z</time></trkpt><trkpt lat="42.1535452" lon="13.515758"><ele>1366.0</ele><time>2026-03-24T14:36:10.924Z</time></trkpt><trkpt lat="42.1535143" lon="13.5160045"><ele>1365.3333333333333</ele><time>2026-03-24T14:36:11.924Z</time></trkpt><trkpt lat="42.1534741" lon="13.5162523"><ele>1364.6666666666667</ele><time>2026-03-24T14:36:12.925Z</time></trkpt><trkpt lat="42.1534226" lon="13.5165033"><ele>1364.0</ele><time>2026-03-24T14:36:13.924Z</time></trkpt><trkpt lat="42.1533645" lon="13.5167539"><ele>1364.0</ele><time>2026-03-24T14:36:14.924Z</time></trkpt><trkpt lat="42.153296" lon="13.5170069"><ele>1364.0</ele><time>2026-03-24T14:36:15.924Z</time></trkpt><trkpt lat="42.1532266" lon="13.5172509"><ele>1364.0</ele><time>2026-03-24T14:36:16.924Z</time></trkpt><trkpt lat="42.1531624" lon="13.5174723"><ele>1363.5</ele><time>2026-03-24T14:36:17.924Z</time></trkpt><trkpt lat="42.1531086" lon="13.5176613"><ele>1363.0</ele><time>2026-03-24T14:36:18.924Z</time></trkpt><trkpt lat="42.1530668" lon="13.5178233"><ele>1362.5</ele><time>2026-03-24T14:36:19.925Z</time></trkpt><trkpt lat="42.1530317" lon="13.5179606"><ele>1362.0</ele><time>2026-03-24T14:36:20.924Z</time></trkpt><trkpt lat="42.1530031" lon="13.5180731"><ele>1361.8</ele><time>2026-03-24T14:36:21.924Z</time></trkpt><trkpt lat="42.1529857" lon="13.5181696"><ele>1361.6</ele><time>2026-03-24T14:36:22.924Z</time></trkpt><trkpt lat="42.1530104" lon="13.5182699"><ele>1361.3999999999999</ele><time>2026-03-24T14:36:24.924Z</time></trkpt><trkpt lat="42.1531179" lon="13.5182811"><ele>1361.1999999999998</ele><time>2026-03-24T14:36:26.925Z</time></trkpt><trkpt lat="42.1532093" lon="13.5182495"><ele>1361.0</ele><time>2026-03-24T14:36:27.924Z</time></trkpt><trkpt lat="42.1533262" lon="13.5181942"><ele>1361.0</ele><time>2026-03-24T14:36:28.924Z</time></trkpt><trkpt lat="42.1534565" lon="13.5181377"><ele>1361.0</ele><time>2026-03-24T14:36:29.924Z</time></trkpt><trkpt lat="42.1536021" lon="13.51807"><ele>1361.0</ele><time>2026-03-24T14:36:30.924Z</time></trkpt><trkpt lat="42.1537612" lon="13.5179977"><ele>1361.0</ele><time>2026-03-24T14:36:31.924Z</time></trkpt><trkpt lat="42.1539274" lon="13.5179253"><ele>1361.0</ele><time>2026-03-24T14:36:32.925Z</time></trkpt><trkpt lat="42.1541013" lon="13.5178778"><ele>1361.0</ele><time>2026-03-24T14:36:33.924Z</time></trkpt><trkpt lat="42.1542962" lon="13.5178481"><ele>1361.3333333333335</ele><time>2026-03-24T14:36:34.925Z</time></trkpt><trkpt lat="42.1544968" lon="13.5178235"><ele>1361.6666666666667</ele><time>2026-03-24T14:36:35.925Z</time></trkpt><trkpt lat="42.1547083" lon="13.517804"><ele>1362.0</ele><time>2026-03-24T14:36:36.925Z</time></trkpt><trkpt lat="42.1549239" lon="13.5177789"><ele>1362.5</ele><time>2026-03-24T14:36:37.924Z</time></trkpt><trkpt lat="42.1551492" lon="13.5177615"><ele>1363.0</ele><time>2026-03-24T14:36:38.924Z</time></trkpt><trkpt lat="42.1553858" lon="13.5177407"><ele>1363.0</ele><time>2026-03-24T14:36:39.924Z</time></trkpt><trkpt lat="42.155631" lon="13.5177185"><ele>1363.0</ele><time>2026-03-24T14:36:40.924Z</time></trkpt><trkpt lat="42.1558736" lon="13.5177008"><ele>1363.5</ele><time>2026-03-24T14:36:41.924Z</time></trkpt><trkpt lat="42.1561191" lon="13.5176683"><ele>1364.0</ele><time>2026-03-24T14:36:42.924Z</time></trkpt><trkpt lat="42.1563776" lon="13.5176811"><ele>1362.5</ele><time>2026-03-24T14:36:43.925Z</time></trkpt><trkpt lat="42.156639" lon="13.5176909"><ele>1361.0</ele><time>2026-03-24T14:36:44.924Z</time></trkpt><trkpt lat="42.1569033" lon="13.5177024"><ele>1361.0</ele><time>2026-03-24T14:36:45.925Z</time></trkpt><trkpt lat="42.1571689" lon="13.5177231"><ele>1361.0</ele><time>2026-03-24T14:36:46.925Z</time></trkpt><trkpt lat="42.1574378" lon="13.5177489"><ele>1360.5</ele><time>2026-03-24T14:36:47.925Z</time></trkpt><trkpt lat="42.1577123" lon="13.5177684"><ele>1360.0</ele><time>2026-03-24T14:36:48.924Z</time></trkpt><trkpt lat="42.1579877" lon="13.5177904"><ele>1360.5</ele><time>2026-03-24T14:36:49.924Z</time></trkpt><trkpt lat="42.158269" lon="13.5178141"><ele>1361.0</ele><time>2026-03-24T14:36:50.925Z</time></trkpt><trkpt lat="42.1585537" lon="13.5178418"><ele>1361.0</ele><time>2026-03-24T14:36:51.925Z</time></trkpt><trkpt lat="42.1588382" lon="13.5178678"><ele>1361.0</ele><time>2026-03-24T14:36:52.925Z</time></trkpt><trkpt lat="42.1591183" lon="13.5178924"><ele>1361.0</ele><time>2026-03-24T14:36:53.925Z</time></trkpt><trkpt lat="42.1593976" lon="13.5179097"><ele>1361.0</ele><time>2026-03-24T14:36:54.924Z</time></trkpt><trkpt lat="42.1596776" lon="13.5179341"><ele>1359.5</ele><time>2026-03-24T14:36:55.924Z</time></trkpt><trkpt lat="42.1599521" lon="13.5179556"><ele>1358.0</ele><time>2026-03-24T14:36:56.925Z</time></trkpt><trkpt lat="42.1602268" lon="13.5179815"><ele>1358.0</ele><time>2026-03-24T14:36:57.925Z</time></trkpt><trkpt lat="42.1605019" lon="13.518007"><ele>1358.0</ele><time>2026-03-24T14:36:58.925Z</time></trkpt><trkpt lat="42.1607759" lon="13.5180316"><ele>1357.5</ele><time>2026-03-24T14:36:59.924Z</time></trkpt><trkpt lat="42.1610545" lon="13.5180521"><ele>1357.0</ele><time>2026-03-24T14:37:00.924Z</time></trkpt><trkpt lat="42.1613352" lon="13.5180736"><ele>1355.5</ele><time>2026-03-24T14:37:01.924Z</time></trkpt><trkpt lat="42.1616094" lon="13.518093"><ele>1354.0</ele><time>2026-03-24T14:37:02.925Z</time></trkpt><trkpt lat="42.1618803" lon="13.5181118"><ele>1354.0</ele><time>2026-03-24T14:37:03.924Z</time></trkpt><trkpt lat="42.1621488" lon="13.5181277"><ele>1354.0</ele><time>2026-03-24T14:37:04.924Z</time></trkpt><trkpt lat="42.1624162" lon="13.5181438"><ele>1354.0</ele><time>2026-03-24T14:37:05.924Z</time></trkpt><trkpt lat="42.1626801" lon="13.5181638"><ele>1354.0</ele><time>2026-03-24T14:37:06.924Z</time></trkpt><trkpt lat="42.1629417" lon="13.5181872"><ele>1355.0</ele><time>2026-03-24T14:37:07.925Z</time></trkpt><trkpt lat="42.1632006" lon="13.5182094"><ele>1356.0</ele><time>2026-03-24T14:37:08.924Z</time></trkpt><trkpt lat="42.1634612" lon="13.5182328"><ele>1356.0</ele><time>2026-03-24T14:37:09.924Z</time></trkpt><trkpt lat="42.1637198" lon="13.5182521"><ele>1356.0</ele><time>2026-03-24T14:37:10.924Z</time></trkpt><trkpt lat="42.1639796" lon="13.5182744"><ele>1356.0</ele><time>2026-03-24T14:37:11.924Z</time></trkpt><trkpt lat="42.1642335" lon="13.5182933"><ele>1356.0</ele><time>2026-03-24T14:37:12.924Z</time></trkpt><trkpt lat="42.1644847" lon="13.5183203"><ele>1356.0</ele><time>2026-03-24T14:37:13.924Z</time></trkpt><trkpt lat="42.1647169" lon="13.5183407"><ele>1356.0</ele><time>2026-03-24T14:37:14.924Z</time></trkpt><trkpt lat="42.164945" lon="13.5183509"><ele>1356.0</ele><time>2026-03-24T14:37:15.925Z</time></trkpt><trkpt lat="42.1651739" lon="13.5183337"><ele>1356.0</ele><time>2026-03-24T14:37:16.925Z</time></trkpt><trkpt lat="42.1654025" lon="13.5182943"><ele>1356.0</ele><time>2026-03-24T14:37:17.925Z</time></trkpt><trkpt lat="42.1656304" lon="13.5182521"><ele>1356.0</ele><time>2026-03-24T14:37:18.924Z</time></trkpt><trkpt lat="42.1658718" lon="13.5181906"><ele>1355.0</ele><time>2026-03-24T14:37:19.925Z</time></trkpt><trkpt lat="42.1661128" lon="13.5181348"><ele>1354.0</ele><time>2026-03-24T14:37:20.925Z</time></trkpt><trkpt lat="42.1663608" lon="13.5180776"><ele>1353.5</ele><time>2026-03-24T14:37:21.924Z</time></trkpt><trkpt lat="42.1666131" lon="13.518019"><ele>1353.0</ele><time>2026-03-24T14:37:22.924Z</time></trkpt><trkpt lat="42.1668693" lon="13.5179612"><ele>1352.0</ele><time>2026-03-24T14:37:23.925Z</time></trkpt><trkpt lat="42.1671245" lon="13.5178993"><ele>1351.0</ele><time>2026-03-24T14:37:24.924Z</time></trkpt><trkpt lat="42.1673864" lon="13.5178384"><ele>1351.0</ele><time>2026-03-24T14:37:25.925Z</time></trkpt><trkpt lat="42.1676502" lon="13.5177725"><ele>1351.0</ele><time>2026-03-24T14:37:26.924Z</time></trkpt><trkpt lat="42.1679161" lon="13.5177071"><ele>1351.0</ele><time>2026-03-24T14:37:27.925Z</time></trkpt><trkpt lat="42.1681852" lon="13.5176408"><ele>1351.0</ele><time>2026-03-24T14:37:28.924Z</time></trkpt><trkpt lat="42.1684532" lon="13.5175761"><ele>1349.0</ele><time>2026-03-24T14:37:29.925Z</time></trkpt><trkpt lat="42.16872" lon="13.5175125"><ele>1347.0</ele><time>2026-03-24T14:37:30.924Z</time></trkpt><trkpt lat="42.1689882" lon="13.5174526"><ele>1349.0</ele><time>2026-03-24T14:37:31.924Z</time></trkpt><trkpt lat="42.1692606" lon="13.5173953"><ele>1351.0</ele><time>2026-03-24T14:37:32.924Z</time></trkpt><trkpt lat="42.1695272" lon="13.5173326"><ele>1351.0</ele><time>2026-03-24T14:37:33.924Z</time></trkpt><trkpt lat="42.1697929" lon="13.517269"><ele>1351.0</ele><time>2026-03-24T14:37:34.925Z</time></trkpt><trkpt lat="42.1700599" lon="13.5172044"><ele>1350.5</ele><time>2026-03-24T14:37:35.924Z</time></trkpt><trkpt lat="42.1703291" lon="13.5171417"><ele>1350.0</ele><time>2026-03-24T14:37:36.925Z</time></trkpt><trkpt lat="42.1705953" lon="13.5170795"><ele>1348.5</ele><time>2026-03-24T14:37:37.925Z</time></trkpt><trkpt lat="42.1708638" lon="13.5170199"><ele>1347.0</ele><time>2026-03-24T14:37:38.924Z</time></trkpt><trkpt lat="42.1711283" lon="13.5169579"><ele>1347.0</ele><time>2026-03-24T14:37:39.925Z</time></trkpt><trkpt lat="42.1713908" lon="13.5168949"><ele>1347.0</ele><time>2026-03-24T14:37:40.924Z</time></trkpt><trkpt lat="42.1716521" lon="13.5168309"><ele>1348.0</ele><time>2026-03-24T14:37:41.924Z</time></trkpt><trkpt lat="42.1719108" lon="13.5167695"><ele>1349.0</ele><time>2026-03-24T14:37:42.924Z</time></trkpt><trkpt lat="42.1721643" lon="13.5167097"><ele>1349.0</ele><time>2026-03-24T14:37:43.924Z</time></trkpt><trkpt lat="42.1724106" lon="13.5166456"><ele>1349.0</ele><time>2026-03-24T14:37:44.925Z</time></trkpt><trkpt lat="42.1726429" lon="13.5165903"><ele>1349.0</ele><time>2026-03-24T14:37:45.924Z</time></trkpt><trkpt lat="42.1728634" lon="13.5165369"><ele>1349.0</ele><time>2026-03-24T14:37:46.925Z</time></trkpt><trkpt lat="42.173071" lon="13.5164865"><ele>1349.0</ele><time>2026-03-24T14:37:47.924Z</time></trkpt><trkpt lat="42.1732643" lon="13.5164436"><ele>1350.0</ele><time>2026-03-24T14:37:48.924Z</time></trkpt><trkpt lat="42.1734383" lon="13.5164049"><ele>1351.0</ele><time>2026-03-24T14:37:49.924Z</time></trkpt><trkpt lat="42.1735942" lon="13.5163698"><ele>1352.0</ele><time>2026-03-24T14:37:50.924Z</time></trkpt><trkpt lat="42.1737351" lon="13.5163338"><ele>1352.0</ele><time>2026-03-24T14:37:51.925Z</time></trkpt><trkpt lat="42.1738624" lon="13.5163025"><ele>1352.0</ele><time>2026-03-24T14:37:52.925Z</time></trkpt><trkpt lat="42.1739707" lon="13.5162851"><ele>1352.0</ele><time>2026-03-24T14:37:53.924Z</time></trkpt><trkpt lat="42.174075" lon="13.5162887"><ele>1352.0</ele><time>2026-03-24T14:37:54.924Z</time></trkpt><trkpt lat="42.1741642" lon="13.5163047"><ele>1352.0</ele><time>2026-03-24T14:37:55.924Z</time></trkpt><trkpt lat="42.1742527" lon="13.5162877"><ele>1352.5</ele><time>2026-03-24T14:37:56.924Z</time></trkpt><trkpt lat="42.1743495" lon="13.5162354"><ele>1353.0</ele><time>2026-03-24T14:37:57.924Z</time></trkpt><trkpt lat="42.1744636" lon="13.516185"><ele>1353.5</ele><time>2026-03-24T14:37:58.924Z</time></trkpt><trkpt lat="42.1745984" lon="13.5161477"><ele>1354.0</ele><time>2026-03-24T14:37:59.924Z</time></trkpt><trkpt lat="42.1747444" lon="13.5160996"><ele>1354.3333333333333</ele><time>2026-03-24T14:38:00.924Z</time></trkpt><trkpt lat="42.1748933" lon="13.5160568"><ele>1354.6666666666667</ele><time>2026-03-24T14:38:01.925Z</time></trkpt><trkpt lat="42.1750514" lon="13.5160182"><ele>1355.0</ele><time>2026-03-24T14:38:02.924Z</time></trkpt><trkpt lat="42.1752121" lon="13.5159748"><ele>1355.0</ele><time>2026-03-24T14:38:03.925Z</time></trkpt><trkpt lat="42.1753794" lon="13.5159387"><ele>1355.0</ele><time>2026-03-24T14:38:04.924Z</time></trkpt><trkpt lat="42.1755507" lon="13.515911"><ele>1355.0</ele><time>2026-03-24T14:38:05.925Z</time></trkpt><trkpt lat="42.1757271" lon="13.5158744"><ele>1355.6666666666667</ele><time>2026-03-24T14:38:06.924Z</time></trkpt><trkpt lat="42.1759006" lon="13.515837"><ele>1356.3333333333333</ele><time>2026-03-24T14:38:07.925Z</time></trkpt><trkpt lat="42.1760807" lon="13.5157934"><ele>1357.0</ele><time>2026-03-24T14:38:08.925Z</time></trkpt><trkpt lat="42.1762578" lon="13.5157514"><ele>1357.0</ele><time>2026-03-24T14:38:09.925Z</time></trkpt><trkpt lat="42.1764254" lon="13.5157146"><ele>1357.0</ele><time>2026-03-24T14:38:10.924Z</time></trkpt><trkpt lat="42.1765825" lon="13.5156804"><ele>1357.0</ele><time>2026-03-24T14:38:11.925Z</time></trkpt><trkpt lat="42.1767294" lon="13.5156614"><ele>1358.25</ele><time>2026-03-24T14:38:12.924Z</time></trkpt><trkpt lat="42.1768618" lon="13.5156655"><ele>1359.5</ele><time>2026-03-24T14:38:13.925Z</time></trkpt><trkpt lat="42.1769975" lon="13.5156906"><ele>1360.75</ele><time>2026-03-24T14:38:14.925Z</time></trkpt><trkpt lat="42.1771309" lon="13.5157463"><ele>1362.0</ele><time>2026-03-24T14:38:15.925Z</time></trkpt><trkpt lat="42.1772588" lon="13.5158232"><ele>1362.25</ele><time>2026-03-24T14:38:16.924Z</time></trkpt><trkpt lat="42.1773831" lon="13.5159064"><ele>1362.5</ele><time>2026-03-24T14:38:17.924Z</time></trkpt><trkpt lat="42.1775056" lon="13.5159994"><ele>1362.75</ele><time>2026-03-24T14:38:18.924Z</time></trkpt><trkpt lat="42.1776279" lon="13.5160942"><ele>1363.0</ele><time>2026-03-24T14:38:19.924Z</time></trkpt><trkpt lat="42.1777497" lon="13.5162007"><ele>1367.6666666666665</ele><time>2026-03-24T14:38:20.924Z</time></trkpt><trkpt lat="42.1778781" lon="13.5163075"><ele>1372.3333333333333</ele><time>2026-03-24T14:38:21.924Z</time></trkpt><trkpt lat="42.1780127" lon="13.5164239"><ele>1377.0</ele><time>2026-03-24T14:38:22.925Z</time></trkpt><trkpt lat="42.1781599" lon="13.5165267"><ele>1370.0</ele><time>2026-03-24T14:38:23.925Z</time></trkpt><trkpt lat="42.1783147" lon="13.5166063"><ele>1363.0</ele><time>2026-03-24T14:38:24.925Z</time></trkpt><trkpt lat="42.1784801" lon="13.5166647"><ele>1356.0</ele><time>2026-03-24T14:38:25.925Z</time></trkpt><trkpt lat="42.1786383" lon="13.5166933"><ele>1356.0</ele><time>2026-03-24T14:38:26.924Z</time></trkpt><trkpt lat="42.1787847" lon="13.5166994"><ele>1356.0</ele><time>2026-03-24T14:38:27.924Z</time></trkpt><trkpt lat="42.1789102" lon="13.5166758"><ele>1356.0</ele><time>2026-03-24T14:38:28.924Z</time></trkpt><trkpt lat="42.1790133" lon="13.5166152"><ele>1356.0</ele><time>2026-03-24T14:38:29.924Z</time></trkpt><trkpt lat="42.1790926" lon="13.5165055"><ele>1355.5</ele><time>2026-03-24T14:38:30.925Z</time></trkpt><trkpt lat="42.1791537" lon="13.5163485"><ele>1355.0</ele><time>2026-03-24T14:38:31.925Z</time></trkpt><trkpt lat="42.1791979" lon="13.5161554"><ele>1354.5</ele><time>2026-03-24T14:38:32.924Z</time></trkpt><trkpt lat="42.1792461" lon="13.5159477"><ele>1354.0</ele><time>2026-03-24T14:38:33.924Z</time></trkpt><trkpt lat="42.179294" lon="13.5157508"><ele>1354.0</ele><time>2026-03-24T14:38:34.925Z</time></trkpt><trkpt lat="42.1793358" lon="13.5155601"><ele>1354.0</ele><time>2026-03-24T14:38:35.925Z</time></trkpt><trkpt lat="42.1793774" lon="13.5153799"><ele>1354.0</ele><time>2026-03-24T14:38:36.924Z</time></trkpt><trkpt lat="42.1794147" lon="13.5152091"><ele>1354.0</ele><time>2026-03-24T14:38:37.924Z</time></trkpt><trkpt lat="42.1794527" lon="13.5150501"><ele>1353.8000000000002</ele><time>2026-03-24T14:38:38.925Z</time></trkpt><trkpt lat="42.1794987" lon="13.5149159"><ele>1353.6000000000001</ele><time>2026-03-24T14:38:39.924Z</time></trkpt><trkpt lat="42.1795613" lon="13.5148108"><ele>1353.4</ele><time>2026-03-24T14:38:40.925Z</time></trkpt><trkpt lat="42.1796405" lon="13.5147397"><ele>1353.2</ele><time>2026-03-24T14:38:41.924Z</time></trkpt><trkpt lat="42.1797465" lon="13.5147121"><ele>1353.0</ele><time>2026-03-24T14:38:42.924Z</time></trkpt><trkpt lat="42.1798678" lon="13.5147295"><ele>1348.6666666666667</ele><time>2026-03-24T14:38:43.924Z</time></trkpt><trkpt lat="42.1800037" lon="13.5147892"><ele>1344.3333333333335</ele><time>2026-03-24T14:38:44.924Z</time></trkpt><trkpt lat="42.1801403" lon="13.514874"><ele>1340.0</ele><time>2026-03-24T14:38:45.925Z</time></trkpt><trkpt lat="42.1802835" lon="13.5149667"><ele>1340.0</ele><time>2026-03-24T14:38:46.924Z</time></trkpt><trkpt lat="42.1804278" lon="13.5150531"><ele>1340.0</ele><time>2026-03-24T14:38:47.924Z</time></trkpt><trkpt lat="42.1805705" lon="13.5151401"><ele>1340.0</ele><time>2026-03-24T14:38:48.925Z</time></trkpt><trkpt lat="42.1807075" lon="13.5152176"><ele>1339.0</ele><time>2026-03-24T14:38:49.924Z</time></trkpt><trkpt lat="42.1808454" lon="13.5152781"><ele>1338.0</ele><time>2026-03-24T14:38:50.925Z</time></trkpt><trkpt lat="42.1809819" lon="13.5153156"><ele>1337.0</ele><time>2026-03-24T14:38:51.924Z</time></trkpt><trkpt lat="42.1811144" lon="13.5153159"><ele>1336.0</ele><time>2026-03-24T14:38:52.925Z</time></trkpt><trkpt lat="42.1812406" lon="13.5152679"><ele>1336.0</ele><time>2026-03-24T14:38:53.925Z</time></trkpt><trkpt lat="42.1813575" lon="13.5151601"><ele>1336.0</ele><time>2026-03-24T14:38:54.924Z</time></trkpt><trkpt lat="42.1814754" lon="13.515028"><ele>1336.0</ele><time>2026-03-24T14:38:55.925Z</time></trkpt><trkpt lat="42.1815984" lon="13.5148794"><ele>1335.6666666666665</ele><time>2026-03-24T14:38:56.925Z</time></trkpt><trkpt lat="42.1817341" lon="13.5147391"><ele>1335.3333333333333</ele><time>2026-03-24T14:38:57.924Z</time></trkpt><trkpt lat="42.1818754" lon="13.5146074"><ele>1335.0</ele><time>2026-03-24T14:38:58.924Z</time></trkpt><trkpt lat="42.182028" lon="13.514489"><ele>1335.0</ele><time>2026-03-24T14:38:59.924Z</time></trkpt><trkpt lat="42.1821842" lon="13.5144008"><ele>1335.0</ele><time>2026-03-24T14:39:00.924Z</time></trkpt><trkpt lat="42.1823511" lon="13.5143355"><ele>1335.0</ele><time>2026-03-24T14:39:01.924Z</time></trkpt><trkpt lat="42.1825229" lon="13.5142811"><ele>1332.6666666666667</ele><time>2026-03-24T14:39:02.924Z</time></trkpt><trkpt lat="42.182699" lon="13.5142487"><ele>1330.3333333333335</ele><time>2026-03-24T14:39:03.924Z</time></trkpt><trkpt lat="42.1828877" lon="13.5142363"><ele>1328.0</ele><time>2026-03-24T14:39:04.924Z</time></trkpt><trkpt lat="42.1830977" lon="13.5142381"><ele>1327.0</ele><time>2026-03-24T14:39:05.924Z</time></trkpt><trkpt lat="42.1833268" lon="13.5142635"><ele>1326.0</ele><time>2026-03-24T14:39:06.924Z</time></trkpt><trkpt lat="42.1835737" lon="13.5143052"><ele>1326.0</ele><time>2026-03-24T14:39:07.924Z</time></trkpt><trkpt lat="42.1838316" lon="13.5143648"><ele>1326.0</ele><time>2026-03-24T14:39:08.925Z</time></trkpt><trkpt lat="42.1840911" lon="13.5144245"><ele>1324.0</ele><time>2026-03-24T14:39:09.924Z</time></trkpt><trkpt lat="42.1843519" lon="13.5144887"><ele>1322.0</ele><time>2026-03-24T14:39:10.924Z</time></trkpt><trkpt lat="42.184618" lon="13.5145498"><ele>1320.0</ele><time>2026-03-24T14:39:11.925Z</time></trkpt><trkpt lat="42.1848863" lon="13.5146076"><ele>1318.0</ele><time>2026-03-24T14:39:12.925Z</time></trkpt><trkpt lat="42.1851562" lon="13.5146617"><ele>1318.0</ele><time>2026-03-24T14:39:13.924Z</time></trkpt><trkpt lat="42.1854254" lon="13.5147204"><ele>1318.0</ele><time>2026-03-24T14:39:14.924Z</time></trkpt><trkpt lat="42.1856914" lon="13.5147794"><ele>1319.0</ele><time>2026-03-24T14:39:15.925Z</time></trkpt><trkpt lat="42.1859551" lon="13.5148287"><ele>1320.0</ele><time>2026-03-24T14:39:16.924Z</time></trkpt><trkpt lat="42.1862118" lon="13.5148666"><ele>1320.0</ele><time>2026-03-24T14:39:17.925Z</time></trkpt><trkpt lat="42.1864612" lon="13.5149016"><ele>1320.0</ele><time>2026-03-24T14:39:18.924Z</time></trkpt><trkpt lat="42.1866889" lon="13.514927"><ele>1319.0</ele><time>2026-03-24T14:39:19.924Z</time></trkpt><trkpt lat="42.18689" lon="13.5149517"><ele>1318.0</ele><time>2026-03-24T14:39:20.925Z</time></trkpt><trkpt lat="42.187067" lon="13.5149841"><ele>1317.0</ele><time>2026-03-24T14:39:21.924Z</time></trkpt><trkpt lat="42.187221" lon="13.5150451"><ele>1316.3333333333333</ele><time>2026-03-24T14:39:22.925Z</time></trkpt><trkpt lat="42.1873581" lon="13.5151526"><ele>1315.6666666666665</ele><time>2026-03-24T14:39:23.924Z</time></trkpt><trkpt lat="42.1874697" lon="13.5153117"><ele>1315.0</ele><time>2026-03-24T14:39:24.925Z</time></trkpt><trkpt lat="42.1875742" lon="13.5155079"><ele>1314.3333333333333</ele><time>2026-03-24T14:39:25.924Z</time></trkpt><trkpt lat="42.1876787" lon="13.5157251"><ele>1313.6666666666667</ele><time>2026-03-24T14:39:26.924Z</time></trkpt><trkpt lat="42.1877908" lon="13.5159514"><ele>1313.0</ele><time>2026-03-24T14:39:27.925Z</time></trkpt><trkpt lat="42.1879054" lon="13.5161846"><ele>1313.0</ele><time>2026-03-24T14:39:28.925Z</time></trkpt><trkpt lat="42.188024" lon="13.516426"><ele>1313.0</ele><time>2026-03-24T14:39:29.925Z</time></trkpt><trkpt lat="42.1881499" lon="13.5166755"><ele>1313.0</ele><time>2026-03-24T14:39:30.924Z</time></trkpt><trkpt lat="42.1882789" lon="13.5169328"><ele>1311.5</ele><time>2026-03-24T14:39:31.924Z</time></trkpt><trkpt lat="42.1884055" lon="13.5171864"><ele>1310.0</ele><time>2026-03-24T14:39:32.925Z</time></trkpt><trkpt lat="42.1885365" lon="13.5174446"><ele>1310.0</ele><time>2026-03-24T14:39:33.925Z</time></trkpt><trkpt lat="42.1886612" lon="13.5177108"><ele>1310.0</ele><time>2026-03-24T14:39:34.924Z</time></trkpt><trkpt lat="42.1887932" lon="13.5179805"><ele>1310.0</ele><time>2026-03-24T14:39:35.925Z</time></trkpt><trkpt lat="42.1889245" lon="13.5182519"><ele>1310.0</ele><time>2026-03-24T14:39:36.924Z</time></trkpt><trkpt lat="42.1890603" lon="13.5185233"><ele>1310.0</ele><time>2026-03-24T14:39:37.924Z</time></trkpt><trkpt lat="42.1891985" lon="13.5187954"><ele>1310.0</ele><time>2026-03-24T14:39:38.925Z</time></trkpt><trkpt lat="42.189339" lon="13.5190692"><ele>1310.0</ele><time>2026-03-24T14:39:39.924Z</time></trkpt><trkpt lat="42.189478" lon="13.5193519"><ele>1310.0</ele><time>2026-03-24T14:39:40.925Z</time></trkpt><trkpt lat="42.1896132" lon="13.5196212"><ele>1309.0</ele><time>2026-03-24T14:39:41.924Z</time></trkpt><trkpt lat="42.1897438" lon="13.5198802"><ele>1308.0</ele><time>2026-03-24T14:39:42.925Z</time></trkpt><trkpt lat="42.1898673" lon="13.5201218"><ele>1308.0</ele><time>2026-03-24T14:39:43.925Z</time></trkpt><trkpt lat="42.1899933" lon="13.5203434"><ele>1308.0</ele><time>2026-03-24T14:39:44.925Z</time></trkpt><trkpt lat="42.1901354" lon="13.5205514"><ele>1308.0</ele><time>2026-03-24T14:39:45.924Z</time></trkpt><trkpt lat="42.1903" lon="13.5207386"><ele>1306.0</ele><time>2026-03-24T14:39:46.924Z</time></trkpt><trkpt lat="42.1904859" lon="13.5209173"><ele>1304.0</ele><time>2026-03-24T14:39:47.924Z</time></trkpt><trkpt lat="42.190691" lon="13.5210707"><ele>1304.0</ele><time>2026-03-24T14:39:48.924Z</time></trkpt><trkpt lat="42.1909087" lon="13.5212079"><ele>1304.0</ele><time>2026-03-24T14:39:49.924Z</time></trkpt><trkpt lat="42.1911406" lon="13.5213211"><ele>1304.0</ele><time>2026-03-24T14:39:50.924Z</time></trkpt><trkpt lat="42.1913825" lon="13.521418"><ele>1304.0</ele><time>2026-03-24T14:39:51.925Z</time></trkpt><trkpt lat="42.1916369" lon="13.5214842"><ele>1304.5</ele><time>2026-03-24T14:39:52.924Z</time></trkpt><trkpt lat="42.19189" lon="13.5215281"><ele>1305.0</ele><time>2026-03-24T14:39:53.925Z</time></trkpt><trkpt lat="42.1921393" lon="13.5215395"><ele>1303.0</ele><time>2026-03-24T14:39:54.925Z</time></trkpt><trkpt lat="42.1923871" lon="13.5215203"><ele>1301.0</ele><time>2026-03-24T14:39:55.925Z</time></trkpt><trkpt lat="42.1926407" lon="13.5214764"><ele>1301.0</ele><time>2026-03-24T14:39:56.925Z</time></trkpt><trkpt lat="42.1929002" lon="13.521419"><ele>1301.0</ele><time>2026-03-24T14:39:57.924Z</time></trkpt><trkpt lat="42.1931657" lon="13.5213576"><ele>1298.5</ele><time>2026-03-24T14:39:58.924Z</time></trkpt><trkpt lat="42.1934335" lon="13.5212972"><ele>1296.0</ele><time>2026-03-24T14:39:59.924Z</time></trkpt><trkpt lat="42.1936952" lon="13.5212436"><ele>1295.5</ele><time>2026-03-24T14:40:00.924Z</time></trkpt><trkpt lat="42.1939493" lon="13.5211865"><ele>1295.0</ele><time>2026-03-24T14:40:01.924Z</time></trkpt><trkpt lat="42.1941937" lon="13.5211302"><ele>1294.0</ele><time>2026-03-24T14:40:02.925Z</time></trkpt><trkpt lat="42.1944313" lon="13.5210791"><ele>1293.0</ele><time>2026-03-24T14:40:03.925Z</time></trkpt><trkpt lat="42.1946648" lon="13.5210305"><ele>1292.0</ele><time>2026-03-24T14:40:04.924Z</time></trkpt><trkpt lat="42.1948983" lon="13.5209838"><ele>1291.0</ele><time>2026-03-24T14:40:05.924Z</time></trkpt><trkpt lat="42.1951321" lon="13.5209316"><ele>1291.0</ele><time>2026-03-24T14:40:06.924Z</time></trkpt><trkpt lat="42.1953694" lon="13.520875"><ele>1291.0</ele><time>2026-03-24T14:40:07.925Z</time></trkpt><trkpt lat="42.1956087" lon="13.5208207"><ele>1289.0</ele><time>2026-03-24T14:40:08.924Z</time></trkpt><trkpt lat="42.1958526" lon="13.5207681"><ele>1287.0</ele><time>2026-03-24T14:40:09.924Z</time></trkpt><trkpt lat="42.1960999" lon="13.5207167"><ele>1287.0</ele><time>2026-03-24T14:40:10.925Z</time></trkpt><trkpt lat="42.1963474" lon="13.5206669"><ele>1287.0</ele><time>2026-03-24T14:40:11.925Z</time></trkpt><trkpt lat="42.1965966" lon="13.5206089"><ele>1286.0</ele><time>2026-03-24T14:40:12.925Z</time></trkpt><trkpt lat="42.1968485" lon="13.5205505"><ele>1285.0</ele><time>2026-03-24T14:40:13.925Z</time></trkpt><trkpt lat="42.1971019" lon="13.5204911"><ele>1284.0</ele><time>2026-03-24T14:40:14.924Z</time></trkpt><trkpt lat="42.197352" lon="13.5204385"><ele>1283.0</ele><time>2026-03-24T14:40:15.925Z</time></trkpt><trkpt lat="42.1976062" lon="13.5203849"><ele>1283.0</ele><time>2026-03-24T14:40:16.925Z</time></trkpt><trkpt lat="42.1978587" lon="13.5203335"><ele>1283.0</ele><time>2026-03-24T14:40:17.925Z</time></trkpt><trkpt lat="42.1981128" lon="13.5202792"><ele>1282.0</ele><time>2026-03-24T14:40:18.925Z</time></trkpt><trkpt lat="42.1983661" lon="13.5202252"><ele>1281.0</ele><time>2026-03-24T14:40:19.924Z</time></trkpt><trkpt lat="42.1986193" lon="13.5201721"><ele>1281.0</ele><time>2026-03-24T14:40:20.924Z</time></trkpt><trkpt lat="42.1988748" lon="13.5201173"><ele>1281.0</ele><time>2026-03-24T14:40:21.925Z</time></trkpt><trkpt lat="42.1991222" lon="13.5200624"><ele>1281.5</ele><time>2026-03-24T14:40:22.924Z</time></trkpt><trkpt lat="42.1993634" lon="13.5200132"><ele>1282.0</ele><time>2026-03-24T14:40:23.924Z</time></trkpt><trkpt lat="42.1995948" lon="13.5199696"><ele>1282.0</ele><time>2026-03-24T14:40:24.924Z</time></trkpt><trkpt lat="42.1998145" lon="13.5199208"><ele>1282.0</ele><time>2026-03-24T14:40:25.925Z</time></trkpt><trkpt lat="42.2000006" lon="13.5198859"><ele>1282.0</ele><time>2026-03-24T14:40:26.924Z</time></trkpt><trkpt lat="42.2001723" lon="13.5198501"><ele>1282.25</ele><time>2026-03-24T14:40:27.924Z</time></trkpt><trkpt lat="42.2003277" lon="13.5198162"><ele>1282.5</ele><time>2026-03-24T14:40:28.924Z</time></trkpt><trkpt lat="42.2004694" lon="13.5197829"><ele>1282.75</ele><time>2026-03-24T14:40:29.924Z</time></trkpt><trkpt lat="42.200595" lon="13.5197581"><ele>1283.0</ele><time>2026-03-24T14:40:30.924Z</time></trkpt><trkpt lat="42.2006965" lon="13.5197662"><ele>1283.0</ele><time>2026-03-24T14:40:31.924Z</time></trkpt><trkpt lat="42.2007763" lon="13.5197789"><ele>1283.0</ele><time>2026-03-24T14:40:32.924Z</time></trkpt><trkpt lat="42.2008547" lon="13.5197878"><ele>1283.0</ele><time>2026-03-24T14:40:33.924Z</time></trkpt><trkpt lat="42.2009267" lon="13.5197601"><ele>1283.0</ele><time>2026-03-24T14:40:34.924Z</time></trkpt><trkpt lat="42.2010081" lon="13.5197153"><ele>1283.0</ele><time>2026-03-24T14:40:35.924Z</time></trkpt><trkpt lat="42.2011058" lon="13.5196687"><ele>1283.0</ele><time>2026-03-24T14:40:36.924Z</time></trkpt><trkpt lat="42.2012243" lon="13.5196304"><ele>1283.0</ele><time>2026-03-24T14:40:37.925Z</time></trkpt><trkpt lat="42.2013585" lon="13.5195885"><ele>1283.0</ele><time>2026-03-24T14:40:38.924Z</time></trkpt><trkpt lat="42.201518" lon="13.5195663"><ele>1283.0</ele><time>2026-03-24T14:40:39.924Z</time></trkpt><trkpt lat="42.201666" lon="13.5195191"><ele>1282.6666666666667</ele><time>2026-03-24T14:40:40.924Z</time></trkpt><trkpt lat="42.2018303" lon="13.5194888"><ele>1282.3333333333333</ele><time>2026-03-24T14:40:41.925Z</time></trkpt><trkpt lat="42.2019929" lon="13.5194517"><ele>1282.0</ele><time>2026-03-24T14:40:42.925Z</time></trkpt><trkpt lat="42.2021671" lon="13.5194191"><ele>1281.6666666666665</ele><time>2026-03-24T14:40:43.925Z</time></trkpt><trkpt lat="42.202338" lon="13.5193776"><ele>1281.3333333333333</ele><time>2026-03-24T14:40:44.925Z</time></trkpt><trkpt lat="42.2025078" lon="13.5193338"><ele>1281.0</ele><time>2026-03-24T14:40:45.924Z</time></trkpt><trkpt lat="42.2026798" lon="13.5192959"><ele>1281.0</ele><time>2026-03-24T14:40:46.925Z</time></trkpt><trkpt lat="42.2028517" lon="13.5192625"><ele>1281.0</ele><time>2026-03-24T14:40:47.924Z</time></trkpt><trkpt lat="42.2030232" lon="13.5192268"><ele>1281.0</ele><time>2026-03-24T14:40:48.925Z</time></trkpt><trkpt lat="42.2031923" lon="13.5191887"><ele>1281.3333333333333</ele><time>2026-03-24T14:40:49.924Z</time></trkpt><trkpt lat="42.2033625" lon="13.5191532"><ele>1281.6666666666665</ele><time>2026-03-24T14:40:50.924Z</time></trkpt><trkpt lat="42.2035323" lon="13.5191165"><ele>1282.0</ele><time>2026-03-24T14:40:51.925Z</time></trkpt><trkpt lat="42.2037023" lon="13.5190778"><ele>1282.0</ele><time>2026-03-24T14:40:52.924Z</time></trkpt><trkpt lat="42.2038644" lon="13.5190443"><ele>1282.0</ele><time>2026-03-24T14:40:53.924Z</time></trkpt><trkpt lat="42.2040187" lon="13.51901"><ele>1282.0</ele><time>2026-03-24T14:40:54.924Z</time></trkpt><trkpt lat="42.2041634" lon="13.5189744"><ele>1282.5</ele><time>2026-03-24T14:40:55.924Z</time></trkpt><trkpt lat="42.2043013" lon="13.5189443"><ele>1283.0</ele><time>2026-03-24T14:40:56.924Z</time></trkpt><trkpt lat="42.2044321" lon="13.5189176"><ele>1283.5</ele><time>2026-03-24T14:40:57.924Z</time></trkpt><trkpt lat="42.2045524" lon="13.5188938"><ele>1284.0</ele><time>2026-03-24T14:40:58.924Z</time></trkpt><trkpt lat="42.2046628" lon="13.5188688"><ele>1284.0</ele><time>2026-03-24T14:40:59.925Z</time></trkpt><trkpt lat="42.2047688" lon="13.5188587"><ele>1284.0</ele><time>2026-03-24T14:41:00.925Z</time></trkpt><trkpt lat="42.2048673" lon="13.5188381"><ele>1284.0</ele><time>2026-03-24T14:41:01.924Z</time></trkpt><trkpt lat="42.2049635" lon="13.5188129"><ele>1284.0</ele><time>2026-03-24T14:41:02.924Z</time></trkpt><trkpt lat="42.2050612" lon="13.5187841"><ele>1284.0</ele><time>2026-03-24T14:41:03.924Z</time></trkpt><trkpt lat="42.2051627" lon="13.5187622"><ele>1283.8000000000002</ele><time>2026-03-24T14:41:04.924Z</time></trkpt><trkpt lat="42.2052598" lon="13.5187408"><ele>1283.6000000000001</ele><time>2026-03-24T14:41:05.924Z</time></trkpt><trkpt lat="42.2053659" lon="13.5187236"><ele>1283.4</ele><time>2026-03-24T14:41:06.924Z</time></trkpt><trkpt lat="42.2054717" lon="13.5186972"><ele>1283.2</ele><time>2026-03-24T14:41:07.924Z</time></trkpt><trkpt lat="42.2055825" lon="13.5186745"><ele>1283.0</ele><time>2026-03-24T14:41:08.924Z</time></trkpt><trkpt lat="42.2056929" lon="13.5186522"><ele>1282.75</ele><time>2026-03-24T14:41:09.924Z</time></trkpt><trkpt lat="42.2058033" lon="13.5186232"><ele>1282.5</ele><time>2026-03-24T14:41:10.924Z</time></trkpt><trkpt lat="42.2059145" lon="13.5185937"><ele>1282.25</ele><time>2026-03-24T14:41:11.924Z</time></trkpt><trkpt lat="42.2060582" lon="13.5185495"><ele>1282.0</ele><time>2026-03-24T14:41:12.925Z</time></trkpt><trkpt lat="42.2061966" lon="13.5185102"><ele>1282.0</ele><time>2026-03-24T14:41:13.925Z</time></trkpt><trkpt lat="42.2063539" lon="13.5184933"><ele>1282.0</ele><time>2026-03-24T14:41:14.924Z</time></trkpt><trkpt lat="42.2065003" lon="13.5184604"><ele>1282.0</ele><time>2026-03-24T14:41:15.925Z</time></trkpt><trkpt lat="42.2066514" lon="13.5184256"><ele>1281.6666666666665</ele><time>2026-03-24T14:41:16.924Z</time></trkpt><trkpt lat="42.2068092" lon="13.5183926"><ele>1281.3333333333333</ele><time>2026-03-24T14:41:17.924Z</time></trkpt><trkpt lat="42.2069651" lon="13.5183565"><ele>1281.0</ele><time>2026-03-24T14:41:18.924Z</time></trkpt><trkpt lat="42.2071174" lon="13.518322"><ele>1281.0</ele><time>2026-03-24T14:41:19.924Z</time></trkpt><trkpt lat="42.2072719" lon="13.518289"><ele>1281.0</ele><time>2026-03-24T14:41:20.924Z</time></trkpt><trkpt lat="42.2074331" lon="13.5182592"><ele>1281.0</ele><time>2026-03-24T14:41:21.925Z</time></trkpt><trkpt lat="42.2075917" lon="13.5182269"><ele>1280.3333333333333</ele><time>2026-03-24T14:41:22.925Z</time></trkpt><trkpt lat="42.207751" lon="13.5181926"><ele>1279.6666666666665</ele><time>2026-03-24T14:41:23.924Z</time></trkpt><trkpt lat="42.2079083" lon="13.5181518"><ele>1279.0</ele><time>2026-03-24T14:41:24.924Z</time></trkpt><trkpt lat="42.2080691" lon="13.5181158"><ele>1279.0</ele><time>2026-03-24T14:41:25.925Z</time></trkpt><trkpt lat="42.2082217" lon="13.5180905"><ele>1279.0</ele><time>2026-03-24T14:41:26.924Z</time></trkpt><trkpt lat="42.2083697" lon="13.518052"><ele>1279.0</ele><time>2026-03-24T14:41:27.924Z</time></trkpt><trkpt lat="42.2085138" lon="13.5180198"><ele>1279.0</ele><time>2026-03-24T14:41:28.924Z</time></trkpt><trkpt lat="42.2086576" lon="13.5179896"><ele>1279.0</ele><time>2026-03-24T14:41:29.924Z</time></trkpt><trkpt lat="42.2088026" lon="13.5179598"><ele>1279.0</ele><time>2026-03-24T14:41:30.924Z</time></trkpt><trkpt lat="42.2089465" lon="13.5179286"><ele>1279.0</ele><time>2026-03-24T14:41:31.924Z</time></trkpt><trkpt lat="42.2090889" lon="13.5178946"><ele>1279.75</ele><time>2026-03-24T14:41:32.924Z</time></trkpt><trkpt lat="42.2092391" lon="13.5178734"><ele>1280.5</ele><time>2026-03-24T14:41:33.924Z</time></trkpt><trkpt lat="42.209373" lon="13.5178436"><ele>1281.25</ele><time>2026-03-24T14:41:34.924Z</time></trkpt><trkpt lat="42.2094986" lon="13.5178133"><ele>1282.0</ele><time>2026-03-24T14:41:35.924Z</time></trkpt><trkpt lat="42.2096143" lon="13.5178129"><ele>1282.0</ele><time>2026-03-24T14:41:36.925Z</time></trkpt><trkpt lat="42.209722" lon="13.5178388"><ele>1282.0</ele><time>2026-03-24T14:41:37.924Z</time></trkpt><trkpt lat="42.2098351" lon="13.5178855"><ele>1282.0</ele><time>2026-03-24T14:41:38.924Z</time></trkpt><trkpt lat="42.2099557" lon="13.5179562"><ele>1282.0</ele><time>2026-03-24T14:41:39.925Z</time></trkpt><trkpt lat="42.2100861" lon="13.5180413"><ele>1281.6666666666665</ele><time>2026-03-24T14:41:40.925Z</time></trkpt><trkpt lat="42.2102236" lon="13.518147"><ele>1281.3333333333333</ele><time>2026-03-24T14:41:41.924Z</time></trkpt><trkpt lat="42.210358" lon="13.5182645"><ele>1281.0</ele><time>2026-03-24T14:41:42.924Z</time></trkpt><trkpt lat="42.2104953" lon="13.5183849"><ele>1281.0</ele><time>2026-03-24T14:41:43.924Z</time></trkpt><trkpt lat="42.2106249" lon="13.5185142"><ele>1281.0</ele><time>2026-03-24T14:41:44.924Z</time></trkpt><trkpt lat="42.2107473" lon="13.5186556"><ele>1281.0</ele><time>2026-03-24T14:41:45.924Z</time></trkpt><trkpt lat="42.21086" lon="13.5188255"><ele>1278.6666666666667</ele><time>2026-03-24T14:41:46.924Z</time></trkpt><trkpt lat="42.210963" lon="13.5190187"><ele>1276.3333333333335</ele><time>2026-03-24T14:41:47.925Z</time></trkpt><trkpt lat="42.2110508" lon="13.5192349"><ele>1274.0</ele><time>2026-03-24T14:41:48.925Z</time></trkpt><trkpt lat="42.2111232" lon="13.5194812"><ele>1273.0</ele><time>2026-03-24T14:41:49.924Z</time></trkpt><trkpt lat="42.211184" lon="13.5197495"><ele>1272.0</ele><time>2026-03-24T14:41:50.925Z</time></trkpt><trkpt lat="42.2112414" lon="13.5200319"><ele>1271.0</ele><time>2026-03-24T14:41:51.924Z</time></trkpt><trkpt lat="42.2113047" lon="13.5203181"><ele>1270.5</ele><time>2026-03-24T14:41:52.924Z</time></trkpt><trkpt lat="42.2113698" lon="13.5206094"><ele>1270.0</ele><time>2026-03-24T14:41:53.924Z</time></trkpt><trkpt lat="42.211435" lon="13.5209129"><ele>1269.5</ele><time>2026-03-24T14:41:54.924Z</time></trkpt><trkpt lat="42.2114997" lon="13.521217"><ele>1269.0</ele><time>2026-03-24T14:41:55.925Z</time></trkpt><trkpt lat="42.211567" lon="13.5215193"><ele>1269.0</ele><time>2026-03-24T14:41:56.924Z</time></trkpt><trkpt lat="42.2116351" lon="13.5218116"><ele>1269.0</ele><time>2026-03-24T14:41:57.925Z</time></trkpt><trkpt lat="42.211701" lon="13.5221007"><ele>1270.3333333333333</ele><time>2026-03-24T14:41:58.924Z</time></trkpt><trkpt lat="42.2117726" lon="13.5223841"><ele>1271.6666666666665</ele><time>2026-03-24T14:41:59.925Z</time></trkpt><trkpt lat="42.2118617" lon="13.5226574"><ele>1273.0</ele><time>2026-03-24T14:42:00.924Z</time></trkpt><trkpt lat="42.2119731" lon="13.522922"><ele>1278.5</ele><time>2026-03-24T14:42:01.924Z</time></trkpt><trkpt lat="42.2121045" lon="13.5231751"><ele>1284.0</ele><time>2026-03-24T14:42:02.925Z</time></trkpt><trkpt lat="42.2122462" lon="13.523426"><ele>1278.5</ele><time>2026-03-24T14:42:03.924Z</time></trkpt><trkpt lat="42.2123946" lon="13.523675"><ele>1273.0</ele><time>2026-03-24T14:42:04.925Z</time></trkpt><trkpt lat="42.2125487" lon="13.5239222"><ele>1273.0</ele><time>2026-03-24T14:42:05.924Z</time></trkpt><trkpt lat="42.2127036" lon="13.5241795"><ele>1273.0</ele><time>2026-03-24T14:42:06.924Z</time></trkpt><trkpt lat="42.2128586" lon="13.5244269"><ele>1275.0</ele><time>2026-03-24T14:42:07.925Z</time></trkpt><trkpt lat="42.2130093" lon="13.5246731"><ele>1277.0</ele><time>2026-03-24T14:42:08.925Z</time></trkpt><trkpt lat="42.2131549" lon="13.5249153"><ele>1275.0</ele><time>2026-03-24T14:42:09.924Z</time></trkpt><trkpt lat="42.2132895" lon="13.5251631"><ele>1273.0</ele><time>2026-03-24T14:42:10.925Z</time></trkpt><trkpt lat="42.2134145" lon="13.5254194"><ele>1273.0</ele><time>2026-03-24T14:42:11.924Z</time></trkpt><trkpt lat="42.2135361" lon="13.5256743"><ele>1273.0</ele><time>2026-03-24T14:42:12.924Z</time></trkpt><trkpt lat="42.2136149" lon="13.5259666"><ele>1271.5</ele><time>2026-03-24T14:42:13.925Z</time></trkpt><trkpt lat="42.2136824" lon="13.5262598"><ele>1270.0</ele><time>2026-03-24T14:42:14.924Z</time></trkpt><trkpt lat="42.2137296" lon="13.5265625"><ele>1270.0</ele><time>2026-03-24T14:42:15.925Z</time></trkpt><trkpt lat="42.2137674" lon="13.5268652"><ele>1270.0</ele><time>2026-03-24T14:42:16.924Z</time></trkpt><trkpt lat="42.213803" lon="13.5271496"><ele>1270.0</ele><time>2026-03-24T14:42:17.925Z</time></trkpt><trkpt lat="42.2138455" lon="13.527412"><ele>1269.3333333333333</ele><time>2026-03-24T14:42:18.924Z</time></trkpt><trkpt lat="42.2139073" lon="13.5276553"><ele>1268.6666666666667</ele><time>2026-03-24T14:42:19.924Z</time></trkpt><trkpt lat="42.214004" lon="13.5278828"><ele>1268.0</ele><time>2026-03-24T14:42:20.924Z</time></trkpt><trkpt lat="42.2141323" lon="13.5280816"><ele>1268.0</ele><time>2026-03-24T14:42:21.925Z</time></trkpt><trkpt lat="42.2142877" lon="13.528264"><ele>1268.0</ele><time>2026-03-24T14:42:22.924Z</time></trkpt><trkpt lat="42.214456" lon="13.5284456"><ele>1268.0</ele><time>2026-03-24T14:42:23.924Z</time></trkpt><trkpt lat="42.2146379" lon="13.5286329"><ele>1267.5</ele><time>2026-03-24T14:42:24.925Z</time></trkpt><trkpt lat="42.2148247" lon="13.528826"><ele>1267.0</ele><time>2026-03-24T14:42:25.924Z</time></trkpt><trkpt lat="42.2150171" lon="13.5290193"><ele>1267.0</ele><time>2026-03-24T14:42:26.924Z</time></trkpt><trkpt lat="42.21522" lon="13.5292097"><ele>1267.0</ele><time>2026-03-24T14:42:27.924Z</time></trkpt><trkpt lat="42.2154348" lon="13.529393"><ele>1266.0</ele><time>2026-03-24T14:42:28.924Z</time></trkpt><trkpt lat="42.2156619" lon="13.529563"><ele>1265.0</ele><time>2026-03-24T14:42:29.924Z</time></trkpt><trkpt lat="42.2158987" lon="13.5297302"><ele>1265.0</ele><time>2026-03-24T14:42:30.924Z</time></trkpt><trkpt lat="42.2161387" lon="13.5298947"><ele>1265.0</ele><time>2026-03-24T14:42:31.924Z</time></trkpt><trkpt lat="42.2163816" lon="13.5300644"><ele>1264.0</ele><time>2026-03-24T14:42:32.925Z</time></trkpt><trkpt lat="42.2166223" lon="13.5302354"><ele>1263.0</ele><time>2026-03-24T14:42:33.925Z</time></trkpt><trkpt lat="42.2168661" lon="13.5304005"><ele>1262.5</ele><time>2026-03-24T14:42:34.924Z</time></trkpt><trkpt lat="42.2171111" lon="13.5305619"><ele>1262.0</ele><time>2026-03-24T14:42:35.925Z</time></trkpt><trkpt lat="42.2173585" lon="13.5307112"><ele>1263.0</ele><time>2026-03-24T14:42:36.924Z</time></trkpt><trkpt lat="42.2176101" lon="13.530848"><ele>1264.0</ele><time>2026-03-24T14:42:37.924Z</time></trkpt><trkpt lat="42.2178617" lon="13.5309694"><ele>1264.0</ele><time>2026-03-24T14:42:38.924Z</time></trkpt><trkpt lat="42.2181165" lon="13.5310889"><ele>1264.0</ele><time>2026-03-24T14:42:39.924Z</time></trkpt><trkpt lat="42.2183657" lon="13.531213"><ele>1262.0</ele><time>2026-03-24T14:42:40.924Z</time></trkpt><trkpt lat="42.2186061" lon="13.5313351"><ele>1260.0</ele><time>2026-03-24T14:42:41.925Z</time></trkpt><trkpt lat="42.2188229" lon="13.531445"><ele>1260.3333333333333</ele><time>2026-03-24T14:42:42.924Z</time></trkpt><trkpt lat="42.2190216" lon="13.5315438"><ele>1260.6666666666665</ele><time>2026-03-24T14:42:43.925Z</time></trkpt><trkpt lat="42.2192101" lon="13.5316371"><ele>1261.0</ele><time>2026-03-24T14:42:44.924Z</time></trkpt><trkpt lat="42.2193953" lon="13.5317292"><ele>1261.0</ele><time>2026-03-24T14:42:45.924Z</time></trkpt><trkpt lat="42.2195803" lon="13.531822"><ele>1261.0</ele><time>2026-03-24T14:42:46.924Z</time></trkpt><trkpt lat="42.2197636" lon="13.5319133"><ele>1261.0</ele><time>2026-03-24T14:42:47.924Z</time></trkpt><trkpt lat="42.2199486" lon="13.5320127"><ele>1261.0</ele><time>2026-03-24T14:42:48.924Z</time></trkpt><trkpt lat="42.2201315" lon="13.5321048"><ele>1261.0</ele><time>2026-03-24T14:42:49.925Z</time></trkpt><trkpt lat="42.220311" lon="13.5321945"><ele>1261.0</ele><time>2026-03-24T14:42:50.925Z</time></trkpt><trkpt lat="42.220498" lon="13.5322858"><ele>1261.6666666666665</ele><time>2026-03-24T14:42:51.925Z</time></trkpt><trkpt lat="42.2206806" lon="13.5323871"><ele>1262.3333333333333</ele><time>2026-03-24T14:42:52.924Z</time></trkpt><trkpt lat="42.220858" lon="13.5325016"><ele>1263.0</ele><time>2026-03-24T14:42:53.924Z</time></trkpt><trkpt lat="42.2210268" lon="13.5326351"><ele>1263.0</ele><time>2026-03-24T14:42:54.924Z</time></trkpt><trkpt lat="42.2211896" lon="13.5327818"><ele>1263.0</ele><time>2026-03-24T14:42:55.925Z</time></trkpt><trkpt lat="42.2213432" lon="13.5329358"><ele>1263.0</ele><time>2026-03-24T14:42:56.925Z</time></trkpt><trkpt lat="42.2214964" lon="13.5330808"><ele>1263.6666666666667</ele><time>2026-03-24T14:42:57.924Z</time></trkpt><trkpt lat="42.2216471" lon="13.5332185"><ele>1264.3333333333335</ele><time>2026-03-24T14:42:58.925Z</time></trkpt><trkpt lat="42.2217914" lon="13.5333415"><ele>1265.0</ele><time>2026-03-24T14:42:59.925Z</time></trkpt><trkpt lat="42.221933" lon="13.5334517"><ele>1265.0</ele><time>2026-03-24T14:43:00.924Z</time></trkpt><trkpt lat="42.2220742" lon="13.5335347"><ele>1265.0</ele><time>2026-03-24T14:43:01.925Z</time></trkpt><trkpt lat="42.2222138" lon="13.5335838"><ele>1265.0</ele><time>2026-03-24T14:43:02.925Z</time></trkpt><trkpt lat="42.2223557" lon="13.5336018"><ele>1265.0</ele><time>2026-03-24T14:43:03.925Z</time></trkpt><trkpt lat="42.2224964" lon="13.5335761"><ele>1264.3333333333335</ele><time>2026-03-24T14:43:04.924Z</time></trkpt><trkpt lat="42.2226345" lon="13.5335176"><ele>1263.6666666666667</ele><time>2026-03-24T14:43:05.925Z</time></trkpt><trkpt lat="42.2227782" lon="13.5334346"><ele>1263.0</ele><time>2026-03-24T14:43:06.924Z</time></trkpt><trkpt lat="42.2229301" lon="13.533347"><ele>1263.0</ele><time>2026-03-24T14:43:07.924Z</time></trkpt><trkpt lat="42.223093" lon="13.5332486"><ele>1263.0</ele><time>2026-03-24T14:43:08.924Z</time></trkpt><trkpt lat="42.223274" lon="13.5331588"><ele>1263.0</ele><time>2026-03-24T14:43:09.924Z</time></trkpt><trkpt lat="42.2234698" lon="13.5330785"><ele>1262.6666666666667</ele><time>2026-03-24T14:43:10.924Z</time></trkpt><trkpt lat="42.2236746" lon="13.5330208"><ele>1262.3333333333335</ele><time>2026-03-24T14:43:11.924Z</time></trkpt><trkpt lat="42.2238929" lon="13.5329789"><ele>1262.0</ele><time>2026-03-24T14:43:12.924Z</time></trkpt><trkpt lat="42.2241193" lon="13.532945"><ele>1261.5</ele><time>2026-03-24T14:43:13.924Z</time></trkpt><trkpt lat="42.2243481" lon="13.5329078"><ele>1261.0</ele><time>2026-03-24T14:43:14.925Z</time></trkpt><trkpt lat="42.2245866" lon="13.5328546"><ele>1260.0</ele><time>2026-03-24T14:43:15.924Z</time></trkpt><trkpt lat="42.2248266" lon="13.5328012"><ele>1259.0</ele><time>2026-03-24T14:43:16.925Z</time></trkpt><trkpt lat="42.2250748" lon="13.5327452"><ele>1259.0</ele><time>2026-03-24T14:43:17.925Z</time></trkpt><trkpt lat="42.2253235" lon="13.5326956"><ele>1259.0</ele><time>2026-03-24T14:43:18.924Z</time></trkpt><trkpt lat="42.2255714" lon="13.532647"><ele>1261.0</ele><time>2026-03-24T14:43:19.924Z</time></trkpt><trkpt lat="42.2258193" lon="13.5325987"><ele>1263.0</ele><time>2026-03-24T14:43:20.924Z</time></trkpt><trkpt lat="42.2260568" lon="13.5325538"><ele>1263.0</ele><time>2026-03-24T14:43:21.925Z</time></trkpt><trkpt lat="42.2262763" lon="13.5325086"><ele>1263.0</ele><time>2026-03-24T14:43:22.924Z</time></trkpt><trkpt lat="42.2264919" lon="13.5324652"><ele>1263.0</ele><time>2026-03-24T14:43:23.924Z</time></trkpt><trkpt lat="42.2266991" lon="13.5324212"><ele>1262.6666666666667</ele><time>2026-03-24T14:43:24.924Z</time></trkpt><trkpt lat="42.2269042" lon="13.5323844"><ele>1262.3333333333335</ele><time>2026-03-24T14:43:25.924Z</time></trkpt><trkpt lat="42.2271064" lon="13.532389"><ele>1262.0</ele><time>2026-03-24T14:43:26.924Z</time></trkpt><trkpt lat="42.2273062" lon="13.5324312"><ele>1261.0</ele><time>2026-03-24T14:43:27.925Z</time></trkpt><trkpt lat="42.2275034" lon="13.532511"><ele>1260.0</ele><time>2026-03-24T14:43:28.925Z</time></trkpt><trkpt lat="42.2276968" lon="13.5326157"><ele>1259.0</ele><time>2026-03-24T14:43:29.924Z</time></trkpt><trkpt lat="42.2278983" lon="13.532731"><ele>1259.0</ele><time>2026-03-24T14:43:30.924Z</time></trkpt><trkpt lat="42.228102" lon="13.5328362"><ele>1259.0</ele><time>2026-03-24T14:43:31.924Z</time></trkpt><trkpt lat="42.2283157" lon="13.5329641"><ele>1258.0</ele><time>2026-03-24T14:43:32.925Z</time></trkpt><trkpt lat="42.228535" lon="13.5330832"><ele>1257.0</ele><time>2026-03-24T14:43:33.924Z</time></trkpt><trkpt lat="42.2287526" lon="13.5332036"><ele>1257.0</ele><time>2026-03-24T14:43:34.924Z</time></trkpt><trkpt lat="42.2289745" lon="13.533328"><ele>1257.0</ele><time>2026-03-24T14:43:35.924Z</time></trkpt><trkpt lat="42.2292018" lon="13.5334526"><ele>1258.0</ele><time>2026-03-24T14:43:36.924Z</time></trkpt><trkpt lat="42.229432" lon="13.533571"><ele>1259.0</ele><time>2026-03-24T14:43:37.924Z</time></trkpt><trkpt lat="42.2296695" lon="13.5336735"><ele>1262.5</ele><time>2026-03-24T14:43:38.925Z</time></trkpt><trkpt lat="42.229911" lon="13.5337522"><ele>1266.0</ele><time>2026-03-24T14:43:39.925Z</time></trkpt><trkpt lat="42.2301555" lon="13.5338196"><ele>1266.0</ele><time>2026-03-24T14:43:40.925Z</time></trkpt><trkpt lat="42.2304009" lon="13.5338794"><ele>1266.0</ele><time>2026-03-24T14:43:41.924Z</time></trkpt><trkpt lat="42.2306432" lon="13.5339409"><ele>1268.5</ele><time>2026-03-24T14:43:42.924Z</time></trkpt><trkpt lat="42.2308766" lon="13.5339962"><ele>1271.0</ele><time>2026-03-24T14:43:43.925Z</time></trkpt><trkpt lat="42.2310933" lon="13.5340511"><ele>1271.0</ele><time>2026-03-24T14:43:44.924Z</time></trkpt><trkpt lat="42.2312949" lon="13.5341055"><ele>1271.0</ele><time>2026-03-24T14:43:45.924Z</time></trkpt><trkpt lat="42.2314846" lon="13.5341564"><ele>1271.0</ele><time>2026-03-24T14:43:46.924Z</time></trkpt><trkpt lat="42.2316663" lon="13.5342052"><ele>1271.6666666666667</ele><time>2026-03-24T14:43:47.925Z</time></trkpt><trkpt lat="42.231845" lon="13.5342459"><ele>1272.3333333333333</ele><time>2026-03-24T14:43:48.924Z</time></trkpt><trkpt lat="42.2320203" lon="13.5342874"><ele>1273.0</ele><time>2026-03-24T14:43:49.924Z</time></trkpt><trkpt lat="42.2321876" lon="13.5343237"><ele>1273.6666666666665</ele><time>2026-03-24T14:43:50.924Z</time></trkpt><trkpt lat="42.2323429" lon="13.5343663"><ele>1274.3333333333333</ele><time>2026-03-24T14:43:51.924Z</time></trkpt><trkpt lat="42.2324914" lon="13.5344173"><ele>1275.0</ele><time>2026-03-24T14:43:52.925Z</time></trkpt><trkpt lat="42.2326259" lon="13.5344757"><ele>1275.0</ele><time>2026-03-24T14:43:53.924Z</time></trkpt><trkpt lat="42.2327631" lon="13.5345458"><ele>1275.0</ele><time>2026-03-24T14:43:54.925Z</time></trkpt><trkpt lat="42.2328712" lon="13.5346131"><ele>1275.0</ele><time>2026-03-24T14:43:55.924Z</time></trkpt><trkpt lat="42.2329889" lon="13.5346874"><ele>1275.0</ele><time>2026-03-24T14:43:56.924Z</time></trkpt><trkpt lat="42.2331147" lon="13.5347617"><ele>1274.3333333333333</ele><time>2026-03-24T14:43:57.925Z</time></trkpt><trkpt lat="42.2332479" lon="13.5348325"><ele>1273.6666666666665</ele><time>2026-03-24T14:43:58.924Z</time></trkpt><trkpt lat="42.2333942" lon="13.5348891"><ele>1273.0</ele><time>2026-03-24T14:43:59.925Z</time></trkpt><trkpt lat="42.2335504" lon="13.5349266"><ele>1273.0</ele><time>2026-03-24T14:44:00.924Z</time></trkpt><trkpt lat="42.2337108" lon="13.5349455"><ele>1273.0</ele><time>2026-03-24T14:44:01.924Z</time></trkpt><trkpt lat="42.2338741" lon="13.5349443"><ele>1273.0</ele><time>2026-03-24T14:44:02.925Z</time></trkpt><trkpt lat="42.2340345" lon="13.5349173"><ele>1272.75</ele><time>2026-03-24T14:44:03.925Z</time></trkpt><trkpt lat="42.2341801" lon="13.5348714"><ele>1272.5</ele><time>2026-03-24T14:44:04.924Z</time></trkpt><trkpt lat="42.2343225" lon="13.5348159"><ele>1272.25</ele><time>2026-03-24T14:44:05.925Z</time></trkpt><trkpt lat="42.234454" lon="13.5347569"><ele>1272.0</ele><time>2026-03-24T14:44:06.924Z</time></trkpt><trkpt lat="42.2345721" lon="13.5347129"><ele>1272.0</ele><time>2026-03-24T14:44:07.925Z</time></trkpt><trkpt lat="42.2346671" lon="13.5346774"><ele>1272.0</ele><time>2026-03-24T14:44:08.924Z</time></trkpt><trkpt lat="42.2347525" lon="13.5346546"><ele>1272.0</ele><time>2026-03-24T14:44:09.925Z</time></trkpt><trkpt lat="42.2348211" lon="13.5345967"><ele>1272.0</ele><time>2026-03-24T14:44:10.925Z</time></trkpt><trkpt lat="42.2348771" lon="13.5344869"><ele>1272.0</ele><time>2026-03-24T14:44:11.925Z</time></trkpt><trkpt lat="42.2349252" lon="13.5343571"><ele>1272.75</ele><time>2026-03-24T14:44:12.924Z</time></trkpt><trkpt lat="42.2349694" lon="13.5341992"><ele>1273.5</ele><time>2026-03-24T14:44:13.924Z</time></trkpt><trkpt lat="42.2350121" lon="13.5340289"><ele>1274.25</ele><time>2026-03-24T14:44:14.924Z</time></trkpt><trkpt lat="42.2350631" lon="13.5338542"><ele>1275.0</ele><time>2026-03-24T14:44:15.925Z</time></trkpt><trkpt lat="42.2351247" lon="13.5336624"><ele>1275.0</ele><time>2026-03-24T14:44:16.924Z</time></trkpt><trkpt lat="42.2351827" lon="13.5334643"><ele>1275.0</ele><time>2026-03-24T14:44:17.924Z</time></trkpt><trkpt lat="42.2352503" lon="13.5332428"><ele>1275.0</ele><time>2026-03-24T14:44:18.924Z</time></trkpt><trkpt lat="42.2353211" lon="13.5330325"><ele>1274.0</ele><time>2026-03-24T14:44:19.924Z</time></trkpt><trkpt lat="42.23539" lon="13.5328098"><ele>1273.0</ele><time>2026-03-24T14:44:20.925Z</time></trkpt><trkpt lat="42.2354837" lon="13.5325924"><ele>1272.0</ele><time>2026-03-24T14:44:21.924Z</time></trkpt><trkpt lat="42.2355626" lon="13.5323719"><ele>1274.6666666666667</ele><time>2026-03-24T14:44:22.925Z</time></trkpt><trkpt lat="42.2356619" lon="13.5321572"><ele>1277.3333333333335</ele><time>2026-03-24T14:44:23.924Z</time></trkpt><trkpt lat="42.2357671" lon="13.5319453"><ele>1280.0</ele><time>2026-03-24T14:44:24.925Z</time></trkpt><trkpt lat="42.2358795" lon="13.5317362"><ele>1280.0</ele><time>2026-03-24T14:44:25.924Z</time></trkpt><trkpt lat="42.2359987" lon="13.5315134"><ele>1280.0</ele><time>2026-03-24T14:44:26.925Z</time></trkpt><trkpt lat="42.2361208" lon="13.5312855"><ele>1280.0</ele><time>2026-03-24T14:44:27.925Z</time></trkpt><trkpt lat="42.2362467" lon="13.5310456"><ele>1281.0</ele><time>2026-03-24T14:44:28.924Z</time></trkpt><trkpt lat="42.2363741" lon="13.530805"><ele>1282.0</ele><time>2026-03-24T14:44:29.925Z</time></trkpt><trkpt lat="42.2365068" lon="13.530561"><ele>1283.0</ele><time>2026-03-24T14:44:30.925Z</time></trkpt><trkpt lat="42.2366489" lon="13.5303242"><ele>1283.0</ele><time>2026-03-24T14:44:31.924Z</time></trkpt><trkpt lat="42.2368048" lon="13.5300916"><ele>1283.0</ele><time>2026-03-24T14:44:32.924Z</time></trkpt><trkpt lat="42.236963" lon="13.5298702"><ele>1283.0</ele><time>2026-03-24T14:44:33.924Z</time></trkpt><trkpt lat="42.2371278" lon="13.5296443"><ele>1283.0</ele><time>2026-03-24T14:44:34.924Z</time></trkpt><trkpt lat="42.2372924" lon="13.5294113"><ele>1286.0</ele><time>2026-03-24T14:44:35.924Z</time></trkpt><trkpt lat="42.2374605" lon="13.5291737"><ele>1289.0</ele><time>2026-03-24T14:44:36.924Z</time></trkpt><trkpt lat="42.237627" lon="13.5289366"><ele>1286.5</ele><time>2026-03-24T14:44:37.925Z</time></trkpt><trkpt lat="42.2377943" lon="13.5286992"><ele>1284.0</ele><time>2026-03-24T14:44:38.924Z</time></trkpt><trkpt lat="42.2379653" lon="13.528465"><ele>1291.0</ele><time>2026-03-24T14:44:39.924Z</time></trkpt><trkpt lat="42.2381361" lon="13.5282442"><ele>1298.0</ele><time>2026-03-24T14:44:40.924Z</time></trkpt><trkpt lat="42.2383168" lon="13.5280404"><ele>1296.5</ele><time>2026-03-24T14:44:41.925Z</time></trkpt><trkpt lat="42.2385027" lon="13.5278419"><ele>1295.0</ele><time>2026-03-24T14:44:42.924Z</time></trkpt><trkpt lat="42.238692" lon="13.5276502"><ele>1295.0</ele><time>2026-03-24T14:44:43.925Z</time></trkpt><trkpt lat="42.238888" lon="13.5274585"><ele>1295.0</ele><time>2026-03-24T14:44:44.924Z</time></trkpt><trkpt lat="42.2390863" lon="13.5272669"><ele>1296.0</ele><time>2026-03-24T14:44:45.924Z</time></trkpt><trkpt lat="42.2392797" lon="13.527064"><ele>1297.0</ele><time>2026-03-24T14:44:46.924Z</time></trkpt><trkpt lat="42.2394683" lon="13.5268478"><ele>1299.0</ele><time>2026-03-24T14:44:47.924Z</time></trkpt><trkpt lat="42.2396447" lon="13.5266118"><ele>1301.0</ele><time>2026-03-24T14:44:48.925Z</time></trkpt><trkpt lat="42.239811" lon="13.5263607"><ele>1299.0</ele><time>2026-03-24T14:44:49.925Z</time></trkpt><trkpt lat="42.2399554" lon="13.5260942"><ele>1297.0</ele><time>2026-03-24T14:44:50.924Z</time></trkpt><trkpt lat="42.2400734" lon="13.5258298"><ele>1297.0</ele><time>2026-03-24T14:44:51.925Z</time></trkpt><trkpt lat="42.2401766" lon="13.5255721"><ele>1297.0</ele><time>2026-03-24T14:44:52.924Z</time></trkpt><trkpt lat="42.2402692" lon="13.5253472"><ele>1297.0</ele><time>2026-03-24T14:44:53.925Z</time></trkpt><trkpt lat="42.2403816" lon="13.5251552"><ele>1296.6666666666665</ele><time>2026-03-24T14:44:54.925Z</time></trkpt><trkpt lat="42.2405167" lon="13.5249974"><ele>1296.3333333333333</ele><time>2026-03-24T14:44:55.924Z</time></trkpt><trkpt lat="42.2406702" lon="13.5248815"><ele>1296.0</ele><time>2026-03-24T14:44:56.924Z</time></trkpt><trkpt lat="42.2408478" lon="13.5248198"><ele>1296.0</ele><time>2026-03-24T14:44:57.924Z</time></trkpt><trkpt lat="42.2410295" lon="13.5247543"><ele>1296.0</ele><time>2026-03-24T14:44:58.924Z</time></trkpt><trkpt lat="42.2412489" lon="13.5247823"><ele>1296.0</ele><time>2026-03-24T14:44:59.925Z</time></trkpt><trkpt lat="42.2414613" lon="13.5247691"><ele>1296.3333333333333</ele><time>2026-03-24T14:45:00.924Z</time></trkpt><trkpt lat="42.241683" lon="13.5247568"><ele>1296.6666666666665</ele><time>2026-03-24T14:45:01.925Z</time></trkpt><trkpt lat="42.2419042" lon="13.5247452"><ele>1297.0</ele><time>2026-03-24T14:45:02.925Z</time></trkpt><trkpt lat="42.2421101" lon="13.5247303"><ele>1297.0</ele><time>2026-03-24T14:45:03.924Z</time></trkpt><trkpt lat="42.2422903" lon="13.524702"><ele>1297.0</ele><time>2026-03-24T14:45:04.924Z</time></trkpt><trkpt lat="42.2424588" lon="13.5246479"><ele>1297.0</ele><time>2026-03-24T14:45:05.924Z</time></trkpt><trkpt lat="42.2426151" lon="13.5245467"><ele>1297.3333333333333</ele><time>2026-03-24T14:45:06.924Z</time></trkpt><trkpt lat="42.2427565" lon="13.524392"><ele>1297.6666666666667</ele><time>2026-03-24T14:45:07.925Z</time></trkpt><trkpt lat="42.2428888" lon="13.5241869"><ele>1298.0</ele><time>2026-03-24T14:45:08.925Z</time></trkpt><trkpt lat="42.2430257" lon="13.523964"><ele>1294.5</ele><time>2026-03-24T14:45:09.925Z</time></trkpt><trkpt lat="42.243169" lon="13.5237262"><ele>1291.0</ele><time>2026-03-24T14:45:10.924Z</time></trkpt><trkpt lat="42.2433188" lon="13.5234841"><ele>1291.0</ele><time>2026-03-24T14:45:11.924Z</time></trkpt><trkpt lat="42.2434745" lon="13.5232388"><ele>1291.0</ele><time>2026-03-24T14:45:12.924Z</time></trkpt><trkpt lat="42.2436358" lon="13.5229989"><ele>1291.5</ele><time>2026-03-24T14:45:13.924Z</time></trkpt><trkpt lat="42.2438085" lon="13.5227674"><ele>1292.0</ele><time>2026-03-24T14:45:14.925Z</time></trkpt><trkpt lat="42.2439856" lon="13.5225341"><ele>1292.0</ele><time>2026-03-24T14:45:15.924Z</time></trkpt><trkpt lat="42.2441732" lon="13.5223226"><ele>1292.0</ele><time>2026-03-24T14:45:16.924Z</time></trkpt><trkpt lat="42.2443713" lon="13.5221193"><ele>1291.5</ele><time>2026-03-24T14:45:17.925Z</time></trkpt><trkpt lat="42.2445755" lon="13.5219409"><ele>1291.0</ele><time>2026-03-24T14:45:18.924Z</time></trkpt><trkpt lat="42.2447978" lon="13.5217756"><ele>1291.0</ele><time>2026-03-24T14:45:19.924Z</time></trkpt><trkpt lat="42.2450287" lon="13.5216162"><ele>1291.0</ele><time>2026-03-24T14:45:20.924Z</time></trkpt><trkpt lat="42.2452565" lon="13.5214602"><ele>1291.0</ele><time>2026-03-24T14:45:21.925Z</time></trkpt><trkpt lat="42.2454891" lon="13.5213033"><ele>1291.0</ele><time>2026-03-24T14:45:22.925Z</time></trkpt><trkpt lat="42.2457214" lon="13.5211505"><ele>1296.0</ele><time>2026-03-24T14:45:23.925Z</time></trkpt><trkpt lat="42.2459542" lon="13.5210213"><ele>1301.0</ele><time>2026-03-24T14:45:24.925Z</time></trkpt><trkpt lat="42.2461908" lon="13.5209227"><ele>1301.0</ele><time>2026-03-24T14:45:25.924Z</time></trkpt><trkpt lat="42.2464293" lon="13.5208507"><ele>1301.0</ele><time>2026-03-24T14:45:26.925Z</time></trkpt><trkpt lat="42.246667" lon="13.5207888"><ele>1298.5</ele><time>2026-03-24T14:45:27.924Z</time></trkpt><trkpt lat="42.2469072" lon="13.5207204"><ele>1296.0</ele><time>2026-03-24T14:45:28.924Z</time></trkpt><trkpt lat="42.2471463" lon="13.5206473"><ele>1296.0</ele><time>2026-03-24T14:45:29.925Z</time></trkpt><trkpt lat="42.2473872" lon="13.5205733"><ele>1296.0</ele><time>2026-03-24T14:45:30.925Z</time></trkpt><trkpt lat="42.2476264" lon="13.5204981"><ele>1296.0</ele><time>2026-03-24T14:45:31.924Z</time></trkpt><trkpt lat="42.2478563" lon="13.5204218"><ele>1296.0</ele><time>2026-03-24T14:45:32.924Z</time></trkpt><trkpt lat="42.2480736" lon="13.5203502"><ele>1295.3333333333333</ele><time>2026-03-24T14:45:33.924Z</time></trkpt><trkpt lat="42.2482762" lon="13.5202705"><ele>1294.6666666666665</ele><time>2026-03-24T14:45:34.925Z</time></trkpt><trkpt lat="42.2484663" lon="13.5201654"><ele>1294.0</ele><time>2026-03-24T14:45:35.924Z</time></trkpt><trkpt lat="42.2486303" lon="13.5200378"><ele>1294.0</ele><time>2026-03-24T14:45:36.924Z</time></trkpt><trkpt lat="42.2487778" lon="13.5198798"><ele>1294.0</ele><time>2026-03-24T14:45:37.924Z</time></trkpt><trkpt lat="42.2489027" lon="13.5196865"><ele>1294.0</ele><time>2026-03-24T14:45:38.925Z</time></trkpt><trkpt lat="42.2490025" lon="13.5194675"><ele>1293.6666666666665</ele><time>2026-03-24T14:45:39.924Z</time></trkpt><trkpt lat="42.2490971" lon="13.5192305"><ele>1293.3333333333333</ele><time>2026-03-24T14:45:40.924Z</time></trkpt><trkpt lat="42.2491997" lon="13.5189839"><ele>1293.0</ele><time>2026-03-24T14:45:41.924Z</time></trkpt><trkpt lat="42.2493138" lon="13.5187337"><ele>1297.0</ele><time>2026-03-24T14:45:42.924Z</time></trkpt><trkpt lat="42.2494272" lon="13.5184807"><ele>1301.0</ele><time>2026-03-24T14:45:43.924Z</time></trkpt><trkpt lat="42.2495448" lon="13.5182173"><ele>1305.0</ele><time>2026-03-24T14:45:44.924Z</time></trkpt><trkpt lat="42.2496612" lon="13.5179585"><ele>1308.0</ele><time>2026-03-24T14:45:45.924Z</time></trkpt><trkpt lat="42.2497744" lon="13.5177097"><ele>1311.0</ele><time>2026-03-24T14:45:46.924Z</time></trkpt><trkpt lat="42.2498839" lon="13.5174687"><ele>1314.0</ele><time>2026-03-24T14:45:47.924Z</time></trkpt><trkpt lat="42.2499862" lon="13.517253"><ele>1308.3333333333333</ele><time>2026-03-24T14:45:48.924Z</time></trkpt><trkpt lat="42.250075" lon="13.5170437"><ele>1302.6666666666665</ele><time>2026-03-24T14:45:49.924Z</time></trkpt><trkpt lat="42.2501475" lon="13.5168274"><ele>1297.0</ele><time>2026-03-24T14:45:50.925Z</time></trkpt><trkpt lat="42.2501974" lon="13.5166055"><ele>1297.0</ele><time>2026-03-24T14:45:51.924Z</time></trkpt><trkpt lat="42.2502301" lon="13.5163794"><ele>1297.0</ele><time>2026-03-24T14:45:52.925Z</time></trkpt><trkpt lat="42.250254" lon="13.5161533"><ele>1297.0</ele><time>2026-03-24T14:45:53.924Z</time></trkpt><trkpt lat="42.2502694" lon="13.515925"><ele>1296.3333333333333</ele><time>2026-03-24T14:45:54.924Z</time></trkpt><trkpt lat="42.2502882" lon="13.5157038"><ele>1295.6666666666667</ele><time>2026-03-24T14:45:55.924Z</time></trkpt><trkpt lat="42.2503119" lon="13.5154927"><ele>1295.0</ele><time>2026-03-24T14:45:56.925Z</time></trkpt><trkpt lat="42.2503636" lon="13.5152872"><ele>1295.0</ele><time>2026-03-24T14:45:57.924Z</time></trkpt><trkpt lat="42.25043" lon="13.5150931"><ele>1295.0</ele><time>2026-03-24T14:45:58.925Z</time></trkpt><trkpt lat="42.2505538" lon="13.5149322"><ele>1295.0</ele><time>2026-03-24T14:45:59.924Z</time></trkpt><trkpt lat="42.2506748" lon="13.5147692"><ele>1293.3333333333335</ele><time>2026-03-24T14:46:00.925Z</time></trkpt><trkpt lat="42.2508068" lon="13.5146003"><ele>1291.6666666666667</ele><time>2026-03-24T14:46:01.925Z</time></trkpt><trkpt lat="42.2509404" lon="13.5144318"><ele>1290.0</ele><time>2026-03-24T14:46:02.925Z</time></trkpt><trkpt lat="42.2510807" lon="13.5142625"><ele>1290.0</ele><time>2026-03-24T14:46:03.925Z</time></trkpt><trkpt lat="42.2512147" lon="13.5140935"><ele>1290.0</ele><time>2026-03-24T14:46:04.924Z</time></trkpt><trkpt lat="42.2513428" lon="13.5139248"><ele>1290.0</ele><time>2026-03-24T14:46:05.925Z</time></trkpt><trkpt lat="42.2514645" lon="13.5137496"><ele>1285.0</ele><time>2026-03-24T14:46:06.925Z</time></trkpt><trkpt lat="42.2515815" lon="13.5135654"><ele>1280.0</ele><time>2026-03-24T14:46:07.924Z</time></trkpt><trkpt lat="42.25169" lon="13.5133778"><ele>1275.0</ele><time>2026-03-24T14:46:08.925Z</time></trkpt><trkpt lat="42.251789" lon="13.5131874"><ele>1275.0</ele><time>2026-03-24T14:46:09.925Z</time></trkpt><trkpt lat="42.2518827" lon="13.5129826"><ele>1275.0</ele><time>2026-03-24T14:46:10.924Z</time></trkpt><trkpt lat="42.2519667" lon="13.512767"><ele>1275.0</ele><time>2026-03-24T14:46:11.924Z</time></trkpt><trkpt lat="42.2520386" lon="13.5125469"><ele>1280.3333333333333</ele><time>2026-03-24T14:46:12.924Z</time></trkpt><trkpt lat="42.2520976" lon="13.512314"><ele>1285.6666666666665</ele><time>2026-03-24T14:46:13.924Z</time></trkpt><trkpt lat="42.2521484" lon="13.5120682"><ele>1291.0</ele><time>2026-03-24T14:46:14.924Z</time></trkpt><trkpt lat="42.2521906" lon="13.5118246"><ele>1294.6666666666665</ele><time>2026-03-24T14:46:15.924Z</time></trkpt><trkpt lat="42.2522282" lon="13.5115821"><ele>1298.3333333333333</ele><time>2026-03-24T14:46:16.924Z</time></trkpt><trkpt lat="42.2522619" lon="13.5113415"><ele>1302.0</ele><time>2026-03-24T14:46:17.924Z</time></trkpt><trkpt lat="42.2522913" lon="13.5111066"><ele>1287.3333333333333</ele><time>2026-03-24T14:46:18.925Z</time></trkpt><trkpt lat="42.2523261" lon="13.5108692"><ele>1272.6666666666665</ele><time>2026-03-24T14:46:19.924Z</time></trkpt><trkpt lat="42.252367" lon="13.5106402"><ele>1258.0</ele><time>2026-03-24T14:46:20.924Z</time></trkpt><trkpt lat="42.2524236" lon="13.510411"><ele>1262.0</ele><time>2026-03-24T14:46:21.924Z</time></trkpt><trkpt lat="42.2525005" lon="13.5101876"><ele>1266.0</ele><time>2026-03-24T14:46:22.924Z</time></trkpt><trkpt lat="42.2525952" lon="13.5099739"><ele>1270.0</ele><time>2026-03-24T14:46:23.925Z</time></trkpt><trkpt lat="42.2526956" lon="13.5097634"><ele>1275.3333333333333</ele><time>2026-03-24T14:46:24.925Z</time></trkpt><trkpt lat="42.2527971" lon="13.5095544"><ele>1280.6666666666667</ele><time>2026-03-24T14:46:25.924Z</time></trkpt><trkpt lat="42.2528993" lon="13.5093554"><ele>1286.0</ele><time>2026-03-24T14:46:26.924Z</time></trkpt><trkpt lat="42.2530041" lon="13.5091612"><ele>1276.6666666666667</ele><time>2026-03-24T14:46:27.924Z</time></trkpt><trkpt lat="42.2531247" lon="13.508977"><ele>1267.3333333333333</ele><time>2026-03-24T14:46:28.924Z</time></trkpt><trkpt lat="42.2532638" lon="13.5088148"><ele>1258.0</ele><time>2026-03-24T14:46:29.925Z</time></trkpt><trkpt lat="42.2534105" lon="13.5086642"><ele>1258.0</ele><time>2026-03-24T14:46:30.925Z</time></trkpt><trkpt lat="42.2535602" lon="13.5085112"><ele>1258.0</ele><time>2026-03-24T14:46:31.925Z</time></trkpt><trkpt lat="42.253703" lon="13.5083581"><ele>1258.0</ele><time>2026-03-24T14:46:32.925Z</time></trkpt><trkpt lat="42.2538431" lon="13.5082037"><ele>1255.6666666666665</ele><time>2026-03-24T14:46:33.924Z</time></trkpt><trkpt lat="42.2539746" lon="13.5080593"><ele>1253.3333333333333</ele><time>2026-03-24T14:46:34.924Z</time></trkpt><trkpt lat="42.2541023" lon="13.5079343"><ele>1251.0</ele><time>2026-03-24T14:46:35.924Z</time></trkpt><trkpt lat="42.2542351" lon="13.5078313"><ele>1251.0</ele><time>2026-03-24T14:46:36.924Z</time></trkpt><trkpt lat="42.2543766" lon="13.5077521"><ele>1251.0</ele><time>2026-03-24T14:46:37.924Z</time></trkpt><trkpt lat="42.2545174" lon="13.5076956"><ele>1251.0</ele><time>2026-03-24T14:46:38.925Z</time></trkpt><trkpt lat="42.2546691" lon="13.5076765"><ele>1245.3333333333333</ele><time>2026-03-24T14:46:39.925Z</time></trkpt><trkpt lat="42.2548294" lon="13.5076804"><ele>1239.6666666666665</ele><time>2026-03-24T14:46:40.924Z</time></trkpt><trkpt lat="42.2549999" lon="13.5077121"><ele>1234.0</ele><time>2026-03-24T14:46:41.924Z</time></trkpt><trkpt lat="42.2551767" lon="13.5077646"><ele>1234.0</ele><time>2026-03-24T14:46:42.924Z</time></trkpt><trkpt lat="42.2553562" lon="13.5078353"><ele>1234.0</ele><time>2026-03-24T14:46:43.925Z</time></trkpt><trkpt lat="42.2555344" lon="13.5079075"><ele>1234.0</ele><time>2026-03-24T14:46:44.925Z</time></trkpt><trkpt lat="42.2557073" lon="13.5079796"><ele>1233.3333333333333</ele><time>2026-03-24T14:46:45.924Z</time></trkpt><trkpt lat="42.2558794" lon="13.5080563"><ele>1232.6666666666667</ele><time>2026-03-24T14:46:46.924Z</time></trkpt><trkpt lat="42.2560509" lon="13.5081468"><ele>1232.0</ele><time>2026-03-24T14:46:47.924Z</time></trkpt><trkpt lat="42.2562165" lon="13.5082548"><ele>1232.0</ele><time>2026-03-24T14:46:48.924Z</time></trkpt><trkpt lat="42.2563788" lon="13.5083773"><ele>1232.0</ele><time>2026-03-24T14:46:49.924Z</time></trkpt><trkpt lat="42.2565459" lon="13.5085067"><ele>1232.0</ele><time>2026-03-24T14:46:50.925Z</time></trkpt><trkpt lat="42.2567031" lon="13.5086416"><ele>1231.3333333333335</ele><time>2026-03-24T14:46:51.924Z</time></trkpt><trkpt lat="42.2568571" lon="13.5087685"><ele>1230.6666666666667</ele><time>2026-03-24T14:46:52.924Z</time></trkpt><trkpt lat="42.2570147" lon="13.5089036"><ele>1230.0</ele><time>2026-03-24T14:46:53.924Z</time></trkpt><trkpt lat="42.2571664" lon="13.5090387"><ele>1228.3333333333333</ele><time>2026-03-24T14:46:54.924Z</time></trkpt><trkpt lat="42.2573203" lon="13.5091636"><ele>1226.6666666666665</ele><time>2026-03-24T14:46:55.924Z</time></trkpt><trkpt lat="42.2574761" lon="13.5092829"><ele>1225.0</ele><time>2026-03-24T14:46:56.924Z</time></trkpt><trkpt lat="42.257636" lon="13.5093933"><ele>1225.0</ele><time>2026-03-24T14:46:57.924Z</time></trkpt><trkpt lat="42.2578054" lon="13.5094872"><ele>1225.0</ele><time>2026-03-24T14:46:58.924Z</time></trkpt><trkpt lat="42.2579861" lon="13.5095545"><ele>1225.0</ele><time>2026-03-24T14:46:59.925Z</time></trkpt><trkpt lat="42.2581672" lon="13.5096133"><ele>1225.3333333333333</ele><time>2026-03-24T14:47:00.924Z</time></trkpt><trkpt lat="42.2583471" lon="13.5096767"><ele>1225.6666666666667</ele><time>2026-03-24T14:47:01.924Z</time></trkpt><trkpt lat="42.2585177" lon="13.5097323"><ele>1226.0</ele><time>2026-03-24T14:47:02.925Z</time></trkpt><trkpt lat="42.2586778" lon="13.5097901"><ele>1226.0</ele><time>2026-03-24T14:47:03.925Z</time></trkpt><trkpt lat="42.2588336" lon="13.5098413"><ele>1226.0</ele><time>2026-03-24T14:47:04.924Z</time></trkpt><trkpt lat="42.2589903" lon="13.5098943"><ele>1226.0</ele><time>2026-03-24T14:47:05.924Z</time></trkpt><trkpt lat="42.2591477" lon="13.509948"><ele>1225.6666666666667</ele><time>2026-03-24T14:47:06.924Z</time></trkpt><trkpt lat="42.2593106" lon="13.5100084"><ele>1225.3333333333333</ele><time>2026-03-24T14:47:07.924Z</time></trkpt><trkpt lat="42.2594725" lon="13.5100624"><ele>1225.0</ele><time>2026-03-24T14:47:08.925Z</time></trkpt><trkpt lat="42.2596375" lon="13.5101165"><ele>1225.0</ele><time>2026-03-24T14:47:09.924Z</time></trkpt><trkpt lat="42.2598047" lon="13.5101685"><ele>1225.0</ele><time>2026-03-24T14:47:10.924Z</time></trkpt><trkpt lat="42.2599711" lon="13.5102181"><ele>1225.0</ele><time>2026-03-24T14:47:11.924Z</time></trkpt><trkpt lat="42.2601387" lon="13.5102686"><ele>1225.0</ele><time>2026-03-24T14:47:12.924Z</time></trkpt><trkpt lat="42.2603048" lon="13.5103081"><ele>1225.0</ele><time>2026-03-24T14:47:13.924Z</time></trkpt><trkpt lat="42.26047" lon="13.5103151"><ele>1225.0</ele><time>2026-03-24T14:47:14.924Z</time></trkpt><trkpt lat="42.2606366" lon="13.5103056"><ele>1223.3333333333333</ele><time>2026-03-24T14:47:15.924Z</time></trkpt><trkpt lat="42.2608036" lon="13.5102718"><ele>1221.6666666666667</ele><time>2026-03-24T14:47:16.924Z</time></trkpt><trkpt lat="42.2609726" lon="13.5102079"><ele>1220.0</ele><time>2026-03-24T14:47:17.924Z</time></trkpt><trkpt lat="42.2611443" lon="13.5101245"><ele>1220.0</ele><time>2026-03-24T14:47:18.924Z</time></trkpt><trkpt lat="42.2613172" lon="13.5100351"><ele>1220.0</ele><time>2026-03-24T14:47:19.925Z</time></trkpt><trkpt lat="42.2614921" lon="13.5099453"><ele>1220.0</ele><time>2026-03-24T14:47:20.924Z</time></trkpt><trkpt lat="42.2616629" lon="13.5098552"><ele>1221.3333333333335</ele><time>2026-03-24T14:47:21.924Z</time></trkpt><trkpt lat="42.2618356" lon="13.5097623"><ele>1222.6666666666667</ele><time>2026-03-24T14:47:22.925Z</time></trkpt><trkpt lat="42.2620085" lon="13.509668"><ele>1224.0</ele><time>2026-03-24T14:47:23.924Z</time></trkpt><trkpt lat="42.2621778" lon="13.509573"><ele>1223.6666666666667</ele><time>2026-03-24T14:47:24.925Z</time></trkpt><trkpt lat="42.2623422" lon="13.5094901"><ele>1223.3333333333335</ele><time>2026-03-24T14:47:25.924Z</time></trkpt><trkpt lat="42.262507" lon="13.5094043"><ele>1223.0</ele><time>2026-03-24T14:47:26.924Z</time></trkpt><trkpt lat="42.2626717" lon="13.509321"><ele>1223.0</ele><time>2026-03-24T14:47:27.924Z</time></trkpt><trkpt lat="42.2628277" lon="13.5092306"><ele>1223.0</ele><time>2026-03-24T14:47:28.925Z</time></trkpt><trkpt lat="42.2629799" lon="13.5091422"><ele>1223.0</ele><time>2026-03-24T14:47:29.924Z</time></trkpt><trkpt lat="42.2631263" lon="13.5090337"><ele>1223.0</ele><time>2026-03-24T14:47:30.924Z</time></trkpt><trkpt lat="42.2632741" lon="13.5089071"><ele>1223.0</ele><time>2026-03-24T14:47:31.924Z</time></trkpt><trkpt lat="42.2634068" lon="13.5087635"><ele>1223.0</ele><time>2026-03-24T14:47:32.924Z</time></trkpt><trkpt lat="42.2635305" lon="13.5086093"><ele>1223.0</ele><time>2026-03-24T14:47:33.924Z</time></trkpt><trkpt lat="42.2636373" lon="13.5084388"><ele>1223.0</ele><time>2026-03-24T14:47:34.924Z</time></trkpt><trkpt lat="42.2637253" lon="13.5082509"><ele>1223.0</ele><time>2026-03-24T14:47:35.925Z</time></trkpt><trkpt lat="42.2637814" lon="13.5080478"><ele>1226.0</ele><time>2026-03-24T14:47:36.924Z</time></trkpt><trkpt lat="42.2638148" lon="13.5078304"><ele>1229.0</ele><time>2026-03-24T14:47:37.924Z</time></trkpt><trkpt lat="42.2638492" lon="13.5076044"><ele>1232.0</ele><time>2026-03-24T14:47:38.924Z</time></trkpt><trkpt lat="42.263901" lon="13.5073798"><ele>1226.3333333333335</ele><time>2026-03-24T14:47:39.925Z</time></trkpt><trkpt lat="42.2639629" lon="13.5071604"><ele>1220.6666666666667</ele><time>2026-03-24T14:47:40.925Z</time></trkpt><trkpt lat="42.2640267" lon="13.5069386"><ele>1215.0</ele><time>2026-03-24T14:47:41.924Z</time></trkpt><trkpt lat="42.2640913" lon="13.5067229"><ele>1215.0</ele><time>2026-03-24T14:47:42.924Z</time></trkpt><trkpt lat="42.2641521" lon="13.5065159"><ele>1215.0</ele><time>2026-03-24T14:47:43.925Z</time></trkpt><trkpt lat="42.2642092" lon="13.5063124"><ele>1215.0</ele><time>2026-03-24T14:47:44.924Z</time></trkpt><trkpt lat="42.264264" lon="13.5061174"><ele>1217.5</ele><time>2026-03-24T14:47:45.924Z</time></trkpt><trkpt lat="42.2643163" lon="13.5059311"><ele>1220.0</ele><time>2026-03-24T14:47:46.924Z</time></trkpt><trkpt lat="42.2643694" lon="13.5057532"><ele>1222.5</ele><time>2026-03-24T14:47:47.924Z</time></trkpt><trkpt lat="42.264422" lon="13.5055882"><ele>1225.0</ele><time>2026-03-24T14:47:48.924Z</time></trkpt><trkpt lat="42.2644745" lon="13.5054346"><ele>1226.6</ele><time>2026-03-24T14:47:49.924Z</time></trkpt><trkpt lat="42.2645191" lon="13.5053077"><ele>1228.2</ele><time>2026-03-24T14:47:50.924Z</time></trkpt><trkpt lat="42.2645796" lon="13.5052003"><ele>1229.8</ele><time>2026-03-24T14:47:51.924Z</time></trkpt><trkpt lat="42.2646607" lon="13.5051223"><ele>1231.4</ele><time>2026-03-24T14:47:52.925Z</time></trkpt><trkpt lat="42.2647539" lon="13.505082"><ele>1233.0</ele><time>2026-03-24T14:47:53.924Z</time></trkpt><trkpt lat="42.2648561" lon="13.5050853"><ele>1227.75</ele><time>2026-03-24T14:47:54.925Z</time></trkpt><trkpt lat="42.2649617" lon="13.5051291"><ele>1222.5</ele><time>2026-03-24T14:47:55.925Z</time></trkpt><trkpt lat="42.2650621" lon="13.505215"><ele>1217.25</ele><time>2026-03-24T14:47:56.924Z</time></trkpt><trkpt lat="42.2651617" lon="13.5053113"><ele>1212.0</ele><time>2026-03-24T14:47:57.924Z</time></trkpt><trkpt lat="42.2652603" lon="13.5054071"><ele>1209.0</ele><time>2026-03-24T14:47:58.925Z</time></trkpt><trkpt lat="42.2653551" lon="13.505492"><ele>1206.0</ele><time>2026-03-24T14:47:59.924Z</time></trkpt><trkpt lat="42.2654519" lon="13.5055681"><ele>1203.0</ele><time>2026-03-24T14:48:00.925Z</time></trkpt><trkpt lat="42.265557" lon="13.505623"><ele>1200.0</ele><time>2026-03-24T14:48:01.925Z</time></trkpt><trkpt lat="42.2656726" lon="13.5056454"><ele>1199.5</ele><time>2026-03-24T14:48:02.924Z</time></trkpt><trkpt lat="42.2657959" lon="13.5056254"><ele>1199.0</ele><time>2026-03-24T14:48:03.924Z</time></trkpt><trkpt lat="42.2659288" lon="13.5055655"><ele>1198.5</ele><time>2026-03-24T14:48:04.924Z</time></trkpt><trkpt lat="42.2660629" lon="13.5054835"><ele>1198.0</ele><time>2026-03-24T14:48:05.925Z</time></trkpt><trkpt lat="42.2661993" lon="13.505398"><ele>1198.6666666666665</ele><time>2026-03-24T14:48:06.925Z</time></trkpt><trkpt lat="42.2663341" lon="13.5053142"><ele>1199.3333333333333</ele><time>2026-03-24T14:48:07.924Z</time></trkpt><trkpt lat="42.2664707" lon="13.5052272"><ele>1200.0</ele><time>2026-03-24T14:48:08.925Z</time></trkpt><trkpt lat="42.2666094" lon="13.5051397"><ele>1200.0</ele><time>2026-03-24T14:48:09.925Z</time></trkpt><trkpt lat="42.2667446" lon="13.5050607"><ele>1200.0</ele><time>2026-03-24T14:48:10.925Z</time></trkpt><trkpt lat="42.266869" lon="13.5049808"><ele>1200.0</ele><time>2026-03-24T14:48:11.924Z</time></trkpt><trkpt lat="42.2669887" lon="13.5048975"><ele>1200.0</ele><time>2026-03-24T14:48:12.925Z</time></trkpt><trkpt lat="42.2670992" lon="13.5047987"><ele>1200.0</ele><time>2026-03-24T14:48:13.924Z</time></trkpt><trkpt lat="42.2671915" lon="13.5046444"><ele>1200.0</ele><time>2026-03-24T14:48:14.924Z</time></trkpt><trkpt lat="42.2672777" lon="13.5044678"><ele>1200.0</ele><time>2026-03-24T14:48:15.924Z</time></trkpt><trkpt lat="42.2673726" lon="13.5042781"><ele>1197.0</ele><time>2026-03-24T14:48:16.925Z</time></trkpt><trkpt lat="42.2674706" lon="13.5040687"><ele>1194.0</ele><time>2026-03-24T14:48:17.924Z</time></trkpt><trkpt lat="42.2675701" lon="13.5038442"><ele>1191.0</ele><time>2026-03-24T14:48:18.924Z</time></trkpt><trkpt lat="42.267675" lon="13.5036034"><ele>1197.0</ele><time>2026-03-24T14:48:19.925Z</time></trkpt><trkpt lat="42.2677916" lon="13.5033545"><ele>1203.0</ele><time>2026-03-24T14:48:20.924Z</time></trkpt><trkpt lat="42.2679005" lon="13.5031141"><ele>1209.0</ele><time>2026-03-24T14:48:21.924Z</time></trkpt><trkpt lat="42.2679972" lon="13.5028922"><ele>1213.6666666666667</ele><time>2026-03-24T14:48:22.924Z</time></trkpt><trkpt lat="42.2680824" lon="13.5026786"><ele>1218.3333333333335</ele><time>2026-03-24T14:48:23.924Z</time></trkpt><trkpt lat="42.268161" lon="13.5024727"><ele>1223.0</ele><time>2026-03-24T14:48:24.924Z</time></trkpt><trkpt lat="42.2682359" lon="13.5022747"><ele>1214.0</ele><time>2026-03-24T14:48:25.924Z</time></trkpt><trkpt lat="42.2683083" lon="13.5020841"><ele>1205.0</ele><time>2026-03-24T14:48:26.924Z</time></trkpt><trkpt lat="42.268376" lon="13.5018959"><ele>1196.0</ele><time>2026-03-24T14:48:27.924Z</time></trkpt><trkpt lat="42.2684212" lon="13.5016912"><ele>1196.0</ele><time>2026-03-24T14:48:28.925Z</time></trkpt><trkpt lat="42.2684488" lon="13.5014843"><ele>1196.0</ele><time>2026-03-24T14:48:29.925Z</time></trkpt><trkpt lat="42.2684664" lon="13.5012772"><ele>1196.0</ele><time>2026-03-24T14:48:30.925Z</time></trkpt><trkpt lat="42.2684795" lon="13.5010705"><ele>1197.0</ele><time>2026-03-24T14:48:31.924Z</time></trkpt><trkpt lat="42.268484" lon="13.5008745"><ele>1198.0</ele><time>2026-03-24T14:48:32.924Z</time></trkpt><trkpt lat="42.2684665" lon="13.500672"><ele>1199.0</ele><time>2026-03-24T14:48:33.924Z</time></trkpt><trkpt lat="42.2684078" lon="13.5004472"><ele>1197.0</ele><time>2026-03-24T14:48:34.925Z</time></trkpt><trkpt lat="42.2683387" lon="13.5002006"><ele>1195.0</ele><time>2026-03-24T14:48:35.924Z</time></trkpt><trkpt lat="42.2682718" lon="13.4999368"><ele>1193.0</ele><time>2026-03-24T14:48:36.924Z</time></trkpt><trkpt lat="42.2682057" lon="13.4996754"><ele>1192.3333333333335</ele><time>2026-03-24T14:48:37.924Z</time></trkpt><trkpt lat="42.268143" lon="13.499423"><ele>1191.6666666666667</ele><time>2026-03-24T14:48:38.924Z</time></trkpt><trkpt lat="42.2680956" lon="13.499176"><ele>1191.0</ele><time>2026-03-24T14:48:39.924Z</time></trkpt><trkpt lat="42.2680841" lon="13.4989226"><ele>1192.0</ele><time>2026-03-24T14:48:40.925Z</time></trkpt><trkpt lat="42.2681027" lon="13.4986624"><ele>1193.0</ele><time>2026-03-24T14:48:41.925Z</time></trkpt><trkpt lat="42.2681455" lon="13.4983923"><ele>1194.0</ele><time>2026-03-24T14:48:42.924Z</time></trkpt><trkpt lat="42.2682019" lon="13.498126"><ele>1195.6666666666667</ele><time>2026-03-24T14:48:43.924Z</time></trkpt><trkpt lat="42.2682705" lon="13.497869"><ele>1197.3333333333335</ele><time>2026-03-24T14:48:44.925Z</time></trkpt><trkpt lat="42.2683622" lon="13.4976207"><ele>1199.0</ele><time>2026-03-24T14:48:45.924Z</time></trkpt><trkpt lat="42.2684724" lon="13.4973807"><ele>1199.0</ele><time>2026-03-24T14:48:46.925Z</time></trkpt><trkpt lat="42.2685849" lon="13.4971618"><ele>1199.0</ele><time>2026-03-24T14:48:47.924Z</time></trkpt><trkpt lat="42.2686809" lon="13.4969786"><ele>1199.0</ele><time>2026-03-24T14:48:48.924Z</time></trkpt><trkpt lat="42.2687717" lon="13.4968352"><ele>1201.75</ele><time>2026-03-24T14:48:49.925Z</time></trkpt><trkpt lat="42.2688798" lon="13.4967247"><ele>1204.5</ele><time>2026-03-24T14:48:50.925Z</time></trkpt><trkpt lat="42.2690025" lon="13.4966929"><ele>1207.25</ele><time>2026-03-24T14:48:51.924Z</time></trkpt><trkpt lat="42.2691345" lon="13.4967054"><ele>1210.0</ele><time>2026-03-24T14:48:52.924Z</time></trkpt><trkpt lat="42.269271" lon="13.496779"><ele>1201.3333333333333</ele><time>2026-03-24T14:48:53.924Z</time></trkpt><trkpt lat="42.2694257" lon="13.4968866"><ele>1192.6666666666667</ele><time>2026-03-24T14:48:54.924Z</time></trkpt><trkpt lat="42.2695845" lon="13.4970023"><ele>1184.0</ele><time>2026-03-24T14:48:55.925Z</time></trkpt><trkpt lat="42.2697369" lon="13.4971057"><ele>1179.6666666666667</ele><time>2026-03-24T14:48:56.925Z</time></trkpt><trkpt lat="42.2698963" lon="13.4971786"><ele>1175.3333333333333</ele><time>2026-03-24T14:48:57.924Z</time></trkpt><trkpt lat="42.2700576" lon="13.497191"><ele>1171.0</ele><time>2026-03-24T14:48:58.924Z</time></trkpt><trkpt lat="42.2702303" lon="13.4971428"><ele>1171.0</ele><time>2026-03-24T14:48:59.924Z</time></trkpt><trkpt lat="42.2704191" lon="13.4970898"><ele>1171.0</ele><time>2026-03-24T14:49:00.924Z</time></trkpt><trkpt lat="42.2706136" lon="13.4970359"><ele>1171.0</ele><time>2026-03-24T14:49:01.924Z</time></trkpt><trkpt lat="42.2707974" lon="13.4969885"><ele>1171.0</ele><time>2026-03-24T14:49:02.924Z</time></trkpt><trkpt lat="42.2709586" lon="13.4969353"><ele>1171.0</ele><time>2026-03-24T14:49:03.924Z</time></trkpt><trkpt lat="42.2711012" lon="13.4968564"><ele>1171.0</ele><time>2026-03-24T14:49:04.924Z</time></trkpt><trkpt lat="42.2712184" lon="13.4967285"><ele>1171.0</ele><time>2026-03-24T14:49:05.924Z</time></trkpt><trkpt lat="42.2713012" lon="13.4965594"><ele>1171.0</ele><time>2026-03-24T14:49:06.924Z</time></trkpt><trkpt lat="42.2713503" lon="13.496355"><ele>1171.0</ele><time>2026-03-24T14:49:07.924Z</time></trkpt><trkpt lat="42.2713897" lon="13.4961152"><ele>1170.3333333333333</ele><time>2026-03-24T14:49:08.924Z</time></trkpt><trkpt lat="42.2714271" lon="13.4958549"><ele>1169.6666666666667</ele><time>2026-03-24T14:49:09.924Z</time></trkpt><trkpt lat="42.2714669" lon="13.4955689"><ele>1169.0</ele><time>2026-03-24T14:49:10.924Z</time></trkpt><trkpt lat="42.2715129" lon="13.4952779"><ele>1171.0</ele><time>2026-03-24T14:49:11.925Z</time></trkpt><trkpt lat="42.2715592" lon="13.49497"><ele>1173.0</ele><time>2026-03-24T14:49:12.924Z</time></trkpt><trkpt lat="42.2716061" lon="13.4946562"><ele>1171.5</ele><time>2026-03-24T14:49:13.924Z</time></trkpt><trkpt lat="42.2716505" lon="13.4943348"><ele>1170.0</ele><time>2026-03-24T14:49:14.924Z</time></trkpt><trkpt lat="42.2716887" lon="13.4940164"><ele>1170.5</ele><time>2026-03-24T14:49:15.925Z</time></trkpt><trkpt lat="42.2717044" lon="13.4936913"><ele>1171.0</ele><time>2026-03-24T14:49:16.924Z</time></trkpt><trkpt lat="42.2716893" lon="13.4933628"><ele>1171.0</ele><time>2026-03-24T14:49:17.924Z</time></trkpt><trkpt lat="42.2716603" lon="13.4930307"><ele>1171.0</ele><time>2026-03-24T14:49:18.925Z</time></trkpt><trkpt lat="42.2716298" lon="13.4926929"><ele>1171.5</ele><time>2026-03-24T14:49:19.924Z</time></trkpt><trkpt lat="42.2715968" lon="13.4923564"><ele>1172.0</ele><time>2026-03-24T14:49:20.925Z</time></trkpt><trkpt lat="42.271562" lon="13.4920262"><ele>1172.0</ele><time>2026-03-24T14:49:21.925Z</time></trkpt><trkpt lat="42.2715332" lon="13.4917181"><ele>1172.0</ele><time>2026-03-24T14:49:22.925Z</time></trkpt><trkpt lat="42.2715079" lon="13.4914412"><ele>1172.0</ele><time>2026-03-24T14:49:23.924Z</time></trkpt><trkpt lat="42.2714851" lon="13.4911987"><ele>1171.3333333333335</ele><time>2026-03-24T14:49:24.924Z</time></trkpt><trkpt lat="42.2714741" lon="13.4909787"><ele>1170.6666666666667</ele><time>2026-03-24T14:49:25.925Z</time></trkpt><trkpt lat="42.2714945" lon="13.490771"><ele>1170.0</ele><time>2026-03-24T14:49:26.924Z</time></trkpt><trkpt lat="42.2715485" lon="13.4905754"><ele>1172.0</ele><time>2026-03-24T14:49:27.924Z</time></trkpt><trkpt lat="42.2716411" lon="13.4904031"><ele>1174.0</ele><time>2026-03-24T14:49:28.924Z</time></trkpt><trkpt lat="42.2717727" lon="13.4902511"><ele>1176.0</ele><time>2026-03-24T14:49:29.924Z</time></trkpt><trkpt lat="42.2719276" lon="13.4901143"><ele>1176.0</ele><time>2026-03-24T14:49:30.925Z</time></trkpt><trkpt lat="42.2720897" lon="13.4899774"><ele>1176.0</ele><time>2026-03-24T14:49:31.924Z</time></trkpt><trkpt lat="42.2722409" lon="13.4898376"><ele>1176.0</ele><time>2026-03-24T14:49:32.924Z</time></trkpt><trkpt lat="42.2723783" lon="13.4896998"><ele>1172.3333333333333</ele><time>2026-03-24T14:49:33.924Z</time></trkpt><trkpt lat="42.2724953" lon="13.489543"><ele>1168.6666666666665</ele><time>2026-03-24T14:49:34.924Z</time></trkpt><trkpt lat="42.2725808" lon="13.489353"><ele>1165.0</ele><time>2026-03-24T14:49:35.924Z</time></trkpt><trkpt lat="42.2726424" lon="13.4891267"><ele>1165.0</ele><time>2026-03-24T14:49:36.924Z</time></trkpt><trkpt lat="42.2726926" lon="13.4888759"><ele>1165.0</ele><time>2026-03-24T14:49:37.924Z</time></trkpt><trkpt lat="42.2727291" lon="13.4886057"><ele>1165.0</ele><time>2026-03-24T14:49:38.924Z</time></trkpt><trkpt lat="42.2727664" lon="13.4883341"><ele>1165.0</ele><time>2026-03-24T14:49:39.924Z</time></trkpt><trkpt lat="42.272799" lon="13.4880692"><ele>1165.0</ele><time>2026-03-24T14:49:40.924Z</time></trkpt><trkpt lat="42.2728338" lon="13.4878123"><ele>1165.0</ele><time>2026-03-24T14:49:41.924Z</time></trkpt><trkpt lat="42.2728643" lon="13.4875713"><ele>1164.6666666666665</ele><time>2026-03-24T14:49:42.925Z</time></trkpt><trkpt lat="42.2728785" lon="13.4873419"><ele>1164.3333333333333</ele><time>2026-03-24T14:49:43.925Z</time></trkpt><trkpt lat="42.2728862" lon="13.4871041"><ele>1164.0</ele><time>2026-03-24T14:49:44.924Z</time></trkpt><trkpt lat="42.272773" lon="13.4868915"><ele>1161.6666666666667</ele><time>2026-03-24T14:49:45.924Z</time></trkpt><trkpt lat="42.2726821" lon="13.4866687"><ele>1159.3333333333335</ele><time>2026-03-24T14:49:46.924Z</time></trkpt><trkpt lat="42.2725697" lon="13.4864504"><ele>1157.0</ele><time>2026-03-24T14:49:47.924Z</time></trkpt><trkpt lat="42.2724697" lon="13.4862392"><ele>1154.0</ele><time>2026-03-24T14:49:48.925Z</time></trkpt><trkpt lat="42.2723754" lon="13.4860406"><ele>1151.0</ele><time>2026-03-24T14:49:49.924Z</time></trkpt><trkpt lat="42.2722863" lon="13.485871"><ele>1148.0</ele><time>2026-03-24T14:49:50.924Z</time></trkpt><trkpt lat="42.2722124" lon="13.4857226"><ele>1146.2</ele><time>2026-03-24T14:49:51.924Z</time></trkpt><trkpt lat="42.2721719" lon="13.4855739"><ele>1144.4</ele><time>2026-03-24T14:49:52.924Z</time></trkpt><trkpt lat="42.2721593" lon="13.4854375"><ele>1142.6000000000001</ele><time>2026-03-24T14:49:53.925Z</time></trkpt><trkpt lat="42.2721774" lon="13.4853103"><ele>1140.8</ele><time>2026-03-24T14:49:54.925Z</time></trkpt><trkpt lat="42.2722252" lon="13.4852006"><ele>1139.0</ele><time>2026-03-24T14:49:55.924Z</time></trkpt><trkpt lat="42.2722818" lon="13.4850879"><ele>1139.0</ele><time>2026-03-24T14:49:56.925Z</time></trkpt><trkpt lat="42.2724163" lon="13.485082"><ele>1139.0</ele><time>2026-03-24T14:49:57.924Z</time></trkpt><trkpt lat="42.2725413" lon="13.4850806"><ele>1139.0</ele><time>2026-03-24T14:49:58.925Z</time></trkpt><trkpt lat="42.2726775" lon="13.4851168"><ele>1139.0</ele><time>2026-03-24T14:49:59.925Z</time></trkpt><trkpt lat="42.2728218" lon="13.4851809"><ele>1139.0</ele><time>2026-03-24T14:50:00.925Z</time></trkpt><trkpt lat="42.2729694" lon="13.4852507"><ele>1139.0</ele><time>2026-03-24T14:50:01.924Z</time></trkpt><trkpt lat="42.273117" lon="13.4853146"><ele>1139.0</ele><time>2026-03-24T14:50:02.924Z</time></trkpt><trkpt lat="42.2732603" lon="13.4853695"><ele>1137.5</ele><time>2026-03-24T14:50:03.925Z</time></trkpt><trkpt lat="42.2733964" lon="13.4854093"><ele>1136.0</ele><time>2026-03-24T14:50:04.924Z</time></trkpt><trkpt lat="42.2735247" lon="13.4854168"><ele>1134.5</ele><time>2026-03-24T14:50:05.924Z</time></trkpt><trkpt lat="42.2736396" lon="13.4853687"><ele>1133.0</ele><time>2026-03-24T14:50:06.924Z</time></trkpt><trkpt lat="42.2737347" lon="13.4852668"><ele>1133.0</ele><time>2026-03-24T14:50:07.924Z</time></trkpt><trkpt lat="42.2738023" lon="13.4851116"><ele>1133.0</ele><time>2026-03-24T14:50:08.924Z</time></trkpt><trkpt lat="42.2738503" lon="13.4849239"><ele>1133.0</ele><time>2026-03-24T14:50:09.924Z</time></trkpt><trkpt lat="42.2738933" lon="13.4847085"><ele>1133.0</ele><time>2026-03-24T14:50:10.924Z</time></trkpt><trkpt lat="42.273934" lon="13.4844894"><ele>1126.6666666666667</ele><time>2026-03-24T14:50:11.924Z</time></trkpt><trkpt lat="42.2739743" lon="13.4842528"><ele>1120.3333333333333</ele><time>2026-03-24T14:50:12.924Z</time></trkpt><trkpt lat="42.2740134" lon="13.4839994"><ele>1114.0</ele><time>2026-03-24T14:50:13.925Z</time></trkpt><trkpt lat="42.2740419" lon="13.4837344"><ele>1114.0</ele><time>2026-03-24T14:50:14.924Z</time></trkpt><trkpt lat="42.2740683" lon="13.4834673"><ele>1114.0</ele><time>2026-03-24T14:50:15.924Z</time></trkpt><trkpt lat="42.2741028" lon="13.4831901"><ele>1114.0</ele><time>2026-03-24T14:50:16.924Z</time></trkpt><trkpt lat="42.2741485" lon="13.4829167"><ele>1115.6666666666665</ele><time>2026-03-24T14:50:17.925Z</time></trkpt><trkpt lat="42.2742162" lon="13.4826493"><ele>1117.3333333333333</ele><time>2026-03-24T14:50:18.925Z</time></trkpt><trkpt lat="42.2742961" lon="13.4823859"><ele>1119.0</ele><time>2026-03-24T14:50:19.925Z</time></trkpt><trkpt lat="42.2743764" lon="13.4821102"><ele>1120.3333333333333</ele><time>2026-03-24T14:50:20.925Z</time></trkpt><trkpt lat="42.2744319" lon="13.4818196"><ele>1121.6666666666665</ele><time>2026-03-24T14:50:21.925Z</time></trkpt><trkpt lat="42.2744798" lon="13.4815201"><ele>1123.0</ele><time>2026-03-24T14:50:22.925Z</time></trkpt><trkpt lat="42.2745192" lon="13.4812159"><ele>1123.0</ele><time>2026-03-24T14:50:23.924Z</time></trkpt><trkpt lat="42.2745542" lon="13.4809101"><ele>1123.0</ele><time>2026-03-24T14:50:24.924Z</time></trkpt><trkpt lat="42.2745681" lon="13.4805994"><ele>1122.5</ele><time>2026-03-24T14:50:25.925Z</time></trkpt><trkpt lat="42.2745572" lon="13.4802891"><ele>1122.0</ele><time>2026-03-24T14:50:26.924Z</time></trkpt><trkpt lat="42.2745322" lon="13.4799783"><ele>1122.0</ele><time>2026-03-24T14:50:27.925Z</time></trkpt><trkpt lat="42.2745097" lon="13.4796721"><ele>1122.0</ele><time>2026-03-24T14:50:28.925Z</time></trkpt><trkpt lat="42.2744847" lon="13.4793639"><ele>1121.0</ele><time>2026-03-24T14:50:29.924Z</time></trkpt><trkpt lat="42.2744583" lon="13.4790727"><ele>1120.0</ele><time>2026-03-24T14:50:30.924Z</time></trkpt><trkpt lat="42.2744356" lon="13.4787882"><ele>1119.0</ele><time>2026-03-24T14:50:31.924Z</time></trkpt><trkpt lat="42.2744171" lon="13.4785164"><ele>1119.0</ele><time>2026-03-24T14:50:32.925Z</time></trkpt><trkpt lat="42.274416" lon="13.4782546"><ele>1119.0</ele><time>2026-03-24T14:50:33.924Z</time></trkpt><trkpt lat="42.2744396" lon="13.4780089"><ele>1119.0</ele><time>2026-03-24T14:50:34.925Z</time></trkpt><trkpt lat="42.2744922" lon="13.4777719"><ele>1117.6666666666667</ele><time>2026-03-24T14:50:35.925Z</time></trkpt><trkpt lat="42.2745509" lon="13.4775398"><ele>1116.3333333333335</ele><time>2026-03-24T14:50:36.924Z</time></trkpt><trkpt lat="42.2746209" lon="13.477325"><ele>1115.0</ele><time>2026-03-24T14:50:37.924Z</time></trkpt><trkpt lat="42.2746949" lon="13.4771439"><ele>1111.25</ele><time>2026-03-24T14:50:38.925Z</time></trkpt><trkpt lat="42.2747956" lon="13.4769995"><ele>1107.5</ele><time>2026-03-24T14:50:39.924Z</time></trkpt><trkpt lat="42.2749175" lon="13.4768978"><ele>1103.75</ele><time>2026-03-24T14:50:40.924Z</time></trkpt><trkpt lat="42.2750617" lon="13.4768453"><ele>1100.0</ele><time>2026-03-24T14:50:41.924Z</time></trkpt><trkpt lat="42.2752123" lon="13.4768464"><ele>1100.0</ele><time>2026-03-24T14:50:42.924Z</time></trkpt><trkpt lat="42.2753459" lon="13.4769006"><ele>1100.0</ele><time>2026-03-24T14:50:43.924Z</time></trkpt><trkpt lat="42.2754644" lon="13.477001"><ele>1100.0</ele><time>2026-03-24T14:50:44.924Z</time></trkpt><trkpt lat="42.2755645" lon="13.477135"><ele>1100.0</ele><time>2026-03-24T14:50:45.924Z</time></trkpt><trkpt lat="42.2756388" lon="13.4772947"><ele>1098.75</ele><time>2026-03-24T14:50:46.924Z</time></trkpt><trkpt lat="42.2756756" lon="13.4774659"><ele>1097.5</ele><time>2026-03-24T14:50:47.924Z</time></trkpt><trkpt lat="42.2756767" lon="13.4776521"><ele>1096.25</ele><time>2026-03-24T14:50:48.924Z</time></trkpt><trkpt lat="42.2756499" lon="13.477846"><ele>1095.0</ele><time>2026-03-24T14:50:49.925Z</time></trkpt><trkpt lat="42.2756022" lon="13.4780595"><ele>1095.0</ele><time>2026-03-24T14:50:50.924Z</time></trkpt><trkpt lat="42.2755498" lon="13.478287"><ele>1095.0</ele><time>2026-03-24T14:50:51.924Z</time></trkpt><trkpt lat="42.2754994" lon="13.4785363"><ele>1095.0</ele><time>2026-03-24T14:50:52.924Z</time></trkpt><trkpt lat="42.2754497" lon="13.4788043"><ele>1095.0</ele><time>2026-03-24T14:50:53.925Z</time></trkpt><trkpt lat="42.2753957" lon="13.4790809"><ele>1095.0</ele><time>2026-03-24T14:50:54.924Z</time></trkpt><trkpt lat="42.275332" lon="13.479367"><ele>1095.0</ele><time>2026-03-24T14:50:55.924Z</time></trkpt><trkpt lat="42.2752679" lon="13.4796574"><ele>1095.0</ele><time>2026-03-24T14:50:56.924Z</time></trkpt><trkpt lat="42.2752064" lon="13.4799327"><ele>1095.0</ele><time>2026-03-24T14:50:57.925Z</time></trkpt><trkpt lat="42.2751454" lon="13.480196"><ele>1095.0</ele><time>2026-03-24T14:50:58.925Z</time></trkpt><trkpt lat="42.2750947" lon="13.4804522"><ele>1094.6666666666667</ele><time>2026-03-24T14:50:59.924Z</time></trkpt><trkpt lat="42.275041" lon="13.4806781"><ele>1094.3333333333335</ele><time>2026-03-24T14:51:00.925Z</time></trkpt><trkpt lat="42.2749897" lon="13.4808725"><ele>1094.0</ele><time>2026-03-24T14:51:01.924Z</time></trkpt><trkpt lat="42.2749398" lon="13.4810436"><ele>1094.0</ele><time>2026-03-24T14:51:02.925Z</time></trkpt><trkpt lat="42.2749103" lon="13.4811766"><ele>1094.0</ele><time>2026-03-24T14:51:03.925Z</time></trkpt><trkpt lat="42.2749325" lon="13.4813201"><ele>1094.0</ele><time>2026-03-24T14:51:04.924Z</time></trkpt><trkpt lat="42.2749712" lon="13.4814256"><ele>1094.0</ele><time>2026-03-24T14:51:05.924Z</time></trkpt><trkpt lat="42.2750481" lon="13.481497"><ele>1094.0</ele><time>2026-03-24T14:51:06.924Z</time></trkpt><trkpt lat="42.2751371" lon="13.4815137"><ele>1094.0</ele><time>2026-03-24T14:51:07.924Z</time></trkpt><trkpt lat="42.2752267" lon="13.4814779"><ele>1094.0</ele><time>2026-03-24T14:51:08.924Z</time></trkpt><trkpt lat="42.2752978" lon="13.4813906"><ele>1094.0</ele><time>2026-03-24T14:51:09.925Z</time></trkpt><trkpt lat="42.2753561" lon="13.4812553"><ele>1094.0</ele><time>2026-03-24T14:51:10.924Z</time></trkpt><trkpt lat="42.2754142" lon="13.4810871"><ele>1094.0</ele><time>2026-03-24T14:51:11.924Z</time></trkpt><trkpt lat="42.2754732" lon="13.4808934"><ele>1094.0</ele><time>2026-03-24T14:51:12.924Z</time></trkpt><trkpt lat="42.2755346" lon="13.4806904"><ele>1094.0</ele><time>2026-03-24T14:51:13.925Z</time></trkpt><trkpt lat="42.2755988" lon="13.480472"><ele>1094.0</ele><time>2026-03-24T14:51:14.924Z</time></trkpt><trkpt lat="42.2756675" lon="13.4802351"><ele>1088.6666666666667</ele><time>2026-03-24T14:51:15.924Z</time></trkpt><trkpt lat="42.275747" lon="13.4799927"><ele>1083.3333333333333</ele><time>2026-03-24T14:51:16.924Z</time></trkpt><trkpt lat="42.2758261" lon="13.4797535"><ele>1078.0</ele><time>2026-03-24T14:51:17.925Z</time></trkpt><trkpt lat="42.2759162" lon="13.4794919"><ele>1078.0</ele><time>2026-03-24T14:51:18.924Z</time></trkpt><trkpt lat="42.2760068" lon="13.4792168"><ele>1078.0</ele><time>2026-03-24T14:51:19.924Z</time></trkpt><trkpt lat="42.2760837" lon="13.4789323"><ele>1078.0</ele><time>2026-03-24T14:51:20.925Z</time></trkpt><trkpt lat="42.2761519" lon="13.4786401"><ele>1082.5</ele><time>2026-03-24T14:51:21.924Z</time></trkpt><trkpt lat="42.2762177" lon="13.4783339"><ele>1087.0</ele><time>2026-03-24T14:51:22.924Z</time></trkpt><trkpt lat="42.2762822" lon="13.4780339"><ele>1087.5</ele><time>2026-03-24T14:51:23.924Z</time></trkpt><trkpt lat="42.2763524" lon="13.4777255"><ele>1088.0</ele><time>2026-03-24T14:51:24.924Z</time></trkpt><trkpt lat="42.2764268" lon="13.4774084"><ele>1069.5</ele><time>2026-03-24T14:51:25.924Z</time></trkpt><trkpt lat="42.2764977" lon="13.477082"><ele>1051.0</ele><time>2026-03-24T14:51:26.925Z</time></trkpt><trkpt lat="42.2765751" lon="13.4767525"><ele>1051.0</ele><time>2026-03-24T14:51:27.924Z</time></trkpt><trkpt lat="42.276647" lon="13.476424"><ele>1051.0</ele><time>2026-03-24T14:51:28.924Z</time></trkpt><trkpt lat="42.2767124" lon="13.4760866"><ele>1056.0</ele><time>2026-03-24T14:51:29.924Z</time></trkpt><trkpt lat="42.2767709" lon="13.475745"><ele>1061.0</ele><time>2026-03-24T14:51:30.924Z</time></trkpt><trkpt lat="42.2768242" lon="13.4753978"><ele>1062.5</ele><time>2026-03-24T14:51:31.924Z</time></trkpt><trkpt lat="42.2768749" lon="13.475046"><ele>1064.0</ele><time>2026-03-24T14:51:32.924Z</time></trkpt><trkpt lat="42.2769228" lon="13.4746903"><ele>1066.5</ele><time>2026-03-24T14:51:33.924Z</time></trkpt><trkpt lat="42.2769569" lon="13.4743387"><ele>1069.0</ele><time>2026-03-24T14:51:34.924Z</time></trkpt><trkpt lat="42.2769817" lon="13.4739853"><ele>1069.5</ele><time>2026-03-24T14:51:35.924Z</time></trkpt><trkpt lat="42.2769959" lon="13.4736432"><ele>1070.0</ele><time>2026-03-24T14:51:36.924Z</time></trkpt><trkpt lat="42.2770184" lon="13.4733104"><ele>1070.0</ele><time>2026-03-24T14:51:37.925Z</time></trkpt><trkpt lat="42.2770527" lon="13.4729813"><ele>1070.0</ele><time>2026-03-24T14:51:38.924Z</time></trkpt><trkpt lat="42.277105" lon="13.4726522"><ele>1074.0</ele><time>2026-03-24T14:51:39.924Z</time></trkpt><trkpt lat="42.2771639" lon="13.4723262"><ele>1078.0</ele><time>2026-03-24T14:51:40.924Z</time></trkpt><trkpt lat="42.2772282" lon="13.4719948"><ele>1046.0</ele><time>2026-03-24T14:51:41.925Z</time></trkpt><trkpt lat="42.2772935" lon="13.4716576"><ele>1014.0</ele><time>2026-03-24T14:51:42.924Z</time></trkpt><trkpt lat="42.2773605" lon="13.4713198"><ele>1018.0</ele><time>2026-03-24T14:51:43.924Z</time></trkpt><trkpt lat="42.2774261" lon="13.4709796"><ele>1022.0</ele><time>2026-03-24T14:51:44.924Z</time></trkpt><trkpt lat="42.2774937" lon="13.4706308"><ele>1027.0</ele><time>2026-03-24T14:51:45.924Z</time></trkpt><trkpt lat="42.2775576" lon="13.4702878"><ele>1032.0</ele><time>2026-03-24T14:51:46.924Z</time></trkpt><trkpt lat="42.2776092" lon="13.4699387"><ele>1033.0</ele><time>2026-03-24T14:51:47.924Z</time></trkpt><trkpt lat="42.2776494" lon="13.4695819"><ele>1034.0</ele><time>2026-03-24T14:51:48.924Z</time></trkpt><trkpt lat="42.2776776" lon="13.4692221"><ele>1034.0</ele><time>2026-03-24T14:51:49.924Z</time></trkpt><trkpt lat="42.2777036" lon="13.4688586"><ele>1034.0</ele><time>2026-03-24T14:51:50.925Z</time></trkpt><trkpt lat="42.2777282" lon="13.4684907"><ele>1032.5</ele><time>2026-03-24T14:51:51.925Z</time></trkpt><trkpt lat="42.2777565" lon="13.4681227"><ele>1031.0</ele><time>2026-03-24T14:51:52.924Z</time></trkpt><trkpt lat="42.2777917" lon="13.4677507"><ele>1031.0</ele><time>2026-03-24T14:51:53.924Z</time></trkpt><trkpt lat="42.2778287" lon="13.4673795"><ele>1031.0</ele><time>2026-03-24T14:51:54.924Z</time></trkpt><trkpt lat="42.2778683" lon="13.4670055"><ele>1030.5</ele><time>2026-03-24T14:51:55.925Z</time></trkpt><trkpt lat="42.2779031" lon="13.4666369"><ele>1030.0</ele><time>2026-03-24T14:51:56.924Z</time></trkpt><trkpt lat="42.2779386" lon="13.4662876"><ele>1027.5</ele><time>2026-03-24T14:51:57.925Z</time></trkpt><trkpt lat="42.277975" lon="13.4659499"><ele>1025.0</ele><time>2026-03-24T14:51:58.924Z</time></trkpt><trkpt lat="42.2780114" lon="13.4656206"><ele>1022.6666666666667</ele><time>2026-03-24T14:51:59.925Z</time></trkpt><trkpt lat="42.2780523" lon="13.4653185"><ele>1020.3333333333333</ele><time>2026-03-24T14:52:00.924Z</time></trkpt><trkpt lat="42.2780995" lon="13.4650428"><ele>1018.0</ele><time>2026-03-24T14:52:01.924Z</time></trkpt><trkpt lat="42.2781496" lon="13.4647796"><ele>1004.6666666666666</ele><time>2026-03-24T14:52:02.925Z</time></trkpt><trkpt lat="42.2781869" lon="13.4645303"><ele>991.3333333333333</ele><time>2026-03-24T14:52:03.924Z</time></trkpt><trkpt lat="42.2782043" lon="13.4642829"><ele>978.0</ele><time>2026-03-24T14:52:04.925Z</time></trkpt><trkpt lat="42.278194" lon="13.464042"><ele>978.0</ele><time>2026-03-24T14:52:05.925Z</time></trkpt><trkpt lat="42.2781676" lon="13.4638097"><ele>978.0</ele><time>2026-03-24T14:52:06.924Z</time></trkpt><trkpt lat="42.278128" lon="13.463585"><ele>978.0</ele><time>2026-03-24T14:52:07.924Z</time></trkpt><trkpt lat="42.2780833" lon="13.4633626"><ele>978.0</ele><time>2026-03-24T14:52:08.924Z</time></trkpt><trkpt lat="42.2780465" lon="13.4631483"><ele>978.0</ele><time>2026-03-24T14:52:09.924Z</time></trkpt><trkpt lat="42.2780144" lon="13.462935"><ele>978.0</ele><time>2026-03-24T14:52:10.924Z</time></trkpt><trkpt lat="42.2779787" lon="13.4627224"><ele>978.0</ele><time>2026-03-24T14:52:11.924Z</time></trkpt><trkpt lat="42.2779564" lon="13.4625178"><ele>978.0</ele><time>2026-03-24T14:52:12.924Z</time></trkpt><trkpt lat="42.2779533" lon="13.4623183"><ele>978.0</ele><time>2026-03-24T14:52:13.924Z</time></trkpt><trkpt lat="42.2779756" lon="13.4621268"><ele>978.0</ele><time>2026-03-24T14:52:14.924Z</time></trkpt><trkpt lat="42.2780256" lon="13.4619374"><ele>980.6666666666667</ele><time>2026-03-24T14:52:15.924Z</time></trkpt><trkpt lat="42.2780864" lon="13.4617616"><ele>983.3333333333334</ele><time>2026-03-24T14:52:16.924Z</time></trkpt><trkpt lat="42.2781669" lon="13.4615171"><ele>986.0</ele><time>2026-03-24T14:52:17.925Z</time></trkpt><trkpt lat="42.2782428" lon="13.4612873"><ele>980.0</ele><time>2026-03-24T14:52:18.925Z</time></trkpt><trkpt lat="42.2783238" lon="13.4610513"><ele>974.0</ele><time>2026-03-24T14:52:19.925Z</time></trkpt><trkpt lat="42.2784077" lon="13.4608286"><ele>968.0</ele><time>2026-03-24T14:52:20.924Z</time></trkpt><trkpt lat="42.2785018" lon="13.4606245"><ele>969.6666666666667</ele><time>2026-03-24T14:52:21.924Z</time></trkpt><trkpt lat="42.2786073" lon="13.4604389"><ele>971.3333333333333</ele><time>2026-03-24T14:52:22.925Z</time></trkpt><trkpt lat="42.2787512" lon="13.4602726"><ele>973.0</ele><time>2026-03-24T14:52:23.924Z</time></trkpt><trkpt lat="42.2789062" lon="13.4601067"><ele>968.6666666666666</ele><time>2026-03-24T14:52:24.925Z</time></trkpt><trkpt lat="42.2790832" lon="13.4599469"><ele>964.3333333333333</ele><time>2026-03-24T14:52:25.925Z</time></trkpt><trkpt lat="42.2792666" lon="13.4598015"><ele>960.0</ele><time>2026-03-24T14:52:26.924Z</time></trkpt><trkpt lat="42.2794402" lon="13.4596797"><ele>962.6666666666667</ele><time>2026-03-24T14:52:27.925Z</time></trkpt><trkpt lat="42.2796055" lon="13.4595941"><ele>965.3333333333334</ele><time>2026-03-24T14:52:28.925Z</time></trkpt><trkpt lat="42.2797741" lon="13.4595317"><ele>968.0</ele><time>2026-03-24T14:52:29.924Z</time></trkpt><trkpt lat="42.2799448" lon="13.4594984"><ele>968.0</ele><time>2026-03-24T14:52:30.925Z</time></trkpt><trkpt lat="42.2801139" lon="13.4594865"><ele>968.0</ele><time>2026-03-24T14:52:31.924Z</time></trkpt><trkpt lat="42.2802672" lon="13.4595002"><ele>968.0</ele><time>2026-03-24T14:52:32.925Z</time></trkpt><trkpt lat="42.2804158" lon="13.4595166"><ele>968.0</ele><time>2026-03-24T14:52:33.924Z</time></trkpt><trkpt lat="42.2805471" lon="13.4594985"><ele>968.0</ele><time>2026-03-24T14:52:34.924Z</time></trkpt><trkpt lat="42.2806763" lon="13.4594677"><ele>968.0</ele><time>2026-03-24T14:52:35.924Z</time></trkpt><trkpt lat="42.2807863" lon="13.4593824"><ele>968.0</ele><time>2026-03-24T14:52:36.924Z</time></trkpt><trkpt lat="42.280889" lon="13.4592813"><ele>965.8333333333334</ele><time>2026-03-24T14:52:37.924Z</time></trkpt><trkpt lat="42.280966" lon="13.4591768"><ele>963.6666666666667</ele><time>2026-03-24T14:52:38.924Z</time></trkpt><trkpt lat="42.2810146" lon="13.4591095"><ele>961.5</ele><time>2026-03-24T14:52:39.924Z</time></trkpt><trkpt lat="42.2810844" lon="13.4590877"><ele>959.3333333333333</ele><time>2026-03-24T14:52:41.925Z</time></trkpt><trkpt lat="42.2810985" lon="13.4591947"><ele>957.1666666666666</ele><time>2026-03-24T14:52:43.924Z</time></trkpt><trkpt lat="42.2810605" lon="13.4592768"><ele>955.0</ele><time>2026-03-24T14:52:44.924Z</time></trkpt><trkpt lat="42.2810036" lon="13.4593778"><ele>955.0</ele><time>2026-03-24T14:52:45.925Z</time></trkpt><trkpt lat="42.2809166" lon="13.4594985"><ele>955.0</ele><time>2026-03-24T14:52:46.925Z</time></trkpt><trkpt lat="42.2808026" lon="13.4596023"><ele>955.0</ele><time>2026-03-24T14:52:47.924Z</time></trkpt><trkpt lat="42.2806765" lon="13.4596833"><ele>955.0</ele><time>2026-03-24T14:52:48.924Z</time></trkpt><trkpt lat="42.280545" lon="13.4597648"><ele>953.0</ele><time>2026-03-24T14:52:49.924Z</time></trkpt><trkpt lat="42.2803651" lon="13.4598119"><ele>951.0</ele><time>2026-03-24T14:52:50.925Z</time></trkpt><trkpt lat="42.2801854" lon="13.4598617"><ele>949.0</ele><time>2026-03-24T14:52:51.924Z</time></trkpt><trkpt lat="42.2800038" lon="13.4599144"><ele>949.0</ele><time>2026-03-24T14:52:52.924Z</time></trkpt><trkpt lat="42.2798557" lon="13.4599844"><ele>949.0</ele><time>2026-03-24T14:52:53.925Z</time></trkpt><trkpt lat="42.2797241" lon="13.4600839"><ele>949.0</ele><time>2026-03-24T14:52:54.925Z</time></trkpt><trkpt lat="42.2796122" lon="13.4602158"><ele>949.25</ele><time>2026-03-24T14:52:55.924Z</time></trkpt><trkpt lat="42.2795152" lon="13.4603614"><ele>949.5</ele><time>2026-03-24T14:52:56.924Z</time></trkpt><trkpt lat="42.2794354" lon="13.4605217"><ele>949.75</ele><time>2026-03-24T14:52:57.924Z</time></trkpt><trkpt lat="42.2793739" lon="13.4606914"><ele>950.0</ele><time>2026-03-24T14:52:58.924Z</time></trkpt><trkpt lat="42.2793454" lon="13.4608701"><ele>950.0</ele><time>2026-03-24T14:52:59.924Z</time></trkpt><trkpt lat="42.2793548" lon="13.4610628"><ele>950.0</ele><time>2026-03-24T14:53:00.924Z</time></trkpt><trkpt lat="42.2793975" lon="13.4612675"><ele>950.0</ele><time>2026-03-24T14:53:01.924Z</time></trkpt><trkpt lat="42.2794625" lon="13.4614842"><ele>948.6666666666667</ele><time>2026-03-24T14:53:02.925Z</time></trkpt><trkpt lat="42.2795323" lon="13.4617222"><ele>947.3333333333333</ele><time>2026-03-24T14:53:03.924Z</time></trkpt><trkpt lat="42.2796037" lon="13.4619714"><ele>946.0</ele><time>2026-03-24T14:53:04.924Z</time></trkpt><trkpt lat="42.2796715" lon="13.4622303"><ele>945.0</ele><time>2026-03-24T14:53:05.924Z</time></trkpt><trkpt lat="42.2797216" lon="13.4625025"><ele>944.0</ele><time>2026-03-24T14:53:06.924Z</time></trkpt><trkpt lat="42.2797612" lon="13.4627943"><ele>943.0</ele><time>2026-03-24T14:53:07.925Z</time></trkpt><trkpt lat="42.2797899" lon="13.4630938"><ele>935.5</ele><time>2026-03-24T14:53:08.924Z</time></trkpt><trkpt lat="42.2798018" lon="13.4634019"><ele>928.0</ele><time>2026-03-24T14:53:09.924Z</time></trkpt><trkpt lat="42.2798033" lon="13.4637173"><ele>925.5</ele><time>2026-03-24T14:53:10.924Z</time></trkpt><trkpt lat="42.2797959" lon="13.4640415"><ele>923.0</ele><time>2026-03-24T14:53:11.924Z</time></trkpt><trkpt lat="42.2797811" lon="13.4643711"><ele>919.5</ele><time>2026-03-24T14:53:12.924Z</time></trkpt><trkpt lat="42.2797732" lon="13.4646969"><ele>916.0</ele><time>2026-03-24T14:53:13.925Z</time></trkpt><trkpt lat="42.2797659" lon="13.4650224"><ele>913.5</ele><time>2026-03-24T14:53:14.924Z</time></trkpt><trkpt lat="42.2797647" lon="13.4653447"><ele>911.0</ele><time>2026-03-24T14:53:15.924Z</time></trkpt><trkpt lat="42.2797766" lon="13.4656725"><ele>911.0</ele><time>2026-03-24T14:53:16.925Z</time></trkpt><trkpt lat="42.2798059" lon="13.4659968"><ele>911.0</ele><time>2026-03-24T14:53:17.924Z</time></trkpt><trkpt lat="42.2798474" lon="13.4663216"><ele>909.5</ele><time>2026-03-24T14:53:18.924Z</time></trkpt><trkpt lat="42.2798956" lon="13.4666502"><ele>908.0</ele><time>2026-03-24T14:53:19.924Z</time></trkpt><trkpt lat="42.2799496" lon="13.4669846"><ele>907.0</ele><time>2026-03-24T14:53:20.924Z</time></trkpt><trkpt lat="42.2800042" lon="13.4673015"><ele>906.0</ele><time>2026-03-24T14:53:21.924Z</time></trkpt><trkpt lat="42.2800654" lon="13.4676177"><ele>906.0</ele><time>2026-03-24T14:53:22.925Z</time></trkpt><trkpt lat="42.2801236" lon="13.4679259"><ele>906.0</ele><time>2026-03-24T14:53:23.925Z</time></trkpt><trkpt lat="42.2801746" lon="13.468237"><ele>906.0</ele><time>2026-03-24T14:53:24.924Z</time></trkpt><trkpt lat="42.2802178" lon="13.4685476"><ele>906.0</ele><time>2026-03-24T14:53:25.924Z</time></trkpt><trkpt lat="42.2802444" lon="13.4688508"><ele>905.3333333333333</ele><time>2026-03-24T14:53:26.924Z</time></trkpt><trkpt lat="42.2802573" lon="13.4691387"><ele>904.6666666666666</ele><time>2026-03-24T14:53:27.924Z</time></trkpt><trkpt lat="42.2802615" lon="13.4693921"><ele>904.0</ele><time>2026-03-24T14:53:28.924Z</time></trkpt><trkpt lat="42.2802678" lon="13.4696234"><ele>902.6666666666666</ele><time>2026-03-24T14:53:29.925Z</time></trkpt><trkpt lat="42.2802866" lon="13.4698393"><ele>901.3333333333333</ele><time>2026-03-24T14:53:30.924Z</time></trkpt><trkpt lat="42.280339" lon="13.4700424"><ele>900.0</ele><time>2026-03-24T14:53:31.925Z</time></trkpt><trkpt lat="42.2804269" lon="13.4702173"><ele>900.0</ele><time>2026-03-24T14:53:32.925Z</time></trkpt><trkpt lat="42.2805535" lon="13.4703666"><ele>900.0</ele><time>2026-03-24T14:53:33.924Z</time></trkpt><trkpt lat="42.2807035" lon="13.4704961"><ele>900.0</ele><time>2026-03-24T14:53:34.924Z</time></trkpt><trkpt lat="42.2808549" lon="13.4706373"><ele>895.3333333333333</ele><time>2026-03-24T14:53:35.924Z</time></trkpt><trkpt lat="42.2810077" lon="13.4707806"><ele>890.6666666666666</ele><time>2026-03-24T14:53:36.924Z</time></trkpt><trkpt lat="42.2811513" lon="13.4709429"><ele>886.0</ele><time>2026-03-24T14:53:37.925Z</time></trkpt><trkpt lat="42.2812881" lon="13.4711273"><ele>883.6666666666666</ele><time>2026-03-24T14:53:38.924Z</time></trkpt><trkpt lat="42.281416" lon="13.4713231"><ele>881.3333333333333</ele><time>2026-03-24T14:53:39.925Z</time></trkpt><trkpt lat="42.2815446" lon="13.4715246"><ele>879.0</ele><time>2026-03-24T14:53:40.924Z</time></trkpt><trkpt lat="42.2816707" lon="13.4717179"><ele>878.3333333333333</ele><time>2026-03-24T14:53:41.924Z</time></trkpt><trkpt lat="42.2818026" lon="13.4718981"><ele>877.6666666666666</ele><time>2026-03-24T14:53:42.924Z</time></trkpt><trkpt lat="42.2819485" lon="13.47206"><ele>877.0</ele><time>2026-03-24T14:53:43.924Z</time></trkpt><trkpt lat="42.2821092" lon="13.4721985"><ele>874.3333333333333</ele><time>2026-03-24T14:53:44.925Z</time></trkpt><trkpt lat="42.2822696" lon="13.4723131"><ele>871.6666666666667</ele><time>2026-03-24T14:53:45.924Z</time></trkpt><trkpt lat="42.2824203" lon="13.4724252"><ele>869.0</ele><time>2026-03-24T14:53:46.925Z</time></trkpt><trkpt lat="42.2825649" lon="13.4725409"><ele>869.0</ele><time>2026-03-24T14:53:47.924Z</time></trkpt><trkpt lat="42.2826989" lon="13.472677"><ele>869.0</ele><time>2026-03-24T14:53:48.924Z</time></trkpt><trkpt lat="42.2828272" lon="13.4728281"><ele>869.0</ele><time>2026-03-24T14:53:49.925Z</time></trkpt><trkpt lat="42.2829473" lon="13.4730159"><ele>866.6666666666667</ele><time>2026-03-24T14:53:50.924Z</time></trkpt><trkpt lat="42.2830678" lon="13.473224"><ele>864.3333333333333</ele><time>2026-03-24T14:53:51.924Z</time></trkpt><trkpt lat="42.2831869" lon="13.4734471"><ele>862.0</ele><time>2026-03-24T14:53:52.924Z</time></trkpt><trkpt lat="42.2833049" lon="13.4736708"><ele>859.0</ele><time>2026-03-24T14:53:53.925Z</time></trkpt><trkpt lat="42.2834234" lon="13.4738862"><ele>856.0</ele><time>2026-03-24T14:53:54.924Z</time></trkpt><trkpt lat="42.28353" lon="13.4740845"><ele>853.0</ele><time>2026-03-24T14:53:55.924Z</time></trkpt><trkpt lat="42.2836294" lon="13.4742628"><ele>853.0</ele><time>2026-03-24T14:53:56.924Z</time></trkpt><trkpt lat="42.2837245" lon="13.4744304"><ele>853.0</ele><time>2026-03-24T14:53:57.925Z</time></trkpt><trkpt lat="42.283817" lon="13.4745956"><ele>853.0</ele><time>2026-03-24T14:53:58.924Z</time></trkpt><trkpt lat="42.2838983" lon="13.474746"><ele>853.0</ele><time>2026-03-24T14:53:59.925Z</time></trkpt><trkpt lat="42.2839697" lon="13.4748701"><ele>852.4</ele><time>2026-03-24T14:54:00.925Z</time></trkpt><trkpt lat="42.2840314" lon="13.4749748"><ele>851.8</ele><time>2026-03-24T14:54:01.925Z</time></trkpt><trkpt lat="42.2840967" lon="13.4750845"><ele>851.2</ele><time>2026-03-24T14:54:02.924Z</time></trkpt><trkpt lat="42.2841676" lon="13.4752019"><ele>850.6</ele><time>2026-03-24T14:54:03.924Z</time></trkpt><trkpt lat="42.2842356" lon="13.4753288"><ele>850.0</ele><time>2026-03-24T14:54:04.925Z</time></trkpt><trkpt lat="42.2843028" lon="13.4754631"><ele>848.0</ele><time>2026-03-24T14:54:05.925Z</time></trkpt><trkpt lat="42.2843662" lon="13.4755865"><ele>846.0</ele><time>2026-03-24T14:54:06.925Z</time></trkpt><trkpt lat="42.2844261" lon="13.4756958"><ele>844.0</ele><time>2026-03-24T14:54:07.924Z</time></trkpt><trkpt lat="42.284478" lon="13.47579"><ele>842.0</ele><time>2026-03-24T14:54:08.924Z</time></trkpt><trkpt lat="42.2845152" lon="13.4758771"><ele>840.0</ele><time>2026-03-24T14:54:09.924Z</time></trkpt><trkpt lat="42.284549" lon="13.4760013"><ele>840.0</ele><time>2026-03-24T14:54:11.924Z</time></trkpt><trkpt lat="42.2845096" lon="13.4761246"><ele>840.0</ele><time>2026-03-24T14:54:13.924Z</time></trkpt><trkpt lat="42.2844656" lon="13.4761939"><ele>840.0</ele><time>2026-03-24T14:54:14.924Z</time></trkpt><trkpt lat="42.2844137" lon="13.476264"><ele>840.0</ele><time>2026-03-24T14:54:15.924Z</time></trkpt><trkpt lat="42.2843666" lon="13.476362"><ele>840.0</ele><time>2026-03-24T14:54:16.925Z</time></trkpt><trkpt lat="42.2843243" lon="13.4764685"><ele>840.0</ele><time>2026-03-24T14:54:17.924Z</time></trkpt><trkpt lat="42.2843028" lon="13.4765841"><ele>837.5</ele><time>2026-03-24T14:54:18.924Z</time></trkpt><trkpt lat="42.2843045" lon="13.4767113"><ele>835.0</ele><time>2026-03-24T14:54:19.924Z</time></trkpt><trkpt lat="42.2843451" lon="13.4768656"><ele>832.5</ele><time>2026-03-24T14:54:20.924Z</time></trkpt><trkpt lat="42.2843873" lon="13.4770287"><ele>830.0</ele><time>2026-03-24T14:54:21.924Z</time></trkpt><trkpt lat="42.2844263" lon="13.4771771"><ele>828.2</ele><time>2026-03-24T14:54:22.925Z</time></trkpt><trkpt lat="42.2844548" lon="13.4773067"><ele>826.4</ele><time>2026-03-24T14:54:23.925Z</time></trkpt><trkpt lat="42.284461" lon="13.4774569"><ele>824.5999999999999</ele><time>2026-03-24T14:54:24.924Z</time></trkpt><trkpt lat="42.2844611" lon="13.4776193"><ele>822.8</ele><time>2026-03-24T14:54:25.924Z</time></trkpt><trkpt lat="42.2844771" lon="13.4777769"><ele>821.0</ele><time>2026-03-24T14:54:26.924Z</time></trkpt><trkpt lat="42.2845035" lon="13.4779172"><ele>820.0</ele><time>2026-03-24T14:54:27.925Z</time></trkpt><trkpt lat="42.2845209" lon="13.4780277"><ele>819.0</ele><time>2026-03-24T14:54:28.924Z</time></trkpt><trkpt lat="42.2845247" lon="13.4781176"><ele>818.0</ele><time>2026-03-24T14:54:29.924Z</time></trkpt><trkpt lat="42.2845034" lon="13.4782313"><ele>817.0</ele><time>2026-03-24T14:54:30.925Z</time></trkpt><trkpt lat="42.2844698" lon="13.4783672"><ele>816.0</ele><time>2026-03-24T14:54:31.924Z</time></trkpt><trkpt lat="42.2844242" lon="13.4785234"><ele>816.0</ele><time>2026-03-24T14:54:32.924Z</time></trkpt><trkpt lat="42.2843914" lon="13.4787042"><ele>816.0</ele><time>2026-03-24T14:54:33.925Z</time></trkpt><trkpt lat="42.2843732" lon="13.4788811"><ele>816.0</ele><time>2026-03-24T14:54:34.924Z</time></trkpt><trkpt lat="42.2843418" lon="13.4790441"><ele>816.0</ele><time>2026-03-24T14:54:35.924Z</time></trkpt><trkpt lat="42.2843123" lon="13.4792154"><ele>815.0</ele><time>2026-03-24T14:54:36.924Z</time></trkpt><trkpt lat="42.284251" lon="13.4793679"><ele>814.0</ele><time>2026-03-24T14:54:37.924Z</time></trkpt><trkpt lat="42.2841702" lon="13.4795303"><ele>813.0</ele><time>2026-03-24T14:54:38.924Z</time></trkpt><trkpt lat="42.2840774" lon="13.4796936"><ele>812.0</ele><time>2026-03-24T14:54:39.924Z</time></trkpt><trkpt lat="42.2839754" lon="13.4798791"><ele>810.3333333333334</ele><time>2026-03-24T14:54:40.925Z</time></trkpt><trkpt lat="42.2838698" lon="13.4800522"><ele>808.6666666666667</ele><time>2026-03-24T14:54:41.924Z</time></trkpt><trkpt lat="42.2837744" lon="13.4802195"><ele>807.0</ele><time>2026-03-24T14:54:42.924Z</time></trkpt><trkpt lat="42.2836855" lon="13.4803792"><ele>806.5</ele><time>2026-03-24T14:54:43.924Z</time></trkpt><trkpt lat="42.2835988" lon="13.480509"><ele>806.0</ele><time>2026-03-24T14:54:44.925Z</time></trkpt><trkpt lat="42.2835093" lon="13.4806282"><ele>805.5</ele><time>2026-03-24T14:54:45.925Z</time></trkpt><trkpt lat="42.2834067" lon="13.4807188"><ele>805.0</ele><time>2026-03-24T14:54:46.925Z</time></trkpt><trkpt lat="42.2833041" lon="13.4807936"><ele>805.0</ele><time>2026-03-24T14:54:47.925Z</time></trkpt><trkpt lat="42.2832196" lon="13.4808848"><ele>805.0</ele><time>2026-03-24T14:54:48.924Z</time></trkpt><trkpt lat="42.2831505" lon="13.4809863"><ele>805.0</ele><time>2026-03-24T14:54:49.924Z</time></trkpt><trkpt lat="42.2831219" lon="13.4811204"><ele>805.0</ele><time>2026-03-24T14:54:50.924Z</time></trkpt><trkpt lat="42.2831178" lon="13.4812643"><ele>805.0</ele><time>2026-03-24T14:54:51.925Z</time></trkpt><trkpt lat="42.2831446" lon="13.4814133"><ele>804.75</ele><time>2026-03-24T14:54:52.924Z</time></trkpt><trkpt lat="42.2831724" lon="13.4815738"><ele>804.5</ele><time>2026-03-24T14:54:53.925Z</time></trkpt><trkpt lat="42.2831954" lon="13.4817485"><ele>804.25</ele><time>2026-03-24T14:54:54.924Z</time></trkpt><trkpt lat="42.2832187" lon="13.4819242"><ele>804.0</ele><time>2026-03-24T14:54:55.925Z</time></trkpt><trkpt lat="42.2831809" lon="13.4821407"><ele>802.3333333333333</ele><time>2026-03-24T14:54:56.925Z</time></trkpt><trkpt lat="42.2831671" lon="13.4823498"><ele>800.6666666666666</ele><time>2026-03-24T14:54:57.924Z</time></trkpt><trkpt lat="42.2831699" lon="13.4825586"><ele>799.0</ele><time>2026-03-24T14:54:58.924Z</time></trkpt><trkpt lat="42.2831918" lon="13.4827632"><ele>796.6666666666666</ele><time>2026-03-24T14:54:59.925Z</time></trkpt><trkpt lat="42.283218" lon="13.4829766"><ele>794.3333333333333</ele><time>2026-03-24T14:55:00.924Z</time></trkpt><trkpt lat="42.2832425" lon="13.4831807"><ele>792.0</ele><time>2026-03-24T14:55:01.924Z</time></trkpt><trkpt lat="42.2832621" lon="13.4833749"><ele>792.0</ele><time>2026-03-24T14:55:02.924Z</time></trkpt><trkpt lat="42.2832646" lon="13.483558"><ele>792.0</ele><time>2026-03-24T14:55:03.924Z</time></trkpt><trkpt lat="42.2832381" lon="13.4837458"><ele>792.0</ele><time>2026-03-24T14:55:04.925Z</time></trkpt><trkpt lat="42.2831973" lon="13.4839482"><ele>792.0</ele><time>2026-03-24T14:55:05.925Z</time></trkpt><trkpt lat="42.2831486" lon="13.4841342"><ele>789.0</ele><time>2026-03-24T14:55:06.925Z</time></trkpt><trkpt lat="42.2830671" lon="13.4843496"><ele>786.0</ele><time>2026-03-24T14:55:07.924Z</time></trkpt><trkpt lat="42.2830186" lon="13.4845781"><ele>783.0</ele><time>2026-03-24T14:55:08.924Z</time></trkpt><trkpt lat="42.2829899" lon="13.4848278"><ele>782.0</ele><time>2026-03-24T14:55:09.925Z</time></trkpt><trkpt lat="42.2829646" lon="13.485085"><ele>781.0</ele><time>2026-03-24T14:55:10.924Z</time></trkpt><trkpt lat="42.2829456" lon="13.4853271"><ele>780.0</ele><time>2026-03-24T14:55:11.925Z</time></trkpt><trkpt lat="42.2829344" lon="13.4855495"><ele>778.0</ele><time>2026-03-24T14:55:12.924Z</time></trkpt><trkpt lat="42.2829096" lon="13.4857493"><ele>776.0</ele><time>2026-03-24T14:55:13.924Z</time></trkpt><trkpt lat="42.2828705" lon="13.4859457"><ele>774.0</ele><time>2026-03-24T14:55:14.924Z</time></trkpt><trkpt lat="42.2828101" lon="13.4861428"><ele>772.6666666666667</ele><time>2026-03-24T14:55:15.924Z</time></trkpt><trkpt lat="42.2827339" lon="13.4863608"><ele>771.3333333333334</ele><time>2026-03-24T14:55:16.924Z</time></trkpt><trkpt lat="42.2826626" lon="13.4865812"><ele>770.0</ele><time>2026-03-24T14:55:17.924Z</time></trkpt><trkpt lat="42.2825936" lon="13.4868059"><ele>770.0</ele><time>2026-03-24T14:55:18.924Z</time></trkpt><trkpt lat="42.2825519" lon="13.4870258"><ele>770.0</ele><time>2026-03-24T14:55:19.924Z</time></trkpt><trkpt lat="42.28251" lon="13.4872169"><ele>770.0</ele><time>2026-03-24T14:55:20.925Z</time></trkpt><trkpt lat="42.2824825" lon="13.4873977"><ele>769.25</ele><time>2026-03-24T14:55:21.924Z</time></trkpt><trkpt lat="42.2824637" lon="13.48756"><ele>768.5</ele><time>2026-03-24T14:55:22.924Z</time></trkpt><trkpt lat="42.2824694" lon="13.4877371"><ele>767.75</ele><time>2026-03-24T14:55:23.924Z</time></trkpt><trkpt lat="42.2825015" lon="13.4879261"><ele>767.0</ele><time>2026-03-24T14:55:24.925Z</time></trkpt><trkpt lat="42.2825474" lon="13.4881285"><ele>764.0</ele><time>2026-03-24T14:55:25.924Z</time></trkpt><trkpt lat="42.2825971" lon="13.4883512"><ele>761.0</ele><time>2026-03-24T14:55:26.924Z</time></trkpt><trkpt lat="42.2826505" lon="13.4885865"><ele>758.0</ele><time>2026-03-24T14:55:27.925Z</time></trkpt><trkpt lat="42.2827001" lon="13.4888158"><ele>755.3333333333333</ele><time>2026-03-24T14:55:28.924Z</time></trkpt><trkpt lat="42.2827529" lon="13.4890417"><ele>752.6666666666666</ele><time>2026-03-24T14:55:29.924Z</time></trkpt><trkpt lat="42.2827904" lon="13.4892636"><ele>750.0</ele><time>2026-03-24T14:55:30.924Z</time></trkpt><trkpt lat="42.2828025" lon="13.4894786"><ele>747.6666666666666</ele><time>2026-03-24T14:55:31.924Z</time></trkpt><trkpt lat="42.2827954" lon="13.4896896"><ele>745.3333333333333</ele><time>2026-03-24T14:55:32.925Z</time></trkpt><trkpt lat="42.2827861" lon="13.4899018"><ele>743.0</ele><time>2026-03-24T14:55:33.924Z</time></trkpt><trkpt lat="42.2827962" lon="13.4901155"><ele>743.0</ele><time>2026-03-24T14:55:34.925Z</time></trkpt><trkpt lat="42.2828075" lon="13.4903325"><ele>743.0</ele><time>2026-03-24T14:55:35.924Z</time></trkpt><trkpt lat="42.2828121" lon="13.4905442"><ele>743.0</ele><time>2026-03-24T14:55:36.924Z</time></trkpt><trkpt lat="42.2827973" lon="13.4907474"><ele>742.0</ele><time>2026-03-24T14:55:37.925Z</time></trkpt><trkpt lat="42.2827632" lon="13.4909333"><ele>741.0</ele><time>2026-03-24T14:55:38.924Z</time></trkpt><trkpt lat="42.2827092" lon="13.4911054"><ele>740.0</ele><time>2026-03-24T14:55:39.924Z</time></trkpt><trkpt lat="42.2826321" lon="13.4912703"><ele>739.0</ele><time>2026-03-24T14:55:40.924Z</time></trkpt><trkpt lat="42.28255" lon="13.4914315"><ele>738.0</ele><time>2026-03-24T14:55:41.924Z</time></trkpt><trkpt lat="42.2824833" lon="13.4916021"><ele>737.0</ele><time>2026-03-24T14:55:42.924Z</time></trkpt><trkpt lat="42.2824358" lon="13.4917817"><ele>736.0</ele><time>2026-03-24T14:55:43.924Z</time></trkpt><trkpt lat="42.2823995" lon="13.4919597"><ele>735.0</ele><time>2026-03-24T14:55:44.925Z</time></trkpt><trkpt lat="42.2823991" lon="13.4921638"><ele>733.0</ele><time>2026-03-24T14:55:45.924Z</time></trkpt><trkpt lat="42.2824109" lon="13.4924002"><ele>731.0</ele><time>2026-03-24T14:55:46.924Z</time></trkpt><trkpt lat="42.2824279" lon="13.4926509"><ele>729.0</ele><time>2026-03-24T14:55:47.924Z</time></trkpt><trkpt lat="42.2824512" lon="13.4928926"><ele>727.3333333333334</ele><time>2026-03-24T14:55:48.924Z</time></trkpt><trkpt lat="42.2824782" lon="13.4931133"><ele>725.6666666666667</ele><time>2026-03-24T14:55:49.924Z</time></trkpt><trkpt lat="42.2825099" lon="13.4933237"><ele>724.0</ele><time>2026-03-24T14:55:50.925Z</time></trkpt><trkpt lat="42.2825504" lon="13.4935203"><ele>724.0</ele><time>2026-03-24T14:55:51.924Z</time></trkpt><trkpt lat="42.2825966" lon="13.4936861"><ele>724.0</ele><time>2026-03-24T14:55:52.925Z</time></trkpt><trkpt lat="42.2826479" lon="13.4938295"><ele>724.0</ele><time>2026-03-24T14:55:53.924Z</time></trkpt><trkpt lat="42.2827129" lon="13.4939631"><ele>724.0</ele><time>2026-03-24T14:55:54.924Z</time></trkpt><trkpt lat="42.2828076" lon="13.4940573"><ele>724.0</ele><time>2026-03-24T14:55:55.924Z</time></trkpt><trkpt lat="42.2829205" lon="13.4941192"><ele>724.0</ele><time>2026-03-24T14:55:56.925Z</time></trkpt><trkpt lat="42.2830434" lon="13.4941581"><ele>724.0</ele><time>2026-03-24T14:55:57.924Z</time></trkpt><trkpt lat="42.283184" lon="13.494198"><ele>724.0</ele><time>2026-03-24T14:55:58.924Z</time></trkpt><trkpt lat="42.2833277" lon="13.4942355"><ele>724.0</ele><time>2026-03-24T14:55:59.924Z</time></trkpt><trkpt lat="42.2834859" lon="13.4942828"><ele>724.0</ele><time>2026-03-24T14:56:00.924Z</time></trkpt><trkpt lat="42.2836531" lon="13.4943232"><ele>724.0</ele><time>2026-03-24T14:56:01.924Z</time></trkpt><trkpt lat="42.2838146" lon="13.4943608"><ele>724.25</ele><time>2026-03-24T14:56:02.924Z</time></trkpt><trkpt lat="42.2839599" lon="13.4944022"><ele>724.5</ele><time>2026-03-24T14:56:03.924Z</time></trkpt><trkpt lat="42.284095" lon="13.4944402"><ele>724.75</ele><time>2026-03-24T14:56:04.925Z</time></trkpt><trkpt lat="42.2842078" lon="13.4944656"><ele>725.0</ele><time>2026-03-24T14:56:05.925Z</time></trkpt><trkpt lat="42.2843064" lon="13.4944778"><ele>725.0</ele><time>2026-03-24T14:56:06.924Z</time></trkpt><trkpt lat="42.2843881" lon="13.4944958"><ele>725.0</ele><time>2026-03-24T14:56:07.924Z</time></trkpt><trkpt lat="42.2844689" lon="13.4945011"><ele>725.0</ele><time>2026-03-24T14:56:08.924Z</time></trkpt><trkpt lat="42.2845403" lon="13.494481"><ele>725.0</ele><time>2026-03-24T14:56:09.924Z</time></trkpt><trkpt lat="42.284592" lon="13.4944103"><ele>725.0</ele><time>2026-03-24T14:56:10.924Z</time></trkpt><trkpt lat="42.2846506" lon="13.4943143"><ele>725.0</ele><time>2026-03-24T14:56:11.925Z</time></trkpt><trkpt lat="42.2846999" lon="13.494186"><ele>725.0</ele><time>2026-03-24T14:56:12.924Z</time></trkpt><trkpt lat="42.2847534" lon="13.4940395"><ele>725.0</ele><time>2026-03-24T14:56:13.924Z</time></trkpt><trkpt lat="42.2848042" lon="13.493872"><ele>725.0</ele><time>2026-03-24T14:56:14.925Z</time></trkpt><trkpt lat="42.2848469" lon="13.4936989"><ele>725.0</ele><time>2026-03-24T14:56:15.925Z</time></trkpt><trkpt lat="42.2848831" lon="13.4935357"><ele>723.1666666666666</ele><time>2026-03-24T14:56:16.924Z</time></trkpt><trkpt lat="42.2849171" lon="13.4933913"><ele>721.3333333333333</ele><time>2026-03-24T14:56:17.924Z</time></trkpt><trkpt lat="42.2849471" lon="13.4932778"><ele>719.5</ele><time>2026-03-24T14:56:18.924Z</time></trkpt><trkpt lat="42.2849915" lon="13.493196"><ele>717.6666666666666</ele><time>2026-03-24T14:56:19.924Z</time></trkpt><trkpt lat="42.2850465" lon="13.4931293"><ele>715.8333333333334</ele><time>2026-03-24T14:56:20.924Z</time></trkpt><trkpt lat="42.2851192" lon="13.4930751"><ele>714.0</ele><time>2026-03-24T14:56:21.924Z</time></trkpt><trkpt lat="42.2852091" lon="13.4930361"><ele>714.0</ele><time>2026-03-24T14:56:22.924Z</time></trkpt><trkpt lat="42.2852888" lon="13.492946"><ele>714.0</ele><time>2026-03-24T14:56:23.924Z</time></trkpt><trkpt lat="42.2853674" lon="13.4928342"><ele>714.0</ele><time>2026-03-24T14:56:24.924Z</time></trkpt><trkpt lat="42.2854468" lon="13.4926967"><ele>714.0</ele><time>2026-03-24T14:56:25.924Z</time></trkpt><trkpt lat="42.2855275" lon="13.4925509"><ele>716.75</ele><time>2026-03-24T14:56:26.924Z</time></trkpt><trkpt lat="42.2856188" lon="13.4923999"><ele>719.5</ele><time>2026-03-24T14:56:27.925Z</time></trkpt><trkpt lat="42.2857162" lon="13.4922521"><ele>722.25</ele><time>2026-03-24T14:56:28.924Z</time></trkpt><trkpt lat="42.2858111" lon="13.4921167"><ele>725.0</ele><time>2026-03-24T14:56:29.925Z</time></trkpt><trkpt lat="42.2858971" lon="13.4920039"><ele>725.0</ele><time>2026-03-24T14:56:30.924Z</time></trkpt><trkpt lat="42.2859803" lon="13.4919112"><ele>725.0</ele><time>2026-03-24T14:56:31.924Z</time></trkpt><trkpt lat="42.2860704" lon="13.4918386"><ele>725.0</ele><time>2026-03-24T14:56:32.925Z</time></trkpt><trkpt lat="42.2861687" lon="13.4917932"><ele>725.0</ele><time>2026-03-24T14:56:33.925Z</time></trkpt><trkpt lat="42.2862763" lon="13.491779"><ele>725.0</ele><time>2026-03-24T14:56:34.924Z</time></trkpt><trkpt lat="42.286397" lon="13.4917836"><ele>721.0</ele><time>2026-03-24T14:56:35.925Z</time></trkpt><trkpt lat="42.2865281" lon="13.491801"><ele>717.0</ele><time>2026-03-24T14:56:36.924Z</time></trkpt><trkpt lat="42.2866686" lon="13.4917963"><ele>713.0</ele><time>2026-03-24T14:56:37.925Z</time></trkpt><trkpt lat="42.2868133" lon="13.4917783"><ele>709.0</ele><time>2026-03-24T14:56:38.924Z</time></trkpt><trkpt lat="42.2869624" lon="13.4917566"><ele>709.0</ele><time>2026-03-24T14:56:39.924Z</time></trkpt><trkpt lat="42.287124" lon="13.491722"><ele>709.0</ele><time>2026-03-24T14:56:40.924Z</time></trkpt><trkpt lat="42.2872835" lon="13.4916808"><ele>709.0</ele><time>2026-03-24T14:56:41.925Z</time></trkpt><trkpt lat="42.2874408" lon="13.4916381"><ele>704.6666666666667</ele><time>2026-03-24T14:56:42.924Z</time></trkpt><trkpt lat="42.2875939" lon="13.4915972"><ele>700.3333333333334</ele><time>2026-03-24T14:56:43.924Z</time></trkpt><trkpt lat="42.2877405" lon="13.4915579"><ele>696.0</ele><time>2026-03-24T14:56:44.924Z</time></trkpt><trkpt lat="42.2878841" lon="13.4915208"><ele>696.0</ele><time>2026-03-24T14:56:45.924Z</time></trkpt><trkpt lat="42.2880113" lon="13.4914898"><ele>696.0</ele><time>2026-03-24T14:56:46.924Z</time></trkpt><trkpt lat="42.2881314" lon="13.4914562"><ele>696.0</ele><time>2026-03-24T14:56:47.924Z</time></trkpt><trkpt lat="42.2882482" lon="13.4914084"><ele>696.0</ele><time>2026-03-24T14:56:48.924Z</time></trkpt><trkpt lat="42.288362" lon="13.4913374"><ele>698.5</ele><time>2026-03-24T14:56:49.924Z</time></trkpt><trkpt lat="42.2884741" lon="13.4912358"><ele>701.0</ele><time>2026-03-24T14:56:50.924Z</time></trkpt><trkpt lat="42.288592" lon="13.4911118"><ele>703.5</ele><time>2026-03-24T14:56:51.925Z</time></trkpt><trkpt lat="42.2887223" lon="13.4909795"><ele>706.0</ele><time>2026-03-24T14:56:52.925Z</time></trkpt><trkpt lat="42.2888645" lon="13.4908437"><ele>694.6666666666667</ele><time>2026-03-24T14:56:53.924Z</time></trkpt><trkpt lat="42.289012" lon="13.4907089"><ele>683.3333333333334</ele><time>2026-03-24T14:56:54.924Z</time></trkpt><trkpt lat="42.2891537" lon="13.4905801"><ele>672.0</ele><time>2026-03-24T14:56:55.925Z</time></trkpt><trkpt lat="42.2892929" lon="13.4904623"><ele>678.5</ele><time>2026-03-24T14:56:56.924Z</time></trkpt><trkpt lat="42.2894217" lon="13.4903497"><ele>685.0</ele><time>2026-03-24T14:56:57.924Z</time></trkpt><trkpt lat="42.289537" lon="13.4902507"><ele>691.5</ele><time>2026-03-24T14:56:58.925Z</time></trkpt><trkpt lat="42.289635" lon="13.4901654"><ele>698.0</ele><time>2026-03-24T14:56:59.924Z</time></trkpt><trkpt lat="42.2897132" lon="13.4900925"><ele>698.0</ele><time>2026-03-24T14:57:00.924Z</time></trkpt><trkpt lat="42.2897686" lon="13.4900422"><ele>698.0</ele><time>2026-03-24T14:57:01.924Z</time></trkpt><trkpt lat="42.2898356" lon="13.4899835"><ele>698.0</ele><time>2026-03-24T14:57:03.925Z</time></trkpt><trkpt lat="42.289867" lon="13.4900718"><ele>698.0</ele><time>2026-03-24T14:57:06.924Z</time></trkpt><trkpt lat="42.2897749" lon="13.4902112"><ele>698.0</ele><time>2026-03-24T14:57:08.924Z</time></trkpt><trkpt lat="42.2896833" lon="13.490315"><ele>689.3333333333333</ele><time>2026-03-24T14:57:09.924Z</time></trkpt><trkpt lat="42.2895802" lon="13.4904498"><ele>680.6666666666666</ele><time>2026-03-24T14:57:10.925Z</time></trkpt><trkpt lat="42.2894759" lon="13.490589"><ele>672.0</ele><time>2026-03-24T14:57:11.925Z</time></trkpt><trkpt lat="42.2893642" lon="13.4907468"><ele>672.0</ele><time>2026-03-24T14:57:12.924Z</time></trkpt><trkpt lat="42.2892593" lon="13.4909084"><ele>672.0</ele><time>2026-03-24T14:57:13.924Z</time></trkpt><trkpt lat="42.2891511" lon="13.4910542"><ele>672.0</ele><time>2026-03-24T14:57:14.924Z</time></trkpt><trkpt lat="42.2890494" lon="13.4911907"><ele>673.0</ele><time>2026-03-24T14:57:15.924Z</time></trkpt><trkpt lat="42.2889638" lon="13.4912963"><ele>674.0</ele><time>2026-03-24T14:57:16.925Z</time></trkpt><trkpt lat="42.2888903" lon="13.4913831"><ele>675.0</ele><time>2026-03-24T14:57:17.924Z</time></trkpt><trkpt lat="42.2888441" lon="13.491457"><ele>676.0</ele><time>2026-03-24T14:57:18.924Z</time></trkpt><trkpt lat="42.2888339" lon="13.49158"><ele>677.0</ele><time>2026-03-24T14:57:20.924Z</time></trkpt><trkpt lat="42.2889358" lon="13.4916166"><ele>676.0</ele><time>2026-03-24T14:57:22.924Z</time></trkpt><trkpt lat="42.2890097" lon="13.4915713"><ele>675.0</ele><time>2026-03-24T14:57:23.925Z</time></trkpt><trkpt lat="42.2890938" lon="13.491508"><ele>674.0</ele><time>2026-03-24T14:57:24.924Z</time></trkpt><trkpt lat="42.2891892" lon="13.4914223"><ele>673.0</ele><time>2026-03-24T14:57:25.924Z</time></trkpt><trkpt lat="42.2892949" lon="13.4913265"><ele>672.0</ele><time>2026-03-24T14:57:26.924Z</time></trkpt><trkpt lat="42.2894136" lon="13.4912284"><ele>672.0</ele><time>2026-03-24T14:57:27.925Z</time></trkpt><trkpt lat="42.2895309" lon="13.4911311"><ele>672.0</ele><time>2026-03-24T14:57:28.924Z</time></trkpt><trkpt lat="42.2896508" lon="13.4910339"><ele>672.0</ele><time>2026-03-24T14:57:29.924Z</time></trkpt><trkpt lat="42.2897646" lon="13.4909412"><ele>672.0</ele><time>2026-03-24T14:57:30.924Z</time></trkpt><trkpt lat="42.2898706" lon="13.4908543"><ele>665.6</ele><time>2026-03-24T14:57:31.924Z</time></trkpt><trkpt lat="42.2899653" lon="13.49077"><ele>659.2</ele><time>2026-03-24T14:57:32.924Z</time></trkpt><trkpt lat="42.2900452" lon="13.4906952"><ele>652.8</ele><time>2026-03-24T14:57:33.924Z</time></trkpt><trkpt lat="42.2901141" lon="13.4906491"><ele>646.4</ele><time>2026-03-24T14:57:34.925Z</time></trkpt><trkpt lat="42.2902158" lon="13.4906559"><ele>640.0</ele><time>2026-03-24T14:57:36.924Z</time></trkpt><trkpt lat="42.2902235" lon="13.4907683"><ele>640.0</ele><time>2026-03-24T14:57:38.924Z</time></trkpt><trkpt lat="42.290181" lon="13.4908348"><ele>640.0</ele><time>2026-03-24T14:57:39.924Z</time></trkpt><trkpt lat="42.2901109" lon="13.4909113"><ele>640.0</ele><time>2026-03-24T14:57:40.925Z</time></trkpt><trkpt lat="42.2900221" lon="13.4910016"><ele>640.0</ele><time>2026-03-24T14:57:41.924Z</time></trkpt><trkpt lat="42.2899361" lon="13.4911308"><ele>640.0</ele><time>2026-03-24T14:57:42.925Z</time></trkpt><trkpt lat="42.2898519" lon="13.4912758"><ele>641.3333333333334</ele><time>2026-03-24T14:57:43.924Z</time></trkpt><trkpt lat="42.2897632" lon="13.4914389"><ele>642.6666666666666</ele><time>2026-03-24T14:57:44.925Z</time></trkpt><trkpt lat="42.2896644" lon="13.4916098"><ele>644.0</ele><time>2026-03-24T14:57:45.924Z</time></trkpt><trkpt lat="42.2895584" lon="13.4917872"><ele>644.0</ele><time>2026-03-24T14:57:46.924Z</time></trkpt><trkpt lat="42.2894549" lon="13.4919673"><ele>644.0</ele><time>2026-03-24T14:57:47.925Z</time></trkpt><trkpt lat="42.289351" lon="13.492139"><ele>644.0</ele><time>2026-03-24T14:57:48.924Z</time></trkpt><trkpt lat="42.2892413" lon="13.4923028"><ele>642.6666666666666</ele><time>2026-03-24T14:57:49.924Z</time></trkpt><trkpt lat="42.2891312" lon="13.4924619"><ele>641.3333333333334</ele><time>2026-03-24T14:57:50.924Z</time></trkpt><trkpt lat="42.2890172" lon="13.4926223"><ele>640.0</ele><time>2026-03-24T14:57:51.924Z</time></trkpt><trkpt lat="42.2889177" lon="13.4928004"><ele>640.0</ele><time>2026-03-24T14:57:52.924Z</time></trkpt><trkpt lat="42.288768" lon="13.4928984"><ele>640.0</ele><time>2026-03-24T14:57:53.924Z</time></trkpt><trkpt lat="42.2886198" lon="13.4930315"><ele>640.0</ele><time>2026-03-24T14:57:54.925Z</time></trkpt><trkpt lat="42.2884662" lon="13.4931604"><ele>636.3333333333334</ele><time>2026-03-24T14:57:55.924Z</time></trkpt><trkpt lat="42.2883061" lon="13.4932745"><ele>632.6666666666666</ele><time>2026-03-24T14:57:56.925Z</time></trkpt><trkpt lat="42.2881471" lon="13.4933677"><ele>629.0</ele><time>2026-03-24T14:57:57.924Z</time></trkpt><trkpt lat="42.2879994" lon="13.4934575"><ele>629.0</ele><time>2026-03-24T14:57:58.924Z</time></trkpt><trkpt lat="42.2878647" lon="13.49355"><ele>629.0</ele><time>2026-03-24T14:57:59.924Z</time></trkpt><trkpt lat="42.2877452" lon="13.4936582"><ele>629.0</ele><time>2026-03-24T14:58:00.924Z</time></trkpt><trkpt lat="42.2876325" lon="13.4937945"><ele>629.0</ele><time>2026-03-24T14:58:01.924Z</time></trkpt><trkpt lat="42.2875356" lon="13.4939525"><ele>626.3333333333333</ele><time>2026-03-24T14:58:02.924Z</time></trkpt><trkpt lat="42.2874376" lon="13.4941198"><ele>623.6666666666666</ele><time>2026-03-24T14:58:03.924Z</time></trkpt><trkpt lat="42.2873388" lon="13.4942983"><ele>621.0</ele><time>2026-03-24T14:58:04.924Z</time></trkpt><trkpt lat="42.2872262" lon="13.4944738"><ele>615.3333333333334</ele><time>2026-03-24T14:58:05.925Z</time></trkpt><trkpt lat="42.2871101" lon="13.4946329"><ele>609.6666666666667</ele><time>2026-03-24T14:58:06.925Z</time></trkpt><trkpt lat="42.2869896" lon="13.4947787"><ele>604.0</ele><time>2026-03-24T14:58:07.924Z</time></trkpt><trkpt lat="42.2868695" lon="13.4949162"><ele>604.0</ele><time>2026-03-24T14:58:08.924Z</time></trkpt><trkpt lat="42.2867523" lon="13.4950489"><ele>604.0</ele><time>2026-03-24T14:58:09.924Z</time></trkpt><trkpt lat="42.2866474" lon="13.4952022"><ele>604.0</ele><time>2026-03-24T14:58:10.924Z</time></trkpt><trkpt lat="42.2865578" lon="13.495384"><ele>605.3333333333334</ele><time>2026-03-24T14:58:11.924Z</time></trkpt><trkpt lat="42.2864669" lon="13.4955834"><ele>606.6666666666666</ele><time>2026-03-24T14:58:12.925Z</time></trkpt><trkpt lat="42.2863647" lon="13.4957793"><ele>608.0</ele><time>2026-03-24T14:58:13.925Z</time></trkpt><trkpt lat="42.286237" lon="13.4959594"><ele>608.0</ele><time>2026-03-24T14:58:14.924Z</time></trkpt><trkpt lat="42.2861251" lon="13.4961393"><ele>608.0</ele><time>2026-03-24T14:58:15.924Z</time></trkpt><trkpt lat="42.2860231" lon="13.4963217"><ele>608.0</ele><time>2026-03-24T14:58:16.925Z</time></trkpt><trkpt lat="42.2859346" lon="13.4965205"><ele>602.6666666666666</ele><time>2026-03-24T14:58:17.924Z</time></trkpt><trkpt lat="42.2858528" lon="13.4967353"><ele>597.3333333333334</ele><time>2026-03-24T14:58:18.925Z</time></trkpt><trkpt lat="42.2857699" lon="13.4969555"><ele>592.0</ele><time>2026-03-24T14:58:19.924Z</time></trkpt><trkpt lat="42.2856821" lon="13.4971766"><ele>596.6666666666667</ele><time>2026-03-24T14:58:20.924Z</time></trkpt><trkpt lat="42.2855928" lon="13.4973921"><ele>601.3333333333334</ele><time>2026-03-24T14:58:21.925Z</time></trkpt><trkpt lat="42.2855062" lon="13.4976105"><ele>606.0</ele><time>2026-03-24T14:58:22.924Z</time></trkpt><trkpt lat="42.2854078" lon="13.4978218"><ele>600.3333333333334</ele><time>2026-03-24T14:58:23.924Z</time></trkpt><trkpt lat="42.2853112" lon="13.498029"><ele>594.6666666666667</ele><time>2026-03-24T14:58:24.924Z</time></trkpt><trkpt lat="42.2852045" lon="13.4982326"><ele>589.0</ele><time>2026-03-24T14:58:25.924Z</time></trkpt><trkpt lat="42.2850995" lon="13.4984131"><ele>589.0</ele><time>2026-03-24T14:58:26.924Z</time></trkpt><trkpt lat="42.2850055" lon="13.4985834"><ele>589.0</ele><time>2026-03-24T14:58:27.924Z</time></trkpt><trkpt lat="42.2849104" lon="13.4987539"><ele>589.0</ele><time>2026-03-24T14:58:28.924Z</time></trkpt><trkpt lat="42.2848202" lon="13.4989262"><ele>588.75</ele><time>2026-03-24T14:58:29.924Z</time></trkpt><trkpt lat="42.2847381" lon="13.4991027"><ele>588.5</ele><time>2026-03-24T14:58:30.924Z</time></trkpt><trkpt lat="42.2846689" lon="13.4992796"><ele>588.25</ele><time>2026-03-24T14:58:31.924Z</time></trkpt><trkpt lat="42.2846106" lon="13.4994487"><ele>588.0</ele><time>2026-03-24T14:58:32.924Z</time></trkpt><trkpt lat="42.2845565" lon="13.4996109"><ele>588.0</ele><time>2026-03-24T14:58:33.925Z</time></trkpt><trkpt lat="42.2845056" lon="13.4997521"><ele>588.0</ele><time>2026-03-24T14:58:34.924Z</time></trkpt><trkpt lat="42.2844552" lon="13.4998787"><ele>588.0</ele><time>2026-03-24T14:58:35.924Z</time></trkpt><trkpt lat="42.2844137" lon="13.5000046"><ele>588.0</ele><time>2026-03-24T14:58:36.924Z</time></trkpt><trkpt lat="42.2844" lon="13.5001429"><ele>588.0</ele><time>2026-03-24T14:58:37.925Z</time></trkpt><trkpt lat="42.2844104" lon="13.5002678"><ele>588.0</ele><time>2026-03-24T14:58:38.925Z</time></trkpt><trkpt lat="42.2844504" lon="13.5003987"><ele>588.0</ele><time>2026-03-24T14:58:39.925Z</time></trkpt><trkpt lat="42.2845396" lon="13.5005156"><ele>588.0</ele><time>2026-03-24T14:58:40.924Z</time></trkpt><trkpt lat="42.284645" lon="13.5006281"><ele>588.0</ele><time>2026-03-24T14:58:41.924Z</time></trkpt><trkpt lat="42.284762" lon="13.500742"><ele>585.0</ele><time>2026-03-24T14:58:42.924Z</time></trkpt><trkpt lat="42.2848797" lon="13.5008509"><ele>582.0</ele><time>2026-03-24T14:58:43.924Z</time></trkpt><trkpt lat="42.2849976" lon="13.5009448"><ele>579.0</ele><time>2026-03-24T14:58:44.924Z</time></trkpt><trkpt lat="42.2851148" lon="13.5010125"><ele>576.0</ele><time>2026-03-24T14:58:45.924Z</time></trkpt><trkpt lat="42.2852373" lon="13.5010534"><ele>576.0</ele><time>2026-03-24T14:58:46.924Z</time></trkpt><trkpt lat="42.2853494" lon="13.5010849"><ele>576.0</ele><time>2026-03-24T14:58:47.925Z</time></trkpt><trkpt lat="42.285464" lon="13.5011188"><ele>576.0</ele><time>2026-03-24T14:58:48.924Z</time></trkpt><trkpt lat="42.2855665" lon="13.5011725"><ele>576.0</ele><time>2026-03-24T14:58:49.924Z</time></trkpt><trkpt lat="42.2856501" lon="13.5012368"><ele>576.0</ele><time>2026-03-24T14:58:50.924Z</time></trkpt><trkpt lat="42.2857232" lon="13.5013088"><ele>574.8</ele><time>2026-03-24T14:58:51.925Z</time></trkpt><trkpt lat="42.2857976" lon="13.5013735"><ele>573.6</ele><time>2026-03-24T14:58:52.925Z</time></trkpt><trkpt lat="42.285879" lon="13.5014851"><ele>572.4</ele><time>2026-03-24T14:58:54.924Z</time></trkpt><trkpt lat="42.2858961" lon="13.5016313"><ele>571.2</ele><time>2026-03-24T14:58:56.924Z</time></trkpt><trkpt lat="42.2858745" lon="13.5017427"><ele>570.0</ele><time>2026-03-24T14:58:57.925Z</time></trkpt><trkpt lat="42.2858195" lon="13.501891"><ele>570.0</ele><time>2026-03-24T14:58:58.924Z</time></trkpt><trkpt lat="42.2857565" lon="13.50206"><ele>570.0</ele><time>2026-03-24T14:58:59.924Z</time></trkpt><trkpt lat="42.285694" lon="13.5022508"><ele>570.0</ele><time>2026-03-24T14:59:00.925Z</time></trkpt><trkpt lat="42.2856184" lon="13.5024671"><ele>570.0</ele><time>2026-03-24T14:59:01.925Z</time></trkpt><trkpt lat="42.2855408" lon="13.5026968"><ele>570.0</ele><time>2026-03-24T14:59:02.924Z</time></trkpt><trkpt lat="42.2854535" lon="13.5029486"><ele>570.0</ele><time>2026-03-24T14:59:03.924Z</time></trkpt><trkpt lat="42.2853651" lon="13.5032194"><ele>570.0</ele><time>2026-03-24T14:59:04.925Z</time></trkpt><trkpt lat="42.2852788" lon="13.5034943"><ele>570.0</ele><time>2026-03-24T14:59:05.924Z</time></trkpt><trkpt lat="42.2851772" lon="13.5037881"><ele>568.0</ele><time>2026-03-24T14:59:06.925Z</time></trkpt><trkpt lat="42.2850778" lon="13.5040869"><ele>566.0</ele><time>2026-03-24T14:59:07.924Z</time></trkpt><trkpt lat="42.2849773" lon="13.504387"><ele>565.0</ele><time>2026-03-24T14:59:08.925Z</time></trkpt><trkpt lat="42.2848738" lon="13.5046912"><ele>564.0</ele><time>2026-03-24T14:59:09.925Z</time></trkpt><trkpt lat="42.2847677" lon="13.5049929"><ele>564.5</ele><time>2026-03-24T14:59:10.925Z</time></trkpt><trkpt lat="42.2846628" lon="13.505306"><ele>565.0</ele><time>2026-03-24T14:59:11.924Z</time></trkpt><trkpt lat="42.284555" lon="13.505626"><ele>565.0</ele><time>2026-03-24T14:59:12.925Z</time></trkpt><trkpt lat="42.2844454" lon="13.50595"><ele>565.0</ele><time>2026-03-24T14:59:13.924Z</time></trkpt><trkpt lat="42.2843331" lon="13.5062761"><ele>565.5</ele><time>2026-03-24T14:59:14.924Z</time></trkpt><trkpt lat="42.2842211" lon="13.5066078"><ele>566.0</ele><time>2026-03-24T14:59:15.924Z</time></trkpt><trkpt lat="42.2841093" lon="13.5069464"><ele>567.0</ele><time>2026-03-24T14:59:16.924Z</time></trkpt><trkpt lat="42.2839967" lon="13.5072809"><ele>568.0</ele><time>2026-03-24T14:59:17.925Z</time></trkpt><trkpt lat="42.2838834" lon="13.5076133"><ele>566.5</ele><time>2026-03-24T14:59:18.924Z</time></trkpt><trkpt lat="42.2837719" lon="13.5079448"><ele>565.0</ele><time>2026-03-24T14:59:19.924Z</time></trkpt><trkpt lat="42.2836632" lon="13.5082678"><ele>565.0</ele><time>2026-03-24T14:59:20.925Z</time></trkpt><trkpt lat="42.2835554" lon="13.5085844"><ele>565.0</ele><time>2026-03-24T14:59:21.925Z</time></trkpt><trkpt lat="42.2834494" lon="13.5088936"><ele>566.0</ele><time>2026-03-24T14:59:22.924Z</time></trkpt><trkpt lat="42.2833471" lon="13.509193"><ele>567.0</ele><time>2026-03-24T14:59:23.924Z</time></trkpt><trkpt lat="42.2832447" lon="13.5094842"><ele>567.0</ele><time>2026-03-24T14:59:24.924Z</time></trkpt><trkpt lat="42.2831464" lon="13.5097718"><ele>567.0</ele><time>2026-03-24T14:59:25.924Z</time></trkpt><trkpt lat="42.2830513" lon="13.5100464"><ele>567.0</ele><time>2026-03-24T14:59:26.924Z</time></trkpt><trkpt lat="42.2829595" lon="13.5103049"><ele>567.0</ele><time>2026-03-24T14:59:27.924Z</time></trkpt><trkpt lat="42.2828737" lon="13.5105516"><ele>567.0</ele><time>2026-03-24T14:59:28.925Z</time></trkpt><trkpt lat="42.2827891" lon="13.5107936"><ele>567.0</ele><time>2026-03-24T14:59:29.924Z</time></trkpt><trkpt lat="42.2827075" lon="13.5110289"><ele>567.0</ele><time>2026-03-24T14:59:30.924Z</time></trkpt><trkpt lat="42.282626" lon="13.5112668"><ele>567.0</ele><time>2026-03-24T14:59:31.924Z</time></trkpt><trkpt lat="42.2825488" lon="13.5114986"><ele>566.0</ele><time>2026-03-24T14:59:32.925Z</time></trkpt><trkpt lat="42.2824793" lon="13.5117156"><ele>565.0</ele><time>2026-03-24T14:59:33.925Z</time></trkpt><trkpt lat="42.2824113" lon="13.5119146"><ele>564.0</ele><time>2026-03-24T14:59:34.925Z</time></trkpt><trkpt lat="42.2823493" lon="13.5120896"><ele>564.0</ele><time>2026-03-24T14:59:35.924Z</time></trkpt><trkpt lat="42.282295" lon="13.5122483"><ele>564.0</ele><time>2026-03-24T14:59:36.924Z</time></trkpt><trkpt lat="42.282254" lon="13.5123845"><ele>564.0</ele><time>2026-03-24T14:59:37.924Z</time></trkpt><trkpt lat="42.2822279" lon="13.5124914"><ele>564.0</ele><time>2026-03-24T14:59:38.925Z</time></trkpt><trkpt lat="42.2822169" lon="13.512581"><ele>564.0</ele><time>2026-03-24T14:59:39.924Z</time></trkpt><trkpt lat="42.2822352" lon="13.5126829"><ele>564.0</ele><time>2026-03-24T14:59:40.924Z</time></trkpt><trkpt lat="42.2822854" lon="13.5128005"><ele>564.0</ele><time>2026-03-24T14:59:41.925Z</time></trkpt><trkpt lat="42.2823643" lon="13.5129381"><ele>564.0</ele><time>2026-03-24T14:59:42.924Z</time></trkpt><trkpt lat="42.2824597" lon="13.5130933"><ele>564.0</ele><time>2026-03-24T14:59:43.924Z</time></trkpt><trkpt lat="42.2825609" lon="13.5132567"><ele>564.0</ele><time>2026-03-24T14:59:44.924Z</time></trkpt><trkpt lat="42.2826721" lon="13.5134413"><ele>564.0</ele><time>2026-03-24T14:59:45.924Z</time></trkpt><trkpt lat="42.2827925" lon="13.5136383"><ele>564.0</ele><time>2026-03-24T14:59:46.924Z</time></trkpt><trkpt lat="42.2829182" lon="13.5138314"><ele>564.0</ele><time>2026-03-24T14:59:47.924Z</time></trkpt><trkpt lat="42.2830463" lon="13.5140378"><ele>564.0</ele><time>2026-03-24T14:59:48.924Z</time></trkpt><trkpt lat="42.2831813" lon="13.5142501"><ele>564.0</ele><time>2026-03-24T14:59:49.924Z</time></trkpt><trkpt lat="42.2833196" lon="13.5144678"><ele>563.6666666666666</ele><time>2026-03-24T14:59:50.924Z</time></trkpt><trkpt lat="42.2834581" lon="13.5146938"><ele>563.3333333333333</ele><time>2026-03-24T14:59:51.924Z</time></trkpt><trkpt lat="42.2835991" lon="13.5149176"><ele>563.0</ele><time>2026-03-24T14:59:52.925Z</time></trkpt><trkpt lat="42.2837378" lon="13.515153"><ele>563.0</ele><time>2026-03-24T14:59:53.924Z</time></trkpt><trkpt lat="42.2838715" lon="13.5153911"><ele>563.0</ele><time>2026-03-24T14:59:54.924Z</time></trkpt><trkpt lat="42.2839962" lon="13.5156453"><ele>563.0</ele><time>2026-03-24T14:59:55.924Z</time></trkpt><trkpt lat="42.2841108" lon="13.5159001"><ele>563.0</ele><time>2026-03-24T14:59:56.925Z</time></trkpt><trkpt lat="42.2842255" lon="13.5161557"><ele>563.0</ele><time>2026-03-24T14:59:57.925Z</time></trkpt><trkpt lat="42.28434" lon="13.5163911"><ele>563.0</ele><time>2026-03-24T14:59:58.924Z</time></trkpt><trkpt lat="42.284454" lon="13.5165969"><ele>563.0</ele><time>2026-03-24T14:59:59.925Z</time></trkpt><trkpt lat="42.2845795" lon="13.5167706"><ele>563.0</ele><time>2026-03-24T15:00:00.924Z</time></trkpt><trkpt lat="42.2847194" lon="13.516905"><ele>563.0</ele><time>2026-03-24T15:00:01.924Z</time></trkpt><trkpt lat="42.2848813" lon="13.5170052"><ele>563.0</ele><time>2026-03-24T15:00:02.924Z</time></trkpt><trkpt lat="42.2850557" lon="13.5171038"><ele>563.0</ele><time>2026-03-24T15:00:03.925Z</time></trkpt><trkpt lat="42.2852335" lon="13.5172173"><ele>563.0</ele><time>2026-03-24T15:00:04.924Z</time></trkpt><trkpt lat="42.285386" lon="13.5173295"><ele>563.0</ele><time>2026-03-24T15:00:05.924Z</time></trkpt><trkpt lat="42.2855185" lon="13.5174492"><ele>563.0</ele><time>2026-03-24T15:00:06.924Z</time></trkpt><trkpt lat="42.2856294" lon="13.5175847"><ele>563.0</ele><time>2026-03-24T15:00:07.924Z</time></trkpt><trkpt lat="42.2857038" lon="13.5177496"><ele>563.6666666666666</ele><time>2026-03-24T15:00:08.925Z</time></trkpt><trkpt lat="42.2857875" lon="13.5179155"><ele>564.3333333333334</ele><time>2026-03-24T15:00:09.924Z</time></trkpt><trkpt lat="42.285807" lon="13.5181659"><ele>565.0</ele><time>2026-03-24T15:00:10.925Z</time></trkpt><trkpt lat="42.2858608" lon="13.5183808"><ele>565.0</ele><time>2026-03-24T15:00:11.925Z</time></trkpt><trkpt lat="42.2859014" lon="13.5186764"><ele>565.0</ele><time>2026-03-24T15:00:12.925Z</time></trkpt><trkpt lat="42.2859369" lon="13.5189577"><ele>565.0</ele><time>2026-03-24T15:00:13.924Z</time></trkpt><trkpt lat="42.2859769" lon="13.5192474"><ele>565.0</ele><time>2026-03-24T15:00:14.924Z</time></trkpt><trkpt lat="42.2860194" lon="13.5195576"><ele>565.0</ele><time>2026-03-24T15:00:15.924Z</time></trkpt><trkpt lat="42.2860624" lon="13.519876"><ele>565.0</ele><time>2026-03-24T15:00:16.924Z</time></trkpt><trkpt lat="42.2860996" lon="13.5201967"><ele>565.0</ele><time>2026-03-24T15:00:17.924Z</time></trkpt><trkpt lat="42.286136" lon="13.5205032"><ele>565.0</ele><time>2026-03-24T15:00:18.924Z</time></trkpt><trkpt lat="42.2861736" lon="13.5207885"><ele>565.0</ele><time>2026-03-24T15:00:19.924Z</time></trkpt><trkpt lat="42.2862185" lon="13.5210469"><ele>565.0</ele><time>2026-03-24T15:00:20.925Z</time></trkpt><trkpt lat="42.2862746" lon="13.5212711"><ele>565.0</ele><time>2026-03-24T15:00:21.924Z</time></trkpt><trkpt lat="42.2863371" lon="13.521464"><ele>565.0</ele><time>2026-03-24T15:00:22.924Z</time></trkpt><trkpt lat="42.2864212" lon="13.5216251"><ele>565.0</ele><time>2026-03-24T15:00:23.924Z</time></trkpt><trkpt lat="42.2865302" lon="13.5217559"><ele>565.0</ele><time>2026-03-24T15:00:24.924Z</time></trkpt><trkpt lat="42.286665" lon="13.5218665"><ele>565.0</ele><time>2026-03-24T15:00:25.924Z</time></trkpt><trkpt lat="42.2868231" lon="13.5219651"><ele>565.0</ele><time>2026-03-24T15:00:26.924Z</time></trkpt><trkpt lat="42.2869925" lon="13.5220629"><ele>565.0</ele><time>2026-03-24T15:00:27.925Z</time></trkpt><trkpt lat="42.2871692" lon="13.5221545"><ele>567.0</ele><time>2026-03-24T15:00:28.925Z</time></trkpt><trkpt lat="42.2873533" lon="13.5222371"><ele>569.0</ele><time>2026-03-24T15:00:29.924Z</time></trkpt><trkpt lat="42.2875446" lon="13.5223149"><ele>571.0</ele><time>2026-03-24T15:00:30.924Z</time></trkpt><trkpt lat="42.2877409" lon="13.522396"><ele>571.0</ele><time>2026-03-24T15:00:31.925Z</time></trkpt><trkpt lat="42.2879358" lon="13.5224781"><ele>571.0</ele><time>2026-03-24T15:00:32.924Z</time></trkpt><trkpt lat="42.2881233" lon="13.5225699"><ele>571.0</ele><time>2026-03-24T15:00:33.925Z</time></trkpt><trkpt lat="42.2882983" lon="13.5226599"><ele>572.6666666666667</ele><time>2026-03-24T15:00:34.925Z</time></trkpt><trkpt lat="42.2884615" lon="13.522748"><ele>574.3333333333334</ele><time>2026-03-24T15:00:35.925Z</time></trkpt><trkpt lat="42.2886102" lon="13.5228353"><ele>576.0</ele><time>2026-03-24T15:00:36.924Z</time></trkpt><trkpt lat="42.2887453" lon="13.5229404"><ele>577.3333333333334</ele><time>2026-03-24T15:00:37.924Z</time></trkpt><trkpt lat="42.2888617" lon="13.5230845"><ele>578.6666666666667</ele><time>2026-03-24T15:00:38.924Z</time></trkpt><trkpt lat="42.2889755" lon="13.5232484"><ele>580.0</ele><time>2026-03-24T15:00:39.924Z</time></trkpt><trkpt lat="42.2890903" lon="13.523423"><ele>580.0</ele><time>2026-03-24T15:00:40.924Z</time></trkpt><trkpt lat="42.2892037" lon="13.5235954"><ele>580.0</ele><time>2026-03-24T15:00:41.924Z</time></trkpt><trkpt lat="42.2893104" lon="13.5237599"><ele>580.0</ele><time>2026-03-24T15:00:42.925Z</time></trkpt><trkpt lat="42.2894003" lon="13.5239101"><ele>582.5</ele><time>2026-03-24T15:00:43.924Z</time></trkpt><trkpt lat="42.28947" lon="13.5240551"><ele>585.0</ele><time>2026-03-24T15:00:44.924Z</time></trkpt><trkpt lat="42.2895097" lon="13.5241978"><ele>587.5</ele><time>2026-03-24T15:00:45.925Z</time></trkpt><trkpt lat="42.289528" lon="13.5243457"><ele>590.0</ele><time>2026-03-24T15:00:46.924Z</time></trkpt><trkpt lat="42.289513" lon="13.5244837"><ele>590.4</ele><time>2026-03-24T15:00:47.924Z</time></trkpt><trkpt lat="42.2894899" lon="13.524625"><ele>590.8</ele><time>2026-03-24T15:00:48.924Z</time></trkpt><trkpt lat="42.289478" lon="13.5247689"><ele>591.2</ele><time>2026-03-24T15:00:49.925Z</time></trkpt><trkpt lat="42.2894915" lon="13.5249092"><ele>591.6</ele><time>2026-03-24T15:00:50.924Z</time></trkpt><trkpt lat="42.2895401" lon="13.5250394"><ele>592.0</ele><time>2026-03-24T15:00:51.924Z</time></trkpt><trkpt lat="42.2896177" lon="13.525161"><ele>592.0</ele><time>2026-03-24T15:00:52.924Z</time></trkpt><trkpt lat="42.2897318" lon="13.5252734"><ele>592.0</ele><time>2026-03-24T15:00:53.924Z</time></trkpt><trkpt lat="42.2898639" lon="13.5253648"><ele>592.0</ele><time>2026-03-24T15:00:54.924Z</time></trkpt><trkpt lat="42.2900213" lon="13.5254396"><ele>587.3333333333334</ele><time>2026-03-24T15:00:55.924Z</time></trkpt><trkpt lat="42.2901856" lon="13.5255126"><ele>582.6666666666666</ele><time>2026-03-24T15:00:56.924Z</time></trkpt><trkpt lat="42.290342" lon="13.5255814"><ele>578.0</ele><time>2026-03-24T15:00:57.925Z</time></trkpt><trkpt lat="42.2904912" lon="13.5256443"><ele>578.75</ele><time>2026-03-24T15:00:58.924Z</time></trkpt><trkpt lat="42.290626" lon="13.5257226"><ele>579.5</ele><time>2026-03-24T15:00:59.924Z</time></trkpt><trkpt lat="42.2907474" lon="13.52582"><ele>580.25</ele><time>2026-03-24T15:01:00.924Z</time></trkpt><trkpt lat="42.2908607" lon="13.5259412"><ele>581.0</ele><time>2026-03-24T15:01:01.924Z</time></trkpt><trkpt lat="42.2909629" lon="13.5261003"><ele>577.6666666666666</ele><time>2026-03-24T15:01:02.924Z</time></trkpt><trkpt lat="42.2910696" lon="13.5262712"><ele>574.3333333333334</ele><time>2026-03-24T15:01:03.924Z</time></trkpt><trkpt lat="42.2911979" lon="13.5264336"><ele>571.0</ele><time>2026-03-24T15:01:04.924Z</time></trkpt><trkpt lat="42.2913449" lon="13.5265747"><ele>574.3333333333334</ele><time>2026-03-24T15:01:05.925Z</time></trkpt><trkpt lat="42.2914999" lon="13.5266902"><ele>577.6666666666666</ele><time>2026-03-24T15:01:06.924Z</time></trkpt><trkpt lat="42.2916504" lon="13.5267919"><ele>581.0</ele><time>2026-03-24T15:01:07.924Z</time></trkpt><trkpt lat="42.2917883" lon="13.5269074"><ele>581.0</ele><time>2026-03-24T15:01:08.925Z</time></trkpt><trkpt lat="42.2919099" lon="13.5270373"><ele>581.0</ele><time>2026-03-24T15:01:09.924Z</time></trkpt><trkpt lat="42.2920208" lon="13.5271928"><ele>581.0</ele><time>2026-03-24T15:01:10.924Z</time></trkpt><trkpt lat="42.2921082" lon="13.5273719"><ele>578.3333333333333</ele><time>2026-03-24T15:01:11.925Z</time></trkpt><trkpt lat="42.2921907" lon="13.52756"><ele>575.6666666666666</ele><time>2026-03-24T15:01:12.925Z</time></trkpt><trkpt lat="42.2922708" lon="13.527759"><ele>573.0</ele><time>2026-03-24T15:01:13.925Z</time></trkpt><trkpt lat="42.2923481" lon="13.5279699"><ele>570.3333333333334</ele><time>2026-03-24T15:01:14.924Z</time></trkpt><trkpt lat="42.2924249" lon="13.5281855"><ele>567.6666666666667</ele><time>2026-03-24T15:01:15.925Z</time></trkpt><trkpt lat="42.2925083" lon="13.5283933"><ele>565.0</ele><time>2026-03-24T15:01:16.924Z</time></trkpt><trkpt lat="42.2926059" lon="13.5285848"><ele>565.0</ele><time>2026-03-24T15:01:17.924Z</time></trkpt><trkpt lat="42.2927227" lon="13.5287409"><ele>565.0</ele><time>2026-03-24T15:01:18.924Z</time></trkpt><trkpt lat="42.2928536" lon="13.5288678"><ele>565.0</ele><time>2026-03-24T15:01:19.924Z</time></trkpt><trkpt lat="42.2929798" lon="13.5289765"><ele>565.25</ele><time>2026-03-24T15:01:20.924Z</time></trkpt><trkpt lat="42.2930983" lon="13.5290789"><ele>565.5</ele><time>2026-03-24T15:01:21.924Z</time></trkpt><trkpt lat="42.2932062" lon="13.5291797"><ele>565.75</ele><time>2026-03-24T15:01:22.925Z</time></trkpt><trkpt lat="42.2933057" lon="13.5292812"><ele>566.0</ele><time>2026-03-24T15:01:23.924Z</time></trkpt><trkpt lat="42.293393" lon="13.5294071"><ele>566.0</ele><time>2026-03-24T15:01:24.924Z</time></trkpt><trkpt lat="42.2934684" lon="13.5295694"><ele>566.0</ele><time>2026-03-24T15:01:25.925Z</time></trkpt><trkpt lat="42.293534" lon="13.5297719"><ele>566.0</ele><time>2026-03-24T15:01:26.924Z</time></trkpt><trkpt lat="42.2936012" lon="13.5300022"><ele>566.0</ele><time>2026-03-24T15:01:27.924Z</time></trkpt><trkpt lat="42.2936709" lon="13.5302517"><ele>566.0</ele><time>2026-03-24T15:01:28.924Z</time></trkpt><trkpt lat="42.2937358" lon="13.5305194"><ele>566.0</ele><time>2026-03-24T15:01:29.924Z</time></trkpt><trkpt lat="42.2937995" lon="13.5308016"><ele>566.0</ele><time>2026-03-24T15:01:30.924Z</time></trkpt><trkpt lat="42.2938576" lon="13.5310849"><ele>566.0</ele><time>2026-03-24T15:01:31.925Z</time></trkpt><trkpt lat="42.2939199" lon="13.5313752"><ele>566.0</ele><time>2026-03-24T15:01:32.924Z</time></trkpt><trkpt lat="42.2939896" lon="13.5316709"><ele>566.5</ele><time>2026-03-24T15:01:33.924Z</time></trkpt><trkpt lat="42.2940676" lon="13.5319695"><ele>567.0</ele><time>2026-03-24T15:01:34.924Z</time></trkpt><trkpt lat="42.2941565" lon="13.5322703"><ele>567.0</ele><time>2026-03-24T15:01:35.924Z</time></trkpt><trkpt lat="42.294262" lon="13.5325599"><ele>567.0</ele><time>2026-03-24T15:01:36.924Z</time></trkpt><trkpt lat="42.2943851" lon="13.532832"><ele>567.0</ele><time>2026-03-24T15:01:37.924Z</time></trkpt><trkpt lat="42.2945131" lon="13.5330882"><ele>567.0</ele><time>2026-03-24T15:01:38.924Z</time></trkpt><trkpt lat="42.2946383" lon="13.5333266"><ele>567.0</ele><time>2026-03-24T15:01:39.925Z</time></trkpt><trkpt lat="42.2947587" lon="13.5335479"><ele>568.0</ele><time>2026-03-24T15:01:40.924Z</time></trkpt><trkpt lat="42.2948761" lon="13.5337519"><ele>569.0</ele><time>2026-03-24T15:01:41.925Z</time></trkpt><trkpt lat="42.2949844" lon="13.5339397"><ele>570.0</ele><time>2026-03-24T15:01:42.924Z</time></trkpt><trkpt lat="42.2950947" lon="13.5341048"><ele>570.0</ele><time>2026-03-24T15:01:43.925Z</time></trkpt><trkpt lat="42.2951934" lon="13.5342574"><ele>570.0</ele><time>2026-03-24T15:01:44.925Z</time></trkpt><trkpt lat="42.2952745" lon="13.5343902"><ele>570.0</ele><time>2026-03-24T15:01:45.924Z</time></trkpt><trkpt lat="42.2953416" lon="13.5345045"><ele>570.0</ele><time>2026-03-24T15:01:46.924Z</time></trkpt><trkpt lat="42.2954063" lon="13.5345955"><ele>571.0</ele><time>2026-03-24T15:01:47.925Z</time></trkpt><trkpt lat="42.2954541" lon="13.5346739"><ele>571.0</ele><time>2026-03-24T15:01:48.925Z</time></trkpt><trkpt lat="42.2955178" lon="13.5347781"><ele>571.0</ele><time>2026-03-24T15:01:50.924Z</time></trkpt></trkseg></trk></gpx>